<?xml version="1.0" encoding="UTF-8" standalone="no" ?>
<gpx xmlns="http://www.topografix.com/GPX/1/1" xmlns:xsi="http://www.w3.org/2001/XMLSchema-instance" xsi:schemaLocation="http://www.topografix.com/GPX/1/1 http://www.topografix.com/GPX/1/1/gpx.xsd" version="1.1" creator="VisuGPX - https://www.visugpx.com">
  <metadata>
    <name>Sortie longue Angers Bourgneuf</name>
    <desc><![CDATA[Sortie longue de 300 km]]></desc>
  </metadata>
  <trk>
    <name><![CDATA[Sortie longue Angers Bourgneuf_1]]></name>
    <trkseg>
      <trkpt lat="47.44195" lon="-0.50965">
        <ele>23</ele>
        <time>2010-08-13T08:51:36Z</time>
      </trkpt>
      <trkpt lat="47.44155" lon="-0.50983">
        <ele>22</ele>
        <time>2010-08-13T08:51:41Z</time>
      </trkpt>
      <trkpt lat="47.44124" lon="-0.50999">
        <ele>21</ele>
        <time>2010-08-13T08:51:46Z</time>
      </trkpt>
      <trkpt lat="47.44085" lon="-0.51017">
        <ele>21</ele>
        <time>2010-08-13T08:51:51Z</time>
      </trkpt>
      <trkpt lat="47.4404" lon="-0.51033">
        <ele>22</ele>
        <time>2010-08-13T08:51:56Z</time>
      </trkpt>
      <trkpt lat="47.44006" lon="-0.51048">
        <ele>23</ele>
        <time>2010-08-13T08:52:01Z</time>
      </trkpt>
      <trkpt lat="47.43976" lon="-0.51047">
        <ele>23</ele>
        <time>2010-08-13T08:52:06Z</time>
      </trkpt>
      <trkpt lat="47.43949" lon="-0.51011">
        <ele>23</ele>
        <time>2010-08-13T08:52:11Z</time>
      </trkpt>
      <trkpt lat="47.43933" lon="-0.50949">
        <ele>22</ele>
        <time>2010-08-13T08:52:16Z</time>
      </trkpt>
      <trkpt lat="47.43919" lon="-0.509">
        <ele>23</ele>
        <time>2010-08-13T08:52:21Z</time>
      </trkpt>
      <trkpt lat="47.43899" lon="-0.50858">
        <ele>24</ele>
        <time>2010-08-13T08:52:26Z</time>
      </trkpt>
      <trkpt lat="47.43872" lon="-0.50853">
        <ele>24</ele>
        <time>2010-08-13T08:52:31Z</time>
      </trkpt>
      <trkpt lat="47.4385" lon="-0.50862">
        <ele>24</ele>
        <time>2010-08-13T08:52:36Z</time>
      </trkpt>
      <trkpt lat="47.43851" lon="-0.50862">
        <ele>24</ele>
        <time>2010-08-13T08:52:41Z</time>
      </trkpt>
      <trkpt lat="47.43851" lon="-0.50862">
        <ele>24</ele>
        <time>2010-08-13T08:52:46Z</time>
      </trkpt>
      <trkpt lat="47.43851" lon="-0.50862">
        <ele>24</ele>
        <time>2010-08-13T08:52:51Z</time>
      </trkpt>
      <trkpt lat="47.43852" lon="-0.50862">
        <ele>24</ele>
        <time>2010-08-13T08:52:56Z</time>
      </trkpt>
      <trkpt lat="47.43852" lon="-0.50862">
        <ele>24</ele>
        <time>2010-08-13T08:53:01Z</time>
      </trkpt>
      <trkpt lat="47.43852" lon="-0.50863">
        <ele>24</ele>
        <time>2010-08-13T08:53:06Z</time>
      </trkpt>
      <trkpt lat="47.43852" lon="-0.50862">
        <ele>24</ele>
        <time>2010-08-13T08:53:11Z</time>
      </trkpt>
      <trkpt lat="47.43853" lon="-0.50862">
        <ele>24</ele>
        <time>2010-08-13T08:53:16Z</time>
      </trkpt>
      <trkpt lat="47.43853" lon="-0.50862">
        <ele>24</ele>
        <time>2010-08-13T08:53:21Z</time>
      </trkpt>
      <trkpt lat="47.43846" lon="-0.50866">
        <ele>24</ele>
        <time>2010-08-13T08:53:26Z</time>
      </trkpt>
      <trkpt lat="47.43834" lon="-0.50888">
        <ele>24</ele>
        <time>2010-08-13T08:53:31Z</time>
      </trkpt>
      <trkpt lat="47.43824" lon="-0.50914">
        <ele>24</ele>
        <time>2010-08-13T08:53:36Z</time>
      </trkpt>
      <trkpt lat="47.4381" lon="-0.50948">
        <ele>24</ele>
        <time>2010-08-13T08:53:41Z</time>
      </trkpt>
      <trkpt lat="47.438" lon="-0.50984">
        <ele>24</ele>
        <time>2010-08-13T08:53:46Z</time>
      </trkpt>
      <trkpt lat="47.43787" lon="-0.51029">
        <ele>24</ele>
        <time>2010-08-13T08:53:51Z</time>
      </trkpt>
      <trkpt lat="47.43777" lon="-0.51071">
        <ele>24</ele>
        <time>2010-08-13T08:53:56Z</time>
      </trkpt>
      <trkpt lat="47.4377" lon="-0.51113">
        <ele>24</ele>
        <time>2010-08-13T08:54:01Z</time>
      </trkpt>
      <trkpt lat="47.43766" lon="-0.51176">
        <ele>23</ele>
        <time>2010-08-13T08:54:06Z</time>
      </trkpt>
      <trkpt lat="47.4376" lon="-0.51243">
        <ele>24</ele>
        <time>2010-08-13T08:54:11Z</time>
      </trkpt>
      <trkpt lat="47.43743" lon="-0.5132">
        <ele>23</ele>
        <time>2010-08-13T08:54:16Z</time>
      </trkpt>
      <trkpt lat="47.43728" lon="-0.51383">
        <ele>22</ele>
        <time>2010-08-13T08:54:21Z</time>
      </trkpt>
      <trkpt lat="47.43717" lon="-0.51431">
        <ele>21</ele>
        <time>2010-08-13T08:54:26Z</time>
      </trkpt>
      <trkpt lat="47.43706" lon="-0.51485">
        <ele>21</ele>
        <time>2010-08-13T08:54:31Z</time>
      </trkpt>
      <trkpt lat="47.43692" lon="-0.51538">
        <ele>21</ele>
        <time>2010-08-13T08:54:36Z</time>
      </trkpt>
      <trkpt lat="47.43677" lon="-0.516">
        <ele>22</ele>
        <time>2010-08-13T08:54:41Z</time>
      </trkpt>
      <trkpt lat="47.43667" lon="-0.51641">
        <ele>23</ele>
        <time>2010-08-13T08:54:46Z</time>
      </trkpt>
      <trkpt lat="47.43655" lon="-0.51691">
        <ele>23</ele>
        <time>2010-08-13T08:54:51Z</time>
      </trkpt>
      <trkpt lat="47.43644" lon="-0.51741">
        <ele>23</ele>
        <time>2010-08-13T08:54:56Z</time>
      </trkpt>
      <trkpt lat="47.4363" lon="-0.518">
        <ele>22</ele>
        <time>2010-08-13T08:55:01Z</time>
      </trkpt>
      <trkpt lat="47.43618" lon="-0.51847">
        <ele>21</ele>
        <time>2010-08-13T08:55:06Z</time>
      </trkpt>
      <trkpt lat="47.4361" lon="-0.51886">
        <ele>20</ele>
        <time>2010-08-13T08:55:11Z</time>
      </trkpt>
      <trkpt lat="47.43598" lon="-0.51938">
        <ele>19</ele>
        <time>2010-08-13T08:55:16Z</time>
      </trkpt>
      <trkpt lat="47.43582" lon="-0.52">
        <ele>18</ele>
        <time>2010-08-13T08:55:21Z</time>
      </trkpt>
      <trkpt lat="47.43571" lon="-0.52052">
        <ele>18</ele>
        <time>2010-08-13T08:55:26Z</time>
      </trkpt>
      <trkpt lat="47.43561" lon="-0.52094">
        <ele>19</ele>
        <time>2010-08-13T08:55:31Z</time>
      </trkpt>
      <trkpt lat="47.43548" lon="-0.52146">
        <ele>19</ele>
        <time>2010-08-13T08:55:36Z</time>
      </trkpt>
      <trkpt lat="47.43537" lon="-0.52198">
        <ele>20</ele>
        <time>2010-08-13T08:55:41Z</time>
      </trkpt>
      <trkpt lat="47.43522" lon="-0.5226">
        <ele>20</ele>
        <time>2010-08-13T08:55:46Z</time>
      </trkpt>
      <trkpt lat="47.4351" lon="-0.52311">
        <ele>19</ele>
        <time>2010-08-13T08:55:51Z</time>
      </trkpt>
      <trkpt lat="47.43501" lon="-0.5235">
        <ele>19</ele>
        <time>2010-08-13T08:55:56Z</time>
      </trkpt>
      <trkpt lat="47.43489" lon="-0.52401">
        <ele>19</ele>
        <time>2010-08-13T08:56:01Z</time>
      </trkpt>
      <trkpt lat="47.43474" lon="-0.52465">
        <ele>19</ele>
        <time>2010-08-13T08:56:06Z</time>
      </trkpt>
      <trkpt lat="47.43461" lon="-0.52517">
        <ele>19</ele>
        <time>2010-08-13T08:56:11Z</time>
      </trkpt>
      <trkpt lat="47.43452" lon="-0.52558">
        <ele>19</ele>
        <time>2010-08-13T08:56:16Z</time>
      </trkpt>
      <trkpt lat="47.4344" lon="-0.5261">
        <ele>19</ele>
        <time>2010-08-13T08:56:21Z</time>
      </trkpt>
      <trkpt lat="47.43426" lon="-0.52671">
        <ele>20</ele>
        <time>2010-08-13T08:56:26Z</time>
      </trkpt>
      <trkpt lat="47.43414" lon="-0.52722">
        <ele>21</ele>
        <time>2010-08-13T08:56:31Z</time>
      </trkpt>
      <trkpt lat="47.43399" lon="-0.52771">
        <ele>22</ele>
        <time>2010-08-13T08:56:36Z</time>
      </trkpt>
      <trkpt lat="47.43389" lon="-0.52811">
        <ele>22</ele>
        <time>2010-08-13T08:56:41Z</time>
      </trkpt>
      <trkpt lat="47.43378" lon="-0.52857">
        <ele>21</ele>
        <time>2010-08-13T08:56:46Z</time>
      </trkpt>
      <trkpt lat="47.43371" lon="-0.52887">
        <ele>21</ele>
        <time>2010-08-13T08:56:51Z</time>
      </trkpt>
      <trkpt lat="47.43375" lon="-0.52917">
        <ele>21</ele>
        <time>2010-08-13T08:56:56Z</time>
      </trkpt>
      <trkpt lat="47.43381" lon="-0.52942">
        <ele>21</ele>
        <time>2010-08-13T08:57:01Z</time>
      </trkpt>
      <trkpt lat="47.43362" lon="-0.52966">
        <ele>21</ele>
        <time>2010-08-13T08:57:06Z</time>
      </trkpt>
      <trkpt lat="47.43331" lon="-0.52956">
        <ele>21</ele>
        <time>2010-08-13T08:57:11Z</time>
      </trkpt>
      <trkpt lat="47.43292" lon="-0.52934">
        <ele>22</ele>
        <time>2010-08-13T08:57:16Z</time>
      </trkpt>
      <trkpt lat="47.43259" lon="-0.52912">
        <ele>22</ele>
        <time>2010-08-13T08:57:21Z</time>
      </trkpt>
      <trkpt lat="47.43232" lon="-0.52899">
        <ele>22</ele>
        <time>2010-08-13T08:57:26Z</time>
      </trkpt>
      <trkpt lat="47.43199" lon="-0.52881">
        <ele>21</ele>
        <time>2010-08-13T08:57:31Z</time>
      </trkpt>
      <trkpt lat="47.43164" lon="-0.52863">
        <ele>20</ele>
        <time>2010-08-13T08:57:36Z</time>
      </trkpt>
      <trkpt lat="47.43122" lon="-0.52846">
        <ele>20</ele>
        <time>2010-08-13T08:57:41Z</time>
      </trkpt>
      <trkpt lat="47.43088" lon="-0.52832">
        <ele>19</ele>
        <time>2010-08-13T08:57:46Z</time>
      </trkpt>
      <trkpt lat="47.43061" lon="-0.52824">
        <ele>19</ele>
        <time>2010-08-13T08:57:51Z</time>
      </trkpt>
      <trkpt lat="47.43026" lon="-0.5281">
        <ele>19</ele>
        <time>2010-08-13T08:57:56Z</time>
      </trkpt>
      <trkpt lat="47.42979" lon="-0.52793">
        <ele>20</ele>
        <time>2010-08-13T08:58:01Z</time>
      </trkpt>
      <trkpt lat="47.42941" lon="-0.52788">
        <ele>21</ele>
        <time>2010-08-13T08:58:06Z</time>
      </trkpt>
      <trkpt lat="47.4291" lon="-0.52786">
        <ele>21</ele>
        <time>2010-08-13T08:58:11Z</time>
      </trkpt>
      <trkpt lat="47.42873" lon="-0.52774">
        <ele>21</ele>
        <time>2010-08-13T08:58:16Z</time>
      </trkpt>
      <trkpt lat="47.42832" lon="-0.52753">
        <ele>23</ele>
        <time>2010-08-13T08:58:21Z</time>
      </trkpt>
      <trkpt lat="47.42805" lon="-0.52738">
        <ele>22</ele>
        <time>2010-08-13T08:58:26Z</time>
      </trkpt>
      <trkpt lat="47.42777" lon="-0.52724">
        <ele>22</ele>
        <time>2010-08-13T08:58:31Z</time>
      </trkpt>
      <trkpt lat="47.42754" lon="-0.52709">
        <ele>22</ele>
        <time>2010-08-13T08:58:36Z</time>
      </trkpt>
      <trkpt lat="47.42727" lon="-0.5269">
        <ele>21</ele>
        <time>2010-08-13T08:58:41Z</time>
      </trkpt>
      <trkpt lat="47.42696" lon="-0.52668">
        <ele>21</ele>
        <time>2010-08-13T08:58:46Z</time>
      </trkpt>
      <trkpt lat="47.4267" lon="-0.5265">
        <ele>19</ele>
        <time>2010-08-13T08:58:51Z</time>
      </trkpt>
      <trkpt lat="47.42645" lon="-0.52633">
        <ele>21</ele>
        <time>2010-08-13T08:58:56Z</time>
      </trkpt>
      <trkpt lat="47.42612" lon="-0.52609">
        <ele>21</ele>
        <time>2010-08-13T08:59:01Z</time>
      </trkpt>
      <trkpt lat="47.42576" lon="-0.52583">
        <ele>22</ele>
        <time>2010-08-13T08:59:06Z</time>
      </trkpt>
      <trkpt lat="47.42539" lon="-0.52556">
        <ele>23</ele>
        <time>2010-08-13T08:59:11Z</time>
      </trkpt>
      <trkpt lat="47.42494" lon="-0.52531">
        <ele>23</ele>
        <time>2010-08-13T08:59:16Z</time>
      </trkpt>
      <trkpt lat="47.42466" lon="-0.52523">
        <ele>23</ele>
        <time>2010-08-13T08:59:21Z</time>
      </trkpt>
      <trkpt lat="47.42438" lon="-0.52488">
        <ele>23</ele>
        <time>2010-08-13T08:59:26Z</time>
      </trkpt>
      <trkpt lat="47.42399" lon="-0.52457">
        <ele>24</ele>
        <time>2010-08-13T08:59:31Z</time>
      </trkpt>
      <trkpt lat="47.42367" lon="-0.52435">
        <ele>24</ele>
        <time>2010-08-13T08:59:36Z</time>
      </trkpt>
      <trkpt lat="47.42343" lon="-0.52417">
        <ele>25</ele>
        <time>2010-08-13T08:59:41Z</time>
      </trkpt>
      <trkpt lat="47.42312" lon="-0.52394">
        <ele>24</ele>
        <time>2010-08-13T08:59:46Z</time>
      </trkpt>
      <trkpt lat="47.42275" lon="-0.52374">
        <ele>23</ele>
        <time>2010-08-13T08:59:51Z</time>
      </trkpt>
      <trkpt lat="47.42241" lon="-0.52369">
        <ele>19</ele>
        <time>2010-08-13T08:59:56Z</time>
      </trkpt>
      <trkpt lat="47.42207" lon="-0.52367">
        <ele>18</ele>
        <time>2010-08-13T09:00:01Z</time>
      </trkpt>
      <trkpt lat="47.42179" lon="-0.52365">
        <ele>17</ele>
        <time>2010-08-13T09:00:06Z</time>
      </trkpt>
      <trkpt lat="47.42145" lon="-0.52363">
        <ele>14</ele>
        <time>2010-08-13T09:00:11Z</time>
      </trkpt>
      <trkpt lat="47.42104" lon="-0.52361">
        <ele>14</ele>
        <time>2010-08-13T09:00:16Z</time>
      </trkpt>
      <trkpt lat="47.42068" lon="-0.52358">
        <ele>14</ele>
        <time>2010-08-13T09:00:21Z</time>
      </trkpt>
      <trkpt lat="47.42031" lon="-0.52356">
        <ele>14</ele>
        <time>2010-08-13T09:00:26Z</time>
      </trkpt>
      <trkpt lat="47.42001" lon="-0.52354">
        <ele>14</ele>
        <time>2010-08-13T09:00:31Z</time>
      </trkpt>
      <trkpt lat="47.41961" lon="-0.5235">
        <ele>18</ele>
        <time>2010-08-13T09:00:36Z</time>
      </trkpt>
      <trkpt lat="47.4192" lon="-0.52345">
        <ele>21</ele>
        <time>2010-08-13T09:00:41Z</time>
      </trkpt>
      <trkpt lat="47.41871" lon="-0.52341">
        <ele>22</ele>
        <time>2010-08-13T09:00:46Z</time>
      </trkpt>
      <trkpt lat="47.4184" lon="-0.52335">
        <ele>22</ele>
        <time>2010-08-13T09:00:51Z</time>
      </trkpt>
      <trkpt lat="47.418" lon="-0.52335">
        <ele>22</ele>
        <time>2010-08-13T09:00:56Z</time>
      </trkpt>
      <trkpt lat="47.4176" lon="-0.5233">
        <ele>22</ele>
        <time>2010-08-13T09:01:01Z</time>
      </trkpt>
      <trkpt lat="47.41713" lon="-0.52326">
        <ele>23</ele>
        <time>2010-08-13T09:01:06Z</time>
      </trkpt>
      <trkpt lat="47.41673" lon="-0.52324">
        <ele>23</ele>
        <time>2010-08-13T09:01:11Z</time>
      </trkpt>
      <trkpt lat="47.41641" lon="-0.5232">
        <ele>24</ele>
        <time>2010-08-13T09:01:16Z</time>
      </trkpt>
      <trkpt lat="47.41602" lon="-0.52318">
        <ele>24</ele>
        <time>2010-08-13T09:01:21Z</time>
      </trkpt>
      <trkpt lat="47.41554" lon="-0.52316">
        <ele>24</ele>
        <time>2010-08-13T09:01:26Z</time>
      </trkpt>
      <trkpt lat="47.41515" lon="-0.52311">
        <ele>24</ele>
        <time>2010-08-13T09:01:31Z</time>
      </trkpt>
      <trkpt lat="47.41485" lon="-0.52309">
        <ele>23</ele>
        <time>2010-08-13T09:01:36Z</time>
      </trkpt>
      <trkpt lat="47.41472" lon="-0.52353">
        <ele>23</ele>
        <time>2010-08-13T09:01:41Z</time>
      </trkpt>
      <trkpt lat="47.41461" lon="-0.52407">
        <ele>22</ele>
        <time>2010-08-13T09:01:46Z</time>
      </trkpt>
      <trkpt lat="47.41451" lon="-0.52468">
        <ele>20</ele>
        <time>2010-08-13T09:01:51Z</time>
      </trkpt>
      <trkpt lat="47.41462" lon="-0.52518">
        <ele>20</ele>
        <time>2010-08-13T09:01:56Z</time>
      </trkpt>
      <trkpt lat="47.4148" lon="-0.52552">
        <ele>20</ele>
        <time>2010-08-13T09:02:01Z</time>
      </trkpt>
      <trkpt lat="47.41512" lon="-0.52578">
        <ele>21</ele>
        <time>2010-08-13T09:02:06Z</time>
      </trkpt>
      <trkpt lat="47.41551" lon="-0.52612">
        <ele>21</ele>
        <time>2010-08-13T09:02:11Z</time>
      </trkpt>
      <trkpt lat="47.41584" lon="-0.52634">
        <ele>22</ele>
        <time>2010-08-13T09:02:16Z</time>
      </trkpt>
      <trkpt lat="47.4161" lon="-0.52652">
        <ele>22</ele>
        <time>2010-08-13T09:02:21Z</time>
      </trkpt>
      <trkpt lat="47.41642" lon="-0.52679">
        <ele>22</ele>
        <time>2010-08-13T09:02:26Z</time>
      </trkpt>
      <trkpt lat="47.41673" lon="-0.52709">
        <ele>22</ele>
        <time>2010-08-13T09:02:31Z</time>
      </trkpt>
      <trkpt lat="47.41711" lon="-0.52742">
        <ele>22</ele>
        <time>2010-08-13T09:02:36Z</time>
      </trkpt>
      <trkpt lat="47.41745" lon="-0.52763">
        <ele>22</ele>
        <time>2010-08-13T09:02:41Z</time>
      </trkpt>
      <trkpt lat="47.41763" lon="-0.52796">
        <ele>22</ele>
        <time>2010-08-13T09:02:46Z</time>
      </trkpt>
      <trkpt lat="47.41788" lon="-0.52835">
        <ele>21</ele>
        <time>2010-08-13T09:02:51Z</time>
      </trkpt>
      <trkpt lat="47.41812" lon="-0.52887">
        <ele>21</ele>
        <time>2010-08-13T09:02:56Z</time>
      </trkpt>
      <trkpt lat="47.41826" lon="-0.52936">
        <ele>20</ele>
        <time>2010-08-13T09:03:01Z</time>
      </trkpt>
      <trkpt lat="47.41833" lon="-0.52979">
        <ele>20</ele>
        <time>2010-08-13T09:03:06Z</time>
      </trkpt>
      <trkpt lat="47.41833" lon="-0.53034">
        <ele>19</ele>
        <time>2010-08-13T09:03:11Z</time>
      </trkpt>
      <trkpt lat="47.41833" lon="-0.5309">
        <ele>18</ele>
        <time>2010-08-13T09:03:16Z</time>
      </trkpt>
      <trkpt lat="47.41834" lon="-0.53155">
        <ele>18</ele>
        <time>2010-08-13T09:03:21Z</time>
      </trkpt>
      <trkpt lat="47.41834" lon="-0.53209">
        <ele>17</ele>
        <time>2010-08-13T09:03:26Z</time>
      </trkpt>
      <trkpt lat="47.41835" lon="-0.53252">
        <ele>17</ele>
        <time>2010-08-13T09:03:31Z</time>
      </trkpt>
      <trkpt lat="47.41835" lon="-0.53307">
        <ele>18</ele>
        <time>2010-08-13T09:03:36Z</time>
      </trkpt>
      <trkpt lat="47.41837" lon="-0.53371">
        <ele>18</ele>
        <time>2010-08-13T09:03:41Z</time>
      </trkpt>
      <trkpt lat="47.41839" lon="-0.53424">
        <ele>20</ele>
        <time>2010-08-13T09:03:46Z</time>
      </trkpt>
      <trkpt lat="47.4184" lon="-0.53477">
        <ele>17</ele>
        <time>2010-08-13T09:03:51Z</time>
      </trkpt>
      <trkpt lat="47.4184" lon="-0.53519">
        <ele>16</ele>
        <time>2010-08-13T09:03:56Z</time>
      </trkpt>
      <trkpt lat="47.41842" lon="-0.53571">
        <ele>15</ele>
        <time>2010-08-13T09:04:01Z</time>
      </trkpt>
      <trkpt lat="47.41847" lon="-0.53633">
        <ele>16</ele>
        <time>2010-08-13T09:04:06Z</time>
      </trkpt>
      <trkpt lat="47.41858" lon="-0.53686">
        <ele>18</ele>
        <time>2010-08-13T09:04:11Z</time>
      </trkpt>
      <trkpt lat="47.41862" lon="-0.53728">
        <ele>18</ele>
        <time>2010-08-13T09:04:16Z</time>
      </trkpt>
      <trkpt lat="47.41859" lon="-0.53781">
        <ele>18</ele>
        <time>2010-08-13T09:04:21Z</time>
      </trkpt>
      <trkpt lat="47.41853" lon="-0.53834">
        <ele>18</ele>
        <time>2010-08-13T09:04:26Z</time>
      </trkpt>
      <trkpt lat="47.41845" lon="-0.53896">
        <ele>17</ele>
        <time>2010-08-13T09:04:31Z</time>
      </trkpt>
      <trkpt lat="47.41837" lon="-0.53949">
        <ele>17</ele>
        <time>2010-08-13T09:04:36Z</time>
      </trkpt>
      <trkpt lat="47.41826" lon="-0.53988">
        <ele>17</ele>
        <time>2010-08-13T09:04:41Z</time>
      </trkpt>
      <trkpt lat="47.4181" lon="-0.54037">
        <ele>17</ele>
        <time>2010-08-13T09:04:46Z</time>
      </trkpt>
      <trkpt lat="47.41801" lon="-0.54101">
        <ele>16</ele>
        <time>2010-08-13T09:04:51Z</time>
      </trkpt>
      <trkpt lat="47.41788" lon="-0.54152">
        <ele>17</ele>
        <time>2010-08-13T09:04:56Z</time>
      </trkpt>
      <trkpt lat="47.41779" lon="-0.54193">
        <ele>18</ele>
        <time>2010-08-13T09:05:01Z</time>
      </trkpt>
      <trkpt lat="47.41771" lon="-0.54244">
        <ele>19</ele>
        <time>2010-08-13T09:05:06Z</time>
      </trkpt>
      <trkpt lat="47.41757" lon="-0.54292">
        <ele>19</ele>
        <time>2010-08-13T09:05:11Z</time>
      </trkpt>
      <trkpt lat="47.41728" lon="-0.54338">
        <ele>21</ele>
        <time>2010-08-13T09:05:16Z</time>
      </trkpt>
      <trkpt lat="47.41701" lon="-0.54374">
        <ele>21</ele>
        <time>2010-08-13T09:05:21Z</time>
      </trkpt>
      <trkpt lat="47.41682" lon="-0.54405">
        <ele>21</ele>
        <time>2010-08-13T09:05:26Z</time>
      </trkpt>
      <trkpt lat="47.41661" lon="-0.54449">
        <ele>19</ele>
        <time>2010-08-13T09:05:31Z</time>
      </trkpt>
      <trkpt lat="47.41642" lon="-0.54506">
        <ele>19</ele>
        <time>2010-08-13T09:05:36Z</time>
      </trkpt>
      <trkpt lat="47.41629" lon="-0.54556">
        <ele>18</ele>
        <time>2010-08-13T09:05:41Z</time>
      </trkpt>
      <trkpt lat="47.41626" lon="-0.54599">
        <ele>19</ele>
        <time>2010-08-13T09:05:46Z</time>
      </trkpt>
      <trkpt lat="47.41628" lon="-0.54652">
        <ele>19</ele>
        <time>2010-08-13T09:05:51Z</time>
      </trkpt>
      <trkpt lat="47.41622" lon="-0.54715">
        <ele>20</ele>
        <time>2010-08-13T09:05:56Z</time>
      </trkpt>
      <trkpt lat="47.41611" lon="-0.54766">
        <ele>19</ele>
        <time>2010-08-13T09:06:01Z</time>
      </trkpt>
      <trkpt lat="47.41598" lon="-0.54815">
        <ele>19</ele>
        <time>2010-08-13T09:06:06Z</time>
      </trkpt>
      <trkpt lat="47.41587" lon="-0.54855">
        <ele>18</ele>
        <time>2010-08-13T09:06:11Z</time>
      </trkpt>
      <trkpt lat="47.41572" lon="-0.54902">
        <ele>19</ele>
        <time>2010-08-13T09:06:16Z</time>
      </trkpt>
      <trkpt lat="47.41552" lon="-0.54956">
        <ele>19</ele>
        <time>2010-08-13T09:06:21Z</time>
      </trkpt>
      <trkpt lat="47.41533" lon="-0.55001">
        <ele>18</ele>
        <time>2010-08-13T09:06:26Z</time>
      </trkpt>
      <trkpt lat="47.41519" lon="-0.55038">
        <ele>18</ele>
        <time>2010-08-13T09:06:31Z</time>
      </trkpt>
      <trkpt lat="47.41506" lon="-0.55087">
        <ele>18</ele>
        <time>2010-08-13T09:06:36Z</time>
      </trkpt>
      <trkpt lat="47.41494" lon="-0.55136">
        <ele>18</ele>
        <time>2010-08-13T09:06:41Z</time>
      </trkpt>
      <trkpt lat="47.4148" lon="-0.55194">
        <ele>18</ele>
        <time>2010-08-13T09:06:46Z</time>
      </trkpt>
      <trkpt lat="47.41468" lon="-0.55245">
        <ele>18</ele>
        <time>2010-08-13T09:06:51Z</time>
      </trkpt>
      <trkpt lat="47.41459" lon="-0.55284">
        <ele>18</ele>
        <time>2010-08-13T09:06:56Z</time>
      </trkpt>
      <trkpt lat="47.41447" lon="-0.55333">
        <ele>18</ele>
        <time>2010-08-13T09:07:01Z</time>
      </trkpt>
      <trkpt lat="47.41436" lon="-0.55382">
        <ele>17</ele>
        <time>2010-08-13T09:07:06Z</time>
      </trkpt>
      <trkpt lat="47.41423" lon="-0.5544">
        <ele>17</ele>
        <time>2010-08-13T09:07:11Z</time>
      </trkpt>
      <trkpt lat="47.41413" lon="-0.55489">
        <ele>18</ele>
        <time>2010-08-13T09:07:16Z</time>
      </trkpt>
      <trkpt lat="47.41407" lon="-0.55529">
        <ele>19</ele>
        <time>2010-08-13T09:07:21Z</time>
      </trkpt>
      <trkpt lat="47.41398" lon="-0.55579">
        <ele>20</ele>
        <time>2010-08-13T09:07:26Z</time>
      </trkpt>
      <trkpt lat="47.41388" lon="-0.55641">
        <ele>20</ele>
        <time>2010-08-13T09:07:31Z</time>
      </trkpt>
      <trkpt lat="47.41379" lon="-0.55691">
        <ele>19</ele>
        <time>2010-08-13T09:07:36Z</time>
      </trkpt>
      <trkpt lat="47.41372" lon="-0.55731">
        <ele>18</ele>
        <time>2010-08-13T09:07:41Z</time>
      </trkpt>
      <trkpt lat="47.41366" lon="-0.55782">
        <ele>17</ele>
        <time>2010-08-13T09:07:46Z</time>
      </trkpt>
      <trkpt lat="47.41364" lon="-0.55834">
        <ele>18</ele>
        <time>2010-08-13T09:07:51Z</time>
      </trkpt>
      <trkpt lat="47.41361" lon="-0.55897">
        <ele>18</ele>
        <time>2010-08-13T09:07:56Z</time>
      </trkpt>
      <trkpt lat="47.41353" lon="-0.5595">
        <ele>18</ele>
        <time>2010-08-13T09:08:01Z</time>
      </trkpt>
      <trkpt lat="47.41347" lon="-0.55991">
        <ele>18</ele>
        <time>2010-08-13T09:08:06Z</time>
      </trkpt>
      <trkpt lat="47.41338" lon="-0.56043">
        <ele>17</ele>
        <time>2010-08-13T09:08:11Z</time>
      </trkpt>
      <trkpt lat="47.41331" lon="-0.56104">
        <ele>17</ele>
        <time>2010-08-13T09:08:16Z</time>
      </trkpt>
      <trkpt lat="47.41327" lon="-0.56156">
        <ele>15</ele>
        <time>2010-08-13T09:08:21Z</time>
      </trkpt>
      <trkpt lat="47.41327" lon="-0.56199">
        <ele>17</ele>
        <time>2010-08-13T09:08:26Z</time>
      </trkpt>
      <trkpt lat="47.41324" lon="-0.56252">
        <ele>19</ele>
        <time>2010-08-13T09:08:31Z</time>
      </trkpt>
      <trkpt lat="47.41316" lon="-0.56315">
        <ele>17</ele>
        <time>2010-08-13T09:08:36Z</time>
      </trkpt>
      <trkpt lat="47.41308" lon="-0.56366">
        <ele>16</ele>
        <time>2010-08-13T09:08:41Z</time>
      </trkpt>
      <trkpt lat="47.41295" lon="-0.56415">
        <ele>16</ele>
        <time>2010-08-13T09:08:46Z</time>
      </trkpt>
      <trkpt lat="47.41288" lon="-0.56457">
        <ele>16</ele>
        <time>2010-08-13T09:08:51Z</time>
      </trkpt>
      <trkpt lat="47.4128" lon="-0.5651">
        <ele>17</ele>
        <time>2010-08-13T09:08:56Z</time>
      </trkpt>
      <trkpt lat="47.41266" lon="-0.5657">
        <ele>18</ele>
        <time>2010-08-13T09:09:01Z</time>
      </trkpt>
      <trkpt lat="47.41248" lon="-0.56614">
        <ele>20</ele>
        <time>2010-08-13T09:09:06Z</time>
      </trkpt>
      <trkpt lat="47.41231" lon="-0.56648">
        <ele>19</ele>
        <time>2010-08-13T09:09:11Z</time>
      </trkpt>
      <trkpt lat="47.41221" lon="-0.56697">
        <ele>19</ele>
        <time>2010-08-13T09:09:16Z</time>
      </trkpt>
      <trkpt lat="47.41213" lon="-0.56748">
        <ele>19</ele>
        <time>2010-08-13T09:09:21Z</time>
      </trkpt>
      <trkpt lat="47.41204" lon="-0.56811">
        <ele>18</ele>
        <time>2010-08-13T09:09:26Z</time>
      </trkpt>
      <trkpt lat="47.41194" lon="-0.56863">
        <ele>17</ele>
        <time>2010-08-13T09:09:31Z</time>
      </trkpt>
      <trkpt lat="47.41186" lon="-0.56905">
        <ele>19</ele>
        <time>2010-08-13T09:09:36Z</time>
      </trkpt>
      <trkpt lat="47.4118" lon="-0.56959">
        <ele>20</ele>
        <time>2010-08-13T09:09:41Z</time>
      </trkpt>
      <trkpt lat="47.41173" lon="-0.57011">
        <ele>23</ele>
        <time>2010-08-13T09:09:46Z</time>
      </trkpt>
      <trkpt lat="47.41162" lon="-0.57077">
        <ele>23</ele>
        <time>2010-08-13T09:09:51Z</time>
      </trkpt>
      <trkpt lat="47.41157" lon="-0.5712">
        <ele>21</ele>
        <time>2010-08-13T09:09:56Z</time>
      </trkpt>
      <trkpt lat="47.4115" lon="-0.57175">
        <ele>20</ele>
        <time>2010-08-13T09:10:01Z</time>
      </trkpt>
      <trkpt lat="47.41146" lon="-0.57232">
        <ele>19</ele>
        <time>2010-08-13T09:10:06Z</time>
      </trkpt>
      <trkpt lat="47.41144" lon="-0.57298">
        <ele>17</ele>
        <time>2010-08-13T09:10:11Z</time>
      </trkpt>
      <trkpt lat="47.41142" lon="-0.57351">
        <ele>17</ele>
        <time>2010-08-13T09:10:16Z</time>
      </trkpt>
      <trkpt lat="47.41139" lon="-0.57392">
        <ele>16</ele>
        <time>2010-08-13T09:10:21Z</time>
      </trkpt>
      <trkpt lat="47.41134" lon="-0.57443">
        <ele>17</ele>
        <time>2010-08-13T09:10:26Z</time>
      </trkpt>
      <trkpt lat="47.41127" lon="-0.57493">
        <ele>17</ele>
        <time>2010-08-13T09:10:31Z</time>
      </trkpt>
      <trkpt lat="47.41113" lon="-0.57553">
        <ele>17</ele>
        <time>2010-08-13T09:10:36Z</time>
      </trkpt>
      <trkpt lat="47.41104" lon="-0.57603">
        <ele>17</ele>
        <time>2010-08-13T09:10:41Z</time>
      </trkpt>
      <trkpt lat="47.41099" lon="-0.57645">
        <ele>16</ele>
        <time>2010-08-13T09:10:46Z</time>
      </trkpt>
      <trkpt lat="47.41095" lon="-0.57698">
        <ele>17</ele>
        <time>2010-08-13T09:10:51Z</time>
      </trkpt>
      <trkpt lat="47.41093" lon="-0.57762">
        <ele>18</ele>
        <time>2010-08-13T09:10:56Z</time>
      </trkpt>
      <trkpt lat="47.41092" lon="-0.57814">
        <ele>18</ele>
        <time>2010-08-13T09:11:01Z</time>
      </trkpt>
      <trkpt lat="47.41087" lon="-0.57856">
        <ele>18</ele>
        <time>2010-08-13T09:11:06Z</time>
      </trkpt>
      <trkpt lat="47.41082" lon="-0.57907">
        <ele>18</ele>
        <time>2010-08-13T09:11:11Z</time>
      </trkpt>
      <trkpt lat="47.41075" lon="-0.57959">
        <ele>17</ele>
        <time>2010-08-13T09:11:16Z</time>
      </trkpt>
      <trkpt lat="47.4107" lon="-0.58023">
        <ele>17</ele>
        <time>2010-08-13T09:11:21Z</time>
      </trkpt>
      <trkpt lat="47.41069" lon="-0.58076">
        <ele>16</ele>
        <time>2010-08-13T09:11:26Z</time>
      </trkpt>
      <trkpt lat="47.41068" lon="-0.5812">
        <ele>16</ele>
        <time>2010-08-13T09:11:31Z</time>
      </trkpt>
      <trkpt lat="47.41065" lon="-0.58174">
        <ele>17</ele>
        <time>2010-08-13T09:11:36Z</time>
      </trkpt>
      <trkpt lat="47.41065" lon="-0.58238">
        <ele>18</ele>
        <time>2010-08-13T09:11:41Z</time>
      </trkpt>
      <trkpt lat="47.41068" lon="-0.58291">
        <ele>18</ele>
        <time>2010-08-13T09:11:46Z</time>
      </trkpt>
      <trkpt lat="47.41073" lon="-0.58333">
        <ele>18</ele>
        <time>2010-08-13T09:11:51Z</time>
      </trkpt>
      <trkpt lat="47.41074" lon="-0.58386">
        <ele>16</ele>
        <time>2010-08-13T09:11:56Z</time>
      </trkpt>
      <trkpt lat="47.41075" lon="-0.58451">
        <ele>16</ele>
        <time>2010-08-13T09:12:01Z</time>
      </trkpt>
      <trkpt lat="47.41075" lon="-0.58503">
        <ele>17</ele>
        <time>2010-08-13T09:12:06Z</time>
      </trkpt>
      <trkpt lat="47.41074" lon="-0.58555">
        <ele>19</ele>
        <time>2010-08-13T09:12:11Z</time>
      </trkpt>
      <trkpt lat="47.41073" lon="-0.58597">
        <ele>20</ele>
        <time>2010-08-13T09:12:16Z</time>
      </trkpt>
      <trkpt lat="47.4107" lon="-0.58648">
        <ele>19</ele>
        <time>2010-08-13T09:12:21Z</time>
      </trkpt>
      <trkpt lat="47.41068" lon="-0.58702">
        <ele>18</ele>
        <time>2010-08-13T09:12:26Z</time>
      </trkpt>
      <trkpt lat="47.41065" lon="-0.58766">
        <ele>18</ele>
        <time>2010-08-13T09:12:31Z</time>
      </trkpt>
      <trkpt lat="47.41066" lon="-0.58808">
        <ele>18</ele>
        <time>2010-08-13T09:12:36Z</time>
      </trkpt>
      <trkpt lat="47.4107" lon="-0.5886">
        <ele>18</ele>
        <time>2010-08-13T09:12:41Z</time>
      </trkpt>
      <trkpt lat="47.41073" lon="-0.58912">
        <ele>18</ele>
        <time>2010-08-13T09:12:46Z</time>
      </trkpt>
      <trkpt lat="47.41078" lon="-0.58975">
        <ele>18</ele>
        <time>2010-08-13T09:12:51Z</time>
      </trkpt>
      <trkpt lat="47.41082" lon="-0.59028">
        <ele>18</ele>
        <time>2010-08-13T09:12:56Z</time>
      </trkpt>
      <trkpt lat="47.41081" lon="-0.59071">
        <ele>18</ele>
        <time>2010-08-13T09:13:01Z</time>
      </trkpt>
      <trkpt lat="47.41074" lon="-0.59124">
        <ele>18</ele>
        <time>2010-08-13T09:13:06Z</time>
      </trkpt>
      <trkpt lat="47.41061" lon="-0.59186">
        <ele>18</ele>
        <time>2010-08-13T09:13:11Z</time>
      </trkpt>
      <trkpt lat="47.41051" lon="-0.59235">
        <ele>19</ele>
        <time>2010-08-13T09:13:16Z</time>
      </trkpt>
      <trkpt lat="47.41043" lon="-0.59286">
        <ele>20</ele>
        <time>2010-08-13T09:13:21Z</time>
      </trkpt>
      <trkpt lat="47.41036" lon="-0.59328">
        <ele>19</ele>
        <time>2010-08-13T09:13:26Z</time>
      </trkpt>
      <trkpt lat="47.41031" lon="-0.59382">
        <ele>19</ele>
        <time>2010-08-13T09:13:31Z</time>
      </trkpt>
      <trkpt lat="47.41022" lon="-0.59447">
        <ele>19</ele>
        <time>2010-08-13T09:13:36Z</time>
      </trkpt>
      <trkpt lat="47.41023" lon="-0.59499">
        <ele>20</ele>
        <time>2010-08-13T09:13:41Z</time>
      </trkpt>
      <trkpt lat="47.41025" lon="-0.59541">
        <ele>20</ele>
        <time>2010-08-13T09:13:46Z</time>
      </trkpt>
      <trkpt lat="47.41027" lon="-0.59593">
        <ele>20</ele>
        <time>2010-08-13T09:13:51Z</time>
      </trkpt>
      <trkpt lat="47.4103" lon="-0.59646">
        <ele>19</ele>
        <time>2010-08-13T09:13:56Z</time>
      </trkpt>
      <trkpt lat="47.41029" lon="-0.59709">
        <ele>18</ele>
        <time>2010-08-13T09:14:01Z</time>
      </trkpt>
      <trkpt lat="47.41023" lon="-0.59759">
        <ele>19</ele>
        <time>2010-08-13T09:14:06Z</time>
      </trkpt>
      <trkpt lat="47.41018" lon="-0.59801">
        <ele>19</ele>
        <time>2010-08-13T09:14:11Z</time>
      </trkpt>
      <trkpt lat="47.41014" lon="-0.59854">
        <ele>20</ele>
        <time>2010-08-13T09:14:16Z</time>
      </trkpt>
      <trkpt lat="47.4101" lon="-0.59917">
        <ele>21</ele>
        <time>2010-08-13T09:14:21Z</time>
      </trkpt>
      <trkpt lat="47.41007" lon="-0.59971">
        <ele>21</ele>
        <time>2010-08-13T09:14:26Z</time>
      </trkpt>
      <trkpt lat="47.40993" lon="-0.60011">
        <ele>20</ele>
        <time>2010-08-13T09:14:31Z</time>
      </trkpt>
      <trkpt lat="47.40965" lon="-0.60046">
        <ele>19</ele>
        <time>2010-08-13T09:14:36Z</time>
      </trkpt>
      <trkpt lat="47.40933" lon="-0.60078">
        <ele>19</ele>
        <time>2010-08-13T09:14:41Z</time>
      </trkpt>
      <trkpt lat="47.40894" lon="-0.60116">
        <ele>18</ele>
        <time>2010-08-13T09:14:46Z</time>
      </trkpt>
      <trkpt lat="47.40865" lon="-0.60152">
        <ele>18</ele>
        <time>2010-08-13T09:14:51Z</time>
      </trkpt>
      <trkpt lat="47.4085" lon="-0.60191">
        <ele>17</ele>
        <time>2010-08-13T09:14:56Z</time>
      </trkpt>
      <trkpt lat="47.40839" lon="-0.60246">
        <ele>17</ele>
        <time>2010-08-13T09:15:01Z</time>
      </trkpt>
      <trkpt lat="47.40831" lon="-0.60299">
        <ele>16</ele>
        <time>2010-08-13T09:15:06Z</time>
      </trkpt>
      <trkpt lat="47.40827" lon="-0.60364">
        <ele>16</ele>
        <time>2010-08-13T09:15:11Z</time>
      </trkpt>
      <trkpt lat="47.40827" lon="-0.60408">
        <ele>17</ele>
        <time>2010-08-13T09:15:16Z</time>
      </trkpt>
      <trkpt lat="47.40826" lon="-0.60462">
        <ele>17</ele>
        <time>2010-08-13T09:15:21Z</time>
      </trkpt>
      <trkpt lat="47.40825" lon="-0.60515">
        <ele>17</ele>
        <time>2010-08-13T09:15:26Z</time>
      </trkpt>
      <trkpt lat="47.40824" lon="-0.60579">
        <ele>16</ele>
        <time>2010-08-13T09:15:31Z</time>
      </trkpt>
      <trkpt lat="47.40823" lon="-0.60632">
        <ele>16</ele>
        <time>2010-08-13T09:15:36Z</time>
      </trkpt>
      <trkpt lat="47.40822" lon="-0.60674">
        <ele>17</ele>
        <time>2010-08-13T09:15:41Z</time>
      </trkpt>
      <trkpt lat="47.40822" lon="-0.60728">
        <ele>18</ele>
        <time>2010-08-13T09:15:46Z</time>
      </trkpt>
      <trkpt lat="47.40815" lon="-0.6079">
        <ele>18</ele>
        <time>2010-08-13T09:15:51Z</time>
      </trkpt>
      <trkpt lat="47.40781" lon="-0.60807">
        <ele>17</ele>
        <time>2010-08-13T09:15:56Z</time>
      </trkpt>
      <trkpt lat="47.40751" lon="-0.60813">
        <ele>17</ele>
        <time>2010-08-13T09:16:01Z</time>
      </trkpt>
      <trkpt lat="47.40715" lon="-0.6082">
        <ele>17</ele>
        <time>2010-08-13T09:16:06Z</time>
      </trkpt>
      <trkpt lat="47.40678" lon="-0.60824">
        <ele>17</ele>
        <time>2010-08-13T09:16:11Z</time>
      </trkpt>
      <trkpt lat="47.40635" lon="-0.60833">
        <ele>17</ele>
        <time>2010-08-13T09:16:16Z</time>
      </trkpt>
      <trkpt lat="47.40601" lon="-0.60851">
        <ele>17</ele>
        <time>2010-08-13T09:16:21Z</time>
      </trkpt>
      <trkpt lat="47.40577" lon="-0.60874">
        <ele>17</ele>
        <time>2010-08-13T09:16:26Z</time>
      </trkpt>
      <trkpt lat="47.40549" lon="-0.60908">
        <ele>17</ele>
        <time>2010-08-13T09:16:31Z</time>
      </trkpt>
      <trkpt lat="47.40514" lon="-0.60947">
        <ele>17</ele>
        <time>2010-08-13T09:16:36Z</time>
      </trkpt>
      <trkpt lat="47.40483" lon="-0.60972">
        <ele>17</ele>
        <time>2010-08-13T09:16:41Z</time>
      </trkpt>
      <trkpt lat="47.40449" lon="-0.60994">
        <ele>17</ele>
        <time>2010-08-13T09:16:46Z</time>
      </trkpt>
      <trkpt lat="47.40423" lon="-0.61011">
        <ele>16</ele>
        <time>2010-08-13T09:16:51Z</time>
      </trkpt>
      <trkpt lat="47.40389" lon="-0.61033">
        <ele>17</ele>
        <time>2010-08-13T09:16:56Z</time>
      </trkpt>
      <trkpt lat="47.40349" lon="-0.61061">
        <ele>17</ele>
        <time>2010-08-13T09:17:01Z</time>
      </trkpt>
      <trkpt lat="47.40316" lon="-0.61084">
        <ele>18</ele>
        <time>2010-08-13T09:17:06Z</time>
      </trkpt>
      <trkpt lat="47.40289" lon="-0.61101">
        <ele>17</ele>
        <time>2010-08-13T09:17:11Z</time>
      </trkpt>
      <trkpt lat="47.40256" lon="-0.61123">
        <ele>17</ele>
        <time>2010-08-13T09:17:16Z</time>
      </trkpt>
      <trkpt lat="47.40223" lon="-0.61146">
        <ele>16</ele>
        <time>2010-08-13T09:17:21Z</time>
      </trkpt>
      <trkpt lat="47.40182" lon="-0.61172">
        <ele>16</ele>
        <time>2010-08-13T09:17:26Z</time>
      </trkpt>
      <trkpt lat="47.40147" lon="-0.61191">
        <ele>16</ele>
        <time>2010-08-13T09:17:31Z</time>
      </trkpt>
      <trkpt lat="47.40119" lon="-0.61204">
        <ele>16</ele>
        <time>2010-08-13T09:17:36Z</time>
      </trkpt>
      <trkpt lat="47.40085" lon="-0.61225">
        <ele>16</ele>
        <time>2010-08-13T09:17:41Z</time>
      </trkpt>
      <trkpt lat="47.40055" lon="-0.6126">
        <ele>17</ele>
        <time>2010-08-13T09:17:46Z</time>
      </trkpt>
      <trkpt lat="47.4003" lon="-0.61314">
        <ele>17</ele>
        <time>2010-08-13T09:17:51Z</time>
      </trkpt>
      <trkpt lat="47.40013" lon="-0.6135">
        <ele>17</ele>
        <time>2010-08-13T09:17:56Z</time>
      </trkpt>
      <trkpt lat="47.39989" lon="-0.61391">
        <ele>17</ele>
        <time>2010-08-13T09:18:01Z</time>
      </trkpt>
      <trkpt lat="47.39954" lon="-0.6143">
        <ele>17</ele>
        <time>2010-08-13T09:18:06Z</time>
      </trkpt>
      <trkpt lat="47.39922" lon="-0.61454">
        <ele>17</ele>
        <time>2010-08-13T09:18:11Z</time>
      </trkpt>
      <trkpt lat="47.39888" lon="-0.61471">
        <ele>16</ele>
        <time>2010-08-13T09:18:16Z</time>
      </trkpt>
      <trkpt lat="47.39861" lon="-0.61483">
        <ele>16</ele>
        <time>2010-08-13T09:18:21Z</time>
      </trkpt>
      <trkpt lat="47.39825" lon="-0.61497">
        <ele>16</ele>
        <time>2010-08-13T09:18:26Z</time>
      </trkpt>
      <trkpt lat="47.39785" lon="-0.61523">
        <ele>17</ele>
        <time>2010-08-13T09:18:31Z</time>
      </trkpt>
      <trkpt lat="47.39754" lon="-0.61534">
        <ele>17</ele>
        <time>2010-08-13T09:18:36Z</time>
      </trkpt>
      <trkpt lat="47.39736" lon="-0.61498">
        <ele>16</ele>
        <time>2010-08-13T09:18:41Z</time>
      </trkpt>
      <trkpt lat="47.39713" lon="-0.61455">
        <ele>16</ele>
        <time>2010-08-13T09:18:46Z</time>
      </trkpt>
      <trkpt lat="47.39679" lon="-0.61415">
        <ele>16</ele>
        <time>2010-08-13T09:18:51Z</time>
      </trkpt>
      <trkpt lat="47.39646" lon="-0.61384">
        <ele>15</ele>
        <time>2010-08-13T09:18:56Z</time>
      </trkpt>
      <trkpt lat="47.39615" lon="-0.61359">
        <ele>15</ele>
        <time>2010-08-13T09:19:01Z</time>
      </trkpt>
      <trkpt lat="47.39588" lon="-0.61339">
        <ele>15</ele>
        <time>2010-08-13T09:19:06Z</time>
      </trkpt>
      <trkpt lat="47.39556" lon="-0.61314">
        <ele>16</ele>
        <time>2010-08-13T09:19:11Z</time>
      </trkpt>
      <trkpt lat="47.39522" lon="-0.61292">
        <ele>16</ele>
        <time>2010-08-13T09:19:16Z</time>
      </trkpt>
      <trkpt lat="47.39483" lon="-0.61269">
        <ele>17</ele>
        <time>2010-08-13T09:19:21Z</time>
      </trkpt>
      <trkpt lat="47.3946" lon="-0.61257">
        <ele>17</ele>
        <time>2010-08-13T09:19:26Z</time>
      </trkpt>
      <trkpt lat="47.39431" lon="-0.61242">
        <ele>17</ele>
        <time>2010-08-13T09:19:31Z</time>
      </trkpt>
      <trkpt lat="47.39402" lon="-0.61228">
        <ele>17</ele>
        <time>2010-08-13T09:19:36Z</time>
      </trkpt>
      <trkpt lat="47.39364" lon="-0.6121">
        <ele>17</ele>
        <time>2010-08-13T09:19:41Z</time>
      </trkpt>
      <trkpt lat="47.39329" lon="-0.61197">
        <ele>16</ele>
        <time>2010-08-13T09:19:46Z</time>
      </trkpt>
      <trkpt lat="47.39298" lon="-0.61195">
        <ele>16</ele>
        <time>2010-08-13T09:19:51Z</time>
      </trkpt>
      <trkpt lat="47.39258" lon="-0.61213">
        <ele>16</ele>
        <time>2010-08-13T09:19:56Z</time>
      </trkpt>
      <trkpt lat="47.39226" lon="-0.61249">
        <ele>16</ele>
        <time>2010-08-13T09:20:01Z</time>
      </trkpt>
      <trkpt lat="47.39191" lon="-0.61296">
        <ele>18</ele>
        <time>2010-08-13T09:20:06Z</time>
      </trkpt>
      <trkpt lat="47.39162" lon="-0.61333">
        <ele>18</ele>
        <time>2010-08-13T09:20:11Z</time>
      </trkpt>
      <trkpt lat="47.39137" lon="-0.61358">
        <ele>17</ele>
        <time>2010-08-13T09:20:16Z</time>
      </trkpt>
      <trkpt lat="47.39104" lon="-0.61378">
        <ele>17</ele>
        <time>2010-08-13T09:20:21Z</time>
      </trkpt>
      <trkpt lat="47.39067" lon="-0.61381">
        <ele>16</ele>
        <time>2010-08-13T09:20:26Z</time>
      </trkpt>
      <trkpt lat="47.39022" lon="-0.61365">
        <ele>17</ele>
        <time>2010-08-13T09:20:31Z</time>
      </trkpt>
      <trkpt lat="47.38994" lon="-0.61353">
        <ele>17</ele>
        <time>2010-08-13T09:20:36Z</time>
      </trkpt>
      <trkpt lat="47.38958" lon="-0.61338">
        <ele>16</ele>
        <time>2010-08-13T09:20:41Z</time>
      </trkpt>
      <trkpt lat="47.38923" lon="-0.61331">
        <ele>15</ele>
        <time>2010-08-13T09:20:46Z</time>
      </trkpt>
      <trkpt lat="47.38879" lon="-0.61339">
        <ele>16</ele>
        <time>2010-08-13T09:20:51Z</time>
      </trkpt>
      <trkpt lat="47.38844" lon="-0.6135">
        <ele>16</ele>
        <time>2010-08-13T09:20:56Z</time>
      </trkpt>
      <trkpt lat="47.38815" lon="-0.61351">
        <ele>17</ele>
        <time>2010-08-13T09:21:01Z</time>
      </trkpt>
      <trkpt lat="47.38779" lon="-0.61345">
        <ele>17</ele>
        <time>2010-08-13T09:21:06Z</time>
      </trkpt>
      <trkpt lat="47.38735" lon="-0.61336">
        <ele>17</ele>
        <time>2010-08-13T09:21:11Z</time>
      </trkpt>
      <trkpt lat="47.38699" lon="-0.61326">
        <ele>16</ele>
        <time>2010-08-13T09:21:16Z</time>
      </trkpt>
      <trkpt lat="47.3867" lon="-0.61315">
        <ele>16</ele>
        <time>2010-08-13T09:21:21Z</time>
      </trkpt>
      <trkpt lat="47.38636" lon="-0.61293">
        <ele>16</ele>
        <time>2010-08-13T09:21:26Z</time>
      </trkpt>
      <trkpt lat="47.38604" lon="-0.61268">
        <ele>16</ele>
        <time>2010-08-13T09:21:31Z</time>
      </trkpt>
      <trkpt lat="47.38565" lon="-0.61237">
        <ele>17</ele>
        <time>2010-08-13T09:21:36Z</time>
      </trkpt>
      <trkpt lat="47.38532" lon="-0.61211">
        <ele>16</ele>
        <time>2010-08-13T09:21:41Z</time>
      </trkpt>
      <trkpt lat="47.38506" lon="-0.61189">
        <ele>17</ele>
        <time>2010-08-13T09:21:46Z</time>
      </trkpt>
      <trkpt lat="47.38476" lon="-0.61157">
        <ele>18</ele>
        <time>2010-08-13T09:21:51Z</time>
      </trkpt>
      <trkpt lat="47.38441" lon="-0.61116">
        <ele>18</ele>
        <time>2010-08-13T09:21:56Z</time>
      </trkpt>
      <trkpt lat="47.38412" lon="-0.61084">
        <ele>18</ele>
        <time>2010-08-13T09:22:01Z</time>
      </trkpt>
      <trkpt lat="47.38388" lon="-0.61059">
        <ele>18</ele>
        <time>2010-08-13T09:22:06Z</time>
      </trkpt>
      <trkpt lat="47.38358" lon="-0.61028">
        <ele>17</ele>
        <time>2010-08-13T09:22:11Z</time>
      </trkpt>
      <trkpt lat="47.38329" lon="-0.60995">
        <ele>16</ele>
        <time>2010-08-13T09:22:16Z</time>
      </trkpt>
      <trkpt lat="47.38293" lon="-0.60956">
        <ele>16</ele>
        <time>2010-08-13T09:22:21Z</time>
      </trkpt>
      <trkpt lat="47.38262" lon="-0.60924">
        <ele>15</ele>
        <time>2010-08-13T09:22:26Z</time>
      </trkpt>
      <trkpt lat="47.38236" lon="-0.609">
        <ele>14</ele>
        <time>2010-08-13T09:22:31Z</time>
      </trkpt>
      <trkpt lat="47.38205" lon="-0.60871">
        <ele>14</ele>
        <time>2010-08-13T09:22:36Z</time>
      </trkpt>
      <trkpt lat="47.38175" lon="-0.60841">
        <ele>15</ele>
        <time>2010-08-13T09:22:41Z</time>
      </trkpt>
      <trkpt lat="47.38146" lon="-0.60793">
        <ele>18</ele>
        <time>2010-08-13T09:22:46Z</time>
      </trkpt>
      <trkpt lat="47.38131" lon="-0.60749">
        <ele>21</ele>
        <time>2010-08-13T09:22:51Z</time>
      </trkpt>
      <trkpt lat="47.38123" lon="-0.60722">
        <ele>21</ele>
        <time>2010-08-13T09:22:56Z</time>
      </trkpt>
      <trkpt lat="47.38113" lon="-0.60691">
        <ele>22</ele>
        <time>2010-08-13T09:23:01Z</time>
      </trkpt>
      <trkpt lat="47.38101" lon="-0.60654">
        <ele>24</ele>
        <time>2010-08-13T09:23:06Z</time>
      </trkpt>
      <trkpt lat="47.38084" lon="-0.60631">
        <ele>24</ele>
        <time>2010-08-13T09:23:11Z</time>
      </trkpt>
      <trkpt lat="47.38068" lon="-0.60615">
        <ele>26</ele>
        <time>2010-08-13T09:23:16Z</time>
      </trkpt>
      <trkpt lat="47.38051" lon="-0.60599">
        <ele>27</ele>
        <time>2010-08-13T09:23:21Z</time>
      </trkpt>
      <trkpt lat="47.38036" lon="-0.60598">
        <ele>27</ele>
        <time>2010-08-13T09:23:26Z</time>
      </trkpt>
      <trkpt lat="47.38017" lon="-0.60628">
        <ele>27</ele>
        <time>2010-08-13T09:23:31Z</time>
      </trkpt>
      <trkpt lat="47.38" lon="-0.60652">
        <ele>27</ele>
        <time>2010-08-13T09:23:36Z</time>
      </trkpt>
      <trkpt lat="47.37987" lon="-0.60672">
        <ele>29</ele>
        <time>2010-08-13T09:23:41Z</time>
      </trkpt>
      <trkpt lat="47.37971" lon="-0.60697">
        <ele>31</ele>
        <time>2010-08-13T09:23:46Z</time>
      </trkpt>
      <trkpt lat="47.37948" lon="-0.60722">
        <ele>32</ele>
        <time>2010-08-13T09:23:51Z</time>
      </trkpt>
      <trkpt lat="47.37929" lon="-0.60741">
        <ele>34</ele>
        <time>2010-08-13T09:23:56Z</time>
      </trkpt>
      <trkpt lat="47.37913" lon="-0.60757">
        <ele>36</ele>
        <time>2010-08-13T09:24:01Z</time>
      </trkpt>
      <trkpt lat="47.3789" lon="-0.60763">
        <ele>37</ele>
        <time>2010-08-13T09:24:06Z</time>
      </trkpt>
      <trkpt lat="47.37862" lon="-0.60765">
        <ele>37</ele>
        <time>2010-08-13T09:24:11Z</time>
      </trkpt>
      <trkpt lat="47.3784" lon="-0.60793">
        <ele>37</ele>
        <time>2010-08-13T09:24:16Z</time>
      </trkpt>
      <trkpt lat="47.37814" lon="-0.60831">
        <ele>36</ele>
        <time>2010-08-13T09:24:21Z</time>
      </trkpt>
      <trkpt lat="47.37792" lon="-0.60868">
        <ele>33</ele>
        <time>2010-08-13T09:24:26Z</time>
      </trkpt>
      <trkpt lat="47.37761" lon="-0.60917">
        <ele>29</ele>
        <time>2010-08-13T09:24:31Z</time>
      </trkpt>
      <trkpt lat="47.37722" lon="-0.60979">
        <ele>26</ele>
        <time>2010-08-13T09:24:36Z</time>
      </trkpt>
      <trkpt lat="47.37686" lon="-0.61032">
        <ele>26</ele>
        <time>2010-08-13T09:24:41Z</time>
      </trkpt>
      <trkpt lat="47.37667" lon="-0.61081">
        <ele>27</ele>
        <time>2010-08-13T09:24:46Z</time>
      </trkpt>
      <trkpt lat="47.37648" lon="-0.61135">
        <ele>28</ele>
        <time>2010-08-13T09:24:51Z</time>
      </trkpt>
      <trkpt lat="47.37631" lon="-0.61182">
        <ele>29</ele>
        <time>2010-08-13T09:24:56Z</time>
      </trkpt>
      <trkpt lat="47.37611" lon="-0.61237">
        <ele>29</ele>
        <time>2010-08-13T09:25:01Z</time>
      </trkpt>
      <trkpt lat="47.37595" lon="-0.61283">
        <ele>29</ele>
        <time>2010-08-13T09:25:06Z</time>
      </trkpt>
      <trkpt lat="47.37583" lon="-0.61321">
        <ele>30</ele>
        <time>2010-08-13T09:25:11Z</time>
      </trkpt>
      <trkpt lat="47.37565" lon="-0.61365">
        <ele>29</ele>
        <time>2010-08-13T09:25:16Z</time>
      </trkpt>
      <trkpt lat="47.37545" lon="-0.61404">
        <ele>29</ele>
        <time>2010-08-13T09:25:21Z</time>
      </trkpt>
      <trkpt lat="47.37516" lon="-0.61444">
        <ele>29</ele>
        <time>2010-08-13T09:25:26Z</time>
      </trkpt>
      <trkpt lat="47.37496" lon="-0.61469">
        <ele>30</ele>
        <time>2010-08-13T09:25:31Z</time>
      </trkpt>
      <trkpt lat="47.37471" lon="-0.61499">
        <ele>30</ele>
        <time>2010-08-13T09:25:36Z</time>
      </trkpt>
      <trkpt lat="47.37447" lon="-0.61528">
        <ele>30</ele>
        <time>2010-08-13T09:25:41Z</time>
      </trkpt>
      <trkpt lat="47.37417" lon="-0.61561">
        <ele>31</ele>
        <time>2010-08-13T09:25:46Z</time>
      </trkpt>
      <trkpt lat="47.37393" lon="-0.61589">
        <ele>31</ele>
        <time>2010-08-13T09:25:51Z</time>
      </trkpt>
      <trkpt lat="47.37374" lon="-0.61612">
        <ele>31</ele>
        <time>2010-08-13T09:25:56Z</time>
      </trkpt>
      <trkpt lat="47.37349" lon="-0.6164">
        <ele>31</ele>
        <time>2010-08-13T09:26:01Z</time>
      </trkpt>
      <trkpt lat="47.37321" lon="-0.61674">
        <ele>32</ele>
        <time>2010-08-13T09:26:06Z</time>
      </trkpt>
      <trkpt lat="47.37297" lon="-0.61703">
        <ele>33</ele>
        <time>2010-08-13T09:26:11Z</time>
      </trkpt>
      <trkpt lat="47.37273" lon="-0.61732">
        <ele>34</ele>
        <time>2010-08-13T09:26:16Z</time>
      </trkpt>
      <trkpt lat="47.37254" lon="-0.61754">
        <ele>35</ele>
        <time>2010-08-13T09:26:21Z</time>
      </trkpt>
      <trkpt lat="47.3723" lon="-0.61782">
        <ele>35</ele>
        <time>2010-08-13T09:26:26Z</time>
      </trkpt>
      <trkpt lat="47.37201" lon="-0.61816">
        <ele>35</ele>
        <time>2010-08-13T09:26:31Z</time>
      </trkpt>
      <trkpt lat="47.37177" lon="-0.61845">
        <ele>35</ele>
        <time>2010-08-13T09:26:36Z</time>
      </trkpt>
      <trkpt lat="47.37158" lon="-0.61869">
        <ele>35</ele>
        <time>2010-08-13T09:26:41Z</time>
      </trkpt>
      <trkpt lat="47.37134" lon="-0.61898">
        <ele>35</ele>
        <time>2010-08-13T09:26:46Z</time>
      </trkpt>
      <trkpt lat="47.37109" lon="-0.61927">
        <ele>34</ele>
        <time>2010-08-13T09:26:51Z</time>
      </trkpt>
      <trkpt lat="47.37081" lon="-0.61965">
        <ele>36</ele>
        <time>2010-08-13T09:26:56Z</time>
      </trkpt>
      <trkpt lat="47.37061" lon="-0.62">
        <ele>36</ele>
        <time>2010-08-13T09:27:01Z</time>
      </trkpt>
      <trkpt lat="47.37045" lon="-0.62029">
        <ele>36</ele>
        <time>2010-08-13T09:27:06Z</time>
      </trkpt>
      <trkpt lat="47.37026" lon="-0.62067">
        <ele>36</ele>
        <time>2010-08-13T09:27:11Z</time>
      </trkpt>
      <trkpt lat="47.37004" lon="-0.62112">
        <ele>36</ele>
        <time>2010-08-13T09:27:16Z</time>
      </trkpt>
      <trkpt lat="47.36984" lon="-0.6215">
        <ele>37</ele>
        <time>2010-08-13T09:27:21Z</time>
      </trkpt>
      <trkpt lat="47.36968" lon="-0.62181">
        <ele>36</ele>
        <time>2010-08-13T09:27:26Z</time>
      </trkpt>
      <trkpt lat="47.36947" lon="-0.62217">
        <ele>37</ele>
        <time>2010-08-13T09:27:31Z</time>
      </trkpt>
      <trkpt lat="47.36925" lon="-0.62253">
        <ele>38</ele>
        <time>2010-08-13T09:27:36Z</time>
      </trkpt>
      <trkpt lat="47.36899" lon="-0.62297">
        <ele>39</ele>
        <time>2010-08-13T09:27:41Z</time>
      </trkpt>
      <trkpt lat="47.36877" lon="-0.62333">
        <ele>39</ele>
        <time>2010-08-13T09:27:46Z</time>
      </trkpt>
      <trkpt lat="47.36859" lon="-0.62364">
        <ele>39</ele>
        <time>2010-08-13T09:27:51Z</time>
      </trkpt>
      <trkpt lat="47.36838" lon="-0.62405">
        <ele>38</ele>
        <time>2010-08-13T09:27:56Z</time>
      </trkpt>
      <trkpt lat="47.3682" lon="-0.62451">
        <ele>39</ele>
        <time>2010-08-13T09:28:01Z</time>
      </trkpt>
      <trkpt lat="47.36802" lon="-0.62511">
        <ele>38</ele>
        <time>2010-08-13T09:28:06Z</time>
      </trkpt>
      <trkpt lat="47.3679" lon="-0.6255">
        <ele>37</ele>
        <time>2010-08-13T09:28:11Z</time>
      </trkpt>
      <trkpt lat="47.36771" lon="-0.62597">
        <ele>37</ele>
        <time>2010-08-13T09:28:16Z</time>
      </trkpt>
      <trkpt lat="47.36748" lon="-0.6264">
        <ele>37</ele>
        <time>2010-08-13T09:28:21Z</time>
      </trkpt>
      <trkpt lat="47.36718" lon="-0.62689">
        <ele>36</ele>
        <time>2010-08-13T09:28:26Z</time>
      </trkpt>
      <trkpt lat="47.36693" lon="-0.6273">
        <ele>36</ele>
        <time>2010-08-13T09:28:31Z</time>
      </trkpt>
      <trkpt lat="47.36674" lon="-0.62763">
        <ele>35</ele>
        <time>2010-08-13T09:28:36Z</time>
      </trkpt>
      <trkpt lat="47.36649" lon="-0.62805">
        <ele>36</ele>
        <time>2010-08-13T09:28:41Z</time>
      </trkpt>
      <trkpt lat="47.36619" lon="-0.62854">
        <ele>35</ele>
        <time>2010-08-13T09:28:46Z</time>
      </trkpt>
      <trkpt lat="47.36593" lon="-0.62897">
        <ele>35</ele>
        <time>2010-08-13T09:28:51Z</time>
      </trkpt>
      <trkpt lat="47.36575" lon="-0.62928">
        <ele>35</ele>
        <time>2010-08-13T09:28:56Z</time>
      </trkpt>
      <trkpt lat="47.3655" lon="-0.62971">
        <ele>36</ele>
        <time>2010-08-13T09:29:01Z</time>
      </trkpt>
      <trkpt lat="47.36526" lon="-0.63012">
        <ele>35</ele>
        <time>2010-08-13T09:29:06Z</time>
      </trkpt>
      <trkpt lat="47.36498" lon="-0.63062">
        <ele>35</ele>
        <time>2010-08-13T09:29:11Z</time>
      </trkpt>
      <trkpt lat="47.36479" lon="-0.6311">
        <ele>34</ele>
        <time>2010-08-13T09:29:16Z</time>
      </trkpt>
      <trkpt lat="47.36468" lon="-0.63153">
        <ele>34</ele>
        <time>2010-08-13T09:29:21Z</time>
      </trkpt>
      <trkpt lat="47.36456" lon="-0.63208">
        <ele>33</ele>
        <time>2010-08-13T09:29:26Z</time>
      </trkpt>
      <trkpt lat="47.36442" lon="-0.63273">
        <ele>33</ele>
        <time>2010-08-13T09:29:31Z</time>
      </trkpt>
      <trkpt lat="47.3643" lon="-0.63325">
        <ele>33</ele>
        <time>2010-08-13T09:29:36Z</time>
      </trkpt>
      <trkpt lat="47.36416" lon="-0.63376">
        <ele>33</ele>
        <time>2010-08-13T09:29:41Z</time>
      </trkpt>
      <trkpt lat="47.36406" lon="-0.63416">
        <ele>32</ele>
        <time>2010-08-13T09:29:46Z</time>
      </trkpt>
      <trkpt lat="47.36393" lon="-0.63466">
        <ele>33</ele>
        <time>2010-08-13T09:29:51Z</time>
      </trkpt>
      <trkpt lat="47.36378" lon="-0.63515">
        <ele>32</ele>
        <time>2010-08-13T09:29:56Z</time>
      </trkpt>
      <trkpt lat="47.36357" lon="-0.63573">
        <ele>32</ele>
        <time>2010-08-13T09:30:01Z</time>
      </trkpt>
      <trkpt lat="47.36343" lon="-0.63611">
        <ele>32</ele>
        <time>2010-08-13T09:30:06Z</time>
      </trkpt>
      <trkpt lat="47.36324" lon="-0.63663">
        <ele>32</ele>
        <time>2010-08-13T09:30:11Z</time>
      </trkpt>
      <trkpt lat="47.36298" lon="-0.63731">
        <ele>31</ele>
        <time>2010-08-13T09:30:16Z</time>
      </trkpt>
      <trkpt lat="47.36276" lon="-0.6379">
        <ele>30</ele>
        <time>2010-08-13T09:30:21Z</time>
      </trkpt>
      <trkpt lat="47.36253" lon="-0.63849">
        <ele>29</ele>
        <time>2010-08-13T09:30:26Z</time>
      </trkpt>
      <trkpt lat="47.36235" lon="-0.63898">
        <ele>29</ele>
        <time>2010-08-13T09:30:31Z</time>
      </trkpt>
      <trkpt lat="47.36212" lon="-0.6396">
        <ele>25</ele>
        <time>2010-08-13T09:30:36Z</time>
      </trkpt>
      <trkpt lat="47.36187" lon="-0.64021">
        <ele>21</ele>
        <time>2010-08-13T09:30:41Z</time>
      </trkpt>
      <trkpt lat="47.36157" lon="-0.64098">
        <ele>18</ele>
        <time>2010-08-13T09:30:46Z</time>
      </trkpt>
      <trkpt lat="47.3614" lon="-0.64149">
        <ele>18</ele>
        <time>2010-08-13T09:30:51Z</time>
      </trkpt>
      <trkpt lat="47.36122" lon="-0.642">
        <ele>20</ele>
        <time>2010-08-13T09:30:56Z</time>
      </trkpt>
      <trkpt lat="47.36107" lon="-0.64244">
        <ele>22</ele>
        <time>2010-08-13T09:31:01Z</time>
      </trkpt>
      <trkpt lat="47.36089" lon="-0.64292">
        <ele>23</ele>
        <time>2010-08-13T09:31:06Z</time>
      </trkpt>
      <trkpt lat="47.36074" lon="-0.64333">
        <ele>25</ele>
        <time>2010-08-13T09:31:11Z</time>
      </trkpt>
      <trkpt lat="47.36064" lon="-0.64364">
        <ele>27</ele>
        <time>2010-08-13T09:31:16Z</time>
      </trkpt>
      <trkpt lat="47.36051" lon="-0.64402">
        <ele>27</ele>
        <time>2010-08-13T09:31:21Z</time>
      </trkpt>
      <trkpt lat="47.36039" lon="-0.64441">
        <ele>28</ele>
        <time>2010-08-13T09:31:26Z</time>
      </trkpt>
      <trkpt lat="47.36026" lon="-0.64488">
        <ele>29</ele>
        <time>2010-08-13T09:31:31Z</time>
      </trkpt>
      <trkpt lat="47.36017" lon="-0.64522">
        <ele>28</ele>
        <time>2010-08-13T09:31:36Z</time>
      </trkpt>
      <trkpt lat="47.36006" lon="-0.64567">
        <ele>27</ele>
        <time>2010-08-13T09:31:41Z</time>
      </trkpt>
      <trkpt lat="47.35993" lon="-0.64622">
        <ele>28</ele>
        <time>2010-08-13T09:31:46Z</time>
      </trkpt>
      <trkpt lat="47.35981" lon="-0.6467">
        <ele>28</ele>
        <time>2010-08-13T09:31:51Z</time>
      </trkpt>
      <trkpt lat="47.3597" lon="-0.64718">
        <ele>29</ele>
        <time>2010-08-13T09:31:56Z</time>
      </trkpt>
      <trkpt lat="47.35961" lon="-0.64755">
        <ele>28</ele>
        <time>2010-08-13T09:32:01Z</time>
      </trkpt>
      <trkpt lat="47.35947" lon="-0.648">
        <ele>28</ele>
        <time>2010-08-13T09:32:06Z</time>
      </trkpt>
      <trkpt lat="47.3593" lon="-0.64844">
        <ele>28</ele>
        <time>2010-08-13T09:32:11Z</time>
      </trkpt>
      <trkpt lat="47.35905" lon="-0.64897">
        <ele>28</ele>
        <time>2010-08-13T09:32:16Z</time>
      </trkpt>
      <trkpt lat="47.35886" lon="-0.64945">
        <ele>27</ele>
        <time>2010-08-13T09:32:21Z</time>
      </trkpt>
      <trkpt lat="47.35875" lon="-0.64989">
        <ele>27</ele>
        <time>2010-08-13T09:32:26Z</time>
      </trkpt>
      <trkpt lat="47.35861" lon="-0.65045">
        <ele>26</ele>
        <time>2010-08-13T09:32:31Z</time>
      </trkpt>
      <trkpt lat="47.35845" lon="-0.65113">
        <ele>25</ele>
        <time>2010-08-13T09:32:36Z</time>
      </trkpt>
      <trkpt lat="47.35832" lon="-0.65168">
        <ele>25</ele>
        <time>2010-08-13T09:32:41Z</time>
      </trkpt>
      <trkpt lat="47.35822" lon="-0.6521">
        <ele>26</ele>
        <time>2010-08-13T09:32:46Z</time>
      </trkpt>
      <trkpt lat="47.35808" lon="-0.65261">
        <ele>26</ele>
        <time>2010-08-13T09:32:51Z</time>
      </trkpt>
      <trkpt lat="47.35796" lon="-0.65312">
        <ele>26</ele>
        <time>2010-08-13T09:32:56Z</time>
      </trkpt>
      <trkpt lat="47.3578" lon="-0.65374">
        <ele>25</ele>
        <time>2010-08-13T09:33:01Z</time>
      </trkpt>
      <trkpt lat="47.35766" lon="-0.65425">
        <ele>25</ele>
        <time>2010-08-13T09:33:06Z</time>
      </trkpt>
      <trkpt lat="47.35757" lon="-0.65469">
        <ele>25</ele>
        <time>2010-08-13T09:33:11Z</time>
      </trkpt>
      <trkpt lat="47.35742" lon="-0.65525">
        <ele>27</ele>
        <time>2010-08-13T09:33:16Z</time>
      </trkpt>
      <trkpt lat="47.35729" lon="-0.65579">
        <ele>27</ele>
        <time>2010-08-13T09:33:21Z</time>
      </trkpt>
      <trkpt lat="47.35714" lon="-0.65644">
        <ele>26</ele>
        <time>2010-08-13T09:33:26Z</time>
      </trkpt>
      <trkpt lat="47.35705" lon="-0.65687">
        <ele>25</ele>
        <time>2010-08-13T09:33:31Z</time>
      </trkpt>
      <trkpt lat="47.35692" lon="-0.65739">
        <ele>25</ele>
        <time>2010-08-13T09:33:36Z</time>
      </trkpt>
      <trkpt lat="47.35677" lon="-0.65804">
        <ele>24</ele>
        <time>2010-08-13T09:33:41Z</time>
      </trkpt>
      <trkpt lat="47.35664" lon="-0.6586">
        <ele>24</ele>
        <time>2010-08-13T09:33:46Z</time>
      </trkpt>
      <trkpt lat="47.35649" lon="-0.65916">
        <ele>23</ele>
        <time>2010-08-13T09:33:51Z</time>
      </trkpt>
      <trkpt lat="47.35638" lon="-0.65963">
        <ele>22</ele>
        <time>2010-08-13T09:33:56Z</time>
      </trkpt>
      <trkpt lat="47.35624" lon="-0.66019">
        <ele>21</ele>
        <time>2010-08-13T09:34:01Z</time>
      </trkpt>
      <trkpt lat="47.3561" lon="-0.66084">
        <ele>20</ele>
        <time>2010-08-13T09:34:06Z</time>
      </trkpt>
      <trkpt lat="47.35597" lon="-0.66135">
        <ele>20</ele>
        <time>2010-08-13T09:34:11Z</time>
      </trkpt>
      <trkpt lat="47.35584" lon="-0.66172">
        <ele>20</ele>
        <time>2010-08-13T09:34:16Z</time>
      </trkpt>
      <trkpt lat="47.35565" lon="-0.66215">
        <ele>20</ele>
        <time>2010-08-13T09:34:21Z</time>
      </trkpt>
      <trkpt lat="47.35542" lon="-0.66254">
        <ele>20</ele>
        <time>2010-08-13T09:34:26Z</time>
      </trkpt>
      <trkpt lat="47.35512" lon="-0.66295">
        <ele>20</ele>
        <time>2010-08-13T09:34:31Z</time>
      </trkpt>
      <trkpt lat="47.35487" lon="-0.66329">
        <ele>22</ele>
        <time>2010-08-13T09:34:36Z</time>
      </trkpt>
      <trkpt lat="47.35464" lon="-0.66352">
        <ele>21</ele>
        <time>2010-08-13T09:34:41Z</time>
      </trkpt>
      <trkpt lat="47.35432" lon="-0.66374">
        <ele>21</ele>
        <time>2010-08-13T09:34:46Z</time>
      </trkpt>
      <trkpt lat="47.35393" lon="-0.66398">
        <ele>23</ele>
        <time>2010-08-13T09:34:51Z</time>
      </trkpt>
      <trkpt lat="47.3536" lon="-0.66419">
        <ele>21</ele>
        <time>2010-08-13T09:34:56Z</time>
      </trkpt>
      <trkpt lat="47.35334" lon="-0.66436">
        <ele>22</ele>
        <time>2010-08-13T09:35:01Z</time>
      </trkpt>
      <trkpt lat="47.35304" lon="-0.66465">
        <ele>22</ele>
        <time>2010-08-13T09:35:06Z</time>
      </trkpt>
      <trkpt lat="47.35278" lon="-0.66501">
        <ele>20</ele>
        <time>2010-08-13T09:35:11Z</time>
      </trkpt>
      <trkpt lat="47.35248" lon="-0.66547">
        <ele>20</ele>
        <time>2010-08-13T09:35:16Z</time>
      </trkpt>
      <trkpt lat="47.35231" lon="-0.6658">
        <ele>19</ele>
        <time>2010-08-13T09:35:21Z</time>
      </trkpt>
      <trkpt lat="47.35232" lon="-0.66581">
        <ele>19</ele>
        <time>2010-08-13T09:35:26Z</time>
      </trkpt>
      <trkpt lat="47.35233" lon="-0.66582">
        <ele>19</ele>
        <time>2010-08-13T09:35:31Z</time>
      </trkpt>
      <trkpt lat="47.35236" lon="-0.66587">
        <ele>19</ele>
        <time>2010-08-13T09:35:36Z</time>
      </trkpt>
      <trkpt lat="47.35237" lon="-0.66586">
        <ele>19</ele>
        <time>2010-08-13T09:35:41Z</time>
      </trkpt>
      <trkpt lat="47.35238" lon="-0.66587">
        <ele>19</ele>
        <time>2010-08-13T09:35:46Z</time>
      </trkpt>
      <trkpt lat="47.35238" lon="-0.66587">
        <ele>19</ele>
        <time>2010-08-13T09:35:51Z</time>
      </trkpt>
      <trkpt lat="47.35238" lon="-0.66588">
        <ele>19</ele>
        <time>2010-08-13T09:35:56Z</time>
      </trkpt>
      <trkpt lat="47.35238" lon="-0.66588">
        <ele>19</ele>
        <time>2010-08-13T09:36:01Z</time>
      </trkpt>
      <trkpt lat="47.35238" lon="-0.66587">
        <ele>19</ele>
        <time>2010-08-13T09:36:06Z</time>
      </trkpt>
      <trkpt lat="47.35236" lon="-0.66587">
        <ele>19</ele>
        <time>2010-08-13T09:36:11Z</time>
      </trkpt>
      <trkpt lat="47.35236" lon="-0.66588">
        <ele>19</ele>
        <time>2010-08-13T09:36:16Z</time>
      </trkpt>
      <trkpt lat="47.35236" lon="-0.66587">
        <ele>19</ele>
        <time>2010-08-13T09:36:21Z</time>
      </trkpt>
      <trkpt lat="47.35237" lon="-0.66587">
        <ele>19</ele>
        <time>2010-08-13T09:36:26Z</time>
      </trkpt>
      <trkpt lat="47.35237" lon="-0.66586">
        <ele>19</ele>
        <time>2010-08-13T09:36:31Z</time>
      </trkpt>
      <trkpt lat="47.35237" lon="-0.66586">
        <ele>19</ele>
        <time>2010-08-13T09:36:36Z</time>
      </trkpt>
      <trkpt lat="47.35238" lon="-0.66587">
        <ele>19</ele>
        <time>2010-08-13T09:36:41Z</time>
      </trkpt>
      <trkpt lat="47.35238" lon="-0.66588">
        <ele>19</ele>
        <time>2010-08-13T09:36:46Z</time>
      </trkpt>
      <trkpt lat="47.35237" lon="-0.66588">
        <ele>19</ele>
        <time>2010-08-13T09:36:51Z</time>
      </trkpt>
      <trkpt lat="47.35237" lon="-0.66588">
        <ele>19</ele>
        <time>2010-08-13T09:36:56Z</time>
      </trkpt>
      <trkpt lat="47.35237" lon="-0.66588">
        <ele>19</ele>
        <time>2010-08-13T09:37:01Z</time>
      </trkpt>
      <trkpt lat="47.35237" lon="-0.66587">
        <ele>19</ele>
        <time>2010-08-13T09:37:06Z</time>
      </trkpt>
      <trkpt lat="47.35235" lon="-0.66587">
        <ele>19</ele>
        <time>2010-08-13T09:37:11Z</time>
      </trkpt>
      <trkpt lat="47.35234" lon="-0.66584">
        <ele>19</ele>
        <time>2010-08-13T09:37:16Z</time>
      </trkpt>
      <trkpt lat="47.35233" lon="-0.66583">
        <ele>19</ele>
        <time>2010-08-13T09:37:21Z</time>
      </trkpt>
      <trkpt lat="47.35233" lon="-0.66583">
        <ele>19</ele>
        <time>2010-08-13T09:37:26Z</time>
      </trkpt>
      <trkpt lat="47.35235" lon="-0.66585">
        <ele>19</ele>
        <time>2010-08-13T09:37:31Z</time>
      </trkpt>
      <trkpt lat="47.35235" lon="-0.66586">
        <ele>19</ele>
        <time>2010-08-13T09:37:36Z</time>
      </trkpt>
      <trkpt lat="47.35236" lon="-0.66586">
        <ele>19</ele>
        <time>2010-08-13T09:37:41Z</time>
      </trkpt>
      <trkpt lat="47.35235" lon="-0.66586">
        <ele>19</ele>
        <time>2010-08-13T09:37:46Z</time>
      </trkpt>
      <trkpt lat="47.35234" lon="-0.66586">
        <ele>19</ele>
        <time>2010-08-13T09:37:51Z</time>
      </trkpt>
      <trkpt lat="47.35225" lon="-0.66598">
        <ele>19</ele>
        <time>2010-08-13T09:37:56Z</time>
      </trkpt>
      <trkpt lat="47.35206" lon="-0.66625">
        <ele>19</ele>
        <time>2010-08-13T09:38:01Z</time>
      </trkpt>
      <trkpt lat="47.35189" lon="-0.6665">
        <ele>19</ele>
        <time>2010-08-13T09:38:06Z</time>
      </trkpt>
      <trkpt lat="47.35167" lon="-0.66685">
        <ele>19</ele>
        <time>2010-08-13T09:38:11Z</time>
      </trkpt>
      <trkpt lat="47.35145" lon="-0.66723">
        <ele>20</ele>
        <time>2010-08-13T09:38:16Z</time>
      </trkpt>
      <trkpt lat="47.35118" lon="-0.66768">
        <ele>19</ele>
        <time>2010-08-13T09:38:21Z</time>
      </trkpt>
      <trkpt lat="47.35102" lon="-0.66797">
        <ele>19</ele>
        <time>2010-08-13T09:38:26Z</time>
      </trkpt>
      <trkpt lat="47.3508" lon="-0.66834">
        <ele>19</ele>
        <time>2010-08-13T09:38:31Z</time>
      </trkpt>
      <trkpt lat="47.35059" lon="-0.66872">
        <ele>20</ele>
        <time>2010-08-13T09:38:36Z</time>
      </trkpt>
      <trkpt lat="47.35037" lon="-0.66908">
        <ele>20</ele>
        <time>2010-08-13T09:38:41Z</time>
      </trkpt>
      <trkpt lat="47.3501" lon="-0.66953">
        <ele>20</ele>
        <time>2010-08-13T09:38:46Z</time>
      </trkpt>
      <trkpt lat="47.34991" lon="-0.66984">
        <ele>21</ele>
        <time>2010-08-13T09:38:51Z</time>
      </trkpt>
      <trkpt lat="47.34968" lon="-0.67024">
        <ele>20</ele>
        <time>2010-08-13T09:38:56Z</time>
      </trkpt>
      <trkpt lat="47.34945" lon="-0.67064">
        <ele>20</ele>
        <time>2010-08-13T09:39:01Z</time>
      </trkpt>
      <trkpt lat="47.34921" lon="-0.67106">
        <ele>19</ele>
        <time>2010-08-13T09:39:06Z</time>
      </trkpt>
      <trkpt lat="47.34892" lon="-0.67155">
        <ele>21</ele>
        <time>2010-08-13T09:39:11Z</time>
      </trkpt>
      <trkpt lat="47.34873" lon="-0.67186">
        <ele>20</ele>
        <time>2010-08-13T09:39:16Z</time>
      </trkpt>
      <trkpt lat="47.34847" lon="-0.67223">
        <ele>20</ele>
        <time>2010-08-13T09:39:21Z</time>
      </trkpt>
      <trkpt lat="47.34812" lon="-0.67261">
        <ele>23</ele>
        <time>2010-08-13T09:39:26Z</time>
      </trkpt>
      <trkpt lat="47.34786" lon="-0.67297">
        <ele>25</ele>
        <time>2010-08-13T09:39:31Z</time>
      </trkpt>
      <trkpt lat="47.34772" lon="-0.67338">
        <ele>24</ele>
        <time>2010-08-13T09:39:36Z</time>
      </trkpt>
      <trkpt lat="47.34764" lon="-0.67396">
        <ele>22</ele>
        <time>2010-08-13T09:39:41Z</time>
      </trkpt>
      <trkpt lat="47.34764" lon="-0.67447">
        <ele>22</ele>
        <time>2010-08-13T09:39:46Z</time>
      </trkpt>
      <trkpt lat="47.34769" lon="-0.67499">
        <ele>23</ele>
        <time>2010-08-13T09:39:51Z</time>
      </trkpt>
      <trkpt lat="47.34772" lon="-0.67539">
        <ele>24</ele>
        <time>2010-08-13T09:39:56Z</time>
      </trkpt>
      <trkpt lat="47.3477" lon="-0.67569">
        <ele>25</ele>
        <time>2010-08-13T09:40:01Z</time>
      </trkpt>
      <trkpt lat="47.34762" lon="-0.67607">
        <ele>25</ele>
        <time>2010-08-13T09:40:06Z</time>
      </trkpt>
      <trkpt lat="47.34751" lon="-0.67649">
        <ele>25</ele>
        <time>2010-08-13T09:40:11Z</time>
      </trkpt>
      <trkpt lat="47.3474" lon="-0.67683">
        <ele>29</ele>
        <time>2010-08-13T09:40:16Z</time>
      </trkpt>
      <trkpt lat="47.34729" lon="-0.67709">
        <ele>30</ele>
        <time>2010-08-13T09:40:21Z</time>
      </trkpt>
      <trkpt lat="47.34712" lon="-0.67737">
        <ele>30</ele>
        <time>2010-08-13T09:40:26Z</time>
      </trkpt>
      <trkpt lat="47.34692" lon="-0.6776">
        <ele>31</ele>
        <time>2010-08-13T09:40:31Z</time>
      </trkpt>
      <trkpt lat="47.34675" lon="-0.67799">
        <ele>31</ele>
        <time>2010-08-13T09:40:36Z</time>
      </trkpt>
      <trkpt lat="47.34666" lon="-0.67836">
        <ele>38</ele>
        <time>2010-08-13T09:40:41Z</time>
      </trkpt>
      <trkpt lat="47.34661" lon="-0.67866">
        <ele>44</ele>
        <time>2010-08-13T09:40:46Z</time>
      </trkpt>
      <trkpt lat="47.34661" lon="-0.67904">
        <ele>41</ele>
        <time>2010-08-13T09:40:51Z</time>
      </trkpt>
      <trkpt lat="47.3466" lon="-0.67948">
        <ele>43</ele>
        <time>2010-08-13T09:40:56Z</time>
      </trkpt>
      <trkpt lat="47.34656" lon="-0.67984">
        <ele>40</ele>
        <time>2010-08-13T09:41:01Z</time>
      </trkpt>
      <trkpt lat="47.3465" lon="-0.68012">
        <ele>39</ele>
        <time>2010-08-13T09:41:06Z</time>
      </trkpt>
      <trkpt lat="47.3464" lon="-0.68047">
        <ele>42</ele>
        <time>2010-08-13T09:41:11Z</time>
      </trkpt>
      <trkpt lat="47.3463" lon="-0.68083">
        <ele>42</ele>
        <time>2010-08-13T09:41:16Z</time>
      </trkpt>
      <trkpt lat="47.34621" lon="-0.68127">
        <ele>40</ele>
        <time>2010-08-13T09:41:21Z</time>
      </trkpt>
      <trkpt lat="47.34613" lon="-0.68162">
        <ele>42</ele>
        <time>2010-08-13T09:41:26Z</time>
      </trkpt>
      <trkpt lat="47.34603" lon="-0.68188">
        <ele>39</ele>
        <time>2010-08-13T09:41:31Z</time>
      </trkpt>
      <trkpt lat="47.34587" lon="-0.68218">
        <ele>38</ele>
        <time>2010-08-13T09:41:36Z</time>
      </trkpt>
      <trkpt lat="47.34572" lon="-0.68253">
        <ele>44</ele>
        <time>2010-08-13T09:41:41Z</time>
      </trkpt>
      <trkpt lat="47.34564" lon="-0.68297">
        <ele>46</ele>
        <time>2010-08-13T09:41:46Z</time>
      </trkpt>
      <trkpt lat="47.34561" lon="-0.68327">
        <ele>43</ele>
        <time>2010-08-13T09:41:51Z</time>
      </trkpt>
      <trkpt lat="47.34554" lon="-0.68362">
        <ele>38</ele>
        <time>2010-08-13T09:41:56Z</time>
      </trkpt>
      <trkpt lat="47.34534" lon="-0.68385">
        <ele>39</ele>
        <time>2010-08-13T09:42:01Z</time>
      </trkpt>
      <trkpt lat="47.3451" lon="-0.6839">
        <ele>41</ele>
        <time>2010-08-13T09:42:06Z</time>
      </trkpt>
      <trkpt lat="47.34479" lon="-0.68382">
        <ele>50</ele>
        <time>2010-08-13T09:42:11Z</time>
      </trkpt>
      <trkpt lat="47.34458" lon="-0.68393">
        <ele>51</ele>
        <time>2010-08-13T09:42:16Z</time>
      </trkpt>
      <trkpt lat="47.34451" lon="-0.68427">
        <ele>49</ele>
        <time>2010-08-13T09:42:21Z</time>
      </trkpt>
      <trkpt lat="47.34462" lon="-0.68462">
        <ele>49</ele>
        <time>2010-08-13T09:42:26Z</time>
      </trkpt>
      <trkpt lat="47.34475" lon="-0.68505">
        <ele>49</ele>
        <time>2010-08-13T09:42:31Z</time>
      </trkpt>
      <trkpt lat="47.34478" lon="-0.68542">
        <ele>50</ele>
        <time>2010-08-13T09:42:36Z</time>
      </trkpt>
      <trkpt lat="47.34475" lon="-0.6857">
        <ele>50</ele>
        <time>2010-08-13T09:42:41Z</time>
      </trkpt>
      <trkpt lat="47.34468" lon="-0.68605">
        <ele>51</ele>
        <time>2010-08-13T09:42:46Z</time>
      </trkpt>
      <trkpt lat="47.34461" lon="-0.68639">
        <ele>52</ele>
        <time>2010-08-13T09:42:51Z</time>
      </trkpt>
      <trkpt lat="47.34453" lon="-0.68681">
        <ele>52</ele>
        <time>2010-08-13T09:42:56Z</time>
      </trkpt>
      <trkpt lat="47.34448" lon="-0.6871">
        <ele>52</ele>
        <time>2010-08-13T09:43:01Z</time>
      </trkpt>
      <trkpt lat="47.34447" lon="-0.68747">
        <ele>52</ele>
        <time>2010-08-13T09:43:06Z</time>
      </trkpt>
      <trkpt lat="47.34448" lon="-0.68784">
        <ele>51</ele>
        <time>2010-08-13T09:43:11Z</time>
      </trkpt>
      <trkpt lat="47.34455" lon="-0.6883">
        <ele>51</ele>
        <time>2010-08-13T09:43:16Z</time>
      </trkpt>
      <trkpt lat="47.34463" lon="-0.68866">
        <ele>51</ele>
        <time>2010-08-13T09:43:21Z</time>
      </trkpt>
      <trkpt lat="47.3447" lon="-0.68894">
        <ele>51</ele>
        <time>2010-08-13T09:43:26Z</time>
      </trkpt>
      <trkpt lat="47.34472" lon="-0.68931">
        <ele>51</ele>
        <time>2010-08-13T09:43:31Z</time>
      </trkpt>
      <trkpt lat="47.34467" lon="-0.68968">
        <ele>52</ele>
        <time>2010-08-13T09:43:36Z</time>
      </trkpt>
      <trkpt lat="47.34453" lon="-0.69011">
        <ele>52</ele>
        <time>2010-08-13T09:43:41Z</time>
      </trkpt>
      <trkpt lat="47.34442" lon="-0.69041">
        <ele>52</ele>
        <time>2010-08-13T09:43:46Z</time>
      </trkpt>
      <trkpt lat="47.3443" lon="-0.69077">
        <ele>54</ele>
        <time>2010-08-13T09:43:51Z</time>
      </trkpt>
      <trkpt lat="47.34417" lon="-0.69113">
        <ele>50</ele>
        <time>2010-08-13T09:43:56Z</time>
      </trkpt>
      <trkpt lat="47.34398" lon="-0.69151">
        <ele>53</ele>
        <time>2010-08-13T09:44:01Z</time>
      </trkpt>
      <trkpt lat="47.34378" lon="-0.69164">
        <ele>54</ele>
        <time>2010-08-13T09:44:06Z</time>
      </trkpt>
      <trkpt lat="47.3435" lon="-0.69159">
        <ele>56</ele>
        <time>2010-08-13T09:44:11Z</time>
      </trkpt>
      <trkpt lat="47.34321" lon="-0.69161">
        <ele>58</ele>
        <time>2010-08-13T09:44:16Z</time>
      </trkpt>
      <trkpt lat="47.34295" lon="-0.69185">
        <ele>56</ele>
        <time>2010-08-13T09:44:21Z</time>
      </trkpt>
      <trkpt lat="47.34265" lon="-0.69215">
        <ele>56</ele>
        <time>2010-08-13T09:44:26Z</time>
      </trkpt>
      <trkpt lat="47.34245" lon="-0.69237">
        <ele>59</ele>
        <time>2010-08-13T09:44:31Z</time>
      </trkpt>
      <trkpt lat="47.3422" lon="-0.6926">
        <ele>58</ele>
        <time>2010-08-13T09:44:36Z</time>
      </trkpt>
      <trkpt lat="47.34197" lon="-0.69281">
        <ele>59</ele>
        <time>2010-08-13T09:44:41Z</time>
      </trkpt>
      <trkpt lat="47.3417" lon="-0.69309">
        <ele>60</ele>
        <time>2010-08-13T09:44:46Z</time>
      </trkpt>
      <trkpt lat="47.3415" lon="-0.69336">
        <ele>63</ele>
        <time>2010-08-13T09:44:51Z</time>
      </trkpt>
      <trkpt lat="47.34139" lon="-0.69366">
        <ele>63</ele>
        <time>2010-08-13T09:44:56Z</time>
      </trkpt>
      <trkpt lat="47.34134" lon="-0.69406">
        <ele>63</ele>
        <time>2010-08-13T09:45:01Z</time>
      </trkpt>
      <trkpt lat="47.34132" lon="-0.69446">
        <ele>63</ele>
        <time>2010-08-13T09:45:06Z</time>
      </trkpt>
      <trkpt lat="47.34131" lon="-0.69493">
        <ele>63</ele>
        <time>2010-08-13T09:45:11Z</time>
      </trkpt>
      <trkpt lat="47.3413" lon="-0.69523">
        <ele>65</ele>
        <time>2010-08-13T09:45:16Z</time>
      </trkpt>
      <trkpt lat="47.34129" lon="-0.69561">
        <ele>65</ele>
        <time>2010-08-13T09:45:21Z</time>
      </trkpt>
      <trkpt lat="47.34128" lon="-0.69599">
        <ele>66</ele>
        <time>2010-08-13T09:45:26Z</time>
      </trkpt>
      <trkpt lat="47.34126" lon="-0.69646">
        <ele>66</ele>
        <time>2010-08-13T09:45:31Z</time>
      </trkpt>
      <trkpt lat="47.34124" lon="-0.69685">
        <ele>65</ele>
        <time>2010-08-13T09:45:36Z</time>
      </trkpt>
      <trkpt lat="47.34122" lon="-0.69718">
        <ele>64</ele>
        <time>2010-08-13T09:45:41Z</time>
      </trkpt>
      <trkpt lat="47.34121" lon="-0.69763">
        <ele>62</ele>
        <time>2010-08-13T09:45:46Z</time>
      </trkpt>
      <trkpt lat="47.34118" lon="-0.69822">
        <ele>62</ele>
        <time>2010-08-13T09:45:51Z</time>
      </trkpt>
      <trkpt lat="47.34115" lon="-0.69876">
        <ele>61</ele>
        <time>2010-08-13T09:45:56Z</time>
      </trkpt>
      <trkpt lat="47.3411" lon="-0.69937">
        <ele>60</ele>
        <time>2010-08-13T09:46:01Z</time>
      </trkpt>
      <trkpt lat="47.34107" lon="-0.69988">
        <ele>60</ele>
        <time>2010-08-13T09:46:06Z</time>
      </trkpt>
      <trkpt lat="47.34105" lon="-0.70052">
        <ele>59</ele>
        <time>2010-08-13T09:46:11Z</time>
      </trkpt>
      <trkpt lat="47.34113" lon="-0.70123">
        <ele>60</ele>
        <time>2010-08-13T09:46:16Z</time>
      </trkpt>
      <trkpt lat="47.34121" lon="-0.70175">
        <ele>61</ele>
        <time>2010-08-13T09:46:21Z</time>
      </trkpt>
      <trkpt lat="47.34124" lon="-0.70212">
        <ele>62</ele>
        <time>2010-08-13T09:46:26Z</time>
      </trkpt>
      <trkpt lat="47.34121" lon="-0.70255">
        <ele>63</ele>
        <time>2010-08-13T09:46:31Z</time>
      </trkpt>
      <trkpt lat="47.34114" lon="-0.70296">
        <ele>63</ele>
        <time>2010-08-13T09:46:36Z</time>
      </trkpt>
      <trkpt lat="47.34106" lon="-0.70345">
        <ele>63</ele>
        <time>2010-08-13T09:46:41Z</time>
      </trkpt>
      <trkpt lat="47.34099" lon="-0.70387">
        <ele>64</ele>
        <time>2010-08-13T09:46:46Z</time>
      </trkpt>
      <trkpt lat="47.34094" lon="-0.7042">
        <ele>64</ele>
        <time>2010-08-13T09:46:51Z</time>
      </trkpt>
      <trkpt lat="47.34088" lon="-0.70461">
        <ele>64</ele>
        <time>2010-08-13T09:46:56Z</time>
      </trkpt>
      <trkpt lat="47.34079" lon="-0.70514">
        <ele>65</ele>
        <time>2010-08-13T09:47:01Z</time>
      </trkpt>
      <trkpt lat="47.3407" lon="-0.70563">
        <ele>65</ele>
        <time>2010-08-13T09:47:06Z</time>
      </trkpt>
      <trkpt lat="47.34063" lon="-0.70607">
        <ele>63</ele>
        <time>2010-08-13T09:47:11Z</time>
      </trkpt>
      <trkpt lat="47.34053" lon="-0.70669">
        <ele>61</ele>
        <time>2010-08-13T09:47:16Z</time>
      </trkpt>
      <trkpt lat="47.34044" lon="-0.70735">
        <ele>60</ele>
        <time>2010-08-13T09:47:21Z</time>
      </trkpt>
      <trkpt lat="47.34036" lon="-0.70803">
        <ele>60</ele>
        <time>2010-08-13T09:47:26Z</time>
      </trkpt>
      <trkpt lat="47.34028" lon="-0.70883">
        <ele>61</ele>
        <time>2010-08-13T09:47:31Z</time>
      </trkpt>
      <trkpt lat="47.34018" lon="-0.70931">
        <ele>61</ele>
        <time>2010-08-13T09:47:36Z</time>
      </trkpt>
      <trkpt lat="47.34003" lon="-0.70987">
        <ele>60</ele>
        <time>2010-08-13T09:47:41Z</time>
      </trkpt>
      <trkpt lat="47.33996" lon="-0.71054">
        <ele>61</ele>
        <time>2010-08-13T09:47:46Z</time>
      </trkpt>
      <trkpt lat="47.34013" lon="-0.7111">
        <ele>57</ele>
        <time>2010-08-13T09:47:51Z</time>
      </trkpt>
      <trkpt lat="47.34026" lon="-0.71156">
        <ele>57</ele>
        <time>2010-08-13T09:47:56Z</time>
      </trkpt>
      <trkpt lat="47.34055" lon="-0.71208">
        <ele>57</ele>
        <time>2010-08-13T09:48:01Z</time>
      </trkpt>
      <trkpt lat="47.34104" lon="-0.71194">
        <ele>52</ele>
        <time>2010-08-13T09:48:06Z</time>
      </trkpt>
      <trkpt lat="47.3416" lon="-0.71182">
        <ele>50</ele>
        <time>2010-08-13T09:48:11Z</time>
      </trkpt>
      <trkpt lat="47.34209" lon="-0.71191">
        <ele>54</ele>
        <time>2010-08-13T09:48:16Z</time>
      </trkpt>
      <trkpt lat="47.34237" lon="-0.71142">
        <ele>51</ele>
        <time>2010-08-13T09:48:21Z</time>
      </trkpt>
      <trkpt lat="47.34257" lon="-0.71066">
        <ele>46</ele>
        <time>2010-08-13T09:48:26Z</time>
      </trkpt>
      <trkpt lat="47.34312" lon="-0.71023">
        <ele>42</ele>
        <time>2010-08-13T09:48:31Z</time>
      </trkpt>
      <trkpt lat="47.34363" lon="-0.71048">
        <ele>36</ele>
        <time>2010-08-13T09:48:36Z</time>
      </trkpt>
      <trkpt lat="47.34385" lon="-0.71108">
        <ele>40</ele>
        <time>2010-08-13T09:48:41Z</time>
      </trkpt>
      <trkpt lat="47.34396" lon="-0.71191">
        <ele>43</ele>
        <time>2010-08-13T09:48:46Z</time>
      </trkpt>
      <trkpt lat="47.3442" lon="-0.71268">
        <ele>34</ele>
        <time>2010-08-13T09:48:51Z</time>
      </trkpt>
      <trkpt lat="47.34449" lon="-0.71361">
        <ele>36</ele>
        <time>2010-08-13T09:48:56Z</time>
      </trkpt>
      <trkpt lat="47.34473" lon="-0.71438">
        <ele>39</ele>
        <time>2010-08-13T09:49:01Z</time>
      </trkpt>
      <trkpt lat="47.34492" lon="-0.71499">
        <ele>36</ele>
        <time>2010-08-13T09:49:06Z</time>
      </trkpt>
      <trkpt lat="47.34516" lon="-0.71576">
        <ele>35</ele>
        <time>2010-08-13T09:49:11Z</time>
      </trkpt>
      <trkpt lat="47.34538" lon="-0.71656">
        <ele>37</ele>
        <time>2010-08-13T09:49:16Z</time>
      </trkpt>
      <trkpt lat="47.34588" lon="-0.71727">
        <ele>28</ele>
        <time>2010-08-13T09:49:21Z</time>
      </trkpt>
      <trkpt lat="47.34627" lon="-0.71781">
        <ele>29</ele>
        <time>2010-08-13T09:49:26Z</time>
      </trkpt>
      <trkpt lat="47.34647" lon="-0.71835">
        <ele>29</ele>
        <time>2010-08-13T09:49:31Z</time>
      </trkpt>
      <trkpt lat="47.34668" lon="-0.71894">
        <ele>21</ele>
        <time>2010-08-13T09:49:36Z</time>
      </trkpt>
      <trkpt lat="47.34677" lon="-0.71958">
        <ele>24</ele>
        <time>2010-08-13T09:49:41Z</time>
      </trkpt>
      <trkpt lat="47.34679" lon="-0.72013">
        <ele>29</ele>
        <time>2010-08-13T09:49:46Z</time>
      </trkpt>
      <trkpt lat="47.3468" lon="-0.72057">
        <ele>31</ele>
        <time>2010-08-13T09:49:51Z</time>
      </trkpt>
      <trkpt lat="47.3469" lon="-0.72112">
        <ele>33</ele>
        <time>2010-08-13T09:49:56Z</time>
      </trkpt>
      <trkpt lat="47.34702" lon="-0.72164">
        <ele>32</ele>
        <time>2010-08-13T09:50:01Z</time>
      </trkpt>
      <trkpt lat="47.34721" lon="-0.72225">
        <ele>30</ele>
        <time>2010-08-13T09:50:06Z</time>
      </trkpt>
      <trkpt lat="47.34739" lon="-0.72268">
        <ele>27</ele>
        <time>2010-08-13T09:50:11Z</time>
      </trkpt>
      <trkpt lat="47.34748" lon="-0.72302">
        <ele>29</ele>
        <time>2010-08-13T09:50:16Z</time>
      </trkpt>
      <trkpt lat="47.34751" lon="-0.7235">
        <ele>20</ele>
        <time>2010-08-13T09:50:21Z</time>
      </trkpt>
      <trkpt lat="47.34749" lon="-0.72399">
        <ele>30</ele>
        <time>2010-08-13T09:50:26Z</time>
      </trkpt>
      <trkpt lat="47.3475" lon="-0.72456">
        <ele>34</ele>
        <time>2010-08-13T09:50:31Z</time>
      </trkpt>
      <trkpt lat="47.34751" lon="-0.72494">
        <ele>25</ele>
        <time>2010-08-13T09:50:36Z</time>
      </trkpt>
      <trkpt lat="47.34756" lon="-0.72543">
        <ele>25</ele>
        <time>2010-08-13T09:50:41Z</time>
      </trkpt>
      <trkpt lat="47.34769" lon="-0.72593">
        <ele>28</ele>
        <time>2010-08-13T09:50:46Z</time>
      </trkpt>
      <trkpt lat="47.34785" lon="-0.72648">
        <ele>27</ele>
        <time>2010-08-13T09:50:51Z</time>
      </trkpt>
      <trkpt lat="47.3479" lon="-0.727">
        <ele>28</ele>
        <time>2010-08-13T09:50:56Z</time>
      </trkpt>
      <trkpt lat="47.34797" lon="-0.72744">
        <ele>28</ele>
        <time>2010-08-13T09:51:01Z</time>
      </trkpt>
      <trkpt lat="47.34807" lon="-0.72796">
        <ele>29</ele>
        <time>2010-08-13T09:51:06Z</time>
      </trkpt>
      <trkpt lat="47.34829" lon="-0.7286">
        <ele>30</ele>
        <time>2010-08-13T09:51:11Z</time>
      </trkpt>
      <trkpt lat="47.34852" lon="-0.72905">
        <ele>24</ele>
        <time>2010-08-13T09:51:16Z</time>
      </trkpt>
      <trkpt lat="47.34866" lon="-0.72939">
        <ele>25</ele>
        <time>2010-08-13T09:51:21Z</time>
      </trkpt>
      <trkpt lat="47.34869" lon="-0.72988">
        <ele>25</ele>
        <time>2010-08-13T09:51:26Z</time>
      </trkpt>
      <trkpt lat="47.34863" lon="-0.73036">
        <ele>25</ele>
        <time>2010-08-13T09:51:31Z</time>
      </trkpt>
      <trkpt lat="47.34857" lon="-0.73093">
        <ele>26</ele>
        <time>2010-08-13T09:51:36Z</time>
      </trkpt>
      <trkpt lat="47.34862" lon="-0.73142">
        <ele>25</ele>
        <time>2010-08-13T09:51:41Z</time>
      </trkpt>
      <trkpt lat="47.34868" lon="-0.73182">
        <ele>27</ele>
        <time>2010-08-13T09:51:46Z</time>
      </trkpt>
      <trkpt lat="47.34878" lon="-0.73237">
        <ele>27</ele>
        <time>2010-08-13T09:51:51Z</time>
      </trkpt>
      <trkpt lat="47.34887" lon="-0.7329">
        <ele>29</ele>
        <time>2010-08-13T09:51:56Z</time>
      </trkpt>
      <trkpt lat="47.34896" lon="-0.73353">
        <ele>27</ele>
        <time>2010-08-13T09:52:01Z</time>
      </trkpt>
      <trkpt lat="47.349" lon="-0.73405">
        <ele>25</ele>
        <time>2010-08-13T09:52:06Z</time>
      </trkpt>
      <trkpt lat="47.34901" lon="-0.73447">
        <ele>24</ele>
        <time>2010-08-13T09:52:11Z</time>
      </trkpt>
      <trkpt lat="47.34898" lon="-0.73499">
        <ele>23</ele>
        <time>2010-08-13T09:52:16Z</time>
      </trkpt>
      <trkpt lat="47.34914" lon="-0.73558">
        <ele>24</ele>
        <time>2010-08-13T09:52:21Z</time>
      </trkpt>
      <trkpt lat="47.34942" lon="-0.73593">
        <ele>19</ele>
        <time>2010-08-13T09:52:26Z</time>
      </trkpt>
      <trkpt lat="47.34954" lon="-0.73632">
        <ele>18</ele>
        <time>2010-08-13T09:52:31Z</time>
      </trkpt>
      <trkpt lat="47.34944" lon="-0.7369">
        <ele>22</ele>
        <time>2010-08-13T09:52:36Z</time>
      </trkpt>
      <trkpt lat="47.34941" lon="-0.73747">
        <ele>23</ele>
        <time>2010-08-13T09:52:41Z</time>
      </trkpt>
      <trkpt lat="47.3496" lon="-0.73799">
        <ele>25</ele>
        <time>2010-08-13T09:52:46Z</time>
      </trkpt>
      <trkpt lat="47.34979" lon="-0.73847">
        <ele>26</ele>
        <time>2010-08-13T09:52:51Z</time>
      </trkpt>
      <trkpt lat="47.34993" lon="-0.73897">
        <ele>25</ele>
        <time>2010-08-13T09:52:56Z</time>
      </trkpt>
      <trkpt lat="47.35007" lon="-0.73947">
        <ele>21</ele>
        <time>2010-08-13T09:53:01Z</time>
      </trkpt>
      <trkpt lat="47.35024" lon="-0.74005">
        <ele>26</ele>
        <time>2010-08-13T09:53:06Z</time>
      </trkpt>
      <trkpt lat="47.35034" lon="-0.74055">
        <ele>26</ele>
        <time>2010-08-13T09:53:11Z</time>
      </trkpt>
      <trkpt lat="47.3504" lon="-0.74095">
        <ele>29</ele>
        <time>2010-08-13T09:53:16Z</time>
      </trkpt>
      <trkpt lat="47.35045" lon="-0.74147">
        <ele>29</ele>
        <time>2010-08-13T09:53:21Z</time>
      </trkpt>
      <trkpt lat="47.3505" lon="-0.74214">
        <ele>30</ele>
        <time>2010-08-13T09:53:26Z</time>
      </trkpt>
      <trkpt lat="47.35058" lon="-0.7427">
        <ele>29</ele>
        <time>2010-08-13T09:53:31Z</time>
      </trkpt>
      <trkpt lat="47.35066" lon="-0.74322">
        <ele>27</ele>
        <time>2010-08-13T09:53:36Z</time>
      </trkpt>
      <trkpt lat="47.35072" lon="-0.74365">
        <ele>29</ele>
        <time>2010-08-13T09:53:41Z</time>
      </trkpt>
      <trkpt lat="47.35079" lon="-0.74419">
        <ele>26</ele>
        <time>2010-08-13T09:53:46Z</time>
      </trkpt>
      <trkpt lat="47.35072" lon="-0.74485">
        <ele>28</ele>
        <time>2010-08-13T09:53:51Z</time>
      </trkpt>
      <trkpt lat="47.35069" lon="-0.7454">
        <ele>27</ele>
        <time>2010-08-13T09:53:56Z</time>
      </trkpt>
      <trkpt lat="47.35066" lon="-0.74584">
        <ele>23</ele>
        <time>2010-08-13T09:54:01Z</time>
      </trkpt>
      <trkpt lat="47.35062" lon="-0.74638">
        <ele>24</ele>
        <time>2010-08-13T09:54:06Z</time>
      </trkpt>
      <trkpt lat="47.35057" lon="-0.74692">
        <ele>22</ele>
        <time>2010-08-13T09:54:11Z</time>
      </trkpt>
      <trkpt lat="47.35052" lon="-0.74757">
        <ele>20</ele>
        <time>2010-08-13T09:54:16Z</time>
      </trkpt>
      <trkpt lat="47.35048" lon="-0.74812">
        <ele>19</ele>
        <time>2010-08-13T09:54:21Z</time>
      </trkpt>
      <trkpt lat="47.35044" lon="-0.74855">
        <ele>17</ele>
        <time>2010-08-13T09:54:26Z</time>
      </trkpt>
      <trkpt lat="47.3503" lon="-0.74905">
        <ele>16</ele>
        <time>2010-08-13T09:54:31Z</time>
      </trkpt>
      <trkpt lat="47.3501" lon="-0.74966">
        <ele>15</ele>
        <time>2010-08-13T09:54:36Z</time>
      </trkpt>
      <trkpt lat="47.35" lon="-0.75018">
        <ele>13</ele>
        <time>2010-08-13T09:54:41Z</time>
      </trkpt>
      <trkpt lat="47.34995" lon="-0.7506">
        <ele>12</ele>
        <time>2010-08-13T09:54:46Z</time>
      </trkpt>
      <trkpt lat="47.34994" lon="-0.75113">
        <ele>11</ele>
        <time>2010-08-13T09:54:51Z</time>
      </trkpt>
      <trkpt lat="47.35" lon="-0.75165">
        <ele>13</ele>
        <time>2010-08-13T09:54:56Z</time>
      </trkpt>
      <trkpt lat="47.35008" lon="-0.75227">
        <ele>14</ele>
        <time>2010-08-13T09:55:01Z</time>
      </trkpt>
      <trkpt lat="47.35014" lon="-0.75279">
        <ele>15</ele>
        <time>2010-08-13T09:55:06Z</time>
      </trkpt>
      <trkpt lat="47.35019" lon="-0.75321">
        <ele>15</ele>
        <time>2010-08-13T09:55:11Z</time>
      </trkpt>
      <trkpt lat="47.35025" lon="-0.75372">
        <ele>15</ele>
        <time>2010-08-13T09:55:16Z</time>
      </trkpt>
      <trkpt lat="47.35032" lon="-0.75421">
        <ele>17</ele>
        <time>2010-08-13T09:55:21Z</time>
      </trkpt>
      <trkpt lat="47.35039" lon="-0.75481">
        <ele>18</ele>
        <time>2010-08-13T09:55:26Z</time>
      </trkpt>
      <trkpt lat="47.35045" lon="-0.75535">
        <ele>18</ele>
        <time>2010-08-13T09:55:31Z</time>
      </trkpt>
      <trkpt lat="47.35051" lon="-0.75581">
        <ele>18</ele>
        <time>2010-08-13T09:55:36Z</time>
      </trkpt>
      <trkpt lat="47.35052" lon="-0.75634">
        <ele>19</ele>
        <time>2010-08-13T09:55:41Z</time>
      </trkpt>
      <trkpt lat="47.35018" lon="-0.75664">
        <ele>19</ele>
        <time>2010-08-13T09:55:46Z</time>
      </trkpt>
      <trkpt lat="47.34988" lon="-0.75695">
        <ele>19</ele>
        <time>2010-08-13T09:55:51Z</time>
      </trkpt>
      <trkpt lat="47.34965" lon="-0.75721">
        <ele>19</ele>
        <time>2010-08-13T09:55:56Z</time>
      </trkpt>
      <trkpt lat="47.34939" lon="-0.75758">
        <ele>19</ele>
        <time>2010-08-13T09:56:01Z</time>
      </trkpt>
      <trkpt lat="47.34905" lon="-0.75799">
        <ele>18</ele>
        <time>2010-08-13T09:56:06Z</time>
      </trkpt>
      <trkpt lat="47.34874" lon="-0.75831">
        <ele>17</ele>
        <time>2010-08-13T09:56:11Z</time>
      </trkpt>
      <trkpt lat="47.34842" lon="-0.75854">
        <ele>18</ele>
        <time>2010-08-13T09:56:16Z</time>
      </trkpt>
      <trkpt lat="47.34813" lon="-0.75864">
        <ele>17</ele>
        <time>2010-08-13T09:56:21Z</time>
      </trkpt>
      <trkpt lat="47.34774" lon="-0.7587">
        <ele>17</ele>
        <time>2010-08-13T09:56:26Z</time>
      </trkpt>
      <trkpt lat="47.34742" lon="-0.75898">
        <ele>17</ele>
        <time>2010-08-13T09:56:31Z</time>
      </trkpt>
      <trkpt lat="47.34707" lon="-0.75936">
        <ele>18</ele>
        <time>2010-08-13T09:56:36Z</time>
      </trkpt>
      <trkpt lat="47.34683" lon="-0.75961">
        <ele>18</ele>
        <time>2010-08-13T09:56:41Z</time>
      </trkpt>
      <trkpt lat="47.34655" lon="-0.75991">
        <ele>20</ele>
        <time>2010-08-13T09:56:46Z</time>
      </trkpt>
      <trkpt lat="47.34625" lon="-0.76019">
        <ele>19</ele>
        <time>2010-08-13T09:56:51Z</time>
      </trkpt>
      <trkpt lat="47.34588" lon="-0.76048">
        <ele>20</ele>
        <time>2010-08-13T09:56:56Z</time>
      </trkpt>
      <trkpt lat="47.34559" lon="-0.76072">
        <ele>21</ele>
        <time>2010-08-13T09:57:01Z</time>
      </trkpt>
      <trkpt lat="47.34559" lon="-0.76118">
        <ele>17</ele>
        <time>2010-08-13T09:57:06Z</time>
      </trkpt>
      <trkpt lat="47.34597" lon="-0.76141">
        <ele>16</ele>
        <time>2010-08-13T09:57:11Z</time>
      </trkpt>
      <trkpt lat="47.34643" lon="-0.76157">
        <ele>17</ele>
        <time>2010-08-13T09:57:16Z</time>
      </trkpt>
      <trkpt lat="47.34678" lon="-0.76166">
        <ele>17</ele>
        <time>2010-08-13T09:57:21Z</time>
      </trkpt>
      <trkpt lat="47.34706" lon="-0.76174">
        <ele>18</ele>
        <time>2010-08-13T09:57:26Z</time>
      </trkpt>
      <trkpt lat="47.34739" lon="-0.76181">
        <ele>18</ele>
        <time>2010-08-13T09:57:31Z</time>
      </trkpt>
      <trkpt lat="47.34772" lon="-0.76189">
        <ele>20</ele>
        <time>2010-08-13T09:57:36Z</time>
      </trkpt>
      <trkpt lat="47.34808" lon="-0.76198">
        <ele>21</ele>
        <time>2010-08-13T09:57:41Z</time>
      </trkpt>
      <trkpt lat="47.34834" lon="-0.76205">
        <ele>23</ele>
        <time>2010-08-13T09:57:46Z</time>
      </trkpt>
      <trkpt lat="47.34855" lon="-0.7621">
        <ele>23</ele>
        <time>2010-08-13T09:57:51Z</time>
      </trkpt>
      <trkpt lat="47.34881" lon="-0.76218">
        <ele>23</ele>
        <time>2010-08-13T09:57:56Z</time>
      </trkpt>
      <trkpt lat="47.34906" lon="-0.76227">
        <ele>24</ele>
        <time>2010-08-13T09:58:01Z</time>
      </trkpt>
      <trkpt lat="47.34938" lon="-0.76234">
        <ele>24</ele>
        <time>2010-08-13T09:58:06Z</time>
      </trkpt>
      <trkpt lat="47.34958" lon="-0.76242">
        <ele>25</ele>
        <time>2010-08-13T09:58:11Z</time>
      </trkpt>
      <trkpt lat="47.34985" lon="-0.76249">
        <ele>25</ele>
        <time>2010-08-13T09:58:16Z</time>
      </trkpt>
      <trkpt lat="47.35013" lon="-0.76255">
        <ele>26</ele>
        <time>2010-08-13T09:58:21Z</time>
      </trkpt>
      <trkpt lat="47.3505" lon="-0.76269">
        <ele>27</ele>
        <time>2010-08-13T09:58:26Z</time>
      </trkpt>
      <trkpt lat="47.35083" lon="-0.76279">
        <ele>26</ele>
        <time>2010-08-13T09:58:31Z</time>
      </trkpt>
      <trkpt lat="47.35108" lon="-0.76298">
        <ele>26</ele>
        <time>2010-08-13T09:58:36Z</time>
      </trkpt>
      <trkpt lat="47.35134" lon="-0.76329">
        <ele>25</ele>
        <time>2010-08-13T09:58:41Z</time>
      </trkpt>
      <trkpt lat="47.35154" lon="-0.76367">
        <ele>27</ele>
        <time>2010-08-13T09:58:46Z</time>
      </trkpt>
      <trkpt lat="47.35158" lon="-0.76371">
        <ele>27</ele>
        <time>2010-08-13T09:58:51Z</time>
      </trkpt>
      <trkpt lat="47.35159" lon="-0.76372">
        <ele>27</ele>
        <time>2010-08-13T09:58:56Z</time>
      </trkpt>
      <trkpt lat="47.3516" lon="-0.76386">
        <ele>27</ele>
        <time>2010-08-13T09:59:01Z</time>
      </trkpt>
      <trkpt lat="47.35155" lon="-0.76418">
        <ele>29</ele>
        <time>2010-08-13T09:59:06Z</time>
      </trkpt>
      <trkpt lat="47.35151" lon="-0.7646">
        <ele>30</ele>
        <time>2010-08-13T09:59:11Z</time>
      </trkpt>
      <trkpt lat="47.35151" lon="-0.76496">
        <ele>31</ele>
        <time>2010-08-13T09:59:16Z</time>
      </trkpt>
      <trkpt lat="47.35152" lon="-0.76524">
        <ele>32</ele>
        <time>2010-08-13T09:59:21Z</time>
      </trkpt>
      <trkpt lat="47.35153" lon="-0.76559">
        <ele>32</ele>
        <time>2010-08-13T09:59:26Z</time>
      </trkpt>
      <trkpt lat="47.35155" lon="-0.76596">
        <ele>33</ele>
        <time>2010-08-13T09:59:31Z</time>
      </trkpt>
      <trkpt lat="47.35156" lon="-0.76638">
        <ele>35</ele>
        <time>2010-08-13T09:59:36Z</time>
      </trkpt>
      <trkpt lat="47.35157" lon="-0.76673">
        <ele>37</ele>
        <time>2010-08-13T09:59:41Z</time>
      </trkpt>
      <trkpt lat="47.35157" lon="-0.76704">
        <ele>38</ele>
        <time>2010-08-13T09:59:46Z</time>
      </trkpt>
      <trkpt lat="47.35159" lon="-0.76739">
        <ele>38</ele>
        <time>2010-08-13T09:59:51Z</time>
      </trkpt>
      <trkpt lat="47.35161" lon="-0.76781">
        <ele>41</ele>
        <time>2010-08-13T09:59:56Z</time>
      </trkpt>
      <trkpt lat="47.35162" lon="-0.76815">
        <ele>41</ele>
        <time>2010-08-13T10:00:01Z</time>
      </trkpt>
      <trkpt lat="47.35164" lon="-0.76842">
        <ele>42</ele>
        <time>2010-08-13T10:00:06Z</time>
      </trkpt>
      <trkpt lat="47.35166" lon="-0.76874">
        <ele>45</ele>
        <time>2010-08-13T10:00:11Z</time>
      </trkpt>
      <trkpt lat="47.35168" lon="-0.76908">
        <ele>43</ele>
        <time>2010-08-13T10:00:16Z</time>
      </trkpt>
      <trkpt lat="47.35169" lon="-0.76949">
        <ele>43</ele>
        <time>2010-08-13T10:00:21Z</time>
      </trkpt>
      <trkpt lat="47.35167" lon="-0.76976">
        <ele>43</ele>
        <time>2010-08-13T10:00:26Z</time>
      </trkpt>
      <trkpt lat="47.35161" lon="-0.77009">
        <ele>44</ele>
        <time>2010-08-13T10:00:31Z</time>
      </trkpt>
      <trkpt lat="47.3515" lon="-0.77039">
        <ele>44</ele>
        <time>2010-08-13T10:00:36Z</time>
      </trkpt>
      <trkpt lat="47.35131" lon="-0.77068">
        <ele>44</ele>
        <time>2010-08-13T10:00:41Z</time>
      </trkpt>
      <trkpt lat="47.35112" lon="-0.77089">
        <ele>44</ele>
        <time>2010-08-13T10:00:46Z</time>
      </trkpt>
      <trkpt lat="47.35097" lon="-0.77106">
        <ele>45</ele>
        <time>2010-08-13T10:00:51Z</time>
      </trkpt>
      <trkpt lat="47.35079" lon="-0.77128">
        <ele>50</ele>
        <time>2010-08-13T10:00:56Z</time>
      </trkpt>
      <trkpt lat="47.35062" lon="-0.7715">
        <ele>50</ele>
        <time>2010-08-13T10:01:01Z</time>
      </trkpt>
      <trkpt lat="47.35042" lon="-0.77177">
        <ele>50</ele>
        <time>2010-08-13T10:01:06Z</time>
      </trkpt>
      <trkpt lat="47.35028" lon="-0.77203">
        <ele>51</ele>
        <time>2010-08-13T10:01:11Z</time>
      </trkpt>
      <trkpt lat="47.35021" lon="-0.77229">
        <ele>51</ele>
        <time>2010-08-13T10:01:16Z</time>
      </trkpt>
      <trkpt lat="47.35018" lon="-0.77265">
        <ele>51</ele>
        <time>2010-08-13T10:01:21Z</time>
      </trkpt>
      <trkpt lat="47.35007" lon="-0.77294">
        <ele>51</ele>
        <time>2010-08-13T10:01:26Z</time>
      </trkpt>
      <trkpt lat="47.34988" lon="-0.77322">
        <ele>56</ele>
        <time>2010-08-13T10:01:31Z</time>
      </trkpt>
      <trkpt lat="47.34978" lon="-0.77343">
        <ele>58</ele>
        <time>2010-08-13T10:01:36Z</time>
      </trkpt>
      <trkpt lat="47.34967" lon="-0.77373">
        <ele>59</ele>
        <time>2010-08-13T10:01:41Z</time>
      </trkpt>
      <trkpt lat="47.3496" lon="-0.77406">
        <ele>59</ele>
        <time>2010-08-13T10:01:46Z</time>
      </trkpt>
      <trkpt lat="47.34953" lon="-0.77445">
        <ele>61</ele>
        <time>2010-08-13T10:01:51Z</time>
      </trkpt>
      <trkpt lat="47.34948" lon="-0.77476">
        <ele>61</ele>
        <time>2010-08-13T10:01:56Z</time>
      </trkpt>
      <trkpt lat="47.34942" lon="-0.775">
        <ele>62</ele>
        <time>2010-08-13T10:02:01Z</time>
      </trkpt>
      <trkpt lat="47.34935" lon="-0.77531">
        <ele>62</ele>
        <time>2010-08-13T10:02:06Z</time>
      </trkpt>
      <trkpt lat="47.34926" lon="-0.77562">
        <ele>62</ele>
        <time>2010-08-13T10:02:11Z</time>
      </trkpt>
      <trkpt lat="47.34915" lon="-0.77598">
        <ele>66</ele>
        <time>2010-08-13T10:02:16Z</time>
      </trkpt>
      <trkpt lat="47.34905" lon="-0.77627">
        <ele>67</ele>
        <time>2010-08-13T10:02:21Z</time>
      </trkpt>
      <trkpt lat="47.34894" lon="-0.77647">
        <ele>67</ele>
        <time>2010-08-13T10:02:26Z</time>
      </trkpt>
      <trkpt lat="47.34878" lon="-0.77667">
        <ele>67</ele>
        <time>2010-08-13T10:02:31Z</time>
      </trkpt>
      <trkpt lat="47.34856" lon="-0.77688">
        <ele>68</ele>
        <time>2010-08-13T10:02:36Z</time>
      </trkpt>
      <trkpt lat="47.34836" lon="-0.77704">
        <ele>68</ele>
        <time>2010-08-13T10:02:41Z</time>
      </trkpt>
      <trkpt lat="47.34819" lon="-0.77713">
        <ele>72</ele>
        <time>2010-08-13T10:02:46Z</time>
      </trkpt>
      <trkpt lat="47.34798" lon="-0.77721">
        <ele>73</ele>
        <time>2010-08-13T10:02:51Z</time>
      </trkpt>
      <trkpt lat="47.34776" lon="-0.77725">
        <ele>74</ele>
        <time>2010-08-13T10:02:56Z</time>
      </trkpt>
      <trkpt lat="47.34749" lon="-0.7773">
        <ele>77</ele>
        <time>2010-08-13T10:03:01Z</time>
      </trkpt>
      <trkpt lat="47.34727" lon="-0.77736">
        <ele>77</ele>
        <time>2010-08-13T10:03:06Z</time>
      </trkpt>
      <trkpt lat="47.34709" lon="-0.7774">
        <ele>78</ele>
        <time>2010-08-13T10:03:11Z</time>
      </trkpt>
      <trkpt lat="47.34687" lon="-0.77748">
        <ele>78</ele>
        <time>2010-08-13T10:03:16Z</time>
      </trkpt>
      <trkpt lat="47.34659" lon="-0.77758">
        <ele>79</ele>
        <time>2010-08-13T10:03:21Z</time>
      </trkpt>
      <trkpt lat="47.34637" lon="-0.77769">
        <ele>80</ele>
        <time>2010-08-13T10:03:26Z</time>
      </trkpt>
      <trkpt lat="47.3462" lon="-0.7778">
        <ele>80</ele>
        <time>2010-08-13T10:03:31Z</time>
      </trkpt>
      <trkpt lat="47.34598" lon="-0.77793">
        <ele>80</ele>
        <time>2010-08-13T10:03:36Z</time>
      </trkpt>
      <trkpt lat="47.34576" lon="-0.7781">
        <ele>80</ele>
        <time>2010-08-13T10:03:41Z</time>
      </trkpt>
      <trkpt lat="47.34551" lon="-0.77836">
        <ele>81</ele>
        <time>2010-08-13T10:03:46Z</time>
      </trkpt>
      <trkpt lat="47.34531" lon="-0.7786">
        <ele>81</ele>
        <time>2010-08-13T10:03:51Z</time>
      </trkpt>
      <trkpt lat="47.34514" lon="-0.7788">
        <ele>82</ele>
        <time>2010-08-13T10:03:56Z</time>
      </trkpt>
      <trkpt lat="47.34491" lon="-0.77902">
        <ele>82</ele>
        <time>2010-08-13T10:04:01Z</time>
      </trkpt>
      <trkpt lat="47.34469" lon="-0.77925">
        <ele>83</ele>
        <time>2010-08-13T10:04:06Z</time>
      </trkpt>
      <trkpt lat="47.34441" lon="-0.77953">
        <ele>83</ele>
        <time>2010-08-13T10:04:11Z</time>
      </trkpt>
      <trkpt lat="47.34424" lon="-0.77973">
        <ele>84</ele>
        <time>2010-08-13T10:04:16Z</time>
      </trkpt>
      <trkpt lat="47.34402" lon="-0.77999">
        <ele>84</ele>
        <time>2010-08-13T10:04:21Z</time>
      </trkpt>
      <trkpt lat="47.3438" lon="-0.78027">
        <ele>85</ele>
        <time>2010-08-13T10:04:26Z</time>
      </trkpt>
      <trkpt lat="47.34354" lon="-0.78063">
        <ele>85</ele>
        <time>2010-08-13T10:04:31Z</time>
      </trkpt>
      <trkpt lat="47.34328" lon="-0.78092">
        <ele>84</ele>
        <time>2010-08-13T10:04:36Z</time>
      </trkpt>
      <trkpt lat="47.34308" lon="-0.78119">
        <ele>84</ele>
        <time>2010-08-13T10:04:41Z</time>
      </trkpt>
      <trkpt lat="47.34281" lon="-0.78156">
        <ele>83</ele>
        <time>2010-08-13T10:04:46Z</time>
      </trkpt>
      <trkpt lat="47.34253" lon="-0.78192">
        <ele>83</ele>
        <time>2010-08-13T10:04:51Z</time>
      </trkpt>
      <trkpt lat="47.34217" lon="-0.78239">
        <ele>80</ele>
        <time>2010-08-13T10:04:56Z</time>
      </trkpt>
      <trkpt lat="47.34186" lon="-0.78274">
        <ele>78</ele>
        <time>2010-08-13T10:05:01Z</time>
      </trkpt>
      <trkpt lat="47.34163" lon="-0.78305">
        <ele>77</ele>
        <time>2010-08-13T10:05:06Z</time>
      </trkpt>
      <trkpt lat="47.34132" lon="-0.78342">
        <ele>78</ele>
        <time>2010-08-13T10:05:11Z</time>
      </trkpt>
      <trkpt lat="47.34094" lon="-0.78389">
        <ele>78</ele>
        <time>2010-08-13T10:05:16Z</time>
      </trkpt>
      <trkpt lat="47.34063" lon="-0.7843">
        <ele>77</ele>
        <time>2010-08-13T10:05:21Z</time>
      </trkpt>
      <trkpt lat="47.34038" lon="-0.78461">
        <ele>76</ele>
        <time>2010-08-13T10:05:26Z</time>
      </trkpt>
      <trkpt lat="47.34009" lon="-0.78497">
        <ele>76</ele>
        <time>2010-08-13T10:05:31Z</time>
      </trkpt>
      <trkpt lat="47.33981" lon="-0.78529">
        <ele>76</ele>
        <time>2010-08-13T10:05:36Z</time>
      </trkpt>
      <trkpt lat="47.33947" lon="-0.78563">
        <ele>77</ele>
        <time>2010-08-13T10:05:41Z</time>
      </trkpt>
      <trkpt lat="47.3392" lon="-0.78593">
        <ele>79</ele>
        <time>2010-08-13T10:05:46Z</time>
      </trkpt>
      <trkpt lat="47.339" lon="-0.78619">
        <ele>80</ele>
        <time>2010-08-13T10:05:51Z</time>
      </trkpt>
      <trkpt lat="47.33874" lon="-0.7865">
        <ele>81</ele>
        <time>2010-08-13T10:05:56Z</time>
      </trkpt>
      <trkpt lat="47.33842" lon="-0.78684">
        <ele>82</ele>
        <time>2010-08-13T10:06:01Z</time>
      </trkpt>
      <trkpt lat="47.33816" lon="-0.78715">
        <ele>83</ele>
        <time>2010-08-13T10:06:06Z</time>
      </trkpt>
      <trkpt lat="47.33796" lon="-0.78741">
        <ele>83</ele>
        <time>2010-08-13T10:06:11Z</time>
      </trkpt>
      <trkpt lat="47.33771" lon="-0.78774">
        <ele>84</ele>
        <time>2010-08-13T10:06:16Z</time>
      </trkpt>
      <trkpt lat="47.33745" lon="-0.78807">
        <ele>85</ele>
        <time>2010-08-13T10:06:21Z</time>
      </trkpt>
      <trkpt lat="47.33713" lon="-0.78847">
        <ele>86</ele>
        <time>2010-08-13T10:06:26Z</time>
      </trkpt>
      <trkpt lat="47.33687" lon="-0.78877">
        <ele>86</ele>
        <time>2010-08-13T10:06:31Z</time>
      </trkpt>
      <trkpt lat="47.33665" lon="-0.78903">
        <ele>85</ele>
        <time>2010-08-13T10:06:36Z</time>
      </trkpt>
      <trkpt lat="47.3364" lon="-0.7894">
        <ele>86</ele>
        <time>2010-08-13T10:06:41Z</time>
      </trkpt>
      <trkpt lat="47.33606" lon="-0.78972">
        <ele>86</ele>
        <time>2010-08-13T10:06:46Z</time>
      </trkpt>
      <trkpt lat="47.3358" lon="-0.79006">
        <ele>85</ele>
        <time>2010-08-13T10:06:51Z</time>
      </trkpt>
      <trkpt lat="47.33558" lon="-0.79032">
        <ele>83</ele>
        <time>2010-08-13T10:06:56Z</time>
      </trkpt>
      <trkpt lat="47.33529" lon="-0.79067">
        <ele>83</ele>
        <time>2010-08-13T10:07:01Z</time>
      </trkpt>
      <trkpt lat="47.33499" lon="-0.79101">
        <ele>81</ele>
        <time>2010-08-13T10:07:06Z</time>
      </trkpt>
      <trkpt lat="47.33462" lon="-0.79146">
        <ele>80</ele>
        <time>2010-08-13T10:07:11Z</time>
      </trkpt>
      <trkpt lat="47.33428" lon="-0.79185">
        <ele>79</ele>
        <time>2010-08-13T10:07:16Z</time>
      </trkpt>
      <trkpt lat="47.33398" lon="-0.79215">
        <ele>76</ele>
        <time>2010-08-13T10:07:21Z</time>
      </trkpt>
      <trkpt lat="47.33361" lon="-0.79255">
        <ele>77</ele>
        <time>2010-08-13T10:07:26Z</time>
      </trkpt>
      <trkpt lat="47.33326" lon="-0.79303">
        <ele>77</ele>
        <time>2010-08-13T10:07:31Z</time>
      </trkpt>
      <trkpt lat="47.33283" lon="-0.79355">
        <ele>78</ele>
        <time>2010-08-13T10:07:36Z</time>
      </trkpt>
      <trkpt lat="47.33256" lon="-0.79392">
        <ele>79</ele>
        <time>2010-08-13T10:07:41Z</time>
      </trkpt>
      <trkpt lat="47.3322" lon="-0.79436">
        <ele>76</ele>
        <time>2010-08-13T10:07:46Z</time>
      </trkpt>
      <trkpt lat="47.33184" lon="-0.79479">
        <ele>74</ele>
        <time>2010-08-13T10:07:51Z</time>
      </trkpt>
      <trkpt lat="47.3314" lon="-0.79532">
        <ele>70</ele>
        <time>2010-08-13T10:07:56Z</time>
      </trkpt>
      <trkpt lat="47.33103" lon="-0.79575">
        <ele>71</ele>
        <time>2010-08-13T10:08:01Z</time>
      </trkpt>
      <trkpt lat="47.33075" lon="-0.79609">
        <ele>72</ele>
        <time>2010-08-13T10:08:06Z</time>
      </trkpt>
      <trkpt lat="47.3304" lon="-0.79648">
        <ele>71</ele>
        <time>2010-08-13T10:08:11Z</time>
      </trkpt>
      <trkpt lat="47.33006" lon="-0.79686">
        <ele>71</ele>
        <time>2010-08-13T10:08:16Z</time>
      </trkpt>
      <trkpt lat="47.32965" lon="-0.7973">
        <ele>71</ele>
        <time>2010-08-13T10:08:21Z</time>
      </trkpt>
      <trkpt lat="47.32935" lon="-0.79772">
        <ele>72</ele>
        <time>2010-08-13T10:08:26Z</time>
      </trkpt>
      <trkpt lat="47.32909" lon="-0.79803">
        <ele>67</ele>
        <time>2010-08-13T10:08:31Z</time>
      </trkpt>
      <trkpt lat="47.32878" lon="-0.79841">
        <ele>68</ele>
        <time>2010-08-13T10:08:36Z</time>
      </trkpt>
      <trkpt lat="47.32841" lon="-0.79885">
        <ele>68</ele>
        <time>2010-08-13T10:08:41Z</time>
      </trkpt>
      <trkpt lat="47.32818" lon="-0.79912">
        <ele>67</ele>
        <time>2010-08-13T10:08:46Z</time>
      </trkpt>
      <trkpt lat="47.3279" lon="-0.79944">
        <ele>71</ele>
        <time>2010-08-13T10:08:51Z</time>
      </trkpt>
      <trkpt lat="47.32762" lon="-0.79973">
        <ele>72</ele>
        <time>2010-08-13T10:08:56Z</time>
      </trkpt>
      <trkpt lat="47.32735" lon="-0.80005">
        <ele>74</ele>
        <time>2010-08-13T10:09:01Z</time>
      </trkpt>
      <trkpt lat="47.327" lon="-0.80041">
        <ele>73</ele>
        <time>2010-08-13T10:09:06Z</time>
      </trkpt>
      <trkpt lat="47.3267" lon="-0.8007">
        <ele>73</ele>
        <time>2010-08-13T10:09:11Z</time>
      </trkpt>
      <trkpt lat="47.32646" lon="-0.80094">
        <ele>73</ele>
        <time>2010-08-13T10:09:16Z</time>
      </trkpt>
      <trkpt lat="47.32615" lon="-0.80124">
        <ele>73</ele>
        <time>2010-08-13T10:09:21Z</time>
      </trkpt>
      <trkpt lat="47.32579" lon="-0.80169">
        <ele>72</ele>
        <time>2010-08-13T10:09:26Z</time>
      </trkpt>
      <trkpt lat="47.32551" lon="-0.80205">
        <ele>73</ele>
        <time>2010-08-13T10:09:31Z</time>
      </trkpt>
      <trkpt lat="47.32529" lon="-0.80234">
        <ele>73</ele>
        <time>2010-08-13T10:09:36Z</time>
      </trkpt>
      <trkpt lat="47.32505" lon="-0.8027">
        <ele>74</ele>
        <time>2010-08-13T10:09:41Z</time>
      </trkpt>
      <trkpt lat="47.32479" lon="-0.80313">
        <ele>75</ele>
        <time>2010-08-13T10:09:46Z</time>
      </trkpt>
      <trkpt lat="47.32459" lon="-0.80348">
        <ele>76</ele>
        <time>2010-08-13T10:09:51Z</time>
      </trkpt>
      <trkpt lat="47.32442" lon="-0.80387">
        <ele>77</ele>
        <time>2010-08-13T10:09:56Z</time>
      </trkpt>
      <trkpt lat="47.32427" lon="-0.80412">
        <ele>76</ele>
        <time>2010-08-13T10:10:01Z</time>
      </trkpt>
      <trkpt lat="47.32407" lon="-0.80443">
        <ele>77</ele>
        <time>2010-08-13T10:10:06Z</time>
      </trkpt>
      <trkpt lat="47.32386" lon="-0.80475">
        <ele>77</ele>
        <time>2010-08-13T10:10:11Z</time>
      </trkpt>
      <trkpt lat="47.3236" lon="-0.8051">
        <ele>79</ele>
        <time>2010-08-13T10:10:16Z</time>
      </trkpt>
      <trkpt lat="47.32342" lon="-0.80532">
        <ele>79</ele>
        <time>2010-08-13T10:10:21Z</time>
      </trkpt>
      <trkpt lat="47.32319" lon="-0.80562">
        <ele>79</ele>
        <time>2010-08-13T10:10:26Z</time>
      </trkpt>
      <trkpt lat="47.32295" lon="-0.80592">
        <ele>79</ele>
        <time>2010-08-13T10:10:31Z</time>
      </trkpt>
      <trkpt lat="47.32264" lon="-0.80626">
        <ele>79</ele>
        <time>2010-08-13T10:10:36Z</time>
      </trkpt>
      <trkpt lat="47.32238" lon="-0.80653">
        <ele>79</ele>
        <time>2010-08-13T10:10:41Z</time>
      </trkpt>
      <trkpt lat="47.32218" lon="-0.80676">
        <ele>80</ele>
        <time>2010-08-13T10:10:46Z</time>
      </trkpt>
      <trkpt lat="47.32192" lon="-0.80706">
        <ele>81</ele>
        <time>2010-08-13T10:10:51Z</time>
      </trkpt>
      <trkpt lat="47.32168" lon="-0.80738">
        <ele>82</ele>
        <time>2010-08-13T10:10:56Z</time>
      </trkpt>
      <trkpt lat="47.32139" lon="-0.8078">
        <ele>84</ele>
        <time>2010-08-13T10:11:01Z</time>
      </trkpt>
      <trkpt lat="47.3212" lon="-0.80809">
        <ele>84</ele>
        <time>2010-08-13T10:11:06Z</time>
      </trkpt>
      <trkpt lat="47.32096" lon="-0.80846">
        <ele>86</ele>
        <time>2010-08-13T10:11:11Z</time>
      </trkpt>
      <trkpt lat="47.32074" lon="-0.80884">
        <ele>87</ele>
        <time>2010-08-13T10:11:16Z</time>
      </trkpt>
      <trkpt lat="47.32048" lon="-0.8093">
        <ele>87</ele>
        <time>2010-08-13T10:11:21Z</time>
      </trkpt>
      <trkpt lat="47.32028" lon="-0.8097">
        <ele>88</ele>
        <time>2010-08-13T10:11:26Z</time>
      </trkpt>
      <trkpt lat="47.32012" lon="-0.81003">
        <ele>89</ele>
        <time>2010-08-13T10:11:31Z</time>
      </trkpt>
      <trkpt lat="47.31994" lon="-0.81045">
        <ele>89</ele>
        <time>2010-08-13T10:11:36Z</time>
      </trkpt>
      <trkpt lat="47.31976" lon="-0.81089">
        <ele>90</ele>
        <time>2010-08-13T10:11:41Z</time>
      </trkpt>
      <trkpt lat="47.31961" lon="-0.81121">
        <ele>91</ele>
        <time>2010-08-13T10:11:46Z</time>
      </trkpt>
      <trkpt lat="47.31947" lon="-0.81153">
        <ele>91</ele>
        <time>2010-08-13T10:11:51Z</time>
      </trkpt>
      <trkpt lat="47.31937" lon="-0.81178">
        <ele>92</ele>
        <time>2010-08-13T10:11:56Z</time>
      </trkpt>
      <trkpt lat="47.31924" lon="-0.81209">
        <ele>92</ele>
        <time>2010-08-13T10:12:01Z</time>
      </trkpt>
      <trkpt lat="47.31908" lon="-0.81246">
        <ele>92</ele>
        <time>2010-08-13T10:12:06Z</time>
      </trkpt>
      <trkpt lat="47.31896" lon="-0.81276">
        <ele>94</ele>
        <time>2010-08-13T10:12:11Z</time>
      </trkpt>
      <trkpt lat="47.31886" lon="-0.81301">
        <ele>94</ele>
        <time>2010-08-13T10:12:16Z</time>
      </trkpt>
      <trkpt lat="47.31873" lon="-0.81331">
        <ele>95</ele>
        <time>2010-08-13T10:12:21Z</time>
      </trkpt>
      <trkpt lat="47.31857" lon="-0.81369">
        <ele>95</ele>
        <time>2010-08-13T10:12:26Z</time>
      </trkpt>
      <trkpt lat="47.31844" lon="-0.81402">
        <ele>95</ele>
        <time>2010-08-13T10:12:31Z</time>
      </trkpt>
      <trkpt lat="47.3183" lon="-0.81437">
        <ele>95</ele>
        <time>2010-08-13T10:12:36Z</time>
      </trkpt>
      <trkpt lat="47.31817" lon="-0.81465">
        <ele>94</ele>
        <time>2010-08-13T10:12:41Z</time>
      </trkpt>
      <trkpt lat="47.318" lon="-0.81501">
        <ele>94</ele>
        <time>2010-08-13T10:12:46Z</time>
      </trkpt>
      <trkpt lat="47.31775" lon="-0.81543">
        <ele>93</ele>
        <time>2010-08-13T10:12:51Z</time>
      </trkpt>
      <trkpt lat="47.31753" lon="-0.81577">
        <ele>93</ele>
        <time>2010-08-13T10:12:56Z</time>
      </trkpt>
      <trkpt lat="47.31733" lon="-0.81606">
        <ele>92</ele>
        <time>2010-08-13T10:13:01Z</time>
      </trkpt>
      <trkpt lat="47.31706" lon="-0.81636">
        <ele>92</ele>
        <time>2010-08-13T10:13:06Z</time>
      </trkpt>
      <trkpt lat="47.31678" lon="-0.81666">
        <ele>91</ele>
        <time>2010-08-13T10:13:11Z</time>
      </trkpt>
      <trkpt lat="47.3164" lon="-0.81696">
        <ele>90</ele>
        <time>2010-08-13T10:13:16Z</time>
      </trkpt>
      <trkpt lat="47.31608" lon="-0.81719">
        <ele>90</ele>
        <time>2010-08-13T10:13:21Z</time>
      </trkpt>
      <trkpt lat="47.31581" lon="-0.81737">
        <ele>89</ele>
        <time>2010-08-13T10:13:26Z</time>
      </trkpt>
      <trkpt lat="47.31546" lon="-0.81753">
        <ele>89</ele>
        <time>2010-08-13T10:13:31Z</time>
      </trkpt>
      <trkpt lat="47.31511" lon="-0.81766">
        <ele>89</ele>
        <time>2010-08-13T10:13:36Z</time>
      </trkpt>
      <trkpt lat="47.31468" lon="-0.81777">
        <ele>90</ele>
        <time>2010-08-13T10:13:41Z</time>
      </trkpt>
      <trkpt lat="47.3144" lon="-0.81783">
        <ele>90</ele>
        <time>2010-08-13T10:13:46Z</time>
      </trkpt>
      <trkpt lat="47.31405" lon="-0.81794">
        <ele>91</ele>
        <time>2010-08-13T10:13:51Z</time>
      </trkpt>
      <trkpt lat="47.31376" lon="-0.81808">
        <ele>91</ele>
        <time>2010-08-13T10:13:56Z</time>
      </trkpt>
      <trkpt lat="47.31353" lon="-0.81847">
        <ele>91</ele>
        <time>2010-08-13T10:14:01Z</time>
      </trkpt>
      <trkpt lat="47.31347" lon="-0.81893">
        <ele>91</ele>
        <time>2010-08-13T10:14:06Z</time>
      </trkpt>
      <trkpt lat="47.31344" lon="-0.81926">
        <ele>92</ele>
        <time>2010-08-13T10:14:11Z</time>
      </trkpt>
      <trkpt lat="47.3134" lon="-0.81964">
        <ele>92</ele>
        <time>2010-08-13T10:14:16Z</time>
      </trkpt>
      <trkpt lat="47.31335" lon="-0.82007">
        <ele>93</ele>
        <time>2010-08-13T10:14:21Z</time>
      </trkpt>
      <trkpt lat="47.31331" lon="-0.82042">
        <ele>94</ele>
        <time>2010-08-13T10:14:26Z</time>
      </trkpt>
      <trkpt lat="47.31328" lon="-0.8207">
        <ele>95</ele>
        <time>2010-08-13T10:14:31Z</time>
      </trkpt>
      <trkpt lat="47.31324" lon="-0.82106">
        <ele>96</ele>
        <time>2010-08-13T10:14:36Z</time>
      </trkpt>
      <trkpt lat="47.3132" lon="-0.82142">
        <ele>96</ele>
        <time>2010-08-13T10:14:41Z</time>
      </trkpt>
      <trkpt lat="47.31315" lon="-0.82186">
        <ele>97</ele>
        <time>2010-08-13T10:14:46Z</time>
      </trkpt>
      <trkpt lat="47.3131" lon="-0.82224">
        <ele>97</ele>
        <time>2010-08-13T10:14:51Z</time>
      </trkpt>
      <trkpt lat="47.31307" lon="-0.82255">
        <ele>98</ele>
        <time>2010-08-13T10:14:56Z</time>
      </trkpt>
      <trkpt lat="47.31302" lon="-0.82295">
        <ele>98</ele>
        <time>2010-08-13T10:15:01Z</time>
      </trkpt>
      <trkpt lat="47.31297" lon="-0.82336">
        <ele>99</ele>
        <time>2010-08-13T10:15:06Z</time>
      </trkpt>
      <trkpt lat="47.31291" lon="-0.82386">
        <ele>99</ele>
        <time>2010-08-13T10:15:11Z</time>
      </trkpt>
      <trkpt lat="47.31286" lon="-0.82429">
        <ele>99</ele>
        <time>2010-08-13T10:15:16Z</time>
      </trkpt>
      <trkpt lat="47.31282" lon="-0.82463">
        <ele>99</ele>
        <time>2010-08-13T10:15:21Z</time>
      </trkpt>
      <trkpt lat="47.31276" lon="-0.82507">
        <ele>99</ele>
        <time>2010-08-13T10:15:26Z</time>
      </trkpt>
      <trkpt lat="47.31271" lon="-0.82551">
        <ele>99</ele>
        <time>2010-08-13T10:15:31Z</time>
      </trkpt>
      <trkpt lat="47.31265" lon="-0.82604">
        <ele>99</ele>
        <time>2010-08-13T10:15:36Z</time>
      </trkpt>
      <trkpt lat="47.31261" lon="-0.82638">
        <ele>99</ele>
        <time>2010-08-13T10:15:41Z</time>
      </trkpt>
      <trkpt lat="47.31256" lon="-0.8268">
        <ele>99</ele>
        <time>2010-08-13T10:15:46Z</time>
      </trkpt>
      <trkpt lat="47.3125" lon="-0.82732">
        <ele>100</ele>
        <time>2010-08-13T10:15:51Z</time>
      </trkpt>
      <trkpt lat="47.31245" lon="-0.82775">
        <ele>100</ele>
        <time>2010-08-13T10:15:56Z</time>
      </trkpt>
      <trkpt lat="47.31239" lon="-0.82819">
        <ele>101</ele>
        <time>2010-08-13T10:16:01Z</time>
      </trkpt>
      <trkpt lat="47.31235" lon="-0.82856">
        <ele>101</ele>
        <time>2010-08-13T10:16:06Z</time>
      </trkpt>
      <trkpt lat="47.31229" lon="-0.82903">
        <ele>101</ele>
        <time>2010-08-13T10:16:11Z</time>
      </trkpt>
      <trkpt lat="47.31222" lon="-0.82959">
        <ele>102</ele>
        <time>2010-08-13T10:16:16Z</time>
      </trkpt>
      <trkpt lat="47.31216" lon="-0.83007">
        <ele>102</ele>
        <time>2010-08-13T10:16:21Z</time>
      </trkpt>
      <trkpt lat="47.31212" lon="-0.83044">
        <ele>102</ele>
        <time>2010-08-13T10:16:26Z</time>
      </trkpt>
      <trkpt lat="47.31206" lon="-0.8309">
        <ele>103</ele>
        <time>2010-08-13T10:16:31Z</time>
      </trkpt>
      <trkpt lat="47.31201" lon="-0.83136">
        <ele>104</ele>
        <time>2010-08-13T10:16:36Z</time>
      </trkpt>
      <trkpt lat="47.31194" lon="-0.83192">
        <ele>105</ele>
        <time>2010-08-13T10:16:41Z</time>
      </trkpt>
      <trkpt lat="47.31189" lon="-0.83236">
        <ele>106</ele>
        <time>2010-08-13T10:16:46Z</time>
      </trkpt>
      <trkpt lat="47.31185" lon="-0.83272">
        <ele>107</ele>
        <time>2010-08-13T10:16:51Z</time>
      </trkpt>
      <trkpt lat="47.3118" lon="-0.83314">
        <ele>107</ele>
        <time>2010-08-13T10:16:56Z</time>
      </trkpt>
      <trkpt lat="47.31175" lon="-0.83355">
        <ele>107</ele>
        <time>2010-08-13T10:17:01Z</time>
      </trkpt>
      <trkpt lat="47.31169" lon="-0.83402">
        <ele>107</ele>
        <time>2010-08-13T10:17:06Z</time>
      </trkpt>
      <trkpt lat="47.31166" lon="-0.83434">
        <ele>108</ele>
        <time>2010-08-13T10:17:11Z</time>
      </trkpt>
      <trkpt lat="47.31161" lon="-0.83474">
        <ele>109</ele>
        <time>2010-08-13T10:17:16Z</time>
      </trkpt>
      <trkpt lat="47.31154" lon="-0.83513">
        <ele>110</ele>
        <time>2010-08-13T10:17:21Z</time>
      </trkpt>
      <trkpt lat="47.31141" lon="-0.83558">
        <ele>110</ele>
        <time>2010-08-13T10:17:26Z</time>
      </trkpt>
      <trkpt lat="47.31138" lon="-0.83601">
        <ele>110</ele>
        <time>2010-08-13T10:17:31Z</time>
      </trkpt>
      <trkpt lat="47.31131" lon="-0.83634">
        <ele>110</ele>
        <time>2010-08-13T10:17:36Z</time>
      </trkpt>
      <trkpt lat="47.31121" lon="-0.83675">
        <ele>110</ele>
        <time>2010-08-13T10:17:41Z</time>
      </trkpt>
      <trkpt lat="47.31109" lon="-0.83725">
        <ele>110</ele>
        <time>2010-08-13T10:17:46Z</time>
      </trkpt>
      <trkpt lat="47.31097" lon="-0.8377">
        <ele>109</ele>
        <time>2010-08-13T10:17:51Z</time>
      </trkpt>
      <trkpt lat="47.31087" lon="-0.83808">
        <ele>109</ele>
        <time>2010-08-13T10:17:56Z</time>
      </trkpt>
      <trkpt lat="47.31075" lon="-0.83856">
        <ele>109</ele>
        <time>2010-08-13T10:18:01Z</time>
      </trkpt>
      <trkpt lat="47.31064" lon="-0.83902">
        <ele>109</ele>
        <time>2010-08-13T10:18:06Z</time>
      </trkpt>
      <trkpt lat="47.31052" lon="-0.83954">
        <ele>109</ele>
        <time>2010-08-13T10:18:11Z</time>
      </trkpt>
      <trkpt lat="47.31042" lon="-0.83991">
        <ele>110</ele>
        <time>2010-08-13T10:18:16Z</time>
      </trkpt>
      <trkpt lat="47.31035" lon="-0.8402">
        <ele>111</ele>
        <time>2010-08-13T10:18:21Z</time>
      </trkpt>
      <trkpt lat="47.31025" lon="-0.84054">
        <ele>112</ele>
        <time>2010-08-13T10:18:26Z</time>
      </trkpt>
      <trkpt lat="47.31015" lon="-0.84096">
        <ele>113</ele>
        <time>2010-08-13T10:18:31Z</time>
      </trkpt>
      <trkpt lat="47.31006" lon="-0.84131">
        <ele>113</ele>
        <time>2010-08-13T10:18:36Z</time>
      </trkpt>
      <trkpt lat="47.30997" lon="-0.84166">
        <ele>114</ele>
        <time>2010-08-13T10:18:41Z</time>
      </trkpt>
      <trkpt lat="47.3099" lon="-0.84196">
        <ele>114</ele>
        <time>2010-08-13T10:18:46Z</time>
      </trkpt>
      <trkpt lat="47.30981" lon="-0.84233">
        <ele>115</ele>
        <time>2010-08-13T10:18:51Z</time>
      </trkpt>
      <trkpt lat="47.30971" lon="-0.84273">
        <ele>115</ele>
        <time>2010-08-13T10:18:56Z</time>
      </trkpt>
      <trkpt lat="47.30958" lon="-0.84325">
        <ele>115</ele>
        <time>2010-08-13T10:19:01Z</time>
      </trkpt>
      <trkpt lat="47.30949" lon="-0.8436">
        <ele>115</ele>
        <time>2010-08-13T10:19:06Z</time>
      </trkpt>
      <trkpt lat="47.3094" lon="-0.84401">
        <ele>116</ele>
        <time>2010-08-13T10:19:11Z</time>
      </trkpt>
      <trkpt lat="47.3093" lon="-0.84441">
        <ele>116</ele>
        <time>2010-08-13T10:19:16Z</time>
      </trkpt>
      <trkpt lat="47.30918" lon="-0.84488">
        <ele>116</ele>
        <time>2010-08-13T10:19:21Z</time>
      </trkpt>
      <trkpt lat="47.30908" lon="-0.8453">
        <ele>116</ele>
        <time>2010-08-13T10:19:26Z</time>
      </trkpt>
      <trkpt lat="47.309" lon="-0.84564">
        <ele>117</ele>
        <time>2010-08-13T10:19:31Z</time>
      </trkpt>
      <trkpt lat="47.30889" lon="-0.84608">
        <ele>117</ele>
        <time>2010-08-13T10:19:36Z</time>
      </trkpt>
      <trkpt lat="47.30875" lon="-0.84664">
        <ele>116</ele>
        <time>2010-08-13T10:19:41Z</time>
      </trkpt>
      <trkpt lat="47.30863" lon="-0.84714">
        <ele>116</ele>
        <time>2010-08-13T10:19:46Z</time>
      </trkpt>
      <trkpt lat="47.30852" lon="-0.84756">
        <ele>115</ele>
        <time>2010-08-13T10:19:51Z</time>
      </trkpt>
      <trkpt lat="47.30839" lon="-0.84808">
        <ele>114</ele>
        <time>2010-08-13T10:19:56Z</time>
      </trkpt>
      <trkpt lat="47.30827" lon="-0.8486">
        <ele>114</ele>
        <time>2010-08-13T10:20:01Z</time>
      </trkpt>
      <trkpt lat="47.30812" lon="-0.84919">
        <ele>113</ele>
        <time>2010-08-13T10:20:06Z</time>
      </trkpt>
      <trkpt lat="47.30801" lon="-0.84967">
        <ele>114</ele>
        <time>2010-08-13T10:20:11Z</time>
      </trkpt>
      <trkpt lat="47.30791" lon="-0.85004">
        <ele>115</ele>
        <time>2010-08-13T10:20:16Z</time>
      </trkpt>
      <trkpt lat="47.30779" lon="-0.85053">
        <ele>115</ele>
        <time>2010-08-13T10:20:21Z</time>
      </trkpt>
      <trkpt lat="47.30768" lon="-0.85101">
        <ele>116</ele>
        <time>2010-08-13T10:20:26Z</time>
      </trkpt>
      <trkpt lat="47.30755" lon="-0.85155">
        <ele>118</ele>
        <time>2010-08-13T10:20:31Z</time>
      </trkpt>
      <trkpt lat="47.30747" lon="-0.85189">
        <ele>119</ele>
        <time>2010-08-13T10:20:36Z</time>
      </trkpt>
      <trkpt lat="47.30736" lon="-0.85233">
        <ele>119</ele>
        <time>2010-08-13T10:20:41Z</time>
      </trkpt>
      <trkpt lat="47.30725" lon="-0.85279">
        <ele>117</ele>
        <time>2010-08-13T10:20:46Z</time>
      </trkpt>
      <trkpt lat="47.30713" lon="-0.85327">
        <ele>117</ele>
        <time>2010-08-13T10:20:51Z</time>
      </trkpt>
      <trkpt lat="47.30698" lon="-0.85387">
        <ele>116</ele>
        <time>2010-08-13T10:20:56Z</time>
      </trkpt>
      <trkpt lat="47.30688" lon="-0.85429">
        <ele>117</ele>
        <time>2010-08-13T10:21:01Z</time>
      </trkpt>
      <trkpt lat="47.30676" lon="-0.8548">
        <ele>117</ele>
        <time>2010-08-13T10:21:06Z</time>
      </trkpt>
      <trkpt lat="47.30664" lon="-0.85528">
        <ele>116</ele>
        <time>2010-08-13T10:21:11Z</time>
      </trkpt>
      <trkpt lat="47.30647" lon="-0.85581">
        <ele>117</ele>
        <time>2010-08-13T10:21:16Z</time>
      </trkpt>
      <trkpt lat="47.30635" lon="-0.85629">
        <ele>116</ele>
        <time>2010-08-13T10:21:21Z</time>
      </trkpt>
      <trkpt lat="47.30625" lon="-0.8567">
        <ele>116</ele>
        <time>2010-08-13T10:21:26Z</time>
      </trkpt>
      <trkpt lat="47.30613" lon="-0.85723">
        <ele>115</ele>
        <time>2010-08-13T10:21:31Z</time>
      </trkpt>
      <trkpt lat="47.30598" lon="-0.85787">
        <ele>115</ele>
        <time>2010-08-13T10:21:36Z</time>
      </trkpt>
      <trkpt lat="47.30586" lon="-0.85837">
        <ele>115</ele>
        <time>2010-08-13T10:21:41Z</time>
      </trkpt>
      <trkpt lat="47.30579" lon="-0.85869">
        <ele>113</ele>
        <time>2010-08-13T10:21:46Z</time>
      </trkpt>
      <trkpt lat="47.30563" lon="-0.85934">
        <ele>112</ele>
        <time>2010-08-13T10:21:51Z</time>
      </trkpt>
      <trkpt lat="47.30545" lon="-0.86007">
        <ele>111</ele>
        <time>2010-08-13T10:21:56Z</time>
      </trkpt>
      <trkpt lat="47.30529" lon="-0.86071">
        <ele>110</ele>
        <time>2010-08-13T10:22:01Z</time>
      </trkpt>
      <trkpt lat="47.30514" lon="-0.86138">
        <ele>110</ele>
        <time>2010-08-13T10:22:06Z</time>
      </trkpt>
      <trkpt lat="47.30503" lon="-0.86184">
        <ele>110</ele>
        <time>2010-08-13T10:22:11Z</time>
      </trkpt>
      <trkpt lat="47.30491" lon="-0.86233">
        <ele>110</ele>
        <time>2010-08-13T10:22:16Z</time>
      </trkpt>
      <trkpt lat="47.3048" lon="-0.86278">
        <ele>111</ele>
        <time>2010-08-13T10:22:21Z</time>
      </trkpt>
      <trkpt lat="47.30468" lon="-0.8633">
        <ele>112</ele>
        <time>2010-08-13T10:22:26Z</time>
      </trkpt>
      <trkpt lat="47.3046" lon="-0.86363">
        <ele>114</ele>
        <time>2010-08-13T10:22:31Z</time>
      </trkpt>
      <trkpt lat="47.30449" lon="-0.86406">
        <ele>114</ele>
        <time>2010-08-13T10:22:36Z</time>
      </trkpt>
      <trkpt lat="47.30439" lon="-0.86448">
        <ele>115</ele>
        <time>2010-08-13T10:22:41Z</time>
      </trkpt>
      <trkpt lat="47.30427" lon="-0.86499">
        <ele>115</ele>
        <time>2010-08-13T10:22:46Z</time>
      </trkpt>
      <trkpt lat="47.30417" lon="-0.86542">
        <ele>115</ele>
        <time>2010-08-13T10:22:51Z</time>
      </trkpt>
      <trkpt lat="47.30408" lon="-0.86576">
        <ele>115</ele>
        <time>2010-08-13T10:22:56Z</time>
      </trkpt>
      <trkpt lat="47.30397" lon="-0.86622">
        <ele>115</ele>
        <time>2010-08-13T10:23:01Z</time>
      </trkpt>
      <trkpt lat="47.30382" lon="-0.86683">
        <ele>114</ele>
        <time>2010-08-13T10:23:06Z</time>
      </trkpt>
      <trkpt lat="47.3037" lon="-0.86736">
        <ele>114</ele>
        <time>2010-08-13T10:23:11Z</time>
      </trkpt>
      <trkpt lat="47.3036" lon="-0.8678">
        <ele>114</ele>
        <time>2010-08-13T10:23:16Z</time>
      </trkpt>
      <trkpt lat="47.30347" lon="-0.86834">
        <ele>112</ele>
        <time>2010-08-13T10:23:21Z</time>
      </trkpt>
      <trkpt lat="47.30333" lon="-0.86891">
        <ele>109</ele>
        <time>2010-08-13T10:23:26Z</time>
      </trkpt>
      <trkpt lat="47.30315" lon="-0.86966">
        <ele>108</ele>
        <time>2010-08-13T10:23:31Z</time>
      </trkpt>
      <trkpt lat="47.30299" lon="-0.87034">
        <ele>107</ele>
        <time>2010-08-13T10:23:36Z</time>
      </trkpt>
      <trkpt lat="47.30285" lon="-0.87088">
        <ele>107</ele>
        <time>2010-08-13T10:23:41Z</time>
      </trkpt>
      <trkpt lat="47.3027" lon="-0.87151">
        <ele>107</ele>
        <time>2010-08-13T10:23:46Z</time>
      </trkpt>
      <trkpt lat="47.30255" lon="-0.87213">
        <ele>108</ele>
        <time>2010-08-13T10:23:51Z</time>
      </trkpt>
      <trkpt lat="47.30244" lon="-0.87261">
        <ele>108</ele>
        <time>2010-08-13T10:23:56Z</time>
      </trkpt>
      <trkpt lat="47.30236" lon="-0.87295">
        <ele>108</ele>
        <time>2010-08-13T10:24:01Z</time>
      </trkpt>
      <trkpt lat="47.30226" lon="-0.87337">
        <ele>109</ele>
        <time>2010-08-13T10:24:06Z</time>
      </trkpt>
      <trkpt lat="47.30217" lon="-0.87379">
        <ele>109</ele>
        <time>2010-08-13T10:24:11Z</time>
      </trkpt>
      <trkpt lat="47.30206" lon="-0.87422">
        <ele>109</ele>
        <time>2010-08-13T10:24:16Z</time>
      </trkpt>
      <trkpt lat="47.30194" lon="-0.87473">
        <ele>110</ele>
        <time>2010-08-13T10:24:21Z</time>
      </trkpt>
      <trkpt lat="47.30186" lon="-0.87507">
        <ele>111</ele>
        <time>2010-08-13T10:24:26Z</time>
      </trkpt>
      <trkpt lat="47.30175" lon="-0.8755">
        <ele>112</ele>
        <time>2010-08-13T10:24:31Z</time>
      </trkpt>
      <trkpt lat="47.30165" lon="-0.87592">
        <ele>113</ele>
        <time>2010-08-13T10:24:36Z</time>
      </trkpt>
      <trkpt lat="47.30153" lon="-0.87642">
        <ele>114</ele>
        <time>2010-08-13T10:24:41Z</time>
      </trkpt>
      <trkpt lat="47.30144" lon="-0.87683">
        <ele>114</ele>
        <time>2010-08-13T10:24:46Z</time>
      </trkpt>
      <trkpt lat="47.30137" lon="-0.87714">
        <ele>115</ele>
        <time>2010-08-13T10:24:51Z</time>
      </trkpt>
      <trkpt lat="47.30128" lon="-0.87753">
        <ele>116</ele>
        <time>2010-08-13T10:24:56Z</time>
      </trkpt>
      <trkpt lat="47.30117" lon="-0.87798">
        <ele>116</ele>
        <time>2010-08-13T10:25:01Z</time>
      </trkpt>
      <trkpt lat="47.30109" lon="-0.87835">
        <ele>118</ele>
        <time>2010-08-13T10:25:06Z</time>
      </trkpt>
      <trkpt lat="47.30102" lon="-0.87861">
        <ele>118</ele>
        <time>2010-08-13T10:25:11Z</time>
      </trkpt>
      <trkpt lat="47.30095" lon="-0.87893">
        <ele>118</ele>
        <time>2010-08-13T10:25:16Z</time>
      </trkpt>
      <trkpt lat="47.30088" lon="-0.87923">
        <ele>119</ele>
        <time>2010-08-13T10:25:21Z</time>
      </trkpt>
      <trkpt lat="47.30081" lon="-0.87954">
        <ele>121</ele>
        <time>2010-08-13T10:25:26Z</time>
      </trkpt>
      <trkpt lat="47.30072" lon="-0.8799">
        <ele>121</ele>
        <time>2010-08-13T10:25:31Z</time>
      </trkpt>
      <trkpt lat="47.30066" lon="-0.88015">
        <ele>122</ele>
        <time>2010-08-13T10:25:36Z</time>
      </trkpt>
      <trkpt lat="47.30059" lon="-0.88046">
        <ele>123</ele>
        <time>2010-08-13T10:25:41Z</time>
      </trkpt>
      <trkpt lat="47.30051" lon="-0.88079">
        <ele>123</ele>
        <time>2010-08-13T10:25:46Z</time>
      </trkpt>
      <trkpt lat="47.30042" lon="-0.88116">
        <ele>125</ele>
        <time>2010-08-13T10:25:51Z</time>
      </trkpt>
      <trkpt lat="47.30036" lon="-0.8814">
        <ele>126</ele>
        <time>2010-08-13T10:25:56Z</time>
      </trkpt>
      <trkpt lat="47.30028" lon="-0.88171">
        <ele>127</ele>
        <time>2010-08-13T10:26:01Z</time>
      </trkpt>
      <trkpt lat="47.3002" lon="-0.88203">
        <ele>127</ele>
        <time>2010-08-13T10:26:06Z</time>
      </trkpt>
      <trkpt lat="47.30011" lon="-0.88243">
        <ele>127</ele>
        <time>2010-08-13T10:26:11Z</time>
      </trkpt>
      <trkpt lat="47.30003" lon="-0.88277">
        <ele>128</ele>
        <time>2010-08-13T10:26:16Z</time>
      </trkpt>
      <trkpt lat="47.29997" lon="-0.88305">
        <ele>127</ele>
        <time>2010-08-13T10:26:21Z</time>
      </trkpt>
      <trkpt lat="47.29988" lon="-0.8834">
        <ele>128</ele>
        <time>2010-08-13T10:26:26Z</time>
      </trkpt>
      <trkpt lat="47.2998" lon="-0.88376">
        <ele>128</ele>
        <time>2010-08-13T10:26:31Z</time>
      </trkpt>
      <trkpt lat="47.2997" lon="-0.8842">
        <ele>128</ele>
        <time>2010-08-13T10:26:36Z</time>
      </trkpt>
      <trkpt lat="47.29962" lon="-0.88452">
        <ele>128</ele>
        <time>2010-08-13T10:26:41Z</time>
      </trkpt>
      <trkpt lat="47.29952" lon="-0.88495">
        <ele>127</ele>
        <time>2010-08-13T10:26:46Z</time>
      </trkpt>
      <trkpt lat="47.29941" lon="-0.88541">
        <ele>128</ele>
        <time>2010-08-13T10:26:51Z</time>
      </trkpt>
      <trkpt lat="47.29927" lon="-0.88599">
        <ele>128</ele>
        <time>2010-08-13T10:26:56Z</time>
      </trkpt>
      <trkpt lat="47.29915" lon="-0.88646">
        <ele>128</ele>
        <time>2010-08-13T10:27:01Z</time>
      </trkpt>
      <trkpt lat="47.29906" lon="-0.88684">
        <ele>128</ele>
        <time>2010-08-13T10:27:06Z</time>
      </trkpt>
      <trkpt lat="47.29895" lon="-0.88731">
        <ele>128</ele>
        <time>2010-08-13T10:27:11Z</time>
      </trkpt>
      <trkpt lat="47.29881" lon="-0.88789">
        <ele>128</ele>
        <time>2010-08-13T10:27:16Z</time>
      </trkpt>
      <trkpt lat="47.2987" lon="-0.88836">
        <ele>128</ele>
        <time>2010-08-13T10:27:21Z</time>
      </trkpt>
      <trkpt lat="47.29858" lon="-0.88884">
        <ele>128</ele>
        <time>2010-08-13T10:27:26Z</time>
      </trkpt>
      <trkpt lat="47.29849" lon="-0.88922">
        <ele>127</ele>
        <time>2010-08-13T10:27:31Z</time>
      </trkpt>
      <trkpt lat="47.29836" lon="-0.88976">
        <ele>127</ele>
        <time>2010-08-13T10:27:36Z</time>
      </trkpt>
      <trkpt lat="47.29816" lon="-0.89052">
        <ele>123</ele>
        <time>2010-08-13T10:27:41Z</time>
      </trkpt>
      <trkpt lat="47.29798" lon="-0.89122">
        <ele>122</ele>
        <time>2010-08-13T10:27:46Z</time>
      </trkpt>
      <trkpt lat="47.29783" lon="-0.8918">
        <ele>122</ele>
        <time>2010-08-13T10:27:51Z</time>
      </trkpt>
      <trkpt lat="47.2977" lon="-0.89246">
        <ele>123</ele>
        <time>2010-08-13T10:27:56Z</time>
      </trkpt>
      <trkpt lat="47.29758" lon="-0.89298">
        <ele>125</ele>
        <time>2010-08-13T10:28:01Z</time>
      </trkpt>
      <trkpt lat="47.29751" lon="-0.8933">
        <ele>128</ele>
        <time>2010-08-13T10:28:06Z</time>
      </trkpt>
      <trkpt lat="47.29743" lon="-0.89361">
        <ele>130</ele>
        <time>2010-08-13T10:28:11Z</time>
      </trkpt>
      <trkpt lat="47.29737" lon="-0.89385">
        <ele>130</ele>
        <time>2010-08-13T10:28:16Z</time>
      </trkpt>
      <trkpt lat="47.2973" lon="-0.89418">
        <ele>132</ele>
        <time>2010-08-13T10:28:21Z</time>
      </trkpt>
      <trkpt lat="47.29719" lon="-0.89456">
        <ele>133</ele>
        <time>2010-08-13T10:28:26Z</time>
      </trkpt>
      <trkpt lat="47.29711" lon="-0.89488">
        <ele>133</ele>
        <time>2010-08-13T10:28:31Z</time>
      </trkpt>
      <trkpt lat="47.29706" lon="-0.89514">
        <ele>134</ele>
        <time>2010-08-13T10:28:36Z</time>
      </trkpt>
      <trkpt lat="47.29697" lon="-0.89547">
        <ele>134</ele>
        <time>2010-08-13T10:28:41Z</time>
      </trkpt>
      <trkpt lat="47.29689" lon="-0.89581">
        <ele>135</ele>
        <time>2010-08-13T10:28:46Z</time>
      </trkpt>
      <trkpt lat="47.29679" lon="-0.89623">
        <ele>135</ele>
        <time>2010-08-13T10:28:51Z</time>
      </trkpt>
      <trkpt lat="47.29671" lon="-0.8966">
        <ele>136</ele>
        <time>2010-08-13T10:28:56Z</time>
      </trkpt>
      <trkpt lat="47.29664" lon="-0.8969">
        <ele>137</ele>
        <time>2010-08-13T10:29:01Z</time>
      </trkpt>
      <trkpt lat="47.29654" lon="-0.89731">
        <ele>137</ele>
        <time>2010-08-13T10:29:06Z</time>
      </trkpt>
      <trkpt lat="47.29644" lon="-0.89773">
        <ele>137</ele>
        <time>2010-08-13T10:29:11Z</time>
      </trkpt>
      <trkpt lat="47.29631" lon="-0.89826">
        <ele>136</ele>
        <time>2010-08-13T10:29:16Z</time>
      </trkpt>
      <trkpt lat="47.29622" lon="-0.89863">
        <ele>136</ele>
        <time>2010-08-13T10:29:21Z</time>
      </trkpt>
      <trkpt lat="47.29611" lon="-0.89908">
        <ele>137</ele>
        <time>2010-08-13T10:29:26Z</time>
      </trkpt>
      <trkpt lat="47.29601" lon="-0.89949">
        <ele>139</ele>
        <time>2010-08-13T10:29:31Z</time>
      </trkpt>
      <trkpt lat="47.29591" lon="-0.89986">
        <ele>140</ele>
        <time>2010-08-13T10:29:36Z</time>
      </trkpt>
      <trkpt lat="47.29579" lon="-0.9003">
        <ele>140</ele>
        <time>2010-08-13T10:29:41Z</time>
      </trkpt>
      <trkpt lat="47.2957" lon="-0.9006">
        <ele>140</ele>
        <time>2010-08-13T10:29:46Z</time>
      </trkpt>
      <trkpt lat="47.29561" lon="-0.90101">
        <ele>140</ele>
        <time>2010-08-13T10:29:51Z</time>
      </trkpt>
      <trkpt lat="47.2955" lon="-0.90142">
        <ele>139</ele>
        <time>2010-08-13T10:29:56Z</time>
      </trkpt>
      <trkpt lat="47.29537" lon="-0.90197">
        <ele>138</ele>
        <time>2010-08-13T10:30:01Z</time>
      </trkpt>
      <trkpt lat="47.29529" lon="-0.90236">
        <ele>138</ele>
        <time>2010-08-13T10:30:06Z</time>
      </trkpt>
      <trkpt lat="47.29517" lon="-0.90288">
        <ele>137</ele>
        <time>2010-08-13T10:30:11Z</time>
      </trkpt>
      <trkpt lat="47.29504" lon="-0.90345">
        <ele>136</ele>
        <time>2010-08-13T10:30:16Z</time>
      </trkpt>
      <trkpt lat="47.29486" lon="-0.90419">
        <ele>135</ele>
        <time>2010-08-13T10:30:21Z</time>
      </trkpt>
      <trkpt lat="47.2947" lon="-0.90485">
        <ele>134</ele>
        <time>2010-08-13T10:30:26Z</time>
      </trkpt>
      <trkpt lat="47.29459" lon="-0.90537">
        <ele>134</ele>
        <time>2010-08-13T10:30:31Z</time>
      </trkpt>
      <trkpt lat="47.29447" lon="-0.90595">
        <ele>135</ele>
        <time>2010-08-13T10:30:36Z</time>
      </trkpt>
      <trkpt lat="47.29432" lon="-0.90657">
        <ele>135</ele>
        <time>2010-08-13T10:30:41Z</time>
      </trkpt>
      <trkpt lat="47.29418" lon="-0.90706">
        <ele>137</ele>
        <time>2010-08-13T10:30:46Z</time>
      </trkpt>
      <trkpt lat="47.29407" lon="-0.90755">
        <ele>138</ele>
        <time>2010-08-13T10:30:51Z</time>
      </trkpt>
      <trkpt lat="47.29397" lon="-0.90794">
        <ele>137</ele>
        <time>2010-08-13T10:30:56Z</time>
      </trkpt>
      <trkpt lat="47.29384" lon="-0.90845">
        <ele>136</ele>
        <time>2010-08-13T10:31:01Z</time>
      </trkpt>
      <trkpt lat="47.29369" lon="-0.90907">
        <ele>136</ele>
        <time>2010-08-13T10:31:06Z</time>
      </trkpt>
      <trkpt lat="47.29355" lon="-0.90962">
        <ele>134</ele>
        <time>2010-08-13T10:31:11Z</time>
      </trkpt>
      <trkpt lat="47.29343" lon="-0.91009">
        <ele>132</ele>
        <time>2010-08-13T10:31:16Z</time>
      </trkpt>
      <trkpt lat="47.29329" lon="-0.9107">
        <ele>132</ele>
        <time>2010-08-13T10:31:21Z</time>
      </trkpt>
      <trkpt lat="47.29315" lon="-0.91131">
        <ele>130</ele>
        <time>2010-08-13T10:31:26Z</time>
      </trkpt>
      <trkpt lat="47.29297" lon="-0.91205">
        <ele>129</ele>
        <time>2010-08-13T10:31:31Z</time>
      </trkpt>
      <trkpt lat="47.29278" lon="-0.91269">
        <ele>127</ele>
        <time>2010-08-13T10:31:36Z</time>
      </trkpt>
      <trkpt lat="47.29253" lon="-0.91309">
        <ele>126</ele>
        <time>2010-08-13T10:31:41Z</time>
      </trkpt>
      <trkpt lat="47.29222" lon="-0.91356">
        <ele>126</ele>
        <time>2010-08-13T10:31:46Z</time>
      </trkpt>
      <trkpt lat="47.292" lon="-0.91424">
        <ele>125</ele>
        <time>2010-08-13T10:31:51Z</time>
      </trkpt>
      <trkpt lat="47.29189" lon="-0.91483">
        <ele>125</ele>
        <time>2010-08-13T10:31:56Z</time>
      </trkpt>
      <trkpt lat="47.2918" lon="-0.91531">
        <ele>124</ele>
        <time>2010-08-13T10:32:01Z</time>
      </trkpt>
      <trkpt lat="47.29163" lon="-0.91593">
        <ele>123</ele>
        <time>2010-08-13T10:32:06Z</time>
      </trkpt>
      <trkpt lat="47.29141" lon="-0.9165">
        <ele>122</ele>
        <time>2010-08-13T10:32:11Z</time>
      </trkpt>
      <trkpt lat="47.29114" lon="-0.91714">
        <ele>121</ele>
        <time>2010-08-13T10:32:16Z</time>
      </trkpt>
      <trkpt lat="47.29109" lon="-0.91779">
        <ele>119</ele>
        <time>2010-08-13T10:32:21Z</time>
      </trkpt>
      <trkpt lat="47.29108" lon="-0.91817">
        <ele>118</ele>
        <time>2010-08-13T10:32:26Z</time>
      </trkpt>
      <trkpt lat="47.29105" lon="-0.91895">
        <ele>117</ele>
        <time>2010-08-13T10:32:31Z</time>
      </trkpt>
      <trkpt lat="47.29101" lon="-0.91972">
        <ele>116</ele>
        <time>2010-08-13T10:32:36Z</time>
      </trkpt>
      <trkpt lat="47.29098" lon="-0.92038">
        <ele>116</ele>
        <time>2010-08-13T10:32:41Z</time>
      </trkpt>
      <trkpt lat="47.29095" lon="-0.92091">
        <ele>115</ele>
        <time>2010-08-13T10:32:46Z</time>
      </trkpt>
      <trkpt lat="47.29092" lon="-0.9216">
        <ele>115</ele>
        <time>2010-08-13T10:32:51Z</time>
      </trkpt>
      <trkpt lat="47.29088" lon="-0.92231">
        <ele>113</ele>
        <time>2010-08-13T10:32:56Z</time>
      </trkpt>
      <trkpt lat="47.29084" lon="-0.9232">
        <ele>111</ele>
        <time>2010-08-13T10:33:01Z</time>
      </trkpt>
      <trkpt lat="47.29081" lon="-0.92394">
        <ele>110</ele>
        <time>2010-08-13T10:33:06Z</time>
      </trkpt>
      <trkpt lat="47.29078" lon="-0.92454">
        <ele>109</ele>
        <time>2010-08-13T10:33:11Z</time>
      </trkpt>
      <trkpt lat="47.29073" lon="-0.9253">
        <ele>106</ele>
        <time>2010-08-13T10:33:16Z</time>
      </trkpt>
      <trkpt lat="47.2907" lon="-0.92612">
        <ele>103</ele>
        <time>2010-08-13T10:33:21Z</time>
      </trkpt>
      <trkpt lat="47.29064" lon="-0.92717">
        <ele>99</ele>
        <time>2010-08-13T10:33:26Z</time>
      </trkpt>
      <trkpt lat="47.2906" lon="-0.92808">
        <ele>95</ele>
        <time>2010-08-13T10:33:31Z</time>
      </trkpt>
      <trkpt lat="47.29056" lon="-0.92881">
        <ele>93</ele>
        <time>2010-08-13T10:33:36Z</time>
      </trkpt>
      <trkpt lat="47.29053" lon="-0.9297">
        <ele>93</ele>
        <time>2010-08-13T10:33:41Z</time>
      </trkpt>
      <trkpt lat="47.29051" lon="-0.93046">
        <ele>94</ele>
        <time>2010-08-13T10:33:46Z</time>
      </trkpt>
      <trkpt lat="47.29046" lon="-0.93127">
        <ele>92</ele>
        <time>2010-08-13T10:33:51Z</time>
      </trkpt>
      <trkpt lat="47.29043" lon="-0.9318">
        <ele>90</ele>
        <time>2010-08-13T10:33:56Z</time>
      </trkpt>
      <trkpt lat="47.2904" lon="-0.93245">
        <ele>90</ele>
        <time>2010-08-13T10:34:01Z</time>
      </trkpt>
      <trkpt lat="47.29037" lon="-0.93307">
        <ele>91</ele>
        <time>2010-08-13T10:34:06Z</time>
      </trkpt>
      <trkpt lat="47.29034" lon="-0.93369">
        <ele>93</ele>
        <time>2010-08-13T10:34:11Z</time>
      </trkpt>
      <trkpt lat="47.29032" lon="-0.93412">
        <ele>93</ele>
        <time>2010-08-13T10:34:16Z</time>
      </trkpt>
      <trkpt lat="47.2903" lon="-0.93444">
        <ele>96</ele>
        <time>2010-08-13T10:34:21Z</time>
      </trkpt>
      <trkpt lat="47.29029" lon="-0.93489">
        <ele>96</ele>
        <time>2010-08-13T10:34:26Z</time>
      </trkpt>
      <trkpt lat="47.29027" lon="-0.93538">
        <ele>96</ele>
        <time>2010-08-13T10:34:31Z</time>
      </trkpt>
      <trkpt lat="47.29024" lon="-0.93609">
        <ele>92</ele>
        <time>2010-08-13T10:34:36Z</time>
      </trkpt>
      <trkpt lat="47.29021" lon="-0.93663">
        <ele>91</ele>
        <time>2010-08-13T10:34:41Z</time>
      </trkpt>
      <trkpt lat="47.29018" lon="-0.93731">
        <ele>89</ele>
        <time>2010-08-13T10:34:46Z</time>
      </trkpt>
      <trkpt lat="47.29015" lon="-0.93806">
        <ele>91</ele>
        <time>2010-08-13T10:34:51Z</time>
      </trkpt>
      <trkpt lat="47.29013" lon="-0.93848">
        <ele>93</ele>
        <time>2010-08-13T10:34:56Z</time>
      </trkpt>
      <trkpt lat="47.2901" lon="-0.93898">
        <ele>94</ele>
        <time>2010-08-13T10:35:01Z</time>
      </trkpt>
      <trkpt lat="47.29009" lon="-0.93926">
        <ele>96</ele>
        <time>2010-08-13T10:35:06Z</time>
      </trkpt>
      <trkpt lat="47.29008" lon="-0.93959">
        <ele>98</ele>
        <time>2010-08-13T10:35:11Z</time>
      </trkpt>
      <trkpt lat="47.29006" lon="-0.93991">
        <ele>98</ele>
        <time>2010-08-13T10:35:16Z</time>
      </trkpt>
      <trkpt lat="47.29004" lon="-0.94032">
        <ele>100</ele>
        <time>2010-08-13T10:35:21Z</time>
      </trkpt>
      <trkpt lat="47.29002" lon="-0.94062">
        <ele>100</ele>
        <time>2010-08-13T10:35:26Z</time>
      </trkpt>
      <trkpt lat="47.29" lon="-0.941">
        <ele>98</ele>
        <time>2010-08-13T10:35:31Z</time>
      </trkpt>
      <trkpt lat="47.28998" lon="-0.94139">
        <ele>98</ele>
        <time>2010-08-13T10:35:36Z</time>
      </trkpt>
      <trkpt lat="47.28996" lon="-0.94189">
        <ele>98</ele>
        <time>2010-08-13T10:35:41Z</time>
      </trkpt>
      <trkpt lat="47.28994" lon="-0.94234">
        <ele>98</ele>
        <time>2010-08-13T10:35:46Z</time>
      </trkpt>
      <trkpt lat="47.28992" lon="-0.9427">
        <ele>98</ele>
        <time>2010-08-13T10:35:51Z</time>
      </trkpt>
      <trkpt lat="47.2899" lon="-0.94315">
        <ele>98</ele>
        <time>2010-08-13T10:35:56Z</time>
      </trkpt>
      <trkpt lat="47.28989" lon="-0.94357">
        <ele>99</ele>
        <time>2010-08-13T10:36:01Z</time>
      </trkpt>
      <trkpt lat="47.28987" lon="-0.94405">
        <ele>100</ele>
        <time>2010-08-13T10:36:06Z</time>
      </trkpt>
      <trkpt lat="47.28985" lon="-0.94434">
        <ele>102</ele>
        <time>2010-08-13T10:36:11Z</time>
      </trkpt>
      <trkpt lat="47.28984" lon="-0.94466">
        <ele>103</ele>
        <time>2010-08-13T10:36:16Z</time>
      </trkpt>
      <trkpt lat="47.28982" lon="-0.94498">
        <ele>104</ele>
        <time>2010-08-13T10:36:21Z</time>
      </trkpt>
      <trkpt lat="47.2898" lon="-0.9453">
        <ele>107</ele>
        <time>2010-08-13T10:36:26Z</time>
      </trkpt>
      <trkpt lat="47.28979" lon="-0.94571">
        <ele>108</ele>
        <time>2010-08-13T10:36:31Z</time>
      </trkpt>
      <trkpt lat="47.28978" lon="-0.94598">
        <ele>110</ele>
        <time>2010-08-13T10:36:36Z</time>
      </trkpt>
      <trkpt lat="47.28976" lon="-0.94632">
        <ele>111</ele>
        <time>2010-08-13T10:36:41Z</time>
      </trkpt>
      <trkpt lat="47.28975" lon="-0.94666">
        <ele>111</ele>
        <time>2010-08-13T10:36:46Z</time>
      </trkpt>
      <trkpt lat="47.28973" lon="-0.94707">
        <ele>113</ele>
        <time>2010-08-13T10:36:51Z</time>
      </trkpt>
      <trkpt lat="47.28972" lon="-0.94735">
        <ele>113</ele>
        <time>2010-08-13T10:36:56Z</time>
      </trkpt>
      <trkpt lat="47.2897" lon="-0.9477">
        <ele>114</ele>
        <time>2010-08-13T10:37:01Z</time>
      </trkpt>
      <trkpt lat="47.28969" lon="-0.94806">
        <ele>114</ele>
        <time>2010-08-13T10:37:06Z</time>
      </trkpt>
      <trkpt lat="47.28968" lon="-0.94852">
        <ele>114</ele>
        <time>2010-08-13T10:37:11Z</time>
      </trkpt>
      <trkpt lat="47.28966" lon="-0.94893">
        <ele>113</ele>
        <time>2010-08-13T10:37:16Z</time>
      </trkpt>
      <trkpt lat="47.28964" lon="-0.94929">
        <ele>112</ele>
        <time>2010-08-13T10:37:21Z</time>
      </trkpt>
      <trkpt lat="47.28962" lon="-0.94981">
        <ele>111</ele>
        <time>2010-08-13T10:37:26Z</time>
      </trkpt>
      <trkpt lat="47.28958" lon="-0.95056">
        <ele>109</ele>
        <time>2010-08-13T10:37:31Z</time>
      </trkpt>
      <trkpt lat="47.28954" lon="-0.95129">
        <ele>107</ele>
        <time>2010-08-13T10:37:36Z</time>
      </trkpt>
      <trkpt lat="47.2895" lon="-0.95209">
        <ele>105</ele>
        <time>2010-08-13T10:37:41Z</time>
      </trkpt>
      <trkpt lat="47.28947" lon="-0.95276">
        <ele>102</ele>
        <time>2010-08-13T10:37:46Z</time>
      </trkpt>
      <trkpt lat="47.28944" lon="-0.95358">
        <ele>99</ele>
        <time>2010-08-13T10:37:51Z</time>
      </trkpt>
      <trkpt lat="47.2894" lon="-0.95448">
        <ele>100</ele>
        <time>2010-08-13T10:37:56Z</time>
      </trkpt>
      <trkpt lat="47.28937" lon="-0.95509">
        <ele>101</ele>
        <time>2010-08-13T10:38:01Z</time>
      </trkpt>
      <trkpt lat="47.28935" lon="-0.95551">
        <ele>102</ele>
        <time>2010-08-13T10:38:06Z</time>
      </trkpt>
      <trkpt lat="47.28933" lon="-0.95603">
        <ele>102</ele>
        <time>2010-08-13T10:38:11Z</time>
      </trkpt>
      <trkpt lat="47.2893" lon="-0.95655">
        <ele>103</ele>
        <time>2010-08-13T10:38:16Z</time>
      </trkpt>
      <trkpt lat="47.28927" lon="-0.95721">
        <ele>101</ele>
        <time>2010-08-13T10:38:21Z</time>
      </trkpt>
      <trkpt lat="47.28924" lon="-0.95782">
        <ele>98</ele>
        <time>2010-08-13T10:38:26Z</time>
      </trkpt>
      <trkpt lat="47.28922" lon="-0.95836">
        <ele>96</ele>
        <time>2010-08-13T10:38:31Z</time>
      </trkpt>
      <trkpt lat="47.28918" lon="-0.95912">
        <ele>92</ele>
        <time>2010-08-13T10:38:36Z</time>
      </trkpt>
      <trkpt lat="47.28915" lon="-0.95994">
        <ele>91</ele>
        <time>2010-08-13T10:38:41Z</time>
      </trkpt>
      <trkpt lat="47.2891" lon="-0.96091">
        <ele>87</ele>
        <time>2010-08-13T10:38:46Z</time>
      </trkpt>
      <trkpt lat="47.28906" lon="-0.96166">
        <ele>87</ele>
        <time>2010-08-13T10:38:51Z</time>
      </trkpt>
      <trkpt lat="47.28904" lon="-0.96223">
        <ele>88</ele>
        <time>2010-08-13T10:38:56Z</time>
      </trkpt>
      <trkpt lat="47.28901" lon="-0.96289">
        <ele>88</ele>
        <time>2010-08-13T10:39:01Z</time>
      </trkpt>
      <trkpt lat="47.28898" lon="-0.96351">
        <ele>88</ele>
        <time>2010-08-13T10:39:06Z</time>
      </trkpt>
      <trkpt lat="47.28895" lon="-0.96423">
        <ele>87</ele>
        <time>2010-08-13T10:39:11Z</time>
      </trkpt>
      <trkpt lat="47.28893" lon="-0.96472">
        <ele>87</ele>
        <time>2010-08-13T10:39:16Z</time>
      </trkpt>
      <trkpt lat="47.28891" lon="-0.96529">
        <ele>86</ele>
        <time>2010-08-13T10:39:21Z</time>
      </trkpt>
      <trkpt lat="47.28888" lon="-0.96585">
        <ele>87</ele>
        <time>2010-08-13T10:39:26Z</time>
      </trkpt>
      <trkpt lat="47.28885" lon="-0.96649">
        <ele>87</ele>
        <time>2010-08-13T10:39:31Z</time>
      </trkpt>
      <trkpt lat="47.28883" lon="-0.96689">
        <ele>89</ele>
        <time>2010-08-13T10:39:36Z</time>
      </trkpt>
      <trkpt lat="47.28881" lon="-0.96736">
        <ele>90</ele>
        <time>2010-08-13T10:39:41Z</time>
      </trkpt>
      <trkpt lat="47.28879" lon="-0.96782">
        <ele>91</ele>
        <time>2010-08-13T10:39:46Z</time>
      </trkpt>
      <trkpt lat="47.28876" lon="-0.96839">
        <ele>91</ele>
        <time>2010-08-13T10:39:51Z</time>
      </trkpt>
      <trkpt lat="47.28874" lon="-0.96885">
        <ele>91</ele>
        <time>2010-08-13T10:39:56Z</time>
      </trkpt>
      <trkpt lat="47.28873" lon="-0.96924">
        <ele>90</ele>
        <time>2010-08-13T10:40:01Z</time>
      </trkpt>
      <trkpt lat="47.2887" lon="-0.96973">
        <ele>90</ele>
        <time>2010-08-13T10:40:06Z</time>
      </trkpt>
      <trkpt lat="47.28867" lon="-0.97032">
        <ele>90</ele>
        <time>2010-08-13T10:40:11Z</time>
      </trkpt>
      <trkpt lat="47.28865" lon="-0.97082">
        <ele>90</ele>
        <time>2010-08-13T10:40:16Z</time>
      </trkpt>
      <trkpt lat="47.28862" lon="-0.97132">
        <ele>91</ele>
        <time>2010-08-13T10:40:21Z</time>
      </trkpt>
      <trkpt lat="47.28861" lon="-0.97173">
        <ele>91</ele>
        <time>2010-08-13T10:40:26Z</time>
      </trkpt>
      <trkpt lat="47.28858" lon="-0.97226">
        <ele>91</ele>
        <time>2010-08-13T10:40:31Z</time>
      </trkpt>
      <trkpt lat="47.28855" lon="-0.97291">
        <ele>90</ele>
        <time>2010-08-13T10:40:36Z</time>
      </trkpt>
      <trkpt lat="47.28852" lon="-0.97348">
        <ele>89</ele>
        <time>2010-08-13T10:40:41Z</time>
      </trkpt>
      <trkpt lat="47.28849" lon="-0.97394">
        <ele>88</ele>
        <time>2010-08-13T10:40:46Z</time>
      </trkpt>
      <trkpt lat="47.28845" lon="-0.97452">
        <ele>86</ele>
        <time>2010-08-13T10:40:51Z</time>
      </trkpt>
      <trkpt lat="47.28844" lon="-0.97513">
        <ele>85</ele>
        <time>2010-08-13T10:40:56Z</time>
      </trkpt>
      <trkpt lat="47.28841" lon="-0.9759">
        <ele>83</ele>
        <time>2010-08-13T10:41:01Z</time>
      </trkpt>
      <trkpt lat="47.28837" lon="-0.97658">
        <ele>82</ele>
        <time>2010-08-13T10:41:06Z</time>
      </trkpt>
      <trkpt lat="47.28835" lon="-0.97714">
        <ele>80</ele>
        <time>2010-08-13T10:41:11Z</time>
      </trkpt>
      <trkpt lat="47.28832" lon="-0.97783">
        <ele>80</ele>
        <time>2010-08-13T10:41:16Z</time>
      </trkpt>
      <trkpt lat="47.2883" lon="-0.97852">
        <ele>79</ele>
        <time>2010-08-13T10:41:21Z</time>
      </trkpt>
      <trkpt lat="47.28826" lon="-0.97937">
        <ele>75</ele>
        <time>2010-08-13T10:41:26Z</time>
      </trkpt>
      <trkpt lat="47.28823" lon="-0.9799">
        <ele>73</ele>
        <time>2010-08-13T10:41:31Z</time>
      </trkpt>
      <trkpt lat="47.28819" lon="-0.9806">
        <ele>70</ele>
        <time>2010-08-13T10:41:36Z</time>
      </trkpt>
      <trkpt lat="47.28814" lon="-0.98114">
        <ele>68</ele>
        <time>2010-08-13T10:41:41Z</time>
      </trkpt>
      <trkpt lat="47.28809" lon="-0.98166">
        <ele>67</ele>
        <time>2010-08-13T10:41:46Z</time>
      </trkpt>
      <trkpt lat="47.28799" lon="-0.98205">
        <ele>66</ele>
        <time>2010-08-13T10:41:51Z</time>
      </trkpt>
      <trkpt lat="47.28789" lon="-0.98231">
        <ele>66</ele>
        <time>2010-08-13T10:41:56Z</time>
      </trkpt>
      <trkpt lat="47.28787" lon="-0.98258">
        <ele>66</ele>
        <time>2010-08-13T10:42:01Z</time>
      </trkpt>
      <trkpt lat="47.2878" lon="-0.98282">
        <ele>66</ele>
        <time>2010-08-13T10:42:06Z</time>
      </trkpt>
      <trkpt lat="47.28768" lon="-0.9832">
        <ele>67</ele>
        <time>2010-08-13T10:42:11Z</time>
      </trkpt>
      <trkpt lat="47.28765" lon="-0.98355">
        <ele>70</ele>
        <time>2010-08-13T10:42:16Z</time>
      </trkpt>
      <trkpt lat="47.28766" lon="-0.98382">
        <ele>70</ele>
        <time>2010-08-13T10:42:21Z</time>
      </trkpt>
      <trkpt lat="47.28752" lon="-0.98406">
        <ele>71</ele>
        <time>2010-08-13T10:42:26Z</time>
      </trkpt>
      <trkpt lat="47.28738" lon="-0.98438">
        <ele>72</ele>
        <time>2010-08-13T10:42:31Z</time>
      </trkpt>
      <trkpt lat="47.28718" lon="-0.98456">
        <ele>72</ele>
        <time>2010-08-13T10:42:36Z</time>
      </trkpt>
      <trkpt lat="47.28704" lon="-0.98474">
        <ele>72</ele>
        <time>2010-08-13T10:42:41Z</time>
      </trkpt>
      <trkpt lat="47.28688" lon="-0.98507">
        <ele>73</ele>
        <time>2010-08-13T10:42:46Z</time>
      </trkpt>
      <trkpt lat="47.28674" lon="-0.9853">
        <ele>73</ele>
        <time>2010-08-13T10:42:51Z</time>
      </trkpt>
      <trkpt lat="47.28653" lon="-0.98563">
        <ele>73</ele>
        <time>2010-08-13T10:42:56Z</time>
      </trkpt>
      <trkpt lat="47.28637" lon="-0.98588">
        <ele>73</ele>
        <time>2010-08-13T10:43:01Z</time>
      </trkpt>
      <trkpt lat="47.28622" lon="-0.98614">
        <ele>73</ele>
        <time>2010-08-13T10:43:06Z</time>
      </trkpt>
      <trkpt lat="47.28597" lon="-0.98646">
        <ele>73</ele>
        <time>2010-08-13T10:43:11Z</time>
      </trkpt>
      <trkpt lat="47.28562" lon="-0.98659">
        <ele>70</ele>
        <time>2010-08-13T10:43:16Z</time>
      </trkpt>
      <trkpt lat="47.28524" lon="-0.98658">
        <ele>68</ele>
        <time>2010-08-13T10:43:21Z</time>
      </trkpt>
      <trkpt lat="47.28489" lon="-0.98654">
        <ele>64</ele>
        <time>2010-08-13T10:43:26Z</time>
      </trkpt>
      <trkpt lat="47.2844" lon="-0.98656">
        <ele>61</ele>
        <time>2010-08-13T10:43:31Z</time>
      </trkpt>
      <trkpt lat="47.28389" lon="-0.98718">
        <ele>55</ele>
        <time>2010-08-13T10:43:36Z</time>
      </trkpt>
      <trkpt lat="47.28385" lon="-0.98816">
        <ele>54</ele>
        <time>2010-08-13T10:43:41Z</time>
      </trkpt>
      <trkpt lat="47.28395" lon="-0.98908">
        <ele>52</ele>
        <time>2010-08-13T10:43:46Z</time>
      </trkpt>
      <trkpt lat="47.28387" lon="-0.98981">
        <ele>50</ele>
        <time>2010-08-13T10:43:51Z</time>
      </trkpt>
      <trkpt lat="47.2838" lon="-0.99083">
        <ele>48</ele>
        <time>2010-08-13T10:43:56Z</time>
      </trkpt>
      <trkpt lat="47.28405" lon="-0.992">
        <ele>44</ele>
        <time>2010-08-13T10:44:01Z</time>
      </trkpt>
      <trkpt lat="47.2843" lon="-0.99281">
        <ele>46</ele>
        <time>2010-08-13T10:44:06Z</time>
      </trkpt>
      <trkpt lat="47.28446" lon="-0.99332">
        <ele>47</ele>
        <time>2010-08-13T10:44:11Z</time>
      </trkpt>
      <trkpt lat="47.28454" lon="-0.99378">
        <ele>47</ele>
        <time>2010-08-13T10:44:16Z</time>
      </trkpt>
      <trkpt lat="47.28451" lon="-0.99415">
        <ele>48</ele>
        <time>2010-08-13T10:44:21Z</time>
      </trkpt>
      <trkpt lat="47.28444" lon="-0.99447">
        <ele>48</ele>
        <time>2010-08-13T10:44:26Z</time>
      </trkpt>
      <trkpt lat="47.28434" lon="-0.99485">
        <ele>49</ele>
        <time>2010-08-13T10:44:31Z</time>
      </trkpt>
      <trkpt lat="47.28428" lon="-0.99509">
        <ele>50</ele>
        <time>2010-08-13T10:44:36Z</time>
      </trkpt>
      <trkpt lat="47.28421" lon="-0.99538">
        <ele>49</ele>
        <time>2010-08-13T10:44:41Z</time>
      </trkpt>
      <trkpt lat="47.28411" lon="-0.99574">
        <ele>55</ele>
        <time>2010-08-13T10:44:46Z</time>
      </trkpt>
      <trkpt lat="47.28405" lon="-0.99604">
        <ele>58</ele>
        <time>2010-08-13T10:44:51Z</time>
      </trkpt>
      <trkpt lat="47.284" lon="-0.99628">
        <ele>59</ele>
        <time>2010-08-13T10:44:56Z</time>
      </trkpt>
      <trkpt lat="47.28396" lon="-0.99658">
        <ele>58</ele>
        <time>2010-08-13T10:45:01Z</time>
      </trkpt>
      <trkpt lat="47.28392" lon="-0.99689">
        <ele>60</ele>
        <time>2010-08-13T10:45:06Z</time>
      </trkpt>
      <trkpt lat="47.28387" lon="-0.99725">
        <ele>61</ele>
        <time>2010-08-13T10:45:11Z</time>
      </trkpt>
      <trkpt lat="47.28384" lon="-0.99755">
        <ele>62</ele>
        <time>2010-08-13T10:45:16Z</time>
      </trkpt>
      <trkpt lat="47.2838" lon="-0.99779">
        <ele>63</ele>
        <time>2010-08-13T10:45:21Z</time>
      </trkpt>
      <trkpt lat="47.28376" lon="-0.9981">
        <ele>64</ele>
        <time>2010-08-13T10:45:26Z</time>
      </trkpt>
      <trkpt lat="47.28369" lon="-0.99837">
        <ele>67</ele>
        <time>2010-08-13T10:45:31Z</time>
      </trkpt>
      <trkpt lat="47.28357" lon="-0.99862">
        <ele>68</ele>
        <time>2010-08-13T10:45:36Z</time>
      </trkpt>
      <trkpt lat="47.28345" lon="-0.99878">
        <ele>68</ele>
        <time>2010-08-13T10:45:41Z</time>
      </trkpt>
      <trkpt lat="47.28333" lon="-0.99891">
        <ele>73</ele>
        <time>2010-08-13T10:45:46Z</time>
      </trkpt>
      <trkpt lat="47.28314" lon="-0.99909">
        <ele>73</ele>
        <time>2010-08-13T10:45:51Z</time>
      </trkpt>
      <trkpt lat="47.28294" lon="-0.99928">
        <ele>76</ele>
        <time>2010-08-13T10:45:56Z</time>
      </trkpt>
      <trkpt lat="47.28278" lon="-0.99942">
        <ele>77</ele>
        <time>2010-08-13T10:46:01Z</time>
      </trkpt>
      <trkpt lat="47.28265" lon="-0.99952">
        <ele>78</ele>
        <time>2010-08-13T10:46:06Z</time>
      </trkpt>
      <trkpt lat="47.28248" lon="-0.99967">
        <ele>82</ele>
        <time>2010-08-13T10:46:11Z</time>
      </trkpt>
      <trkpt lat="47.2823" lon="-0.99982">
        <ele>82</ele>
        <time>2010-08-13T10:46:16Z</time>
      </trkpt>
      <trkpt lat="47.28209" lon="-0.99999">
        <ele>83</ele>
        <time>2010-08-13T10:46:21Z</time>
      </trkpt>
      <trkpt lat="47.28193" lon="-1.00014">
        <ele>83</ele>
        <time>2010-08-13T10:46:26Z</time>
      </trkpt>
      <trkpt lat="47.28179" lon="-1.00027">
        <ele>84</ele>
        <time>2010-08-13T10:46:31Z</time>
      </trkpt>
      <trkpt lat="47.28162" lon="-1.00043">
        <ele>84</ele>
        <time>2010-08-13T10:46:36Z</time>
      </trkpt>
      <trkpt lat="47.28141" lon="-1.00062">
        <ele>84</ele>
        <time>2010-08-13T10:46:41Z</time>
      </trkpt>
      <trkpt lat="47.28123" lon="-1.00078">
        <ele>84</ele>
        <time>2010-08-13T10:46:46Z</time>
      </trkpt>
      <trkpt lat="47.28108" lon="-1.00092">
        <ele>84</ele>
        <time>2010-08-13T10:46:51Z</time>
      </trkpt>
      <trkpt lat="47.28087" lon="-1.00111">
        <ele>84</ele>
        <time>2010-08-13T10:46:56Z</time>
      </trkpt>
      <trkpt lat="47.28065" lon="-1.00131">
        <ele>84</ele>
        <time>2010-08-13T10:47:01Z</time>
      </trkpt>
      <trkpt lat="47.28035" lon="-1.00156">
        <ele>84</ele>
        <time>2010-08-13T10:47:06Z</time>
      </trkpt>
      <trkpt lat="47.2801" lon="-1.00181">
        <ele>83</ele>
        <time>2010-08-13T10:47:11Z</time>
      </trkpt>
      <trkpt lat="47.27988" lon="-1.00201">
        <ele>82</ele>
        <time>2010-08-13T10:47:16Z</time>
      </trkpt>
      <trkpt lat="47.27959" lon="-1.00228">
        <ele>81</ele>
        <time>2010-08-13T10:47:21Z</time>
      </trkpt>
      <trkpt lat="47.27927" lon="-1.00257">
        <ele>81</ele>
        <time>2010-08-13T10:47:26Z</time>
      </trkpt>
      <trkpt lat="47.27885" lon="-1.00295">
        <ele>79</ele>
        <time>2010-08-13T10:47:31Z</time>
      </trkpt>
      <trkpt lat="47.27854" lon="-1.00322">
        <ele>78</ele>
        <time>2010-08-13T10:47:36Z</time>
      </trkpt>
      <trkpt lat="47.27814" lon="-1.00359">
        <ele>75</ele>
        <time>2010-08-13T10:47:41Z</time>
      </trkpt>
      <trkpt lat="47.27761" lon="-1.00407">
        <ele>74</ele>
        <time>2010-08-13T10:47:46Z</time>
      </trkpt>
      <trkpt lat="47.27728" lon="-1.00438">
        <ele>76</ele>
        <time>2010-08-13T10:47:51Z</time>
      </trkpt>
      <trkpt lat="47.27703" lon="-1.00461">
        <ele>77</ele>
        <time>2010-08-13T10:47:56Z</time>
      </trkpt>
      <trkpt lat="47.27685" lon="-1.00477">
        <ele>78</ele>
        <time>2010-08-13T10:48:01Z</time>
      </trkpt>
      <trkpt lat="47.27664" lon="-1.00495">
        <ele>80</ele>
        <time>2010-08-13T10:48:06Z</time>
      </trkpt>
      <trkpt lat="47.27641" lon="-1.00517">
        <ele>81</ele>
        <time>2010-08-13T10:48:11Z</time>
      </trkpt>
      <trkpt lat="47.27622" lon="-1.00534">
        <ele>82</ele>
        <time>2010-08-13T10:48:16Z</time>
      </trkpt>
      <trkpt lat="47.27603" lon="-1.00552">
        <ele>82</ele>
        <time>2010-08-13T10:48:21Z</time>
      </trkpt>
      <trkpt lat="47.27585" lon="-1.00568">
        <ele>82</ele>
        <time>2010-08-13T10:48:26Z</time>
      </trkpt>
      <trkpt lat="47.27562" lon="-1.00589">
        <ele>83</ele>
        <time>2010-08-13T10:48:31Z</time>
      </trkpt>
      <trkpt lat="47.27534" lon="-1.00615">
        <ele>83</ele>
        <time>2010-08-13T10:48:36Z</time>
      </trkpt>
      <trkpt lat="47.27508" lon="-1.00637">
        <ele>82</ele>
        <time>2010-08-13T10:48:41Z</time>
      </trkpt>
      <trkpt lat="47.27487" lon="-1.00656">
        <ele>83</ele>
        <time>2010-08-13T10:48:46Z</time>
      </trkpt>
      <trkpt lat="47.27457" lon="-1.00682">
        <ele>83</ele>
        <time>2010-08-13T10:48:51Z</time>
      </trkpt>
      <trkpt lat="47.27426" lon="-1.0071">
        <ele>83</ele>
        <time>2010-08-13T10:48:56Z</time>
      </trkpt>
      <trkpt lat="47.27383" lon="-1.00748">
        <ele>81</ele>
        <time>2010-08-13T10:49:01Z</time>
      </trkpt>
      <trkpt lat="47.27352" lon="-1.00776">
        <ele>80</ele>
        <time>2010-08-13T10:49:06Z</time>
      </trkpt>
      <trkpt lat="47.2731" lon="-1.00814">
        <ele>77</ele>
        <time>2010-08-13T10:49:11Z</time>
      </trkpt>
      <trkpt lat="47.27264" lon="-1.00855">
        <ele>77</ele>
        <time>2010-08-13T10:49:16Z</time>
      </trkpt>
      <trkpt lat="47.27206" lon="-1.0091">
        <ele>73</ele>
        <time>2010-08-13T10:49:21Z</time>
      </trkpt>
      <trkpt lat="47.27168" lon="-1.00981">
        <ele>70</ele>
        <time>2010-08-13T10:49:26Z</time>
      </trkpt>
      <trkpt lat="47.27145" lon="-1.01049">
        <ele>65</ele>
        <time>2010-08-13T10:49:31Z</time>
      </trkpt>
      <trkpt lat="47.27115" lon="-1.01137">
        <ele>62</ele>
        <time>2010-08-13T10:49:36Z</time>
      </trkpt>
      <trkpt lat="47.27074" lon="-1.01219">
        <ele>58</ele>
        <time>2010-08-13T10:49:41Z</time>
      </trkpt>
      <trkpt lat="47.27002" lon="-1.01289">
        <ele>53</ele>
        <time>2010-08-13T10:49:46Z</time>
      </trkpt>
      <trkpt lat="47.2694" lon="-1.0135">
        <ele>49</ele>
        <time>2010-08-13T10:49:51Z</time>
      </trkpt>
      <trkpt lat="47.26904" lon="-1.0142">
        <ele>46</ele>
        <time>2010-08-13T10:49:56Z</time>
      </trkpt>
      <trkpt lat="47.26871" lon="-1.01504">
        <ele>51</ele>
        <time>2010-08-13T10:50:01Z</time>
      </trkpt>
      <trkpt lat="47.26844" lon="-1.01573">
        <ele>53</ele>
        <time>2010-08-13T10:50:06Z</time>
      </trkpt>
      <trkpt lat="47.26831" lon="-1.01608">
        <ele>54</ele>
        <time>2010-08-13T10:50:11Z</time>
      </trkpt>
      <trkpt lat="47.26823" lon="-1.01631">
        <ele>55</ele>
        <time>2010-08-13T10:50:16Z</time>
      </trkpt>
      <trkpt lat="47.26819" lon="-1.01667">
        <ele>58</ele>
        <time>2010-08-13T10:50:21Z</time>
      </trkpt>
      <trkpt lat="47.26822" lon="-1.01702">
        <ele>58</ele>
        <time>2010-08-13T10:50:26Z</time>
      </trkpt>
      <trkpt lat="47.26835" lon="-1.01736">
        <ele>60</ele>
        <time>2010-08-13T10:50:31Z</time>
      </trkpt>
      <trkpt lat="47.2685" lon="-1.01761">
        <ele>61</ele>
        <time>2010-08-13T10:50:36Z</time>
      </trkpt>
      <trkpt lat="47.26862" lon="-1.01781">
        <ele>62</ele>
        <time>2010-08-13T10:50:41Z</time>
      </trkpt>
      <trkpt lat="47.26877" lon="-1.01806">
        <ele>63</ele>
        <time>2010-08-13T10:50:46Z</time>
      </trkpt>
      <trkpt lat="47.26893" lon="-1.01836">
        <ele>65</ele>
        <time>2010-08-13T10:50:51Z</time>
      </trkpt>
      <trkpt lat="47.26909" lon="-1.01861">
        <ele>65</ele>
        <time>2010-08-13T10:50:56Z</time>
      </trkpt>
      <trkpt lat="47.26918" lon="-1.01882">
        <ele>68</ele>
        <time>2010-08-13T10:51:01Z</time>
      </trkpt>
      <trkpt lat="47.26929" lon="-1.0191">
        <ele>69</ele>
        <time>2010-08-13T10:51:06Z</time>
      </trkpt>
      <trkpt lat="47.26932" lon="-1.01944">
        <ele>71</ele>
        <time>2010-08-13T10:51:11Z</time>
      </trkpt>
      <trkpt lat="47.26922" lon="-1.01976">
        <ele>72</ele>
        <time>2010-08-13T10:51:16Z</time>
      </trkpt>
      <trkpt lat="47.26907" lon="-1.02">
        <ele>71</ele>
        <time>2010-08-13T10:51:21Z</time>
      </trkpt>
      <trkpt lat="47.26891" lon="-1.02013">
        <ele>71</ele>
        <time>2010-08-13T10:51:26Z</time>
      </trkpt>
      <trkpt lat="47.26873" lon="-1.0203">
        <ele>71</ele>
        <time>2010-08-13T10:51:31Z</time>
      </trkpt>
      <trkpt lat="47.26851" lon="-1.02051">
        <ele>71</ele>
        <time>2010-08-13T10:51:36Z</time>
      </trkpt>
      <trkpt lat="47.26821" lon="-1.02087">
        <ele>71</ele>
        <time>2010-08-13T10:51:41Z</time>
      </trkpt>
      <trkpt lat="47.26805" lon="-1.02106">
        <ele>70</ele>
        <time>2010-08-13T10:51:46Z</time>
      </trkpt>
      <trkpt lat="47.26777" lon="-1.02149">
        <ele>70</ele>
        <time>2010-08-13T10:51:51Z</time>
      </trkpt>
      <trkpt lat="47.2676" lon="-1.022">
        <ele>71</ele>
        <time>2010-08-13T10:51:56Z</time>
      </trkpt>
      <trkpt lat="47.2674" lon="-1.02258">
        <ele>70</ele>
        <time>2010-08-13T10:52:01Z</time>
      </trkpt>
      <trkpt lat="47.26726" lon="-1.02299">
        <ele>71</ele>
        <time>2010-08-13T10:52:06Z</time>
      </trkpt>
      <trkpt lat="47.26715" lon="-1.02327">
        <ele>71</ele>
        <time>2010-08-13T10:52:11Z</time>
      </trkpt>
      <trkpt lat="47.26705" lon="-1.02362">
        <ele>74</ele>
        <time>2010-08-13T10:52:16Z</time>
      </trkpt>
      <trkpt lat="47.26691" lon="-1.02402">
        <ele>75</ele>
        <time>2010-08-13T10:52:21Z</time>
      </trkpt>
      <trkpt lat="47.2668" lon="-1.02434">
        <ele>77</ele>
        <time>2010-08-13T10:52:26Z</time>
      </trkpt>
      <trkpt lat="47.26669" lon="-1.02467">
        <ele>78</ele>
        <time>2010-08-13T10:52:31Z</time>
      </trkpt>
      <trkpt lat="47.26661" lon="-1.02492">
        <ele>77</ele>
        <time>2010-08-13T10:52:36Z</time>
      </trkpt>
      <trkpt lat="47.2665" lon="-1.02524">
        <ele>79</ele>
        <time>2010-08-13T10:52:41Z</time>
      </trkpt>
      <trkpt lat="47.26634" lon="-1.02565">
        <ele>80</ele>
        <time>2010-08-13T10:52:46Z</time>
      </trkpt>
      <trkpt lat="47.26621" lon="-1.02601">
        <ele>82</ele>
        <time>2010-08-13T10:52:51Z</time>
      </trkpt>
      <trkpt lat="47.2661" lon="-1.02636">
        <ele>83</ele>
        <time>2010-08-13T10:52:56Z</time>
      </trkpt>
      <trkpt lat="47.266" lon="-1.02664">
        <ele>83</ele>
        <time>2010-08-13T10:53:01Z</time>
      </trkpt>
      <trkpt lat="47.26587" lon="-1.02707">
        <ele>85</ele>
        <time>2010-08-13T10:53:06Z</time>
      </trkpt>
      <trkpt lat="47.26575" lon="-1.02741">
        <ele>84</ele>
        <time>2010-08-13T10:53:11Z</time>
      </trkpt>
      <trkpt lat="47.26563" lon="-1.02775">
        <ele>86</ele>
        <time>2010-08-13T10:53:16Z</time>
      </trkpt>
      <trkpt lat="47.26553" lon="-1.02801">
        <ele>86</ele>
        <time>2010-08-13T10:53:21Z</time>
      </trkpt>
      <trkpt lat="47.26545" lon="-1.02838">
        <ele>88</ele>
        <time>2010-08-13T10:53:26Z</time>
      </trkpt>
      <trkpt lat="47.2653" lon="-1.02876">
        <ele>88</ele>
        <time>2010-08-13T10:53:31Z</time>
      </trkpt>
      <trkpt lat="47.26517" lon="-1.0291">
        <ele>88</ele>
        <time>2010-08-13T10:53:36Z</time>
      </trkpt>
      <trkpt lat="47.26504" lon="-1.02946">
        <ele>89</ele>
        <time>2010-08-13T10:53:41Z</time>
      </trkpt>
      <trkpt lat="47.26494" lon="-1.02973">
        <ele>88</ele>
        <time>2010-08-13T10:53:46Z</time>
      </trkpt>
      <trkpt lat="47.2648" lon="-1.03017">
        <ele>88</ele>
        <time>2010-08-13T10:53:51Z</time>
      </trkpt>
      <trkpt lat="47.26465" lon="-1.03057">
        <ele>88</ele>
        <time>2010-08-13T10:53:56Z</time>
      </trkpt>
      <trkpt lat="47.2645" lon="-1.031">
        <ele>88</ele>
        <time>2010-08-13T10:54:01Z</time>
      </trkpt>
      <trkpt lat="47.26438" lon="-1.03138">
        <ele>87</ele>
        <time>2010-08-13T10:54:06Z</time>
      </trkpt>
      <trkpt lat="47.26421" lon="-1.03187">
        <ele>86</ele>
        <time>2010-08-13T10:54:11Z</time>
      </trkpt>
      <trkpt lat="47.26403" lon="-1.03239">
        <ele>84</ele>
        <time>2010-08-13T10:54:16Z</time>
      </trkpt>
      <trkpt lat="47.26381" lon="-1.03302">
        <ele>84</ele>
        <time>2010-08-13T10:54:21Z</time>
      </trkpt>
      <trkpt lat="47.26365" lon="-1.03343">
        <ele>84</ele>
        <time>2010-08-13T10:54:26Z</time>
      </trkpt>
      <trkpt lat="47.26346" lon="-1.03397">
        <ele>83</ele>
        <time>2010-08-13T10:54:31Z</time>
      </trkpt>
      <trkpt lat="47.26327" lon="-1.03454">
        <ele>83</ele>
        <time>2010-08-13T10:54:36Z</time>
      </trkpt>
      <trkpt lat="47.26303" lon="-1.03523">
        <ele>81</ele>
        <time>2010-08-13T10:54:41Z</time>
      </trkpt>
      <trkpt lat="47.26282" lon="-1.03584">
        <ele>80</ele>
        <time>2010-08-13T10:54:46Z</time>
      </trkpt>
      <trkpt lat="47.26265" lon="-1.03636">
        <ele>79</ele>
        <time>2010-08-13T10:54:51Z</time>
      </trkpt>
      <trkpt lat="47.26241" lon="-1.03705">
        <ele>77</ele>
        <time>2010-08-13T10:54:56Z</time>
      </trkpt>
      <trkpt lat="47.26214" lon="-1.0378">
        <ele>73</ele>
        <time>2010-08-13T10:55:01Z</time>
      </trkpt>
      <trkpt lat="47.2618" lon="-1.03877">
        <ele>69</ele>
        <time>2010-08-13T10:55:06Z</time>
      </trkpt>
      <trkpt lat="47.26163" lon="-1.03948">
        <ele>63</ele>
        <time>2010-08-13T10:55:11Z</time>
      </trkpt>
      <trkpt lat="47.26175" lon="-1.04031">
        <ele>58</ele>
        <time>2010-08-13T10:55:16Z</time>
      </trkpt>
      <trkpt lat="47.26234" lon="-1.04084">
        <ele>50</ele>
        <time>2010-08-13T10:55:21Z</time>
      </trkpt>
      <trkpt lat="47.26288" lon="-1.04139">
        <ele>49</ele>
        <time>2010-08-13T10:55:26Z</time>
      </trkpt>
      <trkpt lat="47.2631" lon="-1.04162">
        <ele>49</ele>
        <time>2010-08-13T10:55:31Z</time>
      </trkpt>
      <trkpt lat="47.26313" lon="-1.04164">
        <ele>49</ele>
        <time>2010-08-13T10:55:36Z</time>
      </trkpt>
      <trkpt lat="47.26313" lon="-1.04163">
        <ele>49</ele>
        <time>2010-08-13T10:55:41Z</time>
      </trkpt>
      <trkpt lat="47.26311" lon="-1.04163">
        <ele>49</ele>
        <time>2010-08-13T10:55:46Z</time>
      </trkpt>
      <trkpt lat="47.26314" lon="-1.04164">
        <ele>49</ele>
        <time>2010-08-13T10:55:51Z</time>
      </trkpt>
      <trkpt lat="47.26331" lon="-1.04185">
        <ele>45</ele>
        <time>2010-08-13T10:55:56Z</time>
      </trkpt>
      <trkpt lat="47.26357" lon="-1.04208">
        <ele>49</ele>
        <time>2010-08-13T10:56:01Z</time>
      </trkpt>
      <trkpt lat="47.2639" lon="-1.04244">
        <ele>49</ele>
        <time>2010-08-13T10:56:06Z</time>
      </trkpt>
      <trkpt lat="47.26432" lon="-1.04308">
        <ele>49</ele>
        <time>2010-08-13T10:56:11Z</time>
      </trkpt>
      <trkpt lat="47.26447" lon="-1.04388">
        <ele>47</ele>
        <time>2010-08-13T10:56:16Z</time>
      </trkpt>
      <trkpt lat="47.26448" lon="-1.04464">
        <ele>41</ele>
        <time>2010-08-13T10:56:21Z</time>
      </trkpt>
      <trkpt lat="47.26451" lon="-1.04559">
        <ele>32</ele>
        <time>2010-08-13T10:56:26Z</time>
      </trkpt>
      <trkpt lat="47.26488" lon="-1.04651">
        <ele>29</ele>
        <time>2010-08-13T10:56:31Z</time>
      </trkpt>
      <trkpt lat="47.26517" lon="-1.047">
        <ele>32</ele>
        <time>2010-08-13T10:56:36Z</time>
      </trkpt>
      <trkpt lat="47.26534" lon="-1.04731">
        <ele>33</ele>
        <time>2010-08-13T10:56:41Z</time>
      </trkpt>
      <trkpt lat="47.26549" lon="-1.04765">
        <ele>38</ele>
        <time>2010-08-13T10:56:46Z</time>
      </trkpt>
      <trkpt lat="47.26563" lon="-1.04796">
        <ele>40</ele>
        <time>2010-08-13T10:56:51Z</time>
      </trkpt>
      <trkpt lat="47.26579" lon="-1.04828">
        <ele>44</ele>
        <time>2010-08-13T10:56:56Z</time>
      </trkpt>
      <trkpt lat="47.2659" lon="-1.04853">
        <ele>47</ele>
        <time>2010-08-13T10:57:01Z</time>
      </trkpt>
      <trkpt lat="47.26601" lon="-1.04873">
        <ele>48</ele>
        <time>2010-08-13T10:57:06Z</time>
      </trkpt>
      <trkpt lat="47.26615" lon="-1.04898">
        <ele>49</ele>
        <time>2010-08-13T10:57:11Z</time>
      </trkpt>
      <trkpt lat="47.2663" lon="-1.04928">
        <ele>52</ele>
        <time>2010-08-13T10:57:16Z</time>
      </trkpt>
      <trkpt lat="47.26643" lon="-1.04953">
        <ele>53</ele>
        <time>2010-08-13T10:57:21Z</time>
      </trkpt>
      <trkpt lat="47.26655" lon="-1.04978">
        <ele>53</ele>
        <time>2010-08-13T10:57:26Z</time>
      </trkpt>
      <trkpt lat="47.26665" lon="-1.04999">
        <ele>55</ele>
        <time>2010-08-13T10:57:31Z</time>
      </trkpt>
      <trkpt lat="47.26679" lon="-1.05024">
        <ele>56</ele>
        <time>2010-08-13T10:57:36Z</time>
      </trkpt>
      <trkpt lat="47.26696" lon="-1.05053">
        <ele>56</ele>
        <time>2010-08-13T10:57:41Z</time>
      </trkpt>
      <trkpt lat="47.26708" lon="-1.05078">
        <ele>57</ele>
        <time>2010-08-13T10:57:46Z</time>
      </trkpt>
      <trkpt lat="47.26717" lon="-1.05098">
        <ele>58</ele>
        <time>2010-08-13T10:57:51Z</time>
      </trkpt>
      <trkpt lat="47.2673" lon="-1.05122">
        <ele>58</ele>
        <time>2010-08-13T10:57:56Z</time>
      </trkpt>
      <trkpt lat="47.26743" lon="-1.05146">
        <ele>59</ele>
        <time>2010-08-13T10:58:01Z</time>
      </trkpt>
      <trkpt lat="47.26758" lon="-1.05177">
        <ele>60</ele>
        <time>2010-08-13T10:58:06Z</time>
      </trkpt>
      <trkpt lat="47.26767" lon="-1.05206">
        <ele>60</ele>
        <time>2010-08-13T10:58:11Z</time>
      </trkpt>
      <trkpt lat="47.26775" lon="-1.0523">
        <ele>60</ele>
        <time>2010-08-13T10:58:16Z</time>
      </trkpt>
      <trkpt lat="47.26781" lon="-1.05263">
        <ele>62</ele>
        <time>2010-08-13T10:58:21Z</time>
      </trkpt>
      <trkpt lat="47.26787" lon="-1.05299">
        <ele>62</ele>
        <time>2010-08-13T10:58:26Z</time>
      </trkpt>
      <trkpt lat="47.26793" lon="-1.05345">
        <ele>64</ele>
        <time>2010-08-13T10:58:31Z</time>
      </trkpt>
      <trkpt lat="47.26798" lon="-1.05376">
        <ele>64</ele>
        <time>2010-08-13T10:58:36Z</time>
      </trkpt>
      <trkpt lat="47.26806" lon="-1.05413">
        <ele>64</ele>
        <time>2010-08-13T10:58:41Z</time>
      </trkpt>
      <trkpt lat="47.26812" lon="-1.05445">
        <ele>67</ele>
        <time>2010-08-13T10:58:46Z</time>
      </trkpt>
      <trkpt lat="47.2682" lon="-1.05484">
        <ele>68</ele>
        <time>2010-08-13T10:58:51Z</time>
      </trkpt>
      <trkpt lat="47.26826" lon="-1.05517">
        <ele>71</ele>
        <time>2010-08-13T10:58:56Z</time>
      </trkpt>
      <trkpt lat="47.26831" lon="-1.05543">
        <ele>71</ele>
        <time>2010-08-13T10:59:01Z</time>
      </trkpt>
      <trkpt lat="47.26837" lon="-1.05578">
        <ele>71</ele>
        <time>2010-08-13T10:59:06Z</time>
      </trkpt>
      <trkpt lat="47.26843" lon="-1.05613">
        <ele>71</ele>
        <time>2010-08-13T10:59:11Z</time>
      </trkpt>
      <trkpt lat="47.26851" lon="-1.05655">
        <ele>72</ele>
        <time>2010-08-13T10:59:16Z</time>
      </trkpt>
      <trkpt lat="47.26857" lon="-1.05688">
        <ele>74</ele>
        <time>2010-08-13T10:59:21Z</time>
      </trkpt>
      <trkpt lat="47.26862" lon="-1.05715">
        <ele>74</ele>
        <time>2010-08-13T10:59:26Z</time>
      </trkpt>
      <trkpt lat="47.26868" lon="-1.05748">
        <ele>75</ele>
        <time>2010-08-13T10:59:31Z</time>
      </trkpt>
      <trkpt lat="47.26874" lon="-1.0579">
        <ele>77</ele>
        <time>2010-08-13T10:59:36Z</time>
      </trkpt>
      <trkpt lat="47.2688" lon="-1.05824">
        <ele>78</ele>
        <time>2010-08-13T10:59:41Z</time>
      </trkpt>
      <trkpt lat="47.26884" lon="-1.05852">
        <ele>80</ele>
        <time>2010-08-13T10:59:46Z</time>
      </trkpt>
      <trkpt lat="47.26891" lon="-1.05887">
        <ele>80</ele>
        <time>2010-08-13T10:59:51Z</time>
      </trkpt>
      <trkpt lat="47.26898" lon="-1.05924">
        <ele>82</ele>
        <time>2010-08-13T10:59:56Z</time>
      </trkpt>
      <trkpt lat="47.26906" lon="-1.05968">
        <ele>82</ele>
        <time>2010-08-13T11:00:01Z</time>
      </trkpt>
      <trkpt lat="47.26913" lon="-1.06006">
        <ele>82</ele>
        <time>2010-08-13T11:00:06Z</time>
      </trkpt>
      <trkpt lat="47.26917" lon="-1.06037">
        <ele>79</ele>
        <time>2010-08-13T11:00:11Z</time>
      </trkpt>
      <trkpt lat="47.26925" lon="-1.06078">
        <ele>81</ele>
        <time>2010-08-13T11:00:16Z</time>
      </trkpt>
      <trkpt lat="47.26934" lon="-1.06119">
        <ele>80</ele>
        <time>2010-08-13T11:00:21Z</time>
      </trkpt>
      <trkpt lat="47.26944" lon="-1.06171">
        <ele>81</ele>
        <time>2010-08-13T11:00:26Z</time>
      </trkpt>
      <trkpt lat="47.2695" lon="-1.06204">
        <ele>81</ele>
        <time>2010-08-13T11:00:31Z</time>
      </trkpt>
      <trkpt lat="47.26957" lon="-1.06245">
        <ele>81</ele>
        <time>2010-08-13T11:00:36Z</time>
      </trkpt>
      <trkpt lat="47.26965" lon="-1.06289">
        <ele>83</ele>
        <time>2010-08-13T11:00:41Z</time>
      </trkpt>
      <trkpt lat="47.26975" lon="-1.06343">
        <ele>85</ele>
        <time>2010-08-13T11:00:46Z</time>
      </trkpt>
      <trkpt lat="47.26981" lon="-1.06388">
        <ele>86</ele>
        <time>2010-08-13T11:00:51Z</time>
      </trkpt>
      <trkpt lat="47.26985" lon="-1.06423">
        <ele>87</ele>
        <time>2010-08-13T11:00:56Z</time>
      </trkpt>
      <trkpt lat="47.26992" lon="-1.06466">
        <ele>89</ele>
        <time>2010-08-13T11:01:01Z</time>
      </trkpt>
      <trkpt lat="47.27" lon="-1.06507">
        <ele>89</ele>
        <time>2010-08-13T11:01:06Z</time>
      </trkpt>
      <trkpt lat="47.27013" lon="-1.06558">
        <ele>88</ele>
        <time>2010-08-13T11:01:11Z</time>
      </trkpt>
      <trkpt lat="47.27021" lon="-1.06594">
        <ele>89</ele>
        <time>2010-08-13T11:01:16Z</time>
      </trkpt>
      <trkpt lat="47.27029" lon="-1.06641">
        <ele>90</ele>
        <time>2010-08-13T11:01:21Z</time>
      </trkpt>
      <trkpt lat="47.27038" lon="-1.06687">
        <ele>90</ele>
        <time>2010-08-13T11:01:26Z</time>
      </trkpt>
      <trkpt lat="47.27048" lon="-1.06742">
        <ele>90</ele>
        <time>2010-08-13T11:01:31Z</time>
      </trkpt>
      <trkpt lat="47.27057" lon="-1.06787">
        <ele>90</ele>
        <time>2010-08-13T11:01:36Z</time>
      </trkpt>
      <trkpt lat="47.27064" lon="-1.06822">
        <ele>90</ele>
        <time>2010-08-13T11:01:41Z</time>
      </trkpt>
      <trkpt lat="47.27071" lon="-1.06866">
        <ele>90</ele>
        <time>2010-08-13T11:01:46Z</time>
      </trkpt>
      <trkpt lat="47.27083" lon="-1.06918">
        <ele>89</ele>
        <time>2010-08-13T11:01:51Z</time>
      </trkpt>
      <trkpt lat="47.27091" lon="-1.06966">
        <ele>88</ele>
        <time>2010-08-13T11:01:56Z</time>
      </trkpt>
      <trkpt lat="47.27099" lon="-1.07023">
        <ele>87</ele>
        <time>2010-08-13T11:02:01Z</time>
      </trkpt>
      <trkpt lat="47.27109" lon="-1.07074">
        <ele>86</ele>
        <time>2010-08-13T11:02:06Z</time>
      </trkpt>
      <trkpt lat="47.27121" lon="-1.07145">
        <ele>84</ele>
        <time>2010-08-13T11:02:11Z</time>
      </trkpt>
      <trkpt lat="47.27137" lon="-1.07237">
        <ele>80</ele>
        <time>2010-08-13T11:02:16Z</time>
      </trkpt>
      <trkpt lat="47.27152" lon="-1.07316">
        <ele>79</ele>
        <time>2010-08-13T11:02:21Z</time>
      </trkpt>
      <trkpt lat="47.27165" lon="-1.07371">
        <ele>81</ele>
        <time>2010-08-13T11:02:26Z</time>
      </trkpt>
      <trkpt lat="47.27183" lon="-1.07411">
        <ele>83</ele>
        <time>2010-08-13T11:02:31Z</time>
      </trkpt>
      <trkpt lat="47.27199" lon="-1.07435">
        <ele>86</ele>
        <time>2010-08-13T11:02:36Z</time>
      </trkpt>
      <trkpt lat="47.27218" lon="-1.07467">
        <ele>86</ele>
        <time>2010-08-13T11:02:41Z</time>
      </trkpt>
      <trkpt lat="47.2723" lon="-1.07495">
        <ele>87</ele>
        <time>2010-08-13T11:02:46Z</time>
      </trkpt>
      <trkpt lat="47.27237" lon="-1.0752">
        <ele>88</ele>
        <time>2010-08-13T11:02:51Z</time>
      </trkpt>
      <trkpt lat="47.27245" lon="-1.07553">
        <ele>88</ele>
        <time>2010-08-13T11:02:56Z</time>
      </trkpt>
      <trkpt lat="47.27251" lon="-1.07592">
        <ele>88</ele>
        <time>2010-08-13T11:03:01Z</time>
      </trkpt>
      <trkpt lat="47.27251" lon="-1.07627">
        <ele>89</ele>
        <time>2010-08-13T11:03:06Z</time>
      </trkpt>
      <trkpt lat="47.27247" lon="-1.07656">
        <ele>90</ele>
        <time>2010-08-13T11:03:11Z</time>
      </trkpt>
      <trkpt lat="47.27242" lon="-1.07691">
        <ele>90</ele>
        <time>2010-08-13T11:03:16Z</time>
      </trkpt>
      <trkpt lat="47.27242" lon="-1.07736">
        <ele>90</ele>
        <time>2010-08-13T11:03:21Z</time>
      </trkpt>
      <trkpt lat="47.27244" lon="-1.07777">
        <ele>90</ele>
        <time>2010-08-13T11:03:26Z</time>
      </trkpt>
      <trkpt lat="47.27251" lon="-1.07821">
        <ele>90</ele>
        <time>2010-08-13T11:03:31Z</time>
      </trkpt>
      <trkpt lat="47.27258" lon="-1.07858">
        <ele>90</ele>
        <time>2010-08-13T11:03:36Z</time>
      </trkpt>
      <trkpt lat="47.27269" lon="-1.07904">
        <ele>90</ele>
        <time>2010-08-13T11:03:41Z</time>
      </trkpt>
      <trkpt lat="47.27282" lon="-1.07959">
        <ele>91</ele>
        <time>2010-08-13T11:03:46Z</time>
      </trkpt>
      <trkpt lat="47.27291" lon="-1.08003">
        <ele>92</ele>
        <time>2010-08-13T11:03:51Z</time>
      </trkpt>
      <trkpt lat="47.27301" lon="-1.08044">
        <ele>92</ele>
        <time>2010-08-13T11:03:56Z</time>
      </trkpt>
      <trkpt lat="47.27308" lon="-1.08075">
        <ele>92</ele>
        <time>2010-08-13T11:04:01Z</time>
      </trkpt>
      <trkpt lat="47.27316" lon="-1.08114">
        <ele>93</ele>
        <time>2010-08-13T11:04:06Z</time>
      </trkpt>
      <trkpt lat="47.27326" lon="-1.08162">
        <ele>92</ele>
        <time>2010-08-13T11:04:11Z</time>
      </trkpt>
      <trkpt lat="47.27334" lon="-1.08202">
        <ele>92</ele>
        <time>2010-08-13T11:04:16Z</time>
      </trkpt>
      <trkpt lat="47.27341" lon="-1.08234">
        <ele>93</ele>
        <time>2010-08-13T11:04:21Z</time>
      </trkpt>
      <trkpt lat="47.2735" lon="-1.08275">
        <ele>94</ele>
        <time>2010-08-13T11:04:26Z</time>
      </trkpt>
      <trkpt lat="47.27359" lon="-1.08317">
        <ele>94</ele>
        <time>2010-08-13T11:04:31Z</time>
      </trkpt>
      <trkpt lat="47.27369" lon="-1.08365">
        <ele>95</ele>
        <time>2010-08-13T11:04:36Z</time>
      </trkpt>
      <trkpt lat="47.27376" lon="-1.08397">
        <ele>95</ele>
        <time>2010-08-13T11:04:41Z</time>
      </trkpt>
      <trkpt lat="47.27384" lon="-1.08437">
        <ele>96</ele>
        <time>2010-08-13T11:04:46Z</time>
      </trkpt>
      <trkpt lat="47.27392" lon="-1.08477">
        <ele>96</ele>
        <time>2010-08-13T11:04:51Z</time>
      </trkpt>
      <trkpt lat="47.27403" lon="-1.08525">
        <ele>97</ele>
        <time>2010-08-13T11:04:56Z</time>
      </trkpt>
      <trkpt lat="47.27411" lon="-1.08566">
        <ele>97</ele>
        <time>2010-08-13T11:05:01Z</time>
      </trkpt>
      <trkpt lat="47.27419" lon="-1.08601">
        <ele>96</ele>
        <time>2010-08-13T11:05:06Z</time>
      </trkpt>
      <trkpt lat="47.27429" lon="-1.08647">
        <ele>96</ele>
        <time>2010-08-13T11:05:11Z</time>
      </trkpt>
      <trkpt lat="47.2744" lon="-1.08698">
        <ele>94</ele>
        <time>2010-08-13T11:05:16Z</time>
      </trkpt>
      <trkpt lat="47.27451" lon="-1.08765">
        <ele>92</ele>
        <time>2010-08-13T11:05:21Z</time>
      </trkpt>
      <trkpt lat="47.27464" lon="-1.08823">
        <ele>92</ele>
        <time>2010-08-13T11:05:26Z</time>
      </trkpt>
      <trkpt lat="47.27475" lon="-1.0887">
        <ele>91</ele>
        <time>2010-08-13T11:05:31Z</time>
      </trkpt>
      <trkpt lat="47.27488" lon="-1.08926">
        <ele>91</ele>
        <time>2010-08-13T11:05:36Z</time>
      </trkpt>
      <trkpt lat="47.27499" lon="-1.08978">
        <ele>91</ele>
        <time>2010-08-13T11:05:41Z</time>
      </trkpt>
      <trkpt lat="47.27512" lon="-1.09036">
        <ele>93</ele>
        <time>2010-08-13T11:05:46Z</time>
      </trkpt>
      <trkpt lat="47.27521" lon="-1.09075">
        <ele>93</ele>
        <time>2010-08-13T11:05:51Z</time>
      </trkpt>
      <trkpt lat="47.27531" lon="-1.09124">
        <ele>93</ele>
        <time>2010-08-13T11:05:56Z</time>
      </trkpt>
      <trkpt lat="47.27542" lon="-1.09174">
        <ele>93</ele>
        <time>2010-08-13T11:06:01Z</time>
      </trkpt>
      <trkpt lat="47.27556" lon="-1.09234">
        <ele>92</ele>
        <time>2010-08-13T11:06:06Z</time>
      </trkpt>
      <trkpt lat="47.27567" lon="-1.09286">
        <ele>91</ele>
        <time>2010-08-13T11:06:11Z</time>
      </trkpt>
      <trkpt lat="47.27575" lon="-1.09329">
        <ele>90</ele>
        <time>2010-08-13T11:06:16Z</time>
      </trkpt>
      <trkpt lat="47.27587" lon="-1.09386">
        <ele>90</ele>
        <time>2010-08-13T11:06:21Z</time>
      </trkpt>
      <trkpt lat="47.27602" lon="-1.09456">
        <ele>89</ele>
        <time>2010-08-13T11:06:26Z</time>
      </trkpt>
      <trkpt lat="47.27614" lon="-1.09515">
        <ele>88</ele>
        <time>2010-08-13T11:06:31Z</time>
      </trkpt>
      <trkpt lat="47.27625" lon="-1.09563">
        <ele>87</ele>
        <time>2010-08-13T11:06:36Z</time>
      </trkpt>
      <trkpt lat="47.27637" lon="-1.09624">
        <ele>86</ele>
        <time>2010-08-13T11:06:41Z</time>
      </trkpt>
      <trkpt lat="47.2765" lon="-1.09686">
        <ele>85</ele>
        <time>2010-08-13T11:06:46Z</time>
      </trkpt>
      <trkpt lat="47.27666" lon="-1.09762">
        <ele>84</ele>
        <time>2010-08-13T11:06:51Z</time>
      </trkpt>
      <trkpt lat="47.2768" lon="-1.09827">
        <ele>81</ele>
        <time>2010-08-13T11:06:56Z</time>
      </trkpt>
      <trkpt lat="47.27692" lon="-1.09881">
        <ele>80</ele>
        <time>2010-08-13T11:07:01Z</time>
      </trkpt>
      <trkpt lat="47.27705" lon="-1.09948">
        <ele>77</ele>
        <time>2010-08-13T11:07:06Z</time>
      </trkpt>
      <trkpt lat="47.27719" lon="-1.1003">
        <ele>75</ele>
        <time>2010-08-13T11:07:11Z</time>
      </trkpt>
      <trkpt lat="47.27726" lon="-1.10105">
        <ele>74</ele>
        <time>2010-08-13T11:07:16Z</time>
      </trkpt>
      <trkpt lat="47.27732" lon="-1.10169">
        <ele>72</ele>
        <time>2010-08-13T11:07:21Z</time>
      </trkpt>
      <trkpt lat="47.27738" lon="-1.10255">
        <ele>69</ele>
        <time>2010-08-13T11:07:26Z</time>
      </trkpt>
      <trkpt lat="47.27748" lon="-1.10346">
        <ele>65</ele>
        <time>2010-08-13T11:07:31Z</time>
      </trkpt>
      <trkpt lat="47.27767" lon="-1.10446">
        <ele>60</ele>
        <time>2010-08-13T11:07:36Z</time>
      </trkpt>
      <trkpt lat="47.27782" lon="-1.10516">
        <ele>64</ele>
        <time>2010-08-13T11:07:41Z</time>
      </trkpt>
      <trkpt lat="47.27794" lon="-1.1056">
        <ele>66</ele>
        <time>2010-08-13T11:07:46Z</time>
      </trkpt>
      <trkpt lat="47.27807" lon="-1.10601">
        <ele>71</ele>
        <time>2010-08-13T11:07:51Z</time>
      </trkpt>
      <trkpt lat="47.27818" lon="-1.10634">
        <ele>72</ele>
        <time>2010-08-13T11:07:56Z</time>
      </trkpt>
      <trkpt lat="47.27829" lon="-1.10669">
        <ele>74</ele>
        <time>2010-08-13T11:08:01Z</time>
      </trkpt>
      <trkpt lat="47.27838" lon="-1.10695">
        <ele>74</ele>
        <time>2010-08-13T11:08:06Z</time>
      </trkpt>
      <trkpt lat="47.27849" lon="-1.10727">
        <ele>75</ele>
        <time>2010-08-13T11:08:11Z</time>
      </trkpt>
      <trkpt lat="47.2786" lon="-1.10758">
        <ele>77</ele>
        <time>2010-08-13T11:08:16Z</time>
      </trkpt>
      <trkpt lat="47.2787" lon="-1.1079">
        <ele>78</ele>
        <time>2010-08-13T11:08:21Z</time>
      </trkpt>
      <trkpt lat="47.27883" lon="-1.10828">
        <ele>78</ele>
        <time>2010-08-13T11:08:26Z</time>
      </trkpt>
      <trkpt lat="47.27892" lon="-1.10854">
        <ele>79</ele>
        <time>2010-08-13T11:08:31Z</time>
      </trkpt>
      <trkpt lat="47.27902" lon="-1.1089">
        <ele>79</ele>
        <time>2010-08-13T11:08:36Z</time>
      </trkpt>
      <trkpt lat="47.27912" lon="-1.10928">
        <ele>79</ele>
        <time>2010-08-13T11:08:41Z</time>
      </trkpt>
      <trkpt lat="47.27925" lon="-1.10981">
        <ele>76</ele>
        <time>2010-08-13T11:08:46Z</time>
      </trkpt>
      <trkpt lat="47.27936" lon="-1.11033">
        <ele>75</ele>
        <time>2010-08-13T11:08:51Z</time>
      </trkpt>
      <trkpt lat="47.27945" lon="-1.11077">
        <ele>75</ele>
        <time>2010-08-13T11:08:56Z</time>
      </trkpt>
      <trkpt lat="47.27952" lon="-1.11133">
        <ele>76</ele>
        <time>2010-08-13T11:09:01Z</time>
      </trkpt>
      <trkpt lat="47.27964" lon="-1.11195">
        <ele>79</ele>
        <time>2010-08-13T11:09:06Z</time>
      </trkpt>
      <trkpt lat="47.27973" lon="-1.11234">
        <ele>79</ele>
        <time>2010-08-13T11:09:11Z</time>
      </trkpt>
      <trkpt lat="47.27981" lon="-1.11268">
        <ele>81</ele>
        <time>2010-08-13T11:09:16Z</time>
      </trkpt>
      <trkpt lat="47.27987" lon="-1.11294">
        <ele>81</ele>
        <time>2010-08-13T11:09:21Z</time>
      </trkpt>
      <trkpt lat="47.27995" lon="-1.11333">
        <ele>81</ele>
        <time>2010-08-13T11:09:26Z</time>
      </trkpt>
      <trkpt lat="47.28" lon="-1.11367">
        <ele>83</ele>
        <time>2010-08-13T11:09:31Z</time>
      </trkpt>
      <trkpt lat="47.28008" lon="-1.114">
        <ele>82</ele>
        <time>2010-08-13T11:09:36Z</time>
      </trkpt>
      <trkpt lat="47.28014" lon="-1.11428">
        <ele>84</ele>
        <time>2010-08-13T11:09:41Z</time>
      </trkpt>
      <trkpt lat="47.28025" lon="-1.11467">
        <ele>84</ele>
        <time>2010-08-13T11:09:46Z</time>
      </trkpt>
      <trkpt lat="47.28043" lon="-1.11525">
        <ele>85</ele>
        <time>2010-08-13T11:09:51Z</time>
      </trkpt>
      <trkpt lat="47.28058" lon="-1.11584">
        <ele>85</ele>
        <time>2010-08-13T11:09:56Z</time>
      </trkpt>
      <trkpt lat="47.28068" lon="-1.11634">
        <ele>85</ele>
        <time>2010-08-13T11:10:01Z</time>
      </trkpt>
      <trkpt lat="47.28076" lon="-1.11663">
        <ele>86</ele>
        <time>2010-08-13T11:10:06Z</time>
      </trkpt>
      <trkpt lat="47.28085" lon="-1.11694">
        <ele>87</ele>
        <time>2010-08-13T11:10:11Z</time>
      </trkpt>
      <trkpt lat="47.28093" lon="-1.11732">
        <ele>87</ele>
        <time>2010-08-13T11:10:16Z</time>
      </trkpt>
      <trkpt lat="47.28097" lon="-1.11765">
        <ele>88</ele>
        <time>2010-08-13T11:10:21Z</time>
      </trkpt>
      <trkpt lat="47.28099" lon="-1.11791">
        <ele>89</ele>
        <time>2010-08-13T11:10:26Z</time>
      </trkpt>
      <trkpt lat="47.28102" lon="-1.11823">
        <ele>90</ele>
        <time>2010-08-13T11:10:31Z</time>
      </trkpt>
      <trkpt lat="47.28105" lon="-1.11856">
        <ele>91</ele>
        <time>2010-08-13T11:10:36Z</time>
      </trkpt>
      <trkpt lat="47.28106" lon="-1.11898">
        <ele>92</ele>
        <time>2010-08-13T11:10:41Z</time>
      </trkpt>
      <trkpt lat="47.28107" lon="-1.11932">
        <ele>93</ele>
        <time>2010-08-13T11:10:46Z</time>
      </trkpt>
      <trkpt lat="47.28109" lon="-1.1196">
        <ele>94</ele>
        <time>2010-08-13T11:10:51Z</time>
      </trkpt>
      <trkpt lat="47.28113" lon="-1.11995">
        <ele>94</ele>
        <time>2010-08-13T11:10:56Z</time>
      </trkpt>
      <trkpt lat="47.28116" lon="-1.12038">
        <ele>95</ele>
        <time>2010-08-13T11:11:01Z</time>
      </trkpt>
      <trkpt lat="47.28118" lon="-1.12072">
        <ele>96</ele>
        <time>2010-08-13T11:11:06Z</time>
      </trkpt>
      <trkpt lat="47.28118" lon="-1.121">
        <ele>97</ele>
        <time>2010-08-13T11:11:11Z</time>
      </trkpt>
      <trkpt lat="47.28123" lon="-1.12135">
        <ele>97</ele>
        <time>2010-08-13T11:11:16Z</time>
      </trkpt>
      <trkpt lat="47.28125" lon="-1.12171">
        <ele>98</ele>
        <time>2010-08-13T11:11:21Z</time>
      </trkpt>
      <trkpt lat="47.28126" lon="-1.12218">
        <ele>98</ele>
        <time>2010-08-13T11:11:26Z</time>
      </trkpt>
      <trkpt lat="47.28128" lon="-1.12249">
        <ele>98</ele>
        <time>2010-08-13T11:11:31Z</time>
      </trkpt>
      <trkpt lat="47.28131" lon="-1.12289">
        <ele>98</ele>
        <time>2010-08-13T11:11:36Z</time>
      </trkpt>
      <trkpt lat="47.28134" lon="-1.12329">
        <ele>98</ele>
        <time>2010-08-13T11:11:41Z</time>
      </trkpt>
      <trkpt lat="47.28137" lon="-1.12377">
        <ele>99</ele>
        <time>2010-08-13T11:11:46Z</time>
      </trkpt>
      <trkpt lat="47.28137" lon="-1.12418">
        <ele>100</ele>
        <time>2010-08-13T11:11:51Z</time>
      </trkpt>
      <trkpt lat="47.2814" lon="-1.12451">
        <ele>100</ele>
        <time>2010-08-13T11:11:56Z</time>
      </trkpt>
      <trkpt lat="47.28142" lon="-1.12493">
        <ele>100</ele>
        <time>2010-08-13T11:12:01Z</time>
      </trkpt>
      <trkpt lat="47.28144" lon="-1.12536">
        <ele>100</ele>
        <time>2010-08-13T11:12:06Z</time>
      </trkpt>
      <trkpt lat="47.28148" lon="-1.12589">
        <ele>102</ele>
        <time>2010-08-13T11:12:11Z</time>
      </trkpt>
      <trkpt lat="47.28151" lon="-1.12634">
        <ele>102</ele>
        <time>2010-08-13T11:12:16Z</time>
      </trkpt>
      <trkpt lat="47.28153" lon="-1.1267">
        <ele>103</ele>
        <time>2010-08-13T11:12:21Z</time>
      </trkpt>
      <trkpt lat="47.28156" lon="-1.12715">
        <ele>104</ele>
        <time>2010-08-13T11:12:26Z</time>
      </trkpt>
      <trkpt lat="47.28159" lon="-1.12768">
        <ele>106</ele>
        <time>2010-08-13T11:12:31Z</time>
      </trkpt>
      <trkpt lat="47.28161" lon="-1.12811">
        <ele>106</ele>
        <time>2010-08-13T11:12:36Z</time>
      </trkpt>
      <trkpt lat="47.28163" lon="-1.12854">
        <ele>106</ele>
        <time>2010-08-13T11:12:41Z</time>
      </trkpt>
      <trkpt lat="47.28165" lon="-1.12889">
        <ele>105</ele>
        <time>2010-08-13T11:12:46Z</time>
      </trkpt>
      <trkpt lat="47.28168" lon="-1.12934">
        <ele>105</ele>
        <time>2010-08-13T11:12:51Z</time>
      </trkpt>
      <trkpt lat="47.2817" lon="-1.12991">
        <ele>105</ele>
        <time>2010-08-13T11:12:56Z</time>
      </trkpt>
      <trkpt lat="47.28175" lon="-1.13042">
        <ele>104</ele>
        <time>2010-08-13T11:13:01Z</time>
      </trkpt>
      <trkpt lat="47.28177" lon="-1.13085">
        <ele>103</ele>
        <time>2010-08-13T11:13:06Z</time>
      </trkpt>
      <trkpt lat="47.28181" lon="-1.13143">
        <ele>103</ele>
        <time>2010-08-13T11:13:11Z</time>
      </trkpt>
      <trkpt lat="47.28185" lon="-1.13204">
        <ele>102</ele>
        <time>2010-08-13T11:13:16Z</time>
      </trkpt>
      <trkpt lat="47.28188" lon="-1.13277">
        <ele>100</ele>
        <time>2010-08-13T11:13:21Z</time>
      </trkpt>
      <trkpt lat="47.28192" lon="-1.13327">
        <ele>99</ele>
        <time>2010-08-13T11:13:26Z</time>
      </trkpt>
      <trkpt lat="47.28197" lon="-1.13388">
        <ele>96</ele>
        <time>2010-08-13T11:13:31Z</time>
      </trkpt>
      <trkpt lat="47.28201" lon="-1.13457">
        <ele>95</ele>
        <time>2010-08-13T11:13:36Z</time>
      </trkpt>
      <trkpt lat="47.28207" lon="-1.13542">
        <ele>95</ele>
        <time>2010-08-13T11:13:41Z</time>
      </trkpt>
      <trkpt lat="47.28209" lon="-1.13608">
        <ele>94</ele>
        <time>2010-08-13T11:13:46Z</time>
      </trkpt>
      <trkpt lat="47.28215" lon="-1.13657">
        <ele>94</ele>
        <time>2010-08-13T11:13:51Z</time>
      </trkpt>
      <trkpt lat="47.28233" lon="-1.13705">
        <ele>93</ele>
        <time>2010-08-13T11:13:56Z</time>
      </trkpt>
      <trkpt lat="47.28248" lon="-1.13748">
        <ele>94</ele>
        <time>2010-08-13T11:14:01Z</time>
      </trkpt>
      <trkpt lat="47.2823" lon="-1.13805">
        <ele>92</ele>
        <time>2010-08-13T11:14:06Z</time>
      </trkpt>
      <trkpt lat="47.28228" lon="-1.13851">
        <ele>91</ele>
        <time>2010-08-13T11:14:11Z</time>
      </trkpt>
      <trkpt lat="47.2823" lon="-1.13912">
        <ele>91</ele>
        <time>2010-08-13T11:14:16Z</time>
      </trkpt>
      <trkpt lat="47.28233" lon="-1.13977">
        <ele>91</ele>
        <time>2010-08-13T11:14:21Z</time>
      </trkpt>
      <trkpt lat="47.28239" lon="-1.14055">
        <ele>90</ele>
        <time>2010-08-13T11:14:26Z</time>
      </trkpt>
      <trkpt lat="47.28243" lon="-1.14119">
        <ele>90</ele>
        <time>2010-08-13T11:14:31Z</time>
      </trkpt>
      <trkpt lat="47.28246" lon="-1.14168">
        <ele>90</ele>
        <time>2010-08-13T11:14:36Z</time>
      </trkpt>
      <trkpt lat="47.28249" lon="-1.14227">
        <ele>89</ele>
        <time>2010-08-13T11:14:41Z</time>
      </trkpt>
      <trkpt lat="47.28253" lon="-1.1429">
        <ele>88</ele>
        <time>2010-08-13T11:14:46Z</time>
      </trkpt>
      <trkpt lat="47.28258" lon="-1.14369">
        <ele>87</ele>
        <time>2010-08-13T11:14:51Z</time>
      </trkpt>
      <trkpt lat="47.28262" lon="-1.1443">
        <ele>87</ele>
        <time>2010-08-13T11:14:56Z</time>
      </trkpt>
      <trkpt lat="47.28265" lon="-1.14474">
        <ele>87</ele>
        <time>2010-08-13T11:15:01Z</time>
      </trkpt>
      <trkpt lat="47.28268" lon="-1.14527">
        <ele>86</ele>
        <time>2010-08-13T11:15:06Z</time>
      </trkpt>
      <trkpt lat="47.28272" lon="-1.14592">
        <ele>86</ele>
        <time>2010-08-13T11:15:11Z</time>
      </trkpt>
      <trkpt lat="47.28275" lon="-1.14648">
        <ele>86</ele>
        <time>2010-08-13T11:15:16Z</time>
      </trkpt>
      <trkpt lat="47.28278" lon="-1.14695">
        <ele>86</ele>
        <time>2010-08-13T11:15:21Z</time>
      </trkpt>
      <trkpt lat="47.28281" lon="-1.14756">
        <ele>86</ele>
        <time>2010-08-13T11:15:26Z</time>
      </trkpt>
      <trkpt lat="47.28285" lon="-1.14813">
        <ele>87</ele>
        <time>2010-08-13T11:15:31Z</time>
      </trkpt>
      <trkpt lat="47.28288" lon="-1.14863">
        <ele>87</ele>
        <time>2010-08-13T11:15:36Z</time>
      </trkpt>
      <trkpt lat="47.28292" lon="-1.14921">
        <ele>87</ele>
        <time>2010-08-13T11:15:41Z</time>
      </trkpt>
      <trkpt lat="47.28296" lon="-1.14959">
        <ele>87</ele>
        <time>2010-08-13T11:15:46Z</time>
      </trkpt>
      <trkpt lat="47.28303" lon="-1.15008">
        <ele>87</ele>
        <time>2010-08-13T11:15:51Z</time>
      </trkpt>
      <trkpt lat="47.28315" lon="-1.15062">
        <ele>87</ele>
        <time>2010-08-13T11:15:56Z</time>
      </trkpt>
      <trkpt lat="47.2833" lon="-1.15132">
        <ele>87</ele>
        <time>2010-08-13T11:16:01Z</time>
      </trkpt>
      <trkpt lat="47.28342" lon="-1.15179">
        <ele>85</ele>
        <time>2010-08-13T11:16:06Z</time>
      </trkpt>
      <trkpt lat="47.28355" lon="-1.15239">
        <ele>85</ele>
        <time>2010-08-13T11:16:11Z</time>
      </trkpt>
      <trkpt lat="47.28368" lon="-1.15291">
        <ele>86</ele>
        <time>2010-08-13T11:16:16Z</time>
      </trkpt>
      <trkpt lat="47.28378" lon="-1.15345">
        <ele>87</ele>
        <time>2010-08-13T11:16:21Z</time>
      </trkpt>
      <trkpt lat="47.28381" lon="-1.15388">
        <ele>88</ele>
        <time>2010-08-13T11:16:26Z</time>
      </trkpt>
      <trkpt lat="47.28381" lon="-1.15421">
        <ele>90</ele>
        <time>2010-08-13T11:16:31Z</time>
      </trkpt>
      <trkpt lat="47.28377" lon="-1.15461">
        <ele>91</ele>
        <time>2010-08-13T11:16:36Z</time>
      </trkpt>
      <trkpt lat="47.28369" lon="-1.15509">
        <ele>93</ele>
        <time>2010-08-13T11:16:41Z</time>
      </trkpt>
      <trkpt lat="47.28364" lon="-1.15549">
        <ele>93</ele>
        <time>2010-08-13T11:16:46Z</time>
      </trkpt>
      <trkpt lat="47.2836" lon="-1.15582">
        <ele>94</ele>
        <time>2010-08-13T11:16:51Z</time>
      </trkpt>
      <trkpt lat="47.28355" lon="-1.15625">
        <ele>93</ele>
        <time>2010-08-13T11:16:56Z</time>
      </trkpt>
      <trkpt lat="47.28348" lon="-1.15667">
        <ele>93</ele>
        <time>2010-08-13T11:17:01Z</time>
      </trkpt>
      <trkpt lat="47.28341" lon="-1.15716">
        <ele>92</ele>
        <time>2010-08-13T11:17:06Z</time>
      </trkpt>
      <trkpt lat="47.28338" lon="-1.15759">
        <ele>92</ele>
        <time>2010-08-13T11:17:11Z</time>
      </trkpt>
      <trkpt lat="47.28336" lon="-1.15796">
        <ele>93</ele>
        <time>2010-08-13T11:17:16Z</time>
      </trkpt>
      <trkpt lat="47.28336" lon="-1.15845">
        <ele>93</ele>
        <time>2010-08-13T11:17:21Z</time>
      </trkpt>
      <trkpt lat="47.2834" lon="-1.15896">
        <ele>92</ele>
        <time>2010-08-13T11:17:26Z</time>
      </trkpt>
      <trkpt lat="47.28345" lon="-1.15964">
        <ele>90</ele>
        <time>2010-08-13T11:17:31Z</time>
      </trkpt>
      <trkpt lat="47.28348" lon="-1.16013">
        <ele>88</ele>
        <time>2010-08-13T11:17:36Z</time>
      </trkpt>
      <trkpt lat="47.28352" lon="-1.16078">
        <ele>87</ele>
        <time>2010-08-13T11:17:41Z</time>
      </trkpt>
      <trkpt lat="47.28357" lon="-1.1615">
        <ele>85</ele>
        <time>2010-08-13T11:17:46Z</time>
      </trkpt>
      <trkpt lat="47.28363" lon="-1.16245">
        <ele>82</ele>
        <time>2010-08-13T11:17:51Z</time>
      </trkpt>
      <trkpt lat="47.28369" lon="-1.16327">
        <ele>82</ele>
        <time>2010-08-13T11:17:56Z</time>
      </trkpt>
      <trkpt lat="47.28371" lon="-1.16377">
        <ele>83</ele>
        <time>2010-08-13T11:18:01Z</time>
      </trkpt>
      <trkpt lat="47.28374" lon="-1.16424">
        <ele>84</ele>
        <time>2010-08-13T11:18:06Z</time>
      </trkpt>
      <trkpt lat="47.28377" lon="-1.16478">
        <ele>84</ele>
        <time>2010-08-13T11:18:11Z</time>
      </trkpt>
      <trkpt lat="47.2838" lon="-1.16522">
        <ele>85</ele>
        <time>2010-08-13T11:18:16Z</time>
      </trkpt>
      <trkpt lat="47.28382" lon="-1.16567">
        <ele>86</ele>
        <time>2010-08-13T11:18:21Z</time>
      </trkpt>
      <trkpt lat="47.28385" lon="-1.16603">
        <ele>87</ele>
        <time>2010-08-13T11:18:26Z</time>
      </trkpt>
      <trkpt lat="47.28387" lon="-1.16646">
        <ele>88</ele>
        <time>2010-08-13T11:18:31Z</time>
      </trkpt>
      <trkpt lat="47.28389" lon="-1.16688">
        <ele>88</ele>
        <time>2010-08-13T11:18:36Z</time>
      </trkpt>
      <trkpt lat="47.28392" lon="-1.16739">
        <ele>88</ele>
        <time>2010-08-13T11:18:41Z</time>
      </trkpt>
      <trkpt lat="47.28394" lon="-1.16776">
        <ele>88</ele>
        <time>2010-08-13T11:18:46Z</time>
      </trkpt>
      <trkpt lat="47.28397" lon="-1.16823">
        <ele>89</ele>
        <time>2010-08-13T11:18:51Z</time>
      </trkpt>
      <trkpt lat="47.28401" lon="-1.16871">
        <ele>89</ele>
        <time>2010-08-13T11:18:56Z</time>
      </trkpt>
      <trkpt lat="47.28404" lon="-1.16931">
        <ele>89</ele>
        <time>2010-08-13T11:19:01Z</time>
      </trkpt>
      <trkpt lat="47.28408" lon="-1.16982">
        <ele>88</ele>
        <time>2010-08-13T11:19:06Z</time>
      </trkpt>
      <trkpt lat="47.2841" lon="-1.17024">
        <ele>88</ele>
        <time>2010-08-13T11:19:11Z</time>
      </trkpt>
      <trkpt lat="47.28413" lon="-1.17079">
        <ele>87</ele>
        <time>2010-08-13T11:19:16Z</time>
      </trkpt>
      <trkpt lat="47.28417" lon="-1.17146">
        <ele>87</ele>
        <time>2010-08-13T11:19:21Z</time>
      </trkpt>
      <trkpt lat="47.28421" lon="-1.17198">
        <ele>87</ele>
        <time>2010-08-13T11:19:26Z</time>
      </trkpt>
      <trkpt lat="47.28423" lon="-1.17235">
        <ele>88</ele>
        <time>2010-08-13T11:19:31Z</time>
      </trkpt>
      <trkpt lat="47.28425" lon="-1.17277">
        <ele>89</ele>
        <time>2010-08-13T11:19:36Z</time>
      </trkpt>
      <trkpt lat="47.28427" lon="-1.17319">
        <ele>89</ele>
        <time>2010-08-13T11:19:41Z</time>
      </trkpt>
      <trkpt lat="47.28432" lon="-1.17371">
        <ele>89</ele>
        <time>2010-08-13T11:19:46Z</time>
      </trkpt>
      <trkpt lat="47.28435" lon="-1.17417">
        <ele>90</ele>
        <time>2010-08-13T11:19:51Z</time>
      </trkpt>
      <trkpt lat="47.28438" lon="-1.17456">
        <ele>90</ele>
        <time>2010-08-13T11:19:56Z</time>
      </trkpt>
      <trkpt lat="47.2844" lon="-1.17503">
        <ele>92</ele>
        <time>2010-08-13T11:20:01Z</time>
      </trkpt>
      <trkpt lat="47.28442" lon="-1.17545">
        <ele>92</ele>
        <time>2010-08-13T11:20:06Z</time>
      </trkpt>
      <trkpt lat="47.28446" lon="-1.17589">
        <ele>94</ele>
        <time>2010-08-13T11:20:11Z</time>
      </trkpt>
      <trkpt lat="47.28448" lon="-1.17621">
        <ele>94</ele>
        <time>2010-08-13T11:20:16Z</time>
      </trkpt>
      <trkpt lat="47.2845" lon="-1.17659">
        <ele>94</ele>
        <time>2010-08-13T11:20:21Z</time>
      </trkpt>
      <trkpt lat="47.28452" lon="-1.17697">
        <ele>95</ele>
        <time>2010-08-13T11:20:26Z</time>
      </trkpt>
      <trkpt lat="47.28461" lon="-1.17742">
        <ele>96</ele>
        <time>2010-08-13T11:20:31Z</time>
      </trkpt>
      <trkpt lat="47.28466" lon="-1.17781">
        <ele>95</ele>
        <time>2010-08-13T11:20:36Z</time>
      </trkpt>
      <trkpt lat="47.2846" lon="-1.17816">
        <ele>95</ele>
        <time>2010-08-13T11:20:41Z</time>
      </trkpt>
      <trkpt lat="47.28462" lon="-1.17864">
        <ele>95</ele>
        <time>2010-08-13T11:20:46Z</time>
      </trkpt>
      <trkpt lat="47.28466" lon="-1.17915">
        <ele>95</ele>
        <time>2010-08-13T11:20:51Z</time>
      </trkpt>
      <trkpt lat="47.2847" lon="-1.17982">
        <ele>94</ele>
        <time>2010-08-13T11:20:56Z</time>
      </trkpt>
      <trkpt lat="47.28474" lon="-1.18038">
        <ele>94</ele>
        <time>2010-08-13T11:21:01Z</time>
      </trkpt>
      <trkpt lat="47.28478" lon="-1.18085">
        <ele>94</ele>
        <time>2010-08-13T11:21:06Z</time>
      </trkpt>
      <trkpt lat="47.28482" lon="-1.18142">
        <ele>94</ele>
        <time>2010-08-13T11:21:11Z</time>
      </trkpt>
      <trkpt lat="47.28484" lon="-1.18209">
        <ele>93</ele>
        <time>2010-08-13T11:21:16Z</time>
      </trkpt>
      <trkpt lat="47.28488" lon="-1.18263">
        <ele>91</ele>
        <time>2010-08-13T11:21:21Z</time>
      </trkpt>
      <trkpt lat="47.28491" lon="-1.18308">
        <ele>91</ele>
        <time>2010-08-13T11:21:26Z</time>
      </trkpt>
      <trkpt lat="47.28495" lon="-1.18364">
        <ele>91</ele>
        <time>2010-08-13T11:21:31Z</time>
      </trkpt>
      <trkpt lat="47.28499" lon="-1.18431">
        <ele>91</ele>
        <time>2010-08-13T11:21:36Z</time>
      </trkpt>
      <trkpt lat="47.285" lon="-1.18487">
        <ele>91</ele>
        <time>2010-08-13T11:21:41Z</time>
      </trkpt>
      <trkpt lat="47.28504" lon="-1.18542">
        <ele>91</ele>
        <time>2010-08-13T11:21:46Z</time>
      </trkpt>
      <trkpt lat="47.28507" lon="-1.18587">
        <ele>92</ele>
        <time>2010-08-13T11:21:51Z</time>
      </trkpt>
      <trkpt lat="47.28511" lon="-1.18641">
        <ele>92</ele>
        <time>2010-08-13T11:21:56Z</time>
      </trkpt>
      <trkpt lat="47.28514" lon="-1.18699">
        <ele>92</ele>
        <time>2010-08-13T11:22:01Z</time>
      </trkpt>
      <trkpt lat="47.28517" lon="-1.18743">
        <ele>92</ele>
        <time>2010-08-13T11:22:06Z</time>
      </trkpt>
      <trkpt lat="47.28519" lon="-1.1879">
        <ele>92</ele>
        <time>2010-08-13T11:22:11Z</time>
      </trkpt>
      <trkpt lat="47.28525" lon="-1.18828">
        <ele>92</ele>
        <time>2010-08-13T11:22:16Z</time>
      </trkpt>
      <trkpt lat="47.28547" lon="-1.18873">
        <ele>92</ele>
        <time>2010-08-13T11:22:21Z</time>
      </trkpt>
      <trkpt lat="47.2858" lon="-1.18913">
        <ele>93</ele>
        <time>2010-08-13T11:22:26Z</time>
      </trkpt>
      <trkpt lat="47.28608" lon="-1.18943">
        <ele>92</ele>
        <time>2010-08-13T11:22:31Z</time>
      </trkpt>
      <trkpt lat="47.28625" lon="-1.18972">
        <ele>92</ele>
        <time>2010-08-13T11:22:36Z</time>
      </trkpt>
      <trkpt lat="47.28638" lon="-1.18999">
        <ele>92</ele>
        <time>2010-08-13T11:22:41Z</time>
      </trkpt>
      <trkpt lat="47.28645" lon="-1.19014">
        <ele>92</ele>
        <time>2010-08-13T11:22:46Z</time>
      </trkpt>
      <trkpt lat="47.28654" lon="-1.19022">
        <ele>92</ele>
        <time>2010-08-13T11:22:51Z</time>
      </trkpt>
      <trkpt lat="47.28655" lon="-1.19037">
        <ele>92</ele>
        <time>2010-08-13T11:22:56Z</time>
      </trkpt>
      <trkpt lat="47.28647" lon="-1.19055">
        <ele>92</ele>
        <time>2010-08-13T11:23:01Z</time>
      </trkpt>
      <trkpt lat="47.28643" lon="-1.19092">
        <ele>92</ele>
        <time>2010-08-13T11:23:06Z</time>
      </trkpt>
      <trkpt lat="47.2863" lon="-1.19148">
        <ele>92</ele>
        <time>2010-08-13T11:23:11Z</time>
      </trkpt>
      <trkpt lat="47.28612" lon="-1.19195">
        <ele>92</ele>
        <time>2010-08-13T11:23:16Z</time>
      </trkpt>
      <trkpt lat="47.28595" lon="-1.19233">
        <ele>93</ele>
        <time>2010-08-13T11:23:21Z</time>
      </trkpt>
      <trkpt lat="47.28574" lon="-1.19281">
        <ele>94</ele>
        <time>2010-08-13T11:23:26Z</time>
      </trkpt>
      <trkpt lat="47.28554" lon="-1.19329">
        <ele>94</ele>
        <time>2010-08-13T11:23:31Z</time>
      </trkpt>
      <trkpt lat="47.28528" lon="-1.19387">
        <ele>92</ele>
        <time>2010-08-13T11:23:36Z</time>
      </trkpt>
      <trkpt lat="47.28507" lon="-1.19436">
        <ele>91</ele>
        <time>2010-08-13T11:23:41Z</time>
      </trkpt>
      <trkpt lat="47.28491" lon="-1.19475">
        <ele>91</ele>
        <time>2010-08-13T11:23:46Z</time>
      </trkpt>
      <trkpt lat="47.28472" lon="-1.19524">
        <ele>90</ele>
        <time>2010-08-13T11:23:51Z</time>
      </trkpt>
      <trkpt lat="47.28447" lon="-1.19581">
        <ele>90</ele>
        <time>2010-08-13T11:23:56Z</time>
      </trkpt>
      <trkpt lat="47.28427" lon="-1.19629">
        <ele>90</ele>
        <time>2010-08-13T11:24:01Z</time>
      </trkpt>
      <trkpt lat="47.2841" lon="-1.19669">
        <ele>89</ele>
        <time>2010-08-13T11:24:06Z</time>
      </trkpt>
      <trkpt lat="47.2839" lon="-1.19721">
        <ele>89</ele>
        <time>2010-08-13T11:24:11Z</time>
      </trkpt>
      <trkpt lat="47.28368" lon="-1.19773">
        <ele>88</ele>
        <time>2010-08-13T11:24:16Z</time>
      </trkpt>
      <trkpt lat="47.28343" lon="-1.19835">
        <ele>87</ele>
        <time>2010-08-13T11:24:21Z</time>
      </trkpt>
      <trkpt lat="47.28326" lon="-1.19877">
        <ele>86</ele>
        <time>2010-08-13T11:24:26Z</time>
      </trkpt>
      <trkpt lat="47.28304" lon="-1.19931">
        <ele>85</ele>
        <time>2010-08-13T11:24:31Z</time>
      </trkpt>
      <trkpt lat="47.2828" lon="-1.19989">
        <ele>85</ele>
        <time>2010-08-13T11:24:36Z</time>
      </trkpt>
      <trkpt lat="47.28247" lon="-1.20069">
        <ele>83</ele>
        <time>2010-08-13T11:24:41Z</time>
      </trkpt>
      <trkpt lat="47.28221" lon="-1.20132">
        <ele>83</ele>
        <time>2010-08-13T11:24:46Z</time>
      </trkpt>
      <trkpt lat="47.28201" lon="-1.2018">
        <ele>84</ele>
        <time>2010-08-13T11:24:51Z</time>
      </trkpt>
      <trkpt lat="47.28187" lon="-1.20214">
        <ele>84</ele>
        <time>2010-08-13T11:24:56Z</time>
      </trkpt>
      <trkpt lat="47.2817" lon="-1.20255">
        <ele>84</ele>
        <time>2010-08-13T11:25:01Z</time>
      </trkpt>
      <trkpt lat="47.28148" lon="-1.20304">
        <ele>86</ele>
        <time>2010-08-13T11:25:06Z</time>
      </trkpt>
      <trkpt lat="47.28131" lon="-1.20344">
        <ele>87</ele>
        <time>2010-08-13T11:25:11Z</time>
      </trkpt>
      <trkpt lat="47.28117" lon="-1.20375">
        <ele>88</ele>
        <time>2010-08-13T11:25:16Z</time>
      </trkpt>
      <trkpt lat="47.28101" lon="-1.20412">
        <ele>88</ele>
        <time>2010-08-13T11:25:21Z</time>
      </trkpt>
      <trkpt lat="47.28083" lon="-1.20455">
        <ele>89</ele>
        <time>2010-08-13T11:25:26Z</time>
      </trkpt>
      <trkpt lat="47.28069" lon="-1.2049">
        <ele>89</ele>
        <time>2010-08-13T11:25:31Z</time>
      </trkpt>
      <trkpt lat="47.28054" lon="-1.20525">
        <ele>90</ele>
        <time>2010-08-13T11:25:36Z</time>
      </trkpt>
      <trkpt lat="47.28042" lon="-1.20554">
        <ele>91</ele>
        <time>2010-08-13T11:25:41Z</time>
      </trkpt>
      <trkpt lat="47.28026" lon="-1.20591">
        <ele>92</ele>
        <time>2010-08-13T11:25:46Z</time>
      </trkpt>
      <trkpt lat="47.28008" lon="-1.20635">
        <ele>92</ele>
        <time>2010-08-13T11:25:51Z</time>
      </trkpt>
      <trkpt lat="47.27992" lon="-1.20673">
        <ele>92</ele>
        <time>2010-08-13T11:25:56Z</time>
      </trkpt>
      <trkpt lat="47.2798" lon="-1.20703">
        <ele>93</ele>
        <time>2010-08-13T11:26:01Z</time>
      </trkpt>
      <trkpt lat="47.27964" lon="-1.20742">
        <ele>93</ele>
        <time>2010-08-13T11:26:06Z</time>
      </trkpt>
      <trkpt lat="47.27944" lon="-1.20792">
        <ele>93</ele>
        <time>2010-08-13T11:26:11Z</time>
      </trkpt>
      <trkpt lat="47.27926" lon="-1.20835">
        <ele>93</ele>
        <time>2010-08-13T11:26:16Z</time>
      </trkpt>
      <trkpt lat="47.27908" lon="-1.20879">
        <ele>93</ele>
        <time>2010-08-13T11:26:21Z</time>
      </trkpt>
      <trkpt lat="47.27893" lon="-1.20915">
        <ele>93</ele>
        <time>2010-08-13T11:26:26Z</time>
      </trkpt>
      <trkpt lat="47.27875" lon="-1.20962">
        <ele>93</ele>
        <time>2010-08-13T11:26:31Z</time>
      </trkpt>
      <trkpt lat="47.27853" lon="-1.21017">
        <ele>93</ele>
        <time>2010-08-13T11:26:36Z</time>
      </trkpt>
      <trkpt lat="47.27833" lon="-1.21064">
        <ele>93</ele>
        <time>2010-08-13T11:26:41Z</time>
      </trkpt>
      <trkpt lat="47.27818" lon="-1.21102">
        <ele>92</ele>
        <time>2010-08-13T11:26:46Z</time>
      </trkpt>
      <trkpt lat="47.27798" lon="-1.21149">
        <ele>92</ele>
        <time>2010-08-13T11:26:51Z</time>
      </trkpt>
      <trkpt lat="47.27779" lon="-1.21196">
        <ele>91</ele>
        <time>2010-08-13T11:26:56Z</time>
      </trkpt>
      <trkpt lat="47.27755" lon="-1.21254">
        <ele>91</ele>
        <time>2010-08-13T11:27:01Z</time>
      </trkpt>
      <trkpt lat="47.27735" lon="-1.21302">
        <ele>90</ele>
        <time>2010-08-13T11:27:06Z</time>
      </trkpt>
      <trkpt lat="47.27719" lon="-1.21341">
        <ele>90</ele>
        <time>2010-08-13T11:27:11Z</time>
      </trkpt>
      <trkpt lat="47.27699" lon="-1.21389">
        <ele>90</ele>
        <time>2010-08-13T11:27:16Z</time>
      </trkpt>
      <trkpt lat="47.27675" lon="-1.21447">
        <ele>90</ele>
        <time>2010-08-13T11:27:21Z</time>
      </trkpt>
      <trkpt lat="47.27655" lon="-1.21494">
        <ele>90</ele>
        <time>2010-08-13T11:27:26Z</time>
      </trkpt>
      <trkpt lat="47.27638" lon="-1.21533">
        <ele>90</ele>
        <time>2010-08-13T11:27:31Z</time>
      </trkpt>
      <trkpt lat="47.27617" lon="-1.21582">
        <ele>90</ele>
        <time>2010-08-13T11:27:36Z</time>
      </trkpt>
      <trkpt lat="47.27596" lon="-1.21633">
        <ele>90</ele>
        <time>2010-08-13T11:27:41Z</time>
      </trkpt>
      <trkpt lat="47.2757" lon="-1.21694">
        <ele>89</ele>
        <time>2010-08-13T11:27:46Z</time>
      </trkpt>
      <trkpt lat="47.27549" lon="-1.21744">
        <ele>89</ele>
        <time>2010-08-13T11:27:51Z</time>
      </trkpt>
      <trkpt lat="47.27532" lon="-1.21784">
        <ele>89</ele>
        <time>2010-08-13T11:27:56Z</time>
      </trkpt>
      <trkpt lat="47.27512" lon="-1.21834">
        <ele>88</ele>
        <time>2010-08-13T11:28:01Z</time>
      </trkpt>
      <trkpt lat="47.27488" lon="-1.21892">
        <ele>88</ele>
        <time>2010-08-13T11:28:06Z</time>
      </trkpt>
      <trkpt lat="47.27468" lon="-1.21939">
        <ele>88</ele>
        <time>2010-08-13T11:28:11Z</time>
      </trkpt>
      <trkpt lat="47.27448" lon="-1.21987">
        <ele>89</ele>
        <time>2010-08-13T11:28:16Z</time>
      </trkpt>
      <trkpt lat="47.27432" lon="-1.22026">
        <ele>90</ele>
        <time>2010-08-13T11:28:21Z</time>
      </trkpt>
      <trkpt lat="47.27408" lon="-1.22083">
        <ele>90</ele>
        <time>2010-08-13T11:28:26Z</time>
      </trkpt>
      <trkpt lat="47.27389" lon="-1.2213">
        <ele>89</ele>
        <time>2010-08-13T11:28:31Z</time>
      </trkpt>
      <trkpt lat="47.27369" lon="-1.22176">
        <ele>88</ele>
        <time>2010-08-13T11:28:36Z</time>
      </trkpt>
      <trkpt lat="47.27354" lon="-1.22212">
        <ele>88</ele>
        <time>2010-08-13T11:28:41Z</time>
      </trkpt>
      <trkpt lat="47.27335" lon="-1.22257">
        <ele>88</ele>
        <time>2010-08-13T11:28:46Z</time>
      </trkpt>
      <trkpt lat="47.27317" lon="-1.22301">
        <ele>89</ele>
        <time>2010-08-13T11:28:51Z</time>
      </trkpt>
      <trkpt lat="47.27295" lon="-1.22354">
        <ele>90</ele>
        <time>2010-08-13T11:28:56Z</time>
      </trkpt>
      <trkpt lat="47.27277" lon="-1.22398">
        <ele>90</ele>
        <time>2010-08-13T11:29:01Z</time>
      </trkpt>
      <trkpt lat="47.27262" lon="-1.22432">
        <ele>90</ele>
        <time>2010-08-13T11:29:06Z</time>
      </trkpt>
      <trkpt lat="47.27245" lon="-1.22473">
        <ele>91</ele>
        <time>2010-08-13T11:29:11Z</time>
      </trkpt>
      <trkpt lat="47.27224" lon="-1.22523">
        <ele>92</ele>
        <time>2010-08-13T11:29:16Z</time>
      </trkpt>
      <trkpt lat="47.27206" lon="-1.22564">
        <ele>92</ele>
        <time>2010-08-13T11:29:21Z</time>
      </trkpt>
      <trkpt lat="47.27192" lon="-1.22599">
        <ele>93</ele>
        <time>2010-08-13T11:29:26Z</time>
      </trkpt>
      <trkpt lat="47.27174" lon="-1.22643">
        <ele>93</ele>
        <time>2010-08-13T11:29:31Z</time>
      </trkpt>
      <trkpt lat="47.27153" lon="-1.22694">
        <ele>94</ele>
        <time>2010-08-13T11:29:36Z</time>
      </trkpt>
      <trkpt lat="47.27134" lon="-1.22736">
        <ele>94</ele>
        <time>2010-08-13T11:29:41Z</time>
      </trkpt>
      <trkpt lat="47.27115" lon="-1.22779">
        <ele>93</ele>
        <time>2010-08-13T11:29:46Z</time>
      </trkpt>
      <trkpt lat="47.27099" lon="-1.22816">
        <ele>93</ele>
        <time>2010-08-13T11:29:51Z</time>
      </trkpt>
      <trkpt lat="47.2708" lon="-1.22861">
        <ele>92</ele>
        <time>2010-08-13T11:29:56Z</time>
      </trkpt>
      <trkpt lat="47.27057" lon="-1.22916">
        <ele>92</ele>
        <time>2010-08-13T11:30:01Z</time>
      </trkpt>
      <trkpt lat="47.27038" lon="-1.22961">
        <ele>92</ele>
        <time>2010-08-13T11:30:06Z</time>
      </trkpt>
      <trkpt lat="47.27023" lon="-1.22997">
        <ele>91</ele>
        <time>2010-08-13T11:30:11Z</time>
      </trkpt>
      <trkpt lat="47.27004" lon="-1.23042">
        <ele>91</ele>
        <time>2010-08-13T11:30:16Z</time>
      </trkpt>
      <trkpt lat="47.26986" lon="-1.23087">
        <ele>91</ele>
        <time>2010-08-13T11:30:21Z</time>
      </trkpt>
      <trkpt lat="47.26964" lon="-1.2314">
        <ele>90</ele>
        <time>2010-08-13T11:30:26Z</time>
      </trkpt>
      <trkpt lat="47.26947" lon="-1.23186">
        <ele>91</ele>
        <time>2010-08-13T11:30:31Z</time>
      </trkpt>
      <trkpt lat="47.26932" lon="-1.23223">
        <ele>91</ele>
        <time>2010-08-13T11:30:36Z</time>
      </trkpt>
      <trkpt lat="47.26912" lon="-1.23269">
        <ele>92</ele>
        <time>2010-08-13T11:30:41Z</time>
      </trkpt>
      <trkpt lat="47.26889" lon="-1.23323">
        <ele>91</ele>
        <time>2010-08-13T11:30:46Z</time>
      </trkpt>
      <trkpt lat="47.2687" lon="-1.23369">
        <ele>90</ele>
        <time>2010-08-13T11:30:51Z</time>
      </trkpt>
      <trkpt lat="47.26855" lon="-1.23406">
        <ele>90</ele>
        <time>2010-08-13T11:30:56Z</time>
      </trkpt>
      <trkpt lat="47.26837" lon="-1.23451">
        <ele>90</ele>
        <time>2010-08-13T11:31:01Z</time>
      </trkpt>
      <trkpt lat="47.26818" lon="-1.23497">
        <ele>91</ele>
        <time>2010-08-13T11:31:06Z</time>
      </trkpt>
      <trkpt lat="47.26796" lon="-1.23552">
        <ele>91</ele>
        <time>2010-08-13T11:31:11Z</time>
      </trkpt>
      <trkpt lat="47.26777" lon="-1.23597">
        <ele>91</ele>
        <time>2010-08-13T11:31:16Z</time>
      </trkpt>
      <trkpt lat="47.26762" lon="-1.23633">
        <ele>91</ele>
        <time>2010-08-13T11:31:21Z</time>
      </trkpt>
      <trkpt lat="47.26743" lon="-1.23678">
        <ele>92</ele>
        <time>2010-08-13T11:31:26Z</time>
      </trkpt>
      <trkpt lat="47.26719" lon="-1.23734">
        <ele>93</ele>
        <time>2010-08-13T11:31:31Z</time>
      </trkpt>
      <trkpt lat="47.26699" lon="-1.23781">
        <ele>93</ele>
        <time>2010-08-13T11:31:36Z</time>
      </trkpt>
      <trkpt lat="47.26678" lon="-1.23828">
        <ele>94</ele>
        <time>2010-08-13T11:31:41Z</time>
      </trkpt>
      <trkpt lat="47.26662" lon="-1.23867">
        <ele>94</ele>
        <time>2010-08-13T11:31:46Z</time>
      </trkpt>
      <trkpt lat="47.26641" lon="-1.23913">
        <ele>94</ele>
        <time>2010-08-13T11:31:51Z</time>
      </trkpt>
      <trkpt lat="47.26617" lon="-1.23968">
        <ele>92</ele>
        <time>2010-08-13T11:31:56Z</time>
      </trkpt>
      <trkpt lat="47.26598" lon="-1.24014">
        <ele>91</ele>
        <time>2010-08-13T11:32:01Z</time>
      </trkpt>
      <trkpt lat="47.26583" lon="-1.24051">
        <ele>91</ele>
        <time>2010-08-13T11:32:06Z</time>
      </trkpt>
      <trkpt lat="47.26563" lon="-1.24096">
        <ele>91</ele>
        <time>2010-08-13T11:32:11Z</time>
      </trkpt>
      <trkpt lat="47.2654" lon="-1.2415">
        <ele>91</ele>
        <time>2010-08-13T11:32:16Z</time>
      </trkpt>
      <trkpt lat="47.26521" lon="-1.24195">
        <ele>91</ele>
        <time>2010-08-13T11:32:21Z</time>
      </trkpt>
      <trkpt lat="47.26509" lon="-1.24245">
        <ele>91</ele>
        <time>2010-08-13T11:32:26Z</time>
      </trkpt>
      <trkpt lat="47.26523" lon="-1.24293">
        <ele>91</ele>
        <time>2010-08-13T11:32:31Z</time>
      </trkpt>
      <trkpt lat="47.26534" lon="-1.24345">
        <ele>91</ele>
        <time>2010-08-13T11:32:36Z</time>
      </trkpt>
      <trkpt lat="47.26546" lon="-1.24404">
        <ele>90</ele>
        <time>2010-08-13T11:32:41Z</time>
      </trkpt>
      <trkpt lat="47.26546" lon="-1.24455">
        <ele>90</ele>
        <time>2010-08-13T11:32:46Z</time>
      </trkpt>
      <trkpt lat="47.26542" lon="-1.24497">
        <ele>90</ele>
        <time>2010-08-13T11:32:51Z</time>
      </trkpt>
      <trkpt lat="47.26535" lon="-1.24551">
        <ele>89</ele>
        <time>2010-08-13T11:32:56Z</time>
      </trkpt>
      <trkpt lat="47.26529" lon="-1.24611">
        <ele>88</ele>
        <time>2010-08-13T11:33:01Z</time>
      </trkpt>
      <trkpt lat="47.26519" lon="-1.24684">
        <ele>86</ele>
        <time>2010-08-13T11:33:06Z</time>
      </trkpt>
      <trkpt lat="47.26509" lon="-1.24748">
        <ele>85</ele>
        <time>2010-08-13T11:33:11Z</time>
      </trkpt>
      <trkpt lat="47.26501" lon="-1.24802">
        <ele>83</ele>
        <time>2010-08-13T11:33:16Z</time>
      </trkpt>
      <trkpt lat="47.2649" lon="-1.24873">
        <ele>81</ele>
        <time>2010-08-13T11:33:21Z</time>
      </trkpt>
      <trkpt lat="47.26477" lon="-1.24961">
        <ele>79</ele>
        <time>2010-08-13T11:33:26Z</time>
      </trkpt>
      <trkpt lat="47.26466" lon="-1.25036">
        <ele>78</ele>
        <time>2010-08-13T11:33:31Z</time>
      </trkpt>
      <trkpt lat="47.26457" lon="-1.2509">
        <ele>79</ele>
        <time>2010-08-13T11:33:36Z</time>
      </trkpt>
      <trkpt lat="47.26448" lon="-1.25152">
        <ele>79</ele>
        <time>2010-08-13T11:33:41Z</time>
      </trkpt>
      <trkpt lat="47.26437" lon="-1.25223">
        <ele>78</ele>
        <time>2010-08-13T11:33:46Z</time>
      </trkpt>
      <trkpt lat="47.26429" lon="-1.25282">
        <ele>78</ele>
        <time>2010-08-13T11:33:51Z</time>
      </trkpt>
      <trkpt lat="47.2642" lon="-1.25344">
        <ele>78</ele>
        <time>2010-08-13T11:33:56Z</time>
      </trkpt>
      <trkpt lat="47.26413" lon="-1.25395">
        <ele>77</ele>
        <time>2010-08-13T11:34:01Z</time>
      </trkpt>
      <trkpt lat="47.26403" lon="-1.25461">
        <ele>76</ele>
        <time>2010-08-13T11:34:06Z</time>
      </trkpt>
      <trkpt lat="47.26392" lon="-1.25525">
        <ele>75</ele>
        <time>2010-08-13T11:34:11Z</time>
      </trkpt>
      <trkpt lat="47.26362" lon="-1.25599">
        <ele>73</ele>
        <time>2010-08-13T11:34:16Z</time>
      </trkpt>
      <trkpt lat="47.26319" lon="-1.25652">
        <ele>71</ele>
        <time>2010-08-13T11:34:21Z</time>
      </trkpt>
      <trkpt lat="47.26279" lon="-1.25696">
        <ele>70</ele>
        <time>2010-08-13T11:34:26Z</time>
      </trkpt>
      <trkpt lat="47.26228" lon="-1.25753">
        <ele>68</ele>
        <time>2010-08-13T11:34:31Z</time>
      </trkpt>
      <trkpt lat="47.26165" lon="-1.25824">
        <ele>66</ele>
        <time>2010-08-13T11:34:36Z</time>
      </trkpt>
      <trkpt lat="47.26111" lon="-1.25881">
        <ele>65</ele>
        <time>2010-08-13T11:34:41Z</time>
      </trkpt>
      <trkpt lat="47.26065" lon="-1.25928">
        <ele>62</ele>
        <time>2010-08-13T11:34:46Z</time>
      </trkpt>
      <trkpt lat="47.26003" lon="-1.25987">
        <ele>60</ele>
        <time>2010-08-13T11:34:51Z</time>
      </trkpt>
      <trkpt lat="47.25943" lon="-1.26051">
        <ele>54</ele>
        <time>2010-08-13T11:34:56Z</time>
      </trkpt>
      <trkpt lat="47.25873" lon="-1.26138">
        <ele>50</ele>
        <time>2010-08-13T11:35:01Z</time>
      </trkpt>
      <trkpt lat="47.25824" lon="-1.2621">
        <ele>54</ele>
        <time>2010-08-13T11:35:06Z</time>
      </trkpt>
      <trkpt lat="47.25791" lon="-1.26257">
        <ele>56</ele>
        <time>2010-08-13T11:35:11Z</time>
      </trkpt>
      <trkpt lat="47.25758" lon="-1.263">
        <ele>56</ele>
        <time>2010-08-13T11:35:16Z</time>
      </trkpt>
      <trkpt lat="47.25733" lon="-1.26336">
        <ele>57</ele>
        <time>2010-08-13T11:35:21Z</time>
      </trkpt>
      <trkpt lat="47.25718" lon="-1.26362">
        <ele>57</ele>
        <time>2010-08-13T11:35:26Z</time>
      </trkpt>
      <trkpt lat="47.25708" lon="-1.26383">
        <ele>58</ele>
        <time>2010-08-13T11:35:31Z</time>
      </trkpt>
      <trkpt lat="47.25696" lon="-1.26411">
        <ele>58</ele>
        <time>2010-08-13T11:35:36Z</time>
      </trkpt>
      <trkpt lat="47.25685" lon="-1.26441">
        <ele>59</ele>
        <time>2010-08-13T11:35:41Z</time>
      </trkpt>
      <trkpt lat="47.25674" lon="-1.26479">
        <ele>59</ele>
        <time>2010-08-13T11:35:46Z</time>
      </trkpt>
      <trkpt lat="47.25666" lon="-1.26511">
        <ele>59</ele>
        <time>2010-08-13T11:35:51Z</time>
      </trkpt>
      <trkpt lat="47.25659" lon="-1.26533">
        <ele>60</ele>
        <time>2010-08-13T11:35:56Z</time>
      </trkpt>
      <trkpt lat="47.2565" lon="-1.26566">
        <ele>61</ele>
        <time>2010-08-13T11:36:01Z</time>
      </trkpt>
      <trkpt lat="47.2564" lon="-1.26605">
        <ele>62</ele>
        <time>2010-08-13T11:36:06Z</time>
      </trkpt>
      <trkpt lat="47.25633" lon="-1.26638">
        <ele>63</ele>
        <time>2010-08-13T11:36:11Z</time>
      </trkpt>
      <trkpt lat="47.25627" lon="-1.26664">
        <ele>63</ele>
        <time>2010-08-13T11:36:16Z</time>
      </trkpt>
      <trkpt lat="47.25619" lon="-1.26696">
        <ele>66</ele>
        <time>2010-08-13T11:36:21Z</time>
      </trkpt>
      <trkpt lat="47.25611" lon="-1.26728">
        <ele>66</ele>
        <time>2010-08-13T11:36:26Z</time>
      </trkpt>
      <trkpt lat="47.25602" lon="-1.26767">
        <ele>68</ele>
        <time>2010-08-13T11:36:31Z</time>
      </trkpt>
      <trkpt lat="47.25593" lon="-1.26798">
        <ele>69</ele>
        <time>2010-08-13T11:36:36Z</time>
      </trkpt>
      <trkpt lat="47.25587" lon="-1.26824">
        <ele>69</ele>
        <time>2010-08-13T11:36:41Z</time>
      </trkpt>
      <trkpt lat="47.25582" lon="-1.26855">
        <ele>69</ele>
        <time>2010-08-13T11:36:46Z</time>
      </trkpt>
      <trkpt lat="47.25582" lon="-1.26885">
        <ele>70</ele>
        <time>2010-08-13T11:36:51Z</time>
      </trkpt>
      <trkpt lat="47.25582" lon="-1.26896">
        <ele>70</ele>
        <time>2010-08-13T11:36:56Z</time>
      </trkpt>
      <trkpt lat="47.25582" lon="-1.26896">
        <ele>70</ele>
        <time>2010-08-13T11:37:01Z</time>
      </trkpt>
      <trkpt lat="47.25583" lon="-1.26897">
        <ele>70</ele>
        <time>2010-08-13T11:37:06Z</time>
      </trkpt>
      <trkpt lat="47.25585" lon="-1.26898">
        <ele>71</ele>
        <time>2010-08-13T11:37:11Z</time>
      </trkpt>
      <trkpt lat="47.25585" lon="-1.26898">
        <ele>71</ele>
        <time>2010-08-13T11:37:16Z</time>
      </trkpt>
      <trkpt lat="47.25586" lon="-1.26898">
        <ele>71</ele>
        <time>2010-08-13T11:37:21Z</time>
      </trkpt>
      <trkpt lat="47.25586" lon="-1.26898">
        <ele>71</ele>
        <time>2010-08-13T11:37:26Z</time>
      </trkpt>
      <trkpt lat="47.25586" lon="-1.26898">
        <ele>71</ele>
        <time>2010-08-13T11:37:31Z</time>
      </trkpt>
      <trkpt lat="47.25586" lon="-1.26898">
        <ele>71</ele>
        <time>2010-08-13T11:37:36Z</time>
      </trkpt>
      <trkpt lat="47.25587" lon="-1.26898">
        <ele>71</ele>
        <time>2010-08-13T11:37:41Z</time>
      </trkpt>
      <trkpt lat="47.25586" lon="-1.26898">
        <ele>71</ele>
        <time>2010-08-13T11:37:46Z</time>
      </trkpt>
      <trkpt lat="47.25585" lon="-1.26897">
        <ele>71</ele>
        <time>2010-08-13T11:37:51Z</time>
      </trkpt>
      <trkpt lat="47.25585" lon="-1.26897">
        <ele>71</ele>
        <time>2010-08-13T11:37:56Z</time>
      </trkpt>
      <trkpt lat="47.25585" lon="-1.26897">
        <ele>71</ele>
        <time>2010-08-13T11:38:01Z</time>
      </trkpt>
      <trkpt lat="47.25585" lon="-1.26892">
        <ele>71</ele>
        <time>2010-08-13T11:38:06Z</time>
      </trkpt>
      <trkpt lat="47.25589" lon="-1.26879">
        <ele>70</ele>
        <time>2010-08-13T11:38:11Z</time>
      </trkpt>
      <trkpt lat="47.2558" lon="-1.26867">
        <ele>70</ele>
        <time>2010-08-13T11:38:16Z</time>
      </trkpt>
      <trkpt lat="47.25579" lon="-1.26867">
        <ele>70</ele>
        <time>2010-08-13T11:38:21Z</time>
      </trkpt>
      <trkpt lat="47.25576" lon="-1.26871">
        <ele>70</ele>
        <time>2010-08-13T11:38:26Z</time>
      </trkpt>
      <trkpt lat="47.25569" lon="-1.26898">
        <ele>70</ele>
        <time>2010-08-13T11:38:31Z</time>
      </trkpt>
      <trkpt lat="47.25562" lon="-1.26928">
        <ele>71</ele>
        <time>2010-08-13T11:38:36Z</time>
      </trkpt>
      <trkpt lat="47.25552" lon="-1.26967">
        <ele>71</ele>
        <time>2010-08-13T11:38:41Z</time>
      </trkpt>
      <trkpt lat="47.25542" lon="-1.27014">
        <ele>72</ele>
        <time>2010-08-13T11:38:46Z</time>
      </trkpt>
      <trkpt lat="47.25534" lon="-1.27052">
        <ele>73</ele>
        <time>2010-08-13T11:38:51Z</time>
      </trkpt>
      <trkpt lat="47.25527" lon="-1.27081">
        <ele>73</ele>
        <time>2010-08-13T11:38:56Z</time>
      </trkpt>
      <trkpt lat="47.25519" lon="-1.27119">
        <ele>74</ele>
        <time>2010-08-13T11:39:01Z</time>
      </trkpt>
      <trkpt lat="47.25511" lon="-1.27156">
        <ele>75</ele>
        <time>2010-08-13T11:39:06Z</time>
      </trkpt>
      <trkpt lat="47.25501" lon="-1.27202">
        <ele>76</ele>
        <time>2010-08-13T11:39:11Z</time>
      </trkpt>
      <trkpt lat="47.25493" lon="-1.27241">
        <ele>77</ele>
        <time>2010-08-13T11:39:16Z</time>
      </trkpt>
      <trkpt lat="47.25486" lon="-1.27272">
        <ele>78</ele>
        <time>2010-08-13T11:39:21Z</time>
      </trkpt>
      <trkpt lat="47.25478" lon="-1.2731">
        <ele>78</ele>
        <time>2010-08-13T11:39:26Z</time>
      </trkpt>
      <trkpt lat="47.25468" lon="-1.27356">
        <ele>79</ele>
        <time>2010-08-13T11:39:31Z</time>
      </trkpt>
      <trkpt lat="47.25459" lon="-1.27395">
        <ele>80</ele>
        <time>2010-08-13T11:39:36Z</time>
      </trkpt>
      <trkpt lat="47.25452" lon="-1.27426">
        <ele>81</ele>
        <time>2010-08-13T11:39:41Z</time>
      </trkpt>
      <trkpt lat="47.25444" lon="-1.27465">
        <ele>81</ele>
        <time>2010-08-13T11:39:46Z</time>
      </trkpt>
      <trkpt lat="47.25435" lon="-1.27504">
        <ele>82</ele>
        <time>2010-08-13T11:39:51Z</time>
      </trkpt>
      <trkpt lat="47.25425" lon="-1.27551">
        <ele>83</ele>
        <time>2010-08-13T11:39:56Z</time>
      </trkpt>
      <trkpt lat="47.25417" lon="-1.27592">
        <ele>83</ele>
        <time>2010-08-13T11:40:01Z</time>
      </trkpt>
      <trkpt lat="47.25408" lon="-1.27625">
        <ele>84</ele>
        <time>2010-08-13T11:40:06Z</time>
      </trkpt>
      <trkpt lat="47.25399" lon="-1.27668">
        <ele>85</ele>
        <time>2010-08-13T11:40:11Z</time>
      </trkpt>
      <trkpt lat="47.25389" lon="-1.27721">
        <ele>85</ele>
        <time>2010-08-13T11:40:16Z</time>
      </trkpt>
      <trkpt lat="47.2538" lon="-1.27763">
        <ele>86</ele>
        <time>2010-08-13T11:40:21Z</time>
      </trkpt>
      <trkpt lat="47.25371" lon="-1.27804">
        <ele>85</ele>
        <time>2010-08-13T11:40:26Z</time>
      </trkpt>
      <trkpt lat="47.25364" lon="-1.27837">
        <ele>85</ele>
        <time>2010-08-13T11:40:31Z</time>
      </trkpt>
      <trkpt lat="47.25354" lon="-1.27879">
        <ele>85</ele>
        <time>2010-08-13T11:40:36Z</time>
      </trkpt>
      <trkpt lat="47.25343" lon="-1.2793">
        <ele>85</ele>
        <time>2010-08-13T11:40:41Z</time>
      </trkpt>
      <trkpt lat="47.25332" lon="-1.27975">
        <ele>86</ele>
        <time>2010-08-13T11:40:46Z</time>
      </trkpt>
      <trkpt lat="47.25324" lon="-1.28013">
        <ele>86</ele>
        <time>2010-08-13T11:40:51Z</time>
      </trkpt>
      <trkpt lat="47.25313" lon="-1.2806">
        <ele>86</ele>
        <time>2010-08-13T11:40:56Z</time>
      </trkpt>
      <trkpt lat="47.253" lon="-1.2812">
        <ele>86</ele>
        <time>2010-08-13T11:41:01Z</time>
      </trkpt>
      <trkpt lat="47.25288" lon="-1.2817">
        <ele>85</ele>
        <time>2010-08-13T11:41:06Z</time>
      </trkpt>
      <trkpt lat="47.25277" lon="-1.28221">
        <ele>85</ele>
        <time>2010-08-13T11:41:11Z</time>
      </trkpt>
      <trkpt lat="47.25268" lon="-1.28262">
        <ele>85</ele>
        <time>2010-08-13T11:41:16Z</time>
      </trkpt>
      <trkpt lat="47.25254" lon="-1.28324">
        <ele>86</ele>
        <time>2010-08-13T11:41:21Z</time>
      </trkpt>
      <trkpt lat="47.25242" lon="-1.28377">
        <ele>85</ele>
        <time>2010-08-13T11:41:26Z</time>
      </trkpt>
      <trkpt lat="47.2523" lon="-1.2843">
        <ele>85</ele>
        <time>2010-08-13T11:41:31Z</time>
      </trkpt>
      <trkpt lat="47.25221" lon="-1.28473">
        <ele>84</ele>
        <time>2010-08-13T11:41:36Z</time>
      </trkpt>
      <trkpt lat="47.25209" lon="-1.28529">
        <ele>84</ele>
        <time>2010-08-13T11:41:41Z</time>
      </trkpt>
      <trkpt lat="47.25197" lon="-1.28584">
        <ele>83</ele>
        <time>2010-08-13T11:41:46Z</time>
      </trkpt>
      <trkpt lat="47.25183" lon="-1.2865">
        <ele>83</ele>
        <time>2010-08-13T11:41:51Z</time>
      </trkpt>
      <trkpt lat="47.25171" lon="-1.28706">
        <ele>83</ele>
        <time>2010-08-13T11:41:56Z</time>
      </trkpt>
      <trkpt lat="47.25161" lon="-1.28749">
        <ele>83</ele>
        <time>2010-08-13T11:42:01Z</time>
      </trkpt>
      <trkpt lat="47.25149" lon="-1.28805">
        <ele>83</ele>
        <time>2010-08-13T11:42:06Z</time>
      </trkpt>
      <trkpt lat="47.25137" lon="-1.28861">
        <ele>83</ele>
        <time>2010-08-13T11:42:11Z</time>
      </trkpt>
      <trkpt lat="47.25125" lon="-1.28931">
        <ele>82</ele>
        <time>2010-08-13T11:42:16Z</time>
      </trkpt>
      <trkpt lat="47.25115" lon="-1.28977">
        <ele>82</ele>
        <time>2010-08-13T11:42:21Z</time>
      </trkpt>
      <trkpt lat="47.25103" lon="-1.29034">
        <ele>81</ele>
        <time>2010-08-13T11:42:26Z</time>
      </trkpt>
      <trkpt lat="47.25088" lon="-1.29099">
        <ele>81</ele>
        <time>2010-08-13T11:42:31Z</time>
      </trkpt>
      <trkpt lat="47.25076" lon="-1.29154">
        <ele>80</ele>
        <time>2010-08-13T11:42:36Z</time>
      </trkpt>
      <trkpt lat="47.25063" lon="-1.29208">
        <ele>80</ele>
        <time>2010-08-13T11:42:41Z</time>
      </trkpt>
      <trkpt lat="47.25053" lon="-1.29253">
        <ele>80</ele>
        <time>2010-08-13T11:42:46Z</time>
      </trkpt>
      <trkpt lat="47.25041" lon="-1.29308">
        <ele>80</ele>
        <time>2010-08-13T11:42:51Z</time>
      </trkpt>
      <trkpt lat="47.25026" lon="-1.29375">
        <ele>79</ele>
        <time>2010-08-13T11:42:56Z</time>
      </trkpt>
      <trkpt lat="47.25015" lon="-1.2943">
        <ele>79</ele>
        <time>2010-08-13T11:43:01Z</time>
      </trkpt>
      <trkpt lat="47.25004" lon="-1.29474">
        <ele>79</ele>
        <time>2010-08-13T11:43:06Z</time>
      </trkpt>
      <trkpt lat="47.24992" lon="-1.29528">
        <ele>80</ele>
        <time>2010-08-13T11:43:11Z</time>
      </trkpt>
      <trkpt lat="47.24978" lon="-1.29591">
        <ele>80</ele>
        <time>2010-08-13T11:43:16Z</time>
      </trkpt>
      <trkpt lat="47.24967" lon="-1.29643">
        <ele>80</ele>
        <time>2010-08-13T11:43:21Z</time>
      </trkpt>
      <trkpt lat="47.24958" lon="-1.29698">
        <ele>79</ele>
        <time>2010-08-13T11:43:26Z</time>
      </trkpt>
      <trkpt lat="47.24949" lon="-1.29739">
        <ele>80</ele>
        <time>2010-08-13T11:43:31Z</time>
      </trkpt>
      <trkpt lat="47.24936" lon="-1.2979">
        <ele>80</ele>
        <time>2010-08-13T11:43:36Z</time>
      </trkpt>
      <trkpt lat="47.24923" lon="-1.29852">
        <ele>80</ele>
        <time>2010-08-13T11:43:41Z</time>
      </trkpt>
      <trkpt lat="47.24909" lon="-1.29904">
        <ele>81</ele>
        <time>2010-08-13T11:43:46Z</time>
      </trkpt>
      <trkpt lat="47.24898" lon="-1.29959">
        <ele>81</ele>
        <time>2010-08-13T11:43:51Z</time>
      </trkpt>
      <trkpt lat="47.24888" lon="-1.30005">
        <ele>80</ele>
        <time>2010-08-13T11:43:56Z</time>
      </trkpt>
      <trkpt lat="47.24875" lon="-1.30073">
        <ele>79</ele>
        <time>2010-08-13T11:44:01Z</time>
      </trkpt>
      <trkpt lat="47.24862" lon="-1.30128">
        <ele>78</ele>
        <time>2010-08-13T11:44:06Z</time>
      </trkpt>
      <trkpt lat="47.2485" lon="-1.30183">
        <ele>78</ele>
        <time>2010-08-13T11:44:11Z</time>
      </trkpt>
      <trkpt lat="47.2484" lon="-1.30228">
        <ele>77</ele>
        <time>2010-08-13T11:44:16Z</time>
      </trkpt>
      <trkpt lat="47.24828" lon="-1.30285">
        <ele>76</ele>
        <time>2010-08-13T11:44:21Z</time>
      </trkpt>
      <trkpt lat="47.24812" lon="-1.30355">
        <ele>75</ele>
        <time>2010-08-13T11:44:26Z</time>
      </trkpt>
      <trkpt lat="47.24798" lon="-1.30414">
        <ele>75</ele>
        <time>2010-08-13T11:44:31Z</time>
      </trkpt>
      <trkpt lat="47.24785" lon="-1.30473">
        <ele>73</ele>
        <time>2010-08-13T11:44:36Z</time>
      </trkpt>
      <trkpt lat="47.24775" lon="-1.3052">
        <ele>73</ele>
        <time>2010-08-13T11:44:41Z</time>
      </trkpt>
      <trkpt lat="47.24763" lon="-1.30579">
        <ele>72</ele>
        <time>2010-08-13T11:44:46Z</time>
      </trkpt>
      <trkpt lat="47.24747" lon="-1.3065">
        <ele>72</ele>
        <time>2010-08-13T11:44:51Z</time>
      </trkpt>
      <trkpt lat="47.24734" lon="-1.30709">
        <ele>71</ele>
        <time>2010-08-13T11:44:56Z</time>
      </trkpt>
      <trkpt lat="47.24724" lon="-1.30759">
        <ele>70</ele>
        <time>2010-08-13T11:45:01Z</time>
      </trkpt>
      <trkpt lat="47.2471" lon="-1.30821">
        <ele>70</ele>
        <time>2010-08-13T11:45:06Z</time>
      </trkpt>
      <trkpt lat="47.24693" lon="-1.30896">
        <ele>70</ele>
        <time>2010-08-13T11:45:11Z</time>
      </trkpt>
      <trkpt lat="47.2468" lon="-1.30956">
        <ele>70</ele>
        <time>2010-08-13T11:45:16Z</time>
      </trkpt>
      <trkpt lat="47.24666" lon="-1.31014">
        <ele>69</ele>
        <time>2010-08-13T11:45:21Z</time>
      </trkpt>
      <trkpt lat="47.24656" lon="-1.3106">
        <ele>69</ele>
        <time>2010-08-13T11:45:26Z</time>
      </trkpt>
      <trkpt lat="47.24645" lon="-1.31114">
        <ele>70</ele>
        <time>2010-08-13T11:45:31Z</time>
      </trkpt>
      <trkpt lat="47.24632" lon="-1.31177">
        <ele>71</ele>
        <time>2010-08-13T11:45:36Z</time>
      </trkpt>
      <trkpt lat="47.2462" lon="-1.3123">
        <ele>71</ele>
        <time>2010-08-13T11:45:41Z</time>
      </trkpt>
      <trkpt lat="47.24611" lon="-1.31272">
        <ele>71</ele>
        <time>2010-08-13T11:45:46Z</time>
      </trkpt>
      <trkpt lat="47.24599" lon="-1.31324">
        <ele>72</ele>
        <time>2010-08-13T11:45:51Z</time>
      </trkpt>
      <trkpt lat="47.24585" lon="-1.31387">
        <ele>71</ele>
        <time>2010-08-13T11:45:56Z</time>
      </trkpt>
      <trkpt lat="47.24574" lon="-1.3144">
        <ele>71</ele>
        <time>2010-08-13T11:46:01Z</time>
      </trkpt>
      <trkpt lat="47.24562" lon="-1.31493">
        <ele>71</ele>
        <time>2010-08-13T11:46:06Z</time>
      </trkpt>
      <trkpt lat="47.24553" lon="-1.31534">
        <ele>72</ele>
        <time>2010-08-13T11:46:11Z</time>
      </trkpt>
      <trkpt lat="47.24541" lon="-1.31585">
        <ele>72</ele>
        <time>2010-08-13T11:46:16Z</time>
      </trkpt>
      <trkpt lat="47.24528" lon="-1.31647">
        <ele>72</ele>
        <time>2010-08-13T11:46:21Z</time>
      </trkpt>
      <trkpt lat="47.24517" lon="-1.31701">
        <ele>71</ele>
        <time>2010-08-13T11:46:26Z</time>
      </trkpt>
      <trkpt lat="47.24507" lon="-1.31746">
        <ele>71</ele>
        <time>2010-08-13T11:46:31Z</time>
      </trkpt>
      <trkpt lat="47.24495" lon="-1.31801">
        <ele>70</ele>
        <time>2010-08-13T11:46:36Z</time>
      </trkpt>
      <trkpt lat="47.2448" lon="-1.31869">
        <ele>70</ele>
        <time>2010-08-13T11:46:41Z</time>
      </trkpt>
      <trkpt lat="47.24468" lon="-1.31925">
        <ele>70</ele>
        <time>2010-08-13T11:46:46Z</time>
      </trkpt>
      <trkpt lat="47.24456" lon="-1.31983">
        <ele>70</ele>
        <time>2010-08-13T11:46:51Z</time>
      </trkpt>
      <trkpt lat="47.24446" lon="-1.32028">
        <ele>70</ele>
        <time>2010-08-13T11:46:56Z</time>
      </trkpt>
      <trkpt lat="47.24433" lon="-1.32085">
        <ele>69</ele>
        <time>2010-08-13T11:47:01Z</time>
      </trkpt>
      <trkpt lat="47.2442" lon="-1.32143">
        <ele>69</ele>
        <time>2010-08-13T11:47:06Z</time>
      </trkpt>
      <trkpt lat="47.24404" lon="-1.32218">
        <ele>67</ele>
        <time>2010-08-13T11:47:11Z</time>
      </trkpt>
      <trkpt lat="47.2439" lon="-1.32287">
        <ele>65</ele>
        <time>2010-08-13T11:47:16Z</time>
      </trkpt>
      <trkpt lat="47.24377" lon="-1.32342">
        <ele>63</ele>
        <time>2010-08-13T11:47:21Z</time>
      </trkpt>
      <trkpt lat="47.24363" lon="-1.32411">
        <ele>62</ele>
        <time>2010-08-13T11:47:26Z</time>
      </trkpt>
      <trkpt lat="47.24345" lon="-1.32494">
        <ele>61</ele>
        <time>2010-08-13T11:47:31Z</time>
      </trkpt>
      <trkpt lat="47.24329" lon="-1.32566">
        <ele>59</ele>
        <time>2010-08-13T11:47:36Z</time>
      </trkpt>
      <trkpt lat="47.24316" lon="-1.32624">
        <ele>59</ele>
        <time>2010-08-13T11:47:41Z</time>
      </trkpt>
      <trkpt lat="47.24301" lon="-1.32691">
        <ele>59</ele>
        <time>2010-08-13T11:47:46Z</time>
      </trkpt>
      <trkpt lat="47.24288" lon="-1.32757">
        <ele>57</ele>
        <time>2010-08-13T11:47:51Z</time>
      </trkpt>
      <trkpt lat="47.24271" lon="-1.32834">
        <ele>56</ele>
        <time>2010-08-13T11:47:56Z</time>
      </trkpt>
      <trkpt lat="47.24257" lon="-1.32897">
        <ele>55</ele>
        <time>2010-08-13T11:48:01Z</time>
      </trkpt>
      <trkpt lat="47.24246" lon="-1.32948">
        <ele>55</ele>
        <time>2010-08-13T11:48:06Z</time>
      </trkpt>
      <trkpt lat="47.2423" lon="-1.33027">
        <ele>54</ele>
        <time>2010-08-13T11:48:11Z</time>
      </trkpt>
      <trkpt lat="47.2422" lon="-1.33084">
        <ele>53</ele>
        <time>2010-08-13T11:48:16Z</time>
      </trkpt>
      <trkpt lat="47.24209" lon="-1.33169">
        <ele>51</ele>
        <time>2010-08-13T11:48:21Z</time>
      </trkpt>
      <trkpt lat="47.24206" lon="-1.33227">
        <ele>50</ele>
        <time>2010-08-13T11:48:26Z</time>
      </trkpt>
      <trkpt lat="47.24209" lon="-1.333">
        <ele>49</ele>
        <time>2010-08-13T11:48:31Z</time>
      </trkpt>
      <trkpt lat="47.24218" lon="-1.3337">
        <ele>48</ele>
        <time>2010-08-13T11:48:36Z</time>
      </trkpt>
      <trkpt lat="47.24237" lon="-1.33453">
        <ele>49</ele>
        <time>2010-08-13T11:48:41Z</time>
      </trkpt>
      <trkpt lat="47.24255" lon="-1.3352">
        <ele>49</ele>
        <time>2010-08-13T11:48:46Z</time>
      </trkpt>
      <trkpt lat="47.24273" lon="-1.33569">
        <ele>50</ele>
        <time>2010-08-13T11:48:51Z</time>
      </trkpt>
      <trkpt lat="47.24296" lon="-1.33624">
        <ele>50</ele>
        <time>2010-08-13T11:48:56Z</time>
      </trkpt>
      <trkpt lat="47.24324" lon="-1.33679">
        <ele>51</ele>
        <time>2010-08-13T11:49:01Z</time>
      </trkpt>
      <trkpt lat="47.24345" lon="-1.33718">
        <ele>52</ele>
        <time>2010-08-13T11:49:06Z</time>
      </trkpt>
      <trkpt lat="47.2436" lon="-1.33747">
        <ele>52</ele>
        <time>2010-08-13T11:49:11Z</time>
      </trkpt>
      <trkpt lat="47.24379" lon="-1.33781">
        <ele>51</ele>
        <time>2010-08-13T11:49:16Z</time>
      </trkpt>
      <trkpt lat="47.24401" lon="-1.3382">
        <ele>52</ele>
        <time>2010-08-13T11:49:21Z</time>
      </trkpt>
      <trkpt lat="47.24418" lon="-1.33852">
        <ele>53</ele>
        <time>2010-08-13T11:49:26Z</time>
      </trkpt>
      <trkpt lat="47.24435" lon="-1.33883">
        <ele>53</ele>
        <time>2010-08-13T11:49:31Z</time>
      </trkpt>
      <trkpt lat="47.24449" lon="-1.33908">
        <ele>54</ele>
        <time>2010-08-13T11:49:36Z</time>
      </trkpt>
      <trkpt lat="47.24466" lon="-1.33939">
        <ele>55</ele>
        <time>2010-08-13T11:49:41Z</time>
      </trkpt>
      <trkpt lat="47.24491" lon="-1.33969">
        <ele>56</ele>
        <time>2010-08-13T11:49:46Z</time>
      </trkpt>
      <trkpt lat="47.24501" lon="-1.34005">
        <ele>57</ele>
        <time>2010-08-13T11:49:51Z</time>
      </trkpt>
      <trkpt lat="47.24517" lon="-1.34037">
        <ele>58</ele>
        <time>2010-08-13T11:49:56Z</time>
      </trkpt>
      <trkpt lat="47.2453" lon="-1.34062">
        <ele>59</ele>
        <time>2010-08-13T11:50:01Z</time>
      </trkpt>
      <trkpt lat="47.24547" lon="-1.34096">
        <ele>60</ele>
        <time>2010-08-13T11:50:06Z</time>
      </trkpt>
      <trkpt lat="47.24568" lon="-1.34136">
        <ele>60</ele>
        <time>2010-08-13T11:50:11Z</time>
      </trkpt>
      <trkpt lat="47.24586" lon="-1.3417">
        <ele>60</ele>
        <time>2010-08-13T11:50:16Z</time>
      </trkpt>
      <trkpt lat="47.246" lon="-1.34197">
        <ele>61</ele>
        <time>2010-08-13T11:50:21Z</time>
      </trkpt>
      <trkpt lat="47.24618" lon="-1.34231">
        <ele>61</ele>
        <time>2010-08-13T11:50:26Z</time>
      </trkpt>
      <trkpt lat="47.24638" lon="-1.34274">
        <ele>61</ele>
        <time>2010-08-13T11:50:31Z</time>
      </trkpt>
      <trkpt lat="47.24654" lon="-1.34312">
        <ele>61</ele>
        <time>2010-08-13T11:50:36Z</time>
      </trkpt>
      <trkpt lat="47.24668" lon="-1.34353">
        <ele>60</ele>
        <time>2010-08-13T11:50:41Z</time>
      </trkpt>
      <trkpt lat="47.24678" lon="-1.34388">
        <ele>59</ele>
        <time>2010-08-13T11:50:46Z</time>
      </trkpt>
      <trkpt lat="47.24691" lon="-1.34444">
        <ele>58</ele>
        <time>2010-08-13T11:50:51Z</time>
      </trkpt>
      <trkpt lat="47.247" lon="-1.34496">
        <ele>58</ele>
        <time>2010-08-13T11:50:56Z</time>
      </trkpt>
      <trkpt lat="47.24715" lon="-1.34547">
        <ele>58</ele>
        <time>2010-08-13T11:51:01Z</time>
      </trkpt>
      <trkpt lat="47.2471" lon="-1.34593">
        <ele>57</ele>
        <time>2010-08-13T11:51:06Z</time>
      </trkpt>
      <trkpt lat="47.24708" lon="-1.34654">
        <ele>57</ele>
        <time>2010-08-13T11:51:11Z</time>
      </trkpt>
      <trkpt lat="47.24703" lon="-1.34732">
        <ele>56</ele>
        <time>2010-08-13T11:51:16Z</time>
      </trkpt>
      <trkpt lat="47.24696" lon="-1.34799">
        <ele>54</ele>
        <time>2010-08-13T11:51:21Z</time>
      </trkpt>
      <trkpt lat="47.24686" lon="-1.34868">
        <ele>52</ele>
        <time>2010-08-13T11:51:26Z</time>
      </trkpt>
      <trkpt lat="47.24678" lon="-1.34925">
        <ele>51</ele>
        <time>2010-08-13T11:51:31Z</time>
      </trkpt>
      <trkpt lat="47.24667" lon="-1.34996">
        <ele>50</ele>
        <time>2010-08-13T11:51:36Z</time>
      </trkpt>
      <trkpt lat="47.24653" lon="-1.35081">
        <ele>50</ele>
        <time>2010-08-13T11:51:41Z</time>
      </trkpt>
      <trkpt lat="47.24642" lon="-1.35152">
        <ele>50</ele>
        <time>2010-08-13T11:51:46Z</time>
      </trkpt>
      <trkpt lat="47.24634" lon="-1.35211">
        <ele>49</ele>
        <time>2010-08-13T11:51:51Z</time>
      </trkpt>
      <trkpt lat="47.24623" lon="-1.35285">
        <ele>48</ele>
        <time>2010-08-13T11:51:56Z</time>
      </trkpt>
      <trkpt lat="47.24611" lon="-1.3536">
        <ele>45</ele>
        <time>2010-08-13T11:52:01Z</time>
      </trkpt>
      <trkpt lat="47.24596" lon="-1.35453">
        <ele>43</ele>
        <time>2010-08-13T11:52:06Z</time>
      </trkpt>
      <trkpt lat="47.24584" lon="-1.35532">
        <ele>39</ele>
        <time>2010-08-13T11:52:11Z</time>
      </trkpt>
      <trkpt lat="47.24572" lon="-1.35595">
        <ele>37</ele>
        <time>2010-08-13T11:52:16Z</time>
      </trkpt>
      <trkpt lat="47.24555" lon="-1.35672">
        <ele>34</ele>
        <time>2010-08-13T11:52:21Z</time>
      </trkpt>
      <trkpt lat="47.24534" lon="-1.35764">
        <ele>31</ele>
        <time>2010-08-13T11:52:26Z</time>
      </trkpt>
      <trkpt lat="47.24514" lon="-1.35838">
        <ele>30</ele>
        <time>2010-08-13T11:52:31Z</time>
      </trkpt>
      <trkpt lat="47.24495" lon="-1.35896">
        <ele>29</ele>
        <time>2010-08-13T11:52:36Z</time>
      </trkpt>
      <trkpt lat="47.24469" lon="-1.35965">
        <ele>28</ele>
        <time>2010-08-13T11:52:41Z</time>
      </trkpt>
      <trkpt lat="47.2445" lon="-1.36033">
        <ele>26</ele>
        <time>2010-08-13T11:52:46Z</time>
      </trkpt>
      <trkpt lat="47.24419" lon="-1.36092">
        <ele>25</ele>
        <time>2010-08-13T11:52:51Z</time>
      </trkpt>
      <trkpt lat="47.24392" lon="-1.36143">
        <ele>24</ele>
        <time>2010-08-13T11:52:56Z</time>
      </trkpt>
      <trkpt lat="47.24369" lon="-1.36185">
        <ele>23</ele>
        <time>2010-08-13T11:53:01Z</time>
      </trkpt>
      <trkpt lat="47.2434" lon="-1.36235">
        <ele>22</ele>
        <time>2010-08-13T11:53:06Z</time>
      </trkpt>
      <trkpt lat="47.2431" lon="-1.36285">
        <ele>21</ele>
        <time>2010-08-13T11:53:11Z</time>
      </trkpt>
      <trkpt lat="47.24272" lon="-1.36343">
        <ele>19</ele>
        <time>2010-08-13T11:53:16Z</time>
      </trkpt>
      <trkpt lat="47.2424" lon="-1.3639">
        <ele>19</ele>
        <time>2010-08-13T11:53:21Z</time>
      </trkpt>
      <trkpt lat="47.24213" lon="-1.36425">
        <ele>18</ele>
        <time>2010-08-13T11:53:26Z</time>
      </trkpt>
      <trkpt lat="47.2417" lon="-1.36477">
        <ele>17</ele>
        <time>2010-08-13T11:53:31Z</time>
      </trkpt>
      <trkpt lat="47.24133" lon="-1.36519">
        <ele>17</ele>
        <time>2010-08-13T11:53:36Z</time>
      </trkpt>
      <trkpt lat="47.24094" lon="-1.3656">
        <ele>17</ele>
        <time>2010-08-13T11:53:41Z</time>
      </trkpt>
      <trkpt lat="47.24063" lon="-1.3659">
        <ele>17</ele>
        <time>2010-08-13T11:53:46Z</time>
      </trkpt>
      <trkpt lat="47.24022" lon="-1.36626">
        <ele>17</ele>
        <time>2010-08-13T11:53:51Z</time>
      </trkpt>
      <trkpt lat="47.23972" lon="-1.36667">
        <ele>15</ele>
        <time>2010-08-13T11:53:56Z</time>
      </trkpt>
      <trkpt lat="47.2393" lon="-1.36701">
        <ele>14</ele>
        <time>2010-08-13T11:54:01Z</time>
      </trkpt>
      <trkpt lat="47.23888" lon="-1.36735">
        <ele>13</ele>
        <time>2010-08-13T11:54:06Z</time>
      </trkpt>
      <trkpt lat="47.23854" lon="-1.36762">
        <ele>13</ele>
        <time>2010-08-13T11:54:11Z</time>
      </trkpt>
      <trkpt lat="47.23814" lon="-1.36799">
        <ele>12</ele>
        <time>2010-08-13T11:54:16Z</time>
      </trkpt>
      <trkpt lat="47.23767" lon="-1.3685">
        <ele>11</ele>
        <time>2010-08-13T11:54:21Z</time>
      </trkpt>
      <trkpt lat="47.2373" lon="-1.36896">
        <ele>11</ele>
        <time>2010-08-13T11:54:26Z</time>
      </trkpt>
      <trkpt lat="47.23704" lon="-1.36937">
        <ele>11</ele>
        <time>2010-08-13T11:54:31Z</time>
      </trkpt>
      <trkpt lat="47.2368" lon="-1.36996">
        <ele>11</ele>
        <time>2010-08-13T11:54:36Z</time>
      </trkpt>
      <trkpt lat="47.23652" lon="-1.37064">
        <ele>11</ele>
        <time>2010-08-13T11:54:41Z</time>
      </trkpt>
      <trkpt lat="47.23634" lon="-1.37122">
        <ele>11</ele>
        <time>2010-08-13T11:54:46Z</time>
      </trkpt>
      <trkpt lat="47.23622" lon="-1.37181">
        <ele>11</ele>
        <time>2010-08-13T11:54:51Z</time>
      </trkpt>
      <trkpt lat="47.23615" lon="-1.37228">
        <ele>11</ele>
        <time>2010-08-13T11:54:56Z</time>
      </trkpt>
      <trkpt lat="47.23608" lon="-1.37286">
        <ele>11</ele>
        <time>2010-08-13T11:55:01Z</time>
      </trkpt>
      <trkpt lat="47.236" lon="-1.37354">
        <ele>12</ele>
        <time>2010-08-13T11:55:06Z</time>
      </trkpt>
      <trkpt lat="47.23594" lon="-1.37409">
        <ele>12</ele>
        <time>2010-08-13T11:55:11Z</time>
      </trkpt>
      <trkpt lat="47.2359" lon="-1.37454">
        <ele>11</ele>
        <time>2010-08-13T11:55:16Z</time>
      </trkpt>
      <trkpt lat="47.23583" lon="-1.37509">
        <ele>10</ele>
        <time>2010-08-13T11:55:21Z</time>
      </trkpt>
      <trkpt lat="47.23578" lon="-1.37563">
        <ele>11</ele>
        <time>2010-08-13T11:55:26Z</time>
      </trkpt>
      <trkpt lat="47.23573" lon="-1.37628">
        <ele>12</ele>
        <time>2010-08-13T11:55:31Z</time>
      </trkpt>
      <trkpt lat="47.23568" lon="-1.37681">
        <ele>12</ele>
        <time>2010-08-13T11:55:36Z</time>
      </trkpt>
      <trkpt lat="47.23564" lon="-1.37723">
        <ele>12</ele>
        <time>2010-08-13T11:55:41Z</time>
      </trkpt>
      <trkpt lat="47.23559" lon="-1.37775">
        <ele>12</ele>
        <time>2010-08-13T11:55:46Z</time>
      </trkpt>
      <trkpt lat="47.23554" lon="-1.3784">
        <ele>13</ele>
        <time>2010-08-13T11:55:51Z</time>
      </trkpt>
      <trkpt lat="47.23549" lon="-1.37896">
        <ele>13</ele>
        <time>2010-08-13T11:55:56Z</time>
      </trkpt>
      <trkpt lat="47.23545" lon="-1.3794">
        <ele>13</ele>
        <time>2010-08-13T11:56:01Z</time>
      </trkpt>
      <trkpt lat="47.2354" lon="-1.37995">
        <ele>13</ele>
        <time>2010-08-13T11:56:06Z</time>
      </trkpt>
      <trkpt lat="47.23534" lon="-1.38061">
        <ele>13</ele>
        <time>2010-08-13T11:56:11Z</time>
      </trkpt>
      <trkpt lat="47.23529" lon="-1.38116">
        <ele>13</ele>
        <time>2010-08-13T11:56:16Z</time>
      </trkpt>
      <trkpt lat="47.23525" lon="-1.38171">
        <ele>14</ele>
        <time>2010-08-13T11:56:21Z</time>
      </trkpt>
      <trkpt lat="47.23521" lon="-1.38215">
        <ele>14</ele>
        <time>2010-08-13T11:56:26Z</time>
      </trkpt>
      <trkpt lat="47.23516" lon="-1.38267">
        <ele>15</ele>
        <time>2010-08-13T11:56:31Z</time>
      </trkpt>
      <trkpt lat="47.2351" lon="-1.38328">
        <ele>15</ele>
        <time>2010-08-13T11:56:36Z</time>
      </trkpt>
      <trkpt lat="47.23505" lon="-1.38379">
        <ele>15</ele>
        <time>2010-08-13T11:56:41Z</time>
      </trkpt>
      <trkpt lat="47.235" lon="-1.3843">
        <ele>17</ele>
        <time>2010-08-13T11:56:46Z</time>
      </trkpt>
      <trkpt lat="47.23497" lon="-1.3847">
        <ele>17</ele>
        <time>2010-08-13T11:56:51Z</time>
      </trkpt>
      <trkpt lat="47.23492" lon="-1.3852">
        <ele>18</ele>
        <time>2010-08-13T11:56:56Z</time>
      </trkpt>
      <trkpt lat="47.23487" lon="-1.38579">
        <ele>18</ele>
        <time>2010-08-13T11:57:01Z</time>
      </trkpt>
      <trkpt lat="47.23483" lon="-1.38627">
        <ele>17</ele>
        <time>2010-08-13T11:57:06Z</time>
      </trkpt>
      <trkpt lat="47.23479" lon="-1.38666">
        <ele>17</ele>
        <time>2010-08-13T11:57:11Z</time>
      </trkpt>
      <trkpt lat="47.23474" lon="-1.38714">
        <ele>17</ele>
        <time>2010-08-13T11:57:16Z</time>
      </trkpt>
      <trkpt lat="47.23469" lon="-1.38774">
        <ele>16</ele>
        <time>2010-08-13T11:57:21Z</time>
      </trkpt>
      <trkpt lat="47.23464" lon="-1.38825">
        <ele>16</ele>
        <time>2010-08-13T11:57:26Z</time>
      </trkpt>
      <trkpt lat="47.2346" lon="-1.38879">
        <ele>15</ele>
        <time>2010-08-13T11:57:31Z</time>
      </trkpt>
      <trkpt lat="47.23456" lon="-1.38923">
        <ele>14</ele>
        <time>2010-08-13T11:57:36Z</time>
      </trkpt>
      <trkpt lat="47.23451" lon="-1.38979">
        <ele>14</ele>
        <time>2010-08-13T11:57:41Z</time>
      </trkpt>
      <trkpt lat="47.23446" lon="-1.39039">
        <ele>14</ele>
        <time>2010-08-13T11:57:46Z</time>
      </trkpt>
      <trkpt lat="47.23438" lon="-1.39117">
        <ele>13</ele>
        <time>2010-08-13T11:57:51Z</time>
      </trkpt>
      <trkpt lat="47.23433" lon="-1.39171">
        <ele>12</ele>
        <time>2010-08-13T11:57:56Z</time>
      </trkpt>
      <trkpt lat="47.23426" lon="-1.3924">
        <ele>12</ele>
        <time>2010-08-13T11:58:01Z</time>
      </trkpt>
      <trkpt lat="47.2342" lon="-1.39305">
        <ele>11</ele>
        <time>2010-08-13T11:58:06Z</time>
      </trkpt>
      <trkpt lat="47.23413" lon="-1.39381">
        <ele>10</ele>
        <time>2010-08-13T11:58:11Z</time>
      </trkpt>
      <trkpt lat="47.23407" lon="-1.39441">
        <ele>9</ele>
        <time>2010-08-13T11:58:16Z</time>
      </trkpt>
      <trkpt lat="47.23403" lon="-1.39488">
        <ele>9</ele>
        <time>2010-08-13T11:58:21Z</time>
      </trkpt>
      <trkpt lat="47.23397" lon="-1.39549">
        <ele>8</ele>
        <time>2010-08-13T11:58:26Z</time>
      </trkpt>
      <trkpt lat="47.23391" lon="-1.39612">
        <ele>7</ele>
        <time>2010-08-13T11:58:31Z</time>
      </trkpt>
      <trkpt lat="47.23384" lon="-1.39686">
        <ele>7</ele>
        <time>2010-08-13T11:58:36Z</time>
      </trkpt>
      <trkpt lat="47.23379" lon="-1.39736">
        <ele>7</ele>
        <time>2010-08-13T11:58:41Z</time>
      </trkpt>
      <trkpt lat="47.23372" lon="-1.39796">
        <ele>6</ele>
        <time>2010-08-13T11:58:46Z</time>
      </trkpt>
      <trkpt lat="47.23363" lon="-1.39855">
        <ele>7</ele>
        <time>2010-08-13T11:58:51Z</time>
      </trkpt>
      <trkpt lat="47.23346" lon="-1.39922">
        <ele>7</ele>
        <time>2010-08-13T11:58:56Z</time>
      </trkpt>
      <trkpt lat="47.23328" lon="-1.39974">
        <ele>7</ele>
        <time>2010-08-13T11:59:01Z</time>
      </trkpt>
      <trkpt lat="47.23312" lon="-1.40016">
        <ele>7</ele>
        <time>2010-08-13T11:59:06Z</time>
      </trkpt>
      <trkpt lat="47.23292" lon="-1.40067">
        <ele>7</ele>
        <time>2010-08-13T11:59:11Z</time>
      </trkpt>
      <trkpt lat="47.23268" lon="-1.40127">
        <ele>8</ele>
        <time>2010-08-13T11:59:16Z</time>
      </trkpt>
      <trkpt lat="47.23249" lon="-1.40175">
        <ele>9</ele>
        <time>2010-08-13T11:59:21Z</time>
      </trkpt>
      <trkpt lat="47.2323" lon="-1.40222">
        <ele>9</ele>
        <time>2010-08-13T11:59:26Z</time>
      </trkpt>
      <trkpt lat="47.23217" lon="-1.40257">
        <ele>11</ele>
        <time>2010-08-13T11:59:31Z</time>
      </trkpt>
      <trkpt lat="47.23197" lon="-1.40307">
        <ele>11</ele>
        <time>2010-08-13T11:59:36Z</time>
      </trkpt>
      <trkpt lat="47.23182" lon="-1.40346">
        <ele>12</ele>
        <time>2010-08-13T11:59:41Z</time>
      </trkpt>
      <trkpt lat="47.23166" lon="-1.40385">
        <ele>11</ele>
        <time>2010-08-13T11:59:46Z</time>
      </trkpt>
      <trkpt lat="47.23154" lon="-1.40416">
        <ele>12</ele>
        <time>2010-08-13T11:59:51Z</time>
      </trkpt>
      <trkpt lat="47.23138" lon="-1.40455">
        <ele>12</ele>
        <time>2010-08-13T11:59:56Z</time>
      </trkpt>
      <trkpt lat="47.23123" lon="-1.40493">
        <ele>12</ele>
        <time>2010-08-13T12:00:01Z</time>
      </trkpt>
      <trkpt lat="47.23104" lon="-1.40541">
        <ele>13</ele>
        <time>2010-08-13T12:00:06Z</time>
      </trkpt>
      <trkpt lat="47.23088" lon="-1.40583">
        <ele>14</ele>
        <time>2010-08-13T12:00:11Z</time>
      </trkpt>
      <trkpt lat="47.23075" lon="-1.40616">
        <ele>14</ele>
        <time>2010-08-13T12:00:16Z</time>
      </trkpt>
      <trkpt lat="47.23059" lon="-1.40658">
        <ele>14</ele>
        <time>2010-08-13T12:00:21Z</time>
      </trkpt>
      <trkpt lat="47.2304" lon="-1.40711">
        <ele>15</ele>
        <time>2010-08-13T12:00:26Z</time>
      </trkpt>
      <trkpt lat="47.23023" lon="-1.40757">
        <ele>14</ele>
        <time>2010-08-13T12:00:31Z</time>
      </trkpt>
      <trkpt lat="47.23009" lon="-1.40795">
        <ele>14</ele>
        <time>2010-08-13T12:00:36Z</time>
      </trkpt>
      <trkpt lat="47.2299" lon="-1.40843">
        <ele>13</ele>
        <time>2010-08-13T12:00:41Z</time>
      </trkpt>
      <trkpt lat="47.22971" lon="-1.40892">
        <ele>13</ele>
        <time>2010-08-13T12:00:46Z</time>
      </trkpt>
      <trkpt lat="47.22945" lon="-1.4095">
        <ele>13</ele>
        <time>2010-08-13T12:00:51Z</time>
      </trkpt>
      <trkpt lat="47.22924" lon="-1.41001">
        <ele>13</ele>
        <time>2010-08-13T12:00:56Z</time>
      </trkpt>
      <trkpt lat="47.22908" lon="-1.41042">
        <ele>13</ele>
        <time>2010-08-13T12:01:01Z</time>
      </trkpt>
      <trkpt lat="47.22889" lon="-1.41094">
        <ele>13</ele>
        <time>2010-08-13T12:01:06Z</time>
      </trkpt>
      <trkpt lat="47.22866" lon="-1.41152">
        <ele>13</ele>
        <time>2010-08-13T12:01:11Z</time>
      </trkpt>
      <trkpt lat="47.22851" lon="-1.41191">
        <ele>13</ele>
        <time>2010-08-13T12:01:16Z</time>
      </trkpt>
      <trkpt lat="47.22832" lon="-1.41238">
        <ele>14</ele>
        <time>2010-08-13T12:01:21Z</time>
      </trkpt>
      <trkpt lat="47.22813" lon="-1.41285">
        <ele>15</ele>
        <time>2010-08-13T12:01:26Z</time>
      </trkpt>
      <trkpt lat="47.22794" lon="-1.41332">
        <ele>16</ele>
        <time>2010-08-13T12:01:31Z</time>
      </trkpt>
      <trkpt lat="47.22773" lon="-1.41387">
        <ele>16</ele>
        <time>2010-08-13T12:01:36Z</time>
      </trkpt>
      <trkpt lat="47.22756" lon="-1.41434">
        <ele>17</ele>
        <time>2010-08-13T12:01:41Z</time>
      </trkpt>
      <trkpt lat="47.22743" lon="-1.41472">
        <ele>17</ele>
        <time>2010-08-13T12:01:46Z</time>
      </trkpt>
      <trkpt lat="47.22725" lon="-1.41518">
        <ele>17</ele>
        <time>2010-08-13T12:01:51Z</time>
      </trkpt>
      <trkpt lat="47.22704" lon="-1.41574">
        <ele>17</ele>
        <time>2010-08-13T12:01:56Z</time>
      </trkpt>
      <trkpt lat="47.22686" lon="-1.41625">
        <ele>16</ele>
        <time>2010-08-13T12:02:01Z</time>
      </trkpt>
      <trkpt lat="47.2267" lon="-1.41666">
        <ele>15</ele>
        <time>2010-08-13T12:02:06Z</time>
      </trkpt>
      <trkpt lat="47.2265" lon="-1.41717">
        <ele>16</ele>
        <time>2010-08-13T12:02:11Z</time>
      </trkpt>
      <trkpt lat="47.2263" lon="-1.41769">
        <ele>15</ele>
        <time>2010-08-13T12:02:16Z</time>
      </trkpt>
      <trkpt lat="47.22606" lon="-1.41831">
        <ele>15</ele>
        <time>2010-08-13T12:02:21Z</time>
      </trkpt>
      <trkpt lat="47.22585" lon="-1.41885">
        <ele>15</ele>
        <time>2010-08-13T12:02:26Z</time>
      </trkpt>
      <trkpt lat="47.22567" lon="-1.41931">
        <ele>14</ele>
        <time>2010-08-13T12:02:31Z</time>
      </trkpt>
      <trkpt lat="47.22545" lon="-1.41987">
        <ele>13</ele>
        <time>2010-08-13T12:02:36Z</time>
      </trkpt>
      <trkpt lat="47.22519" lon="-1.42053">
        <ele>14</ele>
        <time>2010-08-13T12:02:41Z</time>
      </trkpt>
      <trkpt lat="47.225" lon="-1.42105">
        <ele>13</ele>
        <time>2010-08-13T12:02:46Z</time>
      </trkpt>
      <trkpt lat="47.2248" lon="-1.42156">
        <ele>12</ele>
        <time>2010-08-13T12:02:51Z</time>
      </trkpt>
      <trkpt lat="47.22464" lon="-1.42199">
        <ele>11</ele>
        <time>2010-08-13T12:02:56Z</time>
      </trkpt>
      <trkpt lat="47.22442" lon="-1.42257">
        <ele>10</ele>
        <time>2010-08-13T12:03:01Z</time>
      </trkpt>
      <trkpt lat="47.22418" lon="-1.42315">
        <ele>9</ele>
        <time>2010-08-13T12:03:06Z</time>
      </trkpt>
      <trkpt lat="47.2239" lon="-1.42394">
        <ele>9</ele>
        <time>2010-08-13T12:03:11Z</time>
      </trkpt>
      <trkpt lat="47.22372" lon="-1.42438">
        <ele>8</ele>
        <time>2010-08-13T12:03:16Z</time>
      </trkpt>
      <trkpt lat="47.22353" lon="-1.4249">
        <ele>8</ele>
        <time>2010-08-13T12:03:21Z</time>
      </trkpt>
      <trkpt lat="47.22333" lon="-1.42552">
        <ele>7</ele>
        <time>2010-08-13T12:03:26Z</time>
      </trkpt>
      <trkpt lat="47.22316" lon="-1.42599">
        <ele>8</ele>
        <time>2010-08-13T12:03:31Z</time>
      </trkpt>
      <trkpt lat="47.22301" lon="-1.42643">
        <ele>8</ele>
        <time>2010-08-13T12:03:36Z</time>
      </trkpt>
      <trkpt lat="47.22288" lon="-1.42677">
        <ele>10</ele>
        <time>2010-08-13T12:03:41Z</time>
      </trkpt>
      <trkpt lat="47.22272" lon="-1.4272">
        <ele>11</ele>
        <time>2010-08-13T12:03:46Z</time>
      </trkpt>
      <trkpt lat="47.22253" lon="-1.42775">
        <ele>11</ele>
        <time>2010-08-13T12:03:51Z</time>
      </trkpt>
      <trkpt lat="47.22235" lon="-1.42824">
        <ele>10</ele>
        <time>2010-08-13T12:03:56Z</time>
      </trkpt>
      <trkpt lat="47.22221" lon="-1.42863">
        <ele>9</ele>
        <time>2010-08-13T12:04:01Z</time>
      </trkpt>
      <trkpt lat="47.22202" lon="-1.42913">
        <ele>9</ele>
        <time>2010-08-13T12:04:06Z</time>
      </trkpt>
      <trkpt lat="47.22183" lon="-1.42964">
        <ele>9</ele>
        <time>2010-08-13T12:04:11Z</time>
      </trkpt>
      <trkpt lat="47.22162" lon="-1.43024">
        <ele>9</ele>
        <time>2010-08-13T12:04:16Z</time>
      </trkpt>
      <trkpt lat="47.22143" lon="-1.43074">
        <ele>9</ele>
        <time>2010-08-13T12:04:21Z</time>
      </trkpt>
      <trkpt lat="47.22125" lon="-1.43112">
        <ele>9</ele>
        <time>2010-08-13T12:04:26Z</time>
      </trkpt>
      <trkpt lat="47.221" lon="-1.43157">
        <ele>10</ele>
        <time>2010-08-13T12:04:31Z</time>
      </trkpt>
      <trkpt lat="47.22067" lon="-1.43208">
        <ele>9</ele>
        <time>2010-08-13T12:04:36Z</time>
      </trkpt>
      <trkpt lat="47.22041" lon="-1.4325">
        <ele>9</ele>
        <time>2010-08-13T12:04:41Z</time>
      </trkpt>
      <trkpt lat="47.22019" lon="-1.43283">
        <ele>9</ele>
        <time>2010-08-13T12:04:46Z</time>
      </trkpt>
      <trkpt lat="47.21992" lon="-1.43326">
        <ele>7</ele>
        <time>2010-08-13T12:04:51Z</time>
      </trkpt>
      <trkpt lat="47.21964" lon="-1.43368">
        <ele>6</ele>
        <time>2010-08-13T12:04:56Z</time>
      </trkpt>
      <trkpt lat="47.21928" lon="-1.43416">
        <ele>6</ele>
        <time>2010-08-13T12:05:01Z</time>
      </trkpt>
      <trkpt lat="47.21895" lon="-1.43447">
        <ele>5</ele>
        <time>2010-08-13T12:05:06Z</time>
      </trkpt>
      <trkpt lat="47.21865" lon="-1.43467">
        <ele>5</ele>
        <time>2010-08-13T12:05:11Z</time>
      </trkpt>
      <trkpt lat="47.2183" lon="-1.43494">
        <ele>5</ele>
        <time>2010-08-13T12:05:16Z</time>
      </trkpt>
      <trkpt lat="47.21786" lon="-1.43523">
        <ele>5</ele>
        <time>2010-08-13T12:05:21Z</time>
      </trkpt>
      <trkpt lat="47.21749" lon="-1.43546">
        <ele>6</ele>
        <time>2010-08-13T12:05:26Z</time>
      </trkpt>
      <trkpt lat="47.21721" lon="-1.43568">
        <ele>6</ele>
        <time>2010-08-13T12:05:31Z</time>
      </trkpt>
      <trkpt lat="47.21686" lon="-1.43596">
        <ele>6</ele>
        <time>2010-08-13T12:05:36Z</time>
      </trkpt>
      <trkpt lat="47.21653" lon="-1.43623">
        <ele>6</ele>
        <time>2010-08-13T12:05:41Z</time>
      </trkpt>
      <trkpt lat="47.21623" lon="-1.43662">
        <ele>6</ele>
        <time>2010-08-13T12:05:46Z</time>
      </trkpt>
      <trkpt lat="47.21581" lon="-1.43683">
        <ele>7</ele>
        <time>2010-08-13T12:05:51Z</time>
      </trkpt>
      <trkpt lat="47.21553" lon="-1.43703">
        <ele>7</ele>
        <time>2010-08-13T12:05:56Z</time>
      </trkpt>
      <trkpt lat="47.21518" lon="-1.43727">
        <ele>7</ele>
        <time>2010-08-13T12:06:01Z</time>
      </trkpt>
      <trkpt lat="47.21476" lon="-1.43759">
        <ele>6</ele>
        <time>2010-08-13T12:06:06Z</time>
      </trkpt>
      <trkpt lat="47.21441" lon="-1.43786">
        <ele>6</ele>
        <time>2010-08-13T12:06:11Z</time>
      </trkpt>
      <trkpt lat="47.21404" lon="-1.43812">
        <ele>5</ele>
        <time>2010-08-13T12:06:16Z</time>
      </trkpt>
      <trkpt lat="47.21375" lon="-1.43833">
        <ele>5</ele>
        <time>2010-08-13T12:06:21Z</time>
      </trkpt>
      <trkpt lat="47.21338" lon="-1.43862">
        <ele>6</ele>
        <time>2010-08-13T12:06:26Z</time>
      </trkpt>
      <trkpt lat="47.21294" lon="-1.43891">
        <ele>6</ele>
        <time>2010-08-13T12:06:31Z</time>
      </trkpt>
      <trkpt lat="47.21257" lon="-1.43915">
        <ele>5</ele>
        <time>2010-08-13T12:06:36Z</time>
      </trkpt>
      <trkpt lat="47.21229" lon="-1.43937">
        <ele>6</ele>
        <time>2010-08-13T12:06:41Z</time>
      </trkpt>
      <trkpt lat="47.21194" lon="-1.43964">
        <ele>6</ele>
        <time>2010-08-13T12:06:46Z</time>
      </trkpt>
      <trkpt lat="47.2116" lon="-1.43989">
        <ele>6</ele>
        <time>2010-08-13T12:06:51Z</time>
      </trkpt>
      <trkpt lat="47.2112" lon="-1.44018">
        <ele>7</ele>
        <time>2010-08-13T12:06:56Z</time>
      </trkpt>
      <trkpt lat="47.21087" lon="-1.44041">
        <ele>7</ele>
        <time>2010-08-13T12:07:01Z</time>
      </trkpt>
      <trkpt lat="47.21061" lon="-1.4406">
        <ele>8</ele>
        <time>2010-08-13T12:07:06Z</time>
      </trkpt>
      <trkpt lat="47.21027" lon="-1.44086">
        <ele>8</ele>
        <time>2010-08-13T12:07:11Z</time>
      </trkpt>
      <trkpt lat="47.20988" lon="-1.44117">
        <ele>7</ele>
        <time>2010-08-13T12:07:16Z</time>
      </trkpt>
      <trkpt lat="47.20954" lon="-1.44144">
        <ele>7</ele>
        <time>2010-08-13T12:07:21Z</time>
      </trkpt>
      <trkpt lat="47.20927" lon="-1.44165">
        <ele>7</ele>
        <time>2010-08-13T12:07:26Z</time>
      </trkpt>
      <trkpt lat="47.20894" lon="-1.44191">
        <ele>9</ele>
        <time>2010-08-13T12:07:31Z</time>
      </trkpt>
      <trkpt lat="47.20862" lon="-1.44216">
        <ele>10</ele>
        <time>2010-08-13T12:07:36Z</time>
      </trkpt>
      <trkpt lat="47.20824" lon="-1.44245">
        <ele>11</ele>
        <time>2010-08-13T12:07:41Z</time>
      </trkpt>
      <trkpt lat="47.20793" lon="-1.44268">
        <ele>12</ele>
        <time>2010-08-13T12:07:46Z</time>
      </trkpt>
      <trkpt lat="47.20769" lon="-1.44287">
        <ele>12</ele>
        <time>2010-08-13T12:07:51Z</time>
      </trkpt>
      <trkpt lat="47.2074" lon="-1.44312">
        <ele>13</ele>
        <time>2010-08-13T12:07:56Z</time>
      </trkpt>
      <trkpt lat="47.20705" lon="-1.44341">
        <ele>14</ele>
        <time>2010-08-13T12:08:01Z</time>
      </trkpt>
      <trkpt lat="47.20681" lon="-1.44372">
        <ele>14</ele>
        <time>2010-08-13T12:08:06Z</time>
      </trkpt>
      <trkpt lat="47.20659" lon="-1.44385">
        <ele>13</ele>
        <time>2010-08-13T12:08:11Z</time>
      </trkpt>
      <trkpt lat="47.20626" lon="-1.44398">
        <ele>13</ele>
        <time>2010-08-13T12:08:16Z</time>
      </trkpt>
      <trkpt lat="47.20595" lon="-1.44421">
        <ele>12</ele>
        <time>2010-08-13T12:08:21Z</time>
      </trkpt>
      <trkpt lat="47.20557" lon="-1.44447">
        <ele>11</ele>
        <time>2010-08-13T12:08:26Z</time>
      </trkpt>
      <trkpt lat="47.20523" lon="-1.4447">
        <ele>11</ele>
        <time>2010-08-13T12:08:31Z</time>
      </trkpt>
      <trkpt lat="47.20496" lon="-1.44492">
        <ele>11</ele>
        <time>2010-08-13T12:08:36Z</time>
      </trkpt>
      <trkpt lat="47.20461" lon="-1.44513">
        <ele>10</ele>
        <time>2010-08-13T12:08:41Z</time>
      </trkpt>
      <trkpt lat="47.2042" lon="-1.44538">
        <ele>10</ele>
        <time>2010-08-13T12:08:46Z</time>
      </trkpt>
      <trkpt lat="47.20387" lon="-1.44561">
        <ele>11</ele>
        <time>2010-08-13T12:08:51Z</time>
      </trkpt>
      <trkpt lat="47.20354" lon="-1.44583">
        <ele>11</ele>
        <time>2010-08-13T12:08:56Z</time>
      </trkpt>
      <trkpt lat="47.20328" lon="-1.44601">
        <ele>11</ele>
        <time>2010-08-13T12:09:01Z</time>
      </trkpt>
      <trkpt lat="47.20295" lon="-1.44625">
        <ele>11</ele>
        <time>2010-08-13T12:09:06Z</time>
      </trkpt>
      <trkpt lat="47.20255" lon="-1.44653">
        <ele>11</ele>
        <time>2010-08-13T12:09:11Z</time>
      </trkpt>
      <trkpt lat="47.20223" lon="-1.44678">
        <ele>12</ele>
        <time>2010-08-13T12:09:16Z</time>
      </trkpt>
      <trkpt lat="47.20199" lon="-1.447">
        <ele>13</ele>
        <time>2010-08-13T12:09:21Z</time>
      </trkpt>
      <trkpt lat="47.20177" lon="-1.4474">
        <ele>14</ele>
        <time>2010-08-13T12:09:26Z</time>
      </trkpt>
      <trkpt lat="47.20146" lon="-1.44765">
        <ele>16</ele>
        <time>2010-08-13T12:09:31Z</time>
      </trkpt>
      <trkpt lat="47.20121" lon="-1.44793">
        <ele>16</ele>
        <time>2010-08-13T12:09:36Z</time>
      </trkpt>
      <trkpt lat="47.201" lon="-1.44824">
        <ele>16</ele>
        <time>2010-08-13T12:09:41Z</time>
      </trkpt>
      <trkpt lat="47.20085" lon="-1.44849">
        <ele>16</ele>
        <time>2010-08-13T12:09:46Z</time>
      </trkpt>
      <trkpt lat="47.20063" lon="-1.44885">
        <ele>17</ele>
        <time>2010-08-13T12:09:51Z</time>
      </trkpt>
      <trkpt lat="47.20045" lon="-1.44915">
        <ele>18</ele>
        <time>2010-08-13T12:09:56Z</time>
      </trkpt>
      <trkpt lat="47.20027" lon="-1.44945">
        <ele>20</ele>
        <time>2010-08-13T12:10:01Z</time>
      </trkpt>
      <trkpt lat="47.20013" lon="-1.44971">
        <ele>21</ele>
        <time>2010-08-13T12:10:06Z</time>
      </trkpt>
      <trkpt lat="47.20005" lon="-1.4501">
        <ele>24</ele>
        <time>2010-08-13T12:10:11Z</time>
      </trkpt>
      <trkpt lat="47.19984" lon="-1.45034">
        <ele>26</ele>
        <time>2010-08-13T12:10:16Z</time>
      </trkpt>
      <trkpt lat="47.19957" lon="-1.45066">
        <ele>27</ele>
        <time>2010-08-13T12:10:21Z</time>
      </trkpt>
      <trkpt lat="47.1994" lon="-1.45101">
        <ele>29</ele>
        <time>2010-08-13T12:10:26Z</time>
      </trkpt>
      <trkpt lat="47.19926" lon="-1.45127">
        <ele>29</ele>
        <time>2010-08-13T12:10:31Z</time>
      </trkpt>
      <trkpt lat="47.1991" lon="-1.45161">
        <ele>29</ele>
        <time>2010-08-13T12:10:36Z</time>
      </trkpt>
      <trkpt lat="47.19891" lon="-1.45201">
        <ele>29</ele>
        <time>2010-08-13T12:10:41Z</time>
      </trkpt>
      <trkpt lat="47.19875" lon="-1.45234">
        <ele>29</ele>
        <time>2010-08-13T12:10:46Z</time>
      </trkpt>
      <trkpt lat="47.19861" lon="-1.45261">
        <ele>28</ele>
        <time>2010-08-13T12:10:51Z</time>
      </trkpt>
      <trkpt lat="47.19845" lon="-1.45295">
        <ele>28</ele>
        <time>2010-08-13T12:10:56Z</time>
      </trkpt>
      <trkpt lat="47.19826" lon="-1.45338">
        <ele>29</ele>
        <time>2010-08-13T12:11:01Z</time>
      </trkpt>
      <trkpt lat="47.1982" lon="-1.45383">
        <ele>30</ele>
        <time>2010-08-13T12:11:06Z</time>
      </trkpt>
      <trkpt lat="47.19797" lon="-1.45414">
        <ele>30</ele>
        <time>2010-08-13T12:11:11Z</time>
      </trkpt>
      <trkpt lat="47.19778" lon="-1.45444">
        <ele>30</ele>
        <time>2010-08-13T12:11:16Z</time>
      </trkpt>
      <trkpt lat="47.19757" lon="-1.45486">
        <ele>29</ele>
        <time>2010-08-13T12:11:21Z</time>
      </trkpt>
      <trkpt lat="47.19731" lon="-1.45539">
        <ele>27</ele>
        <time>2010-08-13T12:11:26Z</time>
      </trkpt>
      <trkpt lat="47.19707" lon="-1.45589">
        <ele>26</ele>
        <time>2010-08-13T12:11:31Z</time>
      </trkpt>
      <trkpt lat="47.19686" lon="-1.45631">
        <ele>26</ele>
        <time>2010-08-13T12:11:36Z</time>
      </trkpt>
      <trkpt lat="47.19658" lon="-1.45687">
        <ele>25</ele>
        <time>2010-08-13T12:11:41Z</time>
      </trkpt>
      <trkpt lat="47.19632" lon="-1.45743">
        <ele>24</ele>
        <time>2010-08-13T12:11:46Z</time>
      </trkpt>
      <trkpt lat="47.19604" lon="-1.45803">
        <ele>23</ele>
        <time>2010-08-13T12:11:51Z</time>
      </trkpt>
      <trkpt lat="47.19584" lon="-1.45849">
        <ele>23</ele>
        <time>2010-08-13T12:11:56Z</time>
      </trkpt>
      <trkpt lat="47.19567" lon="-1.45884">
        <ele>24</ele>
        <time>2010-08-13T12:12:01Z</time>
      </trkpt>
      <trkpt lat="47.19546" lon="-1.45929">
        <ele>24</ele>
        <time>2010-08-13T12:12:06Z</time>
      </trkpt>
      <trkpt lat="47.19522" lon="-1.4598">
        <ele>25</ele>
        <time>2010-08-13T12:12:11Z</time>
      </trkpt>
      <trkpt lat="47.19503" lon="-1.46019">
        <ele>26</ele>
        <time>2010-08-13T12:12:16Z</time>
      </trkpt>
      <trkpt lat="47.19485" lon="-1.46057">
        <ele>28</ele>
        <time>2010-08-13T12:12:21Z</time>
      </trkpt>
      <trkpt lat="47.19471" lon="-1.46087">
        <ele>29</ele>
        <time>2010-08-13T12:12:26Z</time>
      </trkpt>
      <trkpt lat="47.19453" lon="-1.46123">
        <ele>30</ele>
        <time>2010-08-13T12:12:31Z</time>
      </trkpt>
      <trkpt lat="47.19432" lon="-1.46168">
        <ele>31</ele>
        <time>2010-08-13T12:12:36Z</time>
      </trkpt>
      <trkpt lat="47.19414" lon="-1.46204">
        <ele>31</ele>
        <time>2010-08-13T12:12:41Z</time>
      </trkpt>
      <trkpt lat="47.194" lon="-1.46234">
        <ele>31</ele>
        <time>2010-08-13T12:12:46Z</time>
      </trkpt>
      <trkpt lat="47.19383" lon="-1.46275">
        <ele>32</ele>
        <time>2010-08-13T12:12:51Z</time>
      </trkpt>
      <trkpt lat="47.1937" lon="-1.46318">
        <ele>32</ele>
        <time>2010-08-13T12:12:56Z</time>
      </trkpt>
      <trkpt lat="47.19341" lon="-1.46357">
        <ele>32</ele>
        <time>2010-08-13T12:13:01Z</time>
      </trkpt>
      <trkpt lat="47.19321" lon="-1.46398">
        <ele>32</ele>
        <time>2010-08-13T12:13:06Z</time>
      </trkpt>
      <trkpt lat="47.19305" lon="-1.4643">
        <ele>33</ele>
        <time>2010-08-13T12:13:11Z</time>
      </trkpt>
      <trkpt lat="47.19286" lon="-1.4647">
        <ele>33</ele>
        <time>2010-08-13T12:13:16Z</time>
      </trkpt>
      <trkpt lat="47.19263" lon="-1.46518">
        <ele>33</ele>
        <time>2010-08-13T12:13:21Z</time>
      </trkpt>
      <trkpt lat="47.19243" lon="-1.46562">
        <ele>32</ele>
        <time>2010-08-13T12:13:26Z</time>
      </trkpt>
      <trkpt lat="47.19227" lon="-1.46596">
        <ele>32</ele>
        <time>2010-08-13T12:13:31Z</time>
      </trkpt>
      <trkpt lat="47.19206" lon="-1.4664">
        <ele>32</ele>
        <time>2010-08-13T12:13:36Z</time>
      </trkpt>
      <trkpt lat="47.19185" lon="-1.46683">
        <ele>32</ele>
        <time>2010-08-13T12:13:41Z</time>
      </trkpt>
      <trkpt lat="47.19161" lon="-1.46738">
        <ele>32</ele>
        <time>2010-08-13T12:13:46Z</time>
      </trkpt>
      <trkpt lat="47.1914" lon="-1.46782">
        <ele>31</ele>
        <time>2010-08-13T12:13:51Z</time>
      </trkpt>
      <trkpt lat="47.19123" lon="-1.46818">
        <ele>31</ele>
        <time>2010-08-13T12:13:56Z</time>
      </trkpt>
      <trkpt lat="47.19101" lon="-1.46864">
        <ele>30</ele>
        <time>2010-08-13T12:14:01Z</time>
      </trkpt>
      <trkpt lat="47.19074" lon="-1.46922">
        <ele>30</ele>
        <time>2010-08-13T12:14:06Z</time>
      </trkpt>
      <trkpt lat="47.1905" lon="-1.4697">
        <ele>30</ele>
        <time>2010-08-13T12:14:11Z</time>
      </trkpt>
      <trkpt lat="47.19032" lon="-1.47008">
        <ele>31</ele>
        <time>2010-08-13T12:14:16Z</time>
      </trkpt>
      <trkpt lat="47.1901" lon="-1.47054">
        <ele>31</ele>
        <time>2010-08-13T12:14:21Z</time>
      </trkpt>
      <trkpt lat="47.18989" lon="-1.47099">
        <ele>33</ele>
        <time>2010-08-13T12:14:26Z</time>
      </trkpt>
      <trkpt lat="47.18966" lon="-1.47152">
        <ele>34</ele>
        <time>2010-08-13T12:14:31Z</time>
      </trkpt>
      <trkpt lat="47.18956" lon="-1.47199">
        <ele>34</ele>
        <time>2010-08-13T12:14:36Z</time>
      </trkpt>
      <trkpt lat="47.1894" lon="-1.47228">
        <ele>34</ele>
        <time>2010-08-13T12:14:41Z</time>
      </trkpt>
      <trkpt lat="47.18913" lon="-1.47261">
        <ele>34</ele>
        <time>2010-08-13T12:14:46Z</time>
      </trkpt>
      <trkpt lat="47.18886" lon="-1.47308">
        <ele>34</ele>
        <time>2010-08-13T12:14:51Z</time>
      </trkpt>
      <trkpt lat="47.18865" lon="-1.47354">
        <ele>34</ele>
        <time>2010-08-13T12:14:56Z</time>
      </trkpt>
      <trkpt lat="47.18848" lon="-1.47391">
        <ele>34</ele>
        <time>2010-08-13T12:15:01Z</time>
      </trkpt>
      <trkpt lat="47.18825" lon="-1.47437">
        <ele>34</ele>
        <time>2010-08-13T12:15:06Z</time>
      </trkpt>
      <trkpt lat="47.18798" lon="-1.47493">
        <ele>33</ele>
        <time>2010-08-13T12:15:11Z</time>
      </trkpt>
      <trkpt lat="47.18776" lon="-1.4754">
        <ele>32</ele>
        <time>2010-08-13T12:15:16Z</time>
      </trkpt>
      <trkpt lat="47.18754" lon="-1.47587">
        <ele>31</ele>
        <time>2010-08-13T12:15:21Z</time>
      </trkpt>
      <trkpt lat="47.18737" lon="-1.47624">
        <ele>30</ele>
        <time>2010-08-13T12:15:26Z</time>
      </trkpt>
      <trkpt lat="47.18719" lon="-1.47664">
        <ele>30</ele>
        <time>2010-08-13T12:15:31Z</time>
      </trkpt>
      <trkpt lat="47.18714" lon="-1.47671">
        <ele>31</ele>
        <time>2010-08-13T12:15:36Z</time>
      </trkpt>
      <trkpt lat="47.18714" lon="-1.47669">
        <ele>31</ele>
        <time>2010-08-13T12:15:41Z</time>
      </trkpt>
      <trkpt lat="47.18715" lon="-1.47669">
        <ele>31</ele>
        <time>2010-08-13T12:15:46Z</time>
      </trkpt>
      <trkpt lat="47.18715" lon="-1.47668">
        <ele>31</ele>
        <time>2010-08-13T12:15:51Z</time>
      </trkpt>
      <trkpt lat="47.18715" lon="-1.47667">
        <ele>30</ele>
        <time>2010-08-13T12:15:56Z</time>
      </trkpt>
      <trkpt lat="47.18715" lon="-1.47666">
        <ele>30</ele>
        <time>2010-08-13T12:16:01Z</time>
      </trkpt>
      <trkpt lat="47.18716" lon="-1.47666">
        <ele>30</ele>
        <time>2010-08-13T12:16:06Z</time>
      </trkpt>
      <trkpt lat="47.18716" lon="-1.47667">
        <ele>30</ele>
        <time>2010-08-13T12:16:11Z</time>
      </trkpt>
      <trkpt lat="47.18708" lon="-1.47677">
        <ele>31</ele>
        <time>2010-08-13T12:16:16Z</time>
      </trkpt>
      <trkpt lat="47.18682" lon="-1.47686">
        <ele>30</ele>
        <time>2010-08-13T12:16:21Z</time>
      </trkpt>
      <trkpt lat="47.18638" lon="-1.47673">
        <ele>28</ele>
        <time>2010-08-13T12:16:26Z</time>
      </trkpt>
      <trkpt lat="47.18596" lon="-1.47662">
        <ele>26</ele>
        <time>2010-08-13T12:16:31Z</time>
      </trkpt>
      <trkpt lat="47.18563" lon="-1.47652">
        <ele>25</ele>
        <time>2010-08-13T12:16:36Z</time>
      </trkpt>
      <trkpt lat="47.18521" lon="-1.47637">
        <ele>25</ele>
        <time>2010-08-13T12:16:41Z</time>
      </trkpt>
      <trkpt lat="47.18468" lon="-1.47623">
        <ele>23</ele>
        <time>2010-08-13T12:16:46Z</time>
      </trkpt>
      <trkpt lat="47.1842" lon="-1.47612">
        <ele>21</ele>
        <time>2010-08-13T12:16:51Z</time>
      </trkpt>
      <trkpt lat="47.18381" lon="-1.47607">
        <ele>19</ele>
        <time>2010-08-13T12:16:56Z</time>
      </trkpt>
      <trkpt lat="47.18331" lon="-1.47597">
        <ele>17</ele>
        <time>2010-08-13T12:17:01Z</time>
      </trkpt>
      <trkpt lat="47.18268" lon="-1.47581">
        <ele>16</ele>
        <time>2010-08-13T12:17:06Z</time>
      </trkpt>
      <trkpt lat="47.18217" lon="-1.47568">
        <ele>14</ele>
        <time>2010-08-13T12:17:11Z</time>
      </trkpt>
      <trkpt lat="47.18167" lon="-1.47553">
        <ele>13</ele>
        <time>2010-08-13T12:17:16Z</time>
      </trkpt>
      <trkpt lat="47.18128" lon="-1.47545">
        <ele>12</ele>
        <time>2010-08-13T12:17:21Z</time>
      </trkpt>
      <trkpt lat="47.18083" lon="-1.47536">
        <ele>11</ele>
        <time>2010-08-13T12:17:26Z</time>
      </trkpt>
      <trkpt lat="47.18031" lon="-1.47522">
        <ele>10</ele>
        <time>2010-08-13T12:17:31Z</time>
      </trkpt>
      <trkpt lat="47.17991" lon="-1.47512">
        <ele>10</ele>
        <time>2010-08-13T12:17:36Z</time>
      </trkpt>
      <trkpt lat="47.17961" lon="-1.47505">
        <ele>10</ele>
        <time>2010-08-13T12:17:41Z</time>
      </trkpt>
      <trkpt lat="47.17924" lon="-1.47498">
        <ele>10</ele>
        <time>2010-08-13T12:17:46Z</time>
      </trkpt>
      <trkpt lat="47.17887" lon="-1.47493">
        <ele>10</ele>
        <time>2010-08-13T12:17:51Z</time>
      </trkpt>
      <trkpt lat="47.17841" lon="-1.4747">
        <ele>10</ele>
        <time>2010-08-13T12:17:56Z</time>
      </trkpt>
      <trkpt lat="47.17803" lon="-1.47452">
        <ele>10</ele>
        <time>2010-08-13T12:18:01Z</time>
      </trkpt>
      <trkpt lat="47.17787" lon="-1.47447">
        <ele>11</ele>
        <time>2010-08-13T12:18:06Z</time>
      </trkpt>
      <trkpt lat="47.17788" lon="-1.47445">
        <ele>11</ele>
        <time>2010-08-13T12:18:11Z</time>
      </trkpt>
      <trkpt lat="47.1779" lon="-1.47449">
        <ele>11</ele>
        <time>2010-08-13T12:18:16Z</time>
      </trkpt>
      <trkpt lat="47.17791" lon="-1.47452">
        <ele>11</ele>
        <time>2010-08-13T12:18:21Z</time>
      </trkpt>
      <trkpt lat="47.17793" lon="-1.47455">
        <ele>10</ele>
        <time>2010-08-13T12:18:26Z</time>
      </trkpt>
      <trkpt lat="47.17796" lon="-1.47456">
        <ele>10</ele>
        <time>2010-08-13T12:18:31Z</time>
      </trkpt>
      <trkpt lat="47.17799" lon="-1.47457">
        <ele>10</ele>
        <time>2010-08-13T12:18:36Z</time>
      </trkpt>
      <trkpt lat="47.17798" lon="-1.47459">
        <ele>10</ele>
        <time>2010-08-13T12:18:41Z</time>
      </trkpt>
      <trkpt lat="47.17798" lon="-1.4746">
        <ele>10</ele>
        <time>2010-08-13T12:18:46Z</time>
      </trkpt>
      <trkpt lat="47.17798" lon="-1.4746">
        <ele>10</ele>
        <time>2010-08-13T12:18:51Z</time>
      </trkpt>
      <trkpt lat="47.17797" lon="-1.47461">
        <ele>10</ele>
        <time>2010-08-13T12:18:56Z</time>
      </trkpt>
      <trkpt lat="47.17797" lon="-1.47461">
        <ele>10</ele>
        <time>2010-08-13T12:19:01Z</time>
      </trkpt>
      <trkpt lat="47.17797" lon="-1.47461">
        <ele>10</ele>
        <time>2010-08-13T12:19:06Z</time>
      </trkpt>
      <trkpt lat="47.17797" lon="-1.47461">
        <ele>10</ele>
        <time>2010-08-13T12:19:11Z</time>
      </trkpt>
      <trkpt lat="47.17799" lon="-1.47461">
        <ele>10</ele>
        <time>2010-08-13T12:19:16Z</time>
      </trkpt>
      <trkpt lat="47.17799" lon="-1.47461">
        <ele>10</ele>
        <time>2010-08-13T12:19:21Z</time>
      </trkpt>
      <trkpt lat="47.17799" lon="-1.47461">
        <ele>10</ele>
        <time>2010-08-13T12:19:26Z</time>
      </trkpt>
      <trkpt lat="47.17799" lon="-1.47461">
        <ele>10</ele>
        <time>2010-08-13T12:19:31Z</time>
      </trkpt>
      <trkpt lat="47.17797" lon="-1.47459">
        <ele>10</ele>
        <time>2010-08-13T12:19:36Z</time>
      </trkpt>
      <trkpt lat="47.17781" lon="-1.4745">
        <ele>11</ele>
        <time>2010-08-13T12:19:41Z</time>
      </trkpt>
      <trkpt lat="47.17747" lon="-1.47431">
        <ele>10</ele>
        <time>2010-08-13T12:19:46Z</time>
      </trkpt>
      <trkpt lat="47.17713" lon="-1.47409">
        <ele>9</ele>
        <time>2010-08-13T12:19:51Z</time>
      </trkpt>
      <trkpt lat="47.17676" lon="-1.47385">
        <ele>9</ele>
        <time>2010-08-13T12:19:56Z</time>
      </trkpt>
      <trkpt lat="47.17643" lon="-1.47368">
        <ele>8</ele>
        <time>2010-08-13T12:20:01Z</time>
      </trkpt>
      <trkpt lat="47.176" lon="-1.47354">
        <ele>8</ele>
        <time>2010-08-13T12:20:06Z</time>
      </trkpt>
      <trkpt lat="47.17551" lon="-1.47348">
        <ele>9</ele>
        <time>2010-08-13T12:20:11Z</time>
      </trkpt>
      <trkpt lat="47.17514" lon="-1.47348">
        <ele>10</ele>
        <time>2010-08-13T12:20:16Z</time>
      </trkpt>
      <trkpt lat="47.17487" lon="-1.47348">
        <ele>11</ele>
        <time>2010-08-13T12:20:21Z</time>
      </trkpt>
      <trkpt lat="47.17455" lon="-1.47347">
        <ele>12</ele>
        <time>2010-08-13T12:20:26Z</time>
      </trkpt>
      <trkpt lat="47.17425" lon="-1.47347">
        <ele>12</ele>
        <time>2010-08-13T12:20:31Z</time>
      </trkpt>
      <trkpt lat="47.17387" lon="-1.47355">
        <ele>12</ele>
        <time>2010-08-13T12:20:36Z</time>
      </trkpt>
      <trkpt lat="47.17354" lon="-1.47358">
        <ele>12</ele>
        <time>2010-08-13T12:20:41Z</time>
      </trkpt>
      <trkpt lat="47.17328" lon="-1.47368">
        <ele>12</ele>
        <time>2010-08-13T12:20:46Z</time>
      </trkpt>
      <trkpt lat="47.17298" lon="-1.47385">
        <ele>12</ele>
        <time>2010-08-13T12:20:51Z</time>
      </trkpt>
      <trkpt lat="47.17258" lon="-1.4739">
        <ele>13</ele>
        <time>2010-08-13T12:20:56Z</time>
      </trkpt>
      <trkpt lat="47.17227" lon="-1.47402">
        <ele>15</ele>
        <time>2010-08-13T12:21:01Z</time>
      </trkpt>
      <trkpt lat="47.17204" lon="-1.47411">
        <ele>16</ele>
        <time>2010-08-13T12:21:06Z</time>
      </trkpt>
      <trkpt lat="47.17177" lon="-1.47421">
        <ele>17</ele>
        <time>2010-08-13T12:21:11Z</time>
      </trkpt>
      <trkpt lat="47.17145" lon="-1.47432">
        <ele>18</ele>
        <time>2010-08-13T12:21:16Z</time>
      </trkpt>
      <trkpt lat="47.1712" lon="-1.47443">
        <ele>18</ele>
        <time>2010-08-13T12:21:21Z</time>
      </trkpt>
      <trkpt lat="47.17096" lon="-1.47452">
        <ele>19</ele>
        <time>2010-08-13T12:21:26Z</time>
      </trkpt>
      <trkpt lat="47.17077" lon="-1.47458">
        <ele>22</ele>
        <time>2010-08-13T12:21:31Z</time>
      </trkpt>
      <trkpt lat="47.17055" lon="-1.47466">
        <ele>22</ele>
        <time>2010-08-13T12:21:36Z</time>
      </trkpt>
      <trkpt lat="47.17027" lon="-1.47476">
        <ele>23</ele>
        <time>2010-08-13T12:21:41Z</time>
      </trkpt>
      <trkpt lat="47.17004" lon="-1.47485">
        <ele>24</ele>
        <time>2010-08-13T12:21:46Z</time>
      </trkpt>
      <trkpt lat="47.16981" lon="-1.47495">
        <ele>26</ele>
        <time>2010-08-13T12:21:51Z</time>
      </trkpt>
      <trkpt lat="47.16964" lon="-1.47501">
        <ele>26</ele>
        <time>2010-08-13T12:21:56Z</time>
      </trkpt>
      <trkpt lat="47.16937" lon="-1.47511">
        <ele>27</ele>
        <time>2010-08-13T12:22:01Z</time>
      </trkpt>
      <trkpt lat="47.16915" lon="-1.4752">
        <ele>29</ele>
        <time>2010-08-13T12:22:06Z</time>
      </trkpt>
      <trkpt lat="47.16886" lon="-1.47532">
        <ele>28</ele>
        <time>2010-08-13T12:22:11Z</time>
      </trkpt>
      <trkpt lat="47.1686" lon="-1.47543">
        <ele>28</ele>
        <time>2010-08-13T12:22:16Z</time>
      </trkpt>
      <trkpt lat="47.16825" lon="-1.47557">
        <ele>26</ele>
        <time>2010-08-13T12:22:21Z</time>
      </trkpt>
      <trkpt lat="47.16811" lon="-1.47563">
        <ele>26</ele>
        <time>2010-08-13T12:22:26Z</time>
      </trkpt>
      <trkpt lat="47.16812" lon="-1.47563">
        <ele>26</ele>
        <time>2010-08-13T12:22:31Z</time>
      </trkpt>
      <trkpt lat="47.16812" lon="-1.47559">
        <ele>26</ele>
        <time>2010-08-13T12:22:36Z</time>
      </trkpt>
      <trkpt lat="47.168" lon="-1.47564">
        <ele>26</ele>
        <time>2010-08-13T12:22:41Z</time>
      </trkpt>
      <trkpt lat="47.16759" lon="-1.47581">
        <ele>25</ele>
        <time>2010-08-13T12:22:46Z</time>
      </trkpt>
      <trkpt lat="47.16725" lon="-1.47619">
        <ele>22</ele>
        <time>2010-08-13T12:22:51Z</time>
      </trkpt>
      <trkpt lat="47.16712" lon="-1.47688">
        <ele>18</ele>
        <time>2010-08-13T12:22:56Z</time>
      </trkpt>
      <trkpt lat="47.16706" lon="-1.47741">
        <ele>17</ele>
        <time>2010-08-13T12:23:01Z</time>
      </trkpt>
      <trkpt lat="47.16697" lon="-1.47811">
        <ele>13</ele>
        <time>2010-08-13T12:23:06Z</time>
      </trkpt>
      <trkpt lat="47.16663" lon="-1.47867">
        <ele>12</ele>
        <time>2010-08-13T12:23:11Z</time>
      </trkpt>
      <trkpt lat="47.1661" lon="-1.47856">
        <ele>11</ele>
        <time>2010-08-13T12:23:16Z</time>
      </trkpt>
      <trkpt lat="47.16568" lon="-1.47864">
        <ele>9</ele>
        <time>2010-08-13T12:23:21Z</time>
      </trkpt>
      <trkpt lat="47.1653" lon="-1.4792">
        <ele>6</ele>
        <time>2010-08-13T12:23:26Z</time>
      </trkpt>
      <trkpt lat="47.16492" lon="-1.47951">
        <ele>6</ele>
        <time>2010-08-13T12:23:31Z</time>
      </trkpt>
      <trkpt lat="47.1646" lon="-1.47971">
        <ele>6</ele>
        <time>2010-08-13T12:23:36Z</time>
      </trkpt>
      <trkpt lat="47.16466" lon="-1.48004">
        <ele>6</ele>
        <time>2010-08-13T12:23:41Z</time>
      </trkpt>
      <trkpt lat="47.16475" lon="-1.48037">
        <ele>6</ele>
        <time>2010-08-13T12:23:46Z</time>
      </trkpt>
      <trkpt lat="47.16484" lon="-1.48087">
        <ele>5</ele>
        <time>2010-08-13T12:23:51Z</time>
      </trkpt>
      <trkpt lat="47.16493" lon="-1.48141">
        <ele>4</ele>
        <time>2010-08-13T12:23:56Z</time>
      </trkpt>
      <trkpt lat="47.16508" lon="-1.48194">
        <ele>6</ele>
        <time>2010-08-13T12:24:01Z</time>
      </trkpt>
      <trkpt lat="47.16519" lon="-1.48235">
        <ele>8</ele>
        <time>2010-08-13T12:24:06Z</time>
      </trkpt>
      <trkpt lat="47.16525" lon="-1.48262">
        <ele>11</ele>
        <time>2010-08-13T12:24:11Z</time>
      </trkpt>
      <trkpt lat="47.16525" lon="-1.48268">
        <ele>12</ele>
        <time>2010-08-13T12:24:16Z</time>
      </trkpt>
      <trkpt lat="47.16525" lon="-1.48266">
        <ele>12</ele>
        <time>2010-08-13T12:24:21Z</time>
      </trkpt>
      <trkpt lat="47.16526" lon="-1.48265">
        <ele>12</ele>
        <time>2010-08-13T12:24:26Z</time>
      </trkpt>
      <trkpt lat="47.16526" lon="-1.48264">
        <ele>12</ele>
        <time>2010-08-13T12:24:31Z</time>
      </trkpt>
      <trkpt lat="47.16526" lon="-1.48263">
        <ele>11</ele>
        <time>2010-08-13T12:24:36Z</time>
      </trkpt>
      <trkpt lat="47.16526" lon="-1.48261">
        <ele>11</ele>
        <time>2010-08-13T12:24:41Z</time>
      </trkpt>
      <trkpt lat="47.16526" lon="-1.48262">
        <ele>11</ele>
        <time>2010-08-13T12:24:46Z</time>
      </trkpt>
      <trkpt lat="47.16526" lon="-1.48264">
        <ele>12</ele>
        <time>2010-08-13T12:24:51Z</time>
      </trkpt>
      <trkpt lat="47.16526" lon="-1.48265">
        <ele>12</ele>
        <time>2010-08-13T12:24:56Z</time>
      </trkpt>
      <trkpt lat="47.16526" lon="-1.48266">
        <ele>12</ele>
        <time>2010-08-13T12:25:01Z</time>
      </trkpt>
      <trkpt lat="47.16526" lon="-1.48268">
        <ele>12</ele>
        <time>2010-08-13T12:25:06Z</time>
      </trkpt>
      <trkpt lat="47.16526" lon="-1.4827">
        <ele>12</ele>
        <time>2010-08-13T12:25:11Z</time>
      </trkpt>
      <trkpt lat="47.16526" lon="-1.4827">
        <ele>12</ele>
        <time>2010-08-13T12:25:16Z</time>
      </trkpt>
      <trkpt lat="47.16526" lon="-1.4827">
        <ele>12</ele>
        <time>2010-08-13T12:25:21Z</time>
      </trkpt>
      <trkpt lat="47.16526" lon="-1.48269">
        <ele>12</ele>
        <time>2010-08-13T12:25:26Z</time>
      </trkpt>
      <trkpt lat="47.16526" lon="-1.4827">
        <ele>12</ele>
        <time>2010-08-13T12:25:31Z</time>
      </trkpt>
      <trkpt lat="47.16526" lon="-1.48269">
        <ele>12</ele>
        <time>2010-08-13T12:25:36Z</time>
      </trkpt>
      <trkpt lat="47.16526" lon="-1.4827">
        <ele>12</ele>
        <time>2010-08-13T12:25:41Z</time>
      </trkpt>
      <trkpt lat="47.16526" lon="-1.48269">
        <ele>12</ele>
        <time>2010-08-13T12:25:46Z</time>
      </trkpt>
      <trkpt lat="47.16523" lon="-1.48273">
        <ele>12</ele>
        <time>2010-08-13T12:25:51Z</time>
      </trkpt>
      <trkpt lat="47.16515" lon="-1.48317">
        <ele>13</ele>
        <time>2010-08-13T12:25:56Z</time>
      </trkpt>
      <trkpt lat="47.16512" lon="-1.48363">
        <ele>15</ele>
        <time>2010-08-13T12:26:01Z</time>
      </trkpt>
      <trkpt lat="47.16515" lon="-1.48381">
        <ele>16</ele>
        <time>2010-08-13T12:26:06Z</time>
      </trkpt>
      <trkpt lat="47.16515" lon="-1.48381">
        <ele>16</ele>
        <time>2010-08-13T12:26:11Z</time>
      </trkpt>
      <trkpt lat="47.16517" lon="-1.48392">
        <ele>16</ele>
        <time>2010-08-13T12:26:16Z</time>
      </trkpt>
      <trkpt lat="47.16524" lon="-1.48422">
        <ele>15</ele>
        <time>2010-08-13T12:26:21Z</time>
      </trkpt>
      <trkpt lat="47.16529" lon="-1.48457">
        <ele>16</ele>
        <time>2010-08-13T12:26:26Z</time>
      </trkpt>
      <trkpt lat="47.16536" lon="-1.48503">
        <ele>15</ele>
        <time>2010-08-13T12:26:31Z</time>
      </trkpt>
      <trkpt lat="47.16542" lon="-1.48551">
        <ele>15</ele>
        <time>2010-08-13T12:26:36Z</time>
      </trkpt>
      <trkpt lat="47.16542" lon="-1.48607">
        <ele>15</ele>
        <time>2010-08-13T12:26:41Z</time>
      </trkpt>
      <trkpt lat="47.16534" lon="-1.48653">
        <ele>15</ele>
        <time>2010-08-13T12:26:46Z</time>
      </trkpt>
      <trkpt lat="47.16528" lon="-1.48691">
        <ele>16</ele>
        <time>2010-08-13T12:26:51Z</time>
      </trkpt>
      <trkpt lat="47.16521" lon="-1.48738">
        <ele>16</ele>
        <time>2010-08-13T12:26:56Z</time>
      </trkpt>
      <trkpt lat="47.16511" lon="-1.48798">
        <ele>15</ele>
        <time>2010-08-13T12:27:01Z</time>
      </trkpt>
      <trkpt lat="47.16488" lon="-1.48833">
        <ele>17</ele>
        <time>2010-08-13T12:27:06Z</time>
      </trkpt>
      <trkpt lat="47.16476" lon="-1.48861">
        <ele>17</ele>
        <time>2010-08-13T12:27:11Z</time>
      </trkpt>
      <trkpt lat="47.1646" lon="-1.48896">
        <ele>17</ele>
        <time>2010-08-13T12:27:16Z</time>
      </trkpt>
      <trkpt lat="47.16437" lon="-1.48923">
        <ele>17</ele>
        <time>2010-08-13T12:27:21Z</time>
      </trkpt>
      <trkpt lat="47.16408" lon="-1.48955">
        <ele>19</ele>
        <time>2010-08-13T12:27:26Z</time>
      </trkpt>
      <trkpt lat="47.16386" lon="-1.4899">
        <ele>19</ele>
        <time>2010-08-13T12:27:31Z</time>
      </trkpt>
      <trkpt lat="47.16367" lon="-1.4902">
        <ele>18</ele>
        <time>2010-08-13T12:27:36Z</time>
      </trkpt>
      <trkpt lat="47.16342" lon="-1.49052">
        <ele>17</ele>
        <time>2010-08-13T12:27:41Z</time>
      </trkpt>
      <trkpt lat="47.16315" lon="-1.49078">
        <ele>19</ele>
        <time>2010-08-13T12:27:46Z</time>
      </trkpt>
      <trkpt lat="47.16283" lon="-1.4911">
        <ele>19</ele>
        <time>2010-08-13T12:27:51Z</time>
      </trkpt>
      <trkpt lat="47.16262" lon="-1.49131">
        <ele>19</ele>
        <time>2010-08-13T12:27:56Z</time>
      </trkpt>
      <trkpt lat="47.16236" lon="-1.49157">
        <ele>21</ele>
        <time>2010-08-13T12:28:01Z</time>
      </trkpt>
      <trkpt lat="47.16209" lon="-1.49182">
        <ele>22</ele>
        <time>2010-08-13T12:28:06Z</time>
      </trkpt>
      <trkpt lat="47.16177" lon="-1.49217">
        <ele>22</ele>
        <time>2010-08-13T12:28:11Z</time>
      </trkpt>
      <trkpt lat="47.16155" lon="-1.4926">
        <ele>22</ele>
        <time>2010-08-13T12:28:16Z</time>
      </trkpt>
      <trkpt lat="47.16136" lon="-1.49294">
        <ele>21</ele>
        <time>2010-08-13T12:28:21Z</time>
      </trkpt>
      <trkpt lat="47.16107" lon="-1.49332">
        <ele>21</ele>
        <time>2010-08-13T12:28:26Z</time>
      </trkpt>
      <trkpt lat="47.16072" lon="-1.4938">
        <ele>21</ele>
        <time>2010-08-13T12:28:31Z</time>
      </trkpt>
      <trkpt lat="47.16045" lon="-1.49425">
        <ele>21</ele>
        <time>2010-08-13T12:28:36Z</time>
      </trkpt>
      <trkpt lat="47.16018" lon="-1.49468">
        <ele>21</ele>
        <time>2010-08-13T12:28:41Z</time>
      </trkpt>
      <trkpt lat="47.15999" lon="-1.49505">
        <ele>21</ele>
        <time>2010-08-13T12:28:46Z</time>
      </trkpt>
      <trkpt lat="47.15976" lon="-1.4955">
        <ele>22</ele>
        <time>2010-08-13T12:28:51Z</time>
      </trkpt>
      <trkpt lat="47.15949" lon="-1.49604">
        <ele>23</ele>
        <time>2010-08-13T12:28:56Z</time>
      </trkpt>
      <trkpt lat="47.15926" lon="-1.49647">
        <ele>23</ele>
        <time>2010-08-13T12:29:01Z</time>
      </trkpt>
      <trkpt lat="47.15908" lon="-1.49682">
        <ele>22</ele>
        <time>2010-08-13T12:29:06Z</time>
      </trkpt>
      <trkpt lat="47.15887" lon="-1.49723">
        <ele>23</ele>
        <time>2010-08-13T12:29:11Z</time>
      </trkpt>
      <trkpt lat="47.15863" lon="-1.4977">
        <ele>24</ele>
        <time>2010-08-13T12:29:16Z</time>
      </trkpt>
      <trkpt lat="47.15843" lon="-1.49811">
        <ele>24</ele>
        <time>2010-08-13T12:29:21Z</time>
      </trkpt>
      <trkpt lat="47.15823" lon="-1.49851">
        <ele>26</ele>
        <time>2010-08-13T12:29:26Z</time>
      </trkpt>
      <trkpt lat="47.15806" lon="-1.49884">
        <ele>26</ele>
        <time>2010-08-13T12:29:31Z</time>
      </trkpt>
      <trkpt lat="47.15785" lon="-1.49925">
        <ele>28</ele>
        <time>2010-08-13T12:29:36Z</time>
      </trkpt>
      <trkpt lat="47.1576" lon="-1.49975">
        <ele>28</ele>
        <time>2010-08-13T12:29:41Z</time>
      </trkpt>
      <trkpt lat="47.15739" lon="-1.50016">
        <ele>27</ele>
        <time>2010-08-13T12:29:46Z</time>
      </trkpt>
      <trkpt lat="47.15722" lon="-1.5005">
        <ele>27</ele>
        <time>2010-08-13T12:29:51Z</time>
      </trkpt>
      <trkpt lat="47.157" lon="-1.50093">
        <ele>26</ele>
        <time>2010-08-13T12:29:56Z</time>
      </trkpt>
      <trkpt lat="47.15674" lon="-1.5013">
        <ele>26</ele>
        <time>2010-08-13T12:30:01Z</time>
      </trkpt>
      <trkpt lat="47.15636" lon="-1.50167">
        <ele>27</ele>
        <time>2010-08-13T12:30:06Z</time>
      </trkpt>
      <trkpt lat="47.15605" lon="-1.50198">
        <ele>27</ele>
        <time>2010-08-13T12:30:11Z</time>
      </trkpt>
      <trkpt lat="47.1558" lon="-1.50222">
        <ele>28</ele>
        <time>2010-08-13T12:30:16Z</time>
      </trkpt>
      <trkpt lat="47.15549" lon="-1.50251">
        <ele>29</ele>
        <time>2010-08-13T12:30:21Z</time>
      </trkpt>
      <trkpt lat="47.15509" lon="-1.50271">
        <ele>29</ele>
        <time>2010-08-13T12:30:26Z</time>
      </trkpt>
      <trkpt lat="47.15472" lon="-1.50274">
        <ele>29</ele>
        <time>2010-08-13T12:30:31Z</time>
      </trkpt>
      <trkpt lat="47.15445" lon="-1.50289">
        <ele>29</ele>
        <time>2010-08-13T12:30:36Z</time>
      </trkpt>
      <trkpt lat="47.15413" lon="-1.50315">
        <ele>28</ele>
        <time>2010-08-13T12:30:41Z</time>
      </trkpt>
      <trkpt lat="47.15382" lon="-1.50347">
        <ele>27</ele>
        <time>2010-08-13T12:30:46Z</time>
      </trkpt>
      <trkpt lat="47.15346" lon="-1.50391">
        <ele>27</ele>
        <time>2010-08-13T12:30:51Z</time>
      </trkpt>
      <trkpt lat="47.15316" lon="-1.50427">
        <ele>26</ele>
        <time>2010-08-13T12:30:56Z</time>
      </trkpt>
      <trkpt lat="47.15292" lon="-1.50456">
        <ele>26</ele>
        <time>2010-08-13T12:31:01Z</time>
      </trkpt>
      <trkpt lat="47.1526" lon="-1.50493">
        <ele>26</ele>
        <time>2010-08-13T12:31:06Z</time>
      </trkpt>
      <trkpt lat="47.1522" lon="-1.5054">
        <ele>25</ele>
        <time>2010-08-13T12:31:11Z</time>
      </trkpt>
      <trkpt lat="47.15184" lon="-1.50582">
        <ele>25</ele>
        <time>2010-08-13T12:31:16Z</time>
      </trkpt>
      <trkpt lat="47.15147" lon="-1.50626">
        <ele>24</ele>
        <time>2010-08-13T12:31:21Z</time>
      </trkpt>
      <trkpt lat="47.15117" lon="-1.5066">
        <ele>24</ele>
        <time>2010-08-13T12:31:26Z</time>
      </trkpt>
      <trkpt lat="47.15082" lon="-1.50703">
        <ele>25</ele>
        <time>2010-08-13T12:31:31Z</time>
      </trkpt>
      <trkpt lat="47.15043" lon="-1.50751">
        <ele>25</ele>
        <time>2010-08-13T12:31:36Z</time>
      </trkpt>
      <trkpt lat="47.15013" lon="-1.50789">
        <ele>26</ele>
        <time>2010-08-13T12:31:41Z</time>
      </trkpt>
      <trkpt lat="47.14989" lon="-1.5082">
        <ele>27</ele>
        <time>2010-08-13T12:31:46Z</time>
      </trkpt>
      <trkpt lat="47.14961" lon="-1.50859">
        <ele>26</ele>
        <time>2010-08-13T12:31:51Z</time>
      </trkpt>
      <trkpt lat="47.14932" lon="-1.50899">
        <ele>26</ele>
        <time>2010-08-13T12:31:56Z</time>
      </trkpt>
      <trkpt lat="47.149" lon="-1.50948">
        <ele>27</ele>
        <time>2010-08-13T12:32:01Z</time>
      </trkpt>
      <trkpt lat="47.14874" lon="-1.50988">
        <ele>27</ele>
        <time>2010-08-13T12:32:06Z</time>
      </trkpt>
      <trkpt lat="47.14853" lon="-1.51021">
        <ele>27</ele>
        <time>2010-08-13T12:32:11Z</time>
      </trkpt>
      <trkpt lat="47.14828" lon="-1.51063">
        <ele>28</ele>
        <time>2010-08-13T12:32:16Z</time>
      </trkpt>
      <trkpt lat="47.14799" lon="-1.51113">
        <ele>29</ele>
        <time>2010-08-13T12:32:21Z</time>
      </trkpt>
      <trkpt lat="47.14776" lon="-1.51155">
        <ele>29</ele>
        <time>2010-08-13T12:32:26Z</time>
      </trkpt>
      <trkpt lat="47.14758" lon="-1.51189">
        <ele>30</ele>
        <time>2010-08-13T12:32:31Z</time>
      </trkpt>
      <trkpt lat="47.14737" lon="-1.5123">
        <ele>31</ele>
        <time>2010-08-13T12:32:36Z</time>
      </trkpt>
      <trkpt lat="47.14716" lon="-1.51272">
        <ele>31</ele>
        <time>2010-08-13T12:32:41Z</time>
      </trkpt>
      <trkpt lat="47.1469" lon="-1.51322">
        <ele>30</ele>
        <time>2010-08-13T12:32:46Z</time>
      </trkpt>
      <trkpt lat="47.14669" lon="-1.51363">
        <ele>30</ele>
        <time>2010-08-13T12:32:51Z</time>
      </trkpt>
      <trkpt lat="47.14654" lon="-1.51393">
        <ele>29</ele>
        <time>2010-08-13T12:32:56Z</time>
      </trkpt>
      <trkpt lat="47.14636" lon="-1.51429">
        <ele>30</ele>
        <time>2010-08-13T12:33:01Z</time>
      </trkpt>
      <trkpt lat="47.14614" lon="-1.51474">
        <ele>30</ele>
        <time>2010-08-13T12:33:06Z</time>
      </trkpt>
      <trkpt lat="47.14595" lon="-1.51513">
        <ele>32</ele>
        <time>2010-08-13T12:33:11Z</time>
      </trkpt>
      <trkpt lat="47.14577" lon="-1.51546">
        <ele>33</ele>
        <time>2010-08-13T12:33:16Z</time>
      </trkpt>
      <trkpt lat="47.14549" lon="-1.51588">
        <ele>34</ele>
        <time>2010-08-13T12:33:21Z</time>
      </trkpt>
      <trkpt lat="47.1452" lon="-1.51627">
        <ele>34</ele>
        <time>2010-08-13T12:33:26Z</time>
      </trkpt>
      <trkpt lat="47.14483" lon="-1.51665">
        <ele>35</ele>
        <time>2010-08-13T12:33:31Z</time>
      </trkpt>
      <trkpt lat="47.14453" lon="-1.51695">
        <ele>35</ele>
        <time>2010-08-13T12:33:36Z</time>
      </trkpt>
      <trkpt lat="47.1443" lon="-1.51719">
        <ele>35</ele>
        <time>2010-08-13T12:33:41Z</time>
      </trkpt>
      <trkpt lat="47.14401" lon="-1.51749">
        <ele>35</ele>
        <time>2010-08-13T12:33:46Z</time>
      </trkpt>
      <trkpt lat="47.14366" lon="-1.51785">
        <ele>35</ele>
        <time>2010-08-13T12:33:51Z</time>
      </trkpt>
      <trkpt lat="47.14337" lon="-1.51815">
        <ele>34</ele>
        <time>2010-08-13T12:33:56Z</time>
      </trkpt>
      <trkpt lat="47.14313" lon="-1.51837">
        <ele>35</ele>
        <time>2010-08-13T12:34:01Z</time>
      </trkpt>
      <trkpt lat="47.14283" lon="-1.51867">
        <ele>36</ele>
        <time>2010-08-13T12:34:06Z</time>
      </trkpt>
      <trkpt lat="47.14248" lon="-1.51903">
        <ele>37</ele>
        <time>2010-08-13T12:34:11Z</time>
      </trkpt>
      <trkpt lat="47.14218" lon="-1.51931">
        <ele>36</ele>
        <time>2010-08-13T12:34:16Z</time>
      </trkpt>
      <trkpt lat="47.14187" lon="-1.51957">
        <ele>35</ele>
        <time>2010-08-13T12:34:21Z</time>
      </trkpt>
      <trkpt lat="47.14163" lon="-1.5198">
        <ele>35</ele>
        <time>2010-08-13T12:34:26Z</time>
      </trkpt>
      <trkpt lat="47.14132" lon="-1.52008">
        <ele>35</ele>
        <time>2010-08-13T12:34:31Z</time>
      </trkpt>
      <trkpt lat="47.14096" lon="-1.52043">
        <ele>36</ele>
        <time>2010-08-13T12:34:36Z</time>
      </trkpt>
      <trkpt lat="47.14068" lon="-1.52078">
        <ele>36</ele>
        <time>2010-08-13T12:34:41Z</time>
      </trkpt>
      <trkpt lat="47.14051" lon="-1.52112">
        <ele>35</ele>
        <time>2010-08-13T12:34:46Z</time>
      </trkpt>
      <trkpt lat="47.14045" lon="-1.52122">
        <ele>35</ele>
        <time>2010-08-13T12:34:51Z</time>
      </trkpt>
      <trkpt lat="47.14017" lon="-1.52141">
        <ele>35</ele>
        <time>2010-08-13T12:34:56Z</time>
      </trkpt>
      <trkpt lat="47.13984" lon="-1.5217">
        <ele>34</ele>
        <time>2010-08-13T12:35:01Z</time>
      </trkpt>
      <trkpt lat="47.13955" lon="-1.5221">
        <ele>33</ele>
        <time>2010-08-13T12:35:06Z</time>
      </trkpt>
      <trkpt lat="47.13932" lon="-1.52242">
        <ele>33</ele>
        <time>2010-08-13T12:35:11Z</time>
      </trkpt>
      <trkpt lat="47.13905" lon="-1.52281">
        <ele>33</ele>
        <time>2010-08-13T12:35:16Z</time>
      </trkpt>
      <trkpt lat="47.13882" lon="-1.52335">
        <ele>33</ele>
        <time>2010-08-13T12:35:21Z</time>
      </trkpt>
      <trkpt lat="47.13854" lon="-1.52366">
        <ele>33</ele>
        <time>2010-08-13T12:35:26Z</time>
      </trkpt>
      <trkpt lat="47.13828" lon="-1.52403">
        <ele>33</ele>
        <time>2010-08-13T12:35:31Z</time>
      </trkpt>
      <trkpt lat="47.13807" lon="-1.52432">
        <ele>33</ele>
        <time>2010-08-13T12:35:36Z</time>
      </trkpt>
      <trkpt lat="47.13782" lon="-1.5247">
        <ele>34</ele>
        <time>2010-08-13T12:35:41Z</time>
      </trkpt>
      <trkpt lat="47.13753" lon="-1.52518">
        <ele>34</ele>
        <time>2010-08-13T12:35:46Z</time>
      </trkpt>
      <trkpt lat="47.13727" lon="-1.52558">
        <ele>35</ele>
        <time>2010-08-13T12:35:51Z</time>
      </trkpt>
      <trkpt lat="47.13705" lon="-1.5259">
        <ele>34</ele>
        <time>2010-08-13T12:35:56Z</time>
      </trkpt>
      <trkpt lat="47.13679" lon="-1.52632">
        <ele>34</ele>
        <time>2010-08-13T12:36:01Z</time>
      </trkpt>
      <trkpt lat="47.13652" lon="-1.52676">
        <ele>34</ele>
        <time>2010-08-13T12:36:06Z</time>
      </trkpt>
      <trkpt lat="47.13619" lon="-1.52729">
        <ele>33</ele>
        <time>2010-08-13T12:36:11Z</time>
      </trkpt>
      <trkpt lat="47.13592" lon="-1.52776">
        <ele>32</ele>
        <time>2010-08-13T12:36:16Z</time>
      </trkpt>
      <trkpt lat="47.13573" lon="-1.52817">
        <ele>33</ele>
        <time>2010-08-13T12:36:21Z</time>
      </trkpt>
      <trkpt lat="47.1355" lon="-1.52869">
        <ele>32</ele>
        <time>2010-08-13T12:36:26Z</time>
      </trkpt>
      <trkpt lat="47.13522" lon="-1.5293">
        <ele>31</ele>
        <time>2010-08-13T12:36:31Z</time>
      </trkpt>
      <trkpt lat="47.13499" lon="-1.52982">
        <ele>32</ele>
        <time>2010-08-13T12:36:36Z</time>
      </trkpt>
      <trkpt lat="47.1348" lon="-1.53024">
        <ele>31</ele>
        <time>2010-08-13T12:36:41Z</time>
      </trkpt>
      <trkpt lat="47.13456" lon="-1.53075">
        <ele>30</ele>
        <time>2010-08-13T12:36:46Z</time>
      </trkpt>
      <trkpt lat="47.13435" lon="-1.53124">
        <ele>29</ele>
        <time>2010-08-13T12:36:51Z</time>
      </trkpt>
      <trkpt lat="47.13433" lon="-1.53139">
        <ele>29</ele>
        <time>2010-08-13T12:36:56Z</time>
      </trkpt>
      <trkpt lat="47.13433" lon="-1.53138">
        <ele>29</ele>
        <time>2010-08-13T12:37:01Z</time>
      </trkpt>
      <trkpt lat="47.13434" lon="-1.53137">
        <ele>29</ele>
        <time>2010-08-13T12:37:06Z</time>
      </trkpt>
      <trkpt lat="47.13434" lon="-1.53137">
        <ele>29</ele>
        <time>2010-08-13T12:37:11Z</time>
      </trkpt>
      <trkpt lat="47.13435" lon="-1.53137">
        <ele>29</ele>
        <time>2010-08-13T12:37:16Z</time>
      </trkpt>
      <trkpt lat="47.13435" lon="-1.53137">
        <ele>29</ele>
        <time>2010-08-13T12:37:21Z</time>
      </trkpt>
      <trkpt lat="47.13439" lon="-1.53136">
        <ele>29</ele>
        <time>2010-08-13T12:37:26Z</time>
      </trkpt>
      <trkpt lat="47.13441" lon="-1.53136">
        <ele>29</ele>
        <time>2010-08-13T12:37:31Z</time>
      </trkpt>
      <trkpt lat="47.13442" lon="-1.53135">
        <ele>29</ele>
        <time>2010-08-13T12:37:36Z</time>
      </trkpt>
      <trkpt lat="47.13441" lon="-1.53136">
        <ele>29</ele>
        <time>2010-08-13T12:37:41Z</time>
      </trkpt>
      <trkpt lat="47.13441" lon="-1.53135">
        <ele>29</ele>
        <time>2010-08-13T12:37:46Z</time>
      </trkpt>
      <trkpt lat="47.13442" lon="-1.53135">
        <ele>29</ele>
        <time>2010-08-13T12:37:51Z</time>
      </trkpt>
      <trkpt lat="47.13442" lon="-1.53135">
        <ele>29</ele>
        <time>2010-08-13T12:37:56Z</time>
      </trkpt>
      <trkpt lat="47.13442" lon="-1.53135">
        <ele>29</ele>
        <time>2010-08-13T12:38:01Z</time>
      </trkpt>
      <trkpt lat="47.13442" lon="-1.53135">
        <ele>29</ele>
        <time>2010-08-13T12:38:06Z</time>
      </trkpt>
      <trkpt lat="47.13442" lon="-1.53135">
        <ele>29</ele>
        <time>2010-08-13T12:38:11Z</time>
      </trkpt>
      <trkpt lat="47.13442" lon="-1.53135">
        <ele>29</ele>
        <time>2010-08-13T12:38:16Z</time>
      </trkpt>
      <trkpt lat="47.13442" lon="-1.53135">
        <ele>29</ele>
        <time>2010-08-13T12:38:21Z</time>
      </trkpt>
      <trkpt lat="47.13442" lon="-1.53135">
        <ele>29</ele>
        <time>2010-08-13T12:38:26Z</time>
      </trkpt>
      <trkpt lat="47.13442" lon="-1.53135">
        <ele>29</ele>
        <time>2010-08-13T12:38:31Z</time>
      </trkpt>
      <trkpt lat="47.13442" lon="-1.53135">
        <ele>29</ele>
        <time>2010-08-13T12:38:36Z</time>
      </trkpt>
      <trkpt lat="47.13442" lon="-1.53136">
        <ele>29</ele>
        <time>2010-08-13T12:38:41Z</time>
      </trkpt>
      <trkpt lat="47.13434" lon="-1.53149">
        <ele>29</ele>
        <time>2010-08-13T12:38:46Z</time>
      </trkpt>
      <trkpt lat="47.13402" lon="-1.53144">
        <ele>28</ele>
        <time>2010-08-13T12:38:51Z</time>
      </trkpt>
      <trkpt lat="47.13365" lon="-1.53143">
        <ele>28</ele>
        <time>2010-08-13T12:38:56Z</time>
      </trkpt>
      <trkpt lat="47.13333" lon="-1.53147">
        <ele>28</ele>
        <time>2010-08-13T12:39:01Z</time>
      </trkpt>
      <trkpt lat="47.13292" lon="-1.5316">
        <ele>28</ele>
        <time>2010-08-13T12:39:06Z</time>
      </trkpt>
      <trkpt lat="47.13243" lon="-1.53179">
        <ele>27</ele>
        <time>2010-08-13T12:39:11Z</time>
      </trkpt>
      <trkpt lat="47.13202" lon="-1.53197">
        <ele>26</ele>
        <time>2010-08-13T12:39:16Z</time>
      </trkpt>
      <trkpt lat="47.13169" lon="-1.5321">
        <ele>26</ele>
        <time>2010-08-13T12:39:21Z</time>
      </trkpt>
      <trkpt lat="47.13128" lon="-1.53227">
        <ele>26</ele>
        <time>2010-08-13T12:39:26Z</time>
      </trkpt>
      <trkpt lat="47.13087" lon="-1.53243">
        <ele>24</ele>
        <time>2010-08-13T12:39:31Z</time>
      </trkpt>
      <trkpt lat="47.13037" lon="-1.53259">
        <ele>24</ele>
        <time>2010-08-13T12:39:36Z</time>
      </trkpt>
      <trkpt lat="47.12996" lon="-1.53252">
        <ele>25</ele>
        <time>2010-08-13T12:39:41Z</time>
      </trkpt>
      <trkpt lat="47.12964" lon="-1.53228">
        <ele>24</ele>
        <time>2010-08-13T12:39:46Z</time>
      </trkpt>
      <trkpt lat="47.12929" lon="-1.5319">
        <ele>24</ele>
        <time>2010-08-13T12:39:51Z</time>
      </trkpt>
      <trkpt lat="47.12895" lon="-1.53147">
        <ele>23</ele>
        <time>2010-08-13T12:39:56Z</time>
      </trkpt>
      <trkpt lat="47.12853" lon="-1.53093">
        <ele>22</ele>
        <time>2010-08-13T12:40:01Z</time>
      </trkpt>
      <trkpt lat="47.12823" lon="-1.53053">
        <ele>21</ele>
        <time>2010-08-13T12:40:06Z</time>
      </trkpt>
      <trkpt lat="47.1279" lon="-1.53006">
        <ele>21</ele>
        <time>2010-08-13T12:40:11Z</time>
      </trkpt>
      <trkpt lat="47.12751" lon="-1.5296">
        <ele>20</ele>
        <time>2010-08-13T12:40:16Z</time>
      </trkpt>
      <trkpt lat="47.12712" lon="-1.52908">
        <ele>20</ele>
        <time>2010-08-13T12:40:21Z</time>
      </trkpt>
      <trkpt lat="47.1268" lon="-1.52869">
        <ele>21</ele>
        <time>2010-08-13T12:40:26Z</time>
      </trkpt>
      <trkpt lat="47.12654" lon="-1.52839">
        <ele>20</ele>
        <time>2010-08-13T12:40:31Z</time>
      </trkpt>
      <trkpt lat="47.12624" lon="-1.52802">
        <ele>20</ele>
        <time>2010-08-13T12:40:36Z</time>
      </trkpt>
      <trkpt lat="47.12587" lon="-1.52758">
        <ele>20</ele>
        <time>2010-08-13T12:40:41Z</time>
      </trkpt>
      <trkpt lat="47.12555" lon="-1.52722">
        <ele>20</ele>
        <time>2010-08-13T12:40:46Z</time>
      </trkpt>
      <trkpt lat="47.1252" lon="-1.52704">
        <ele>20</ele>
        <time>2010-08-13T12:40:51Z</time>
      </trkpt>
      <trkpt lat="47.12489" lon="-1.52729">
        <ele>20</ele>
        <time>2010-08-13T12:40:56Z</time>
      </trkpt>
      <trkpt lat="47.12442" lon="-1.52746">
        <ele>20</ele>
        <time>2010-08-13T12:41:01Z</time>
      </trkpt>
      <trkpt lat="47.12398" lon="-1.52786">
        <ele>18</ele>
        <time>2010-08-13T12:41:06Z</time>
      </trkpt>
      <trkpt lat="47.12346" lon="-1.52839">
        <ele>15</ele>
        <time>2010-08-13T12:41:11Z</time>
      </trkpt>
      <trkpt lat="47.12315" lon="-1.52882">
        <ele>14</ele>
        <time>2010-08-13T12:41:16Z</time>
      </trkpt>
      <trkpt lat="47.12281" lon="-1.52943">
        <ele>12</ele>
        <time>2010-08-13T12:41:21Z</time>
      </trkpt>
      <trkpt lat="47.12242" lon="-1.53018">
        <ele>10</ele>
        <time>2010-08-13T12:41:26Z</time>
      </trkpt>
      <trkpt lat="47.1221" lon="-1.53081">
        <ele>9</ele>
        <time>2010-08-13T12:41:31Z</time>
      </trkpt>
      <trkpt lat="47.12179" lon="-1.53143">
        <ele>7</ele>
        <time>2010-08-13T12:41:36Z</time>
      </trkpt>
      <trkpt lat="47.12155" lon="-1.53191">
        <ele>8</ele>
        <time>2010-08-13T12:41:41Z</time>
      </trkpt>
      <trkpt lat="47.12121" lon="-1.53256">
        <ele>10</ele>
        <time>2010-08-13T12:41:46Z</time>
      </trkpt>
      <trkpt lat="47.12095" lon="-1.53305">
        <ele>10</ele>
        <time>2010-08-13T12:41:51Z</time>
      </trkpt>
      <trkpt lat="47.12073" lon="-1.5335">
        <ele>13</ele>
        <time>2010-08-13T12:41:56Z</time>
      </trkpt>
      <trkpt lat="47.12055" lon="-1.53382">
        <ele>13</ele>
        <time>2010-08-13T12:42:01Z</time>
      </trkpt>
      <trkpt lat="47.12033" lon="-1.5342">
        <ele>14</ele>
        <time>2010-08-13T12:42:06Z</time>
      </trkpt>
      <trkpt lat="47.12009" lon="-1.53468">
        <ele>14</ele>
        <time>2010-08-13T12:42:11Z</time>
      </trkpt>
      <trkpt lat="47.11988" lon="-1.53508">
        <ele>14</ele>
        <time>2010-08-13T12:42:16Z</time>
      </trkpt>
      <trkpt lat="47.11967" lon="-1.53546">
        <ele>14</ele>
        <time>2010-08-13T12:42:21Z</time>
      </trkpt>
      <trkpt lat="47.1195" lon="-1.53577">
        <ele>15</ele>
        <time>2010-08-13T12:42:26Z</time>
      </trkpt>
      <trkpt lat="47.1193" lon="-1.53613">
        <ele>16</ele>
        <time>2010-08-13T12:42:31Z</time>
      </trkpt>
      <trkpt lat="47.11906" lon="-1.53657">
        <ele>16</ele>
        <time>2010-08-13T12:42:36Z</time>
      </trkpt>
      <trkpt lat="47.11886" lon="-1.53695">
        <ele>17</ele>
        <time>2010-08-13T12:42:41Z</time>
      </trkpt>
      <trkpt lat="47.11872" lon="-1.53726">
        <ele>17</ele>
        <time>2010-08-13T12:42:46Z</time>
      </trkpt>
      <trkpt lat="47.11857" lon="-1.53765">
        <ele>19</ele>
        <time>2010-08-13T12:42:51Z</time>
      </trkpt>
      <trkpt lat="47.11842" lon="-1.53801">
        <ele>20</ele>
        <time>2010-08-13T12:42:56Z</time>
      </trkpt>
      <trkpt lat="47.11822" lon="-1.5384">
        <ele>22</ele>
        <time>2010-08-13T12:43:01Z</time>
      </trkpt>
      <trkpt lat="47.11804" lon="-1.53872">
        <ele>23</ele>
        <time>2010-08-13T12:43:06Z</time>
      </trkpt>
      <trkpt lat="47.1179" lon="-1.53898">
        <ele>23</ele>
        <time>2010-08-13T12:43:11Z</time>
      </trkpt>
      <trkpt lat="47.11775" lon="-1.53931">
        <ele>25</ele>
        <time>2010-08-13T12:43:16Z</time>
      </trkpt>
      <trkpt lat="47.11759" lon="-1.53971">
        <ele>25</ele>
        <time>2010-08-13T12:43:21Z</time>
      </trkpt>
      <trkpt lat="47.11746" lon="-1.54005">
        <ele>26</ele>
        <time>2010-08-13T12:43:26Z</time>
      </trkpt>
      <trkpt lat="47.11734" lon="-1.54033">
        <ele>26</ele>
        <time>2010-08-13T12:43:31Z</time>
      </trkpt>
      <trkpt lat="47.1172" lon="-1.54068">
        <ele>26</ele>
        <time>2010-08-13T12:43:36Z</time>
      </trkpt>
      <trkpt lat="47.11699" lon="-1.54116">
        <ele>25</ele>
        <time>2010-08-13T12:43:41Z</time>
      </trkpt>
      <trkpt lat="47.11675" lon="-1.54151">
        <ele>24</ele>
        <time>2010-08-13T12:43:46Z</time>
      </trkpt>
      <trkpt lat="47.11649" lon="-1.54187">
        <ele>23</ele>
        <time>2010-08-13T12:43:51Z</time>
      </trkpt>
      <trkpt lat="47.11627" lon="-1.54216">
        <ele>23</ele>
        <time>2010-08-13T12:43:56Z</time>
      </trkpt>
      <trkpt lat="47.11594" lon="-1.54243">
        <ele>22</ele>
        <time>2010-08-13T12:44:01Z</time>
      </trkpt>
      <trkpt lat="47.11577" lon="-1.54303">
        <ele>22</ele>
        <time>2010-08-13T12:44:06Z</time>
      </trkpt>
      <trkpt lat="47.11595" lon="-1.54355">
        <ele>22</ele>
        <time>2010-08-13T12:44:11Z</time>
      </trkpt>
      <trkpt lat="47.11612" lon="-1.54406">
        <ele>22</ele>
        <time>2010-08-13T12:44:16Z</time>
      </trkpt>
      <trkpt lat="47.11627" lon="-1.54447">
        <ele>22</ele>
        <time>2010-08-13T12:44:21Z</time>
      </trkpt>
      <trkpt lat="47.11644" lon="-1.54498">
        <ele>22</ele>
        <time>2010-08-13T12:44:26Z</time>
      </trkpt>
      <trkpt lat="47.11665" lon="-1.5456">
        <ele>22</ele>
        <time>2010-08-13T12:44:31Z</time>
      </trkpt>
      <trkpt lat="47.11682" lon="-1.54614">
        <ele>22</ele>
        <time>2010-08-13T12:44:36Z</time>
      </trkpt>
      <trkpt lat="47.11695" lon="-1.54658">
        <ele>21</ele>
        <time>2010-08-13T12:44:41Z</time>
      </trkpt>
      <trkpt lat="47.11712" lon="-1.54714">
        <ele>20</ele>
        <time>2010-08-13T12:44:46Z</time>
      </trkpt>
      <trkpt lat="47.11732" lon="-1.54781">
        <ele>19</ele>
        <time>2010-08-13T12:44:51Z</time>
      </trkpt>
      <trkpt lat="47.11749" lon="-1.54836">
        <ele>18</ele>
        <time>2010-08-13T12:44:56Z</time>
      </trkpt>
      <trkpt lat="47.11766" lon="-1.5489">
        <ele>18</ele>
        <time>2010-08-13T12:45:01Z</time>
      </trkpt>
      <trkpt lat="47.11778" lon="-1.54934">
        <ele>18</ele>
        <time>2010-08-13T12:45:06Z</time>
      </trkpt>
      <trkpt lat="47.11791" lon="-1.54989">
        <ele>18</ele>
        <time>2010-08-13T12:45:11Z</time>
      </trkpt>
      <trkpt lat="47.11802" lon="-1.55044">
        <ele>19</ele>
        <time>2010-08-13T12:45:16Z</time>
      </trkpt>
      <trkpt lat="47.1181" lon="-1.55111">
        <ele>19</ele>
        <time>2010-08-13T12:45:21Z</time>
      </trkpt>
      <trkpt lat="47.11814" lon="-1.55157">
        <ele>19</ele>
        <time>2010-08-13T12:45:26Z</time>
      </trkpt>
      <trkpt lat="47.11816" lon="-1.55213">
        <ele>19</ele>
        <time>2010-08-13T12:45:31Z</time>
      </trkpt>
      <trkpt lat="47.11817" lon="-1.5527">
        <ele>19</ele>
        <time>2010-08-13T12:45:36Z</time>
      </trkpt>
      <trkpt lat="47.11818" lon="-1.55336">
        <ele>18</ele>
        <time>2010-08-13T12:45:41Z</time>
      </trkpt>
      <trkpt lat="47.11818" lon="-1.55391">
        <ele>18</ele>
        <time>2010-08-13T12:45:46Z</time>
      </trkpt>
      <trkpt lat="47.11819" lon="-1.55436">
        <ele>17</ele>
        <time>2010-08-13T12:45:51Z</time>
      </trkpt>
      <trkpt lat="47.11822" lon="-1.55492">
        <ele>18</ele>
        <time>2010-08-13T12:45:56Z</time>
      </trkpt>
      <trkpt lat="47.11826" lon="-1.55559">
        <ele>18</ele>
        <time>2010-08-13T12:46:01Z</time>
      </trkpt>
      <trkpt lat="47.1183" lon="-1.55615">
        <ele>17</ele>
        <time>2010-08-13T12:46:06Z</time>
      </trkpt>
      <trkpt lat="47.11834" lon="-1.55659">
        <ele>16</ele>
        <time>2010-08-13T12:46:11Z</time>
      </trkpt>
      <trkpt lat="47.11838" lon="-1.55715">
        <ele>16</ele>
        <time>2010-08-13T12:46:16Z</time>
      </trkpt>
      <trkpt lat="47.11844" lon="-1.55784">
        <ele>16</ele>
        <time>2010-08-13T12:46:21Z</time>
      </trkpt>
      <trkpt lat="47.11848" lon="-1.55844">
        <ele>15</ele>
        <time>2010-08-13T12:46:26Z</time>
      </trkpt>
      <trkpt lat="47.11853" lon="-1.55903">
        <ele>15</ele>
        <time>2010-08-13T12:46:31Z</time>
      </trkpt>
      <trkpt lat="47.11856" lon="-1.55951">
        <ele>14</ele>
        <time>2010-08-13T12:46:36Z</time>
      </trkpt>
      <trkpt lat="47.11861" lon="-1.5601">
        <ele>14</ele>
        <time>2010-08-13T12:46:41Z</time>
      </trkpt>
      <trkpt lat="47.11871" lon="-1.56081">
        <ele>14</ele>
        <time>2010-08-13T12:46:46Z</time>
      </trkpt>
      <trkpt lat="47.11884" lon="-1.56138">
        <ele>14</ele>
        <time>2010-08-13T12:46:51Z</time>
      </trkpt>
      <trkpt lat="47.11898" lon="-1.56193">
        <ele>13</ele>
        <time>2010-08-13T12:46:56Z</time>
      </trkpt>
      <trkpt lat="47.1191" lon="-1.56236">
        <ele>14</ele>
        <time>2010-08-13T12:47:01Z</time>
      </trkpt>
      <trkpt lat="47.11926" lon="-1.56299">
        <ele>13</ele>
        <time>2010-08-13T12:47:06Z</time>
      </trkpt>
      <trkpt lat="47.1194" lon="-1.5635">
        <ele>13</ele>
        <time>2010-08-13T12:47:11Z</time>
      </trkpt>
      <trkpt lat="47.11953" lon="-1.564">
        <ele>13</ele>
        <time>2010-08-13T12:47:16Z</time>
      </trkpt>
      <trkpt lat="47.11963" lon="-1.56439">
        <ele>14</ele>
        <time>2010-08-13T12:47:21Z</time>
      </trkpt>
      <trkpt lat="47.11976" lon="-1.56488">
        <ele>14</ele>
        <time>2010-08-13T12:47:26Z</time>
      </trkpt>
      <trkpt lat="47.11991" lon="-1.56547">
        <ele>14</ele>
        <time>2010-08-13T12:47:31Z</time>
      </trkpt>
      <trkpt lat="47.12002" lon="-1.56598">
        <ele>14</ele>
        <time>2010-08-13T12:47:36Z</time>
      </trkpt>
      <trkpt lat="47.12012" lon="-1.56649">
        <ele>13</ele>
        <time>2010-08-13T12:47:41Z</time>
      </trkpt>
      <trkpt lat="47.1202" lon="-1.56692">
        <ele>12</ele>
        <time>2010-08-13T12:47:46Z</time>
      </trkpt>
      <trkpt lat="47.12032" lon="-1.56751">
        <ele>10</ele>
        <time>2010-08-13T12:47:51Z</time>
      </trkpt>
      <trkpt lat="47.12046" lon="-1.56832">
        <ele>10</ele>
        <time>2010-08-13T12:47:56Z</time>
      </trkpt>
      <trkpt lat="47.12061" lon="-1.56904">
        <ele>9</ele>
        <time>2010-08-13T12:48:01Z</time>
      </trkpt>
      <trkpt lat="47.12071" lon="-1.56962">
        <ele>8</ele>
        <time>2010-08-13T12:48:06Z</time>
      </trkpt>
      <trkpt lat="47.12085" lon="-1.57034">
        <ele>9</ele>
        <time>2010-08-13T12:48:11Z</time>
      </trkpt>
      <trkpt lat="47.121" lon="-1.57109">
        <ele>9</ele>
        <time>2010-08-13T12:48:16Z</time>
      </trkpt>
      <trkpt lat="47.12111" lon="-1.57161">
        <ele>9</ele>
        <time>2010-08-13T12:48:21Z</time>
      </trkpt>
      <trkpt lat="47.1212" lon="-1.57211">
        <ele>10</ele>
        <time>2010-08-13T12:48:26Z</time>
      </trkpt>
      <trkpt lat="47.12128" lon="-1.57248">
        <ele>11</ele>
        <time>2010-08-13T12:48:31Z</time>
      </trkpt>
      <trkpt lat="47.12137" lon="-1.57293">
        <ele>12</ele>
        <time>2010-08-13T12:48:36Z</time>
      </trkpt>
      <trkpt lat="47.12148" lon="-1.57348">
        <ele>13</ele>
        <time>2010-08-13T12:48:41Z</time>
      </trkpt>
      <trkpt lat="47.12158" lon="-1.57393">
        <ele>13</ele>
        <time>2010-08-13T12:48:46Z</time>
      </trkpt>
      <trkpt lat="47.12164" lon="-1.5743">
        <ele>13</ele>
        <time>2010-08-13T12:48:51Z</time>
      </trkpt>
      <trkpt lat="47.12173" lon="-1.57476">
        <ele>15</ele>
        <time>2010-08-13T12:48:56Z</time>
      </trkpt>
      <trkpt lat="47.1218" lon="-1.57524">
        <ele>15</ele>
        <time>2010-08-13T12:49:01Z</time>
      </trkpt>
      <trkpt lat="47.12184" lon="-1.57583">
        <ele>15</ele>
        <time>2010-08-13T12:49:06Z</time>
      </trkpt>
      <trkpt lat="47.12183" lon="-1.57634">
        <ele>15</ele>
        <time>2010-08-13T12:49:11Z</time>
      </trkpt>
      <trkpt lat="47.12182" lon="-1.57674">
        <ele>14</ele>
        <time>2010-08-13T12:49:16Z</time>
      </trkpt>
      <trkpt lat="47.1218" lon="-1.57728">
        <ele>15</ele>
        <time>2010-08-13T12:49:21Z</time>
      </trkpt>
      <trkpt lat="47.12182" lon="-1.5779">
        <ele>15</ele>
        <time>2010-08-13T12:49:26Z</time>
      </trkpt>
      <trkpt lat="47.12182" lon="-1.57846">
        <ele>13</ele>
        <time>2010-08-13T12:49:31Z</time>
      </trkpt>
      <trkpt lat="47.12184" lon="-1.57893">
        <ele>12</ele>
        <time>2010-08-13T12:49:36Z</time>
      </trkpt>
      <trkpt lat="47.12201" lon="-1.57952">
        <ele>10</ele>
        <time>2010-08-13T12:49:41Z</time>
      </trkpt>
      <trkpt lat="47.12235" lon="-1.58013">
        <ele>8</ele>
        <time>2010-08-13T12:49:46Z</time>
      </trkpt>
      <trkpt lat="47.12246" lon="-1.58071">
        <ele>7</ele>
        <time>2010-08-13T12:49:51Z</time>
      </trkpt>
      <trkpt lat="47.12225" lon="-1.58126">
        <ele>7</ele>
        <time>2010-08-13T12:49:56Z</time>
      </trkpt>
      <trkpt lat="47.12208" lon="-1.58167">
        <ele>7</ele>
        <time>2010-08-13T12:50:01Z</time>
      </trkpt>
      <trkpt lat="47.122" lon="-1.58229">
        <ele>7</ele>
        <time>2010-08-13T12:50:06Z</time>
      </trkpt>
      <trkpt lat="47.12207" lon="-1.58263">
        <ele>6</ele>
        <time>2010-08-13T12:50:11Z</time>
      </trkpt>
      <trkpt lat="47.12232" lon="-1.58287">
        <ele>6</ele>
        <time>2010-08-13T12:50:16Z</time>
      </trkpt>
      <trkpt lat="47.12263" lon="-1.58318">
        <ele>6</ele>
        <time>2010-08-13T12:50:21Z</time>
      </trkpt>
      <trkpt lat="47.12288" lon="-1.58343">
        <ele>6</ele>
        <time>2010-08-13T12:50:26Z</time>
      </trkpt>
      <trkpt lat="47.12301" lon="-1.58385">
        <ele>7</ele>
        <time>2010-08-13T12:50:31Z</time>
      </trkpt>
      <trkpt lat="47.12308" lon="-1.58424">
        <ele>7</ele>
        <time>2010-08-13T12:50:36Z</time>
      </trkpt>
      <trkpt lat="47.12326" lon="-1.58445">
        <ele>7</ele>
        <time>2010-08-13T12:50:41Z</time>
      </trkpt>
      <trkpt lat="47.12328" lon="-1.58456">
        <ele>7</ele>
        <time>2010-08-13T12:50:46Z</time>
      </trkpt>
      <trkpt lat="47.12335" lon="-1.58481">
        <ele>8</ele>
        <time>2010-08-13T12:50:51Z</time>
      </trkpt>
      <trkpt lat="47.12346" lon="-1.58524">
        <ele>8</ele>
        <time>2010-08-13T12:50:56Z</time>
      </trkpt>
      <trkpt lat="47.12353" lon="-1.58564">
        <ele>8</ele>
        <time>2010-08-13T12:51:01Z</time>
      </trkpt>
      <trkpt lat="47.12365" lon="-1.58606">
        <ele>9</ele>
        <time>2010-08-13T12:51:06Z</time>
      </trkpt>
      <trkpt lat="47.12373" lon="-1.58638">
        <ele>9</ele>
        <time>2010-08-13T12:51:11Z</time>
      </trkpt>
      <trkpt lat="47.12384" lon="-1.58685">
        <ele>10</ele>
        <time>2010-08-13T12:51:16Z</time>
      </trkpt>
      <trkpt lat="47.12392" lon="-1.58726">
        <ele>10</ele>
        <time>2010-08-13T12:51:21Z</time>
      </trkpt>
      <trkpt lat="47.12401" lon="-1.58767">
        <ele>11</ele>
        <time>2010-08-13T12:51:26Z</time>
      </trkpt>
      <trkpt lat="47.12407" lon="-1.588">
        <ele>11</ele>
        <time>2010-08-13T12:51:31Z</time>
      </trkpt>
      <trkpt lat="47.12412" lon="-1.58843">
        <ele>11</ele>
        <time>2010-08-13T12:51:36Z</time>
      </trkpt>
      <trkpt lat="47.12416" lon="-1.58889">
        <ele>10</ele>
        <time>2010-08-13T12:51:41Z</time>
      </trkpt>
      <trkpt lat="47.12421" lon="-1.58951">
        <ele>9</ele>
        <time>2010-08-13T12:51:46Z</time>
      </trkpt>
      <trkpt lat="47.12423" lon="-1.59012">
        <ele>7</ele>
        <time>2010-08-13T12:51:51Z</time>
      </trkpt>
      <trkpt lat="47.12425" lon="-1.59065">
        <ele>7</ele>
        <time>2010-08-13T12:51:56Z</time>
      </trkpt>
      <trkpt lat="47.12428" lon="-1.5913">
        <ele>6</ele>
        <time>2010-08-13T12:52:01Z</time>
      </trkpt>
      <trkpt lat="47.12436" lon="-1.592">
        <ele>6</ele>
        <time>2010-08-13T12:52:06Z</time>
      </trkpt>
      <trkpt lat="47.12435" lon="-1.59254">
        <ele>7</ele>
        <time>2010-08-13T12:52:11Z</time>
      </trkpt>
      <trkpt lat="47.12437" lon="-1.59296">
        <ele>7</ele>
        <time>2010-08-13T12:52:16Z</time>
      </trkpt>
      <trkpt lat="47.1244" lon="-1.59347">
        <ele>7</ele>
        <time>2010-08-13T12:52:21Z</time>
      </trkpt>
      <trkpt lat="47.12443" lon="-1.59396">
        <ele>7</ele>
        <time>2010-08-13T12:52:26Z</time>
      </trkpt>
      <trkpt lat="47.12445" lon="-1.59453">
        <ele>7</ele>
        <time>2010-08-13T12:52:31Z</time>
      </trkpt>
      <trkpt lat="47.12449" lon="-1.59501">
        <ele>8</ele>
        <time>2010-08-13T12:52:36Z</time>
      </trkpt>
      <trkpt lat="47.12451" lon="-1.59539">
        <ele>9</ele>
        <time>2010-08-13T12:52:41Z</time>
      </trkpt>
      <trkpt lat="47.12453" lon="-1.59585">
        <ele>10</ele>
        <time>2010-08-13T12:52:46Z</time>
      </trkpt>
      <trkpt lat="47.12455" lon="-1.59643">
        <ele>10</ele>
        <time>2010-08-13T12:52:51Z</time>
      </trkpt>
      <trkpt lat="47.12457" lon="-1.59691">
        <ele>10</ele>
        <time>2010-08-13T12:52:56Z</time>
      </trkpt>
      <trkpt lat="47.12458" lon="-1.59729">
        <ele>10</ele>
        <time>2010-08-13T12:53:01Z</time>
      </trkpt>
      <trkpt lat="47.12461" lon="-1.59777">
        <ele>10</ele>
        <time>2010-08-13T12:53:06Z</time>
      </trkpt>
      <trkpt lat="47.12463" lon="-1.59826">
        <ele>10</ele>
        <time>2010-08-13T12:53:11Z</time>
      </trkpt>
      <trkpt lat="47.12465" lon="-1.59886">
        <ele>11</ele>
        <time>2010-08-13T12:53:16Z</time>
      </trkpt>
      <trkpt lat="47.12467" lon="-1.59938">
        <ele>11</ele>
        <time>2010-08-13T12:53:21Z</time>
      </trkpt>
      <trkpt lat="47.12469" lon="-1.59982">
        <ele>10</ele>
        <time>2010-08-13T12:53:26Z</time>
      </trkpt>
      <trkpt lat="47.12471" lon="-1.60038">
        <ele>9</ele>
        <time>2010-08-13T12:53:31Z</time>
      </trkpt>
      <trkpt lat="47.12473" lon="-1.60109">
        <ele>8</ele>
        <time>2010-08-13T12:53:36Z</time>
      </trkpt>
      <trkpt lat="47.12477" lon="-1.60168">
        <ele>6</ele>
        <time>2010-08-13T12:53:41Z</time>
      </trkpt>
      <trkpt lat="47.12485" lon="-1.60227">
        <ele>6</ele>
        <time>2010-08-13T12:53:46Z</time>
      </trkpt>
      <trkpt lat="47.12493" lon="-1.60272">
        <ele>5</ele>
        <time>2010-08-13T12:53:51Z</time>
      </trkpt>
      <trkpt lat="47.12503" lon="-1.60325">
        <ele>6</ele>
        <time>2010-08-13T12:53:56Z</time>
      </trkpt>
      <trkpt lat="47.12515" lon="-1.60382">
        <ele>8</ele>
        <time>2010-08-13T12:54:01Z</time>
      </trkpt>
      <trkpt lat="47.12524" lon="-1.60426">
        <ele>10</ele>
        <time>2010-08-13T12:54:06Z</time>
      </trkpt>
      <trkpt lat="47.1253" lon="-1.60461">
        <ele>10</ele>
        <time>2010-08-13T12:54:11Z</time>
      </trkpt>
      <trkpt lat="47.12537" lon="-1.60505">
        <ele>10</ele>
        <time>2010-08-13T12:54:16Z</time>
      </trkpt>
      <trkpt lat="47.1254" lon="-1.60551">
        <ele>10</ele>
        <time>2010-08-13T12:54:21Z</time>
      </trkpt>
      <trkpt lat="47.12542" lon="-1.60606">
        <ele>9</ele>
        <time>2010-08-13T12:54:26Z</time>
      </trkpt>
      <trkpt lat="47.12543" lon="-1.60654">
        <ele>9</ele>
        <time>2010-08-13T12:54:31Z</time>
      </trkpt>
      <trkpt lat="47.12544" lon="-1.60692">
        <ele>9</ele>
        <time>2010-08-13T12:54:36Z</time>
      </trkpt>
      <trkpt lat="47.12543" lon="-1.60741">
        <ele>9</ele>
        <time>2010-08-13T12:54:41Z</time>
      </trkpt>
      <trkpt lat="47.12539" lon="-1.60798">
        <ele>10</ele>
        <time>2010-08-13T12:54:46Z</time>
      </trkpt>
      <trkpt lat="47.12535" lon="-1.60845">
        <ele>10</ele>
        <time>2010-08-13T12:54:51Z</time>
      </trkpt>
      <trkpt lat="47.12531" lon="-1.60883">
        <ele>10</ele>
        <time>2010-08-13T12:54:56Z</time>
      </trkpt>
      <trkpt lat="47.12526" lon="-1.60932">
        <ele>10</ele>
        <time>2010-08-13T12:55:01Z</time>
      </trkpt>
      <trkpt lat="47.12521" lon="-1.6098">
        <ele>10</ele>
        <time>2010-08-13T12:55:06Z</time>
      </trkpt>
      <trkpt lat="47.12515" lon="-1.6104">
        <ele>10</ele>
        <time>2010-08-13T12:55:11Z</time>
      </trkpt>
      <trkpt lat="47.12511" lon="-1.61091">
        <ele>10</ele>
        <time>2010-08-13T12:55:16Z</time>
      </trkpt>
      <trkpt lat="47.12506" lon="-1.61136">
        <ele>10</ele>
        <time>2010-08-13T12:55:21Z</time>
      </trkpt>
      <trkpt lat="47.125" lon="-1.6119">
        <ele>10</ele>
        <time>2010-08-13T12:55:26Z</time>
      </trkpt>
      <trkpt lat="47.12488" lon="-1.61251">
        <ele>10</ele>
        <time>2010-08-13T12:55:31Z</time>
      </trkpt>
      <trkpt lat="47.12473" lon="-1.61296">
        <ele>11</ele>
        <time>2010-08-13T12:55:36Z</time>
      </trkpt>
      <trkpt lat="47.12461" lon="-1.61334">
        <ele>11</ele>
        <time>2010-08-13T12:55:41Z</time>
      </trkpt>
      <trkpt lat="47.12455" lon="-1.61388">
        <ele>11</ele>
        <time>2010-08-13T12:55:46Z</time>
      </trkpt>
      <trkpt lat="47.1246" lon="-1.61452">
        <ele>11</ele>
        <time>2010-08-13T12:55:51Z</time>
      </trkpt>
      <trkpt lat="47.12466" lon="-1.61505">
        <ele>10</ele>
        <time>2010-08-13T12:55:56Z</time>
      </trkpt>
      <trkpt lat="47.12472" lon="-1.61559">
        <ele>10</ele>
        <time>2010-08-13T12:56:01Z</time>
      </trkpt>
      <trkpt lat="47.12478" lon="-1.61601">
        <ele>9</ele>
        <time>2010-08-13T12:56:06Z</time>
      </trkpt>
      <trkpt lat="47.12478" lon="-1.61656">
        <ele>9</ele>
        <time>2010-08-13T12:56:11Z</time>
      </trkpt>
      <trkpt lat="47.12466" lon="-1.61717">
        <ele>9</ele>
        <time>2010-08-13T12:56:16Z</time>
      </trkpt>
      <trkpt lat="47.12451" lon="-1.61769">
        <ele>9</ele>
        <time>2010-08-13T12:56:21Z</time>
      </trkpt>
      <trkpt lat="47.1244" lon="-1.61819">
        <ele>9</ele>
        <time>2010-08-13T12:56:26Z</time>
      </trkpt>
      <trkpt lat="47.12439" lon="-1.61859">
        <ele>8</ele>
        <time>2010-08-13T12:56:31Z</time>
      </trkpt>
      <trkpt lat="47.12415" lon="-1.61908">
        <ele>7</ele>
        <time>2010-08-13T12:56:36Z</time>
      </trkpt>
      <trkpt lat="47.12401" lon="-1.61961">
        <ele>8</ele>
        <time>2010-08-13T12:56:41Z</time>
      </trkpt>
      <trkpt lat="47.12388" lon="-1.62015">
        <ele>8</ele>
        <time>2010-08-13T12:56:46Z</time>
      </trkpt>
      <trkpt lat="47.12384" lon="-1.62061">
        <ele>8</ele>
        <time>2010-08-13T12:56:51Z</time>
      </trkpt>
      <trkpt lat="47.12388" lon="-1.62118">
        <ele>7</ele>
        <time>2010-08-13T12:56:56Z</time>
      </trkpt>
      <trkpt lat="47.12407" lon="-1.62182">
        <ele>5</ele>
        <time>2010-08-13T12:57:01Z</time>
      </trkpt>
      <trkpt lat="47.12431" lon="-1.62226">
        <ele>5</ele>
        <time>2010-08-13T12:57:06Z</time>
      </trkpt>
      <trkpt lat="47.12454" lon="-1.62259">
        <ele>5</ele>
        <time>2010-08-13T12:57:11Z</time>
      </trkpt>
      <trkpt lat="47.12481" lon="-1.62301">
        <ele>6</ele>
        <time>2010-08-13T12:57:16Z</time>
      </trkpt>
      <trkpt lat="47.12506" lon="-1.62344">
        <ele>7</ele>
        <time>2010-08-13T12:57:21Z</time>
      </trkpt>
      <trkpt lat="47.12531" lon="-1.62401">
        <ele>7</ele>
        <time>2010-08-13T12:57:26Z</time>
      </trkpt>
      <trkpt lat="47.12546" lon="-1.6245">
        <ele>7</ele>
        <time>2010-08-13T12:57:31Z</time>
      </trkpt>
      <trkpt lat="47.12556" lon="-1.6249">
        <ele>7</ele>
        <time>2010-08-13T12:57:36Z</time>
      </trkpt>
      <trkpt lat="47.12565" lon="-1.6254">
        <ele>7</ele>
        <time>2010-08-13T12:57:41Z</time>
      </trkpt>
      <trkpt lat="47.12574" lon="-1.62589">
        <ele>7</ele>
        <time>2010-08-13T12:57:46Z</time>
      </trkpt>
      <trkpt lat="47.1259" lon="-1.62646">
        <ele>7</ele>
        <time>2010-08-13T12:57:51Z</time>
      </trkpt>
      <trkpt lat="47.12609" lon="-1.62688">
        <ele>7</ele>
        <time>2010-08-13T12:57:56Z</time>
      </trkpt>
      <trkpt lat="47.12625" lon="-1.6272">
        <ele>7</ele>
        <time>2010-08-13T12:58:01Z</time>
      </trkpt>
      <trkpt lat="47.12645" lon="-1.6276">
        <ele>8</ele>
        <time>2010-08-13T12:58:06Z</time>
      </trkpt>
      <trkpt lat="47.12671" lon="-1.62806">
        <ele>8</ele>
        <time>2010-08-13T12:58:11Z</time>
      </trkpt>
      <trkpt lat="47.12687" lon="-1.62851">
        <ele>8</ele>
        <time>2010-08-13T12:58:16Z</time>
      </trkpt>
      <trkpt lat="47.127" lon="-1.6289">
        <ele>8</ele>
        <time>2010-08-13T12:58:21Z</time>
      </trkpt>
      <trkpt lat="47.12718" lon="-1.62937">
        <ele>8</ele>
        <time>2010-08-13T12:58:26Z</time>
      </trkpt>
      <trkpt lat="47.12736" lon="-1.62985">
        <ele>7</ele>
        <time>2010-08-13T12:58:31Z</time>
      </trkpt>
      <trkpt lat="47.12759" lon="-1.63043">
        <ele>7</ele>
        <time>2010-08-13T12:58:36Z</time>
      </trkpt>
      <trkpt lat="47.12777" lon="-1.63092">
        <ele>6</ele>
        <time>2010-08-13T12:58:41Z</time>
      </trkpt>
      <trkpt lat="47.12793" lon="-1.63132">
        <ele>6</ele>
        <time>2010-08-13T12:58:46Z</time>
      </trkpt>
      <trkpt lat="47.12812" lon="-1.63184">
        <ele>6</ele>
        <time>2010-08-13T12:58:51Z</time>
      </trkpt>
      <trkpt lat="47.12835" lon="-1.63243">
        <ele>6</ele>
        <time>2010-08-13T12:58:56Z</time>
      </trkpt>
      <trkpt lat="47.12854" lon="-1.63292">
        <ele>7</ele>
        <time>2010-08-13T12:59:01Z</time>
      </trkpt>
      <trkpt lat="47.12869" lon="-1.6333">
        <ele>7</ele>
        <time>2010-08-13T12:59:06Z</time>
      </trkpt>
      <trkpt lat="47.12888" lon="-1.63378">
        <ele>6</ele>
        <time>2010-08-13T12:59:11Z</time>
      </trkpt>
      <trkpt lat="47.1291" lon="-1.63434">
        <ele>6</ele>
        <time>2010-08-13T12:59:16Z</time>
      </trkpt>
      <trkpt lat="47.12929" lon="-1.63479">
        <ele>6</ele>
        <time>2010-08-13T12:59:21Z</time>
      </trkpt>
      <trkpt lat="47.12947" lon="-1.63524">
        <ele>5</ele>
        <time>2010-08-13T12:59:26Z</time>
      </trkpt>
      <trkpt lat="47.12961" lon="-1.63561">
        <ele>6</ele>
        <time>2010-08-13T12:59:31Z</time>
      </trkpt>
      <trkpt lat="47.12978" lon="-1.63606">
        <ele>7</ele>
        <time>2010-08-13T12:59:36Z</time>
      </trkpt>
      <trkpt lat="47.12997" lon="-1.63662">
        <ele>8</ele>
        <time>2010-08-13T12:59:41Z</time>
      </trkpt>
      <trkpt lat="47.13018" lon="-1.63707">
        <ele>10</ele>
        <time>2010-08-13T12:59:46Z</time>
      </trkpt>
      <trkpt lat="47.13039" lon="-1.63749">
        <ele>10</ele>
        <time>2010-08-13T12:59:51Z</time>
      </trkpt>
      <trkpt lat="47.13055" lon="-1.63782">
        <ele>11</ele>
        <time>2010-08-13T12:59:56Z</time>
      </trkpt>
      <trkpt lat="47.13074" lon="-1.63827">
        <ele>11</ele>
        <time>2010-08-13T13:00:01Z</time>
      </trkpt>
      <trkpt lat="47.13097" lon="-1.63883">
        <ele>11</ele>
        <time>2010-08-13T13:00:06Z</time>
      </trkpt>
      <trkpt lat="47.13114" lon="-1.63929">
        <ele>11</ele>
        <time>2010-08-13T13:00:11Z</time>
      </trkpt>
      <trkpt lat="47.13127" lon="-1.63965">
        <ele>11</ele>
        <time>2010-08-13T13:00:16Z</time>
      </trkpt>
      <trkpt lat="47.13145" lon="-1.6401">
        <ele>11</ele>
        <time>2010-08-13T13:00:21Z</time>
      </trkpt>
      <trkpt lat="47.13166" lon="-1.64063">
        <ele>12</ele>
        <time>2010-08-13T13:00:26Z</time>
      </trkpt>
      <trkpt lat="47.13185" lon="-1.64106">
        <ele>13</ele>
        <time>2010-08-13T13:00:31Z</time>
      </trkpt>
      <trkpt lat="47.13204" lon="-1.64148">
        <ele>13</ele>
        <time>2010-08-13T13:00:36Z</time>
      </trkpt>
      <trkpt lat="47.13219" lon="-1.64182">
        <ele>13</ele>
        <time>2010-08-13T13:00:41Z</time>
      </trkpt>
      <trkpt lat="47.13239" lon="-1.64222">
        <ele>13</ele>
        <time>2010-08-13T13:00:46Z</time>
      </trkpt>
      <trkpt lat="47.1326" lon="-1.64269">
        <ele>14</ele>
        <time>2010-08-13T13:00:51Z</time>
      </trkpt>
      <trkpt lat="47.13278" lon="-1.64307">
        <ele>15</ele>
        <time>2010-08-13T13:00:56Z</time>
      </trkpt>
      <trkpt lat="47.13291" lon="-1.64335">
        <ele>16</ele>
        <time>2010-08-13T13:01:01Z</time>
      </trkpt>
      <trkpt lat="47.13308" lon="-1.64372">
        <ele>16</ele>
        <time>2010-08-13T13:01:06Z</time>
      </trkpt>
      <trkpt lat="47.13329" lon="-1.64414">
        <ele>18</ele>
        <time>2010-08-13T13:01:11Z</time>
      </trkpt>
      <trkpt lat="47.13345" lon="-1.64447">
        <ele>19</ele>
        <time>2010-08-13T13:01:16Z</time>
      </trkpt>
      <trkpt lat="47.1336" lon="-1.64481">
        <ele>19</ele>
        <time>2010-08-13T13:01:21Z</time>
      </trkpt>
      <trkpt lat="47.13371" lon="-1.64509">
        <ele>21</ele>
        <time>2010-08-13T13:01:26Z</time>
      </trkpt>
      <trkpt lat="47.13383" lon="-1.64544">
        <ele>21</ele>
        <time>2010-08-13T13:01:31Z</time>
      </trkpt>
      <trkpt lat="47.13394" lon="-1.6459">
        <ele>23</ele>
        <time>2010-08-13T13:01:36Z</time>
      </trkpt>
      <trkpt lat="47.134" lon="-1.64634">
        <ele>23</ele>
        <time>2010-08-13T13:01:41Z</time>
      </trkpt>
      <trkpt lat="47.13401" lon="-1.64672">
        <ele>23</ele>
        <time>2010-08-13T13:01:46Z</time>
      </trkpt>
      <trkpt lat="47.13396" lon="-1.64723">
        <ele>24</ele>
        <time>2010-08-13T13:01:51Z</time>
      </trkpt>
      <trkpt lat="47.13396" lon="-1.6478">
        <ele>24</ele>
        <time>2010-08-13T13:01:56Z</time>
      </trkpt>
      <trkpt lat="47.13403" lon="-1.6485">
        <ele>23</ele>
        <time>2010-08-13T13:02:01Z</time>
      </trkpt>
      <trkpt lat="47.13415" lon="-1.64907">
        <ele>21</ele>
        <time>2010-08-13T13:02:06Z</time>
      </trkpt>
      <trkpt lat="47.13425" lon="-1.64954">
        <ele>19</ele>
        <time>2010-08-13T13:02:11Z</time>
      </trkpt>
      <trkpt lat="47.13437" lon="-1.65015">
        <ele>17</ele>
        <time>2010-08-13T13:02:16Z</time>
      </trkpt>
      <trkpt lat="47.13454" lon="-1.65091">
        <ele>15</ele>
        <time>2010-08-13T13:02:21Z</time>
      </trkpt>
      <trkpt lat="47.13469" lon="-1.65155">
        <ele>14</ele>
        <time>2010-08-13T13:02:26Z</time>
      </trkpt>
      <trkpt lat="47.13483" lon="-1.65204">
        <ele>12</ele>
        <time>2010-08-13T13:02:31Z</time>
      </trkpt>
      <trkpt lat="47.13508" lon="-1.65258">
        <ele>11</ele>
        <time>2010-08-13T13:02:36Z</time>
      </trkpt>
      <trkpt lat="47.13538" lon="-1.65304">
        <ele>11</ele>
        <time>2010-08-13T13:02:41Z</time>
      </trkpt>
      <trkpt lat="47.13577" lon="-1.65353">
        <ele>11</ele>
        <time>2010-08-13T13:02:46Z</time>
      </trkpt>
      <trkpt lat="47.13607" lon="-1.65396">
        <ele>11</ele>
        <time>2010-08-13T13:02:51Z</time>
      </trkpt>
      <trkpt lat="47.13628" lon="-1.65434">
        <ele>12</ele>
        <time>2010-08-13T13:02:56Z</time>
      </trkpt>
      <trkpt lat="47.13652" lon="-1.65483">
        <ele>12</ele>
        <time>2010-08-13T13:03:01Z</time>
      </trkpt>
      <trkpt lat="47.1368" lon="-1.65544">
        <ele>12</ele>
        <time>2010-08-13T13:03:06Z</time>
      </trkpt>
      <trkpt lat="47.13702" lon="-1.65591">
        <ele>12</ele>
        <time>2010-08-13T13:03:11Z</time>
      </trkpt>
      <trkpt lat="47.13722" lon="-1.65638">
        <ele>12</ele>
        <time>2010-08-13T13:03:16Z</time>
      </trkpt>
      <trkpt lat="47.13735" lon="-1.65676">
        <ele>12</ele>
        <time>2010-08-13T13:03:21Z</time>
      </trkpt>
      <trkpt lat="47.13746" lon="-1.65727">
        <ele>13</ele>
        <time>2010-08-13T13:03:26Z</time>
      </trkpt>
      <trkpt lat="47.13752" lon="-1.65789">
        <ele>13</ele>
        <time>2010-08-13T13:03:31Z</time>
      </trkpt>
      <trkpt lat="47.1375" lon="-1.65842">
        <ele>13</ele>
        <time>2010-08-13T13:03:36Z</time>
      </trkpt>
      <trkpt lat="47.13747" lon="-1.65883">
        <ele>12</ele>
        <time>2010-08-13T13:03:41Z</time>
      </trkpt>
      <trkpt lat="47.13743" lon="-1.65935">
        <ele>12</ele>
        <time>2010-08-13T13:03:46Z</time>
      </trkpt>
      <trkpt lat="47.13738" lon="-1.65997">
        <ele>13</ele>
        <time>2010-08-13T13:03:51Z</time>
      </trkpt>
      <trkpt lat="47.13736" lon="-1.66049">
        <ele>12</ele>
        <time>2010-08-13T13:03:56Z</time>
      </trkpt>
      <trkpt lat="47.13737" lon="-1.661">
        <ele>12</ele>
        <time>2010-08-13T13:04:01Z</time>
      </trkpt>
      <trkpt lat="47.1374" lon="-1.66142">
        <ele>13</ele>
        <time>2010-08-13T13:04:06Z</time>
      </trkpt>
      <trkpt lat="47.13745" lon="-1.66197">
        <ele>13</ele>
        <time>2010-08-13T13:04:11Z</time>
      </trkpt>
      <trkpt lat="47.13752" lon="-1.66268">
        <ele>13</ele>
        <time>2010-08-13T13:04:16Z</time>
      </trkpt>
      <trkpt lat="47.13764" lon="-1.66326">
        <ele>12</ele>
        <time>2010-08-13T13:04:21Z</time>
      </trkpt>
      <trkpt lat="47.1378" lon="-1.66367">
        <ele>11</ele>
        <time>2010-08-13T13:04:26Z</time>
      </trkpt>
      <trkpt lat="47.13803" lon="-1.66414">
        <ele>11</ele>
        <time>2010-08-13T13:04:31Z</time>
      </trkpt>
      <trkpt lat="47.13824" lon="-1.66462">
        <ele>10</ele>
        <time>2010-08-13T13:04:36Z</time>
      </trkpt>
      <trkpt lat="47.13838" lon="-1.66526">
        <ele>10</ele>
        <time>2010-08-13T13:04:41Z</time>
      </trkpt>
      <trkpt lat="47.13846" lon="-1.66584">
        <ele>9</ele>
        <time>2010-08-13T13:04:46Z</time>
      </trkpt>
      <trkpt lat="47.13853" lon="-1.66631">
        <ele>9</ele>
        <time>2010-08-13T13:04:51Z</time>
      </trkpt>
      <trkpt lat="47.13872" lon="-1.66686">
        <ele>9</ele>
        <time>2010-08-13T13:04:56Z</time>
      </trkpt>
      <trkpt lat="47.13902" lon="-1.66739">
        <ele>10</ele>
        <time>2010-08-13T13:05:01Z</time>
      </trkpt>
      <trkpt lat="47.13922" lon="-1.66782">
        <ele>10</ele>
        <time>2010-08-13T13:05:06Z</time>
      </trkpt>
      <trkpt lat="47.13935" lon="-1.66819">
        <ele>10</ele>
        <time>2010-08-13T13:05:11Z</time>
      </trkpt>
      <trkpt lat="47.13954" lon="-1.66867">
        <ele>10</ele>
        <time>2010-08-13T13:05:16Z</time>
      </trkpt>
      <trkpt lat="47.13973" lon="-1.66913">
        <ele>11</ele>
        <time>2010-08-13T13:05:21Z</time>
      </trkpt>
      <trkpt lat="47.13997" lon="-1.6696">
        <ele>10</ele>
        <time>2010-08-13T13:05:26Z</time>
      </trkpt>
      <trkpt lat="47.14019" lon="-1.66998">
        <ele>11</ele>
        <time>2010-08-13T13:05:31Z</time>
      </trkpt>
      <trkpt lat="47.14036" lon="-1.67027">
        <ele>10</ele>
        <time>2010-08-13T13:05:36Z</time>
      </trkpt>
      <trkpt lat="47.14058" lon="-1.67061">
        <ele>11</ele>
        <time>2010-08-13T13:05:41Z</time>
      </trkpt>
      <trkpt lat="47.14083" lon="-1.671">
        <ele>11</ele>
        <time>2010-08-13T13:05:46Z</time>
      </trkpt>
      <trkpt lat="47.14102" lon="-1.67135">
        <ele>12</ele>
        <time>2010-08-13T13:05:51Z</time>
      </trkpt>
      <trkpt lat="47.14124" lon="-1.6717">
        <ele>14</ele>
        <time>2010-08-13T13:05:56Z</time>
      </trkpt>
      <trkpt lat="47.14141" lon="-1.67197">
        <ele>14</ele>
        <time>2010-08-13T13:06:01Z</time>
      </trkpt>
      <trkpt lat="47.14157" lon="-1.6723">
        <ele>15</ele>
        <time>2010-08-13T13:06:06Z</time>
      </trkpt>
      <trkpt lat="47.14188" lon="-1.67243">
        <ele>15</ele>
        <time>2010-08-13T13:06:11Z</time>
      </trkpt>
      <trkpt lat="47.1421" lon="-1.67262">
        <ele>17</ele>
        <time>2010-08-13T13:06:16Z</time>
      </trkpt>
      <trkpt lat="47.14223" lon="-1.67295">
        <ele>17</ele>
        <time>2010-08-13T13:06:21Z</time>
      </trkpt>
      <trkpt lat="47.14238" lon="-1.67337">
        <ele>17</ele>
        <time>2010-08-13T13:06:26Z</time>
      </trkpt>
      <trkpt lat="47.14257" lon="-1.67384">
        <ele>16</ele>
        <time>2010-08-13T13:06:31Z</time>
      </trkpt>
      <trkpt lat="47.14273" lon="-1.67424">
        <ele>16</ele>
        <time>2010-08-13T13:06:36Z</time>
      </trkpt>
      <trkpt lat="47.14288" lon="-1.67466">
        <ele>16</ele>
        <time>2010-08-13T13:06:41Z</time>
      </trkpt>
      <trkpt lat="47.14298" lon="-1.67503">
        <ele>15</ele>
        <time>2010-08-13T13:06:46Z</time>
      </trkpt>
      <trkpt lat="47.14307" lon="-1.67563">
        <ele>14</ele>
        <time>2010-08-13T13:06:51Z</time>
      </trkpt>
      <trkpt lat="47.14311" lon="-1.67613">
        <ele>14</ele>
        <time>2010-08-13T13:06:56Z</time>
      </trkpt>
      <trkpt lat="47.14316" lon="-1.67663">
        <ele>14</ele>
        <time>2010-08-13T13:07:01Z</time>
      </trkpt>
      <trkpt lat="47.14323" lon="-1.67701">
        <ele>15</ele>
        <time>2010-08-13T13:07:06Z</time>
      </trkpt>
      <trkpt lat="47.14335" lon="-1.67748">
        <ele>16</ele>
        <time>2010-08-13T13:07:11Z</time>
      </trkpt>
      <trkpt lat="47.14352" lon="-1.67804">
        <ele>15</ele>
        <time>2010-08-13T13:07:16Z</time>
      </trkpt>
      <trkpt lat="47.14366" lon="-1.67851">
        <ele>15</ele>
        <time>2010-08-13T13:07:21Z</time>
      </trkpt>
      <trkpt lat="47.14372" lon="-1.679">
        <ele>14</ele>
        <time>2010-08-13T13:07:26Z</time>
      </trkpt>
      <trkpt lat="47.14369" lon="-1.67943">
        <ele>14</ele>
        <time>2010-08-13T13:07:31Z</time>
      </trkpt>
      <trkpt lat="47.1437" lon="-1.67996">
        <ele>14</ele>
        <time>2010-08-13T13:07:36Z</time>
      </trkpt>
      <trkpt lat="47.14373" lon="-1.68057">
        <ele>14</ele>
        <time>2010-08-13T13:07:41Z</time>
      </trkpt>
      <trkpt lat="47.14376" lon="-1.68107">
        <ele>15</ele>
        <time>2010-08-13T13:07:46Z</time>
      </trkpt>
      <trkpt lat="47.14378" lon="-1.68146">
        <ele>15</ele>
        <time>2010-08-13T13:07:51Z</time>
      </trkpt>
      <trkpt lat="47.14383" lon="-1.68196">
        <ele>15</ele>
        <time>2010-08-13T13:07:56Z</time>
      </trkpt>
      <trkpt lat="47.1439" lon="-1.68247">
        <ele>15</ele>
        <time>2010-08-13T13:08:01Z</time>
      </trkpt>
      <trkpt lat="47.14399" lon="-1.68311">
        <ele>15</ele>
        <time>2010-08-13T13:08:06Z</time>
      </trkpt>
      <trkpt lat="47.14405" lon="-1.68365">
        <ele>15</ele>
        <time>2010-08-13T13:08:11Z</time>
      </trkpt>
      <trkpt lat="47.14404" lon="-1.68408">
        <ele>16</ele>
        <time>2010-08-13T13:08:16Z</time>
      </trkpt>
      <trkpt lat="47.14399" lon="-1.68458">
        <ele>16</ele>
        <time>2010-08-13T13:08:21Z</time>
      </trkpt>
      <trkpt lat="47.14393" lon="-1.68519">
        <ele>17</ele>
        <time>2010-08-13T13:08:26Z</time>
      </trkpt>
      <trkpt lat="47.14392" lon="-1.68567">
        <ele>17</ele>
        <time>2010-08-13T13:08:31Z</time>
      </trkpt>
      <trkpt lat="47.14394" lon="-1.68602">
        <ele>16</ele>
        <time>2010-08-13T13:08:36Z</time>
      </trkpt>
      <trkpt lat="47.14398" lon="-1.68631">
        <ele>16</ele>
        <time>2010-08-13T13:08:41Z</time>
      </trkpt>
      <trkpt lat="47.14401" lon="-1.68647">
        <ele>16</ele>
        <time>2010-08-13T13:08:46Z</time>
      </trkpt>
      <trkpt lat="47.14406" lon="-1.68688">
        <ele>16</ele>
        <time>2010-08-13T13:08:51Z</time>
      </trkpt>
      <trkpt lat="47.14411" lon="-1.68738">
        <ele>16</ele>
        <time>2010-08-13T13:08:56Z</time>
      </trkpt>
      <trkpt lat="47.14411" lon="-1.68778">
        <ele>17</ele>
        <time>2010-08-13T13:09:01Z</time>
      </trkpt>
      <trkpt lat="47.14408" lon="-1.68825">
        <ele>18</ele>
        <time>2010-08-13T13:09:06Z</time>
      </trkpt>
      <trkpt lat="47.14403" lon="-1.68881">
        <ele>19</ele>
        <time>2010-08-13T13:09:11Z</time>
      </trkpt>
      <trkpt lat="47.14399" lon="-1.68926">
        <ele>19</ele>
        <time>2010-08-13T13:09:16Z</time>
      </trkpt>
      <trkpt lat="47.14398" lon="-1.68972">
        <ele>19</ele>
        <time>2010-08-13T13:09:21Z</time>
      </trkpt>
      <trkpt lat="47.14398" lon="-1.69008">
        <ele>20</ele>
        <time>2010-08-13T13:09:26Z</time>
      </trkpt>
      <trkpt lat="47.14395" lon="-1.69054">
        <ele>20</ele>
        <time>2010-08-13T13:09:31Z</time>
      </trkpt>
      <trkpt lat="47.14396" lon="-1.69112">
        <ele>20</ele>
        <time>2010-08-13T13:09:36Z</time>
      </trkpt>
      <trkpt lat="47.14396" lon="-1.69162">
        <ele>20</ele>
        <time>2010-08-13T13:09:41Z</time>
      </trkpt>
      <trkpt lat="47.14396" lon="-1.69204">
        <ele>19</ele>
        <time>2010-08-13T13:09:46Z</time>
      </trkpt>
      <trkpt lat="47.14394" lon="-1.69255">
        <ele>20</ele>
        <time>2010-08-13T13:09:51Z</time>
      </trkpt>
      <trkpt lat="47.14394" lon="-1.69308">
        <ele>20</ele>
        <time>2010-08-13T13:09:56Z</time>
      </trkpt>
      <trkpt lat="47.14391" lon="-1.69371">
        <ele>21</ele>
        <time>2010-08-13T13:10:01Z</time>
      </trkpt>
      <trkpt lat="47.14382" lon="-1.69424">
        <ele>20</ele>
        <time>2010-08-13T13:10:06Z</time>
      </trkpt>
      <trkpt lat="47.14381" lon="-1.69472">
        <ele>19</ele>
        <time>2010-08-13T13:10:11Z</time>
      </trkpt>
      <trkpt lat="47.14378" lon="-1.69538">
        <ele>18</ele>
        <time>2010-08-13T13:10:16Z</time>
      </trkpt>
      <trkpt lat="47.14358" lon="-1.69613">
        <ele>16</ele>
        <time>2010-08-13T13:10:21Z</time>
      </trkpt>
      <trkpt lat="47.14336" lon="-1.69676">
        <ele>14</ele>
        <time>2010-08-13T13:10:26Z</time>
      </trkpt>
      <trkpt lat="47.14326" lon="-1.6973">
        <ele>12</ele>
        <time>2010-08-13T13:10:31Z</time>
      </trkpt>
      <trkpt lat="47.1431" lon="-1.69796">
        <ele>11</ele>
        <time>2010-08-13T13:10:36Z</time>
      </trkpt>
      <trkpt lat="47.14292" lon="-1.69864">
        <ele>9</ele>
        <time>2010-08-13T13:10:41Z</time>
      </trkpt>
      <trkpt lat="47.14272" lon="-1.69946">
        <ele>7</ele>
        <time>2010-08-13T13:10:46Z</time>
      </trkpt>
      <trkpt lat="47.14263" lon="-1.70002">
        <ele>6</ele>
        <time>2010-08-13T13:10:51Z</time>
      </trkpt>
      <trkpt lat="47.14254" lon="-1.70067">
        <ele>6</ele>
        <time>2010-08-13T13:10:56Z</time>
      </trkpt>
      <trkpt lat="47.14246" lon="-1.70124">
        <ele>6</ele>
        <time>2010-08-13T13:11:01Z</time>
      </trkpt>
      <trkpt lat="47.14237" lon="-1.70186">
        <ele>8</ele>
        <time>2010-08-13T13:11:06Z</time>
      </trkpt>
      <trkpt lat="47.1423" lon="-1.70235">
        <ele>8</ele>
        <time>2010-08-13T13:11:11Z</time>
      </trkpt>
      <trkpt lat="47.14226" lon="-1.7027">
        <ele>8</ele>
        <time>2010-08-13T13:11:16Z</time>
      </trkpt>
      <trkpt lat="47.14219" lon="-1.70315">
        <ele>8</ele>
        <time>2010-08-13T13:11:21Z</time>
      </trkpt>
      <trkpt lat="47.14213" lon="-1.70359">
        <ele>10</ele>
        <time>2010-08-13T13:11:26Z</time>
      </trkpt>
      <trkpt lat="47.14205" lon="-1.70412">
        <ele>10</ele>
        <time>2010-08-13T13:11:31Z</time>
      </trkpt>
      <trkpt lat="47.14199" lon="-1.70454">
        <ele>12</ele>
        <time>2010-08-13T13:11:36Z</time>
      </trkpt>
      <trkpt lat="47.14196" lon="-1.70488">
        <ele>13</ele>
        <time>2010-08-13T13:11:41Z</time>
      </trkpt>
      <trkpt lat="47.14192" lon="-1.70528">
        <ele>13</ele>
        <time>2010-08-13T13:11:46Z</time>
      </trkpt>
      <trkpt lat="47.14189" lon="-1.70575">
        <ele>13</ele>
        <time>2010-08-13T13:11:51Z</time>
      </trkpt>
      <trkpt lat="47.14185" lon="-1.70615">
        <ele>13</ele>
        <time>2010-08-13T13:11:56Z</time>
      </trkpt>
      <trkpt lat="47.14182" lon="-1.70649">
        <ele>14</ele>
        <time>2010-08-13T13:12:01Z</time>
      </trkpt>
      <trkpt lat="47.14176" lon="-1.70689">
        <ele>14</ele>
        <time>2010-08-13T13:12:06Z</time>
      </trkpt>
      <trkpt lat="47.14167" lon="-1.70729">
        <ele>14</ele>
        <time>2010-08-13T13:12:11Z</time>
      </trkpt>
      <trkpt lat="47.14156" lon="-1.7078">
        <ele>14</ele>
        <time>2010-08-13T13:12:16Z</time>
      </trkpt>
      <trkpt lat="47.14146" lon="-1.70823">
        <ele>14</ele>
        <time>2010-08-13T13:12:21Z</time>
      </trkpt>
      <trkpt lat="47.14138" lon="-1.7086">
        <ele>14</ele>
        <time>2010-08-13T13:12:26Z</time>
      </trkpt>
      <trkpt lat="47.1413" lon="-1.70909">
        <ele>14</ele>
        <time>2010-08-13T13:12:31Z</time>
      </trkpt>
      <trkpt lat="47.14124" lon="-1.70975">
        <ele>13</ele>
        <time>2010-08-13T13:12:36Z</time>
      </trkpt>
      <trkpt lat="47.14117" lon="-1.7104">
        <ele>11</ele>
        <time>2010-08-13T13:12:41Z</time>
      </trkpt>
      <trkpt lat="47.14111" lon="-1.71112">
        <ele>11</ele>
        <time>2010-08-13T13:12:46Z</time>
      </trkpt>
      <trkpt lat="47.14104" lon="-1.71171">
        <ele>12</ele>
        <time>2010-08-13T13:12:51Z</time>
      </trkpt>
      <trkpt lat="47.14099" lon="-1.71227">
        <ele>13</ele>
        <time>2010-08-13T13:12:56Z</time>
      </trkpt>
      <trkpt lat="47.14094" lon="-1.71281">
        <ele>15</ele>
        <time>2010-08-13T13:13:01Z</time>
      </trkpt>
      <trkpt lat="47.14083" lon="-1.71322">
        <ele>13</ele>
        <time>2010-08-13T13:13:06Z</time>
      </trkpt>
      <trkpt lat="47.1407" lon="-1.71353">
        <ele>13</ele>
        <time>2010-08-13T13:13:11Z</time>
      </trkpt>
      <trkpt lat="47.14054" lon="-1.71392">
        <ele>14</ele>
        <time>2010-08-13T13:13:16Z</time>
      </trkpt>
      <trkpt lat="47.14033" lon="-1.71439">
        <ele>14</ele>
        <time>2010-08-13T13:13:21Z</time>
      </trkpt>
      <trkpt lat="47.14019" lon="-1.71481">
        <ele>14</ele>
        <time>2010-08-13T13:13:26Z</time>
      </trkpt>
      <trkpt lat="47.14008" lon="-1.71525">
        <ele>15</ele>
        <time>2010-08-13T13:13:31Z</time>
      </trkpt>
      <trkpt lat="47.14001" lon="-1.71561">
        <ele>16</ele>
        <time>2010-08-13T13:13:36Z</time>
      </trkpt>
      <trkpt lat="47.13993" lon="-1.71606">
        <ele>14</ele>
        <time>2010-08-13T13:13:41Z</time>
      </trkpt>
      <trkpt lat="47.13977" lon="-1.71657">
        <ele>15</ele>
        <time>2010-08-13T13:13:46Z</time>
      </trkpt>
      <trkpt lat="47.13957" lon="-1.717">
        <ele>14</ele>
        <time>2010-08-13T13:13:51Z</time>
      </trkpt>
      <trkpt lat="47.13936" lon="-1.71736">
        <ele>13</ele>
        <time>2010-08-13T13:13:56Z</time>
      </trkpt>
      <trkpt lat="47.13897" lon="-1.71766">
        <ele>11</ele>
        <time>2010-08-13T13:14:01Z</time>
      </trkpt>
      <trkpt lat="47.13895" lon="-1.71814">
        <ele>11</ele>
        <time>2010-08-13T13:14:06Z</time>
      </trkpt>
      <trkpt lat="47.13924" lon="-1.71869">
        <ele>11</ele>
        <time>2010-08-13T13:14:11Z</time>
      </trkpt>
      <trkpt lat="47.13964" lon="-1.71873">
        <ele>12</ele>
        <time>2010-08-13T13:14:16Z</time>
      </trkpt>
      <trkpt lat="47.13975" lon="-1.71905">
        <ele>12</ele>
        <time>2010-08-13T13:14:21Z</time>
      </trkpt>
      <trkpt lat="47.13967" lon="-1.71954">
        <ele>12</ele>
        <time>2010-08-13T13:14:26Z</time>
      </trkpt>
      <trkpt lat="47.13935" lon="-1.71986">
        <ele>11</ele>
        <time>2010-08-13T13:14:31Z</time>
      </trkpt>
      <trkpt lat="47.13904" lon="-1.72">
        <ele>10</ele>
        <time>2010-08-13T13:14:36Z</time>
      </trkpt>
      <trkpt lat="47.13881" lon="-1.72015">
        <ele>12</ele>
        <time>2010-08-13T13:14:41Z</time>
      </trkpt>
      <trkpt lat="47.13858" lon="-1.72045">
        <ele>12</ele>
        <time>2010-08-13T13:14:46Z</time>
      </trkpt>
      <trkpt lat="47.13833" lon="-1.72084">
        <ele>14</ele>
        <time>2010-08-13T13:14:51Z</time>
      </trkpt>
      <trkpt lat="47.13813" lon="-1.72116">
        <ele>15</ele>
        <time>2010-08-13T13:14:56Z</time>
      </trkpt>
      <trkpt lat="47.13794" lon="-1.72147">
        <ele>15</ele>
        <time>2010-08-13T13:15:01Z</time>
      </trkpt>
      <trkpt lat="47.13779" lon="-1.72172">
        <ele>15</ele>
        <time>2010-08-13T13:15:06Z</time>
      </trkpt>
      <trkpt lat="47.13761" lon="-1.72204">
        <ele>15</ele>
        <time>2010-08-13T13:15:11Z</time>
      </trkpt>
      <trkpt lat="47.13744" lon="-1.72237">
        <ele>15</ele>
        <time>2010-08-13T13:15:16Z</time>
      </trkpt>
      <trkpt lat="47.13734" lon="-1.72283">
        <ele>17</ele>
        <time>2010-08-13T13:15:21Z</time>
      </trkpt>
      <trkpt lat="47.13729" lon="-1.72323">
        <ele>18</ele>
        <time>2010-08-13T13:15:26Z</time>
      </trkpt>
      <trkpt lat="47.13723" lon="-1.72354">
        <ele>20</ele>
        <time>2010-08-13T13:15:31Z</time>
      </trkpt>
      <trkpt lat="47.13713" lon="-1.72401">
        <ele>20</ele>
        <time>2010-08-13T13:15:36Z</time>
      </trkpt>
      <trkpt lat="47.13702" lon="-1.7244">
        <ele>21</ele>
        <time>2010-08-13T13:15:41Z</time>
      </trkpt>
      <trkpt lat="47.1369" lon="-1.7248">
        <ele>21</ele>
        <time>2010-08-13T13:15:46Z</time>
      </trkpt>
      <trkpt lat="47.13681" lon="-1.72517">
        <ele>22</ele>
        <time>2010-08-13T13:15:51Z</time>
      </trkpt>
      <trkpt lat="47.13676" lon="-1.72565">
        <ele>22</ele>
        <time>2010-08-13T13:15:56Z</time>
      </trkpt>
      <trkpt lat="47.13672" lon="-1.72623">
        <ele>22</ele>
        <time>2010-08-13T13:16:01Z</time>
      </trkpt>
      <trkpt lat="47.13665" lon="-1.72669">
        <ele>23</ele>
        <time>2010-08-13T13:16:06Z</time>
      </trkpt>
      <trkpt lat="47.13657" lon="-1.72712">
        <ele>22</ele>
        <time>2010-08-13T13:16:11Z</time>
      </trkpt>
      <trkpt lat="47.13654" lon="-1.72748">
        <ele>22</ele>
        <time>2010-08-13T13:16:16Z</time>
      </trkpt>
      <trkpt lat="47.13651" lon="-1.72796">
        <ele>21</ele>
        <time>2010-08-13T13:16:21Z</time>
      </trkpt>
      <trkpt lat="47.13649" lon="-1.72861">
        <ele>19</ele>
        <time>2010-08-13T13:16:26Z</time>
      </trkpt>
      <trkpt lat="47.13643" lon="-1.72923">
        <ele>16</ele>
        <time>2010-08-13T13:16:31Z</time>
      </trkpt>
      <trkpt lat="47.13639" lon="-1.7298">
        <ele>15</ele>
        <time>2010-08-13T13:16:36Z</time>
      </trkpt>
      <trkpt lat="47.13623" lon="-1.73053">
        <ele>13</ele>
        <time>2010-08-13T13:16:41Z</time>
      </trkpt>
      <trkpt lat="47.13577" lon="-1.73092">
        <ele>11</ele>
        <time>2010-08-13T13:16:46Z</time>
      </trkpt>
      <trkpt lat="47.13531" lon="-1.73134">
        <ele>11</ele>
        <time>2010-08-13T13:16:51Z</time>
      </trkpt>
      <trkpt lat="47.13507" lon="-1.73194">
        <ele>10</ele>
        <time>2010-08-13T13:16:56Z</time>
      </trkpt>
      <trkpt lat="47.13502" lon="-1.73247">
        <ele>9</ele>
        <time>2010-08-13T13:17:01Z</time>
      </trkpt>
      <trkpt lat="47.13499" lon="-1.7331">
        <ele>8</ele>
        <time>2010-08-13T13:17:06Z</time>
      </trkpt>
      <trkpt lat="47.13517" lon="-1.7337">
        <ele>11</ele>
        <time>2010-08-13T13:17:11Z</time>
      </trkpt>
      <trkpt lat="47.13522" lon="-1.73382">
        <ele>11</ele>
        <time>2010-08-13T13:17:16Z</time>
      </trkpt>
      <trkpt lat="47.13517" lon="-1.73351">
        <ele>10</ele>
        <time>2010-08-13T13:17:21Z</time>
      </trkpt>
      <trkpt lat="47.13507" lon="-1.73312">
        <ele>10</ele>
        <time>2010-08-13T13:17:26Z</time>
      </trkpt>
      <trkpt lat="47.13501" lon="-1.73291">
        <ele>10</ele>
        <time>2010-08-13T13:17:31Z</time>
      </trkpt>
      <trkpt lat="47.13499" lon="-1.7329">
        <ele>8</ele>
        <time>2010-08-13T13:17:36Z</time>
      </trkpt>
      <trkpt lat="47.13496" lon="-1.73289">
        <ele>8</ele>
        <time>2010-08-13T13:17:41Z</time>
      </trkpt>
      <trkpt lat="47.13495" lon="-1.7329">
        <ele>8</ele>
        <time>2010-08-13T13:17:46Z</time>
      </trkpt>
      <trkpt lat="47.13494" lon="-1.73289">
        <ele>8</ele>
        <time>2010-08-13T13:17:51Z</time>
      </trkpt>
      <trkpt lat="47.13495" lon="-1.73289">
        <ele>8</ele>
        <time>2010-08-13T13:17:56Z</time>
      </trkpt>
      <trkpt lat="47.13496" lon="-1.73294">
        <ele>8</ele>
        <time>2010-08-13T13:18:01Z</time>
      </trkpt>
      <trkpt lat="47.13497" lon="-1.73293">
        <ele>8</ele>
        <time>2010-08-13T13:18:06Z</time>
      </trkpt>
      <trkpt lat="47.13495" lon="-1.73288">
        <ele>8</ele>
        <time>2010-08-13T13:18:11Z</time>
      </trkpt>
      <trkpt lat="47.13493" lon="-1.73288">
        <ele>8</ele>
        <time>2010-08-13T13:18:16Z</time>
      </trkpt>
      <trkpt lat="47.13492" lon="-1.73287">
        <ele>8</ele>
        <time>2010-08-13T13:18:21Z</time>
      </trkpt>
      <trkpt lat="47.13493" lon="-1.73288">
        <ele>8</ele>
        <time>2010-08-13T13:18:26Z</time>
      </trkpt>
      <trkpt lat="47.13494" lon="-1.73289">
        <ele>8</ele>
        <time>2010-08-13T13:18:31Z</time>
      </trkpt>
      <trkpt lat="47.13494" lon="-1.7329">
        <ele>8</ele>
        <time>2010-08-13T13:18:36Z</time>
      </trkpt>
      <trkpt lat="47.13504" lon="-1.73313">
        <ele>10</ele>
        <time>2010-08-13T13:18:41Z</time>
      </trkpt>
      <trkpt lat="47.13512" lon="-1.7335">
        <ele>10</ele>
        <time>2010-08-13T13:18:46Z</time>
      </trkpt>
      <trkpt lat="47.13524" lon="-1.7339">
        <ele>11</ele>
        <time>2010-08-13T13:18:51Z</time>
      </trkpt>
      <trkpt lat="47.13533" lon="-1.7342">
        <ele>11</ele>
        <time>2010-08-13T13:18:56Z</time>
      </trkpt>
      <trkpt lat="47.13545" lon="-1.73457">
        <ele>11</ele>
        <time>2010-08-13T13:19:01Z</time>
      </trkpt>
      <trkpt lat="47.13558" lon="-1.73503">
        <ele>11</ele>
        <time>2010-08-13T13:19:06Z</time>
      </trkpt>
      <trkpt lat="47.1357" lon="-1.73544">
        <ele>11</ele>
        <time>2010-08-13T13:19:11Z</time>
      </trkpt>
      <trkpt lat="47.13581" lon="-1.73578">
        <ele>12</ele>
        <time>2010-08-13T13:19:16Z</time>
      </trkpt>
      <trkpt lat="47.13597" lon="-1.7362">
        <ele>12</ele>
        <time>2010-08-13T13:19:21Z</time>
      </trkpt>
      <trkpt lat="47.13615" lon="-1.73672">
        <ele>10</ele>
        <time>2010-08-13T13:19:26Z</time>
      </trkpt>
      <trkpt lat="47.13624" lon="-1.73718">
        <ele>10</ele>
        <time>2010-08-13T13:19:31Z</time>
      </trkpt>
      <trkpt lat="47.1363" lon="-1.73773">
        <ele>9</ele>
        <time>2010-08-13T13:19:36Z</time>
      </trkpt>
      <trkpt lat="47.13635" lon="-1.73824">
        <ele>9</ele>
        <time>2010-08-13T13:19:41Z</time>
      </trkpt>
      <trkpt lat="47.1364" lon="-1.73884">
        <ele>9</ele>
        <time>2010-08-13T13:19:46Z</time>
      </trkpt>
      <trkpt lat="47.13643" lon="-1.73935">
        <ele>10</ele>
        <time>2010-08-13T13:19:51Z</time>
      </trkpt>
      <trkpt lat="47.13643" lon="-1.73985">
        <ele>11</ele>
        <time>2010-08-13T13:19:56Z</time>
      </trkpt>
      <trkpt lat="47.13641" lon="-1.74016">
        <ele>12</ele>
        <time>2010-08-13T13:20:01Z</time>
      </trkpt>
      <trkpt lat="47.13638" lon="-1.74055">
        <ele>12</ele>
        <time>2010-08-13T13:20:06Z</time>
      </trkpt>
      <trkpt lat="47.13637" lon="-1.74095">
        <ele>12</ele>
        <time>2010-08-13T13:20:11Z</time>
      </trkpt>
      <trkpt lat="47.13642" lon="-1.74144">
        <ele>12</ele>
        <time>2010-08-13T13:20:16Z</time>
      </trkpt>
      <trkpt lat="47.13651" lon="-1.74185">
        <ele>12</ele>
        <time>2010-08-13T13:20:21Z</time>
      </trkpt>
      <trkpt lat="47.13659" lon="-1.74219">
        <ele>11</ele>
        <time>2010-08-13T13:20:26Z</time>
      </trkpt>
      <trkpt lat="47.1367" lon="-1.74263">
        <ele>13</ele>
        <time>2010-08-13T13:20:31Z</time>
      </trkpt>
      <trkpt lat="47.13687" lon="-1.74313">
        <ele>12</ele>
        <time>2010-08-13T13:20:36Z</time>
      </trkpt>
      <trkpt lat="47.13693" lon="-1.74395">
        <ele>10</ele>
        <time>2010-08-13T13:20:41Z</time>
      </trkpt>
      <trkpt lat="47.13691" lon="-1.74454">
        <ele>8</ele>
        <time>2010-08-13T13:20:46Z</time>
      </trkpt>
      <trkpt lat="47.13654" lon="-1.74505">
        <ele>4</ele>
        <time>2010-08-13T13:20:51Z</time>
      </trkpt>
      <trkpt lat="47.13616" lon="-1.7454">
        <ele>3</ele>
        <time>2010-08-13T13:20:56Z</time>
      </trkpt>
      <trkpt lat="47.13569" lon="-1.74584">
        <ele>4</ele>
        <time>2010-08-13T13:21:01Z</time>
      </trkpt>
      <trkpt lat="47.13529" lon="-1.74621">
        <ele>5</ele>
        <time>2010-08-13T13:21:06Z</time>
      </trkpt>
      <trkpt lat="47.13502" lon="-1.74644">
        <ele>6</ele>
        <time>2010-08-13T13:21:11Z</time>
      </trkpt>
      <trkpt lat="47.13484" lon="-1.74683">
        <ele>9</ele>
        <time>2010-08-13T13:21:16Z</time>
      </trkpt>
      <trkpt lat="47.13467" lon="-1.74719">
        <ele>10</ele>
        <time>2010-08-13T13:21:21Z</time>
      </trkpt>
      <trkpt lat="47.13446" lon="-1.7474">
        <ele>11</ele>
        <time>2010-08-13T13:21:26Z</time>
      </trkpt>
      <trkpt lat="47.13428" lon="-1.74742">
        <ele>12</ele>
        <time>2010-08-13T13:21:31Z</time>
      </trkpt>
      <trkpt lat="47.13408" lon="-1.74772">
        <ele>14</ele>
        <time>2010-08-13T13:21:36Z</time>
      </trkpt>
      <trkpt lat="47.13379" lon="-1.74807">
        <ele>14</ele>
        <time>2010-08-13T13:21:41Z</time>
      </trkpt>
      <trkpt lat="47.13368" lon="-1.74854">
        <ele>14</ele>
        <time>2010-08-13T13:21:46Z</time>
      </trkpt>
      <trkpt lat="47.13353" lon="-1.74895">
        <ele>14</ele>
        <time>2010-08-13T13:21:51Z</time>
      </trkpt>
      <trkpt lat="47.13341" lon="-1.74925">
        <ele>14</ele>
        <time>2010-08-13T13:21:56Z</time>
      </trkpt>
      <trkpt lat="47.13327" lon="-1.7496">
        <ele>15</ele>
        <time>2010-08-13T13:22:01Z</time>
      </trkpt>
      <trkpt lat="47.13305" lon="-1.74995">
        <ele>15</ele>
        <time>2010-08-13T13:22:06Z</time>
      </trkpt>
      <trkpt lat="47.13283" lon="-1.75018">
        <ele>17</ele>
        <time>2010-08-13T13:22:11Z</time>
      </trkpt>
      <trkpt lat="47.1326" lon="-1.75037">
        <ele>17</ele>
        <time>2010-08-13T13:22:16Z</time>
      </trkpt>
      <trkpt lat="47.13241" lon="-1.75052">
        <ele>19</ele>
        <time>2010-08-13T13:22:21Z</time>
      </trkpt>
      <trkpt lat="47.13218" lon="-1.75075">
        <ele>19</ele>
        <time>2010-08-13T13:22:26Z</time>
      </trkpt>
      <trkpt lat="47.13194" lon="-1.75109">
        <ele>19</ele>
        <time>2010-08-13T13:22:31Z</time>
      </trkpt>
      <trkpt lat="47.13178" lon="-1.75143">
        <ele>19</ele>
        <time>2010-08-13T13:22:36Z</time>
      </trkpt>
      <trkpt lat="47.13166" lon="-1.75173">
        <ele>19</ele>
        <time>2010-08-13T13:22:41Z</time>
      </trkpt>
      <trkpt lat="47.13154" lon="-1.75213">
        <ele>19</ele>
        <time>2010-08-13T13:22:46Z</time>
      </trkpt>
      <trkpt lat="47.13146" lon="-1.75263">
        <ele>19</ele>
        <time>2010-08-13T13:22:51Z</time>
      </trkpt>
      <trkpt lat="47.1314" lon="-1.75306">
        <ele>19</ele>
        <time>2010-08-13T13:22:56Z</time>
      </trkpt>
      <trkpt lat="47.1313" lon="-1.75347">
        <ele>20</ele>
        <time>2010-08-13T13:23:01Z</time>
      </trkpt>
      <trkpt lat="47.13124" lon="-1.75378">
        <ele>21</ele>
        <time>2010-08-13T13:23:06Z</time>
      </trkpt>
      <trkpt lat="47.13115" lon="-1.75414">
        <ele>21</ele>
        <time>2010-08-13T13:23:11Z</time>
      </trkpt>
      <trkpt lat="47.13113" lon="-1.75442">
        <ele>22</ele>
        <time>2010-08-13T13:23:16Z</time>
      </trkpt>
      <trkpt lat="47.13104" lon="-1.75478">
        <ele>22</ele>
        <time>2010-08-13T13:23:21Z</time>
      </trkpt>
      <trkpt lat="47.13102" lon="-1.75512">
        <ele>22</ele>
        <time>2010-08-13T13:23:26Z</time>
      </trkpt>
      <trkpt lat="47.13095" lon="-1.75551">
        <ele>23</ele>
        <time>2010-08-13T13:23:31Z</time>
      </trkpt>
      <trkpt lat="47.13089" lon="-1.75591">
        <ele>23</ele>
        <time>2010-08-13T13:23:36Z</time>
      </trkpt>
      <trkpt lat="47.13078" lon="-1.75644">
        <ele>24</ele>
        <time>2010-08-13T13:23:41Z</time>
      </trkpt>
      <trkpt lat="47.13069" lon="-1.75691">
        <ele>26</ele>
        <time>2010-08-13T13:23:46Z</time>
      </trkpt>
      <trkpt lat="47.1306" lon="-1.75726">
        <ele>26</ele>
        <time>2010-08-13T13:23:51Z</time>
      </trkpt>
      <trkpt lat="47.13041" lon="-1.75765">
        <ele>27</ele>
        <time>2010-08-13T13:23:56Z</time>
      </trkpt>
      <trkpt lat="47.13014" lon="-1.75805">
        <ele>28</ele>
        <time>2010-08-13T13:24:01Z</time>
      </trkpt>
      <trkpt lat="47.1299" lon="-1.7584">
        <ele>29</ele>
        <time>2010-08-13T13:24:06Z</time>
      </trkpt>
      <trkpt lat="47.1297" lon="-1.75868">
        <ele>29</ele>
        <time>2010-08-13T13:24:11Z</time>
      </trkpt>
      <trkpt lat="47.12945" lon="-1.75904">
        <ele>29</ele>
        <time>2010-08-13T13:24:16Z</time>
      </trkpt>
      <trkpt lat="47.1292" lon="-1.7594">
        <ele>29</ele>
        <time>2010-08-13T13:24:21Z</time>
      </trkpt>
      <trkpt lat="47.1289" lon="-1.75983">
        <ele>30</ele>
        <time>2010-08-13T13:24:26Z</time>
      </trkpt>
      <trkpt lat="47.12864" lon="-1.76019">
        <ele>30</ele>
        <time>2010-08-13T13:24:31Z</time>
      </trkpt>
      <trkpt lat="47.12842" lon="-1.76046">
        <ele>31</ele>
        <time>2010-08-13T13:24:36Z</time>
      </trkpt>
      <trkpt lat="47.12813" lon="-1.7608">
        <ele>30</ele>
        <time>2010-08-13T13:24:41Z</time>
      </trkpt>
      <trkpt lat="47.12778" lon="-1.76119">
        <ele>31</ele>
        <time>2010-08-13T13:24:46Z</time>
      </trkpt>
      <trkpt lat="47.12748" lon="-1.76153">
        <ele>30</ele>
        <time>2010-08-13T13:24:51Z</time>
      </trkpt>
      <trkpt lat="47.12716" lon="-1.76185">
        <ele>29</ele>
        <time>2010-08-13T13:24:56Z</time>
      </trkpt>
      <trkpt lat="47.12688" lon="-1.76207">
        <ele>29</ele>
        <time>2010-08-13T13:25:01Z</time>
      </trkpt>
      <trkpt lat="47.12642" lon="-1.76236">
        <ele>27</ele>
        <time>2010-08-13T13:25:06Z</time>
      </trkpt>
      <trkpt lat="47.12601" lon="-1.76259">
        <ele>27</ele>
        <time>2010-08-13T13:25:11Z</time>
      </trkpt>
      <trkpt lat="47.12559" lon="-1.76282">
        <ele>27</ele>
        <time>2010-08-13T13:25:16Z</time>
      </trkpt>
      <trkpt lat="47.12523" lon="-1.76303">
        <ele>27</ele>
        <time>2010-08-13T13:25:21Z</time>
      </trkpt>
      <trkpt lat="47.12479" lon="-1.7633">
        <ele>26</ele>
        <time>2010-08-13T13:25:26Z</time>
      </trkpt>
      <trkpt lat="47.12427" lon="-1.7636">
        <ele>25</ele>
        <time>2010-08-13T13:25:31Z</time>
      </trkpt>
      <trkpt lat="47.12384" lon="-1.76385">
        <ele>24</ele>
        <time>2010-08-13T13:25:36Z</time>
      </trkpt>
      <trkpt lat="47.12341" lon="-1.76406">
        <ele>23</ele>
        <time>2010-08-13T13:25:41Z</time>
      </trkpt>
      <trkpt lat="47.12306" lon="-1.7642">
        <ele>22</ele>
        <time>2010-08-13T13:25:46Z</time>
      </trkpt>
      <trkpt lat="47.12263" lon="-1.76435">
        <ele>21</ele>
        <time>2010-08-13T13:25:51Z</time>
      </trkpt>
      <trkpt lat="47.12209" lon="-1.76453">
        <ele>21</ele>
        <time>2010-08-13T13:25:56Z</time>
      </trkpt>
      <trkpt lat="47.12166" lon="-1.76469">
        <ele>20</ele>
        <time>2010-08-13T13:26:01Z</time>
      </trkpt>
      <trkpt lat="47.12131" lon="-1.76485">
        <ele>20</ele>
        <time>2010-08-13T13:26:06Z</time>
      </trkpt>
      <trkpt lat="47.12089" lon="-1.76509">
        <ele>21</ele>
        <time>2010-08-13T13:26:11Z</time>
      </trkpt>
      <trkpt lat="47.1204" lon="-1.76536">
        <ele>21</ele>
        <time>2010-08-13T13:26:16Z</time>
      </trkpt>
      <trkpt lat="47.12004" lon="-1.76565">
        <ele>21</ele>
        <time>2010-08-13T13:26:21Z</time>
      </trkpt>
      <trkpt lat="47.11968" lon="-1.76597">
        <ele>20</ele>
        <time>2010-08-13T13:26:26Z</time>
      </trkpt>
      <trkpt lat="47.11939" lon="-1.76623">
        <ele>19</ele>
        <time>2010-08-13T13:26:31Z</time>
      </trkpt>
      <trkpt lat="47.11903" lon="-1.76659">
        <ele>17</ele>
        <time>2010-08-13T13:26:36Z</time>
      </trkpt>
      <trkpt lat="47.11861" lon="-1.76703">
        <ele>18</ele>
        <time>2010-08-13T13:26:41Z</time>
      </trkpt>
      <trkpt lat="47.11827" lon="-1.76741">
        <ele>19</ele>
        <time>2010-08-13T13:26:46Z</time>
      </trkpt>
      <trkpt lat="47.118" lon="-1.76771">
        <ele>19</ele>
        <time>2010-08-13T13:26:51Z</time>
      </trkpt>
      <trkpt lat="47.11766" lon="-1.76811">
        <ele>19</ele>
        <time>2010-08-13T13:26:56Z</time>
      </trkpt>
      <trkpt lat="47.11733" lon="-1.76854">
        <ele>18</ele>
        <time>2010-08-13T13:27:01Z</time>
      </trkpt>
      <trkpt lat="47.11702" lon="-1.76904">
        <ele>17</ele>
        <time>2010-08-13T13:27:06Z</time>
      </trkpt>
      <trkpt lat="47.11671" lon="-1.76968">
        <ele>17</ele>
        <time>2010-08-13T13:27:11Z</time>
      </trkpt>
      <trkpt lat="47.11653" lon="-1.7701">
        <ele>17</ele>
        <time>2010-08-13T13:27:16Z</time>
      </trkpt>
      <trkpt lat="47.11631" lon="-1.7706">
        <ele>17</ele>
        <time>2010-08-13T13:27:21Z</time>
      </trkpt>
      <trkpt lat="47.11611" lon="-1.77127">
        <ele>18</ele>
        <time>2010-08-13T13:27:26Z</time>
      </trkpt>
      <trkpt lat="47.11594" lon="-1.77179">
        <ele>20</ele>
        <time>2010-08-13T13:27:31Z</time>
      </trkpt>
      <trkpt lat="47.11581" lon="-1.77218">
        <ele>20</ele>
        <time>2010-08-13T13:27:36Z</time>
      </trkpt>
      <trkpt lat="47.11566" lon="-1.77266">
        <ele>21</ele>
        <time>2010-08-13T13:27:41Z</time>
      </trkpt>
      <trkpt lat="47.11551" lon="-1.77311">
        <ele>21</ele>
        <time>2010-08-13T13:27:46Z</time>
      </trkpt>
      <trkpt lat="47.11535" lon="-1.77364">
        <ele>22</ele>
        <time>2010-08-13T13:27:51Z</time>
      </trkpt>
      <trkpt lat="47.11521" lon="-1.77406">
        <ele>22</ele>
        <time>2010-08-13T13:27:56Z</time>
      </trkpt>
      <trkpt lat="47.1151" lon="-1.7744">
        <ele>22</ele>
        <time>2010-08-13T13:28:01Z</time>
      </trkpt>
      <trkpt lat="47.11494" lon="-1.77483">
        <ele>23</ele>
        <time>2010-08-13T13:28:06Z</time>
      </trkpt>
      <trkpt lat="47.11472" lon="-1.77533">
        <ele>23</ele>
        <time>2010-08-13T13:28:11Z</time>
      </trkpt>
      <trkpt lat="47.1145" lon="-1.77576">
        <ele>22</ele>
        <time>2010-08-13T13:28:16Z</time>
      </trkpt>
      <trkpt lat="47.11427" lon="-1.77624">
        <ele>20</ele>
        <time>2010-08-13T13:28:21Z</time>
      </trkpt>
      <trkpt lat="47.11407" lon="-1.77664">
        <ele>19</ele>
        <time>2010-08-13T13:28:26Z</time>
      </trkpt>
      <trkpt lat="47.1138" lon="-1.77717">
        <ele>18</ele>
        <time>2010-08-13T13:28:31Z</time>
      </trkpt>
      <trkpt lat="47.11346" lon="-1.77783">
        <ele>16</ele>
        <time>2010-08-13T13:28:36Z</time>
      </trkpt>
      <trkpt lat="47.11317" lon="-1.77832">
        <ele>16</ele>
        <time>2010-08-13T13:28:41Z</time>
      </trkpt>
      <trkpt lat="47.11292" lon="-1.77868">
        <ele>15</ele>
        <time>2010-08-13T13:28:46Z</time>
      </trkpt>
      <trkpt lat="47.1126" lon="-1.77913">
        <ele>15</ele>
        <time>2010-08-13T13:28:51Z</time>
      </trkpt>
      <trkpt lat="47.11222" lon="-1.77967">
        <ele>14</ele>
        <time>2010-08-13T13:28:56Z</time>
      </trkpt>
      <trkpt lat="47.11189" lon="-1.78009">
        <ele>14</ele>
        <time>2010-08-13T13:29:01Z</time>
      </trkpt>
      <trkpt lat="47.11159" lon="-1.78054">
        <ele>15</ele>
        <time>2010-08-13T13:29:06Z</time>
      </trkpt>
      <trkpt lat="47.11135" lon="-1.78091">
        <ele>14</ele>
        <time>2010-08-13T13:29:11Z</time>
      </trkpt>
      <trkpt lat="47.11107" lon="-1.7814">
        <ele>14</ele>
        <time>2010-08-13T13:29:16Z</time>
      </trkpt>
      <trkpt lat="47.1108" lon="-1.78203">
        <ele>13</ele>
        <time>2010-08-13T13:29:21Z</time>
      </trkpt>
      <trkpt lat="47.11061" lon="-1.78258">
        <ele>12</ele>
        <time>2010-08-13T13:29:26Z</time>
      </trkpt>
      <trkpt lat="47.11048" lon="-1.78303">
        <ele>12</ele>
        <time>2010-08-13T13:29:31Z</time>
      </trkpt>
      <trkpt lat="47.11032" lon="-1.78363">
        <ele>12</ele>
        <time>2010-08-13T13:29:36Z</time>
      </trkpt>
      <trkpt lat="47.11015" lon="-1.78427">
        <ele>11</ele>
        <time>2010-08-13T13:29:41Z</time>
      </trkpt>
      <trkpt lat="47.10989" lon="-1.78505">
        <ele>10</ele>
        <time>2010-08-13T13:29:46Z</time>
      </trkpt>
      <trkpt lat="47.10961" lon="-1.78566">
        <ele>9</ele>
        <time>2010-08-13T13:29:51Z</time>
      </trkpt>
      <trkpt lat="47.10935" lon="-1.78609">
        <ele>9</ele>
        <time>2010-08-13T13:29:56Z</time>
      </trkpt>
      <trkpt lat="47.10902" lon="-1.78655">
        <ele>9</ele>
        <time>2010-08-13T13:30:01Z</time>
      </trkpt>
      <trkpt lat="47.1086" lon="-1.78702">
        <ele>10</ele>
        <time>2010-08-13T13:30:06Z</time>
      </trkpt>
      <trkpt lat="47.10825" lon="-1.78737">
        <ele>10</ele>
        <time>2010-08-13T13:30:11Z</time>
      </trkpt>
      <trkpt lat="47.10799" lon="-1.78763">
        <ele>12</ele>
        <time>2010-08-13T13:30:16Z</time>
      </trkpt>
      <trkpt lat="47.1077" lon="-1.78793">
        <ele>12</ele>
        <time>2010-08-13T13:30:21Z</time>
      </trkpt>
      <trkpt lat="47.10737" lon="-1.78828">
        <ele>13</ele>
        <time>2010-08-13T13:30:26Z</time>
      </trkpt>
      <trkpt lat="47.10711" lon="-1.78861">
        <ele>13</ele>
        <time>2010-08-13T13:30:31Z</time>
      </trkpt>
      <trkpt lat="47.10688" lon="-1.78891">
        <ele>13</ele>
        <time>2010-08-13T13:30:36Z</time>
      </trkpt>
      <trkpt lat="47.10666" lon="-1.78915">
        <ele>13</ele>
        <time>2010-08-13T13:30:41Z</time>
      </trkpt>
      <trkpt lat="47.10636" lon="-1.78949">
        <ele>12</ele>
        <time>2010-08-13T13:30:46Z</time>
      </trkpt>
      <trkpt lat="47.10594" lon="-1.78994">
        <ele>11</ele>
        <time>2010-08-13T13:30:51Z</time>
      </trkpt>
      <trkpt lat="47.1056" lon="-1.79033">
        <ele>10</ele>
        <time>2010-08-13T13:30:56Z</time>
      </trkpt>
      <trkpt lat="47.10536" lon="-1.7907">
        <ele>11</ele>
        <time>2010-08-13T13:31:01Z</time>
      </trkpt>
      <trkpt lat="47.10517" lon="-1.79119">
        <ele>11</ele>
        <time>2010-08-13T13:31:06Z</time>
      </trkpt>
      <trkpt lat="47.10496" lon="-1.79175">
        <ele>13</ele>
        <time>2010-08-13T13:31:11Z</time>
      </trkpt>
      <trkpt lat="47.1048" lon="-1.79218">
        <ele>14</ele>
        <time>2010-08-13T13:31:16Z</time>
      </trkpt>
      <trkpt lat="47.10464" lon="-1.79261">
        <ele>13</ele>
        <time>2010-08-13T13:31:21Z</time>
      </trkpt>
      <trkpt lat="47.10451" lon="-1.79293">
        <ele>13</ele>
        <time>2010-08-13T13:31:26Z</time>
      </trkpt>
      <trkpt lat="47.10434" lon="-1.79336">
        <ele>13</ele>
        <time>2010-08-13T13:31:31Z</time>
      </trkpt>
      <trkpt lat="47.1042" lon="-1.79376">
        <ele>13</ele>
        <time>2010-08-13T13:31:36Z</time>
      </trkpt>
      <trkpt lat="47.10408" lon="-1.79415">
        <ele>14</ele>
        <time>2010-08-13T13:31:41Z</time>
      </trkpt>
      <trkpt lat="47.10395" lon="-1.79465">
        <ele>15</ele>
        <time>2010-08-13T13:31:46Z</time>
      </trkpt>
      <trkpt lat="47.10388" lon="-1.79499">
        <ele>16</ele>
        <time>2010-08-13T13:31:51Z</time>
      </trkpt>
      <trkpt lat="47.10382" lon="-1.79554">
        <ele>17</ele>
        <time>2010-08-13T13:31:56Z</time>
      </trkpt>
      <trkpt lat="47.10379" lon="-1.79599">
        <ele>17</ele>
        <time>2010-08-13T13:32:01Z</time>
      </trkpt>
      <trkpt lat="47.10377" lon="-1.79645">
        <ele>17</ele>
        <time>2010-08-13T13:32:06Z</time>
      </trkpt>
      <trkpt lat="47.10373" lon="-1.79681">
        <ele>17</ele>
        <time>2010-08-13T13:32:11Z</time>
      </trkpt>
      <trkpt lat="47.10364" lon="-1.79725">
        <ele>17</ele>
        <time>2010-08-13T13:32:16Z</time>
      </trkpt>
      <trkpt lat="47.10355" lon="-1.79771">
        <ele>17</ele>
        <time>2010-08-13T13:32:21Z</time>
      </trkpt>
      <trkpt lat="47.10344" lon="-1.79825">
        <ele>18</ele>
        <time>2010-08-13T13:32:26Z</time>
      </trkpt>
      <trkpt lat="47.10336" lon="-1.79869">
        <ele>18</ele>
        <time>2010-08-13T13:32:31Z</time>
      </trkpt>
      <trkpt lat="47.10328" lon="-1.79903">
        <ele>19</ele>
        <time>2010-08-13T13:32:36Z</time>
      </trkpt>
      <trkpt lat="47.10318" lon="-1.79947">
        <ele>20</ele>
        <time>2010-08-13T13:32:41Z</time>
      </trkpt>
      <trkpt lat="47.10314" lon="-1.8">
        <ele>20</ele>
        <time>2010-08-13T13:32:46Z</time>
      </trkpt>
      <trkpt lat="47.10313" lon="-1.80049">
        <ele>21</ele>
        <time>2010-08-13T13:32:51Z</time>
      </trkpt>
      <trkpt lat="47.10313" lon="-1.80087">
        <ele>21</ele>
        <time>2010-08-13T13:32:56Z</time>
      </trkpt>
      <trkpt lat="47.10317" lon="-1.80133">
        <ele>21</ele>
        <time>2010-08-13T13:33:01Z</time>
      </trkpt>
      <trkpt lat="47.10321" lon="-1.8018">
        <ele>20</ele>
        <time>2010-08-13T13:33:06Z</time>
      </trkpt>
      <trkpt lat="47.10322" lon="-1.80238">
        <ele>20</ele>
        <time>2010-08-13T13:33:11Z</time>
      </trkpt>
      <trkpt lat="47.10322" lon="-1.80288">
        <ele>20</ele>
        <time>2010-08-13T13:33:16Z</time>
      </trkpt>
      <trkpt lat="47.10325" lon="-1.80329">
        <ele>20</ele>
        <time>2010-08-13T13:33:21Z</time>
      </trkpt>
      <trkpt lat="47.10329" lon="-1.80379">
        <ele>20</ele>
        <time>2010-08-13T13:33:26Z</time>
      </trkpt>
      <trkpt lat="47.10333" lon="-1.80442">
        <ele>19</ele>
        <time>2010-08-13T13:33:31Z</time>
      </trkpt>
      <trkpt lat="47.10339" lon="-1.80494">
        <ele>18</ele>
        <time>2010-08-13T13:33:36Z</time>
      </trkpt>
      <trkpt lat="47.10345" lon="-1.80539">
        <ele>18</ele>
        <time>2010-08-13T13:33:41Z</time>
      </trkpt>
      <trkpt lat="47.1035" lon="-1.80594">
        <ele>17</ele>
        <time>2010-08-13T13:33:46Z</time>
      </trkpt>
      <trkpt lat="47.1035" lon="-1.8065">
        <ele>18</ele>
        <time>2010-08-13T13:33:51Z</time>
      </trkpt>
      <trkpt lat="47.10352" lon="-1.80722">
        <ele>17</ele>
        <time>2010-08-13T13:33:56Z</time>
      </trkpt>
      <trkpt lat="47.10353" lon="-1.80787">
        <ele>15</ele>
        <time>2010-08-13T13:34:01Z</time>
      </trkpt>
      <trkpt lat="47.10354" lon="-1.8084">
        <ele>14</ele>
        <time>2010-08-13T13:34:06Z</time>
      </trkpt>
      <trkpt lat="47.10352" lon="-1.809">
        <ele>14</ele>
        <time>2010-08-13T13:34:11Z</time>
      </trkpt>
      <trkpt lat="47.10365" lon="-1.80959">
        <ele>15</ele>
        <time>2010-08-13T13:34:16Z</time>
      </trkpt>
      <trkpt lat="47.1037" lon="-1.81005">
        <ele>17</ele>
        <time>2010-08-13T13:34:21Z</time>
      </trkpt>
      <trkpt lat="47.10356" lon="-1.81041">
        <ele>17</ele>
        <time>2010-08-13T13:34:26Z</time>
      </trkpt>
      <trkpt lat="47.1034" lon="-1.81065">
        <ele>18</ele>
        <time>2010-08-13T13:34:31Z</time>
      </trkpt>
      <trkpt lat="47.1031" lon="-1.81096">
        <ele>17</ele>
        <time>2010-08-13T13:34:36Z</time>
      </trkpt>
      <trkpt lat="47.10273" lon="-1.81129">
        <ele>16</ele>
        <time>2010-08-13T13:34:41Z</time>
      </trkpt>
      <trkpt lat="47.10242" lon="-1.81159">
        <ele>14</ele>
        <time>2010-08-13T13:34:46Z</time>
      </trkpt>
      <trkpt lat="47.10215" lon="-1.81184">
        <ele>14</ele>
        <time>2010-08-13T13:34:51Z</time>
      </trkpt>
      <trkpt lat="47.10179" lon="-1.81216">
        <ele>13</ele>
        <time>2010-08-13T13:34:56Z</time>
      </trkpt>
      <trkpt lat="47.10138" lon="-1.81245">
        <ele>12</ele>
        <time>2010-08-13T13:35:01Z</time>
      </trkpt>
      <trkpt lat="47.10093" lon="-1.81284">
        <ele>12</ele>
        <time>2010-08-13T13:35:06Z</time>
      </trkpt>
      <trkpt lat="47.10065" lon="-1.81322">
        <ele>11</ele>
        <time>2010-08-13T13:35:11Z</time>
      </trkpt>
      <trkpt lat="47.10043" lon="-1.81354">
        <ele>11</ele>
        <time>2010-08-13T13:35:16Z</time>
      </trkpt>
      <trkpt lat="47.10014" lon="-1.8139">
        <ele>11</ele>
        <time>2010-08-13T13:35:21Z</time>
      </trkpt>
      <trkpt lat="47.09982" lon="-1.81435">
        <ele>13</ele>
        <time>2010-08-13T13:35:26Z</time>
      </trkpt>
      <trkpt lat="47.09958" lon="-1.8147">
        <ele>14</ele>
        <time>2010-08-13T13:35:31Z</time>
      </trkpt>
      <trkpt lat="47.09939" lon="-1.81498">
        <ele>14</ele>
        <time>2010-08-13T13:35:36Z</time>
      </trkpt>
      <trkpt lat="47.0992" lon="-1.81536">
        <ele>15</ele>
        <time>2010-08-13T13:35:41Z</time>
      </trkpt>
      <trkpt lat="47.09899" lon="-1.81589">
        <ele>16</ele>
        <time>2010-08-13T13:35:46Z</time>
      </trkpt>
      <trkpt lat="47.09884" lon="-1.8163">
        <ele>16</ele>
        <time>2010-08-13T13:35:51Z</time>
      </trkpt>
      <trkpt lat="47.09869" lon="-1.81671">
        <ele>17</ele>
        <time>2010-08-13T13:35:56Z</time>
      </trkpt>
      <trkpt lat="47.09856" lon="-1.81704">
        <ele>17</ele>
        <time>2010-08-13T13:36:01Z</time>
      </trkpt>
      <trkpt lat="47.0984" lon="-1.81745">
        <ele>17</ele>
        <time>2010-08-13T13:36:06Z</time>
      </trkpt>
      <trkpt lat="47.09821" lon="-1.81791">
        <ele>17</ele>
        <time>2010-08-13T13:36:11Z</time>
      </trkpt>
      <trkpt lat="47.09804" lon="-1.81828">
        <ele>17</ele>
        <time>2010-08-13T13:36:16Z</time>
      </trkpt>
      <trkpt lat="47.09791" lon="-1.81859">
        <ele>17</ele>
        <time>2010-08-13T13:36:21Z</time>
      </trkpt>
      <trkpt lat="47.09775" lon="-1.81898">
        <ele>17</ele>
        <time>2010-08-13T13:36:26Z</time>
      </trkpt>
      <trkpt lat="47.0976" lon="-1.81941">
        <ele>18</ele>
        <time>2010-08-13T13:36:31Z</time>
      </trkpt>
      <trkpt lat="47.09742" lon="-1.81993">
        <ele>18</ele>
        <time>2010-08-13T13:36:36Z</time>
      </trkpt>
      <trkpt lat="47.09731" lon="-1.82028">
        <ele>18</ele>
        <time>2010-08-13T13:36:41Z</time>
      </trkpt>
      <trkpt lat="47.09717" lon="-1.82071">
        <ele>18</ele>
        <time>2010-08-13T13:36:46Z</time>
      </trkpt>
      <trkpt lat="47.09703" lon="-1.82116">
        <ele>19</ele>
        <time>2010-08-13T13:36:51Z</time>
      </trkpt>
      <trkpt lat="47.09687" lon="-1.82169">
        <ele>19</ele>
        <time>2010-08-13T13:36:56Z</time>
      </trkpt>
      <trkpt lat="47.09671" lon="-1.82212">
        <ele>19</ele>
        <time>2010-08-13T13:37:01Z</time>
      </trkpt>
      <trkpt lat="47.09656" lon="-1.82246">
        <ele>18</ele>
        <time>2010-08-13T13:37:06Z</time>
      </trkpt>
      <trkpt lat="47.09636" lon="-1.82293">
        <ele>17</ele>
        <time>2010-08-13T13:37:11Z</time>
      </trkpt>
      <trkpt lat="47.09615" lon="-1.82342">
        <ele>17</ele>
        <time>2010-08-13T13:37:16Z</time>
      </trkpt>
      <trkpt lat="47.09587" lon="-1.82404">
        <ele>16</ele>
        <time>2010-08-13T13:37:21Z</time>
      </trkpt>
      <trkpt lat="47.09565" lon="-1.82456">
        <ele>16</ele>
        <time>2010-08-13T13:37:26Z</time>
      </trkpt>
      <trkpt lat="47.09547" lon="-1.82499">
        <ele>17</ele>
        <time>2010-08-13T13:37:31Z</time>
      </trkpt>
      <trkpt lat="47.09526" lon="-1.82551">
        <ele>17</ele>
        <time>2010-08-13T13:37:36Z</time>
      </trkpt>
      <trkpt lat="47.09506" lon="-1.82602">
        <ele>17</ele>
        <time>2010-08-13T13:37:41Z</time>
      </trkpt>
      <trkpt lat="47.09483" lon="-1.82657">
        <ele>17</ele>
        <time>2010-08-13T13:37:46Z</time>
      </trkpt>
      <trkpt lat="47.09465" lon="-1.82701">
        <ele>18</ele>
        <time>2010-08-13T13:37:51Z</time>
      </trkpt>
      <trkpt lat="47.0945" lon="-1.82735">
        <ele>18</ele>
        <time>2010-08-13T13:37:56Z</time>
      </trkpt>
      <trkpt lat="47.09427" lon="-1.82786">
        <ele>18</ele>
        <time>2010-08-13T13:38:01Z</time>
      </trkpt>
      <trkpt lat="47.09407" lon="-1.82832">
        <ele>18</ele>
        <time>2010-08-13T13:38:06Z</time>
      </trkpt>
      <trkpt lat="47.09386" lon="-1.82877">
        <ele>17</ele>
        <time>2010-08-13T13:38:11Z</time>
      </trkpt>
      <trkpt lat="47.0937" lon="-1.82918">
        <ele>16</ele>
        <time>2010-08-13T13:38:16Z</time>
      </trkpt>
      <trkpt lat="47.0935" lon="-1.82967">
        <ele>16</ele>
        <time>2010-08-13T13:38:21Z</time>
      </trkpt>
      <trkpt lat="47.09324" lon="-1.83028">
        <ele>17</ele>
        <time>2010-08-13T13:38:26Z</time>
      </trkpt>
      <trkpt lat="47.09303" lon="-1.83081">
        <ele>17</ele>
        <time>2010-08-13T13:38:31Z</time>
      </trkpt>
      <trkpt lat="47.09281" lon="-1.83133">
        <ele>15</ele>
        <time>2010-08-13T13:38:36Z</time>
      </trkpt>
      <trkpt lat="47.09263" lon="-1.83175">
        <ele>14</ele>
        <time>2010-08-13T13:38:41Z</time>
      </trkpt>
      <trkpt lat="47.09242" lon="-1.83226">
        <ele>15</ele>
        <time>2010-08-13T13:38:46Z</time>
      </trkpt>
      <trkpt lat="47.09213" lon="-1.83283">
        <ele>16</ele>
        <time>2010-08-13T13:38:51Z</time>
      </trkpt>
      <trkpt lat="47.09187" lon="-1.83326">
        <ele>16</ele>
        <time>2010-08-13T13:38:56Z</time>
      </trkpt>
      <trkpt lat="47.09163" lon="-1.83357">
        <ele>18</ele>
        <time>2010-08-13T13:39:01Z</time>
      </trkpt>
      <trkpt lat="47.09133" lon="-1.83395">
        <ele>18</ele>
        <time>2010-08-13T13:39:06Z</time>
      </trkpt>
      <trkpt lat="47.09097" lon="-1.83441">
        <ele>16</ele>
        <time>2010-08-13T13:39:11Z</time>
      </trkpt>
      <trkpt lat="47.09065" lon="-1.83476">
        <ele>17</ele>
        <time>2010-08-13T13:39:16Z</time>
      </trkpt>
      <trkpt lat="47.09033" lon="-1.83513">
        <ele>16</ele>
        <time>2010-08-13T13:39:21Z</time>
      </trkpt>
      <trkpt lat="47.09009" lon="-1.83549">
        <ele>15</ele>
        <time>2010-08-13T13:39:26Z</time>
      </trkpt>
      <trkpt lat="47.08981" lon="-1.83599">
        <ele>13</ele>
        <time>2010-08-13T13:39:31Z</time>
      </trkpt>
      <trkpt lat="47.08952" lon="-1.83662">
        <ele>12</ele>
        <time>2010-08-13T13:39:36Z</time>
      </trkpt>
      <trkpt lat="47.08932" lon="-1.83719">
        <ele>11</ele>
        <time>2010-08-13T13:39:41Z</time>
      </trkpt>
      <trkpt lat="47.08919" lon="-1.83768">
        <ele>10</ele>
        <time>2010-08-13T13:39:46Z</time>
      </trkpt>
      <trkpt lat="47.08905" lon="-1.83828">
        <ele>8</ele>
        <time>2010-08-13T13:39:51Z</time>
      </trkpt>
      <trkpt lat="47.08894" lon="-1.83888">
        <ele>8</ele>
        <time>2010-08-13T13:39:56Z</time>
      </trkpt>
      <trkpt lat="47.0888" lon="-1.83955">
        <ele>9</ele>
        <time>2010-08-13T13:40:01Z</time>
      </trkpt>
      <trkpt lat="47.08872" lon="-1.83999">
        <ele>10</ele>
        <time>2010-08-13T13:40:06Z</time>
      </trkpt>
      <trkpt lat="47.08861" lon="-1.84052">
        <ele>11</ele>
        <time>2010-08-13T13:40:11Z</time>
      </trkpt>
      <trkpt lat="47.08852" lon="-1.84104">
        <ele>11</ele>
        <time>2010-08-13T13:40:16Z</time>
      </trkpt>
      <trkpt lat="47.08841" lon="-1.84165">
        <ele>10</ele>
        <time>2010-08-13T13:40:21Z</time>
      </trkpt>
      <trkpt lat="47.08831" lon="-1.84216">
        <ele>11</ele>
        <time>2010-08-13T13:40:26Z</time>
      </trkpt>
      <trkpt lat="47.08823" lon="-1.84257">
        <ele>11</ele>
        <time>2010-08-13T13:40:31Z</time>
      </trkpt>
      <trkpt lat="47.08809" lon="-1.84306">
        <ele>12</ele>
        <time>2010-08-13T13:40:36Z</time>
      </trkpt>
      <trkpt lat="47.08793" lon="-1.84352">
        <ele>12</ele>
        <time>2010-08-13T13:40:41Z</time>
      </trkpt>
      <trkpt lat="47.08772" lon="-1.84405">
        <ele>12</ele>
        <time>2010-08-13T13:40:46Z</time>
      </trkpt>
      <trkpt lat="47.08754" lon="-1.84447">
        <ele>12</ele>
        <time>2010-08-13T13:40:51Z</time>
      </trkpt>
      <trkpt lat="47.0874" lon="-1.84481">
        <ele>11</ele>
        <time>2010-08-13T13:40:56Z</time>
      </trkpt>
      <trkpt lat="47.08723" lon="-1.84525">
        <ele>11</ele>
        <time>2010-08-13T13:41:01Z</time>
      </trkpt>
      <trkpt lat="47.08703" lon="-1.84575">
        <ele>11</ele>
        <time>2010-08-13T13:41:06Z</time>
      </trkpt>
      <trkpt lat="47.08687" lon="-1.84618">
        <ele>11</ele>
        <time>2010-08-13T13:41:11Z</time>
      </trkpt>
      <trkpt lat="47.08672" lon="-1.84663">
        <ele>12</ele>
        <time>2010-08-13T13:41:16Z</time>
      </trkpt>
      <trkpt lat="47.08663" lon="-1.84701">
        <ele>12</ele>
        <time>2010-08-13T13:41:21Z</time>
      </trkpt>
      <trkpt lat="47.0865" lon="-1.84765">
        <ele>13</ele>
        <time>2010-08-13T13:41:26Z</time>
      </trkpt>
      <trkpt lat="47.08642" lon="-1.8482">
        <ele>13</ele>
        <time>2010-08-13T13:41:31Z</time>
      </trkpt>
      <trkpt lat="47.08634" lon="-1.84874">
        <ele>12</ele>
        <time>2010-08-13T13:41:36Z</time>
      </trkpt>
      <trkpt lat="47.08627" lon="-1.84915">
        <ele>13</ele>
        <time>2010-08-13T13:41:41Z</time>
      </trkpt>
      <trkpt lat="47.0862" lon="-1.84966">
        <ele>12</ele>
        <time>2010-08-13T13:41:46Z</time>
      </trkpt>
      <trkpt lat="47.08612" lon="-1.85026">
        <ele>12</ele>
        <time>2010-08-13T13:41:51Z</time>
      </trkpt>
      <trkpt lat="47.08607" lon="-1.85074">
        <ele>13</ele>
        <time>2010-08-13T13:41:56Z</time>
      </trkpt>
      <trkpt lat="47.08603" lon="-1.85122">
        <ele>13</ele>
        <time>2010-08-13T13:42:01Z</time>
      </trkpt>
      <trkpt lat="47.086" lon="-1.8516">
        <ele>14</ele>
        <time>2010-08-13T13:42:06Z</time>
      </trkpt>
      <trkpt lat="47.08598" lon="-1.85208">
        <ele>14</ele>
        <time>2010-08-13T13:42:11Z</time>
      </trkpt>
      <trkpt lat="47.08598" lon="-1.85269">
        <ele>15</ele>
        <time>2010-08-13T13:42:16Z</time>
      </trkpt>
      <trkpt lat="47.08598" lon="-1.85318">
        <ele>15</ele>
        <time>2010-08-13T13:42:21Z</time>
      </trkpt>
      <trkpt lat="47.08598" lon="-1.85357">
        <ele>15</ele>
        <time>2010-08-13T13:42:26Z</time>
      </trkpt>
      <trkpt lat="47.08597" lon="-1.85405">
        <ele>15</ele>
        <time>2010-08-13T13:42:31Z</time>
      </trkpt>
      <trkpt lat="47.08594" lon="-1.85453">
        <ele>16</ele>
        <time>2010-08-13T13:42:36Z</time>
      </trkpt>
      <trkpt lat="47.08586" lon="-1.85508">
        <ele>17</ele>
        <time>2010-08-13T13:42:41Z</time>
      </trkpt>
      <trkpt lat="47.08579" lon="-1.85544">
        <ele>18</ele>
        <time>2010-08-13T13:42:46Z</time>
      </trkpt>
      <trkpt lat="47.08569" lon="-1.85587">
        <ele>19</ele>
        <time>2010-08-13T13:42:51Z</time>
      </trkpt>
      <trkpt lat="47.08556" lon="-1.85628">
        <ele>19</ele>
        <time>2010-08-13T13:42:56Z</time>
      </trkpt>
      <trkpt lat="47.08541" lon="-1.85668">
        <ele>19</ele>
        <time>2010-08-13T13:43:01Z</time>
      </trkpt>
      <trkpt lat="47.08522" lon="-1.85715">
        <ele>19</ele>
        <time>2010-08-13T13:43:06Z</time>
      </trkpt>
      <trkpt lat="47.08508" lon="-1.85746">
        <ele>19</ele>
        <time>2010-08-13T13:43:11Z</time>
      </trkpt>
      <trkpt lat="47.08489" lon="-1.85785">
        <ele>20</ele>
        <time>2010-08-13T13:43:16Z</time>
      </trkpt>
      <trkpt lat="47.08472" lon="-1.85823">
        <ele>20</ele>
        <time>2010-08-13T13:43:21Z</time>
      </trkpt>
      <trkpt lat="47.08451" lon="-1.85868">
        <ele>21</ele>
        <time>2010-08-13T13:43:26Z</time>
      </trkpt>
      <trkpt lat="47.08432" lon="-1.85904">
        <ele>21</ele>
        <time>2010-08-13T13:43:31Z</time>
      </trkpt>
      <trkpt lat="47.08417" lon="-1.85933">
        <ele>22</ele>
        <time>2010-08-13T13:43:36Z</time>
      </trkpt>
      <trkpt lat="47.08397" lon="-1.85969">
        <ele>23</ele>
        <time>2010-08-13T13:43:41Z</time>
      </trkpt>
      <trkpt lat="47.08373" lon="-1.8601">
        <ele>23</ele>
        <time>2010-08-13T13:43:46Z</time>
      </trkpt>
      <trkpt lat="47.08352" lon="-1.86045">
        <ele>23</ele>
        <time>2010-08-13T13:43:51Z</time>
      </trkpt>
      <trkpt lat="47.08331" lon="-1.86081">
        <ele>24</ele>
        <time>2010-08-13T13:43:56Z</time>
      </trkpt>
      <trkpt lat="47.08315" lon="-1.8611">
        <ele>24</ele>
        <time>2010-08-13T13:44:01Z</time>
      </trkpt>
      <trkpt lat="47.08293" lon="-1.86157">
        <ele>24</ele>
        <time>2010-08-13T13:44:06Z</time>
      </trkpt>
      <trkpt lat="47.08275" lon="-1.86199">
        <ele>24</ele>
        <time>2010-08-13T13:44:11Z</time>
      </trkpt>
      <trkpt lat="47.08257" lon="-1.86242">
        <ele>25</ele>
        <time>2010-08-13T13:44:16Z</time>
      </trkpt>
      <trkpt lat="47.08243" lon="-1.86277">
        <ele>24</ele>
        <time>2010-08-13T13:44:21Z</time>
      </trkpt>
      <trkpt lat="47.08223" lon="-1.86322">
        <ele>24</ele>
        <time>2010-08-13T13:44:26Z</time>
      </trkpt>
      <trkpt lat="47.08199" lon="-1.8638">
        <ele>23</ele>
        <time>2010-08-13T13:44:31Z</time>
      </trkpt>
      <trkpt lat="47.08178" lon="-1.8643">
        <ele>21</ele>
        <time>2010-08-13T13:44:36Z</time>
      </trkpt>
      <trkpt lat="47.08158" lon="-1.8648">
        <ele>21</ele>
        <time>2010-08-13T13:44:41Z</time>
      </trkpt>
      <trkpt lat="47.08141" lon="-1.86519">
        <ele>21</ele>
        <time>2010-08-13T13:44:46Z</time>
      </trkpt>
      <trkpt lat="47.08117" lon="-1.86577">
        <ele>21</ele>
        <time>2010-08-13T13:44:51Z</time>
      </trkpt>
      <trkpt lat="47.08098" lon="-1.86624">
        <ele>21</ele>
        <time>2010-08-13T13:44:56Z</time>
      </trkpt>
      <trkpt lat="47.08078" lon="-1.86671">
        <ele>21</ele>
        <time>2010-08-13T13:45:01Z</time>
      </trkpt>
      <trkpt lat="47.08063" lon="-1.86708">
        <ele>22</ele>
        <time>2010-08-13T13:45:06Z</time>
      </trkpt>
      <trkpt lat="47.08044" lon="-1.86755">
        <ele>22</ele>
        <time>2010-08-13T13:45:11Z</time>
      </trkpt>
      <trkpt lat="47.08025" lon="-1.86803">
        <ele>22</ele>
        <time>2010-08-13T13:45:16Z</time>
      </trkpt>
      <trkpt lat="47.08003" lon="-1.86861">
        <ele>23</ele>
        <time>2010-08-13T13:45:21Z</time>
      </trkpt>
      <trkpt lat="47.07985" lon="-1.86909">
        <ele>25</ele>
        <time>2010-08-13T13:45:26Z</time>
      </trkpt>
      <trkpt lat="47.0797" lon="-1.86947">
        <ele>25</ele>
        <time>2010-08-13T13:45:31Z</time>
      </trkpt>
      <trkpt lat="47.07952" lon="-1.86996">
        <ele>25</ele>
        <time>2010-08-13T13:45:36Z</time>
      </trkpt>
      <trkpt lat="47.07933" lon="-1.87045">
        <ele>25</ele>
        <time>2010-08-13T13:45:41Z</time>
      </trkpt>
      <trkpt lat="47.07909" lon="-1.87102">
        <ele>26</ele>
        <time>2010-08-13T13:45:46Z</time>
      </trkpt>
      <trkpt lat="47.07892" lon="-1.87139">
        <ele>26</ele>
        <time>2010-08-13T13:45:51Z</time>
      </trkpt>
      <trkpt lat="47.0787" lon="-1.87184">
        <ele>26</ele>
        <time>2010-08-13T13:45:56Z</time>
      </trkpt>
      <trkpt lat="47.07846" lon="-1.87228">
        <ele>27</ele>
        <time>2010-08-13T13:46:01Z</time>
      </trkpt>
      <trkpt lat="47.07815" lon="-1.87279">
        <ele>27</ele>
        <time>2010-08-13T13:46:06Z</time>
      </trkpt>
      <trkpt lat="47.07794" lon="-1.87312">
        <ele>27</ele>
        <time>2010-08-13T13:46:11Z</time>
      </trkpt>
      <trkpt lat="47.07766" lon="-1.8735">
        <ele>26</ele>
        <time>2010-08-13T13:46:16Z</time>
      </trkpt>
      <trkpt lat="47.07739" lon="-1.87391">
        <ele>26</ele>
        <time>2010-08-13T13:46:21Z</time>
      </trkpt>
      <trkpt lat="47.0771" lon="-1.87444">
        <ele>25</ele>
        <time>2010-08-13T13:46:26Z</time>
      </trkpt>
      <trkpt lat="47.07687" lon="-1.87494">
        <ele>25</ele>
        <time>2010-08-13T13:46:31Z</time>
      </trkpt>
      <trkpt lat="47.07672" lon="-1.87537">
        <ele>24</ele>
        <time>2010-08-13T13:46:36Z</time>
      </trkpt>
      <trkpt lat="47.07657" lon="-1.87594">
        <ele>23</ele>
        <time>2010-08-13T13:46:41Z</time>
      </trkpt>
      <trkpt lat="47.07645" lon="-1.87666">
        <ele>24</ele>
        <time>2010-08-13T13:46:46Z</time>
      </trkpt>
      <trkpt lat="47.07641" lon="-1.87725">
        <ele>23</ele>
        <time>2010-08-13T13:46:51Z</time>
      </trkpt>
      <trkpt lat="47.0764" lon="-1.87781">
        <ele>23</ele>
        <time>2010-08-13T13:46:56Z</time>
      </trkpt>
      <trkpt lat="47.0764" lon="-1.87824">
        <ele>23</ele>
        <time>2010-08-13T13:47:01Z</time>
      </trkpt>
      <trkpt lat="47.07642" lon="-1.87876">
        <ele>24</ele>
        <time>2010-08-13T13:47:06Z</time>
      </trkpt>
      <trkpt lat="47.07644" lon="-1.87935">
        <ele>25</ele>
        <time>2010-08-13T13:47:11Z</time>
      </trkpt>
      <trkpt lat="47.07645" lon="-1.87983">
        <ele>26</ele>
        <time>2010-08-13T13:47:16Z</time>
      </trkpt>
      <trkpt lat="47.07645" lon="-1.88029">
        <ele>26</ele>
        <time>2010-08-13T13:47:21Z</time>
      </trkpt>
      <trkpt lat="47.07644" lon="-1.88066">
        <ele>26</ele>
        <time>2010-08-13T13:47:26Z</time>
      </trkpt>
      <trkpt lat="47.07642" lon="-1.88113">
        <ele>26</ele>
        <time>2010-08-13T13:47:31Z</time>
      </trkpt>
      <trkpt lat="47.0764" lon="-1.88171">
        <ele>26</ele>
        <time>2010-08-13T13:47:36Z</time>
      </trkpt>
      <trkpt lat="47.07636" lon="-1.88219">
        <ele>27</ele>
        <time>2010-08-13T13:47:41Z</time>
      </trkpt>
      <trkpt lat="47.07632" lon="-1.88257">
        <ele>27</ele>
        <time>2010-08-13T13:47:46Z</time>
      </trkpt>
      <trkpt lat="47.07626" lon="-1.88305">
        <ele>27</ele>
        <time>2010-08-13T13:47:51Z</time>
      </trkpt>
      <trkpt lat="47.07619" lon="-1.88354">
        <ele>27</ele>
        <time>2010-08-13T13:47:56Z</time>
      </trkpt>
      <trkpt lat="47.07609" lon="-1.88413">
        <ele>27</ele>
        <time>2010-08-13T13:48:01Z</time>
      </trkpt>
      <trkpt lat="47.07601" lon="-1.88465">
        <ele>26</ele>
        <time>2010-08-13T13:48:06Z</time>
      </trkpt>
      <trkpt lat="47.07592" lon="-1.88506">
        <ele>26</ele>
        <time>2010-08-13T13:48:11Z</time>
      </trkpt>
      <trkpt lat="47.07581" lon="-1.88557">
        <ele>26</ele>
        <time>2010-08-13T13:48:16Z</time>
      </trkpt>
      <trkpt lat="47.07565" lon="-1.88617">
        <ele>26</ele>
        <time>2010-08-13T13:48:21Z</time>
      </trkpt>
      <trkpt lat="47.07552" lon="-1.88666">
        <ele>25</ele>
        <time>2010-08-13T13:48:26Z</time>
      </trkpt>
      <trkpt lat="47.07541" lon="-1.88705">
        <ele>26</ele>
        <time>2010-08-13T13:48:31Z</time>
      </trkpt>
      <trkpt lat="47.07527" lon="-1.88754">
        <ele>26</ele>
        <time>2010-08-13T13:48:36Z</time>
      </trkpt>
      <trkpt lat="47.0751" lon="-1.88813">
        <ele>26</ele>
        <time>2010-08-13T13:48:41Z</time>
      </trkpt>
      <trkpt lat="47.07495" lon="-1.88861">
        <ele>26</ele>
        <time>2010-08-13T13:48:46Z</time>
      </trkpt>
      <trkpt lat="47.07479" lon="-1.8891">
        <ele>26</ele>
        <time>2010-08-13T13:48:51Z</time>
      </trkpt>
      <trkpt lat="47.07467" lon="-1.8895">
        <ele>27</ele>
        <time>2010-08-13T13:48:56Z</time>
      </trkpt>
      <trkpt lat="47.07449" lon="-1.88997">
        <ele>27</ele>
        <time>2010-08-13T13:49:01Z</time>
      </trkpt>
      <trkpt lat="47.07429" lon="-1.89056">
        <ele>27</ele>
        <time>2010-08-13T13:49:06Z</time>
      </trkpt>
      <trkpt lat="47.07414" lon="-1.89104">
        <ele>28</ele>
        <time>2010-08-13T13:49:11Z</time>
      </trkpt>
      <trkpt lat="47.07402" lon="-1.89143">
        <ele>27</ele>
        <time>2010-08-13T13:49:16Z</time>
      </trkpt>
      <trkpt lat="47.07389" lon="-1.89193">
        <ele>27</ele>
        <time>2010-08-13T13:49:21Z</time>
      </trkpt>
      <trkpt lat="47.07376" lon="-1.89243">
        <ele>27</ele>
        <time>2010-08-13T13:49:26Z</time>
      </trkpt>
      <trkpt lat="47.07359" lon="-1.89303">
        <ele>28</ele>
        <time>2010-08-13T13:49:31Z</time>
      </trkpt>
      <trkpt lat="47.07347" lon="-1.89345">
        <ele>28</ele>
        <time>2010-08-13T13:49:36Z</time>
      </trkpt>
      <trkpt lat="47.07331" lon="-1.89396">
        <ele>27</ele>
        <time>2010-08-13T13:49:41Z</time>
      </trkpt>
      <trkpt lat="47.07315" lon="-1.89446">
        <ele>27</ele>
        <time>2010-08-13T13:49:46Z</time>
      </trkpt>
      <trkpt lat="47.07295" lon="-1.89506">
        <ele>26</ele>
        <time>2010-08-13T13:49:51Z</time>
      </trkpt>
      <trkpt lat="47.07276" lon="-1.89557">
        <ele>26</ele>
        <time>2010-08-13T13:49:56Z</time>
      </trkpt>
      <trkpt lat="47.07261" lon="-1.89597">
        <ele>26</ele>
        <time>2010-08-13T13:50:01Z</time>
      </trkpt>
      <trkpt lat="47.07242" lon="-1.8965">
        <ele>25</ele>
        <time>2010-08-13T13:50:06Z</time>
      </trkpt>
      <trkpt lat="47.0722" lon="-1.89705">
        <ele>25</ele>
        <time>2010-08-13T13:50:11Z</time>
      </trkpt>
      <trkpt lat="47.07195" lon="-1.89774">
        <ele>24</ele>
        <time>2010-08-13T13:50:16Z</time>
      </trkpt>
      <trkpt lat="47.07173" lon="-1.89833">
        <ele>22</ele>
        <time>2010-08-13T13:50:21Z</time>
      </trkpt>
      <trkpt lat="47.07155" lon="-1.89881">
        <ele>21</ele>
        <time>2010-08-13T13:50:26Z</time>
      </trkpt>
      <trkpt lat="47.07133" lon="-1.89941">
        <ele>21</ele>
        <time>2010-08-13T13:50:31Z</time>
      </trkpt>
      <trkpt lat="47.07107" lon="-1.9001">
        <ele>21</ele>
        <time>2010-08-13T13:50:36Z</time>
      </trkpt>
      <trkpt lat="47.07087" lon="-1.90063">
        <ele>21</ele>
        <time>2010-08-13T13:50:41Z</time>
      </trkpt>
      <trkpt lat="47.07067" lon="-1.90114">
        <ele>22</ele>
        <time>2010-08-13T13:50:46Z</time>
      </trkpt>
      <trkpt lat="47.07051" lon="-1.90151">
        <ele>22</ele>
        <time>2010-08-13T13:50:51Z</time>
      </trkpt>
      <trkpt lat="47.07031" lon="-1.90197">
        <ele>23</ele>
        <time>2010-08-13T13:50:56Z</time>
      </trkpt>
      <trkpt lat="47.07006" lon="-1.90253">
        <ele>24</ele>
        <time>2010-08-13T13:51:01Z</time>
      </trkpt>
      <trkpt lat="47.06986" lon="-1.90297">
        <ele>24</ele>
        <time>2010-08-13T13:51:06Z</time>
      </trkpt>
      <trkpt lat="47.0697" lon="-1.90332">
        <ele>24</ele>
        <time>2010-08-13T13:51:11Z</time>
      </trkpt>
      <trkpt lat="47.0695" lon="-1.90375">
        <ele>23</ele>
        <time>2010-08-13T13:51:16Z</time>
      </trkpt>
      <trkpt lat="47.06925" lon="-1.90427">
        <ele>23</ele>
        <time>2010-08-13T13:51:21Z</time>
      </trkpt>
      <trkpt lat="47.06905" lon="-1.90469">
        <ele>23</ele>
        <time>2010-08-13T13:51:26Z</time>
      </trkpt>
      <trkpt lat="47.06884" lon="-1.90513">
        <ele>22</ele>
        <time>2010-08-13T13:51:31Z</time>
      </trkpt>
      <trkpt lat="47.06867" lon="-1.90549">
        <ele>22</ele>
        <time>2010-08-13T13:51:36Z</time>
      </trkpt>
      <trkpt lat="47.06844" lon="-1.90594">
        <ele>21</ele>
        <time>2010-08-13T13:51:41Z</time>
      </trkpt>
      <trkpt lat="47.06815" lon="-1.90644">
        <ele>22</ele>
        <time>2010-08-13T13:51:46Z</time>
      </trkpt>
      <trkpt lat="47.0679" lon="-1.90684">
        <ele>22</ele>
        <time>2010-08-13T13:51:51Z</time>
      </trkpt>
      <trkpt lat="47.0677" lon="-1.90714">
        <ele>22</ele>
        <time>2010-08-13T13:51:56Z</time>
      </trkpt>
      <trkpt lat="47.06744" lon="-1.90751">
        <ele>22</ele>
        <time>2010-08-13T13:52:01Z</time>
      </trkpt>
      <trkpt lat="47.06718" lon="-1.90787">
        <ele>23</ele>
        <time>2010-08-13T13:52:06Z</time>
      </trkpt>
      <trkpt lat="47.06687" lon="-1.90831">
        <ele>23</ele>
        <time>2010-08-13T13:52:11Z</time>
      </trkpt>
      <trkpt lat="47.06662" lon="-1.90866">
        <ele>23</ele>
        <time>2010-08-13T13:52:16Z</time>
      </trkpt>
      <trkpt lat="47.06642" lon="-1.90895">
        <ele>23</ele>
        <time>2010-08-13T13:52:21Z</time>
      </trkpt>
      <trkpt lat="47.06618" lon="-1.90932">
        <ele>24</ele>
        <time>2010-08-13T13:52:26Z</time>
      </trkpt>
      <trkpt lat="47.06592" lon="-1.90979">
        <ele>24</ele>
        <time>2010-08-13T13:52:31Z</time>
      </trkpt>
      <trkpt lat="47.06574" lon="-1.9102">
        <ele>25</ele>
        <time>2010-08-13T13:52:36Z</time>
      </trkpt>
      <trkpt lat="47.06561" lon="-1.91055">
        <ele>25</ele>
        <time>2010-08-13T13:52:41Z</time>
      </trkpt>
      <trkpt lat="47.06545" lon="-1.91099">
        <ele>25</ele>
        <time>2010-08-13T13:52:46Z</time>
      </trkpt>
      <trkpt lat="47.0653" lon="-1.91145">
        <ele>25</ele>
        <time>2010-08-13T13:52:51Z</time>
      </trkpt>
      <trkpt lat="47.06512" lon="-1.912">
        <ele>25</ele>
        <time>2010-08-13T13:52:56Z</time>
      </trkpt>
      <trkpt lat="47.065" lon="-1.91238">
        <ele>26</ele>
        <time>2010-08-13T13:53:01Z</time>
      </trkpt>
      <trkpt lat="47.06485" lon="-1.91285">
        <ele>24</ele>
        <time>2010-08-13T13:53:06Z</time>
      </trkpt>
      <trkpt lat="47.06469" lon="-1.91335">
        <ele>23</ele>
        <time>2010-08-13T13:53:11Z</time>
      </trkpt>
      <trkpt lat="47.06449" lon="-1.91392">
        <ele>23</ele>
        <time>2010-08-13T13:53:16Z</time>
      </trkpt>
      <trkpt lat="47.06429" lon="-1.91439">
        <ele>22</ele>
        <time>2010-08-13T13:53:21Z</time>
      </trkpt>
      <trkpt lat="47.06411" lon="-1.91476">
        <ele>22</ele>
        <time>2010-08-13T13:53:26Z</time>
      </trkpt>
      <trkpt lat="47.06385" lon="-1.91521">
        <ele>21</ele>
        <time>2010-08-13T13:53:31Z</time>
      </trkpt>
      <trkpt lat="47.06357" lon="-1.91562">
        <ele>21</ele>
        <time>2010-08-13T13:53:36Z</time>
      </trkpt>
      <trkpt lat="47.06321" lon="-1.91604">
        <ele>20</ele>
        <time>2010-08-13T13:53:41Z</time>
      </trkpt>
      <trkpt lat="47.0629" lon="-1.91636">
        <ele>19</ele>
        <time>2010-08-13T13:53:46Z</time>
      </trkpt>
      <trkpt lat="47.06265" lon="-1.91658">
        <ele>19</ele>
        <time>2010-08-13T13:53:51Z</time>
      </trkpt>
      <trkpt lat="47.06231" lon="-1.91686">
        <ele>19</ele>
        <time>2010-08-13T13:53:56Z</time>
      </trkpt>
      <trkpt lat="47.06192" lon="-1.91717">
        <ele>19</ele>
        <time>2010-08-13T13:54:01Z</time>
      </trkpt>
      <trkpt lat="47.0616" lon="-1.91744">
        <ele>20</ele>
        <time>2010-08-13T13:54:06Z</time>
      </trkpt>
      <trkpt lat="47.06128" lon="-1.9177">
        <ele>20</ele>
        <time>2010-08-13T13:54:11Z</time>
      </trkpt>
      <trkpt lat="47.06103" lon="-1.91791">
        <ele>21</ele>
        <time>2010-08-13T13:54:16Z</time>
      </trkpt>
      <trkpt lat="47.06067" lon="-1.9182">
        <ele>22</ele>
        <time>2010-08-13T13:54:21Z</time>
      </trkpt>
      <trkpt lat="47.06038" lon="-1.91845">
        <ele>22</ele>
        <time>2010-08-13T13:54:26Z</time>
      </trkpt>
      <trkpt lat="47.06008" lon="-1.91869">
        <ele>23</ele>
        <time>2010-08-13T13:54:31Z</time>
      </trkpt>
      <trkpt lat="47.05985" lon="-1.91889">
        <ele>23</ele>
        <time>2010-08-13T13:54:36Z</time>
      </trkpt>
      <trkpt lat="47.05957" lon="-1.91912">
        <ele>24</ele>
        <time>2010-08-13T13:54:41Z</time>
      </trkpt>
      <trkpt lat="47.05925" lon="-1.91939">
        <ele>24</ele>
        <time>2010-08-13T13:54:46Z</time>
      </trkpt>
      <trkpt lat="47.05898" lon="-1.91961">
        <ele>25</ele>
        <time>2010-08-13T13:54:51Z</time>
      </trkpt>
      <trkpt lat="47.05871" lon="-1.91984">
        <ele>25</ele>
        <time>2010-08-13T13:54:56Z</time>
      </trkpt>
      <trkpt lat="47.0585" lon="-1.92001">
        <ele>25</ele>
        <time>2010-08-13T13:55:01Z</time>
      </trkpt>
      <trkpt lat="47.05823" lon="-1.92024">
        <ele>25</ele>
        <time>2010-08-13T13:55:06Z</time>
      </trkpt>
      <trkpt lat="47.05791" lon="-1.92053">
        <ele>25</ele>
        <time>2010-08-13T13:55:11Z</time>
      </trkpt>
      <trkpt lat="47.05765" lon="-1.92081">
        <ele>25</ele>
        <time>2010-08-13T13:55:16Z</time>
      </trkpt>
      <trkpt lat="47.05744" lon="-1.92104">
        <ele>25</ele>
        <time>2010-08-13T13:55:21Z</time>
      </trkpt>
      <trkpt lat="47.05718" lon="-1.92134">
        <ele>25</ele>
        <time>2010-08-13T13:55:26Z</time>
      </trkpt>
      <trkpt lat="47.05691" lon="-1.92167">
        <ele>24</ele>
        <time>2010-08-13T13:55:31Z</time>
      </trkpt>
      <trkpt lat="47.05657" lon="-1.92207">
        <ele>23</ele>
        <time>2010-08-13T13:55:36Z</time>
      </trkpt>
      <trkpt lat="47.05629" lon="-1.92241">
        <ele>23</ele>
        <time>2010-08-13T13:55:41Z</time>
      </trkpt>
      <trkpt lat="47.05606" lon="-1.92269">
        <ele>23</ele>
        <time>2010-08-13T13:55:46Z</time>
      </trkpt>
      <trkpt lat="47.0558" lon="-1.92309">
        <ele>22</ele>
        <time>2010-08-13T13:55:51Z</time>
      </trkpt>
      <trkpt lat="47.05551" lon="-1.92359">
        <ele>22</ele>
        <time>2010-08-13T13:55:56Z</time>
      </trkpt>
      <trkpt lat="47.05526" lon="-1.92403">
        <ele>22</ele>
        <time>2010-08-13T13:56:01Z</time>
      </trkpt>
      <trkpt lat="47.05505" lon="-1.92438">
        <ele>21</ele>
        <time>2010-08-13T13:56:06Z</time>
      </trkpt>
      <trkpt lat="47.05478" lon="-1.92483">
        <ele>21</ele>
        <time>2010-08-13T13:56:11Z</time>
      </trkpt>
      <trkpt lat="47.05446" lon="-1.92537">
        <ele>20</ele>
        <time>2010-08-13T13:56:16Z</time>
      </trkpt>
      <trkpt lat="47.05418" lon="-1.92583">
        <ele>18</ele>
        <time>2010-08-13T13:56:21Z</time>
      </trkpt>
      <trkpt lat="47.05391" lon="-1.92628">
        <ele>19</ele>
        <time>2010-08-13T13:56:26Z</time>
      </trkpt>
      <trkpt lat="47.0537" lon="-1.92664">
        <ele>19</ele>
        <time>2010-08-13T13:56:31Z</time>
      </trkpt>
      <trkpt lat="47.05344" lon="-1.92707">
        <ele>19</ele>
        <time>2010-08-13T13:56:36Z</time>
      </trkpt>
      <trkpt lat="47.05315" lon="-1.92756">
        <ele>20</ele>
        <time>2010-08-13T13:56:41Z</time>
      </trkpt>
      <trkpt lat="47.05291" lon="-1.92797">
        <ele>21</ele>
        <time>2010-08-13T13:56:46Z</time>
      </trkpt>
      <trkpt lat="47.05272" lon="-1.92827">
        <ele>21</ele>
        <time>2010-08-13T13:56:51Z</time>
      </trkpt>
      <trkpt lat="47.0525" lon="-1.92865">
        <ele>21</ele>
        <time>2010-08-13T13:56:56Z</time>
      </trkpt>
      <trkpt lat="47.05228" lon="-1.92902">
        <ele>21</ele>
        <time>2010-08-13T13:57:01Z</time>
      </trkpt>
      <trkpt lat="47.05202" lon="-1.92946">
        <ele>22</ele>
        <time>2010-08-13T13:57:06Z</time>
      </trkpt>
      <trkpt lat="47.0518" lon="-1.92983">
        <ele>22</ele>
        <time>2010-08-13T13:57:11Z</time>
      </trkpt>
      <trkpt lat="47.05161" lon="-1.93015">
        <ele>22</ele>
        <time>2010-08-13T13:57:16Z</time>
      </trkpt>
      <trkpt lat="47.05138" lon="-1.93052">
        <ele>22</ele>
        <time>2010-08-13T13:57:21Z</time>
      </trkpt>
      <trkpt lat="47.05112" lon="-1.93096">
        <ele>22</ele>
        <time>2010-08-13T13:57:26Z</time>
      </trkpt>
      <trkpt lat="47.05091" lon="-1.93132">
        <ele>22</ele>
        <time>2010-08-13T13:57:31Z</time>
      </trkpt>
      <trkpt lat="47.05069" lon="-1.93168">
        <ele>23</ele>
        <time>2010-08-13T13:57:36Z</time>
      </trkpt>
      <trkpt lat="47.05051" lon="-1.93197">
        <ele>24</ele>
        <time>2010-08-13T13:57:41Z</time>
      </trkpt>
      <trkpt lat="47.05026" lon="-1.93239">
        <ele>24</ele>
        <time>2010-08-13T13:57:46Z</time>
      </trkpt>
      <trkpt lat="47.05005" lon="-1.93274">
        <ele>24</ele>
        <time>2010-08-13T13:57:51Z</time>
      </trkpt>
      <trkpt lat="47.04983" lon="-1.9331">
        <ele>25</ele>
        <time>2010-08-13T13:57:56Z</time>
      </trkpt>
      <trkpt lat="47.04966" lon="-1.93339">
        <ele>24</ele>
        <time>2010-08-13T13:58:01Z</time>
      </trkpt>
      <trkpt lat="47.04943" lon="-1.93375">
        <ele>23</ele>
        <time>2010-08-13T13:58:06Z</time>
      </trkpt>
      <trkpt lat="47.04921" lon="-1.93412">
        <ele>22</ele>
        <time>2010-08-13T13:58:11Z</time>
      </trkpt>
      <trkpt lat="47.04894" lon="-1.93458">
        <ele>22</ele>
        <time>2010-08-13T13:58:16Z</time>
      </trkpt>
      <trkpt lat="47.04872" lon="-1.93496">
        <ele>21</ele>
        <time>2010-08-13T13:58:21Z</time>
      </trkpt>
      <trkpt lat="47.04854" lon="-1.93527">
        <ele>21</ele>
        <time>2010-08-13T13:58:26Z</time>
      </trkpt>
      <trkpt lat="47.0483" lon="-1.93565">
        <ele>21</ele>
        <time>2010-08-13T13:58:31Z</time>
      </trkpt>
      <trkpt lat="47.04801" lon="-1.93612">
        <ele>21</ele>
        <time>2010-08-13T13:58:36Z</time>
      </trkpt>
      <trkpt lat="47.04777" lon="-1.93652">
        <ele>21</ele>
        <time>2010-08-13T13:58:41Z</time>
      </trkpt>
      <trkpt lat="47.04758" lon="-1.93685">
        <ele>21</ele>
        <time>2010-08-13T13:58:46Z</time>
      </trkpt>
      <trkpt lat="47.04734" lon="-1.93727">
        <ele>21</ele>
        <time>2010-08-13T13:58:51Z</time>
      </trkpt>
      <trkpt lat="47.04711" lon="-1.93765">
        <ele>20</ele>
        <time>2010-08-13T13:58:56Z</time>
      </trkpt>
      <trkpt lat="47.04681" lon="-1.93814">
        <ele>19</ele>
        <time>2010-08-13T13:59:01Z</time>
      </trkpt>
      <trkpt lat="47.04657" lon="-1.93856">
        <ele>17</ele>
        <time>2010-08-13T13:59:06Z</time>
      </trkpt>
      <trkpt lat="47.04639" lon="-1.93891">
        <ele>17</ele>
        <time>2010-08-13T13:59:11Z</time>
      </trkpt>
      <trkpt lat="47.04617" lon="-1.93937">
        <ele>16</ele>
        <time>2010-08-13T13:59:16Z</time>
      </trkpt>
      <trkpt lat="47.04595" lon="-1.93998">
        <ele>16</ele>
        <time>2010-08-13T13:59:21Z</time>
      </trkpt>
      <trkpt lat="47.04579" lon="-1.94054">
        <ele>15</ele>
        <time>2010-08-13T13:59:26Z</time>
      </trkpt>
      <trkpt lat="47.04568" lon="-1.94098">
        <ele>15</ele>
        <time>2010-08-13T13:59:31Z</time>
      </trkpt>
      <trkpt lat="47.04558" lon="-1.94156">
        <ele>14</ele>
        <time>2010-08-13T13:59:36Z</time>
      </trkpt>
      <trkpt lat="47.0455" lon="-1.94216">
        <ele>13</ele>
        <time>2010-08-13T13:59:41Z</time>
      </trkpt>
      <trkpt lat="47.0454" lon="-1.94293">
        <ele>11</ele>
        <time>2010-08-13T13:59:46Z</time>
      </trkpt>
      <trkpt lat="47.04532" lon="-1.94356">
        <ele>10</ele>
        <time>2010-08-13T13:59:51Z</time>
      </trkpt>
      <trkpt lat="47.04525" lon="-1.94405">
        <ele>10</ele>
        <time>2010-08-13T13:59:56Z</time>
      </trkpt>
      <trkpt lat="47.04514" lon="-1.94463">
        <ele>10</ele>
        <time>2010-08-13T14:00:01Z</time>
      </trkpt>
      <trkpt lat="47.04506" lon="-1.94533">
        <ele>8</ele>
        <time>2010-08-13T14:00:06Z</time>
      </trkpt>
      <trkpt lat="47.04498" lon="-1.94591">
        <ele>7</ele>
        <time>2010-08-13T14:00:11Z</time>
      </trkpt>
      <trkpt lat="47.04492" lon="-1.94636">
        <ele>8</ele>
        <time>2010-08-13T14:00:16Z</time>
      </trkpt>
      <trkpt lat="47.04484" lon="-1.94692">
        <ele>8</ele>
        <time>2010-08-13T14:00:21Z</time>
      </trkpt>
      <trkpt lat="47.04476" lon="-1.9475">
        <ele>8</ele>
        <time>2010-08-13T14:00:26Z</time>
      </trkpt>
      <trkpt lat="47.04465" lon="-1.94819">
        <ele>8</ele>
        <time>2010-08-13T14:00:31Z</time>
      </trkpt>
      <trkpt lat="47.0445" lon="-1.94871">
        <ele>7</ele>
        <time>2010-08-13T14:00:36Z</time>
      </trkpt>
      <trkpt lat="47.04439" lon="-1.94908">
        <ele>7</ele>
        <time>2010-08-13T14:00:41Z</time>
      </trkpt>
      <trkpt lat="47.04424" lon="-1.94952">
        <ele>7</ele>
        <time>2010-08-13T14:00:46Z</time>
      </trkpt>
      <trkpt lat="47.04398" lon="-1.94992">
        <ele>8</ele>
        <time>2010-08-13T14:00:51Z</time>
      </trkpt>
      <trkpt lat="47.04374" lon="-1.95009">
        <ele>8</ele>
        <time>2010-08-13T14:00:56Z</time>
      </trkpt>
      <trkpt lat="47.04351" lon="-1.95044">
        <ele>8</ele>
        <time>2010-08-13T14:01:01Z</time>
      </trkpt>
      <trkpt lat="47.04334" lon="-1.95074">
        <ele>9</ele>
        <time>2010-08-13T14:01:06Z</time>
      </trkpt>
      <trkpt lat="47.043" lon="-1.95118">
        <ele>9</ele>
        <time>2010-08-13T14:01:11Z</time>
      </trkpt>
      <trkpt lat="47.04315" lon="-1.95179">
        <ele>8</ele>
        <time>2010-08-13T14:01:16Z</time>
      </trkpt>
      <trkpt lat="47.04333" lon="-1.95211">
        <ele>8</ele>
        <time>2010-08-13T14:01:21Z</time>
      </trkpt>
      <trkpt lat="47.04334" lon="-1.95205">
        <ele>8</ele>
        <time>2010-08-13T14:01:26Z</time>
      </trkpt>
      <trkpt lat="47.04344" lon="-1.95202">
        <ele>8</ele>
        <time>2010-08-13T14:01:31Z</time>
      </trkpt>
      <trkpt lat="47.04359" lon="-1.95182">
        <ele>8</ele>
        <time>2010-08-13T14:01:36Z</time>
      </trkpt>
      <trkpt lat="47.04364" lon="-1.95177">
        <ele>8</ele>
        <time>2010-08-13T14:01:41Z</time>
      </trkpt>
      <trkpt lat="47.04362" lon="-1.95178">
        <ele>8</ele>
        <time>2010-08-13T14:01:46Z</time>
      </trkpt>
      <trkpt lat="47.04362" lon="-1.95177">
        <ele>8</ele>
        <time>2010-08-13T14:01:51Z</time>
      </trkpt>
      <trkpt lat="47.04363" lon="-1.95178">
        <ele>8</ele>
        <time>2010-08-13T14:01:56Z</time>
      </trkpt>
      <trkpt lat="47.04365" lon="-1.95179">
        <ele>8</ele>
        <time>2010-08-13T14:02:01Z</time>
      </trkpt>
      <trkpt lat="47.04365" lon="-1.95177">
        <ele>8</ele>
        <time>2010-08-13T14:02:06Z</time>
      </trkpt>
      <trkpt lat="47.04365" lon="-1.95177">
        <ele>8</ele>
        <time>2010-08-13T14:02:11Z</time>
      </trkpt>
      <trkpt lat="47.04365" lon="-1.9518">
        <ele>8</ele>
        <time>2010-08-13T14:02:16Z</time>
      </trkpt>
      <trkpt lat="47.04365" lon="-1.9518">
        <ele>8</ele>
        <time>2010-08-13T14:02:21Z</time>
      </trkpt>
      <trkpt lat="47.04366" lon="-1.95178">
        <ele>8</ele>
        <time>2010-08-13T14:02:26Z</time>
      </trkpt>
      <trkpt lat="47.04364" lon="-1.95178">
        <ele>8</ele>
        <time>2010-08-13T14:02:31Z</time>
      </trkpt>
      <trkpt lat="47.0436" lon="-1.95177">
        <ele>8</ele>
        <time>2010-08-13T14:02:36Z</time>
      </trkpt>
      <trkpt lat="47.04361" lon="-1.95177">
        <ele>8</ele>
        <time>2010-08-13T14:02:41Z</time>
      </trkpt>
      <trkpt lat="47.04359" lon="-1.95176">
        <ele>8</ele>
        <time>2010-08-13T14:02:46Z</time>
      </trkpt>
      <trkpt lat="47.0436" lon="-1.95178">
        <ele>8</ele>
        <time>2010-08-13T14:02:51Z</time>
      </trkpt>
      <trkpt lat="47.04358" lon="-1.95179">
        <ele>8</ele>
        <time>2010-08-13T14:02:56Z</time>
      </trkpt>
      <trkpt lat="47.04359" lon="-1.95178">
        <ele>8</ele>
        <time>2010-08-13T14:03:01Z</time>
      </trkpt>
      <trkpt lat="47.04361" lon="-1.95177">
        <ele>8</ele>
        <time>2010-08-13T14:03:06Z</time>
      </trkpt>
      <trkpt lat="47.04362" lon="-1.95177">
        <ele>8</ele>
        <time>2010-08-13T14:03:11Z</time>
      </trkpt>
      <trkpt lat="47.0436" lon="-1.95178">
        <ele>8</ele>
        <time>2010-08-13T14:03:16Z</time>
      </trkpt>
      <trkpt lat="47.0436" lon="-1.95178">
        <ele>8</ele>
        <time>2010-08-13T14:03:21Z</time>
      </trkpt>
      <trkpt lat="47.0436" lon="-1.95178">
        <ele>8</ele>
        <time>2010-08-13T14:03:26Z</time>
      </trkpt>
      <trkpt lat="47.04362" lon="-1.95177">
        <ele>8</ele>
        <time>2010-08-13T14:03:31Z</time>
      </trkpt>
      <trkpt lat="47.04362" lon="-1.95176">
        <ele>8</ele>
        <time>2010-08-13T14:03:36Z</time>
      </trkpt>
      <trkpt lat="47.0436" lon="-1.95175">
        <ele>8</ele>
        <time>2010-08-13T14:03:41Z</time>
      </trkpt>
      <trkpt lat="47.04359" lon="-1.95175">
        <ele>8</ele>
        <time>2010-08-13T14:03:46Z</time>
      </trkpt>
      <trkpt lat="47.0436" lon="-1.95176">
        <ele>8</ele>
        <time>2010-08-13T14:03:51Z</time>
      </trkpt>
      <trkpt lat="47.0436" lon="-1.95178">
        <ele>8</ele>
        <time>2010-08-13T14:03:56Z</time>
      </trkpt>
      <trkpt lat="47.04366" lon="-1.95178">
        <ele>8</ele>
        <time>2010-08-13T14:04:01Z</time>
      </trkpt>
      <trkpt lat="47.04368" lon="-1.95178">
        <ele>8</ele>
        <time>2010-08-13T14:04:06Z</time>
      </trkpt>
      <trkpt lat="47.04371" lon="-1.95174">
        <ele>8</ele>
        <time>2010-08-13T14:04:11Z</time>
      </trkpt>
      <trkpt lat="47.04367" lon="-1.95175">
        <ele>8</ele>
        <time>2010-08-13T14:04:16Z</time>
      </trkpt>
      <trkpt lat="47.04364" lon="-1.95176">
        <ele>8</ele>
        <time>2010-08-13T14:04:21Z</time>
      </trkpt>
      <trkpt lat="47.04364" lon="-1.95176">
        <ele>8</ele>
        <time>2010-08-13T14:04:26Z</time>
      </trkpt>
      <trkpt lat="47.04364" lon="-1.95175">
        <ele>8</ele>
        <time>2010-08-13T14:04:31Z</time>
      </trkpt>
      <trkpt lat="47.04365" lon="-1.95177">
        <ele>8</ele>
        <time>2010-08-13T14:04:36Z</time>
      </trkpt>
      <trkpt lat="47.04366" lon="-1.95177">
        <ele>8</ele>
        <time>2010-08-13T14:04:41Z</time>
      </trkpt>
      <trkpt lat="47.04363" lon="-1.95178">
        <ele>8</ele>
        <time>2010-08-13T14:04:46Z</time>
      </trkpt>
      <trkpt lat="47.04364" lon="-1.95178">
        <ele>8</ele>
        <time>2010-08-13T14:04:51Z</time>
      </trkpt>
      <trkpt lat="47.04363" lon="-1.95178">
        <ele>8</ele>
        <time>2010-08-13T14:04:56Z</time>
      </trkpt>
      <trkpt lat="47.04361" lon="-1.95177">
        <ele>8</ele>
        <time>2010-08-13T14:05:01Z</time>
      </trkpt>
      <trkpt lat="47.0436" lon="-1.95177">
        <ele>8</ele>
        <time>2010-08-13T14:05:06Z</time>
      </trkpt>
      <trkpt lat="47.04364" lon="-1.95176">
        <ele>8</ele>
        <time>2010-08-13T14:05:11Z</time>
      </trkpt>
      <trkpt lat="47.04363" lon="-1.95175">
        <ele>8</ele>
        <time>2010-08-13T14:05:16Z</time>
      </trkpt>
      <trkpt lat="47.04364" lon="-1.95176">
        <ele>8</ele>
        <time>2010-08-13T14:05:21Z</time>
      </trkpt>
      <trkpt lat="47.04364" lon="-1.95177">
        <ele>8</ele>
        <time>2010-08-13T14:05:26Z</time>
      </trkpt>
      <trkpt lat="47.04364" lon="-1.95177">
        <ele>8</ele>
        <time>2010-08-13T14:05:31Z</time>
      </trkpt>
      <trkpt lat="47.04365" lon="-1.95177">
        <ele>8</ele>
        <time>2010-08-13T14:05:36Z</time>
      </trkpt>
      <trkpt lat="47.04365" lon="-1.95177">
        <ele>8</ele>
        <time>2010-08-13T14:05:41Z</time>
      </trkpt>
      <trkpt lat="47.04365" lon="-1.95177">
        <ele>8</ele>
        <time>2010-08-13T14:05:46Z</time>
      </trkpt>
      <trkpt lat="47.04365" lon="-1.95177">
        <ele>8</ele>
        <time>2010-08-13T14:05:51Z</time>
      </trkpt>
      <trkpt lat="47.04366" lon="-1.95177">
        <ele>8</ele>
        <time>2010-08-13T14:05:56Z</time>
      </trkpt>
      <trkpt lat="47.04365" lon="-1.95177">
        <ele>8</ele>
        <time>2010-08-13T14:06:01Z</time>
      </trkpt>
      <trkpt lat="47.04365" lon="-1.95176">
        <ele>8</ele>
        <time>2010-08-13T14:06:06Z</time>
      </trkpt>
      <trkpt lat="47.04364" lon="-1.95177">
        <ele>8</ele>
        <time>2010-08-13T14:06:11Z</time>
      </trkpt>
      <trkpt lat="47.04366" lon="-1.95175">
        <ele>8</ele>
        <time>2010-08-13T14:06:16Z</time>
      </trkpt>
      <trkpt lat="47.04365" lon="-1.95175">
        <ele>8</ele>
        <time>2010-08-13T14:06:21Z</time>
      </trkpt>
      <trkpt lat="47.04363" lon="-1.95177">
        <ele>8</ele>
        <time>2010-08-13T14:06:26Z</time>
      </trkpt>
      <trkpt lat="47.04362" lon="-1.95178">
        <ele>8</ele>
        <time>2010-08-13T14:06:31Z</time>
      </trkpt>
      <trkpt lat="47.0436" lon="-1.95175">
        <ele>8</ele>
        <time>2010-08-13T14:06:36Z</time>
      </trkpt>
      <trkpt lat="47.04358" lon="-1.95174">
        <ele>8</ele>
        <time>2010-08-13T14:06:41Z</time>
      </trkpt>
      <trkpt lat="47.04358" lon="-1.95174">
        <ele>8</ele>
        <time>2010-08-13T14:06:46Z</time>
      </trkpt>
      <trkpt lat="47.0435" lon="-1.95182">
        <ele>8</ele>
        <time>2010-08-13T14:06:51Z</time>
      </trkpt>
      <trkpt lat="47.04331" lon="-1.95205">
        <ele>8</ele>
        <time>2010-08-13T14:06:56Z</time>
      </trkpt>
      <trkpt lat="47.04328" lon="-1.95233">
        <ele>8</ele>
        <time>2010-08-13T14:07:01Z</time>
      </trkpt>
      <trkpt lat="47.04307" lon="-1.95257">
        <ele>7</ele>
        <time>2010-08-13T14:07:06Z</time>
      </trkpt>
      <trkpt lat="47.04291" lon="-1.95286">
        <ele>6</ele>
        <time>2010-08-13T14:07:11Z</time>
      </trkpt>
      <trkpt lat="47.04307" lon="-1.95325">
        <ele>6</ele>
        <time>2010-08-13T14:07:16Z</time>
      </trkpt>
      <trkpt lat="47.04317" lon="-1.95358">
        <ele>5</ele>
        <time>2010-08-13T14:07:21Z</time>
      </trkpt>
      <trkpt lat="47.043" lon="-1.95354">
        <ele>5</ele>
        <time>2010-08-13T14:07:26Z</time>
      </trkpt>
      <trkpt lat="47.04294" lon="-1.9535">
        <ele>5</ele>
        <time>2010-08-13T14:07:31Z</time>
      </trkpt>
      <trkpt lat="47.04295" lon="-1.95349">
        <ele>5</ele>
        <time>2010-08-13T14:07:36Z</time>
      </trkpt>
      <trkpt lat="47.04283" lon="-1.95355">
        <ele>5</ele>
        <time>2010-08-13T14:07:41Z</time>
      </trkpt>
      <trkpt lat="47.04268" lon="-1.9537">
        <ele>5</ele>
        <time>2010-08-13T14:07:46Z</time>
      </trkpt>
      <trkpt lat="47.0426" lon="-1.95375">
        <ele>5</ele>
        <time>2010-08-13T14:07:51Z</time>
      </trkpt>
      <trkpt lat="47.04253" lon="-1.95376">
        <ele>5</ele>
        <time>2010-08-13T14:07:56Z</time>
      </trkpt>
      <trkpt lat="47.04248" lon="-1.95379">
        <ele>5</ele>
        <time>2010-08-13T14:08:01Z</time>
      </trkpt>
      <trkpt lat="47.04247" lon="-1.95379">
        <ele>5</ele>
        <time>2010-08-13T14:08:06Z</time>
      </trkpt>
      <trkpt lat="47.04249" lon="-1.95378">
        <ele>5</ele>
        <time>2010-08-13T14:08:11Z</time>
      </trkpt>
      <trkpt lat="47.04252" lon="-1.95378">
        <ele>5</ele>
        <time>2010-08-13T14:08:16Z</time>
      </trkpt>
      <trkpt lat="47.04254" lon="-1.95388">
        <ele>4</ele>
        <time>2010-08-13T14:08:21Z</time>
      </trkpt>
      <trkpt lat="47.0426" lon="-1.95388">
        <ele>4</ele>
        <time>2010-08-13T14:08:26Z</time>
      </trkpt>
      <trkpt lat="47.04266" lon="-1.95384">
        <ele>5</ele>
        <time>2010-08-13T14:08:31Z</time>
      </trkpt>
      <trkpt lat="47.04265" lon="-1.95384">
        <ele>5</ele>
        <time>2010-08-13T14:08:36Z</time>
      </trkpt>
      <trkpt lat="47.04259" lon="-1.95384">
        <ele>5</ele>
        <time>2010-08-13T14:08:41Z</time>
      </trkpt>
      <trkpt lat="47.04256" lon="-1.95378">
        <ele>5</ele>
        <time>2010-08-13T14:08:46Z</time>
      </trkpt>
      <trkpt lat="47.04268" lon="-1.95376">
        <ele>5</ele>
        <time>2010-08-13T14:08:51Z</time>
      </trkpt>
      <trkpt lat="47.0426" lon="-1.95382">
        <ele>5</ele>
        <time>2010-08-13T14:08:56Z</time>
      </trkpt>
      <trkpt lat="47.04253" lon="-1.95385">
        <ele>5</ele>
        <time>2010-08-13T14:09:01Z</time>
      </trkpt>
      <trkpt lat="47.0425" lon="-1.95388">
        <ele>4</ele>
        <time>2010-08-13T14:09:06Z</time>
      </trkpt>
      <trkpt lat="47.04242" lon="-1.95389">
        <ele>5</ele>
        <time>2010-08-13T14:09:11Z</time>
      </trkpt>
      <trkpt lat="47.04248" lon="-1.95387">
        <ele>5</ele>
        <time>2010-08-13T14:09:16Z</time>
      </trkpt>
      <trkpt lat="47.04251" lon="-1.95386">
        <ele>4</ele>
        <time>2010-08-13T14:09:21Z</time>
      </trkpt>
      <trkpt lat="47.04252" lon="-1.95389">
        <ele>4</ele>
        <time>2010-08-13T14:09:26Z</time>
      </trkpt>
      <trkpt lat="47.04257" lon="-1.95391">
        <ele>4</ele>
        <time>2010-08-13T14:09:31Z</time>
      </trkpt>
      <trkpt lat="47.04255" lon="-1.95392">
        <ele>4</ele>
        <time>2010-08-13T14:09:36Z</time>
      </trkpt>
      <trkpt lat="47.04251" lon="-1.95394">
        <ele>4</ele>
        <time>2010-08-13T14:09:41Z</time>
      </trkpt>
      <trkpt lat="47.04248" lon="-1.95391">
        <ele>5</ele>
        <time>2010-08-13T14:09:46Z</time>
      </trkpt>
      <trkpt lat="47.0425" lon="-1.95391">
        <ele>5</ele>
        <time>2010-08-13T14:09:51Z</time>
      </trkpt>
      <trkpt lat="47.04253" lon="-1.9539">
        <ele>4</ele>
        <time>2010-08-13T14:09:56Z</time>
      </trkpt>
      <trkpt lat="47.04256" lon="-1.95386">
        <ele>4</ele>
        <time>2010-08-13T14:10:01Z</time>
      </trkpt>
      <trkpt lat="47.04263" lon="-1.95388">
        <ele>4</ele>
        <time>2010-08-13T14:10:06Z</time>
      </trkpt>
      <trkpt lat="47.04267" lon="-1.95384">
        <ele>5</ele>
        <time>2010-08-13T14:10:11Z</time>
      </trkpt>
      <trkpt lat="47.04267" lon="-1.95385">
        <ele>4</ele>
        <time>2010-08-13T14:10:16Z</time>
      </trkpt>
      <trkpt lat="47.04259" lon="-1.95391">
        <ele>4</ele>
        <time>2010-08-13T14:10:21Z</time>
      </trkpt>
      <trkpt lat="47.04252" lon="-1.95393">
        <ele>4</ele>
        <time>2010-08-13T14:10:26Z</time>
      </trkpt>
      <trkpt lat="47.04252" lon="-1.95392">
        <ele>4</ele>
        <time>2010-08-13T14:10:31Z</time>
      </trkpt>
      <trkpt lat="47.04255" lon="-1.95393">
        <ele>4</ele>
        <time>2010-08-13T14:10:36Z</time>
      </trkpt>
      <trkpt lat="47.0426" lon="-1.95391">
        <ele>4</ele>
        <time>2010-08-13T14:10:41Z</time>
      </trkpt>
      <trkpt lat="47.0426" lon="-1.95393">
        <ele>4</ele>
        <time>2010-08-13T14:10:46Z</time>
      </trkpt>
      <trkpt lat="47.04262" lon="-1.95387">
        <ele>4</ele>
        <time>2010-08-13T14:10:51Z</time>
      </trkpt>
      <trkpt lat="47.04258" lon="-1.95387">
        <ele>4</ele>
        <time>2010-08-13T14:10:56Z</time>
      </trkpt>
      <trkpt lat="47.04252" lon="-1.95383">
        <ele>5</ele>
        <time>2010-08-13T14:11:01Z</time>
      </trkpt>
      <trkpt lat="47.04249" lon="-1.95382">
        <ele>5</ele>
        <time>2010-08-13T14:11:06Z</time>
      </trkpt>
      <trkpt lat="47.04248" lon="-1.95381">
        <ele>5</ele>
        <time>2010-08-13T14:11:11Z</time>
      </trkpt>
      <trkpt lat="47.04248" lon="-1.95381">
        <ele>5</ele>
        <time>2010-08-13T14:11:16Z</time>
      </trkpt>
      <trkpt lat="47.04247" lon="-1.9538">
        <ele>5</ele>
        <time>2010-08-13T14:11:21Z</time>
      </trkpt>
      <trkpt lat="47.04246" lon="-1.9538">
        <ele>5</ele>
        <time>2010-08-13T14:11:26Z</time>
      </trkpt>
      <trkpt lat="47.04248" lon="-1.95381">
        <ele>5</ele>
        <time>2010-08-13T14:11:31Z</time>
      </trkpt>
      <trkpt lat="47.04251" lon="-1.95382">
        <ele>5</ele>
        <time>2010-08-13T14:11:36Z</time>
      </trkpt>
      <trkpt lat="47.04249" lon="-1.95381">
        <ele>5</ele>
        <time>2010-08-13T14:11:41Z</time>
      </trkpt>
      <trkpt lat="47.04248" lon="-1.95378">
        <ele>5</ele>
        <time>2010-08-13T14:11:46Z</time>
      </trkpt>
      <trkpt lat="47.04251" lon="-1.95374">
        <ele>5</ele>
        <time>2010-08-13T14:11:51Z</time>
      </trkpt>
      <trkpt lat="47.04256" lon="-1.95371">
        <ele>5</ele>
        <time>2010-08-13T14:11:56Z</time>
      </trkpt>
      <trkpt lat="47.04263" lon="-1.95364">
        <ele>5</ele>
        <time>2010-08-13T14:12:01Z</time>
      </trkpt>
      <trkpt lat="47.04265" lon="-1.95361">
        <ele>5</ele>
        <time>2010-08-13T14:12:06Z</time>
      </trkpt>
      <trkpt lat="47.04264" lon="-1.95363">
        <ele>5</ele>
        <time>2010-08-13T14:12:11Z</time>
      </trkpt>
      <trkpt lat="47.04262" lon="-1.95362">
        <ele>5</ele>
        <time>2010-08-13T14:12:16Z</time>
      </trkpt>
      <trkpt lat="47.04265" lon="-1.95365">
        <ele>5</ele>
        <time>2010-08-13T14:12:21Z</time>
      </trkpt>
      <trkpt lat="47.04262" lon="-1.95367">
        <ele>5</ele>
        <time>2010-08-13T14:12:26Z</time>
      </trkpt>
      <trkpt lat="47.04259" lon="-1.95369">
        <ele>5</ele>
        <time>2010-08-13T14:12:31Z</time>
      </trkpt>
      <trkpt lat="47.04264" lon="-1.95366">
        <ele>5</ele>
        <time>2010-08-13T14:12:36Z</time>
      </trkpt>
      <trkpt lat="47.04264" lon="-1.95365">
        <ele>5</ele>
        <time>2010-08-13T14:12:41Z</time>
      </trkpt>
      <trkpt lat="47.04264" lon="-1.95365">
        <ele>5</ele>
        <time>2010-08-13T14:12:46Z</time>
      </trkpt>
      <trkpt lat="47.04265" lon="-1.95358">
        <ele>5</ele>
        <time>2010-08-13T14:12:51Z</time>
      </trkpt>
      <trkpt lat="47.04265" lon="-1.95353">
        <ele>5</ele>
        <time>2010-08-13T14:12:56Z</time>
      </trkpt>
      <trkpt lat="47.04269" lon="-1.95349">
        <ele>5</ele>
        <time>2010-08-13T14:13:01Z</time>
      </trkpt>
      <trkpt lat="47.04268" lon="-1.95353">
        <ele>5</ele>
        <time>2010-08-13T14:13:06Z</time>
      </trkpt>
      <trkpt lat="47.04269" lon="-1.95351">
        <ele>5</ele>
        <time>2010-08-13T14:13:11Z</time>
      </trkpt>
      <trkpt lat="47.04275" lon="-1.95349">
        <ele>5</ele>
        <time>2010-08-13T14:13:16Z</time>
      </trkpt>
      <trkpt lat="47.04272" lon="-1.95354">
        <ele>5</ele>
        <time>2010-08-13T14:13:21Z</time>
      </trkpt>
      <trkpt lat="47.04265" lon="-1.95359">
        <ele>5</ele>
        <time>2010-08-13T14:13:26Z</time>
      </trkpt>
      <trkpt lat="47.04261" lon="-1.95361">
        <ele>5</ele>
        <time>2010-08-13T14:13:31Z</time>
      </trkpt>
      <trkpt lat="47.0426" lon="-1.95364">
        <ele>5</ele>
        <time>2010-08-13T14:13:36Z</time>
      </trkpt>
      <trkpt lat="47.04264" lon="-1.95365">
        <ele>5</ele>
        <time>2010-08-13T14:13:41Z</time>
      </trkpt>
      <trkpt lat="47.04266" lon="-1.95366">
        <ele>5</ele>
        <time>2010-08-13T14:13:46Z</time>
      </trkpt>
      <trkpt lat="47.04266" lon="-1.95364">
        <ele>5</ele>
        <time>2010-08-13T14:13:51Z</time>
      </trkpt>
      <trkpt lat="47.04262" lon="-1.95364">
        <ele>5</ele>
        <time>2010-08-13T14:13:56Z</time>
      </trkpt>
      <trkpt lat="47.04256" lon="-1.95365">
        <ele>5</ele>
        <time>2010-08-13T14:14:01Z</time>
      </trkpt>
      <trkpt lat="47.04255" lon="-1.95367">
        <ele>5</ele>
        <time>2010-08-13T14:14:06Z</time>
      </trkpt>
      <trkpt lat="47.04255" lon="-1.95368">
        <ele>5</ele>
        <time>2010-08-13T14:14:11Z</time>
      </trkpt>
      <trkpt lat="47.04254" lon="-1.95368">
        <ele>5</ele>
        <time>2010-08-13T14:14:16Z</time>
      </trkpt>
      <trkpt lat="47.04254" lon="-1.95369">
        <ele>5</ele>
        <time>2010-08-13T14:14:21Z</time>
      </trkpt>
      <trkpt lat="47.04256" lon="-1.95374">
        <ele>5</ele>
        <time>2010-08-13T14:14:26Z</time>
      </trkpt>
      <trkpt lat="47.04252" lon="-1.95377">
        <ele>5</ele>
        <time>2010-08-13T14:14:31Z</time>
      </trkpt>
      <trkpt lat="47.04255" lon="-1.95371">
        <ele>5</ele>
        <time>2010-08-13T14:14:36Z</time>
      </trkpt>
      <trkpt lat="47.04257" lon="-1.95372">
        <ele>5</ele>
        <time>2010-08-13T14:14:41Z</time>
      </trkpt>
      <trkpt lat="47.04252" lon="-1.95369">
        <ele>5</ele>
        <time>2010-08-13T14:14:46Z</time>
      </trkpt>
      <trkpt lat="47.04248" lon="-1.9537">
        <ele>5</ele>
        <time>2010-08-13T14:14:51Z</time>
      </trkpt>
      <trkpt lat="47.04248" lon="-1.95372">
        <ele>5</ele>
        <time>2010-08-13T14:14:56Z</time>
      </trkpt>
      <trkpt lat="47.04247" lon="-1.95376">
        <ele>5</ele>
        <time>2010-08-13T14:15:01Z</time>
      </trkpt>
      <trkpt lat="47.04245" lon="-1.95378">
        <ele>5</ele>
        <time>2010-08-13T14:15:06Z</time>
      </trkpt>
      <trkpt lat="47.04245" lon="-1.95379">
        <ele>5</ele>
        <time>2010-08-13T14:15:11Z</time>
      </trkpt>
      <trkpt lat="47.04245" lon="-1.9538">
        <ele>5</ele>
        <time>2010-08-13T14:15:16Z</time>
      </trkpt>
      <trkpt lat="47.0425" lon="-1.95381">
        <ele>5</ele>
        <time>2010-08-13T14:15:21Z</time>
      </trkpt>
      <trkpt lat="47.04251" lon="-1.95379">
        <ele>5</ele>
        <time>2010-08-13T14:15:26Z</time>
      </trkpt>
      <trkpt lat="47.0425" lon="-1.95376">
        <ele>5</ele>
        <time>2010-08-13T14:15:31Z</time>
      </trkpt>
      <trkpt lat="47.04249" lon="-1.95373">
        <ele>5</ele>
        <time>2010-08-13T14:15:36Z</time>
      </trkpt>
      <trkpt lat="47.04247" lon="-1.95375">
        <ele>5</ele>
        <time>2010-08-13T14:15:41Z</time>
      </trkpt>
      <trkpt lat="47.04243" lon="-1.95377">
        <ele>5</ele>
        <time>2010-08-13T14:15:46Z</time>
      </trkpt>
      <trkpt lat="47.04244" lon="-1.9538">
        <ele>5</ele>
        <time>2010-08-13T14:15:51Z</time>
      </trkpt>
      <trkpt lat="47.04248" lon="-1.95383">
        <ele>5</ele>
        <time>2010-08-13T14:15:56Z</time>
      </trkpt>
      <trkpt lat="47.04251" lon="-1.95383">
        <ele>5</ele>
        <time>2010-08-13T14:16:01Z</time>
      </trkpt>
      <trkpt lat="47.04254" lon="-1.95383">
        <ele>5</ele>
        <time>2010-08-13T14:16:06Z</time>
      </trkpt>
      <trkpt lat="47.04257" lon="-1.95381">
        <ele>5</ele>
        <time>2010-08-13T14:16:11Z</time>
      </trkpt>
      <trkpt lat="47.04258" lon="-1.95382">
        <ele>5</ele>
        <time>2010-08-13T14:16:16Z</time>
      </trkpt>
      <trkpt lat="47.0426" lon="-1.9538">
        <ele>5</ele>
        <time>2010-08-13T14:16:21Z</time>
      </trkpt>
      <trkpt lat="47.04262" lon="-1.95379">
        <ele>5</ele>
        <time>2010-08-13T14:16:26Z</time>
      </trkpt>
      <trkpt lat="47.04262" lon="-1.95375">
        <ele>5</ele>
        <time>2010-08-13T14:16:31Z</time>
      </trkpt>
      <trkpt lat="47.0426" lon="-1.9537">
        <ele>5</ele>
        <time>2010-08-13T14:16:36Z</time>
      </trkpt>
      <trkpt lat="47.04261" lon="-1.95367">
        <ele>5</ele>
        <time>2010-08-13T14:16:41Z</time>
      </trkpt>
      <trkpt lat="47.04265" lon="-1.95368">
        <ele>5</ele>
        <time>2010-08-13T14:16:46Z</time>
      </trkpt>
      <trkpt lat="47.04266" lon="-1.95366">
        <ele>5</ele>
        <time>2010-08-13T14:16:51Z</time>
      </trkpt>
      <trkpt lat="47.04273" lon="-1.95371">
        <ele>5</ele>
        <time>2010-08-13T14:16:56Z</time>
      </trkpt>
      <trkpt lat="47.04274" lon="-1.95374">
        <ele>5</ele>
        <time>2010-08-13T14:17:01Z</time>
      </trkpt>
      <trkpt lat="47.04272" lon="-1.95374">
        <ele>5</ele>
        <time>2010-08-13T14:17:06Z</time>
      </trkpt>
      <trkpt lat="47.04269" lon="-1.95378">
        <ele>5</ele>
        <time>2010-08-13T14:17:11Z</time>
      </trkpt>
      <trkpt lat="47.04265" lon="-1.95383">
        <ele>5</ele>
        <time>2010-08-13T14:17:16Z</time>
      </trkpt>
      <trkpt lat="47.04262" lon="-1.9538">
        <ele>5</ele>
        <time>2010-08-13T14:17:21Z</time>
      </trkpt>
      <trkpt lat="47.04261" lon="-1.95375">
        <ele>5</ele>
        <time>2010-08-13T14:17:26Z</time>
      </trkpt>
      <trkpt lat="47.04261" lon="-1.95374">
        <ele>5</ele>
        <time>2010-08-13T14:17:31Z</time>
      </trkpt>
      <trkpt lat="47.04263" lon="-1.95377">
        <ele>5</ele>
        <time>2010-08-13T14:17:36Z</time>
      </trkpt>
      <trkpt lat="47.04261" lon="-1.95376">
        <ele>5</ele>
        <time>2010-08-13T14:17:41Z</time>
      </trkpt>
      <trkpt lat="47.04259" lon="-1.95376">
        <ele>5</ele>
        <time>2010-08-13T14:17:46Z</time>
      </trkpt>
      <trkpt lat="47.04257" lon="-1.95376">
        <ele>5</ele>
        <time>2010-08-13T14:17:51Z</time>
      </trkpt>
      <trkpt lat="47.04256" lon="-1.95377">
        <ele>5</ele>
        <time>2010-08-13T14:17:56Z</time>
      </trkpt>
      <trkpt lat="47.04256" lon="-1.95372">
        <ele>5</ele>
        <time>2010-08-13T14:18:01Z</time>
      </trkpt>
      <trkpt lat="47.04255" lon="-1.95372">
        <ele>5</ele>
        <time>2010-08-13T14:18:06Z</time>
      </trkpt>
      <trkpt lat="47.04253" lon="-1.9537">
        <ele>5</ele>
        <time>2010-08-13T14:18:11Z</time>
      </trkpt>
      <trkpt lat="47.04252" lon="-1.9537">
        <ele>5</ele>
        <time>2010-08-13T14:18:16Z</time>
      </trkpt>
      <trkpt lat="47.04255" lon="-1.95368">
        <ele>5</ele>
        <time>2010-08-13T14:18:21Z</time>
      </trkpt>
      <trkpt lat="47.04257" lon="-1.95369">
        <ele>5</ele>
        <time>2010-08-13T14:18:26Z</time>
      </trkpt>
      <trkpt lat="47.04258" lon="-1.95372">
        <ele>5</ele>
        <time>2010-08-13T14:18:31Z</time>
      </trkpt>
      <trkpt lat="47.04254" lon="-1.95375">
        <ele>5</ele>
        <time>2010-08-13T14:18:36Z</time>
      </trkpt>
      <trkpt lat="47.04255" lon="-1.95377">
        <ele>5</ele>
        <time>2010-08-13T14:18:41Z</time>
      </trkpt>
      <trkpt lat="47.04253" lon="-1.95387">
        <ele>4</ele>
        <time>2010-08-13T14:18:46Z</time>
      </trkpt>
      <trkpt lat="47.04249" lon="-1.95384">
        <ele>5</ele>
        <time>2010-08-13T14:18:51Z</time>
      </trkpt>
      <trkpt lat="47.0425" lon="-1.95378">
        <ele>5</ele>
        <time>2010-08-13T14:18:56Z</time>
      </trkpt>
      <trkpt lat="47.04252" lon="-1.95373">
        <ele>5</ele>
        <time>2010-08-13T14:19:01Z</time>
      </trkpt>
      <trkpt lat="47.04252" lon="-1.95378">
        <ele>5</ele>
        <time>2010-08-13T14:19:06Z</time>
      </trkpt>
      <trkpt lat="47.0425" lon="-1.95381">
        <ele>5</ele>
        <time>2010-08-13T14:19:11Z</time>
      </trkpt>
      <trkpt lat="47.04248" lon="-1.95378">
        <ele>5</ele>
        <time>2010-08-13T14:19:16Z</time>
      </trkpt>
      <trkpt lat="47.04248" lon="-1.95379">
        <ele>5</ele>
        <time>2010-08-13T14:19:21Z</time>
      </trkpt>
      <trkpt lat="47.04261" lon="-1.95376">
        <ele>5</ele>
        <time>2010-08-13T14:19:26Z</time>
      </trkpt>
      <trkpt lat="47.04284" lon="-1.95353">
        <ele>5</ele>
        <time>2010-08-13T14:19:31Z</time>
      </trkpt>
      <trkpt lat="47.04283" lon="-1.95313">
        <ele>6</ele>
        <time>2010-08-13T14:19:36Z</time>
      </trkpt>
      <trkpt lat="47.04271" lon="-1.95288">
        <ele>6</ele>
        <time>2010-08-13T14:19:41Z</time>
      </trkpt>
      <trkpt lat="47.04253" lon="-1.95257">
        <ele>7</ele>
        <time>2010-08-13T14:19:46Z</time>
      </trkpt>
      <trkpt lat="47.0424" lon="-1.9523">
        <ele>7</ele>
        <time>2010-08-13T14:19:51Z</time>
      </trkpt>
      <trkpt lat="47.04247" lon="-1.95204">
        <ele>7</ele>
        <time>2010-08-13T14:19:56Z</time>
      </trkpt>
      <trkpt lat="47.04263" lon="-1.95164">
        <ele>9</ele>
        <time>2010-08-13T14:20:01Z</time>
      </trkpt>
      <trkpt lat="47.04278" lon="-1.95148">
        <ele>9</ele>
        <time>2010-08-13T14:20:06Z</time>
      </trkpt>
      <trkpt lat="47.04299" lon="-1.95129">
        <ele>9</ele>
        <time>2010-08-13T14:20:11Z</time>
      </trkpt>
      <trkpt lat="47.04317" lon="-1.95105">
        <ele>9</ele>
        <time>2010-08-13T14:20:16Z</time>
      </trkpt>
      <trkpt lat="47.04317" lon="-1.95106">
        <ele>9</ele>
        <time>2010-08-13T14:20:21Z</time>
      </trkpt>
      <trkpt lat="47.04318" lon="-1.95105">
        <ele>9</ele>
        <time>2010-08-13T14:20:26Z</time>
      </trkpt>
      <trkpt lat="47.0433" lon="-1.95091">
        <ele>9</ele>
        <time>2010-08-13T14:20:31Z</time>
      </trkpt>
      <trkpt lat="47.04351" lon="-1.95054">
        <ele>8</ele>
        <time>2010-08-13T14:20:36Z</time>
      </trkpt>
      <trkpt lat="47.04379" lon="-1.95012">
        <ele>8</ele>
        <time>2010-08-13T14:20:41Z</time>
      </trkpt>
      <trkpt lat="47.04407" lon="-1.94974">
        <ele>8</ele>
        <time>2010-08-13T14:20:46Z</time>
      </trkpt>
      <trkpt lat="47.04428" lon="-1.9494">
        <ele>7</ele>
        <time>2010-08-13T14:20:51Z</time>
      </trkpt>
      <trkpt lat="47.04446" lon="-1.94891">
        <ele>7</ele>
        <time>2010-08-13T14:20:56Z</time>
      </trkpt>
      <trkpt lat="47.04465" lon="-1.94821">
        <ele>8</ele>
        <time>2010-08-13T14:21:01Z</time>
      </trkpt>
      <trkpt lat="47.04476" lon="-1.94755">
        <ele>8</ele>
        <time>2010-08-13T14:21:06Z</time>
      </trkpt>
      <trkpt lat="47.04484" lon="-1.94715">
        <ele>9</ele>
        <time>2010-08-13T14:21:11Z</time>
      </trkpt>
      <trkpt lat="47.0449" lon="-1.94662">
        <ele>8</ele>
        <time>2010-08-13T14:21:16Z</time>
      </trkpt>
      <trkpt lat="47.04496" lon="-1.94608">
        <ele>8</ele>
        <time>2010-08-13T14:21:21Z</time>
      </trkpt>
      <trkpt lat="47.04505" lon="-1.94546">
        <ele>8</ele>
        <time>2010-08-13T14:21:26Z</time>
      </trkpt>
      <trkpt lat="47.04511" lon="-1.94494">
        <ele>9</ele>
        <time>2010-08-13T14:21:31Z</time>
      </trkpt>
      <trkpt lat="47.04518" lon="-1.94453">
        <ele>10</ele>
        <time>2010-08-13T14:21:36Z</time>
      </trkpt>
      <trkpt lat="47.04532" lon="-1.94408">
        <ele>10</ele>
        <time>2010-08-13T14:21:41Z</time>
      </trkpt>
      <trkpt lat="47.04533" lon="-1.9434">
        <ele>10</ele>
        <time>2010-08-13T14:21:46Z</time>
      </trkpt>
      <trkpt lat="47.04538" lon="-1.9429">
        <ele>11</ele>
        <time>2010-08-13T14:21:51Z</time>
      </trkpt>
      <trkpt lat="47.04543" lon="-1.94251">
        <ele>11</ele>
        <time>2010-08-13T14:21:56Z</time>
      </trkpt>
      <trkpt lat="47.04548" lon="-1.94204">
        <ele>13</ele>
        <time>2010-08-13T14:22:01Z</time>
      </trkpt>
      <trkpt lat="47.04557" lon="-1.94158">
        <ele>14</ele>
        <time>2010-08-13T14:22:06Z</time>
      </trkpt>
      <trkpt lat="47.04564" lon="-1.94105">
        <ele>15</ele>
        <time>2010-08-13T14:22:11Z</time>
      </trkpt>
      <trkpt lat="47.04572" lon="-1.94063">
        <ele>15</ele>
        <time>2010-08-13T14:22:16Z</time>
      </trkpt>
      <trkpt lat="47.0458" lon="-1.94029">
        <ele>15</ele>
        <time>2010-08-13T14:22:21Z</time>
      </trkpt>
      <trkpt lat="47.04593" lon="-1.93987">
        <ele>16</ele>
        <time>2010-08-13T14:22:26Z</time>
      </trkpt>
      <trkpt lat="47.04614" lon="-1.9394">
        <ele>16</ele>
        <time>2010-08-13T14:22:31Z</time>
      </trkpt>
      <trkpt lat="47.04634" lon="-1.939">
        <ele>17</ele>
        <time>2010-08-13T14:22:36Z</time>
      </trkpt>
      <trkpt lat="47.04655" lon="-1.93863">
        <ele>17</ele>
        <time>2010-08-13T14:22:41Z</time>
      </trkpt>
      <trkpt lat="47.04672" lon="-1.93834">
        <ele>18</ele>
        <time>2010-08-13T14:22:46Z</time>
      </trkpt>
      <trkpt lat="47.04695" lon="-1.93796">
        <ele>19</ele>
        <time>2010-08-13T14:22:51Z</time>
      </trkpt>
      <trkpt lat="47.04721" lon="-1.93755">
        <ele>20</ele>
        <time>2010-08-13T14:22:56Z</time>
      </trkpt>
      <trkpt lat="47.04744" lon="-1.93718">
        <ele>21</ele>
        <time>2010-08-13T14:23:01Z</time>
      </trkpt>
      <trkpt lat="47.04762" lon="-1.93687">
        <ele>21</ele>
        <time>2010-08-13T14:23:06Z</time>
      </trkpt>
      <trkpt lat="47.04785" lon="-1.93648">
        <ele>21</ele>
        <time>2010-08-13T14:23:11Z</time>
      </trkpt>
      <trkpt lat="47.04807" lon="-1.9361">
        <ele>21</ele>
        <time>2010-08-13T14:23:16Z</time>
      </trkpt>
      <trkpt lat="47.04834" lon="-1.93563">
        <ele>21</ele>
        <time>2010-08-13T14:23:21Z</time>
      </trkpt>
      <trkpt lat="47.04856" lon="-1.93525">
        <ele>21</ele>
        <time>2010-08-13T14:23:26Z</time>
      </trkpt>
      <trkpt lat="47.04873" lon="-1.93494">
        <ele>21</ele>
        <time>2010-08-13T14:23:31Z</time>
      </trkpt>
      <trkpt lat="47.04896" lon="-1.93455">
        <ele>22</ele>
        <time>2010-08-13T14:23:36Z</time>
      </trkpt>
      <trkpt lat="47.04923" lon="-1.93407">
        <ele>23</ele>
        <time>2010-08-13T14:23:41Z</time>
      </trkpt>
      <trkpt lat="47.04947" lon="-1.93367">
        <ele>24</ele>
        <time>2010-08-13T14:23:46Z</time>
      </trkpt>
      <trkpt lat="47.04966" lon="-1.93335">
        <ele>24</ele>
        <time>2010-08-13T14:23:51Z</time>
      </trkpt>
      <trkpt lat="47.0499" lon="-1.93295">
        <ele>25</ele>
        <time>2010-08-13T14:23:56Z</time>
      </trkpt>
      <trkpt lat="47.05015" lon="-1.93253">
        <ele>24</ele>
        <time>2010-08-13T14:24:01Z</time>
      </trkpt>
      <trkpt lat="47.05046" lon="-1.93203">
        <ele>24</ele>
        <time>2010-08-13T14:24:06Z</time>
      </trkpt>
      <trkpt lat="47.0507" lon="-1.93162">
        <ele>24</ele>
        <time>2010-08-13T14:24:11Z</time>
      </trkpt>
      <trkpt lat="47.05089" lon="-1.93129">
        <ele>22</ele>
        <time>2010-08-13T14:24:16Z</time>
      </trkpt>
      <trkpt lat="47.05114" lon="-1.93087">
        <ele>22</ele>
        <time>2010-08-13T14:24:21Z</time>
      </trkpt>
      <trkpt lat="47.05144" lon="-1.93036">
        <ele>22</ele>
        <time>2010-08-13T14:24:26Z</time>
      </trkpt>
      <trkpt lat="47.05169" lon="-1.92993">
        <ele>22</ele>
        <time>2010-08-13T14:24:31Z</time>
      </trkpt>
      <trkpt lat="47.0519" lon="-1.92957">
        <ele>22</ele>
        <time>2010-08-13T14:24:36Z</time>
      </trkpt>
      <trkpt lat="47.05218" lon="-1.92912">
        <ele>21</ele>
        <time>2010-08-13T14:24:41Z</time>
      </trkpt>
      <trkpt lat="47.05245" lon="-1.92866">
        <ele>21</ele>
        <time>2010-08-13T14:24:46Z</time>
      </trkpt>
      <trkpt lat="47.05279" lon="-1.92811">
        <ele>21</ele>
        <time>2010-08-13T14:24:51Z</time>
      </trkpt>
      <trkpt lat="47.05307" lon="-1.92763">
        <ele>20</ele>
        <time>2010-08-13T14:24:56Z</time>
      </trkpt>
      <trkpt lat="47.0533" lon="-1.92726">
        <ele>20</ele>
        <time>2010-08-13T14:25:01Z</time>
      </trkpt>
      <trkpt lat="47.05357" lon="-1.92679">
        <ele>19</ele>
        <time>2010-08-13T14:25:06Z</time>
      </trkpt>
      <trkpt lat="47.05389" lon="-1.92626">
        <ele>19</ele>
        <time>2010-08-13T14:25:11Z</time>
      </trkpt>
      <trkpt lat="47.05416" lon="-1.92582">
        <ele>18</ele>
        <time>2010-08-13T14:25:16Z</time>
      </trkpt>
      <trkpt lat="47.05437" lon="-1.92548">
        <ele>20</ele>
        <time>2010-08-13T14:25:21Z</time>
      </trkpt>
      <trkpt lat="47.05463" lon="-1.92506">
        <ele>21</ele>
        <time>2010-08-13T14:25:26Z</time>
      </trkpt>
      <trkpt lat="47.05488" lon="-1.92465">
        <ele>21</ele>
        <time>2010-08-13T14:25:31Z</time>
      </trkpt>
      <trkpt lat="47.05519" lon="-1.92417">
        <ele>21</ele>
        <time>2010-08-13T14:25:36Z</time>
      </trkpt>
      <trkpt lat="47.05541" lon="-1.92378">
        <ele>22</ele>
        <time>2010-08-13T14:25:41Z</time>
      </trkpt>
      <trkpt lat="47.05558" lon="-1.92348">
        <ele>22</ele>
        <time>2010-08-13T14:25:46Z</time>
      </trkpt>
      <trkpt lat="47.05583" lon="-1.92308">
        <ele>22</ele>
        <time>2010-08-13T14:25:51Z</time>
      </trkpt>
      <trkpt lat="47.05615" lon="-1.92261">
        <ele>23</ele>
        <time>2010-08-13T14:25:56Z</time>
      </trkpt>
      <trkpt lat="47.05642" lon="-1.92227">
        <ele>23</ele>
        <time>2010-08-13T14:26:01Z</time>
      </trkpt>
      <trkpt lat="47.0567" lon="-1.92195">
        <ele>24</ele>
        <time>2010-08-13T14:26:06Z</time>
      </trkpt>
      <trkpt lat="47.05691" lon="-1.92167">
        <ele>24</ele>
        <time>2010-08-13T14:26:11Z</time>
      </trkpt>
      <trkpt lat="47.05722" lon="-1.9213">
        <ele>25</ele>
        <time>2010-08-13T14:26:16Z</time>
      </trkpt>
      <trkpt lat="47.05755" lon="-1.9209">
        <ele>25</ele>
        <time>2010-08-13T14:26:21Z</time>
      </trkpt>
      <trkpt lat="47.05784" lon="-1.92056">
        <ele>25</ele>
        <time>2010-08-13T14:26:26Z</time>
      </trkpt>
      <trkpt lat="47.05809" lon="-1.92032">
        <ele>25</ele>
        <time>2010-08-13T14:26:31Z</time>
      </trkpt>
      <trkpt lat="47.05842" lon="-1.92003">
        <ele>25</ele>
        <time>2010-08-13T14:26:36Z</time>
      </trkpt>
      <trkpt lat="47.05883" lon="-1.9197">
        <ele>25</ele>
        <time>2010-08-13T14:26:41Z</time>
      </trkpt>
      <trkpt lat="47.0592" lon="-1.91943">
        <ele>24</ele>
        <time>2010-08-13T14:26:46Z</time>
      </trkpt>
      <trkpt lat="47.05958" lon="-1.91917">
        <ele>24</ele>
        <time>2010-08-13T14:26:51Z</time>
      </trkpt>
      <trkpt lat="47.05988" lon="-1.91888">
        <ele>23</ele>
        <time>2010-08-13T14:26:56Z</time>
      </trkpt>
      <trkpt lat="47.06028" lon="-1.91854">
        <ele>23</ele>
        <time>2010-08-13T14:27:01Z</time>
      </trkpt>
      <trkpt lat="47.06074" lon="-1.91816">
        <ele>22</ele>
        <time>2010-08-13T14:27:06Z</time>
      </trkpt>
      <trkpt lat="47.06114" lon="-1.91785">
        <ele>21</ele>
        <time>2010-08-13T14:27:11Z</time>
      </trkpt>
      <trkpt lat="47.06146" lon="-1.91757">
        <ele>20</ele>
        <time>2010-08-13T14:27:16Z</time>
      </trkpt>
      <trkpt lat="47.06185" lon="-1.91727">
        <ele>19</ele>
        <time>2010-08-13T14:27:21Z</time>
      </trkpt>
      <trkpt lat="47.06224" lon="-1.91693">
        <ele>19</ele>
        <time>2010-08-13T14:27:26Z</time>
      </trkpt>
      <trkpt lat="47.0627" lon="-1.91649">
        <ele>19</ele>
        <time>2010-08-13T14:27:31Z</time>
      </trkpt>
      <trkpt lat="47.06307" lon="-1.91613">
        <ele>19</ele>
        <time>2010-08-13T14:27:36Z</time>
      </trkpt>
      <trkpt lat="47.06336" lon="-1.91583">
        <ele>20</ele>
        <time>2010-08-13T14:27:41Z</time>
      </trkpt>
      <trkpt lat="47.06368" lon="-1.91545">
        <ele>21</ele>
        <time>2010-08-13T14:27:46Z</time>
      </trkpt>
      <trkpt lat="47.06402" lon="-1.91493">
        <ele>22</ele>
        <time>2010-08-13T14:27:51Z</time>
      </trkpt>
      <trkpt lat="47.06424" lon="-1.91452">
        <ele>22</ele>
        <time>2010-08-13T14:27:56Z</time>
      </trkpt>
      <trkpt lat="47.06441" lon="-1.91417">
        <ele>23</ele>
        <time>2010-08-13T14:28:01Z</time>
      </trkpt>
      <trkpt lat="47.06458" lon="-1.91368">
        <ele>23</ele>
        <time>2010-08-13T14:28:06Z</time>
      </trkpt>
      <trkpt lat="47.06474" lon="-1.91322">
        <ele>24</ele>
        <time>2010-08-13T14:28:11Z</time>
      </trkpt>
      <trkpt lat="47.06492" lon="-1.91266">
        <ele>25</ele>
        <time>2010-08-13T14:28:16Z</time>
      </trkpt>
      <trkpt lat="47.06506" lon="-1.91218">
        <ele>25</ele>
        <time>2010-08-13T14:28:21Z</time>
      </trkpt>
      <trkpt lat="47.06519" lon="-1.91179">
        <ele>25</ele>
        <time>2010-08-13T14:28:26Z</time>
      </trkpt>
      <trkpt lat="47.06535" lon="-1.91127">
        <ele>25</ele>
        <time>2010-08-13T14:28:31Z</time>
      </trkpt>
      <trkpt lat="47.06555" lon="-1.91067">
        <ele>25</ele>
        <time>2010-08-13T14:28:36Z</time>
      </trkpt>
      <trkpt lat="47.06578" lon="-1.91017">
        <ele>25</ele>
        <time>2010-08-13T14:28:41Z</time>
      </trkpt>
      <trkpt lat="47.06604" lon="-1.90972">
        <ele>24</ele>
        <time>2010-08-13T14:28:46Z</time>
      </trkpt>
      <trkpt lat="47.06627" lon="-1.90937">
        <ele>24</ele>
        <time>2010-08-13T14:28:51Z</time>
      </trkpt>
      <trkpt lat="47.06648" lon="-1.90894">
        <ele>23</ele>
        <time>2010-08-13T14:28:56Z</time>
      </trkpt>
      <trkpt lat="47.06681" lon="-1.90843">
        <ele>23</ele>
        <time>2010-08-13T14:29:01Z</time>
      </trkpt>
      <trkpt lat="47.0671" lon="-1.90799">
        <ele>23</ele>
        <time>2010-08-13T14:29:06Z</time>
      </trkpt>
      <trkpt lat="47.06734" lon="-1.90763">
        <ele>23</ele>
        <time>2010-08-13T14:29:11Z</time>
      </trkpt>
      <trkpt lat="47.06764" lon="-1.90719">
        <ele>22</ele>
        <time>2010-08-13T14:29:16Z</time>
      </trkpt>
      <trkpt lat="47.068" lon="-1.90663">
        <ele>22</ele>
        <time>2010-08-13T14:29:21Z</time>
      </trkpt>
      <trkpt lat="47.06833" lon="-1.90616">
        <ele>22</ele>
        <time>2010-08-13T14:29:26Z</time>
      </trkpt>
      <trkpt lat="47.0686" lon="-1.90568">
        <ele>22</ele>
        <time>2010-08-13T14:29:31Z</time>
      </trkpt>
      <trkpt lat="47.06878" lon="-1.90525">
        <ele>22</ele>
        <time>2010-08-13T14:29:36Z</time>
      </trkpt>
      <trkpt lat="47.069" lon="-1.90476">
        <ele>23</ele>
        <time>2010-08-13T14:29:41Z</time>
      </trkpt>
      <trkpt lat="47.06927" lon="-1.90419">
        <ele>23</ele>
        <time>2010-08-13T14:29:46Z</time>
      </trkpt>
      <trkpt lat="47.06953" lon="-1.9037">
        <ele>24</ele>
        <time>2010-08-13T14:29:51Z</time>
      </trkpt>
      <trkpt lat="47.0697" lon="-1.9033">
        <ele>24</ele>
        <time>2010-08-13T14:29:56Z</time>
      </trkpt>
      <trkpt lat="47.06994" lon="-1.90278">
        <ele>24</ele>
        <time>2010-08-13T14:30:01Z</time>
      </trkpt>
      <trkpt lat="47.07019" lon="-1.90225">
        <ele>23</ele>
        <time>2010-08-13T14:30:06Z</time>
      </trkpt>
      <trkpt lat="47.07053" lon="-1.9016">
        <ele>22</ele>
        <time>2010-08-13T14:30:11Z</time>
      </trkpt>
      <trkpt lat="47.07077" lon="-1.90098">
        <ele>21</ele>
        <time>2010-08-13T14:30:16Z</time>
      </trkpt>
      <trkpt lat="47.07094" lon="-1.90047">
        <ele>21</ele>
        <time>2010-08-13T14:30:21Z</time>
      </trkpt>
      <trkpt lat="47.07115" lon="-1.89987">
        <ele>20</ele>
        <time>2010-08-13T14:30:26Z</time>
      </trkpt>
      <trkpt lat="47.07141" lon="-1.89919">
        <ele>21</ele>
        <time>2010-08-13T14:30:31Z</time>
      </trkpt>
      <trkpt lat="47.07161" lon="-1.89866">
        <ele>21</ele>
        <time>2010-08-13T14:30:36Z</time>
      </trkpt>
      <trkpt lat="47.07176" lon="-1.89825">
        <ele>23</ele>
        <time>2010-08-13T14:30:41Z</time>
      </trkpt>
      <trkpt lat="47.07191" lon="-1.89778">
        <ele>24</ele>
        <time>2010-08-13T14:30:46Z</time>
      </trkpt>
      <trkpt lat="47.07207" lon="-1.89732">
        <ele>25</ele>
        <time>2010-08-13T14:30:51Z</time>
      </trkpt>
      <trkpt lat="47.0723" lon="-1.89677">
        <ele>25</ele>
        <time>2010-08-13T14:30:56Z</time>
      </trkpt>
      <trkpt lat="47.07247" lon="-1.89634">
        <ele>25</ele>
        <time>2010-08-13T14:31:01Z</time>
      </trkpt>
      <trkpt lat="47.07259" lon="-1.89599">
        <ele>26</ele>
        <time>2010-08-13T14:31:06Z</time>
      </trkpt>
      <trkpt lat="47.07274" lon="-1.89556">
        <ele>26</ele>
        <time>2010-08-13T14:31:11Z</time>
      </trkpt>
      <trkpt lat="47.07293" lon="-1.89503">
        <ele>26</ele>
        <time>2010-08-13T14:31:16Z</time>
      </trkpt>
      <trkpt lat="47.07307" lon="-1.89457">
        <ele>27</ele>
        <time>2010-08-13T14:31:21Z</time>
      </trkpt>
      <trkpt lat="47.07319" lon="-1.8942">
        <ele>27</ele>
        <time>2010-08-13T14:31:26Z</time>
      </trkpt>
      <trkpt lat="47.07334" lon="-1.89372">
        <ele>27</ele>
        <time>2010-08-13T14:31:31Z</time>
      </trkpt>
      <trkpt lat="47.07349" lon="-1.89323">
        <ele>28</ele>
        <time>2010-08-13T14:31:36Z</time>
      </trkpt>
      <trkpt lat="47.07367" lon="-1.89262">
        <ele>28</ele>
        <time>2010-08-13T14:31:41Z</time>
      </trkpt>
      <trkpt lat="47.07383" lon="-1.89209">
        <ele>27</ele>
        <time>2010-08-13T14:31:46Z</time>
      </trkpt>
      <trkpt lat="47.07395" lon="-1.89166">
        <ele>27</ele>
        <time>2010-08-13T14:31:51Z</time>
      </trkpt>
      <trkpt lat="47.07413" lon="-1.89113">
        <ele>27</ele>
        <time>2010-08-13T14:31:56Z</time>
      </trkpt>
      <trkpt lat="47.07436" lon="-1.8905">
        <ele>27</ele>
        <time>2010-08-13T14:32:01Z</time>
      </trkpt>
      <trkpt lat="47.07453" lon="-1.88997">
        <ele>27</ele>
        <time>2010-08-13T14:32:06Z</time>
      </trkpt>
      <trkpt lat="47.0747" lon="-1.88946">
        <ele>27</ele>
        <time>2010-08-13T14:32:11Z</time>
      </trkpt>
      <trkpt lat="47.07483" lon="-1.88903">
        <ele>26</ele>
        <time>2010-08-13T14:32:16Z</time>
      </trkpt>
      <trkpt lat="47.07504" lon="-1.88835">
        <ele>26</ele>
        <time>2010-08-13T14:32:21Z</time>
      </trkpt>
      <trkpt lat="47.07519" lon="-1.88778">
        <ele>26</ele>
        <time>2010-08-13T14:32:26Z</time>
      </trkpt>
      <trkpt lat="47.07533" lon="-1.88732">
        <ele>26</ele>
        <time>2010-08-13T14:32:31Z</time>
      </trkpt>
      <trkpt lat="47.07549" lon="-1.88673">
        <ele>26</ele>
        <time>2010-08-13T14:32:36Z</time>
      </trkpt>
      <trkpt lat="47.07565" lon="-1.88614">
        <ele>26</ele>
        <time>2010-08-13T14:32:41Z</time>
      </trkpt>
      <trkpt lat="47.0758" lon="-1.88556">
        <ele>26</ele>
        <time>2010-08-13T14:32:46Z</time>
      </trkpt>
      <trkpt lat="47.07596" lon="-1.88486">
        <ele>26</ele>
        <time>2010-08-13T14:32:51Z</time>
      </trkpt>
      <trkpt lat="47.07606" lon="-1.88428">
        <ele>26</ele>
        <time>2010-08-13T14:32:56Z</time>
      </trkpt>
      <trkpt lat="47.07614" lon="-1.88381">
        <ele>27</ele>
        <time>2010-08-13T14:33:01Z</time>
      </trkpt>
      <trkpt lat="47.07625" lon="-1.88322">
        <ele>27</ele>
        <time>2010-08-13T14:33:06Z</time>
      </trkpt>
      <trkpt lat="47.0764" lon="-1.88253">
        <ele>27</ele>
        <time>2010-08-13T14:33:11Z</time>
      </trkpt>
      <trkpt lat="47.0765" lon="-1.88196">
        <ele>26</ele>
        <time>2010-08-13T14:33:16Z</time>
      </trkpt>
      <trkpt lat="47.07656" lon="-1.88147">
        <ele>26</ele>
        <time>2010-08-13T14:33:21Z</time>
      </trkpt>
      <trkpt lat="47.07657" lon="-1.88085">
        <ele>26</ele>
        <time>2010-08-13T14:33:26Z</time>
      </trkpt>
      <trkpt lat="47.07654" lon="-1.88024">
        <ele>26</ele>
        <time>2010-08-13T14:33:31Z</time>
      </trkpt>
      <trkpt lat="47.07654" lon="-1.8795">
        <ele>25</ele>
        <time>2010-08-13T14:33:36Z</time>
      </trkpt>
      <trkpt lat="47.0765" lon="-1.87884">
        <ele>24</ele>
        <time>2010-08-13T14:33:41Z</time>
      </trkpt>
      <trkpt lat="47.07646" lon="-1.87831">
        <ele>23</ele>
        <time>2010-08-13T14:33:46Z</time>
      </trkpt>
      <trkpt lat="47.07643" lon="-1.87767">
        <ele>23</ele>
        <time>2010-08-13T14:33:51Z</time>
      </trkpt>
      <trkpt lat="47.07644" lon="-1.8769">
        <ele>23</ele>
        <time>2010-08-13T14:33:56Z</time>
      </trkpt>
      <trkpt lat="47.0765" lon="-1.8763">
        <ele>23</ele>
        <time>2010-08-13T14:34:01Z</time>
      </trkpt>
      <trkpt lat="47.07658" lon="-1.87584">
        <ele>23</ele>
        <time>2010-08-13T14:34:06Z</time>
      </trkpt>
      <trkpt lat="47.07671" lon="-1.87531">
        <ele>24</ele>
        <time>2010-08-13T14:34:11Z</time>
      </trkpt>
      <trkpt lat="47.07692" lon="-1.87474">
        <ele>25</ele>
        <time>2010-08-13T14:34:16Z</time>
      </trkpt>
      <trkpt lat="47.07714" lon="-1.8743">
        <ele>25</ele>
        <time>2010-08-13T14:34:21Z</time>
      </trkpt>
      <trkpt lat="47.07738" lon="-1.8739">
        <ele>26</ele>
        <time>2010-08-13T14:34:26Z</time>
      </trkpt>
      <trkpt lat="47.07756" lon="-1.87358">
        <ele>26</ele>
        <time>2010-08-13T14:34:31Z</time>
      </trkpt>
      <trkpt lat="47.07782" lon="-1.87319">
        <ele>27</ele>
        <time>2010-08-13T14:34:36Z</time>
      </trkpt>
      <trkpt lat="47.07813" lon="-1.87273">
        <ele>27</ele>
        <time>2010-08-13T14:34:41Z</time>
      </trkpt>
      <trkpt lat="47.07838" lon="-1.87232">
        <ele>27</ele>
        <time>2010-08-13T14:34:46Z</time>
      </trkpt>
      <trkpt lat="47.07859" lon="-1.87197">
        <ele>26</ele>
        <time>2010-08-13T14:34:51Z</time>
      </trkpt>
      <trkpt lat="47.07884" lon="-1.87149">
        <ele>26</ele>
        <time>2010-08-13T14:34:56Z</time>
      </trkpt>
      <trkpt lat="47.0791" lon="-1.87096">
        <ele>25</ele>
        <time>2010-08-13T14:35:01Z</time>
      </trkpt>
      <trkpt lat="47.07937" lon="-1.8703">
        <ele>24</ele>
        <time>2010-08-13T14:35:06Z</time>
      </trkpt>
      <trkpt lat="47.07959" lon="-1.86973">
        <ele>25</ele>
        <time>2010-08-13T14:35:11Z</time>
      </trkpt>
      <trkpt lat="47.07977" lon="-1.86926">
        <ele>25</ele>
        <time>2010-08-13T14:35:16Z</time>
      </trkpt>
      <trkpt lat="47.07999" lon="-1.86866">
        <ele>24</ele>
        <time>2010-08-13T14:35:21Z</time>
      </trkpt>
      <trkpt lat="47.08026" lon="-1.86799">
        <ele>22</ele>
        <time>2010-08-13T14:35:26Z</time>
      </trkpt>
      <trkpt lat="47.08048" lon="-1.86744">
        <ele>22</ele>
        <time>2010-08-13T14:35:31Z</time>
      </trkpt>
      <trkpt lat="47.08069" lon="-1.8669">
        <ele>22</ele>
        <time>2010-08-13T14:35:36Z</time>
      </trkpt>
      <trkpt lat="47.08086" lon="-1.86647">
        <ele>21</ele>
        <time>2010-08-13T14:35:41Z</time>
      </trkpt>
      <trkpt lat="47.08109" lon="-1.86593">
        <ele>21</ele>
        <time>2010-08-13T14:35:46Z</time>
      </trkpt>
      <trkpt lat="47.08134" lon="-1.86529">
        <ele>21</ele>
        <time>2010-08-13T14:35:51Z</time>
      </trkpt>
      <trkpt lat="47.08157" lon="-1.86475">
        <ele>21</ele>
        <time>2010-08-13T14:35:56Z</time>
      </trkpt>
      <trkpt lat="47.08174" lon="-1.86433">
        <ele>21</ele>
        <time>2010-08-13T14:36:01Z</time>
      </trkpt>
      <trkpt lat="47.08196" lon="-1.8638">
        <ele>23</ele>
        <time>2010-08-13T14:36:06Z</time>
      </trkpt>
      <trkpt lat="47.08224" lon="-1.86313">
        <ele>24</ele>
        <time>2010-08-13T14:36:11Z</time>
      </trkpt>
      <trkpt lat="47.08248" lon="-1.86258">
        <ele>25</ele>
        <time>2010-08-13T14:36:16Z</time>
      </trkpt>
      <trkpt lat="47.08271" lon="-1.86206">
        <ele>24</ele>
        <time>2010-08-13T14:36:21Z</time>
      </trkpt>
      <trkpt lat="47.08288" lon="-1.86164">
        <ele>24</ele>
        <time>2010-08-13T14:36:26Z</time>
      </trkpt>
      <trkpt lat="47.08311" lon="-1.86114">
        <ele>24</ele>
        <time>2010-08-13T14:36:31Z</time>
      </trkpt>
      <trkpt lat="47.0834" lon="-1.86059">
        <ele>23</ele>
        <time>2010-08-13T14:36:36Z</time>
      </trkpt>
      <trkpt lat="47.08368" lon="-1.86013">
        <ele>23</ele>
        <time>2010-08-13T14:36:41Z</time>
      </trkpt>
      <trkpt lat="47.08389" lon="-1.85977">
        <ele>23</ele>
        <time>2010-08-13T14:36:46Z</time>
      </trkpt>
      <trkpt lat="47.08415" lon="-1.85929">
        <ele>22</ele>
        <time>2010-08-13T14:36:51Z</time>
      </trkpt>
      <trkpt lat="47.08442" lon="-1.85878">
        <ele>21</ele>
        <time>2010-08-13T14:36:56Z</time>
      </trkpt>
      <trkpt lat="47.08473" lon="-1.85811">
        <ele>20</ele>
        <time>2010-08-13T14:37:01Z</time>
      </trkpt>
      <trkpt lat="47.08499" lon="-1.85754">
        <ele>19</ele>
        <time>2010-08-13T14:37:06Z</time>
      </trkpt>
      <trkpt lat="47.0852" lon="-1.85709">
        <ele>19</ele>
        <time>2010-08-13T14:37:11Z</time>
      </trkpt>
      <trkpt lat="47.08544" lon="-1.8565">
        <ele>19</ele>
        <time>2010-08-13T14:37:16Z</time>
      </trkpt>
      <trkpt lat="47.0857" lon="-1.85576">
        <ele>18</ele>
        <time>2010-08-13T14:37:21Z</time>
      </trkpt>
      <trkpt lat="47.08586" lon="-1.85509">
        <ele>17</ele>
        <time>2010-08-13T14:37:26Z</time>
      </trkpt>
      <trkpt lat="47.08594" lon="-1.85453">
        <ele>16</ele>
        <time>2010-08-13T14:37:31Z</time>
      </trkpt>
      <trkpt lat="47.08599" lon="-1.8538">
        <ele>15</ele>
        <time>2010-08-13T14:37:36Z</time>
      </trkpt>
      <trkpt lat="47.086" lon="-1.8529">
        <ele>15</ele>
        <time>2010-08-13T14:37:41Z</time>
      </trkpt>
      <trkpt lat="47.08599" lon="-1.85214">
        <ele>14</ele>
        <time>2010-08-13T14:37:46Z</time>
      </trkpt>
      <trkpt lat="47.08602" lon="-1.85137">
        <ele>13</ele>
        <time>2010-08-13T14:37:51Z</time>
      </trkpt>
      <trkpt lat="47.08606" lon="-1.85075">
        <ele>13</ele>
        <time>2010-08-13T14:37:56Z</time>
      </trkpt>
      <trkpt lat="47.08614" lon="-1.84999">
        <ele>12</ele>
        <time>2010-08-13T14:38:01Z</time>
      </trkpt>
      <trkpt lat="47.08636" lon="-1.8493">
        <ele>12</ele>
        <time>2010-08-13T14:38:06Z</time>
      </trkpt>
      <trkpt lat="47.08657" lon="-1.84838">
        <ele>12</ele>
        <time>2010-08-13T14:38:11Z</time>
      </trkpt>
      <trkpt lat="47.08664" lon="-1.8478">
        <ele>13</ele>
        <time>2010-08-13T14:38:16Z</time>
      </trkpt>
      <trkpt lat="47.08671" lon="-1.84712">
        <ele>12</ele>
        <time>2010-08-13T14:38:21Z</time>
      </trkpt>
      <trkpt lat="47.08688" lon="-1.84635">
        <ele>11</ele>
        <time>2010-08-13T14:38:26Z</time>
      </trkpt>
      <trkpt lat="47.08706" lon="-1.84575">
        <ele>11</ele>
        <time>2010-08-13T14:38:31Z</time>
      </trkpt>
      <trkpt lat="47.08726" lon="-1.84518">
        <ele>11</ele>
        <time>2010-08-13T14:38:36Z</time>
      </trkpt>
      <trkpt lat="47.08744" lon="-1.84472">
        <ele>11</ele>
        <time>2010-08-13T14:38:41Z</time>
      </trkpt>
      <trkpt lat="47.08767" lon="-1.84416">
        <ele>12</ele>
        <time>2010-08-13T14:38:46Z</time>
      </trkpt>
      <trkpt lat="47.08788" lon="-1.8436">
        <ele>12</ele>
        <time>2010-08-13T14:38:51Z</time>
      </trkpt>
      <trkpt lat="47.08814" lon="-1.84291">
        <ele>11</ele>
        <time>2010-08-13T14:38:56Z</time>
      </trkpt>
      <trkpt lat="47.0883" lon="-1.84228">
        <ele>11</ele>
        <time>2010-08-13T14:39:01Z</time>
      </trkpt>
      <trkpt lat="47.0884" lon="-1.84181">
        <ele>10</ele>
        <time>2010-08-13T14:39:06Z</time>
      </trkpt>
      <trkpt lat="47.0885" lon="-1.84121">
        <ele>11</ele>
        <time>2010-08-13T14:39:11Z</time>
      </trkpt>
      <trkpt lat="47.08864" lon="-1.8405">
        <ele>11</ele>
        <time>2010-08-13T14:39:16Z</time>
      </trkpt>
      <trkpt lat="47.08878" lon="-1.83988">
        <ele>9</ele>
        <time>2010-08-13T14:39:21Z</time>
      </trkpt>
      <trkpt lat="47.08888" lon="-1.83938">
        <ele>9</ele>
        <time>2010-08-13T14:39:26Z</time>
      </trkpt>
      <trkpt lat="47.08899" lon="-1.83875">
        <ele>8</ele>
        <time>2010-08-13T14:39:31Z</time>
      </trkpt>
      <trkpt lat="47.08911" lon="-1.83811">
        <ele>8</ele>
        <time>2010-08-13T14:39:36Z</time>
      </trkpt>
      <trkpt lat="47.08925" lon="-1.83739">
        <ele>10</ele>
        <time>2010-08-13T14:39:41Z</time>
      </trkpt>
      <trkpt lat="47.08939" lon="-1.83684">
        <ele>11</ele>
        <time>2010-08-13T14:39:46Z</time>
      </trkpt>
      <trkpt lat="47.08958" lon="-1.83642">
        <ele>12</ele>
        <time>2010-08-13T14:39:51Z</time>
      </trkpt>
      <trkpt lat="47.08983" lon="-1.83592">
        <ele>13</ele>
        <time>2010-08-13T14:39:56Z</time>
      </trkpt>
      <trkpt lat="47.0901" lon="-1.83538">
        <ele>15</ele>
        <time>2010-08-13T14:40:01Z</time>
      </trkpt>
      <trkpt lat="47.09031" lon="-1.83505">
        <ele>16</ele>
        <time>2010-08-13T14:40:06Z</time>
      </trkpt>
      <trkpt lat="47.09059" lon="-1.83468">
        <ele>18</ele>
        <time>2010-08-13T14:40:11Z</time>
      </trkpt>
      <trkpt lat="47.09087" lon="-1.83432">
        <ele>17</ele>
        <time>2010-08-13T14:40:16Z</time>
      </trkpt>
      <trkpt lat="47.09115" lon="-1.83398">
        <ele>18</ele>
        <time>2010-08-13T14:40:21Z</time>
      </trkpt>
      <trkpt lat="47.09148" lon="-1.83357">
        <ele>18</ele>
        <time>2010-08-13T14:40:26Z</time>
      </trkpt>
      <trkpt lat="47.09177" lon="-1.83322">
        <ele>16</ele>
        <time>2010-08-13T14:40:31Z</time>
      </trkpt>
      <trkpt lat="47.09198" lon="-1.83294">
        <ele>16</ele>
        <time>2010-08-13T14:40:36Z</time>
      </trkpt>
      <trkpt lat="47.09221" lon="-1.83255">
        <ele>15</ele>
        <time>2010-08-13T14:40:41Z</time>
      </trkpt>
      <trkpt lat="47.09248" lon="-1.83204">
        <ele>15</ele>
        <time>2010-08-13T14:40:46Z</time>
      </trkpt>
      <trkpt lat="47.09268" lon="-1.83159">
        <ele>15</ele>
        <time>2010-08-13T14:40:51Z</time>
      </trkpt>
      <trkpt lat="47.09283" lon="-1.83123">
        <ele>15</ele>
        <time>2010-08-13T14:40:56Z</time>
      </trkpt>
      <trkpt lat="47.09303" lon="-1.83079">
        <ele>17</ele>
        <time>2010-08-13T14:41:01Z</time>
      </trkpt>
      <trkpt lat="47.09324" lon="-1.83035">
        <ele>17</ele>
        <time>2010-08-13T14:41:06Z</time>
      </trkpt>
      <trkpt lat="47.09344" lon="-1.82984">
        <ele>16</ele>
        <time>2010-08-13T14:41:11Z</time>
      </trkpt>
      <trkpt lat="47.09364" lon="-1.8294">
        <ele>16</ele>
        <time>2010-08-13T14:41:16Z</time>
      </trkpt>
      <trkpt lat="47.09381" lon="-1.82904">
        <ele>17</ele>
        <time>2010-08-13T14:41:21Z</time>
      </trkpt>
      <trkpt lat="47.09399" lon="-1.8286">
        <ele>17</ele>
        <time>2010-08-13T14:41:26Z</time>
      </trkpt>
      <trkpt lat="47.09422" lon="-1.82806">
        <ele>18</ele>
        <time>2010-08-13T14:41:31Z</time>
      </trkpt>
      <trkpt lat="47.0944" lon="-1.82761">
        <ele>18</ele>
        <time>2010-08-13T14:41:36Z</time>
      </trkpt>
      <trkpt lat="47.0946" lon="-1.82715">
        <ele>18</ele>
        <time>2010-08-13T14:41:41Z</time>
      </trkpt>
      <trkpt lat="47.09478" lon="-1.82677">
        <ele>17</ele>
        <time>2010-08-13T14:41:46Z</time>
      </trkpt>
      <trkpt lat="47.09495" lon="-1.82627">
        <ele>17</ele>
        <time>2010-08-13T14:41:51Z</time>
      </trkpt>
      <trkpt lat="47.09521" lon="-1.82565">
        <ele>17</ele>
        <time>2010-08-13T14:41:56Z</time>
      </trkpt>
      <trkpt lat="47.09543" lon="-1.82513">
        <ele>17</ele>
        <time>2010-08-13T14:42:01Z</time>
      </trkpt>
      <trkpt lat="47.09562" lon="-1.82471">
        <ele>16</ele>
        <time>2010-08-13T14:42:06Z</time>
      </trkpt>
      <trkpt lat="47.09581" lon="-1.82421">
        <ele>16</ele>
        <time>2010-08-13T14:42:11Z</time>
      </trkpt>
      <trkpt lat="47.09606" lon="-1.82364">
        <ele>17</ele>
        <time>2010-08-13T14:42:16Z</time>
      </trkpt>
      <trkpt lat="47.09625" lon="-1.8232">
        <ele>17</ele>
        <time>2010-08-13T14:42:21Z</time>
      </trkpt>
      <trkpt lat="47.09644" lon="-1.82276">
        <ele>18</ele>
        <time>2010-08-13T14:42:26Z</time>
      </trkpt>
      <trkpt lat="47.09658" lon="-1.82241">
        <ele>18</ele>
        <time>2010-08-13T14:42:31Z</time>
      </trkpt>
      <trkpt lat="47.09675" lon="-1.82196">
        <ele>19</ele>
        <time>2010-08-13T14:42:36Z</time>
      </trkpt>
      <trkpt lat="47.09697" lon="-1.82138">
        <ele>19</ele>
        <time>2010-08-13T14:42:41Z</time>
      </trkpt>
      <trkpt lat="47.09714" lon="-1.82082">
        <ele>18</ele>
        <time>2010-08-13T14:42:46Z</time>
      </trkpt>
      <trkpt lat="47.09729" lon="-1.82035">
        <ele>18</ele>
        <time>2010-08-13T14:42:51Z</time>
      </trkpt>
      <trkpt lat="47.09747" lon="-1.81978">
        <ele>18</ele>
        <time>2010-08-13T14:42:56Z</time>
      </trkpt>
      <trkpt lat="47.09767" lon="-1.81924">
        <ele>18</ele>
        <time>2010-08-13T14:43:01Z</time>
      </trkpt>
      <trkpt lat="47.09794" lon="-1.81862">
        <ele>17</ele>
        <time>2010-08-13T14:43:06Z</time>
      </trkpt>
      <trkpt lat="47.09816" lon="-1.81805">
        <ele>17</ele>
        <time>2010-08-13T14:43:11Z</time>
      </trkpt>
      <trkpt lat="47.0983" lon="-1.81765">
        <ele>17</ele>
        <time>2010-08-13T14:43:16Z</time>
      </trkpt>
      <trkpt lat="47.09857" lon="-1.81712">
        <ele>17</ele>
        <time>2010-08-13T14:43:21Z</time>
      </trkpt>
      <trkpt lat="47.09883" lon="-1.81656">
        <ele>16</ele>
        <time>2010-08-13T14:43:26Z</time>
      </trkpt>
      <trkpt lat="47.09909" lon="-1.81588">
        <ele>15</ele>
        <time>2010-08-13T14:43:31Z</time>
      </trkpt>
      <trkpt lat="47.09926" lon="-1.81542">
        <ele>14</ele>
        <time>2010-08-13T14:43:36Z</time>
      </trkpt>
      <trkpt lat="47.09956" lon="-1.81491">
        <ele>14</ele>
        <time>2010-08-13T14:43:41Z</time>
      </trkpt>
      <trkpt lat="47.1" lon="-1.81432">
        <ele>13</ele>
        <time>2010-08-13T14:43:46Z</time>
      </trkpt>
      <trkpt lat="47.10035" lon="-1.81385">
        <ele>11</ele>
        <time>2010-08-13T14:43:51Z</time>
      </trkpt>
      <trkpt lat="47.10069" lon="-1.81338">
        <ele>11</ele>
        <time>2010-08-13T14:43:56Z</time>
      </trkpt>
      <trkpt lat="47.10092" lon="-1.81301">
        <ele>11</ele>
        <time>2010-08-13T14:44:01Z</time>
      </trkpt>
      <trkpt lat="47.10131" lon="-1.81264">
        <ele>12</ele>
        <time>2010-08-13T14:44:06Z</time>
      </trkpt>
      <trkpt lat="47.10172" lon="-1.81236">
        <ele>13</ele>
        <time>2010-08-13T14:44:11Z</time>
      </trkpt>
      <trkpt lat="47.10205" lon="-1.81201">
        <ele>14</ele>
        <time>2010-08-13T14:44:16Z</time>
      </trkpt>
      <trkpt lat="47.10227" lon="-1.81182">
        <ele>14</ele>
        <time>2010-08-13T14:44:21Z</time>
      </trkpt>
      <trkpt lat="47.10257" lon="-1.81156">
        <ele>15</ele>
        <time>2010-08-13T14:44:26Z</time>
      </trkpt>
      <trkpt lat="47.10293" lon="-1.81122">
        <ele>16</ele>
        <time>2010-08-13T14:44:31Z</time>
      </trkpt>
      <trkpt lat="47.10323" lon="-1.81097">
        <ele>17</ele>
        <time>2010-08-13T14:44:36Z</time>
      </trkpt>
      <trkpt lat="47.10352" lon="-1.8106">
        <ele>18</ele>
        <time>2010-08-13T14:44:41Z</time>
      </trkpt>
      <trkpt lat="47.10373" lon="-1.81031">
        <ele>17</ele>
        <time>2010-08-13T14:44:46Z</time>
      </trkpt>
      <trkpt lat="47.1039" lon="-1.80963">
        <ele>16</ele>
        <time>2010-08-13T14:44:51Z</time>
      </trkpt>
      <trkpt lat="47.10372" lon="-1.80899">
        <ele>14</ele>
        <time>2010-08-13T14:44:56Z</time>
      </trkpt>
      <trkpt lat="47.10367" lon="-1.80821">
        <ele>15</ele>
        <time>2010-08-13T14:45:01Z</time>
      </trkpt>
      <trkpt lat="47.10366" lon="-1.80762">
        <ele>15</ele>
        <time>2010-08-13T14:45:06Z</time>
      </trkpt>
      <trkpt lat="47.10365" lon="-1.80722">
        <ele>17</ele>
        <time>2010-08-13T14:45:11Z</time>
      </trkpt>
      <trkpt lat="47.10367" lon="-1.80679">
        <ele>17</ele>
        <time>2010-08-13T14:45:16Z</time>
      </trkpt>
      <trkpt lat="47.10358" lon="-1.80629">
        <ele>18</ele>
        <time>2010-08-13T14:45:21Z</time>
      </trkpt>
      <trkpt lat="47.10358" lon="-1.80586">
        <ele>17</ele>
        <time>2010-08-13T14:45:26Z</time>
      </trkpt>
      <trkpt lat="47.10356" lon="-1.80552">
        <ele>18</ele>
        <time>2010-08-13T14:45:31Z</time>
      </trkpt>
      <trkpt lat="47.10352" lon="-1.80509">
        <ele>18</ele>
        <time>2010-08-13T14:45:36Z</time>
      </trkpt>
      <trkpt lat="47.10346" lon="-1.80457">
        <ele>19</ele>
        <time>2010-08-13T14:45:41Z</time>
      </trkpt>
      <trkpt lat="47.1034" lon="-1.80412">
        <ele>20</ele>
        <time>2010-08-13T14:45:46Z</time>
      </trkpt>
      <trkpt lat="47.10334" lon="-1.80366">
        <ele>20</ele>
        <time>2010-08-13T14:45:51Z</time>
      </trkpt>
      <trkpt lat="47.10328" lon="-1.80331">
        <ele>20</ele>
        <time>2010-08-13T14:45:56Z</time>
      </trkpt>
      <trkpt lat="47.10329" lon="-1.80284">
        <ele>20</ele>
        <time>2010-08-13T14:46:01Z</time>
      </trkpt>
      <trkpt lat="47.10328" lon="-1.80227">
        <ele>20</ele>
        <time>2010-08-13T14:46:06Z</time>
      </trkpt>
      <trkpt lat="47.10326" lon="-1.80176">
        <ele>20</ele>
        <time>2010-08-13T14:46:11Z</time>
      </trkpt>
      <trkpt lat="47.10325" lon="-1.80134">
        <ele>21</ele>
        <time>2010-08-13T14:46:16Z</time>
      </trkpt>
      <trkpt lat="47.10321" lon="-1.8008">
        <ele>21</ele>
        <time>2010-08-13T14:46:21Z</time>
      </trkpt>
      <trkpt lat="47.10322" lon="-1.80021">
        <ele>20</ele>
        <time>2010-08-13T14:46:26Z</time>
      </trkpt>
      <trkpt lat="47.10328" lon="-1.79949">
        <ele>20</ele>
        <time>2010-08-13T14:46:31Z</time>
      </trkpt>
      <trkpt lat="47.1034" lon="-1.7989">
        <ele>18</ele>
        <time>2010-08-13T14:46:36Z</time>
      </trkpt>
      <trkpt lat="47.1035" lon="-1.79842">
        <ele>18</ele>
        <time>2010-08-13T14:46:41Z</time>
      </trkpt>
      <trkpt lat="47.10367" lon="-1.79781">
        <ele>17</ele>
        <time>2010-08-13T14:46:46Z</time>
      </trkpt>
      <trkpt lat="47.10381" lon="-1.79719">
        <ele>17</ele>
        <time>2010-08-13T14:46:51Z</time>
      </trkpt>
      <trkpt lat="47.10392" lon="-1.79642">
        <ele>17</ele>
        <time>2010-08-13T14:46:56Z</time>
      </trkpt>
      <trkpt lat="47.10394" lon="-1.7959">
        <ele>17</ele>
        <time>2010-08-13T14:47:01Z</time>
      </trkpt>
      <trkpt lat="47.10397" lon="-1.79527">
        <ele>17</ele>
        <time>2010-08-13T14:47:06Z</time>
      </trkpt>
      <trkpt lat="47.10406" lon="-1.79454">
        <ele>15</ele>
        <time>2010-08-13T14:47:11Z</time>
      </trkpt>
      <trkpt lat="47.1042" lon="-1.79394">
        <ele>13</ele>
        <time>2010-08-13T14:47:16Z</time>
      </trkpt>
      <trkpt lat="47.10441" lon="-1.79334">
        <ele>13</ele>
        <time>2010-08-13T14:47:21Z</time>
      </trkpt>
      <trkpt lat="47.10457" lon="-1.79285">
        <ele>13</ele>
        <time>2010-08-13T14:47:26Z</time>
      </trkpt>
      <trkpt lat="47.10474" lon="-1.79223">
        <ele>14</ele>
        <time>2010-08-13T14:47:31Z</time>
      </trkpt>
      <trkpt lat="47.10508" lon="-1.79151">
        <ele>11</ele>
        <time>2010-08-13T14:47:36Z</time>
      </trkpt>
      <trkpt lat="47.10543" lon="-1.79089">
        <ele>10</ele>
        <time>2010-08-13T14:47:41Z</time>
      </trkpt>
      <trkpt lat="47.10551" lon="-1.79041">
        <ele>10</ele>
        <time>2010-08-13T14:47:46Z</time>
      </trkpt>
      <trkpt lat="47.1058" lon="-1.79006">
        <ele>11</ele>
        <time>2010-08-13T14:47:51Z</time>
      </trkpt>
      <trkpt lat="47.10616" lon="-1.7897">
        <ele>11</ele>
        <time>2010-08-13T14:47:56Z</time>
      </trkpt>
      <trkpt lat="47.1065" lon="-1.78929">
        <ele>12</ele>
        <time>2010-08-13T14:48:01Z</time>
      </trkpt>
      <trkpt lat="47.10677" lon="-1.78898">
        <ele>13</ele>
        <time>2010-08-13T14:48:06Z</time>
      </trkpt>
      <trkpt lat="47.10699" lon="-1.7887">
        <ele>13</ele>
        <time>2010-08-13T14:48:11Z</time>
      </trkpt>
      <trkpt lat="47.10727" lon="-1.78833">
        <ele>13</ele>
        <time>2010-08-13T14:48:16Z</time>
      </trkpt>
      <trkpt lat="47.10759" lon="-1.78796">
        <ele>12</ele>
        <time>2010-08-13T14:48:21Z</time>
      </trkpt>
      <trkpt lat="47.10803" lon="-1.78751">
        <ele>11</ele>
        <time>2010-08-13T14:48:26Z</time>
      </trkpt>
      <trkpt lat="47.10841" lon="-1.78712">
        <ele>10</ele>
        <time>2010-08-13T14:48:31Z</time>
      </trkpt>
      <trkpt lat="47.10871" lon="-1.7868">
        <ele>10</ele>
        <time>2010-08-13T14:48:36Z</time>
      </trkpt>
      <trkpt lat="47.10907" lon="-1.78639">
        <ele>9</ele>
        <time>2010-08-13T14:48:41Z</time>
      </trkpt>
      <trkpt lat="47.10944" lon="-1.78584">
        <ele>9</ele>
        <time>2010-08-13T14:48:46Z</time>
      </trkpt>
      <trkpt lat="47.10972" lon="-1.78537">
        <ele>9</ele>
        <time>2010-08-13T14:48:51Z</time>
      </trkpt>
      <trkpt lat="47.1099" lon="-1.78498">
        <ele>10</ele>
        <time>2010-08-13T14:48:56Z</time>
      </trkpt>
      <trkpt lat="47.11007" lon="-1.78449">
        <ele>10</ele>
        <time>2010-08-13T14:49:01Z</time>
      </trkpt>
      <trkpt lat="47.11023" lon="-1.78394">
        <ele>12</ele>
        <time>2010-08-13T14:49:06Z</time>
      </trkpt>
      <trkpt lat="47.11033" lon="-1.7835">
        <ele>12</ele>
        <time>2010-08-13T14:49:11Z</time>
      </trkpt>
      <trkpt lat="47.11044" lon="-1.78308">
        <ele>12</ele>
        <time>2010-08-13T14:49:16Z</time>
      </trkpt>
      <trkpt lat="47.11054" lon="-1.78274">
        <ele>12</ele>
        <time>2010-08-13T14:49:21Z</time>
      </trkpt>
      <trkpt lat="47.11066" lon="-1.78232">
        <ele>13</ele>
        <time>2010-08-13T14:49:26Z</time>
      </trkpt>
      <trkpt lat="47.11084" lon="-1.78182">
        <ele>13</ele>
        <time>2010-08-13T14:49:31Z</time>
      </trkpt>
      <trkpt lat="47.111" lon="-1.78141">
        <ele>14</ele>
        <time>2010-08-13T14:49:36Z</time>
      </trkpt>
      <trkpt lat="47.11118" lon="-1.7811">
        <ele>14</ele>
        <time>2010-08-13T14:49:41Z</time>
      </trkpt>
      <trkpt lat="47.1114" lon="-1.78073">
        <ele>15</ele>
        <time>2010-08-13T14:49:46Z</time>
      </trkpt>
      <trkpt lat="47.11165" lon="-1.78038">
        <ele>15</ele>
        <time>2010-08-13T14:49:51Z</time>
      </trkpt>
      <trkpt lat="47.11195" lon="-1.77995">
        <ele>14</ele>
        <time>2010-08-13T14:49:56Z</time>
      </trkpt>
      <trkpt lat="47.1122" lon="-1.7796">
        <ele>14</ele>
        <time>2010-08-13T14:50:01Z</time>
      </trkpt>
      <trkpt lat="47.11242" lon="-1.77931">
        <ele>15</ele>
        <time>2010-08-13T14:50:06Z</time>
      </trkpt>
      <trkpt lat="47.11266" lon="-1.77896">
        <ele>15</ele>
        <time>2010-08-13T14:50:11Z</time>
      </trkpt>
      <trkpt lat="47.11291" lon="-1.7786">
        <ele>15</ele>
        <time>2010-08-13T14:50:16Z</time>
      </trkpt>
      <trkpt lat="47.11323" lon="-1.77816">
        <ele>16</ele>
        <time>2010-08-13T14:50:21Z</time>
      </trkpt>
      <trkpt lat="47.11342" lon="-1.77786">
        <ele>16</ele>
        <time>2010-08-13T14:50:26Z</time>
      </trkpt>
      <trkpt lat="47.11364" lon="-1.77746">
        <ele>17</ele>
        <time>2010-08-13T14:50:31Z</time>
      </trkpt>
      <trkpt lat="47.11389" lon="-1.77697">
        <ele>18</ele>
        <time>2010-08-13T14:50:36Z</time>
      </trkpt>
      <trkpt lat="47.11409" lon="-1.77656">
        <ele>19</ele>
        <time>2010-08-13T14:50:41Z</time>
      </trkpt>
      <trkpt lat="47.1143" lon="-1.77615">
        <ele>21</ele>
        <time>2010-08-13T14:50:46Z</time>
      </trkpt>
      <trkpt lat="47.11447" lon="-1.77581">
        <ele>22</ele>
        <time>2010-08-13T14:50:51Z</time>
      </trkpt>
      <trkpt lat="47.11467" lon="-1.7754">
        <ele>23</ele>
        <time>2010-08-13T14:50:56Z</time>
      </trkpt>
      <trkpt lat="47.11491" lon="-1.7749">
        <ele>23</ele>
        <time>2010-08-13T14:51:01Z</time>
      </trkpt>
      <trkpt lat="47.1151" lon="-1.77445">
        <ele>22</ele>
        <time>2010-08-13T14:51:06Z</time>
      </trkpt>
      <trkpt lat="47.11527" lon="-1.77398">
        <ele>22</ele>
        <time>2010-08-13T14:51:11Z</time>
      </trkpt>
      <trkpt lat="47.11539" lon="-1.77358">
        <ele>22</ele>
        <time>2010-08-13T14:51:16Z</time>
      </trkpt>
      <trkpt lat="47.11556" lon="-1.77305">
        <ele>21</ele>
        <time>2010-08-13T14:51:21Z</time>
      </trkpt>
      <trkpt lat="47.11578" lon="-1.77236">
        <ele>21</ele>
        <time>2010-08-13T14:51:26Z</time>
      </trkpt>
      <trkpt lat="47.11599" lon="-1.77174">
        <ele>20</ele>
        <time>2010-08-13T14:51:31Z</time>
      </trkpt>
      <trkpt lat="47.11618" lon="-1.77124">
        <ele>18</ele>
        <time>2010-08-13T14:51:36Z</time>
      </trkpt>
      <trkpt lat="47.11631" lon="-1.7706">
        <ele>17</ele>
        <time>2010-08-13T14:51:41Z</time>
      </trkpt>
      <trkpt lat="47.11652" lon="-1.76999">
        <ele>16</ele>
        <time>2010-08-13T14:51:46Z</time>
      </trkpt>
      <trkpt lat="47.11681" lon="-1.76934">
        <ele>17</ele>
        <time>2010-08-13T14:51:51Z</time>
      </trkpt>
      <trkpt lat="47.11707" lon="-1.76887">
        <ele>17</ele>
        <time>2010-08-13T14:51:56Z</time>
      </trkpt>
      <trkpt lat="47.11727" lon="-1.76853">
        <ele>17</ele>
        <time>2010-08-13T14:52:01Z</time>
      </trkpt>
      <trkpt lat="47.11754" lon="-1.76816">
        <ele>19</ele>
        <time>2010-08-13T14:52:06Z</time>
      </trkpt>
      <trkpt lat="47.11788" lon="-1.76776">
        <ele>19</ele>
        <time>2010-08-13T14:52:11Z</time>
      </trkpt>
      <trkpt lat="47.11816" lon="-1.76745">
        <ele>18</ele>
        <time>2010-08-13T14:52:16Z</time>
      </trkpt>
      <trkpt lat="47.11838" lon="-1.7672">
        <ele>19</ele>
        <time>2010-08-13T14:52:21Z</time>
      </trkpt>
      <trkpt lat="47.11866" lon="-1.76689">
        <ele>18</ele>
        <time>2010-08-13T14:52:26Z</time>
      </trkpt>
      <trkpt lat="47.11894" lon="-1.76659">
        <ele>17</ele>
        <time>2010-08-13T14:52:31Z</time>
      </trkpt>
      <trkpt lat="47.1193" lon="-1.76623">
        <ele>19</ele>
        <time>2010-08-13T14:52:36Z</time>
      </trkpt>
      <trkpt lat="47.1196" lon="-1.76595">
        <ele>19</ele>
        <time>2010-08-13T14:52:41Z</time>
      </trkpt>
      <trkpt lat="47.11984" lon="-1.76574">
        <ele>20</ele>
        <time>2010-08-13T14:52:46Z</time>
      </trkpt>
      <trkpt lat="47.12016" lon="-1.76546">
        <ele>21</ele>
        <time>2010-08-13T14:52:51Z</time>
      </trkpt>
      <trkpt lat="47.12055" lon="-1.7652">
        <ele>21</ele>
        <time>2010-08-13T14:52:56Z</time>
      </trkpt>
      <trkpt lat="47.12088" lon="-1.76502">
        <ele>21</ele>
        <time>2010-08-13T14:53:01Z</time>
      </trkpt>
      <trkpt lat="47.12114" lon="-1.76487">
        <ele>20</ele>
        <time>2010-08-13T14:53:06Z</time>
      </trkpt>
      <trkpt lat="47.12147" lon="-1.76474">
        <ele>20</ele>
        <time>2010-08-13T14:53:11Z</time>
      </trkpt>
      <trkpt lat="47.12179" lon="-1.76462">
        <ele>21</ele>
        <time>2010-08-13T14:53:16Z</time>
      </trkpt>
      <trkpt lat="47.12217" lon="-1.76447">
        <ele>21</ele>
        <time>2010-08-13T14:53:21Z</time>
      </trkpt>
      <trkpt lat="47.12248" lon="-1.76436">
        <ele>21</ele>
        <time>2010-08-13T14:53:26Z</time>
      </trkpt>
      <trkpt lat="47.12272" lon="-1.76428">
        <ele>21</ele>
        <time>2010-08-13T14:53:31Z</time>
      </trkpt>
      <trkpt lat="47.12303" lon="-1.76418">
        <ele>22</ele>
        <time>2010-08-13T14:53:36Z</time>
      </trkpt>
      <trkpt lat="47.1234" lon="-1.76404">
        <ele>23</ele>
        <time>2010-08-13T14:53:41Z</time>
      </trkpt>
      <trkpt lat="47.12371" lon="-1.7639">
        <ele>23</ele>
        <time>2010-08-13T14:53:46Z</time>
      </trkpt>
      <trkpt lat="47.12394" lon="-1.76377">
        <ele>24</ele>
        <time>2010-08-13T14:53:51Z</time>
      </trkpt>
      <trkpt lat="47.12424" lon="-1.76359">
        <ele>25</ele>
        <time>2010-08-13T14:53:56Z</time>
      </trkpt>
      <trkpt lat="47.12459" lon="-1.76339">
        <ele>25</ele>
        <time>2010-08-13T14:54:01Z</time>
      </trkpt>
      <trkpt lat="47.1249" lon="-1.76319">
        <ele>26</ele>
        <time>2010-08-13T14:54:06Z</time>
      </trkpt>
      <trkpt lat="47.12518" lon="-1.76301">
        <ele>27</ele>
        <time>2010-08-13T14:54:11Z</time>
      </trkpt>
      <trkpt lat="47.12541" lon="-1.76288">
        <ele>27</ele>
        <time>2010-08-13T14:54:16Z</time>
      </trkpt>
      <trkpt lat="47.1257" lon="-1.76272">
        <ele>27</ele>
        <time>2010-08-13T14:54:21Z</time>
      </trkpt>
      <trkpt lat="47.12604" lon="-1.76253">
        <ele>27</ele>
        <time>2010-08-13T14:54:26Z</time>
      </trkpt>
      <trkpt lat="47.12632" lon="-1.76237">
        <ele>27</ele>
        <time>2010-08-13T14:54:31Z</time>
      </trkpt>
      <trkpt lat="47.12661" lon="-1.76219">
        <ele>27</ele>
        <time>2010-08-13T14:54:36Z</time>
      </trkpt>
      <trkpt lat="47.12685" lon="-1.76202">
        <ele>29</ele>
        <time>2010-08-13T14:54:41Z</time>
      </trkpt>
      <trkpt lat="47.12714" lon="-1.76181">
        <ele>29</ele>
        <time>2010-08-13T14:54:46Z</time>
      </trkpt>
      <trkpt lat="47.12747" lon="-1.76149">
        <ele>30</ele>
        <time>2010-08-13T14:54:51Z</time>
      </trkpt>
      <trkpt lat="47.12775" lon="-1.76119">
        <ele>31</ele>
        <time>2010-08-13T14:54:56Z</time>
      </trkpt>
      <trkpt lat="47.12797" lon="-1.76094">
        <ele>31</ele>
        <time>2010-08-13T14:55:01Z</time>
      </trkpt>
      <trkpt lat="47.12827" lon="-1.76062">
        <ele>30</ele>
        <time>2010-08-13T14:55:06Z</time>
      </trkpt>
      <trkpt lat="47.12855" lon="-1.76025">
        <ele>30</ele>
        <time>2010-08-13T14:55:11Z</time>
      </trkpt>
      <trkpt lat="47.12887" lon="-1.75978">
        <ele>29</ele>
        <time>2010-08-13T14:55:16Z</time>
      </trkpt>
      <trkpt lat="47.12917" lon="-1.75937">
        <ele>29</ele>
        <time>2010-08-13T14:55:21Z</time>
      </trkpt>
      <trkpt lat="47.1294" lon="-1.75904">
        <ele>29</ele>
        <time>2010-08-13T14:55:26Z</time>
      </trkpt>
      <trkpt lat="47.12972" lon="-1.75864">
        <ele>29</ele>
        <time>2010-08-13T14:55:31Z</time>
      </trkpt>
      <trkpt lat="47.12999" lon="-1.75822">
        <ele>28</ele>
        <time>2010-08-13T14:55:36Z</time>
      </trkpt>
      <trkpt lat="47.13033" lon="-1.7577">
        <ele>27</ele>
        <time>2010-08-13T14:55:41Z</time>
      </trkpt>
      <trkpt lat="47.13053" lon="-1.75733">
        <ele>26</ele>
        <time>2010-08-13T14:55:46Z</time>
      </trkpt>
      <trkpt lat="47.13069" lon="-1.75676">
        <ele>25</ele>
        <time>2010-08-13T14:55:51Z</time>
      </trkpt>
      <trkpt lat="47.1308" lon="-1.75617">
        <ele>24</ele>
        <time>2010-08-13T14:55:56Z</time>
      </trkpt>
      <trkpt lat="47.13095" lon="-1.75547">
        <ele>23</ele>
        <time>2010-08-13T14:56:01Z</time>
      </trkpt>
      <trkpt lat="47.13106" lon="-1.75486">
        <ele>22</ele>
        <time>2010-08-13T14:56:06Z</time>
      </trkpt>
      <trkpt lat="47.13099" lon="-1.75436">
        <ele>21</ele>
        <time>2010-08-13T14:56:11Z</time>
      </trkpt>
      <trkpt lat="47.13117" lon="-1.75386">
        <ele>21</ele>
        <time>2010-08-13T14:56:16Z</time>
      </trkpt>
      <trkpt lat="47.13136" lon="-1.75319">
        <ele>19</ele>
        <time>2010-08-13T14:56:21Z</time>
      </trkpt>
      <trkpt lat="47.13148" lon="-1.75243">
        <ele>19</ele>
        <time>2010-08-13T14:56:26Z</time>
      </trkpt>
      <trkpt lat="47.1316" lon="-1.75194">
        <ele>19</ele>
        <time>2010-08-13T14:56:31Z</time>
      </trkpt>
      <trkpt lat="47.13182" lon="-1.75136">
        <ele>19</ele>
        <time>2010-08-13T14:56:36Z</time>
      </trkpt>
      <trkpt lat="47.1322" lon="-1.75079">
        <ele>19</ele>
        <time>2010-08-13T14:56:41Z</time>
      </trkpt>
      <trkpt lat="47.13261" lon="-1.75047">
        <ele>17</ele>
        <time>2010-08-13T14:56:46Z</time>
      </trkpt>
      <trkpt lat="47.13301" lon="-1.75007">
        <ele>16</ele>
        <time>2010-08-13T14:56:51Z</time>
      </trkpt>
      <trkpt lat="47.13334" lon="-1.74963">
        <ele>13</ele>
        <time>2010-08-13T14:56:56Z</time>
      </trkpt>
      <trkpt lat="47.13367" lon="-1.74899">
        <ele>14</ele>
        <time>2010-08-13T14:57:01Z</time>
      </trkpt>
      <trkpt lat="47.1339" lon="-1.74818">
        <ele>14</ele>
        <time>2010-08-13T14:57:06Z</time>
      </trkpt>
      <trkpt lat="47.13419" lon="-1.74777">
        <ele>12</ele>
        <time>2010-08-13T14:57:11Z</time>
      </trkpt>
      <trkpt lat="47.1345" lon="-1.74747">
        <ele>11</ele>
        <time>2010-08-13T14:57:16Z</time>
      </trkpt>
      <trkpt lat="47.1351" lon="-1.747">
        <ele>6</ele>
        <time>2010-08-13T14:57:21Z</time>
      </trkpt>
      <trkpt lat="47.13536" lon="-1.74628">
        <ele>5</ele>
        <time>2010-08-13T14:57:26Z</time>
      </trkpt>
      <trkpt lat="47.13577" lon="-1.74578">
        <ele>3</ele>
        <time>2010-08-13T14:57:31Z</time>
      </trkpt>
      <trkpt lat="47.1361" lon="-1.74544">
        <ele>3</ele>
        <time>2010-08-13T14:57:36Z</time>
      </trkpt>
      <trkpt lat="47.13634" lon="-1.74521">
        <ele>3</ele>
        <time>2010-08-13T14:57:41Z</time>
      </trkpt>
      <trkpt lat="47.13664" lon="-1.74489">
        <ele>4</ele>
        <time>2010-08-13T14:57:46Z</time>
      </trkpt>
      <trkpt lat="47.13695" lon="-1.74453">
        <ele>8</ele>
        <time>2010-08-13T14:57:51Z</time>
      </trkpt>
      <trkpt lat="47.13702" lon="-1.74396">
        <ele>10</ele>
        <time>2010-08-13T14:57:56Z</time>
      </trkpt>
      <trkpt lat="47.13702" lon="-1.74363">
        <ele>10</ele>
        <time>2010-08-13T14:58:01Z</time>
      </trkpt>
      <trkpt lat="47.13702" lon="-1.74341">
        <ele>11</ele>
        <time>2010-08-13T14:58:06Z</time>
      </trkpt>
      <trkpt lat="47.13695" lon="-1.74307">
        <ele>12</ele>
        <time>2010-08-13T14:58:11Z</time>
      </trkpt>
      <trkpt lat="47.13682" lon="-1.74265">
        <ele>13</ele>
        <time>2010-08-13T14:58:16Z</time>
      </trkpt>
      <trkpt lat="47.13668" lon="-1.74225">
        <ele>14</ele>
        <time>2010-08-13T14:58:21Z</time>
      </trkpt>
      <trkpt lat="47.13661" lon="-1.74192">
        <ele>12</ele>
        <time>2010-08-13T14:58:26Z</time>
      </trkpt>
      <trkpt lat="47.13653" lon="-1.74151">
        <ele>13</ele>
        <time>2010-08-13T14:58:31Z</time>
      </trkpt>
      <trkpt lat="47.13647" lon="-1.74109">
        <ele>12</ele>
        <time>2010-08-13T14:58:36Z</time>
      </trkpt>
      <trkpt lat="47.13645" lon="-1.74053">
        <ele>12</ele>
        <time>2010-08-13T14:58:41Z</time>
      </trkpt>
      <trkpt lat="47.1365" lon="-1.73996">
        <ele>12</ele>
        <time>2010-08-13T14:58:46Z</time>
      </trkpt>
      <trkpt lat="47.13651" lon="-1.73942">
        <ele>10</ele>
        <time>2010-08-13T14:58:51Z</time>
      </trkpt>
      <trkpt lat="47.13648" lon="-1.73865">
        <ele>9</ele>
        <time>2010-08-13T14:58:56Z</time>
      </trkpt>
      <trkpt lat="47.13639" lon="-1.73774">
        <ele>9</ele>
        <time>2010-08-13T14:59:01Z</time>
      </trkpt>
      <trkpt lat="47.13633" lon="-1.73719">
        <ele>10</ele>
        <time>2010-08-13T14:59:06Z</time>
      </trkpt>
      <trkpt lat="47.13622" lon="-1.73674">
        <ele>10</ele>
        <time>2010-08-13T14:59:11Z</time>
      </trkpt>
      <trkpt lat="47.13601" lon="-1.73625">
        <ele>12</ele>
        <time>2010-08-13T14:59:16Z</time>
      </trkpt>
      <trkpt lat="47.13584" lon="-1.73575">
        <ele>14</ele>
        <time>2010-08-13T14:59:21Z</time>
      </trkpt>
      <trkpt lat="47.13564" lon="-1.73516">
        <ele>12</ele>
        <time>2010-08-13T14:59:26Z</time>
      </trkpt>
      <trkpt lat="47.1355" lon="-1.73465">
        <ele>11</ele>
        <time>2010-08-13T14:59:31Z</time>
      </trkpt>
      <trkpt lat="47.1354" lon="-1.73423">
        <ele>11</ele>
        <time>2010-08-13T14:59:36Z</time>
      </trkpt>
      <trkpt lat="47.13525" lon="-1.73366">
        <ele>11</ele>
        <time>2010-08-13T14:59:41Z</time>
      </trkpt>
      <trkpt lat="47.13503" lon="-1.73288">
        <ele>10</ele>
        <time>2010-08-13T14:59:46Z</time>
      </trkpt>
      <trkpt lat="47.13511" lon="-1.73226">
        <ele>10</ele>
        <time>2010-08-13T14:59:51Z</time>
      </trkpt>
      <trkpt lat="47.13513" lon="-1.73185">
        <ele>10</ele>
        <time>2010-08-13T14:59:56Z</time>
      </trkpt>
      <trkpt lat="47.13533" lon="-1.73144">
        <ele>11</ele>
        <time>2010-08-13T15:00:01Z</time>
      </trkpt>
      <trkpt lat="47.13552" lon="-1.73116">
        <ele>11</ele>
        <time>2010-08-13T15:00:06Z</time>
      </trkpt>
      <trkpt lat="47.13581" lon="-1.73086">
        <ele>11</ele>
        <time>2010-08-13T15:00:11Z</time>
      </trkpt>
      <trkpt lat="47.13606" lon="-1.73062">
        <ele>12</ele>
        <time>2010-08-13T15:00:16Z</time>
      </trkpt>
      <trkpt lat="47.13621" lon="-1.73048">
        <ele>13</ele>
        <time>2010-08-13T15:00:21Z</time>
      </trkpt>
      <trkpt lat="47.13641" lon="-1.73004">
        <ele>14</ele>
        <time>2010-08-13T15:00:26Z</time>
      </trkpt>
      <trkpt lat="47.13644" lon="-1.7296">
        <ele>15</ele>
        <time>2010-08-13T15:00:31Z</time>
      </trkpt>
      <trkpt lat="47.13646" lon="-1.72927">
        <ele>16</ele>
        <time>2010-08-13T15:00:36Z</time>
      </trkpt>
      <trkpt lat="47.13648" lon="-1.72895">
        <ele>18</ele>
        <time>2010-08-13T15:00:41Z</time>
      </trkpt>
      <trkpt lat="47.13649" lon="-1.72868">
        <ele>18</ele>
        <time>2010-08-13T15:00:46Z</time>
      </trkpt>
      <trkpt lat="47.13652" lon="-1.72835">
        <ele>20</ele>
        <time>2010-08-13T15:00:51Z</time>
      </trkpt>
      <trkpt lat="47.13655" lon="-1.72801">
        <ele>21</ele>
        <time>2010-08-13T15:00:56Z</time>
      </trkpt>
      <trkpt lat="47.1366" lon="-1.7276">
        <ele>22</ele>
        <time>2010-08-13T15:01:01Z</time>
      </trkpt>
      <trkpt lat="47.13663" lon="-1.7273">
        <ele>22</ele>
        <time>2010-08-13T15:01:06Z</time>
      </trkpt>
      <trkpt lat="47.13672" lon="-1.72691">
        <ele>23</ele>
        <time>2010-08-13T15:01:11Z</time>
      </trkpt>
      <trkpt lat="47.13678" lon="-1.72639">
        <ele>23</ele>
        <time>2010-08-13T15:01:16Z</time>
      </trkpt>
      <trkpt lat="47.13684" lon="-1.72591">
        <ele>22</ele>
        <time>2010-08-13T15:01:21Z</time>
      </trkpt>
      <trkpt lat="47.13686" lon="-1.72539">
        <ele>22</ele>
        <time>2010-08-13T15:01:26Z</time>
      </trkpt>
      <trkpt lat="47.13691" lon="-1.72499">
        <ele>22</ele>
        <time>2010-08-13T15:01:31Z</time>
      </trkpt>
      <trkpt lat="47.137" lon="-1.72452">
        <ele>21</ele>
        <time>2010-08-13T15:01:36Z</time>
      </trkpt>
      <trkpt lat="47.13715" lon="-1.72395">
        <ele>20</ele>
        <time>2010-08-13T15:01:41Z</time>
      </trkpt>
      <trkpt lat="47.13728" lon="-1.72343">
        <ele>20</ele>
        <time>2010-08-13T15:01:46Z</time>
      </trkpt>
      <trkpt lat="47.13735" lon="-1.72294">
        <ele>17</ele>
        <time>2010-08-13T15:01:51Z</time>
      </trkpt>
      <trkpt lat="47.13745" lon="-1.7223">
        <ele>15</ele>
        <time>2010-08-13T15:01:56Z</time>
      </trkpt>
      <trkpt lat="47.13774" lon="-1.72175">
        <ele>15</ele>
        <time>2010-08-13T15:02:01Z</time>
      </trkpt>
      <trkpt lat="47.13812" lon="-1.72111">
        <ele>15</ele>
        <time>2010-08-13T15:02:06Z</time>
      </trkpt>
      <trkpt lat="47.13846" lon="-1.72059">
        <ele>13</ele>
        <time>2010-08-13T15:02:11Z</time>
      </trkpt>
      <trkpt lat="47.13873" lon="-1.7202">
        <ele>12</ele>
        <time>2010-08-13T15:02:16Z</time>
      </trkpt>
      <trkpt lat="47.13913" lon="-1.71987">
        <ele>11</ele>
        <time>2010-08-13T15:02:21Z</time>
      </trkpt>
      <trkpt lat="47.13964" lon="-1.71947">
        <ele>12</ele>
        <time>2010-08-13T15:02:26Z</time>
      </trkpt>
      <trkpt lat="47.13954" lon="-1.71884">
        <ele>12</ele>
        <time>2010-08-13T15:02:31Z</time>
      </trkpt>
      <trkpt lat="47.1393" lon="-1.71845">
        <ele>11</ele>
        <time>2010-08-13T15:02:36Z</time>
      </trkpt>
      <trkpt lat="47.13889" lon="-1.71812">
        <ele>11</ele>
        <time>2010-08-13T15:02:41Z</time>
      </trkpt>
      <trkpt lat="47.13871" lon="-1.71782">
        <ele>11</ele>
        <time>2010-08-13T15:02:46Z</time>
      </trkpt>
      <trkpt lat="47.13901" lon="-1.71758">
        <ele>11</ele>
        <time>2010-08-13T15:02:51Z</time>
      </trkpt>
      <trkpt lat="47.13929" lon="-1.7174">
        <ele>12</ele>
        <time>2010-08-13T15:02:56Z</time>
      </trkpt>
      <trkpt lat="47.13943" lon="-1.71718">
        <ele>13</ele>
        <time>2010-08-13T15:03:01Z</time>
      </trkpt>
      <trkpt lat="47.1396" lon="-1.71692">
        <ele>14</ele>
        <time>2010-08-13T15:03:06Z</time>
      </trkpt>
      <trkpt lat="47.13975" lon="-1.71663">
        <ele>15</ele>
        <time>2010-08-13T15:03:11Z</time>
      </trkpt>
      <trkpt lat="47.13991" lon="-1.71625">
        <ele>14</ele>
        <time>2010-08-13T15:03:16Z</time>
      </trkpt>
      <trkpt lat="47.13999" lon="-1.71596">
        <ele>15</ele>
        <time>2010-08-13T15:03:21Z</time>
      </trkpt>
      <trkpt lat="47.14008" lon="-1.71556">
        <ele>16</ele>
        <time>2010-08-13T15:03:26Z</time>
      </trkpt>
      <trkpt lat="47.14018" lon="-1.71504">
        <ele>15</ele>
        <time>2010-08-13T15:03:31Z</time>
      </trkpt>
      <trkpt lat="47.14029" lon="-1.7146">
        <ele>14</ele>
        <time>2010-08-13T15:03:36Z</time>
      </trkpt>
      <trkpt lat="47.14045" lon="-1.71416">
        <ele>13</ele>
        <time>2010-08-13T15:03:41Z</time>
      </trkpt>
      <trkpt lat="47.14059" lon="-1.71381">
        <ele>13</ele>
        <time>2010-08-13T15:03:46Z</time>
      </trkpt>
      <trkpt lat="47.14079" lon="-1.71334">
        <ele>14</ele>
        <time>2010-08-13T15:03:51Z</time>
      </trkpt>
      <trkpt lat="47.141" lon="-1.71269">
        <ele>14</ele>
        <time>2010-08-13T15:03:56Z</time>
      </trkpt>
      <trkpt lat="47.14111" lon="-1.71203">
        <ele>13</ele>
        <time>2010-08-13T15:04:01Z</time>
      </trkpt>
      <trkpt lat="47.14121" lon="-1.71131">
        <ele>11</ele>
        <time>2010-08-13T15:04:06Z</time>
      </trkpt>
      <trkpt lat="47.14126" lon="-1.71079">
        <ele>11</ele>
        <time>2010-08-13T15:04:11Z</time>
      </trkpt>
      <trkpt lat="47.14129" lon="-1.71025">
        <ele>11</ele>
        <time>2010-08-13T15:04:16Z</time>
      </trkpt>
      <trkpt lat="47.14133" lon="-1.70978">
        <ele>13</ele>
        <time>2010-08-13T15:04:21Z</time>
      </trkpt>
      <trkpt lat="47.14136" lon="-1.70928">
        <ele>14</ele>
        <time>2010-08-13T15:04:26Z</time>
      </trkpt>
      <trkpt lat="47.14141" lon="-1.70895">
        <ele>14</ele>
        <time>2010-08-13T15:04:31Z</time>
      </trkpt>
      <trkpt lat="47.14147" lon="-1.70854">
        <ele>14</ele>
        <time>2010-08-13T15:04:36Z</time>
      </trkpt>
      <trkpt lat="47.14155" lon="-1.70811">
        <ele>14</ele>
        <time>2010-08-13T15:04:41Z</time>
      </trkpt>
      <trkpt lat="47.14164" lon="-1.70757">
        <ele>14</ele>
        <time>2010-08-13T15:04:46Z</time>
      </trkpt>
      <trkpt lat="47.14175" lon="-1.70708">
        <ele>14</ele>
        <time>2010-08-13T15:04:51Z</time>
      </trkpt>
      <trkpt lat="47.14183" lon="-1.70667">
        <ele>14</ele>
        <time>2010-08-13T15:04:56Z</time>
      </trkpt>
      <trkpt lat="47.14189" lon="-1.70607">
        <ele>13</ele>
        <time>2010-08-13T15:05:01Z</time>
      </trkpt>
      <trkpt lat="47.14193" lon="-1.70531">
        <ele>13</ele>
        <time>2010-08-13T15:05:06Z</time>
      </trkpt>
      <trkpt lat="47.14199" lon="-1.70464">
        <ele>12</ele>
        <time>2010-08-13T15:05:11Z</time>
      </trkpt>
      <trkpt lat="47.14206" lon="-1.70407">
        <ele>10</ele>
        <time>2010-08-13T15:05:16Z</time>
      </trkpt>
      <trkpt lat="47.14217" lon="-1.70336">
        <ele>9</ele>
        <time>2010-08-13T15:05:21Z</time>
      </trkpt>
      <trkpt lat="47.14226" lon="-1.70265">
        <ele>8</ele>
        <time>2010-08-13T15:05:26Z</time>
      </trkpt>
      <trkpt lat="47.1424" lon="-1.70179">
        <ele>8</ele>
        <time>2010-08-13T15:05:31Z</time>
      </trkpt>
      <trkpt lat="47.14254" lon="-1.70105">
        <ele>6</ele>
        <time>2010-08-13T15:05:36Z</time>
      </trkpt>
      <trkpt lat="47.14261" lon="-1.70049">
        <ele>6</ele>
        <time>2010-08-13T15:05:41Z</time>
      </trkpt>
      <trkpt lat="47.14268" lon="-1.69985">
        <ele>7</ele>
        <time>2010-08-13T15:05:46Z</time>
      </trkpt>
      <trkpt lat="47.14282" lon="-1.6992">
        <ele>8</ele>
        <time>2010-08-13T15:05:51Z</time>
      </trkpt>
      <trkpt lat="47.14296" lon="-1.69869">
        <ele>9</ele>
        <time>2010-08-13T15:05:56Z</time>
      </trkpt>
      <trkpt lat="47.14304" lon="-1.69832">
        <ele>11</ele>
        <time>2010-08-13T15:06:01Z</time>
      </trkpt>
      <trkpt lat="47.14314" lon="-1.69788">
        <ele>11</ele>
        <time>2010-08-13T15:06:06Z</time>
      </trkpt>
      <trkpt lat="47.14324" lon="-1.69746">
        <ele>12</ele>
        <time>2010-08-13T15:06:11Z</time>
      </trkpt>
      <trkpt lat="47.14334" lon="-1.69698">
        <ele>14</ele>
        <time>2010-08-13T15:06:16Z</time>
      </trkpt>
      <trkpt lat="47.14345" lon="-1.69659">
        <ele>15</ele>
        <time>2010-08-13T15:06:21Z</time>
      </trkpt>
      <trkpt lat="47.14351" lon="-1.69628">
        <ele>15</ele>
        <time>2010-08-13T15:06:26Z</time>
      </trkpt>
      <trkpt lat="47.14365" lon="-1.69592">
        <ele>16</ele>
        <time>2010-08-13T15:06:31Z</time>
      </trkpt>
      <trkpt lat="47.14373" lon="-1.69546">
        <ele>17</ele>
        <time>2010-08-13T15:06:36Z</time>
      </trkpt>
      <trkpt lat="47.1438" lon="-1.69509">
        <ele>18</ele>
        <time>2010-08-13T15:06:41Z</time>
      </trkpt>
      <trkpt lat="47.14384" lon="-1.69479">
        <ele>19</ele>
        <time>2010-08-13T15:06:46Z</time>
      </trkpt>
      <trkpt lat="47.14386" lon="-1.69443">
        <ele>20</ele>
        <time>2010-08-13T15:06:51Z</time>
      </trkpt>
      <trkpt lat="47.14389" lon="-1.69411">
        <ele>21</ele>
        <time>2010-08-13T15:06:56Z</time>
      </trkpt>
      <trkpt lat="47.14394" lon="-1.69384">
        <ele>21</ele>
        <time>2010-08-13T15:07:01Z</time>
      </trkpt>
      <trkpt lat="47.14398" lon="-1.69357">
        <ele>21</ele>
        <time>2010-08-13T15:07:06Z</time>
      </trkpt>
      <trkpt lat="47.14402" lon="-1.69326">
        <ele>21</ele>
        <time>2010-08-13T15:07:11Z</time>
      </trkpt>
      <trkpt lat="47.14404" lon="-1.69281">
        <ele>20</ele>
        <time>2010-08-13T15:07:16Z</time>
      </trkpt>
      <trkpt lat="47.14404" lon="-1.69222">
        <ele>19</ele>
        <time>2010-08-13T15:07:21Z</time>
      </trkpt>
      <trkpt lat="47.14403" lon="-1.69174">
        <ele>20</ele>
        <time>2010-08-13T15:07:26Z</time>
      </trkpt>
      <trkpt lat="47.14401" lon="-1.69125">
        <ele>20</ele>
        <time>2010-08-13T15:07:31Z</time>
      </trkpt>
      <trkpt lat="47.14403" lon="-1.69082">
        <ele>20</ele>
        <time>2010-08-13T15:07:36Z</time>
      </trkpt>
      <trkpt lat="47.14405" lon="-1.6903">
        <ele>20</ele>
        <time>2010-08-13T15:07:41Z</time>
      </trkpt>
      <trkpt lat="47.14407" lon="-1.68963">
        <ele>19</ele>
        <time>2010-08-13T15:07:46Z</time>
      </trkpt>
      <trkpt lat="47.14409" lon="-1.68907">
        <ele>19</ele>
        <time>2010-08-13T15:07:51Z</time>
      </trkpt>
      <trkpt lat="47.1441" lon="-1.68861">
        <ele>18</ele>
        <time>2010-08-13T15:07:56Z</time>
      </trkpt>
      <trkpt lat="47.14418" lon="-1.68792">
        <ele>18</ele>
        <time>2010-08-13T15:08:01Z</time>
      </trkpt>
      <trkpt lat="47.14418" lon="-1.68716">
        <ele>17</ele>
        <time>2010-08-13T15:08:06Z</time>
      </trkpt>
      <trkpt lat="47.1441" lon="-1.68626">
        <ele>16</ele>
        <time>2010-08-13T15:08:11Z</time>
      </trkpt>
      <trkpt lat="47.14403" lon="-1.6856">
        <ele>17</ele>
        <time>2010-08-13T15:08:16Z</time>
      </trkpt>
      <trkpt lat="47.14408" lon="-1.68509">
        <ele>17</ele>
        <time>2010-08-13T15:08:21Z</time>
      </trkpt>
      <trkpt lat="47.1441" lon="-1.68435">
        <ele>16</ele>
        <time>2010-08-13T15:08:26Z</time>
      </trkpt>
      <trkpt lat="47.14406" lon="-1.68346">
        <ele>15</ele>
        <time>2010-08-13T15:08:31Z</time>
      </trkpt>
      <trkpt lat="47.14396" lon="-1.68275">
        <ele>15</ele>
        <time>2010-08-13T15:08:36Z</time>
      </trkpt>
      <trkpt lat="47.14386" lon="-1.68221">
        <ele>15</ele>
        <time>2010-08-13T15:08:41Z</time>
      </trkpt>
      <trkpt lat="47.14379" lon="-1.68155">
        <ele>15</ele>
        <time>2010-08-13T15:08:46Z</time>
      </trkpt>
      <trkpt lat="47.14374" lon="-1.68087">
        <ele>14</ele>
        <time>2010-08-13T15:08:51Z</time>
      </trkpt>
      <trkpt lat="47.14371" lon="-1.68004">
        <ele>14</ele>
        <time>2010-08-13T15:08:56Z</time>
      </trkpt>
      <trkpt lat="47.14368" lon="-1.67931">
        <ele>14</ele>
        <time>2010-08-13T15:09:01Z</time>
      </trkpt>
      <trkpt lat="47.1435" lon="-1.67882">
        <ele>14</ele>
        <time>2010-08-13T15:09:06Z</time>
      </trkpt>
      <trkpt lat="47.14349" lon="-1.67817">
        <ele>15</ele>
        <time>2010-08-13T15:09:11Z</time>
      </trkpt>
      <trkpt lat="47.14339" lon="-1.67754">
        <ele>16</ele>
        <time>2010-08-13T15:09:16Z</time>
      </trkpt>
      <trkpt lat="47.14318" lon="-1.67684">
        <ele>15</ele>
        <time>2010-08-13T15:09:21Z</time>
      </trkpt>
      <trkpt lat="47.1431" lon="-1.67633">
        <ele>14</ele>
        <time>2010-08-13T15:09:26Z</time>
      </trkpt>
      <trkpt lat="47.14305" lon="-1.67567">
        <ele>14</ele>
        <time>2010-08-13T15:09:31Z</time>
      </trkpt>
      <trkpt lat="47.14299" lon="-1.67502">
        <ele>15</ele>
        <time>2010-08-13T15:09:36Z</time>
      </trkpt>
      <trkpt lat="47.1428" lon="-1.67434">
        <ele>16</ele>
        <time>2010-08-13T15:09:41Z</time>
      </trkpt>
      <trkpt lat="47.14265" lon="-1.67393">
        <ele>17</ele>
        <time>2010-08-13T15:09:46Z</time>
      </trkpt>
      <trkpt lat="47.14246" lon="-1.67348">
        <ele>17</ele>
        <time>2010-08-13T15:09:51Z</time>
      </trkpt>
      <trkpt lat="47.14228" lon="-1.67303">
        <ele>17</ele>
        <time>2010-08-13T15:09:56Z</time>
      </trkpt>
      <trkpt lat="47.14204" lon="-1.6725">
        <ele>17</ele>
        <time>2010-08-13T15:10:01Z</time>
      </trkpt>
      <trkpt lat="47.14169" lon="-1.6724">
        <ele>16</ele>
        <time>2010-08-13T15:10:06Z</time>
      </trkpt>
      <trkpt lat="47.14145" lon="-1.67213">
        <ele>14</ele>
        <time>2010-08-13T15:10:11Z</time>
      </trkpt>
      <trkpt lat="47.14126" lon="-1.67173">
        <ele>14</ele>
        <time>2010-08-13T15:10:16Z</time>
      </trkpt>
      <trkpt lat="47.14098" lon="-1.67125">
        <ele>12</ele>
        <time>2010-08-13T15:10:21Z</time>
      </trkpt>
      <trkpt lat="47.14063" lon="-1.67067">
        <ele>11</ele>
        <time>2010-08-13T15:10:26Z</time>
      </trkpt>
      <trkpt lat="47.14032" lon="-1.67018">
        <ele>10</ele>
        <time>2010-08-13T15:10:31Z</time>
      </trkpt>
      <trkpt lat="47.14009" lon="-1.6698">
        <ele>11</ele>
        <time>2010-08-13T15:10:36Z</time>
      </trkpt>
      <trkpt lat="47.1398" lon="-1.66932">
        <ele>10</ele>
        <time>2010-08-13T15:10:41Z</time>
      </trkpt>
      <trkpt lat="47.13954" lon="-1.66866">
        <ele>10</ele>
        <time>2010-08-13T15:10:46Z</time>
      </trkpt>
      <trkpt lat="47.13932" lon="-1.66809">
        <ele>10</ele>
        <time>2010-08-13T15:10:51Z</time>
      </trkpt>
      <trkpt lat="47.1391" lon="-1.66754">
        <ele>11</ele>
        <time>2010-08-13T15:10:56Z</time>
      </trkpt>
      <trkpt lat="47.13889" lon="-1.66712">
        <ele>10</ele>
        <time>2010-08-13T15:11:01Z</time>
      </trkpt>
      <trkpt lat="47.13861" lon="-1.66662">
        <ele>9</ele>
        <time>2010-08-13T15:11:06Z</time>
      </trkpt>
      <trkpt lat="47.13844" lon="-1.66591">
        <ele>9</ele>
        <time>2010-08-13T15:11:11Z</time>
      </trkpt>
      <trkpt lat="47.13837" lon="-1.66532">
        <ele>10</ele>
        <time>2010-08-13T15:11:16Z</time>
      </trkpt>
      <trkpt lat="47.1383" lon="-1.66488">
        <ele>10</ele>
        <time>2010-08-13T15:11:21Z</time>
      </trkpt>
      <trkpt lat="47.13815" lon="-1.66434">
        <ele>11</ele>
        <time>2010-08-13T15:11:26Z</time>
      </trkpt>
      <trkpt lat="47.13792" lon="-1.66386">
        <ele>11</ele>
        <time>2010-08-13T15:11:31Z</time>
      </trkpt>
      <trkpt lat="47.13767" lon="-1.66329">
        <ele>12</ele>
        <time>2010-08-13T15:11:36Z</time>
      </trkpt>
      <trkpt lat="47.13753" lon="-1.66277">
        <ele>13</ele>
        <time>2010-08-13T15:11:41Z</time>
      </trkpt>
      <trkpt lat="47.13748" lon="-1.66234">
        <ele>13</ele>
        <time>2010-08-13T15:11:46Z</time>
      </trkpt>
      <trkpt lat="47.13744" lon="-1.66179">
        <ele>13</ele>
        <time>2010-08-13T15:11:51Z</time>
      </trkpt>
      <trkpt lat="47.13739" lon="-1.66116">
        <ele>12</ele>
        <time>2010-08-13T15:11:56Z</time>
      </trkpt>
      <trkpt lat="47.13736" lon="-1.66064">
        <ele>12</ele>
        <time>2010-08-13T15:12:01Z</time>
      </trkpt>
      <trkpt lat="47.13736" lon="-1.66019">
        <ele>12</ele>
        <time>2010-08-13T15:12:06Z</time>
      </trkpt>
      <trkpt lat="47.13739" lon="-1.65961">
        <ele>12</ele>
        <time>2010-08-13T15:12:11Z</time>
      </trkpt>
      <trkpt lat="47.13743" lon="-1.65902">
        <ele>12</ele>
        <time>2010-08-13T15:12:16Z</time>
      </trkpt>
      <trkpt lat="47.13748" lon="-1.6583">
        <ele>13</ele>
        <time>2010-08-13T15:12:21Z</time>
      </trkpt>
      <trkpt lat="47.13749" lon="-1.6577">
        <ele>13</ele>
        <time>2010-08-13T15:12:26Z</time>
      </trkpt>
      <trkpt lat="47.13743" lon="-1.65722">
        <ele>13</ele>
        <time>2010-08-13T15:12:31Z</time>
      </trkpt>
      <trkpt lat="47.13731" lon="-1.65663">
        <ele>12</ele>
        <time>2010-08-13T15:12:36Z</time>
      </trkpt>
      <trkpt lat="47.13705" lon="-1.65597">
        <ele>12</ele>
        <time>2010-08-13T15:12:41Z</time>
      </trkpt>
      <trkpt lat="47.13679" lon="-1.65544">
        <ele>12</ele>
        <time>2010-08-13T15:12:46Z</time>
      </trkpt>
      <trkpt lat="47.13659" lon="-1.655">
        <ele>12</ele>
        <time>2010-08-13T15:12:51Z</time>
      </trkpt>
      <trkpt lat="47.13634" lon="-1.65447">
        <ele>12</ele>
        <time>2010-08-13T15:12:56Z</time>
      </trkpt>
      <trkpt lat="47.13603" lon="-1.65388">
        <ele>11</ele>
        <time>2010-08-13T15:13:01Z</time>
      </trkpt>
      <trkpt lat="47.13575" lon="-1.65348">
        <ele>11</ele>
        <time>2010-08-13T15:13:06Z</time>
      </trkpt>
      <trkpt lat="47.13544" lon="-1.6531">
        <ele>11</ele>
        <time>2010-08-13T15:13:11Z</time>
      </trkpt>
      <trkpt lat="47.13521" lon="-1.65279">
        <ele>11</ele>
        <time>2010-08-13T15:13:16Z</time>
      </trkpt>
      <trkpt lat="47.13496" lon="-1.65236">
        <ele>12</ele>
        <time>2010-08-13T15:13:21Z</time>
      </trkpt>
      <trkpt lat="47.13473" lon="-1.65176">
        <ele>13</ele>
        <time>2010-08-13T15:13:26Z</time>
      </trkpt>
      <trkpt lat="47.13461" lon="-1.65123">
        <ele>15</ele>
        <time>2010-08-13T15:13:31Z</time>
      </trkpt>
      <trkpt lat="47.1345" lon="-1.6507">
        <ele>17</ele>
        <time>2010-08-13T15:13:36Z</time>
      </trkpt>
      <trkpt lat="47.13442" lon="-1.65029">
        <ele>17</ele>
        <time>2010-08-13T15:13:41Z</time>
      </trkpt>
      <trkpt lat="47.13428" lon="-1.64973">
        <ele>19</ele>
        <time>2010-08-13T15:13:46Z</time>
      </trkpt>
      <trkpt lat="47.13422" lon="-1.64927">
        <ele>20</ele>
        <time>2010-08-13T15:13:51Z</time>
      </trkpt>
      <trkpt lat="47.13415" lon="-1.6488">
        <ele>22</ele>
        <time>2010-08-13T15:13:56Z</time>
      </trkpt>
      <trkpt lat="47.13408" lon="-1.64842">
        <ele>23</ele>
        <time>2010-08-13T15:14:01Z</time>
      </trkpt>
      <trkpt lat="47.13402" lon="-1.64793">
        <ele>24</ele>
        <time>2010-08-13T15:14:06Z</time>
      </trkpt>
      <trkpt lat="47.134" lon="-1.64743">
        <ele>23</ele>
        <time>2010-08-13T15:14:11Z</time>
      </trkpt>
      <trkpt lat="47.134" lon="-1.64682">
        <ele>23</ele>
        <time>2010-08-13T15:14:16Z</time>
      </trkpt>
      <trkpt lat="47.134" lon="-1.64629">
        <ele>23</ele>
        <time>2010-08-13T15:14:21Z</time>
      </trkpt>
      <trkpt lat="47.13394" lon="-1.64586">
        <ele>23</ele>
        <time>2010-08-13T15:14:26Z</time>
      </trkpt>
      <trkpt lat="47.13381" lon="-1.64533">
        <ele>21</ele>
        <time>2010-08-13T15:14:31Z</time>
      </trkpt>
      <trkpt lat="47.13357" lon="-1.64468">
        <ele>19</ele>
        <time>2010-08-13T15:14:36Z</time>
      </trkpt>
      <trkpt lat="47.13331" lon="-1.64411">
        <ele>18</ele>
        <time>2010-08-13T15:14:41Z</time>
      </trkpt>
      <trkpt lat="47.13306" lon="-1.64361">
        <ele>16</ele>
        <time>2010-08-13T15:14:46Z</time>
      </trkpt>
      <trkpt lat="47.13274" lon="-1.64294">
        <ele>15</ele>
        <time>2010-08-13T15:14:51Z</time>
      </trkpt>
      <trkpt lat="47.13244" lon="-1.64226">
        <ele>13</ele>
        <time>2010-08-13T15:14:56Z</time>
      </trkpt>
      <trkpt lat="47.13212" lon="-1.64161">
        <ele>13</ele>
        <time>2010-08-13T15:15:01Z</time>
      </trkpt>
      <trkpt lat="47.13185" lon="-1.64083">
        <ele>12</ele>
        <time>2010-08-13T15:15:06Z</time>
      </trkpt>
      <trkpt lat="47.13163" lon="-1.64036">
        <ele>12</ele>
        <time>2010-08-13T15:15:11Z</time>
      </trkpt>
      <trkpt lat="47.13141" lon="-1.63977">
        <ele>11</ele>
        <time>2010-08-13T15:15:16Z</time>
      </trkpt>
      <trkpt lat="47.13114" lon="-1.63909">
        <ele>11</ele>
        <time>2010-08-13T15:15:21Z</time>
      </trkpt>
      <trkpt lat="47.13089" lon="-1.63851">
        <ele>11</ele>
        <time>2010-08-13T15:15:26Z</time>
      </trkpt>
      <trkpt lat="47.1307" lon="-1.63805">
        <ele>11</ele>
        <time>2010-08-13T15:15:31Z</time>
      </trkpt>
      <trkpt lat="47.13045" lon="-1.63749">
        <ele>10</ele>
        <time>2010-08-13T15:15:36Z</time>
      </trkpt>
      <trkpt lat="47.13021" lon="-1.63694">
        <ele>9</ele>
        <time>2010-08-13T15:15:41Z</time>
      </trkpt>
      <trkpt lat="47.1299" lon="-1.63627">
        <ele>7</ele>
        <time>2010-08-13T15:15:46Z</time>
      </trkpt>
      <trkpt lat="47.12968" lon="-1.63569">
        <ele>6</ele>
        <time>2010-08-13T15:15:51Z</time>
      </trkpt>
      <trkpt lat="47.1295" lon="-1.63525">
        <ele>5</ele>
        <time>2010-08-13T15:15:56Z</time>
      </trkpt>
      <trkpt lat="47.12928" lon="-1.63469">
        <ele>6</ele>
        <time>2010-08-13T15:16:01Z</time>
      </trkpt>
      <trkpt lat="47.12906" lon="-1.63413">
        <ele>6</ele>
        <time>2010-08-13T15:16:06Z</time>
      </trkpt>
      <trkpt lat="47.1288" lon="-1.63346">
        <ele>7</ele>
        <time>2010-08-13T15:16:11Z</time>
      </trkpt>
      <trkpt lat="47.12862" lon="-1.63301">
        <ele>7</ele>
        <time>2010-08-13T15:16:16Z</time>
      </trkpt>
      <trkpt lat="47.12841" lon="-1.63245">
        <ele>6</ele>
        <time>2010-08-13T15:16:21Z</time>
      </trkpt>
      <trkpt lat="47.12827" lon="-1.6319">
        <ele>6</ele>
        <time>2010-08-13T15:16:26Z</time>
      </trkpt>
      <trkpt lat="47.12803" lon="-1.6314">
        <ele>6</ele>
        <time>2010-08-13T15:16:31Z</time>
      </trkpt>
      <trkpt lat="47.12787" lon="-1.63076">
        <ele>6</ele>
        <time>2010-08-13T15:16:36Z</time>
      </trkpt>
      <trkpt lat="47.12777" lon="-1.63039">
        <ele>7</ele>
        <time>2010-08-13T15:16:41Z</time>
      </trkpt>
      <trkpt lat="47.12755" lon="-1.62992">
        <ele>7</ele>
        <time>2010-08-13T15:16:46Z</time>
      </trkpt>
      <trkpt lat="47.12734" lon="-1.62951">
        <ele>8</ele>
        <time>2010-08-13T15:16:51Z</time>
      </trkpt>
      <trkpt lat="47.12708" lon="-1.6289">
        <ele>8</ele>
        <time>2010-08-13T15:16:56Z</time>
      </trkpt>
      <trkpt lat="47.12687" lon="-1.62842">
        <ele>8</ele>
        <time>2010-08-13T15:17:01Z</time>
      </trkpt>
      <trkpt lat="47.12667" lon="-1.62806">
        <ele>8</ele>
        <time>2010-08-13T15:17:06Z</time>
      </trkpt>
      <trkpt lat="47.12647" lon="-1.62756">
        <ele>8</ele>
        <time>2010-08-13T15:17:11Z</time>
      </trkpt>
      <trkpt lat="47.12622" lon="-1.62709">
        <ele>7</ele>
        <time>2010-08-13T15:17:16Z</time>
      </trkpt>
      <trkpt lat="47.12593" lon="-1.6265">
        <ele>7</ele>
        <time>2010-08-13T15:17:21Z</time>
      </trkpt>
      <trkpt lat="47.12578" lon="-1.62606">
        <ele>7</ele>
        <time>2010-08-13T15:17:26Z</time>
      </trkpt>
      <trkpt lat="47.12564" lon="-1.62546">
        <ele>7</ele>
        <time>2010-08-13T15:17:31Z</time>
      </trkpt>
      <trkpt lat="47.12554" lon="-1.62484">
        <ele>7</ele>
        <time>2010-08-13T15:17:36Z</time>
      </trkpt>
      <trkpt lat="47.12539" lon="-1.62412">
        <ele>7</ele>
        <time>2010-08-13T15:17:41Z</time>
      </trkpt>
      <trkpt lat="47.12523" lon="-1.62354">
        <ele>7</ele>
        <time>2010-08-13T15:17:46Z</time>
      </trkpt>
      <trkpt lat="47.12498" lon="-1.62314">
        <ele>6</ele>
        <time>2010-08-13T15:17:51Z</time>
      </trkpt>
      <trkpt lat="47.12467" lon="-1.6227">
        <ele>5</ele>
        <time>2010-08-13T15:17:56Z</time>
      </trkpt>
      <trkpt lat="47.12432" lon="-1.6222">
        <ele>5</ele>
        <time>2010-08-13T15:18:01Z</time>
      </trkpt>
      <trkpt lat="47.12406" lon="-1.62177">
        <ele>5</ele>
        <time>2010-08-13T15:18:06Z</time>
      </trkpt>
      <trkpt lat="47.12391" lon="-1.62137">
        <ele>6</ele>
        <time>2010-08-13T15:18:11Z</time>
      </trkpt>
      <trkpt lat="47.12382" lon="-1.62083">
        <ele>8</ele>
        <time>2010-08-13T15:18:16Z</time>
      </trkpt>
      <trkpt lat="47.12383" lon="-1.62026">
        <ele>8</ele>
        <time>2010-08-13T15:18:21Z</time>
      </trkpt>
      <trkpt lat="47.12398" lon="-1.61962">
        <ele>8</ele>
        <time>2010-08-13T15:18:26Z</time>
      </trkpt>
      <trkpt lat="47.12412" lon="-1.61911">
        <ele>7</ele>
        <time>2010-08-13T15:18:31Z</time>
      </trkpt>
      <trkpt lat="47.12425" lon="-1.61871">
        <ele>8</ele>
        <time>2010-08-13T15:18:36Z</time>
      </trkpt>
      <trkpt lat="47.12439" lon="-1.61819">
        <ele>9</ele>
        <time>2010-08-13T15:18:41Z</time>
      </trkpt>
      <trkpt lat="47.12454" lon="-1.61754">
        <ele>9</ele>
        <time>2010-08-13T15:18:46Z</time>
      </trkpt>
      <trkpt lat="47.12468" lon="-1.61701">
        <ele>9</ele>
        <time>2010-08-13T15:18:51Z</time>
      </trkpt>
      <trkpt lat="47.12476" lon="-1.61659">
        <ele>9</ele>
        <time>2010-08-13T15:18:56Z</time>
      </trkpt>
      <trkpt lat="47.1248" lon="-1.61604">
        <ele>9</ele>
        <time>2010-08-13T15:19:01Z</time>
      </trkpt>
      <trkpt lat="47.12474" lon="-1.61548">
        <ele>10</ele>
        <time>2010-08-13T15:19:06Z</time>
      </trkpt>
      <trkpt lat="47.12467" lon="-1.61482">
        <ele>11</ele>
        <time>2010-08-13T15:19:11Z</time>
      </trkpt>
      <trkpt lat="47.12461" lon="-1.61426">
        <ele>11</ele>
        <time>2010-08-13T15:19:16Z</time>
      </trkpt>
      <trkpt lat="47.12457" lon="-1.61382">
        <ele>11</ele>
        <time>2010-08-13T15:19:21Z</time>
      </trkpt>
      <trkpt lat="47.12463" lon="-1.61327">
        <ele>11</ele>
        <time>2010-08-13T15:19:26Z</time>
      </trkpt>
      <trkpt lat="47.12483" lon="-1.61267">
        <ele>10</ele>
        <time>2010-08-13T15:19:31Z</time>
      </trkpt>
      <trkpt lat="47.12498" lon="-1.61213">
        <ele>10</ele>
        <time>2010-08-13T15:19:36Z</time>
      </trkpt>
      <trkpt lat="47.12506" lon="-1.61157">
        <ele>10</ele>
        <time>2010-08-13T15:19:41Z</time>
      </trkpt>
      <trkpt lat="47.1251" lon="-1.61109">
        <ele>10</ele>
        <time>2010-08-13T15:19:46Z</time>
      </trkpt>
      <trkpt lat="47.12515" lon="-1.61049">
        <ele>10</ele>
        <time>2010-08-13T15:19:51Z</time>
      </trkpt>
      <trkpt lat="47.12521" lon="-1.60977">
        <ele>10</ele>
        <time>2010-08-13T15:19:56Z</time>
      </trkpt>
      <trkpt lat="47.12527" lon="-1.60917">
        <ele>10</ele>
        <time>2010-08-13T15:20:01Z</time>
      </trkpt>
      <trkpt lat="47.12531" lon="-1.60868">
        <ele>10</ele>
        <time>2010-08-13T15:20:06Z</time>
      </trkpt>
      <trkpt lat="47.12537" lon="-1.60807">
        <ele>10</ele>
        <time>2010-08-13T15:20:11Z</time>
      </trkpt>
      <trkpt lat="47.12543" lon="-1.60744">
        <ele>9</ele>
        <time>2010-08-13T15:20:16Z</time>
      </trkpt>
      <trkpt lat="47.12544" lon="-1.60668">
        <ele>9</ele>
        <time>2010-08-13T15:20:21Z</time>
      </trkpt>
      <trkpt lat="47.12543" lon="-1.60605">
        <ele>9</ele>
        <time>2010-08-13T15:20:26Z</time>
      </trkpt>
      <trkpt lat="47.12543" lon="-1.60555">
        <ele>10</ele>
        <time>2010-08-13T15:20:31Z</time>
      </trkpt>
      <trkpt lat="47.12539" lon="-1.60491">
        <ele>10</ele>
        <time>2010-08-13T15:20:36Z</time>
      </trkpt>
      <trkpt lat="47.12527" lon="-1.60414">
        <ele>9</ele>
        <time>2010-08-13T15:20:41Z</time>
      </trkpt>
      <trkpt lat="47.12514" lon="-1.60349">
        <ele>7</ele>
        <time>2010-08-13T15:20:46Z</time>
      </trkpt>
      <trkpt lat="47.12502" lon="-1.60294">
        <ele>6</ele>
        <time>2010-08-13T15:20:51Z</time>
      </trkpt>
      <trkpt lat="47.12489" lon="-1.60228">
        <ele>6</ele>
        <time>2010-08-13T15:20:56Z</time>
      </trkpt>
      <trkpt lat="47.1248" lon="-1.60168">
        <ele>6</ele>
        <time>2010-08-13T15:21:01Z</time>
      </trkpt>
      <trkpt lat="47.12476" lon="-1.601">
        <ele>8</ele>
        <time>2010-08-13T15:21:06Z</time>
      </trkpt>
      <trkpt lat="47.12474" lon="-1.60045">
        <ele>9</ele>
        <time>2010-08-13T15:21:11Z</time>
      </trkpt>
      <trkpt lat="47.12475" lon="-1.60002">
        <ele>9</ele>
        <time>2010-08-13T15:21:16Z</time>
      </trkpt>
      <trkpt lat="47.12473" lon="-1.5995">
        <ele>10</ele>
        <time>2010-08-13T15:21:21Z</time>
      </trkpt>
      <trkpt lat="47.12468" lon="-1.59885">
        <ele>11</ele>
        <time>2010-08-13T15:21:26Z</time>
      </trkpt>
      <trkpt lat="47.12465" lon="-1.5983">
        <ele>11</ele>
        <time>2010-08-13T15:21:31Z</time>
      </trkpt>
      <trkpt lat="47.12464" lon="-1.59786">
        <ele>10</ele>
        <time>2010-08-13T15:21:36Z</time>
      </trkpt>
      <trkpt lat="47.12461" lon="-1.59732">
        <ele>10</ele>
        <time>2010-08-13T15:21:41Z</time>
      </trkpt>
      <trkpt lat="47.12457" lon="-1.59677">
        <ele>10</ele>
        <time>2010-08-13T15:21:46Z</time>
      </trkpt>
      <trkpt lat="47.12454" lon="-1.5961">
        <ele>10</ele>
        <time>2010-08-13T15:21:51Z</time>
      </trkpt>
      <trkpt lat="47.12452" lon="-1.59552">
        <ele>9</ele>
        <time>2010-08-13T15:21:56Z</time>
      </trkpt>
      <trkpt lat="47.12449" lon="-1.59506">
        <ele>8</ele>
        <time>2010-08-13T15:22:01Z</time>
      </trkpt>
      <trkpt lat="47.12446" lon="-1.59446">
        <ele>7</ele>
        <time>2010-08-13T15:22:06Z</time>
      </trkpt>
      <trkpt lat="47.12443" lon="-1.59373">
        <ele>7</ele>
        <time>2010-08-13T15:22:11Z</time>
      </trkpt>
      <trkpt lat="47.12439" lon="-1.59311">
        <ele>7</ele>
        <time>2010-08-13T15:22:16Z</time>
      </trkpt>
      <trkpt lat="47.12437" lon="-1.59262">
        <ele>7</ele>
        <time>2010-08-13T15:22:21Z</time>
      </trkpt>
      <trkpt lat="47.12429" lon="-1.59199">
        <ele>6</ele>
        <time>2010-08-13T15:22:26Z</time>
      </trkpt>
      <trkpt lat="47.12432" lon="-1.59136">
        <ele>6</ele>
        <time>2010-08-13T15:22:31Z</time>
      </trkpt>
      <trkpt lat="47.1243" lon="-1.59058">
        <ele>7</ele>
        <time>2010-08-13T15:22:36Z</time>
      </trkpt>
      <trkpt lat="47.12429" lon="-1.59001">
        <ele>7</ele>
        <time>2010-08-13T15:22:41Z</time>
      </trkpt>
      <trkpt lat="47.12424" lon="-1.58962">
        <ele>9</ele>
        <time>2010-08-13T15:22:46Z</time>
      </trkpt>
      <trkpt lat="47.12421" lon="-1.58918">
        <ele>10</ele>
        <time>2010-08-13T15:22:51Z</time>
      </trkpt>
      <trkpt lat="47.12413" lon="-1.58859">
        <ele>10</ele>
        <time>2010-08-13T15:22:56Z</time>
      </trkpt>
      <trkpt lat="47.12409" lon="-1.58811">
        <ele>11</ele>
        <time>2010-08-13T15:23:01Z</time>
      </trkpt>
      <trkpt lat="47.12401" lon="-1.58761">
        <ele>11</ele>
        <time>2010-08-13T15:23:06Z</time>
      </trkpt>
      <trkpt lat="47.12395" lon="-1.5872">
        <ele>10</ele>
        <time>2010-08-13T15:23:11Z</time>
      </trkpt>
      <trkpt lat="47.12386" lon="-1.58667">
        <ele>9</ele>
        <time>2010-08-13T15:23:16Z</time>
      </trkpt>
      <trkpt lat="47.12369" lon="-1.58602">
        <ele>9</ele>
        <time>2010-08-13T15:23:21Z</time>
      </trkpt>
      <trkpt lat="47.12358" lon="-1.58548">
        <ele>9</ele>
        <time>2010-08-13T15:23:26Z</time>
      </trkpt>
      <trkpt lat="47.12351" lon="-1.58507">
        <ele>8</ele>
        <time>2010-08-13T15:23:31Z</time>
      </trkpt>
      <trkpt lat="47.12338" lon="-1.58458">
        <ele>9</ele>
        <time>2010-08-13T15:23:36Z</time>
      </trkpt>
      <trkpt lat="47.12327" lon="-1.58424">
        <ele>7</ele>
        <time>2010-08-13T15:23:41Z</time>
      </trkpt>
      <trkpt lat="47.12308" lon="-1.5837">
        <ele>7</ele>
        <time>2010-08-13T15:23:46Z</time>
      </trkpt>
      <trkpt lat="47.12284" lon="-1.58318">
        <ele>6</ele>
        <time>2010-08-13T15:23:51Z</time>
      </trkpt>
      <trkpt lat="47.12259" lon="-1.58297">
        <ele>6</ele>
        <time>2010-08-13T15:23:56Z</time>
      </trkpt>
      <trkpt lat="47.12227" lon="-1.58265">
        <ele>6</ele>
        <time>2010-08-13T15:24:01Z</time>
      </trkpt>
      <trkpt lat="47.12198" lon="-1.58243">
        <ele>7</ele>
        <time>2010-08-13T15:24:06Z</time>
      </trkpt>
      <trkpt lat="47.12204" lon="-1.58213">
        <ele>7</ele>
        <time>2010-08-13T15:24:11Z</time>
      </trkpt>
      <trkpt lat="47.12207" lon="-1.58175">
        <ele>7</ele>
        <time>2010-08-13T15:24:16Z</time>
      </trkpt>
      <trkpt lat="47.12219" lon="-1.58132">
        <ele>7</ele>
        <time>2010-08-13T15:24:21Z</time>
      </trkpt>
      <trkpt lat="47.12234" lon="-1.58089">
        <ele>7</ele>
        <time>2010-08-13T15:24:26Z</time>
      </trkpt>
      <trkpt lat="47.12245" lon="-1.58036">
        <ele>8</ele>
        <time>2010-08-13T15:24:31Z</time>
      </trkpt>
      <trkpt lat="47.12231" lon="-1.57996">
        <ele>9</ele>
        <time>2010-08-13T15:24:36Z</time>
      </trkpt>
      <trkpt lat="47.12212" lon="-1.57966">
        <ele>10</ele>
        <time>2010-08-13T15:24:41Z</time>
      </trkpt>
      <trkpt lat="47.12194" lon="-1.57932">
        <ele>10</ele>
        <time>2010-08-13T15:24:46Z</time>
      </trkpt>
      <trkpt lat="47.12186" lon="-1.57889">
        <ele>12</ele>
        <time>2010-08-13T15:24:51Z</time>
      </trkpt>
      <trkpt lat="47.12187" lon="-1.57852">
        <ele>13</ele>
        <time>2010-08-13T15:24:56Z</time>
      </trkpt>
      <trkpt lat="47.12186" lon="-1.57822">
        <ele>14</ele>
        <time>2010-08-13T15:25:01Z</time>
      </trkpt>
      <trkpt lat="47.12185" lon="-1.57782">
        <ele>15</ele>
        <time>2010-08-13T15:25:06Z</time>
      </trkpt>
      <trkpt lat="47.12184" lon="-1.57741">
        <ele>15</ele>
        <time>2010-08-13T15:25:11Z</time>
      </trkpt>
      <trkpt lat="47.12182" lon="-1.57689">
        <ele>15</ele>
        <time>2010-08-13T15:25:16Z</time>
      </trkpt>
      <trkpt lat="47.12182" lon="-1.57644">
        <ele>14</ele>
        <time>2010-08-13T15:25:21Z</time>
      </trkpt>
      <trkpt lat="47.12182" lon="-1.57604">
        <ele>15</ele>
        <time>2010-08-13T15:25:26Z</time>
      </trkpt>
      <trkpt lat="47.12179" lon="-1.57552">
        <ele>15</ele>
        <time>2010-08-13T15:25:31Z</time>
      </trkpt>
      <trkpt lat="47.12174" lon="-1.57498">
        <ele>15</ele>
        <time>2010-08-13T15:25:36Z</time>
      </trkpt>
      <trkpt lat="47.12166" lon="-1.57445">
        <ele>13</ele>
        <time>2010-08-13T15:25:41Z</time>
      </trkpt>
      <trkpt lat="47.12158" lon="-1.5739">
        <ele>13</ele>
        <time>2010-08-13T15:25:46Z</time>
      </trkpt>
      <trkpt lat="47.12149" lon="-1.57347">
        <ele>13</ele>
        <time>2010-08-13T15:25:51Z</time>
      </trkpt>
      <trkpt lat="47.12149" lon="-1.57344">
        <ele>13</ele>
        <time>2010-08-13T15:25:56Z</time>
      </trkpt>
      <trkpt lat="47.12147" lon="-1.57344">
        <ele>13</ele>
        <time>2010-08-13T15:26:01Z</time>
      </trkpt>
      <trkpt lat="47.12146" lon="-1.57345">
        <ele>13</ele>
        <time>2010-08-13T15:26:06Z</time>
      </trkpt>
      <trkpt lat="47.12146" lon="-1.57345">
        <ele>13</ele>
        <time>2010-08-13T15:26:11Z</time>
      </trkpt>
      <trkpt lat="47.12143" lon="-1.57344">
        <ele>13</ele>
        <time>2010-08-13T15:26:16Z</time>
      </trkpt>
      <trkpt lat="47.1214" lon="-1.57344">
        <ele>13</ele>
        <time>2010-08-13T15:26:21Z</time>
      </trkpt>
      <trkpt lat="47.1214" lon="-1.57344">
        <ele>13</ele>
        <time>2010-08-13T15:26:26Z</time>
      </trkpt>
      <trkpt lat="47.1214" lon="-1.57344">
        <ele>13</ele>
        <time>2010-08-13T15:26:31Z</time>
      </trkpt>
      <trkpt lat="47.12141" lon="-1.57344">
        <ele>13</ele>
        <time>2010-08-13T15:26:36Z</time>
      </trkpt>
      <trkpt lat="47.12141" lon="-1.57344">
        <ele>13</ele>
        <time>2010-08-13T15:26:41Z</time>
      </trkpt>
      <trkpt lat="47.12141" lon="-1.57344">
        <ele>13</ele>
        <time>2010-08-13T15:26:46Z</time>
      </trkpt>
      <trkpt lat="47.1214" lon="-1.57344">
        <ele>13</ele>
        <time>2010-08-13T15:26:51Z</time>
      </trkpt>
      <trkpt lat="47.12143" lon="-1.57346">
        <ele>13</ele>
        <time>2010-08-13T15:26:56Z</time>
      </trkpt>
      <trkpt lat="47.12145" lon="-1.57346">
        <ele>13</ele>
        <time>2010-08-13T15:27:01Z</time>
      </trkpt>
      <trkpt lat="47.12146" lon="-1.57345">
        <ele>13</ele>
        <time>2010-08-13T15:27:06Z</time>
      </trkpt>
      <trkpt lat="47.12145" lon="-1.57345">
        <ele>13</ele>
        <time>2010-08-13T15:27:11Z</time>
      </trkpt>
      <trkpt lat="47.12145" lon="-1.57342">
        <ele>13</ele>
        <time>2010-08-13T15:27:16Z</time>
      </trkpt>
      <trkpt lat="47.12142" lon="-1.57323">
        <ele>12</ele>
        <time>2010-08-13T15:27:21Z</time>
      </trkpt>
      <trkpt lat="47.1214" lon="-1.5728">
        <ele>12</ele>
        <time>2010-08-13T15:27:26Z</time>
      </trkpt>
      <trkpt lat="47.12132" lon="-1.57215">
        <ele>10</ele>
        <time>2010-08-13T15:27:31Z</time>
      </trkpt>
      <trkpt lat="47.12119" lon="-1.57159">
        <ele>9</ele>
        <time>2010-08-13T15:27:36Z</time>
      </trkpt>
      <trkpt lat="47.12113" lon="-1.57115">
        <ele>9</ele>
        <time>2010-08-13T15:27:41Z</time>
      </trkpt>
      <trkpt lat="47.12102" lon="-1.57047">
        <ele>9</ele>
        <time>2010-08-13T15:27:46Z</time>
      </trkpt>
      <trkpt lat="47.1209" lon="-1.56985">
        <ele>8</ele>
        <time>2010-08-13T15:27:51Z</time>
      </trkpt>
      <trkpt lat="47.1207" lon="-1.5692">
        <ele>8</ele>
        <time>2010-08-13T15:27:56Z</time>
      </trkpt>
      <trkpt lat="47.12067" lon="-1.56869">
        <ele>9</ele>
        <time>2010-08-13T15:28:01Z</time>
      </trkpt>
      <trkpt lat="47.12055" lon="-1.56837">
        <ele>9</ele>
        <time>2010-08-13T15:28:06Z</time>
      </trkpt>
      <trkpt lat="47.12045" lon="-1.56796">
        <ele>10</ele>
        <time>2010-08-13T15:28:11Z</time>
      </trkpt>
      <trkpt lat="47.12035" lon="-1.56747">
        <ele>12</ele>
        <time>2010-08-13T15:28:16Z</time>
      </trkpt>
      <trkpt lat="47.12026" lon="-1.56707">
        <ele>12</ele>
        <time>2010-08-13T15:28:21Z</time>
      </trkpt>
      <trkpt lat="47.1202" lon="-1.56674">
        <ele>12</ele>
        <time>2010-08-13T15:28:26Z</time>
      </trkpt>
      <trkpt lat="47.12011" lon="-1.56634">
        <ele>14</ele>
        <time>2010-08-13T15:28:31Z</time>
      </trkpt>
      <trkpt lat="47.12001" lon="-1.56584">
        <ele>15</ele>
        <time>2010-08-13T15:28:36Z</time>
      </trkpt>
      <trkpt lat="47.11992" lon="-1.5654">
        <ele>14</ele>
        <time>2010-08-13T15:28:41Z</time>
      </trkpt>
      <trkpt lat="47.11981" lon="-1.56494">
        <ele>14</ele>
        <time>2010-08-13T15:28:46Z</time>
      </trkpt>
      <trkpt lat="47.11971" lon="-1.56456">
        <ele>14</ele>
        <time>2010-08-13T15:28:51Z</time>
      </trkpt>
      <trkpt lat="47.11958" lon="-1.56407">
        <ele>13</ele>
        <time>2010-08-13T15:28:56Z</time>
      </trkpt>
      <trkpt lat="47.11942" lon="-1.56345">
        <ele>13</ele>
        <time>2010-08-13T15:29:01Z</time>
      </trkpt>
      <trkpt lat="47.11928" lon="-1.56293">
        <ele>13</ele>
        <time>2010-08-13T15:29:06Z</time>
      </trkpt>
      <trkpt lat="47.11914" lon="-1.56241">
        <ele>14</ele>
        <time>2010-08-13T15:29:11Z</time>
      </trkpt>
      <trkpt lat="47.11904" lon="-1.56199">
        <ele>14</ele>
        <time>2010-08-13T15:29:16Z</time>
      </trkpt>
      <trkpt lat="47.11887" lon="-1.56136">
        <ele>14</ele>
        <time>2010-08-13T15:29:21Z</time>
      </trkpt>
      <trkpt lat="47.11875" lon="-1.56084">
        <ele>14</ele>
        <time>2010-08-13T15:29:26Z</time>
      </trkpt>
      <trkpt lat="47.11866" lon="-1.5603">
        <ele>14</ele>
        <time>2010-08-13T15:29:31Z</time>
      </trkpt>
      <trkpt lat="47.11862" lon="-1.55986">
        <ele>14</ele>
        <time>2010-08-13T15:29:36Z</time>
      </trkpt>
      <trkpt lat="47.11857" lon="-1.5593">
        <ele>14</ele>
        <time>2010-08-13T15:29:41Z</time>
      </trkpt>
      <trkpt lat="47.11853" lon="-1.55875">
        <ele>15</ele>
        <time>2010-08-13T15:29:46Z</time>
      </trkpt>
      <trkpt lat="47.11848" lon="-1.55809">
        <ele>15</ele>
        <time>2010-08-13T15:29:51Z</time>
      </trkpt>
      <trkpt lat="47.11844" lon="-1.55755">
        <ele>16</ele>
        <time>2010-08-13T15:29:56Z</time>
      </trkpt>
      <trkpt lat="47.11841" lon="-1.55711">
        <ele>16</ele>
        <time>2010-08-13T15:30:01Z</time>
      </trkpt>
      <trkpt lat="47.11836" lon="-1.55657">
        <ele>16</ele>
        <time>2010-08-13T15:30:06Z</time>
      </trkpt>
      <trkpt lat="47.11832" lon="-1.55593">
        <ele>18</ele>
        <time>2010-08-13T15:30:11Z</time>
      </trkpt>
      <trkpt lat="47.11827" lon="-1.55539">
        <ele>18</ele>
        <time>2010-08-13T15:30:16Z</time>
      </trkpt>
      <trkpt lat="47.11824" lon="-1.55497">
        <ele>18</ele>
        <time>2010-08-13T15:30:21Z</time>
      </trkpt>
      <trkpt lat="47.1182" lon="-1.55444">
        <ele>17</ele>
        <time>2010-08-13T15:30:26Z</time>
      </trkpt>
      <trkpt lat="47.11818" lon="-1.55392">
        <ele>18</ele>
        <time>2010-08-13T15:30:31Z</time>
      </trkpt>
      <trkpt lat="47.11817" lon="-1.5533">
        <ele>19</ele>
        <time>2010-08-13T15:30:36Z</time>
      </trkpt>
      <trkpt lat="47.11816" lon="-1.55276">
        <ele>19</ele>
        <time>2010-08-13T15:30:41Z</time>
      </trkpt>
      <trkpt lat="47.11815" lon="-1.55232">
        <ele>19</ele>
        <time>2010-08-13T15:30:46Z</time>
      </trkpt>
      <trkpt lat="47.11813" lon="-1.55177">
        <ele>19</ele>
        <time>2010-08-13T15:30:51Z</time>
      </trkpt>
      <trkpt lat="47.11808" lon="-1.55112">
        <ele>19</ele>
        <time>2010-08-13T15:30:56Z</time>
      </trkpt>
      <trkpt lat="47.11802" lon="-1.55057">
        <ele>19</ele>
        <time>2010-08-13T15:31:01Z</time>
      </trkpt>
      <trkpt lat="47.11795" lon="-1.55014">
        <ele>19</ele>
        <time>2010-08-13T15:31:06Z</time>
      </trkpt>
      <trkpt lat="47.11784" lon="-1.54959">
        <ele>18</ele>
        <time>2010-08-13T15:31:11Z</time>
      </trkpt>
      <trkpt lat="47.1177" lon="-1.54905">
        <ele>18</ele>
        <time>2010-08-13T15:31:16Z</time>
      </trkpt>
      <trkpt lat="47.11751" lon="-1.54842">
        <ele>18</ele>
        <time>2010-08-13T15:31:21Z</time>
      </trkpt>
      <trkpt lat="47.11735" lon="-1.5479">
        <ele>19</ele>
        <time>2010-08-13T15:31:26Z</time>
      </trkpt>
      <trkpt lat="47.11723" lon="-1.54748">
        <ele>19</ele>
        <time>2010-08-13T15:31:31Z</time>
      </trkpt>
      <trkpt lat="47.11707" lon="-1.54695">
        <ele>20</ele>
        <time>2010-08-13T15:31:36Z</time>
      </trkpt>
      <trkpt lat="47.11687" lon="-1.54633">
        <ele>21</ele>
        <time>2010-08-13T15:31:41Z</time>
      </trkpt>
      <trkpt lat="47.11671" lon="-1.54581">
        <ele>22</ele>
        <time>2010-08-13T15:31:46Z</time>
      </trkpt>
      <trkpt lat="47.11657" lon="-1.54539">
        <ele>22</ele>
        <time>2010-08-13T15:31:51Z</time>
      </trkpt>
      <trkpt lat="47.11639" lon="-1.54486">
        <ele>22</ele>
        <time>2010-08-13T15:31:56Z</time>
      </trkpt>
      <trkpt lat="47.1162" lon="-1.54431">
        <ele>22</ele>
        <time>2010-08-13T15:32:01Z</time>
      </trkpt>
      <trkpt lat="47.11599" lon="-1.54367">
        <ele>22</ele>
        <time>2010-08-13T15:32:06Z</time>
      </trkpt>
      <trkpt lat="47.11581" lon="-1.54314">
        <ele>22</ele>
        <time>2010-08-13T15:32:11Z</time>
      </trkpt>
      <trkpt lat="47.11568" lon="-1.54275">
        <ele>22</ele>
        <time>2010-08-13T15:32:16Z</time>
      </trkpt>
      <trkpt lat="47.11569" lon="-1.54247">
        <ele>22</ele>
        <time>2010-08-13T15:32:21Z</time>
      </trkpt>
      <trkpt lat="47.11597" lon="-1.54227">
        <ele>23</ele>
        <time>2010-08-13T15:32:26Z</time>
      </trkpt>
      <trkpt lat="47.11633" lon="-1.54196">
        <ele>23</ele>
        <time>2010-08-13T15:32:31Z</time>
      </trkpt>
      <trkpt lat="47.1165" lon="-1.54154">
        <ele>23</ele>
        <time>2010-08-13T15:32:36Z</time>
      </trkpt>
      <trkpt lat="47.11675" lon="-1.54137">
        <ele>24</ele>
        <time>2010-08-13T15:32:41Z</time>
      </trkpt>
      <trkpt lat="47.11701" lon="-1.54105">
        <ele>25</ele>
        <time>2010-08-13T15:32:46Z</time>
      </trkpt>
      <trkpt lat="47.11723" lon="-1.54054">
        <ele>26</ele>
        <time>2010-08-13T15:32:51Z</time>
      </trkpt>
      <trkpt lat="47.11741" lon="-1.5401">
        <ele>26</ele>
        <time>2010-08-13T15:32:56Z</time>
      </trkpt>
      <trkpt lat="47.11755" lon="-1.53972">
        <ele>25</ele>
        <time>2010-08-13T15:33:01Z</time>
      </trkpt>
      <trkpt lat="47.11776" lon="-1.53921">
        <ele>25</ele>
        <time>2010-08-13T15:33:06Z</time>
      </trkpt>
      <trkpt lat="47.11803" lon="-1.53869">
        <ele>23</ele>
        <time>2010-08-13T15:33:11Z</time>
      </trkpt>
      <trkpt lat="47.11841" lon="-1.53804">
        <ele>20</ele>
        <time>2010-08-13T15:33:16Z</time>
      </trkpt>
      <trkpt lat="47.11867" lon="-1.53741">
        <ele>18</ele>
        <time>2010-08-13T15:33:21Z</time>
      </trkpt>
      <trkpt lat="47.11889" lon="-1.53694">
        <ele>17</ele>
        <time>2010-08-13T15:33:26Z</time>
      </trkpt>
      <trkpt lat="47.11921" lon="-1.53635">
        <ele>16</ele>
        <time>2010-08-13T15:33:31Z</time>
      </trkpt>
      <trkpt lat="47.11957" lon="-1.53568">
        <ele>14</ele>
        <time>2010-08-13T15:33:36Z</time>
      </trkpt>
      <trkpt lat="47.11984" lon="-1.53512">
        <ele>14</ele>
        <time>2010-08-13T15:33:41Z</time>
      </trkpt>
      <trkpt lat="47.12007" lon="-1.53469">
        <ele>14</ele>
        <time>2010-08-13T15:33:46Z</time>
      </trkpt>
      <trkpt lat="47.12036" lon="-1.53416">
        <ele>13</ele>
        <time>2010-08-13T15:33:51Z</time>
      </trkpt>
      <trkpt lat="47.12063" lon="-1.53361">
        <ele>13</ele>
        <time>2010-08-13T15:33:56Z</time>
      </trkpt>
      <trkpt lat="47.12098" lon="-1.53296">
        <ele>10</ele>
        <time>2010-08-13T15:34:01Z</time>
      </trkpt>
      <trkpt lat="47.12126" lon="-1.53241">
        <ele>8</ele>
        <time>2010-08-13T15:34:06Z</time>
      </trkpt>
      <trkpt lat="47.12149" lon="-1.53201">
        <ele>8</ele>
        <time>2010-08-13T15:34:11Z</time>
      </trkpt>
      <trkpt lat="47.12174" lon="-1.53154">
        <ele>7</ele>
        <time>2010-08-13T15:34:16Z</time>
      </trkpt>
      <trkpt lat="47.12202" lon="-1.531">
        <ele>8</ele>
        <time>2010-08-13T15:34:21Z</time>
      </trkpt>
      <trkpt lat="47.12225" lon="-1.53056">
        <ele>9</ele>
        <time>2010-08-13T15:34:26Z</time>
      </trkpt>
      <trkpt lat="47.12243" lon="-1.53021">
        <ele>10</ele>
        <time>2010-08-13T15:34:31Z</time>
      </trkpt>
      <trkpt lat="47.12265" lon="-1.5298">
        <ele>11</ele>
        <time>2010-08-13T15:34:36Z</time>
      </trkpt>
      <trkpt lat="47.12286" lon="-1.52942">
        <ele>12</ele>
        <time>2010-08-13T15:34:41Z</time>
      </trkpt>
      <trkpt lat="47.12309" lon="-1.52901">
        <ele>13</ele>
        <time>2010-08-13T15:34:46Z</time>
      </trkpt>
      <trkpt lat="47.12329" lon="-1.52869">
        <ele>14</ele>
        <time>2010-08-13T15:34:51Z</time>
      </trkpt>
      <trkpt lat="47.12346" lon="-1.52846">
        <ele>15</ele>
        <time>2010-08-13T15:34:56Z</time>
      </trkpt>
      <trkpt lat="47.12369" lon="-1.52823">
        <ele>17</ele>
        <time>2010-08-13T15:35:01Z</time>
      </trkpt>
      <trkpt lat="47.12396" lon="-1.52797">
        <ele>17</ele>
        <time>2010-08-13T15:35:06Z</time>
      </trkpt>
      <trkpt lat="47.12419" lon="-1.5278">
        <ele>19</ele>
        <time>2010-08-13T15:35:11Z</time>
      </trkpt>
      <trkpt lat="47.12443" lon="-1.5276">
        <ele>19</ele>
        <time>2010-08-13T15:35:16Z</time>
      </trkpt>
      <trkpt lat="47.12463" lon="-1.52749">
        <ele>20</ele>
        <time>2010-08-13T15:35:21Z</time>
      </trkpt>
      <trkpt lat="47.12489" lon="-1.52741">
        <ele>20</ele>
        <time>2010-08-13T15:35:26Z</time>
      </trkpt>
      <trkpt lat="47.12512" lon="-1.52723">
        <ele>20</ele>
        <time>2010-08-13T15:35:31Z</time>
      </trkpt>
      <trkpt lat="47.12524" lon="-1.52714">
        <ele>20</ele>
        <time>2010-08-13T15:35:36Z</time>
      </trkpt>
      <trkpt lat="47.12546" lon="-1.52725">
        <ele>20</ele>
        <time>2010-08-13T15:35:41Z</time>
      </trkpt>
      <trkpt lat="47.12575" lon="-1.52751">
        <ele>20</ele>
        <time>2010-08-13T15:35:46Z</time>
      </trkpt>
      <trkpt lat="47.12609" lon="-1.52789">
        <ele>20</ele>
        <time>2010-08-13T15:35:51Z</time>
      </trkpt>
      <trkpt lat="47.12635" lon="-1.52821">
        <ele>20</ele>
        <time>2010-08-13T15:35:56Z</time>
      </trkpt>
      <trkpt lat="47.12661" lon="-1.52854">
        <ele>20</ele>
        <time>2010-08-13T15:36:01Z</time>
      </trkpt>
      <trkpt lat="47.12683" lon="-1.52881">
        <ele>20</ele>
        <time>2010-08-13T15:36:06Z</time>
      </trkpt>
      <trkpt lat="47.12711" lon="-1.52916">
        <ele>20</ele>
        <time>2010-08-13T15:36:11Z</time>
      </trkpt>
      <trkpt lat="47.12746" lon="-1.52959">
        <ele>20</ele>
        <time>2010-08-13T15:36:16Z</time>
      </trkpt>
      <trkpt lat="47.12774" lon="-1.52995">
        <ele>21</ele>
        <time>2010-08-13T15:36:21Z</time>
      </trkpt>
      <trkpt lat="47.12797" lon="-1.53023">
        <ele>21</ele>
        <time>2010-08-13T15:36:26Z</time>
      </trkpt>
      <trkpt lat="47.12825" lon="-1.53058">
        <ele>21</ele>
        <time>2010-08-13T15:36:31Z</time>
      </trkpt>
      <trkpt lat="47.12851" lon="-1.5309">
        <ele>22</ele>
        <time>2010-08-13T15:36:36Z</time>
      </trkpt>
      <trkpt lat="47.1288" lon="-1.53127">
        <ele>23</ele>
        <time>2010-08-13T15:36:41Z</time>
      </trkpt>
      <trkpt lat="47.12904" lon="-1.53157">
        <ele>23</ele>
        <time>2010-08-13T15:36:46Z</time>
      </trkpt>
      <trkpt lat="47.12923" lon="-1.53181">
        <ele>24</ele>
        <time>2010-08-13T15:36:51Z</time>
      </trkpt>
      <trkpt lat="47.12946" lon="-1.53208">
        <ele>24</ele>
        <time>2010-08-13T15:36:56Z</time>
      </trkpt>
      <trkpt lat="47.12972" lon="-1.53234">
        <ele>24</ele>
        <time>2010-08-13T15:37:01Z</time>
      </trkpt>
      <trkpt lat="47.13005" lon="-1.53258">
        <ele>25</ele>
        <time>2010-08-13T15:37:06Z</time>
      </trkpt>
      <trkpt lat="47.13029" lon="-1.53265">
        <ele>24</ele>
        <time>2010-08-13T15:37:11Z</time>
      </trkpt>
      <trkpt lat="47.13061" lon="-1.5326">
        <ele>24</ele>
        <time>2010-08-13T15:37:16Z</time>
      </trkpt>
      <trkpt lat="47.13091" lon="-1.5325">
        <ele>24</ele>
        <time>2010-08-13T15:37:21Z</time>
      </trkpt>
      <trkpt lat="47.13126" lon="-1.53235">
        <ele>25</ele>
        <time>2010-08-13T15:37:26Z</time>
      </trkpt>
      <trkpt lat="47.13155" lon="-1.53224">
        <ele>26</ele>
        <time>2010-08-13T15:37:31Z</time>
      </trkpt>
      <trkpt lat="47.13179" lon="-1.53216">
        <ele>26</ele>
        <time>2010-08-13T15:37:36Z</time>
      </trkpt>
      <trkpt lat="47.13208" lon="-1.53203">
        <ele>26</ele>
        <time>2010-08-13T15:37:41Z</time>
      </trkpt>
      <trkpt lat="47.13238" lon="-1.53191">
        <ele>26</ele>
        <time>2010-08-13T15:37:46Z</time>
      </trkpt>
      <trkpt lat="47.13273" lon="-1.53176">
        <ele>27</ele>
        <time>2010-08-13T15:37:51Z</time>
      </trkpt>
      <trkpt lat="47.13296" lon="-1.53168">
        <ele>27</ele>
        <time>2010-08-13T15:37:56Z</time>
      </trkpt>
      <trkpt lat="47.13326" lon="-1.53157">
        <ele>28</ele>
        <time>2010-08-13T15:38:01Z</time>
      </trkpt>
      <trkpt lat="47.13356" lon="-1.5315">
        <ele>28</ele>
        <time>2010-08-13T15:38:06Z</time>
      </trkpt>
      <trkpt lat="47.13393" lon="-1.53147">
        <ele>28</ele>
        <time>2010-08-13T15:38:11Z</time>
      </trkpt>
      <trkpt lat="47.13424" lon="-1.53151">
        <ele>29</ele>
        <time>2010-08-13T15:38:16Z</time>
      </trkpt>
      <trkpt lat="47.13441" lon="-1.53119">
        <ele>29</ele>
        <time>2010-08-13T15:38:21Z</time>
      </trkpt>
      <trkpt lat="47.13457" lon="-1.53077">
        <ele>30</ele>
        <time>2010-08-13T15:38:26Z</time>
      </trkpt>
      <trkpt lat="47.13476" lon="-1.53035">
        <ele>31</ele>
        <time>2010-08-13T15:38:31Z</time>
      </trkpt>
      <trkpt lat="47.13498" lon="-1.52989">
        <ele>32</ele>
        <time>2010-08-13T15:38:36Z</time>
      </trkpt>
      <trkpt lat="47.13517" lon="-1.52949">
        <ele>31</ele>
        <time>2010-08-13T15:38:41Z</time>
      </trkpt>
      <trkpt lat="47.13532" lon="-1.52917">
        <ele>32</ele>
        <time>2010-08-13T15:38:46Z</time>
      </trkpt>
      <trkpt lat="47.13553" lon="-1.52869">
        <ele>32</ele>
        <time>2010-08-13T15:38:51Z</time>
      </trkpt>
      <trkpt lat="47.13571" lon="-1.52827">
        <ele>33</ele>
        <time>2010-08-13T15:38:56Z</time>
      </trkpt>
      <trkpt lat="47.13589" lon="-1.52787">
        <ele>32</ele>
        <time>2010-08-13T15:39:01Z</time>
      </trkpt>
      <trkpt lat="47.13605" lon="-1.52756">
        <ele>32</ele>
        <time>2010-08-13T15:39:06Z</time>
      </trkpt>
      <trkpt lat="47.13626" lon="-1.52719">
        <ele>33</ele>
        <time>2010-08-13T15:39:11Z</time>
      </trkpt>
      <trkpt lat="47.13652" lon="-1.52675">
        <ele>34</ele>
        <time>2010-08-13T15:39:16Z</time>
      </trkpt>
      <trkpt lat="47.13674" lon="-1.5264">
        <ele>34</ele>
        <time>2010-08-13T15:39:21Z</time>
      </trkpt>
      <trkpt lat="47.13698" lon="-1.52603">
        <ele>34</ele>
        <time>2010-08-13T15:39:26Z</time>
      </trkpt>
      <trkpt lat="47.13717" lon="-1.52572">
        <ele>35</ele>
        <time>2010-08-13T15:39:31Z</time>
      </trkpt>
      <trkpt lat="47.1374" lon="-1.52534">
        <ele>35</ele>
        <time>2010-08-13T15:39:36Z</time>
      </trkpt>
      <trkpt lat="47.13763" lon="-1.52497">
        <ele>34</ele>
        <time>2010-08-13T15:39:41Z</time>
      </trkpt>
      <trkpt lat="47.13795" lon="-1.52449">
        <ele>33</ele>
        <time>2010-08-13T15:39:46Z</time>
      </trkpt>
      <trkpt lat="47.13818" lon="-1.52422">
        <ele>33</ele>
        <time>2010-08-13T15:39:51Z</time>
      </trkpt>
      <trkpt lat="47.13843" lon="-1.52381">
        <ele>33</ele>
        <time>2010-08-13T15:39:56Z</time>
      </trkpt>
      <trkpt lat="47.13864" lon="-1.52335">
        <ele>33</ele>
        <time>2010-08-13T15:40:01Z</time>
      </trkpt>
      <trkpt lat="47.13901" lon="-1.52305">
        <ele>33</ele>
        <time>2010-08-13T15:40:06Z</time>
      </trkpt>
      <trkpt lat="47.13927" lon="-1.52274">
        <ele>33</ele>
        <time>2010-08-13T15:40:11Z</time>
      </trkpt>
      <trkpt lat="47.13946" lon="-1.52243">
        <ele>33</ele>
        <time>2010-08-13T15:40:16Z</time>
      </trkpt>
      <trkpt lat="47.1397" lon="-1.52209">
        <ele>34</ele>
        <time>2010-08-13T15:40:21Z</time>
      </trkpt>
      <trkpt lat="47.14001" lon="-1.52167">
        <ele>34</ele>
        <time>2010-08-13T15:40:26Z</time>
      </trkpt>
      <trkpt lat="47.14025" lon="-1.52135">
        <ele>35</ele>
        <time>2010-08-13T15:40:31Z</time>
      </trkpt>
      <trkpt lat="47.14034" lon="-1.52114">
        <ele>35</ele>
        <time>2010-08-13T15:40:36Z</time>
      </trkpt>
      <trkpt lat="47.14033" lon="-1.52113">
        <ele>35</ele>
        <time>2010-08-13T15:40:41Z</time>
      </trkpt>
      <trkpt lat="47.14032" lon="-1.52113">
        <ele>35</ele>
        <time>2010-08-13T15:40:46Z</time>
      </trkpt>
      <trkpt lat="47.14031" lon="-1.52112">
        <ele>35</ele>
        <time>2010-08-13T15:40:51Z</time>
      </trkpt>
      <trkpt lat="47.14031" lon="-1.52112">
        <ele>35</ele>
        <time>2010-08-13T15:40:56Z</time>
      </trkpt>
      <trkpt lat="47.14031" lon="-1.52112">
        <ele>35</ele>
        <time>2010-08-13T15:41:01Z</time>
      </trkpt>
      <trkpt lat="47.1403" lon="-1.52111">
        <ele>35</ele>
        <time>2010-08-13T15:41:06Z</time>
      </trkpt>
      <trkpt lat="47.1403" lon="-1.5211">
        <ele>35</ele>
        <time>2010-08-13T15:41:11Z</time>
      </trkpt>
      <trkpt lat="47.1403" lon="-1.52109">
        <ele>35</ele>
        <time>2010-08-13T15:41:16Z</time>
      </trkpt>
      <trkpt lat="47.1403" lon="-1.52109">
        <ele>35</ele>
        <time>2010-08-13T15:41:21Z</time>
      </trkpt>
      <trkpt lat="47.1403" lon="-1.52109">
        <ele>35</ele>
        <time>2010-08-13T15:41:26Z</time>
      </trkpt>
      <trkpt lat="47.1403" lon="-1.52109">
        <ele>35</ele>
        <time>2010-08-13T15:41:31Z</time>
      </trkpt>
      <trkpt lat="47.1403" lon="-1.52108">
        <ele>35</ele>
        <time>2010-08-13T15:41:36Z</time>
      </trkpt>
      <trkpt lat="47.1403" lon="-1.52108">
        <ele>35</ele>
        <time>2010-08-13T15:41:41Z</time>
      </trkpt>
      <trkpt lat="47.14031" lon="-1.52108">
        <ele>35</ele>
        <time>2010-08-13T15:41:46Z</time>
      </trkpt>
      <trkpt lat="47.14042" lon="-1.52101">
        <ele>35</ele>
        <time>2010-08-13T15:41:51Z</time>
      </trkpt>
      <trkpt lat="47.14073" lon="-1.52071">
        <ele>36</ele>
        <time>2010-08-13T15:41:56Z</time>
      </trkpt>
      <trkpt lat="47.14101" lon="-1.52043">
        <ele>36</ele>
        <time>2010-08-13T15:42:01Z</time>
      </trkpt>
      <trkpt lat="47.14131" lon="-1.52017">
        <ele>35</ele>
        <time>2010-08-13T15:42:06Z</time>
      </trkpt>
      <trkpt lat="47.14155" lon="-1.51996">
        <ele>35</ele>
        <time>2010-08-13T15:42:11Z</time>
      </trkpt>
      <trkpt lat="47.14185" lon="-1.51968">
        <ele>35</ele>
        <time>2010-08-13T15:42:16Z</time>
      </trkpt>
      <trkpt lat="47.14222" lon="-1.5193">
        <ele>36</ele>
        <time>2010-08-13T15:42:21Z</time>
      </trkpt>
      <trkpt lat="47.14251" lon="-1.51899">
        <ele>36</ele>
        <time>2010-08-13T15:42:26Z</time>
      </trkpt>
      <trkpt lat="47.14274" lon="-1.51875">
        <ele>36</ele>
        <time>2010-08-13T15:42:31Z</time>
      </trkpt>
      <trkpt lat="47.14303" lon="-1.51846">
        <ele>35</ele>
        <time>2010-08-13T15:42:36Z</time>
      </trkpt>
      <trkpt lat="47.14336" lon="-1.51811">
        <ele>34</ele>
        <time>2010-08-13T15:42:41Z</time>
      </trkpt>
      <trkpt lat="47.14364" lon="-1.51783">
        <ele>35</ele>
        <time>2010-08-13T15:42:46Z</time>
      </trkpt>
      <trkpt lat="47.14393" lon="-1.51753">
        <ele>35</ele>
        <time>2010-08-13T15:42:51Z</time>
      </trkpt>
      <trkpt lat="47.14419" lon="-1.51727">
        <ele>35</ele>
        <time>2010-08-13T15:42:56Z</time>
      </trkpt>
      <trkpt lat="47.1445" lon="-1.51695">
        <ele>35</ele>
        <time>2010-08-13T15:43:01Z</time>
      </trkpt>
      <trkpt lat="47.14489" lon="-1.51655">
        <ele>35</ele>
        <time>2010-08-13T15:43:06Z</time>
      </trkpt>
      <trkpt lat="47.14521" lon="-1.51619">
        <ele>34</ele>
        <time>2010-08-13T15:43:11Z</time>
      </trkpt>
      <trkpt lat="47.14546" lon="-1.51587">
        <ele>34</ele>
        <time>2010-08-13T15:43:16Z</time>
      </trkpt>
      <trkpt lat="47.14573" lon="-1.51544">
        <ele>33</ele>
        <time>2010-08-13T15:43:21Z</time>
      </trkpt>
      <trkpt lat="47.14595" lon="-1.51504">
        <ele>31</ele>
        <time>2010-08-13T15:43:26Z</time>
      </trkpt>
      <trkpt lat="47.14619" lon="-1.51456">
        <ele>30</ele>
        <time>2010-08-13T15:43:31Z</time>
      </trkpt>
      <trkpt lat="47.1464" lon="-1.51413">
        <ele>29</ele>
        <time>2010-08-13T15:43:36Z</time>
      </trkpt>
      <trkpt lat="47.14659" lon="-1.51375">
        <ele>29</ele>
        <time>2010-08-13T15:43:41Z</time>
      </trkpt>
      <trkpt lat="47.14686" lon="-1.5132">
        <ele>30</ele>
        <time>2010-08-13T15:43:46Z</time>
      </trkpt>
      <trkpt lat="47.14713" lon="-1.51265">
        <ele>31</ele>
        <time>2010-08-13T15:43:51Z</time>
      </trkpt>
      <trkpt lat="47.14745" lon="-1.51203">
        <ele>30</ele>
        <time>2010-08-13T15:43:56Z</time>
      </trkpt>
      <trkpt lat="47.14766" lon="-1.51164">
        <ele>29</ele>
        <time>2010-08-13T15:44:01Z</time>
      </trkpt>
      <trkpt lat="47.14791" lon="-1.51116">
        <ele>29</ele>
        <time>2010-08-13T15:44:06Z</time>
      </trkpt>
      <trkpt lat="47.14824" lon="-1.51058">
        <ele>28</ele>
        <time>2010-08-13T15:44:11Z</time>
      </trkpt>
      <trkpt lat="47.14852" lon="-1.5101">
        <ele>27</ele>
        <time>2010-08-13T15:44:16Z</time>
      </trkpt>
      <trkpt lat="47.14881" lon="-1.50962">
        <ele>27</ele>
        <time>2010-08-13T15:44:21Z</time>
      </trkpt>
      <trkpt lat="47.14906" lon="-1.50924">
        <ele>26</ele>
        <time>2010-08-13T15:44:26Z</time>
      </trkpt>
      <trkpt lat="47.14938" lon="-1.50877">
        <ele>26</ele>
        <time>2010-08-13T15:44:31Z</time>
      </trkpt>
      <trkpt lat="47.1497" lon="-1.50832">
        <ele>27</ele>
        <time>2010-08-13T15:44:36Z</time>
      </trkpt>
      <trkpt lat="47.1501" lon="-1.5078">
        <ele>26</ele>
        <time>2010-08-13T15:44:41Z</time>
      </trkpt>
      <trkpt lat="47.15043" lon="-1.50738">
        <ele>26</ele>
        <time>2010-08-13T15:44:46Z</time>
      </trkpt>
      <trkpt lat="47.15071" lon="-1.50705">
        <ele>25</ele>
        <time>2010-08-13T15:44:51Z</time>
      </trkpt>
      <trkpt lat="47.15104" lon="-1.50664">
        <ele>24</ele>
        <time>2010-08-13T15:44:56Z</time>
      </trkpt>
      <trkpt lat="47.15144" lon="-1.50618">
        <ele>24</ele>
        <time>2010-08-13T15:45:01Z</time>
      </trkpt>
      <trkpt lat="47.15174" lon="-1.50582">
        <ele>24</ele>
        <time>2010-08-13T15:45:06Z</time>
      </trkpt>
      <trkpt lat="47.15198" lon="-1.50555">
        <ele>25</ele>
        <time>2010-08-13T15:45:11Z</time>
      </trkpt>
      <trkpt lat="47.15226" lon="-1.50523">
        <ele>25</ele>
        <time>2010-08-13T15:45:16Z</time>
      </trkpt>
      <trkpt lat="47.15258" lon="-1.50486">
        <ele>26</ele>
        <time>2010-08-13T15:45:21Z</time>
      </trkpt>
      <trkpt lat="47.15285" lon="-1.50455">
        <ele>26</ele>
        <time>2010-08-13T15:45:26Z</time>
      </trkpt>
      <trkpt lat="47.15312" lon="-1.50424">
        <ele>26</ele>
        <time>2010-08-13T15:45:31Z</time>
      </trkpt>
      <trkpt lat="47.15334" lon="-1.50399">
        <ele>27</ele>
        <time>2010-08-13T15:45:36Z</time>
      </trkpt>
      <trkpt lat="47.15363" lon="-1.50366">
        <ele>27</ele>
        <time>2010-08-13T15:45:41Z</time>
      </trkpt>
      <trkpt lat="47.15399" lon="-1.50328">
        <ele>28</ele>
        <time>2010-08-13T15:45:46Z</time>
      </trkpt>
      <trkpt lat="47.1543" lon="-1.50302">
        <ele>28</ele>
        <time>2010-08-13T15:45:51Z</time>
      </trkpt>
      <trkpt lat="47.15457" lon="-1.50286">
        <ele>29</ele>
        <time>2010-08-13T15:45:56Z</time>
      </trkpt>
      <trkpt lat="47.15492" lon="-1.50273">
        <ele>29</ele>
        <time>2010-08-13T15:46:01Z</time>
      </trkpt>
      <trkpt lat="47.1553" lon="-1.50257">
        <ele>29</ele>
        <time>2010-08-13T15:46:06Z</time>
      </trkpt>
      <trkpt lat="47.15571" lon="-1.50224">
        <ele>28</ele>
        <time>2010-08-13T15:46:11Z</time>
      </trkpt>
      <trkpt lat="47.15604" lon="-1.50192">
        <ele>27</ele>
        <time>2010-08-13T15:46:16Z</time>
      </trkpt>
      <trkpt lat="47.1563" lon="-1.50166">
        <ele>27</ele>
        <time>2010-08-13T15:46:21Z</time>
      </trkpt>
      <trkpt lat="47.15662" lon="-1.50134">
        <ele>27</ele>
        <time>2010-08-13T15:46:26Z</time>
      </trkpt>
      <trkpt lat="47.15692" lon="-1.50097">
        <ele>26</ele>
        <time>2010-08-13T15:46:31Z</time>
      </trkpt>
      <trkpt lat="47.1572" lon="-1.50045">
        <ele>27</ele>
        <time>2010-08-13T15:46:36Z</time>
      </trkpt>
      <trkpt lat="47.15738" lon="-1.50009">
        <ele>27</ele>
        <time>2010-08-13T15:46:41Z</time>
      </trkpt>
      <trkpt lat="47.15762" lon="-1.49964">
        <ele>28</ele>
        <time>2010-08-13T15:46:46Z</time>
      </trkpt>
      <trkpt lat="47.15791" lon="-1.49909">
        <ele>27</ele>
        <time>2010-08-13T15:46:51Z</time>
      </trkpt>
      <trkpt lat="47.15815" lon="-1.4986">
        <ele>26</ele>
        <time>2010-08-13T15:46:56Z</time>
      </trkpt>
      <trkpt lat="47.15834" lon="-1.49822">
        <ele>25</ele>
        <time>2010-08-13T15:47:01Z</time>
      </trkpt>
      <trkpt lat="47.1586" lon="-1.49772">
        <ele>24</ele>
        <time>2010-08-13T15:47:06Z</time>
      </trkpt>
      <trkpt lat="47.15886" lon="-1.49719">
        <ele>22</ele>
        <time>2010-08-13T15:47:11Z</time>
      </trkpt>
      <trkpt lat="47.1592" lon="-1.49654">
        <ele>23</ele>
        <time>2010-08-13T15:47:16Z</time>
      </trkpt>
      <trkpt lat="47.15948" lon="-1.49599">
        <ele>23</ele>
        <time>2010-08-13T15:47:21Z</time>
      </trkpt>
      <trkpt lat="47.15969" lon="-1.49557">
        <ele>22</ele>
        <time>2010-08-13T15:47:26Z</time>
      </trkpt>
      <trkpt lat="47.15994" lon="-1.49508">
        <ele>21</ele>
        <time>2010-08-13T15:47:31Z</time>
      </trkpt>
      <trkpt lat="47.16019" lon="-1.49461">
        <ele>21</ele>
        <time>2010-08-13T15:47:36Z</time>
      </trkpt>
      <trkpt lat="47.16046" lon="-1.49408">
        <ele>21</ele>
        <time>2010-08-13T15:47:41Z</time>
      </trkpt>
      <trkpt lat="47.16073" lon="-1.4937">
        <ele>20</ele>
        <time>2010-08-13T15:47:46Z</time>
      </trkpt>
      <trkpt lat="47.16097" lon="-1.49342">
        <ele>20</ele>
        <time>2010-08-13T15:47:51Z</time>
      </trkpt>
      <trkpt lat="47.16124" lon="-1.49307">
        <ele>21</ele>
        <time>2010-08-13T15:47:56Z</time>
      </trkpt>
      <trkpt lat="47.16154" lon="-1.4926">
        <ele>22</ele>
        <time>2010-08-13T15:48:01Z</time>
      </trkpt>
      <trkpt lat="47.16175" lon="-1.49219">
        <ele>22</ele>
        <time>2010-08-13T15:48:06Z</time>
      </trkpt>
      <trkpt lat="47.162" lon="-1.49187">
        <ele>22</ele>
        <time>2010-08-13T15:48:11Z</time>
      </trkpt>
      <trkpt lat="47.16224" lon="-1.49164">
        <ele>21</ele>
        <time>2010-08-13T15:48:16Z</time>
      </trkpt>
      <trkpt lat="47.16261" lon="-1.49127">
        <ele>19</ele>
        <time>2010-08-13T15:48:21Z</time>
      </trkpt>
      <trkpt lat="47.16297" lon="-1.49091">
        <ele>19</ele>
        <time>2010-08-13T15:48:26Z</time>
      </trkpt>
      <trkpt lat="47.16335" lon="-1.49053">
        <ele>17</ele>
        <time>2010-08-13T15:48:31Z</time>
      </trkpt>
      <trkpt lat="47.16364" lon="-1.49019">
        <ele>18</ele>
        <time>2010-08-13T15:48:36Z</time>
      </trkpt>
      <trkpt lat="47.16395" lon="-1.4897">
        <ele>19</ele>
        <time>2010-08-13T15:48:41Z</time>
      </trkpt>
      <trkpt lat="47.16427" lon="-1.48928">
        <ele>17</ele>
        <time>2010-08-13T15:48:46Z</time>
      </trkpt>
      <trkpt lat="47.16467" lon="-1.48877">
        <ele>17</ele>
        <time>2010-08-13T15:48:51Z</time>
      </trkpt>
      <trkpt lat="47.1649" lon="-1.48818">
        <ele>18</ele>
        <time>2010-08-13T15:48:56Z</time>
      </trkpt>
      <trkpt lat="47.1651" lon="-1.48772">
        <ele>15</ele>
        <time>2010-08-13T15:49:01Z</time>
      </trkpt>
      <trkpt lat="47.16523" lon="-1.48715">
        <ele>16</ele>
        <time>2010-08-13T15:49:06Z</time>
      </trkpt>
      <trkpt lat="47.16534" lon="-1.48645">
        <ele>15</ele>
        <time>2010-08-13T15:49:11Z</time>
      </trkpt>
      <trkpt lat="47.16541" lon="-1.48583">
        <ele>15</ele>
        <time>2010-08-13T15:49:16Z</time>
      </trkpt>
      <trkpt lat="47.16539" lon="-1.48528">
        <ele>15</ele>
        <time>2010-08-13T15:49:21Z</time>
      </trkpt>
      <trkpt lat="47.16528" lon="-1.48461">
        <ele>16</ele>
        <time>2010-08-13T15:49:26Z</time>
      </trkpt>
      <trkpt lat="47.16518" lon="-1.48394">
        <ele>16</ele>
        <time>2010-08-13T15:49:31Z</time>
      </trkpt>
      <trkpt lat="47.16511" lon="-1.48311">
        <ele>13</ele>
        <time>2010-08-13T15:49:36Z</time>
      </trkpt>
      <trkpt lat="47.1652" lon="-1.48247">
        <ele>8</ele>
        <time>2010-08-13T15:49:41Z</time>
      </trkpt>
      <trkpt lat="47.16512" lon="-1.48207">
        <ele>7</ele>
        <time>2010-08-13T15:49:46Z</time>
      </trkpt>
      <trkpt lat="47.165" lon="-1.48158">
        <ele>4</ele>
        <time>2010-08-13T15:49:51Z</time>
      </trkpt>
      <trkpt lat="47.16481" lon="-1.48086">
        <ele>5</ele>
        <time>2010-08-13T15:49:56Z</time>
      </trkpt>
      <trkpt lat="47.1647" lon="-1.48021">
        <ele>6</ele>
        <time>2010-08-13T15:50:01Z</time>
      </trkpt>
      <trkpt lat="47.1646" lon="-1.47973">
        <ele>6</ele>
        <time>2010-08-13T15:50:06Z</time>
      </trkpt>
      <trkpt lat="47.16488" lon="-1.47953">
        <ele>6</ele>
        <time>2010-08-13T15:50:11Z</time>
      </trkpt>
      <trkpt lat="47.16529" lon="-1.47936">
        <ele>6</ele>
        <time>2010-08-13T15:50:16Z</time>
      </trkpt>
      <trkpt lat="47.16554" lon="-1.47897">
        <ele>8</ele>
        <time>2010-08-13T15:50:21Z</time>
      </trkpt>
      <trkpt lat="47.16583" lon="-1.47866">
        <ele>9</ele>
        <time>2010-08-13T15:50:26Z</time>
      </trkpt>
      <trkpt lat="47.16611" lon="-1.47864">
        <ele>11</ele>
        <time>2010-08-13T15:50:31Z</time>
      </trkpt>
      <trkpt lat="47.16643" lon="-1.47865">
        <ele>12</ele>
        <time>2010-08-13T15:50:36Z</time>
      </trkpt>
      <trkpt lat="47.16678" lon="-1.47863">
        <ele>12</ele>
        <time>2010-08-13T15:50:41Z</time>
      </trkpt>
      <trkpt lat="47.16696" lon="-1.47833">
        <ele>13</ele>
        <time>2010-08-13T15:50:46Z</time>
      </trkpt>
      <trkpt lat="47.16701" lon="-1.47801">
        <ele>14</ele>
        <time>2010-08-13T15:50:51Z</time>
      </trkpt>
      <trkpt lat="47.16704" lon="-1.47764">
        <ele>14</ele>
        <time>2010-08-13T15:50:56Z</time>
      </trkpt>
      <trkpt lat="47.16709" lon="-1.47726">
        <ele>17</ele>
        <time>2010-08-13T15:51:01Z</time>
      </trkpt>
      <trkpt lat="47.16715" lon="-1.47681">
        <ele>18</ele>
        <time>2010-08-13T15:51:06Z</time>
      </trkpt>
      <trkpt lat="47.1672" lon="-1.47644">
        <ele>21</ele>
        <time>2010-08-13T15:51:11Z</time>
      </trkpt>
      <trkpt lat="47.1673" lon="-1.47618">
        <ele>22</ele>
        <time>2010-08-13T15:51:16Z</time>
      </trkpt>
      <trkpt lat="47.1675" lon="-1.47597">
        <ele>23</ele>
        <time>2010-08-13T15:51:21Z</time>
      </trkpt>
      <trkpt lat="47.16777" lon="-1.47586">
        <ele>23</ele>
        <time>2010-08-13T15:51:26Z</time>
      </trkpt>
      <trkpt lat="47.16794" lon="-1.4758">
        <ele>26</ele>
        <time>2010-08-13T15:51:31Z</time>
      </trkpt>
      <trkpt lat="47.16823" lon="-1.47572">
        <ele>26</ele>
        <time>2010-08-13T15:51:36Z</time>
      </trkpt>
      <trkpt lat="47.16844" lon="-1.47566">
        <ele>27</ele>
        <time>2010-08-13T15:51:41Z</time>
      </trkpt>
      <trkpt lat="47.16869" lon="-1.47557">
        <ele>27</ele>
        <time>2010-08-13T15:51:46Z</time>
      </trkpt>
      <trkpt lat="47.169" lon="-1.47545">
        <ele>28</ele>
        <time>2010-08-13T15:51:51Z</time>
      </trkpt>
      <trkpt lat="47.16924" lon="-1.4753">
        <ele>27</ele>
        <time>2010-08-13T15:51:56Z</time>
      </trkpt>
      <trkpt lat="47.16944" lon="-1.47521">
        <ele>27</ele>
        <time>2010-08-13T15:52:01Z</time>
      </trkpt>
      <trkpt lat="47.16977" lon="-1.47508">
        <ele>25</ele>
        <time>2010-08-13T15:52:06Z</time>
      </trkpt>
      <trkpt lat="47.17015" lon="-1.47494">
        <ele>23</ele>
        <time>2010-08-13T15:52:11Z</time>
      </trkpt>
      <trkpt lat="47.17065" lon="-1.4747">
        <ele>22</ele>
        <time>2010-08-13T15:52:16Z</time>
      </trkpt>
      <trkpt lat="47.1711" lon="-1.47456">
        <ele>18</ele>
        <time>2010-08-13T15:52:21Z</time>
      </trkpt>
      <trkpt lat="47.17146" lon="-1.47444">
        <ele>18</ele>
        <time>2010-08-13T15:52:26Z</time>
      </trkpt>
      <trkpt lat="47.17192" lon="-1.47426">
        <ele>16</ele>
        <time>2010-08-13T15:52:31Z</time>
      </trkpt>
      <trkpt lat="47.17247" lon="-1.47405">
        <ele>15</ele>
        <time>2010-08-13T15:52:36Z</time>
      </trkpt>
      <trkpt lat="47.17284" lon="-1.47386">
        <ele>13</ele>
        <time>2010-08-13T15:52:41Z</time>
      </trkpt>
      <trkpt lat="47.17305" lon="-1.47372">
        <ele>12</ele>
        <time>2010-08-13T15:52:46Z</time>
      </trkpt>
      <trkpt lat="47.17338" lon="-1.47371">
        <ele>11</ele>
        <time>2010-08-13T15:52:51Z</time>
      </trkpt>
      <trkpt lat="47.17374" lon="-1.47363">
        <ele>12</ele>
        <time>2010-08-13T15:52:56Z</time>
      </trkpt>
      <trkpt lat="47.17418" lon="-1.47356">
        <ele>12</ele>
        <time>2010-08-13T15:53:01Z</time>
      </trkpt>
      <trkpt lat="47.17458" lon="-1.47355">
        <ele>11</ele>
        <time>2010-08-13T15:53:06Z</time>
      </trkpt>
      <trkpt lat="47.17491" lon="-1.47357">
        <ele>11</ele>
        <time>2010-08-13T15:53:11Z</time>
      </trkpt>
      <trkpt lat="47.17534" lon="-1.47359">
        <ele>9</ele>
        <time>2010-08-13T15:53:16Z</time>
      </trkpt>
      <trkpt lat="47.17587" lon="-1.47363">
        <ele>8</ele>
        <time>2010-08-13T15:53:21Z</time>
      </trkpt>
      <trkpt lat="47.17629" lon="-1.4737">
        <ele>8</ele>
        <time>2010-08-13T15:53:26Z</time>
      </trkpt>
      <trkpt lat="47.17659" lon="-1.47385">
        <ele>8</ele>
        <time>2010-08-13T15:53:31Z</time>
      </trkpt>
      <trkpt lat="47.17694" lon="-1.47406">
        <ele>9</ele>
        <time>2010-08-13T15:53:36Z</time>
      </trkpt>
      <trkpt lat="47.17726" lon="-1.47422">
        <ele>10</ele>
        <time>2010-08-13T15:53:41Z</time>
      </trkpt>
      <trkpt lat="47.17766" lon="-1.47448">
        <ele>11</ele>
        <time>2010-08-13T15:53:46Z</time>
      </trkpt>
      <trkpt lat="47.17803" lon="-1.47462">
        <ele>10</ele>
        <time>2010-08-13T15:53:51Z</time>
      </trkpt>
      <trkpt lat="47.17831" lon="-1.47469">
        <ele>10</ele>
        <time>2010-08-13T15:53:56Z</time>
      </trkpt>
      <trkpt lat="47.17866" lon="-1.47482">
        <ele>10</ele>
        <time>2010-08-13T15:54:01Z</time>
      </trkpt>
      <trkpt lat="47.17902" lon="-1.47478">
        <ele>10</ele>
        <time>2010-08-13T15:54:06Z</time>
      </trkpt>
      <trkpt lat="47.17941" lon="-1.47494">
        <ele>10</ele>
        <time>2010-08-13T15:54:11Z</time>
      </trkpt>
      <trkpt lat="47.17974" lon="-1.47503">
        <ele>10</ele>
        <time>2010-08-13T15:54:16Z</time>
      </trkpt>
      <trkpt lat="47.17999" lon="-1.4751">
        <ele>10</ele>
        <time>2010-08-13T15:54:21Z</time>
      </trkpt>
      <trkpt lat="47.18039" lon="-1.47522">
        <ele>10</ele>
        <time>2010-08-13T15:54:26Z</time>
      </trkpt>
      <trkpt lat="47.18071" lon="-1.47531">
        <ele>11</ele>
        <time>2010-08-13T15:54:31Z</time>
      </trkpt>
      <trkpt lat="47.18103" lon="-1.47539">
        <ele>11</ele>
        <time>2010-08-13T15:54:36Z</time>
      </trkpt>
      <trkpt lat="47.18128" lon="-1.47545">
        <ele>12</ele>
        <time>2010-08-13T15:54:41Z</time>
      </trkpt>
      <trkpt lat="47.1816" lon="-1.47555">
        <ele>12</ele>
        <time>2010-08-13T15:54:46Z</time>
      </trkpt>
      <trkpt lat="47.1819" lon="-1.47563">
        <ele>13</ele>
        <time>2010-08-13T15:54:51Z</time>
      </trkpt>
      <trkpt lat="47.18226" lon="-1.47571">
        <ele>14</ele>
        <time>2010-08-13T15:54:56Z</time>
      </trkpt>
      <trkpt lat="47.18256" lon="-1.47576">
        <ele>15</ele>
        <time>2010-08-13T15:55:01Z</time>
      </trkpt>
      <trkpt lat="47.18278" lon="-1.47583">
        <ele>16</ele>
        <time>2010-08-13T15:55:06Z</time>
      </trkpt>
      <trkpt lat="47.18304" lon="-1.47594">
        <ele>17</ele>
        <time>2010-08-13T15:55:11Z</time>
      </trkpt>
      <trkpt lat="47.18335" lon="-1.47605">
        <ele>18</ele>
        <time>2010-08-13T15:55:16Z</time>
      </trkpt>
      <trkpt lat="47.18361" lon="-1.47614">
        <ele>18</ele>
        <time>2010-08-13T15:55:21Z</time>
      </trkpt>
      <trkpt lat="47.18379" lon="-1.47615">
        <ele>19</ele>
        <time>2010-08-13T15:55:26Z</time>
      </trkpt>
      <trkpt lat="47.18394" lon="-1.47617">
        <ele>19</ele>
        <time>2010-08-13T15:55:31Z</time>
      </trkpt>
      <trkpt lat="47.18395" lon="-1.4762">
        <ele>19</ele>
        <time>2010-08-13T15:55:36Z</time>
      </trkpt>
      <trkpt lat="47.18417" lon="-1.47627">
        <ele>21</ele>
        <time>2010-08-13T15:55:41Z</time>
      </trkpt>
      <trkpt lat="47.18445" lon="-1.47633">
        <ele>22</ele>
        <time>2010-08-13T15:55:46Z</time>
      </trkpt>
      <trkpt lat="47.18467" lon="-1.47637">
        <ele>22</ele>
        <time>2010-08-13T15:55:51Z</time>
      </trkpt>
      <trkpt lat="47.18493" lon="-1.47641">
        <ele>23</ele>
        <time>2010-08-13T15:55:56Z</time>
      </trkpt>
      <trkpt lat="47.18525" lon="-1.47649">
        <ele>25</ele>
        <time>2010-08-13T15:56:01Z</time>
      </trkpt>
      <trkpt lat="47.1855" lon="-1.47657">
        <ele>25</ele>
        <time>2010-08-13T15:56:06Z</time>
      </trkpt>
      <trkpt lat="47.18572" lon="-1.47662">
        <ele>26</ele>
        <time>2010-08-13T15:56:11Z</time>
      </trkpt>
      <trkpt lat="47.18599" lon="-1.47671">
        <ele>27</ele>
        <time>2010-08-13T15:56:16Z</time>
      </trkpt>
      <trkpt lat="47.18627" lon="-1.4768">
        <ele>28</ele>
        <time>2010-08-13T15:56:21Z</time>
      </trkpt>
      <trkpt lat="47.18656" lon="-1.4769">
        <ele>29</ele>
        <time>2010-08-13T15:56:26Z</time>
      </trkpt>
      <trkpt lat="47.18675" lon="-1.47692">
        <ele>30</ele>
        <time>2010-08-13T15:56:31Z</time>
      </trkpt>
      <trkpt lat="47.18676" lon="-1.47693">
        <ele>30</ele>
        <time>2010-08-13T15:56:36Z</time>
      </trkpt>
      <trkpt lat="47.18675" lon="-1.47697">
        <ele>30</ele>
        <time>2010-08-13T15:56:41Z</time>
      </trkpt>
      <trkpt lat="47.18675" lon="-1.47699">
        <ele>30</ele>
        <time>2010-08-13T15:56:46Z</time>
      </trkpt>
      <trkpt lat="47.18674" lon="-1.47698">
        <ele>30</ele>
        <time>2010-08-13T15:56:51Z</time>
      </trkpt>
      <trkpt lat="47.18676" lon="-1.47695">
        <ele>30</ele>
        <time>2010-08-13T15:56:56Z</time>
      </trkpt>
      <trkpt lat="47.18689" lon="-1.47696">
        <ele>30</ele>
        <time>2010-08-13T15:57:01Z</time>
      </trkpt>
      <trkpt lat="47.18716" lon="-1.47669">
        <ele>31</ele>
        <time>2010-08-13T15:57:06Z</time>
      </trkpt>
      <trkpt lat="47.18739" lon="-1.47617">
        <ele>30</ele>
        <time>2010-08-13T15:57:11Z</time>
      </trkpt>
      <trkpt lat="47.18759" lon="-1.47573">
        <ele>31</ele>
        <time>2010-08-13T15:57:16Z</time>
      </trkpt>
      <trkpt lat="47.18774" lon="-1.47539">
        <ele>32</ele>
        <time>2010-08-13T15:57:21Z</time>
      </trkpt>
      <trkpt lat="47.18794" lon="-1.47497">
        <ele>33</ele>
        <time>2010-08-13T15:57:26Z</time>
      </trkpt>
      <trkpt lat="47.18818" lon="-1.47447">
        <ele>34</ele>
        <time>2010-08-13T15:57:31Z</time>
      </trkpt>
      <trkpt lat="47.18837" lon="-1.47406">
        <ele>34</ele>
        <time>2010-08-13T15:57:36Z</time>
      </trkpt>
      <trkpt lat="47.18856" lon="-1.47364">
        <ele>34</ele>
        <time>2010-08-13T15:57:41Z</time>
      </trkpt>
      <trkpt lat="47.18872" lon="-1.47331">
        <ele>34</ele>
        <time>2010-08-13T15:57:46Z</time>
      </trkpt>
      <trkpt lat="47.18892" lon="-1.4729">
        <ele>34</ele>
        <time>2010-08-13T15:57:51Z</time>
      </trkpt>
      <trkpt lat="47.18918" lon="-1.47244">
        <ele>34</ele>
        <time>2010-08-13T15:57:56Z</time>
      </trkpt>
      <trkpt lat="47.18931" lon="-1.47199">
        <ele>34</ele>
        <time>2010-08-13T15:58:01Z</time>
      </trkpt>
      <trkpt lat="47.18948" lon="-1.47163">
        <ele>34</ele>
        <time>2010-08-13T15:58:06Z</time>
      </trkpt>
      <trkpt lat="47.18973" lon="-1.47118">
        <ele>34</ele>
        <time>2010-08-13T15:58:11Z</time>
      </trkpt>
      <trkpt lat="47.18997" lon="-1.47068">
        <ele>32</ele>
        <time>2010-08-13T15:58:16Z</time>
      </trkpt>
      <trkpt lat="47.19027" lon="-1.47007">
        <ele>31</ele>
        <time>2010-08-13T15:58:21Z</time>
      </trkpt>
      <trkpt lat="47.19051" lon="-1.46957">
        <ele>30</ele>
        <time>2010-08-13T15:58:26Z</time>
      </trkpt>
      <trkpt lat="47.1907" lon="-1.46918">
        <ele>30</ele>
        <time>2010-08-13T15:58:31Z</time>
      </trkpt>
      <trkpt lat="47.19093" lon="-1.4687">
        <ele>30</ele>
        <time>2010-08-13T15:58:36Z</time>
      </trkpt>
      <trkpt lat="47.1912" lon="-1.46815">
        <ele>30</ele>
        <time>2010-08-13T15:58:41Z</time>
      </trkpt>
      <trkpt lat="47.19142" lon="-1.46768">
        <ele>31</ele>
        <time>2010-08-13T15:58:46Z</time>
      </trkpt>
      <trkpt lat="47.19159" lon="-1.46732">
        <ele>31</ele>
        <time>2010-08-13T15:58:51Z</time>
      </trkpt>
      <trkpt lat="47.19181" lon="-1.46686">
        <ele>32</ele>
        <time>2010-08-13T15:58:56Z</time>
      </trkpt>
      <trkpt lat="47.19203" lon="-1.46641">
        <ele>32</ele>
        <time>2010-08-13T15:59:01Z</time>
      </trkpt>
      <trkpt lat="47.19229" lon="-1.46586">
        <ele>32</ele>
        <time>2010-08-13T15:59:06Z</time>
      </trkpt>
      <trkpt lat="47.19251" lon="-1.4654">
        <ele>33</ele>
        <time>2010-08-13T15:59:11Z</time>
      </trkpt>
      <trkpt lat="47.19269" lon="-1.46503">
        <ele>33</ele>
        <time>2010-08-13T15:59:16Z</time>
      </trkpt>
      <trkpt lat="47.1929" lon="-1.46457">
        <ele>33</ele>
        <time>2010-08-13T15:59:21Z</time>
      </trkpt>
      <trkpt lat="47.19316" lon="-1.46402">
        <ele>32</ele>
        <time>2010-08-13T15:59:26Z</time>
      </trkpt>
      <trkpt lat="47.19337" lon="-1.46355">
        <ele>32</ele>
        <time>2010-08-13T15:59:31Z</time>
      </trkpt>
      <trkpt lat="47.19351" lon="-1.46321">
        <ele>32</ele>
        <time>2010-08-13T15:59:36Z</time>
      </trkpt>
      <trkpt lat="47.19363" lon="-1.46284">
        <ele>32</ele>
        <time>2010-08-13T15:59:41Z</time>
      </trkpt>
      <trkpt lat="47.1939" lon="-1.46247">
        <ele>31</ele>
        <time>2010-08-13T15:59:46Z</time>
      </trkpt>
      <trkpt lat="47.19416" lon="-1.46192">
        <ele>30</ele>
        <time>2010-08-13T15:59:51Z</time>
      </trkpt>
      <trkpt lat="47.19439" lon="-1.46144">
        <ele>30</ele>
        <time>2010-08-13T15:59:56Z</time>
      </trkpt>
      <trkpt lat="47.19459" lon="-1.46104">
        <ele>29</ele>
        <time>2010-08-13T16:00:01Z</time>
      </trkpt>
      <trkpt lat="47.19485" lon="-1.4605">
        <ele>28</ele>
        <time>2010-08-13T16:00:06Z</time>
      </trkpt>
      <trkpt lat="47.19517" lon="-1.4598">
        <ele>25</ele>
        <time>2010-08-13T16:00:11Z</time>
      </trkpt>
      <trkpt lat="47.19546" lon="-1.45919">
        <ele>24</ele>
        <time>2010-08-13T16:00:16Z</time>
      </trkpt>
      <trkpt lat="47.19574" lon="-1.4586">
        <ele>24</ele>
        <time>2010-08-13T16:00:21Z</time>
      </trkpt>
      <trkpt lat="47.19596" lon="-1.45814">
        <ele>23</ele>
        <time>2010-08-13T16:00:26Z</time>
      </trkpt>
      <trkpt lat="47.19621" lon="-1.45762">
        <ele>23</ele>
        <time>2010-08-13T16:00:31Z</time>
      </trkpt>
      <trkpt lat="47.19649" lon="-1.45701">
        <ele>24</ele>
        <time>2010-08-13T16:00:36Z</time>
      </trkpt>
      <trkpt lat="47.19671" lon="-1.45655">
        <ele>25</ele>
        <time>2010-08-13T16:00:41Z</time>
      </trkpt>
      <trkpt lat="47.19687" lon="-1.45621">
        <ele>26</ele>
        <time>2010-08-13T16:00:46Z</time>
      </trkpt>
      <trkpt lat="47.19706" lon="-1.4558">
        <ele>26</ele>
        <time>2010-08-13T16:00:51Z</time>
      </trkpt>
      <trkpt lat="47.19724" lon="-1.45542">
        <ele>27</ele>
        <time>2010-08-13T16:00:56Z</time>
      </trkpt>
      <trkpt lat="47.19746" lon="-1.45496">
        <ele>29</ele>
        <time>2010-08-13T16:01:01Z</time>
      </trkpt>
      <trkpt lat="47.19765" lon="-1.45457">
        <ele>30</ele>
        <time>2010-08-13T16:01:06Z</time>
      </trkpt>
      <trkpt lat="47.19781" lon="-1.45423">
        <ele>30</ele>
        <time>2010-08-13T16:01:11Z</time>
      </trkpt>
      <trkpt lat="47.19791" lon="-1.45369">
        <ele>31</ele>
        <time>2010-08-13T16:01:16Z</time>
      </trkpt>
      <trkpt lat="47.19817" lon="-1.45337">
        <ele>29</ele>
        <time>2010-08-13T16:01:21Z</time>
      </trkpt>
      <trkpt lat="47.19843" lon="-1.45293">
        <ele>28</ele>
        <time>2010-08-13T16:01:26Z</time>
      </trkpt>
      <trkpt lat="47.19863" lon="-1.45254">
        <ele>28</ele>
        <time>2010-08-13T16:01:31Z</time>
      </trkpt>
      <trkpt lat="47.19889" lon="-1.452">
        <ele>29</ele>
        <time>2010-08-13T16:01:36Z</time>
      </trkpt>
      <trkpt lat="47.19922" lon="-1.45132">
        <ele>29</ele>
        <time>2010-08-13T16:01:41Z</time>
      </trkpt>
      <trkpt lat="47.1995" lon="-1.45073">
        <ele>28</ele>
        <time>2010-08-13T16:01:46Z</time>
      </trkpt>
      <trkpt lat="47.19975" lon="-1.45008">
        <ele>25</ele>
        <time>2010-08-13T16:01:51Z</time>
      </trkpt>
      <trkpt lat="47.19997" lon="-1.44965">
        <ele>22</ele>
        <time>2010-08-13T16:01:56Z</time>
      </trkpt>
      <trkpt lat="47.20037" lon="-1.44916">
        <ele>18</ele>
        <time>2010-08-13T16:02:01Z</time>
      </trkpt>
      <trkpt lat="47.20073" lon="-1.44858">
        <ele>17</ele>
        <time>2010-08-13T16:02:06Z</time>
      </trkpt>
      <trkpt lat="47.20117" lon="-1.44787">
        <ele>16</ele>
        <time>2010-08-13T16:02:11Z</time>
      </trkpt>
      <trkpt lat="47.20142" lon="-1.44735">
        <ele>16</ele>
        <time>2010-08-13T16:02:16Z</time>
      </trkpt>
      <trkpt lat="47.20174" lon="-1.44689">
        <ele>13</ele>
        <time>2010-08-13T16:02:21Z</time>
      </trkpt>
      <trkpt lat="47.20225" lon="-1.4467">
        <ele>12</ele>
        <time>2010-08-13T16:02:26Z</time>
      </trkpt>
      <trkpt lat="47.20275" lon="-1.44638">
        <ele>11</ele>
        <time>2010-08-13T16:02:31Z</time>
      </trkpt>
      <trkpt lat="47.20313" lon="-1.44613">
        <ele>11</ele>
        <time>2010-08-13T16:02:36Z</time>
      </trkpt>
      <trkpt lat="47.20341" lon="-1.4459">
        <ele>10</ele>
        <time>2010-08-13T16:02:41Z</time>
      </trkpt>
      <trkpt lat="47.20379" lon="-1.44566">
        <ele>11</ele>
        <time>2010-08-13T16:02:46Z</time>
      </trkpt>
      <trkpt lat="47.20425" lon="-1.44534">
        <ele>10</ele>
        <time>2010-08-13T16:02:51Z</time>
      </trkpt>
      <trkpt lat="47.20464" lon="-1.44509">
        <ele>10</ele>
        <time>2010-08-13T16:02:56Z</time>
      </trkpt>
      <trkpt lat="47.20494" lon="-1.44491">
        <ele>11</ele>
        <time>2010-08-13T16:03:01Z</time>
      </trkpt>
      <trkpt lat="47.2053" lon="-1.44465">
        <ele>11</ele>
        <time>2010-08-13T16:03:06Z</time>
      </trkpt>
      <trkpt lat="47.20565" lon="-1.4444">
        <ele>11</ele>
        <time>2010-08-13T16:03:11Z</time>
      </trkpt>
      <trkpt lat="47.20604" lon="-1.44412">
        <ele>13</ele>
        <time>2010-08-13T16:03:16Z</time>
      </trkpt>
      <trkpt lat="47.20635" lon="-1.4439">
        <ele>13</ele>
        <time>2010-08-13T16:03:21Z</time>
      </trkpt>
      <trkpt lat="47.2066" lon="-1.44374">
        <ele>13</ele>
        <time>2010-08-13T16:03:26Z</time>
      </trkpt>
      <trkpt lat="47.20689" lon="-1.44352">
        <ele>14</ele>
        <time>2010-08-13T16:03:31Z</time>
      </trkpt>
      <trkpt lat="47.2073" lon="-1.4432">
        <ele>13</ele>
        <time>2010-08-13T16:03:36Z</time>
      </trkpt>
      <trkpt lat="47.20764" lon="-1.44294">
        <ele>12</ele>
        <time>2010-08-13T16:03:41Z</time>
      </trkpt>
      <trkpt lat="47.20819" lon="-1.44252">
        <ele>11</ele>
        <time>2010-08-13T16:03:46Z</time>
      </trkpt>
      <trkpt lat="47.20856" lon="-1.44225">
        <ele>10</ele>
        <time>2010-08-13T16:03:51Z</time>
      </trkpt>
      <trkpt lat="47.20901" lon="-1.44192">
        <ele>9</ele>
        <time>2010-08-13T16:03:56Z</time>
      </trkpt>
      <trkpt lat="47.20952" lon="-1.44154">
        <ele>7</ele>
        <time>2010-08-13T16:04:01Z</time>
      </trkpt>
      <trkpt lat="47.2099" lon="-1.44125">
        <ele>7</ele>
        <time>2010-08-13T16:04:06Z</time>
      </trkpt>
      <trkpt lat="47.21019" lon="-1.44102">
        <ele>8</ele>
        <time>2010-08-13T16:04:11Z</time>
      </trkpt>
      <trkpt lat="47.21055" lon="-1.44075">
        <ele>8</ele>
        <time>2010-08-13T16:04:16Z</time>
      </trkpt>
      <trkpt lat="47.211" lon="-1.44042">
        <ele>7</ele>
        <time>2010-08-13T16:04:21Z</time>
      </trkpt>
      <trkpt lat="47.21138" lon="-1.44017">
        <ele>6</ele>
        <time>2010-08-13T16:04:26Z</time>
      </trkpt>
      <trkpt lat="47.21177" lon="-1.43987">
        <ele>6</ele>
        <time>2010-08-13T16:04:31Z</time>
      </trkpt>
      <trkpt lat="47.21208" lon="-1.43963">
        <ele>6</ele>
        <time>2010-08-13T16:04:36Z</time>
      </trkpt>
      <trkpt lat="47.21247" lon="-1.43934">
        <ele>6</ele>
        <time>2010-08-13T16:04:41Z</time>
      </trkpt>
      <trkpt lat="47.21294" lon="-1.43899">
        <ele>6</ele>
        <time>2010-08-13T16:04:46Z</time>
      </trkpt>
      <trkpt lat="47.21332" lon="-1.43872">
        <ele>6</ele>
        <time>2010-08-13T16:04:51Z</time>
      </trkpt>
      <trkpt lat="47.21363" lon="-1.4385">
        <ele>6</ele>
        <time>2010-08-13T16:04:56Z</time>
      </trkpt>
      <trkpt lat="47.214" lon="-1.43824">
        <ele>5</ele>
        <time>2010-08-13T16:05:01Z</time>
      </trkpt>
      <trkpt lat="47.21436" lon="-1.43795">
        <ele>6</ele>
        <time>2010-08-13T16:05:06Z</time>
      </trkpt>
      <trkpt lat="47.21477" lon="-1.43764">
        <ele>6</ele>
        <time>2010-08-13T16:05:11Z</time>
      </trkpt>
      <trkpt lat="47.21512" lon="-1.43736">
        <ele>7</ele>
        <time>2010-08-13T16:05:16Z</time>
      </trkpt>
      <trkpt lat="47.21538" lon="-1.43715">
        <ele>7</ele>
        <time>2010-08-13T16:05:21Z</time>
      </trkpt>
      <trkpt lat="47.21571" lon="-1.43689">
        <ele>7</ele>
        <time>2010-08-13T16:05:26Z</time>
      </trkpt>
      <trkpt lat="47.21608" lon="-1.43651">
        <ele>6</ele>
        <time>2010-08-13T16:05:31Z</time>
      </trkpt>
      <trkpt lat="47.21643" lon="-1.43634">
        <ele>6</ele>
        <time>2010-08-13T16:05:36Z</time>
      </trkpt>
      <trkpt lat="47.2167" lon="-1.43615">
        <ele>5</ele>
        <time>2010-08-13T16:05:41Z</time>
      </trkpt>
      <trkpt lat="47.21705" lon="-1.4359">
        <ele>6</ele>
        <time>2010-08-13T16:05:46Z</time>
      </trkpt>
      <trkpt lat="47.2174" lon="-1.43564">
        <ele>6</ele>
        <time>2010-08-13T16:05:51Z</time>
      </trkpt>
      <trkpt lat="47.21781" lon="-1.43536">
        <ele>5</ele>
        <time>2010-08-13T16:05:56Z</time>
      </trkpt>
      <trkpt lat="47.21814" lon="-1.43518">
        <ele>5</ele>
        <time>2010-08-13T16:06:01Z</time>
      </trkpt>
      <trkpt lat="47.21842" lon="-1.43496">
        <ele>5</ele>
        <time>2010-08-13T16:06:06Z</time>
      </trkpt>
      <trkpt lat="47.21877" lon="-1.43466">
        <ele>5</ele>
        <time>2010-08-13T16:06:11Z</time>
      </trkpt>
      <trkpt lat="47.2192" lon="-1.43431">
        <ele>5</ele>
        <time>2010-08-13T16:06:16Z</time>
      </trkpt>
      <trkpt lat="47.21951" lon="-1.43393">
        <ele>6</ele>
        <time>2010-08-13T16:06:21Z</time>
      </trkpt>
      <trkpt lat="47.21973" lon="-1.43361">
        <ele>7</ele>
        <time>2010-08-13T16:06:26Z</time>
      </trkpt>
      <trkpt lat="47.21999" lon="-1.43321">
        <ele>7</ele>
        <time>2010-08-13T16:06:31Z</time>
      </trkpt>
      <trkpt lat="47.22028" lon="-1.43274">
        <ele>9</ele>
        <time>2010-08-13T16:06:36Z</time>
      </trkpt>
      <trkpt lat="47.22052" lon="-1.43236">
        <ele>9</ele>
        <time>2010-08-13T16:06:41Z</time>
      </trkpt>
      <trkpt lat="47.22076" lon="-1.43197">
        <ele>9</ele>
        <time>2010-08-13T16:06:46Z</time>
      </trkpt>
      <trkpt lat="47.22095" lon="-1.43166">
        <ele>10</ele>
        <time>2010-08-13T16:06:51Z</time>
      </trkpt>
      <trkpt lat="47.22119" lon="-1.43125">
        <ele>9</ele>
        <time>2010-08-13T16:06:56Z</time>
      </trkpt>
      <trkpt lat="47.22144" lon="-1.43072">
        <ele>9</ele>
        <time>2010-08-13T16:07:01Z</time>
      </trkpt>
      <trkpt lat="47.22162" lon="-1.43024">
        <ele>9</ele>
        <time>2010-08-13T16:07:06Z</time>
      </trkpt>
      <trkpt lat="47.22178" lon="-1.42977">
        <ele>9</ele>
        <time>2010-08-13T16:07:11Z</time>
      </trkpt>
      <trkpt lat="47.22191" lon="-1.4294">
        <ele>9</ele>
        <time>2010-08-13T16:07:16Z</time>
      </trkpt>
      <trkpt lat="47.22208" lon="-1.42892">
        <ele>9</ele>
        <time>2010-08-13T16:07:21Z</time>
      </trkpt>
      <trkpt lat="47.22225" lon="-1.42844">
        <ele>10</ele>
        <time>2010-08-13T16:07:26Z</time>
      </trkpt>
      <trkpt lat="47.22246" lon="-1.42786">
        <ele>10</ele>
        <time>2010-08-13T16:07:31Z</time>
      </trkpt>
      <trkpt lat="47.22259" lon="-1.42747">
        <ele>11</ele>
        <time>2010-08-13T16:07:36Z</time>
      </trkpt>
      <trkpt lat="47.22277" lon="-1.42699">
        <ele>10</ele>
        <time>2010-08-13T16:07:41Z</time>
      </trkpt>
      <trkpt lat="47.22295" lon="-1.42648">
        <ele>8</ele>
        <time>2010-08-13T16:07:46Z</time>
      </trkpt>
      <trkpt lat="47.22319" lon="-1.42582">
        <ele>8</ele>
        <time>2010-08-13T16:07:51Z</time>
      </trkpt>
      <trkpt lat="47.22342" lon="-1.42521">
        <ele>8</ele>
        <time>2010-08-13T16:07:56Z</time>
      </trkpt>
      <trkpt lat="47.2236" lon="-1.42473">
        <ele>8</ele>
        <time>2010-08-13T16:08:01Z</time>
      </trkpt>
      <trkpt lat="47.22379" lon="-1.42419">
        <ele>8</ele>
        <time>2010-08-13T16:08:06Z</time>
      </trkpt>
      <trkpt lat="47.224" lon="-1.42359">
        <ele>9</ele>
        <time>2010-08-13T16:08:11Z</time>
      </trkpt>
      <trkpt lat="47.22418" lon="-1.42311">
        <ele>9</ele>
        <time>2010-08-13T16:08:16Z</time>
      </trkpt>
      <trkpt lat="47.2243" lon="-1.42274">
        <ele>10</ele>
        <time>2010-08-13T16:08:21Z</time>
      </trkpt>
      <trkpt lat="47.22445" lon="-1.42228">
        <ele>11</ele>
        <time>2010-08-13T16:08:26Z</time>
      </trkpt>
      <trkpt lat="47.22461" lon="-1.42185">
        <ele>11</ele>
        <time>2010-08-13T16:08:31Z</time>
      </trkpt>
      <trkpt lat="47.22479" lon="-1.42138">
        <ele>12</ele>
        <time>2010-08-13T16:08:36Z</time>
      </trkpt>
      <trkpt lat="47.22493" lon="-1.42099">
        <ele>13</ele>
        <time>2010-08-13T16:08:41Z</time>
      </trkpt>
      <trkpt lat="47.22506" lon="-1.42065">
        <ele>14</ele>
        <time>2010-08-13T16:08:46Z</time>
      </trkpt>
      <trkpt lat="47.22524" lon="-1.42022">
        <ele>13</ele>
        <time>2010-08-13T16:08:51Z</time>
      </trkpt>
      <trkpt lat="47.22543" lon="-1.41977">
        <ele>13</ele>
        <time>2010-08-13T16:08:56Z</time>
      </trkpt>
      <trkpt lat="47.22564" lon="-1.41922">
        <ele>14</ele>
        <time>2010-08-13T16:09:01Z</time>
      </trkpt>
      <trkpt lat="47.22578" lon="-1.41886">
        <ele>15</ele>
        <time>2010-08-13T16:09:06Z</time>
      </trkpt>
      <trkpt lat="47.22595" lon="-1.41844">
        <ele>15</ele>
        <time>2010-08-13T16:09:11Z</time>
      </trkpt>
      <trkpt lat="47.22615" lon="-1.41792">
        <ele>15</ele>
        <time>2010-08-13T16:09:16Z</time>
      </trkpt>
      <trkpt lat="47.22631" lon="-1.41749">
        <ele>16</ele>
        <time>2010-08-13T16:09:21Z</time>
      </trkpt>
      <trkpt lat="47.22647" lon="-1.41705">
        <ele>16</ele>
        <time>2010-08-13T16:09:26Z</time>
      </trkpt>
      <trkpt lat="47.22663" lon="-1.41669">
        <ele>15</ele>
        <time>2010-08-13T16:09:31Z</time>
      </trkpt>
      <trkpt lat="47.22684" lon="-1.41622">
        <ele>16</ele>
        <time>2010-08-13T16:09:36Z</time>
      </trkpt>
      <trkpt lat="47.22705" lon="-1.41567">
        <ele>17</ele>
        <time>2010-08-13T16:09:41Z</time>
      </trkpt>
      <trkpt lat="47.22723" lon="-1.41518">
        <ele>17</ele>
        <time>2010-08-13T16:09:46Z</time>
      </trkpt>
      <trkpt lat="47.22738" lon="-1.41477">
        <ele>17</ele>
        <time>2010-08-13T16:09:51Z</time>
      </trkpt>
      <trkpt lat="47.2276" lon="-1.41422">
        <ele>17</ele>
        <time>2010-08-13T16:09:56Z</time>
      </trkpt>
      <trkpt lat="47.22782" lon="-1.41362">
        <ele>16</ele>
        <time>2010-08-13T16:10:01Z</time>
      </trkpt>
      <trkpt lat="47.22806" lon="-1.41302">
        <ele>15</ele>
        <time>2010-08-13T16:10:06Z</time>
      </trkpt>
      <trkpt lat="47.22833" lon="-1.41233">
        <ele>14</ele>
        <time>2010-08-13T16:10:11Z</time>
      </trkpt>
      <trkpt lat="47.2285" lon="-1.41189">
        <ele>13</ele>
        <time>2010-08-13T16:10:16Z</time>
      </trkpt>
      <trkpt lat="47.2287" lon="-1.41137">
        <ele>13</ele>
        <time>2010-08-13T16:10:21Z</time>
      </trkpt>
      <trkpt lat="47.22895" lon="-1.41074">
        <ele>13</ele>
        <time>2010-08-13T16:10:26Z</time>
      </trkpt>
      <trkpt lat="47.22915" lon="-1.41022">
        <ele>13</ele>
        <time>2010-08-13T16:10:31Z</time>
      </trkpt>
      <trkpt lat="47.22934" lon="-1.40972">
        <ele>13</ele>
        <time>2010-08-13T16:10:36Z</time>
      </trkpt>
      <trkpt lat="47.2295" lon="-1.40931">
        <ele>13</ele>
        <time>2010-08-13T16:10:41Z</time>
      </trkpt>
      <trkpt lat="47.22969" lon="-1.40883">
        <ele>13</ele>
        <time>2010-08-13T16:10:46Z</time>
      </trkpt>
      <trkpt lat="47.22991" lon="-1.40826">
        <ele>13</ele>
        <time>2010-08-13T16:10:51Z</time>
      </trkpt>
      <trkpt lat="47.23009" lon="-1.40778">
        <ele>14</ele>
        <time>2010-08-13T16:10:56Z</time>
      </trkpt>
      <trkpt lat="47.23024" lon="-1.4074">
        <ele>15</ele>
        <time>2010-08-13T16:11:01Z</time>
      </trkpt>
      <trkpt lat="47.23043" lon="-1.40691">
        <ele>15</ele>
        <time>2010-08-13T16:11:06Z</time>
      </trkpt>
      <trkpt lat="47.23063" lon="-1.40643">
        <ele>14</ele>
        <time>2010-08-13T16:11:11Z</time>
      </trkpt>
      <trkpt lat="47.23085" lon="-1.40586">
        <ele>14</ele>
        <time>2010-08-13T16:11:16Z</time>
      </trkpt>
      <trkpt lat="47.23105" lon="-1.40536">
        <ele>13</ele>
        <time>2010-08-13T16:11:21Z</time>
      </trkpt>
      <trkpt lat="47.23121" lon="-1.40494">
        <ele>12</ele>
        <time>2010-08-13T16:11:26Z</time>
      </trkpt>
      <trkpt lat="47.23142" lon="-1.4044">
        <ele>12</ele>
        <time>2010-08-13T16:11:31Z</time>
      </trkpt>
      <trkpt lat="47.23169" lon="-1.40372">
        <ele>12</ele>
        <time>2010-08-13T16:11:36Z</time>
      </trkpt>
      <trkpt lat="47.23192" lon="-1.40311">
        <ele>11</ele>
        <time>2010-08-13T16:11:41Z</time>
      </trkpt>
      <trkpt lat="47.23211" lon="-1.40261">
        <ele>10</ele>
        <time>2010-08-13T16:11:46Z</time>
      </trkpt>
      <trkpt lat="47.23236" lon="-1.40199">
        <ele>9</ele>
        <time>2010-08-13T16:11:51Z</time>
      </trkpt>
      <trkpt lat="47.2326" lon="-1.40139">
        <ele>8</ele>
        <time>2010-08-13T16:11:56Z</time>
      </trkpt>
      <trkpt lat="47.23288" lon="-1.4007">
        <ele>7</ele>
        <time>2010-08-13T16:12:01Z</time>
      </trkpt>
      <trkpt lat="47.23309" lon="-1.40017">
        <ele>7</ele>
        <time>2010-08-13T16:12:06Z</time>
      </trkpt>
      <trkpt lat="47.23325" lon="-1.39973">
        <ele>7</ele>
        <time>2010-08-13T16:12:11Z</time>
      </trkpt>
      <trkpt lat="47.23343" lon="-1.39919">
        <ele>7</ele>
        <time>2010-08-13T16:12:16Z</time>
      </trkpt>
      <trkpt lat="47.23361" lon="-1.39851">
        <ele>7</ele>
        <time>2010-08-13T16:12:21Z</time>
      </trkpt>
      <trkpt lat="47.23371" lon="-1.39791">
        <ele>6</ele>
        <time>2010-08-13T16:12:26Z</time>
      </trkpt>
      <trkpt lat="47.23376" lon="-1.39742">
        <ele>7</ele>
        <time>2010-08-13T16:12:31Z</time>
      </trkpt>
      <trkpt lat="47.23382" lon="-1.3968">
        <ele>7</ele>
        <time>2010-08-13T16:12:36Z</time>
      </trkpt>
      <trkpt lat="47.23387" lon="-1.39618">
        <ele>7</ele>
        <time>2010-08-13T16:12:41Z</time>
      </trkpt>
      <trkpt lat="47.23394" lon="-1.39546">
        <ele>8</ele>
        <time>2010-08-13T16:12:46Z</time>
      </trkpt>
      <trkpt lat="47.234" lon="-1.39486">
        <ele>9</ele>
        <time>2010-08-13T16:12:51Z</time>
      </trkpt>
      <trkpt lat="47.23404" lon="-1.39439">
        <ele>9</ele>
        <time>2010-08-13T16:12:56Z</time>
      </trkpt>
      <trkpt lat="47.2341" lon="-1.39381">
        <ele>9</ele>
        <time>2010-08-13T16:13:01Z</time>
      </trkpt>
      <trkpt lat="47.23416" lon="-1.39315">
        <ele>10</ele>
        <time>2010-08-13T16:13:06Z</time>
      </trkpt>
      <trkpt lat="47.23422" lon="-1.39261">
        <ele>11</ele>
        <time>2010-08-13T16:13:11Z</time>
      </trkpt>
      <trkpt lat="47.23428" lon="-1.39206">
        <ele>12</ele>
        <time>2010-08-13T16:13:16Z</time>
      </trkpt>
      <trkpt lat="47.23431" lon="-1.39166">
        <ele>13</ele>
        <time>2010-08-13T16:13:21Z</time>
      </trkpt>
      <trkpt lat="47.23435" lon="-1.39119">
        <ele>13</ele>
        <time>2010-08-13T16:13:26Z</time>
      </trkpt>
      <trkpt lat="47.2344" lon="-1.39066">
        <ele>14</ele>
        <time>2010-08-13T16:13:31Z</time>
      </trkpt>
      <trkpt lat="47.23445" lon="-1.39022">
        <ele>14</ele>
        <time>2010-08-13T16:13:36Z</time>
      </trkpt>
      <trkpt lat="47.23448" lon="-1.38987">
        <ele>14</ele>
        <time>2010-08-13T16:13:41Z</time>
      </trkpt>
      <trkpt lat="47.23451" lon="-1.38943">
        <ele>14</ele>
        <time>2010-08-13T16:13:46Z</time>
      </trkpt>
      <trkpt lat="47.23456" lon="-1.38898">
        <ele>15</ele>
        <time>2010-08-13T16:13:51Z</time>
      </trkpt>
      <trkpt lat="47.23461" lon="-1.38842">
        <ele>15</ele>
        <time>2010-08-13T16:13:56Z</time>
      </trkpt>
      <trkpt lat="47.23465" lon="-1.38793">
        <ele>16</ele>
        <time>2010-08-13T16:14:01Z</time>
      </trkpt>
      <trkpt lat="47.23469" lon="-1.38753">
        <ele>16</ele>
        <time>2010-08-13T16:14:06Z</time>
      </trkpt>
      <trkpt lat="47.23473" lon="-1.38699">
        <ele>17</ele>
        <time>2010-08-13T16:14:11Z</time>
      </trkpt>
      <trkpt lat="47.23479" lon="-1.38634">
        <ele>17</ele>
        <time>2010-08-13T16:14:16Z</time>
      </trkpt>
      <trkpt lat="47.23484" lon="-1.38578">
        <ele>18</ele>
        <time>2010-08-13T16:14:21Z</time>
      </trkpt>
      <trkpt lat="47.23489" lon="-1.38531">
        <ele>18</ele>
        <time>2010-08-13T16:14:26Z</time>
      </trkpt>
      <trkpt lat="47.23494" lon="-1.3847">
        <ele>17</ele>
        <time>2010-08-13T16:14:31Z</time>
      </trkpt>
      <trkpt lat="47.23499" lon="-1.38406">
        <ele>16</ele>
        <time>2010-08-13T16:14:36Z</time>
      </trkpt>
      <trkpt lat="47.23507" lon="-1.38327">
        <ele>15</ele>
        <time>2010-08-13T16:14:41Z</time>
      </trkpt>
      <trkpt lat="47.23513" lon="-1.38258">
        <ele>15</ele>
        <time>2010-08-13T16:14:46Z</time>
      </trkpt>
      <trkpt lat="47.23519" lon="-1.38202">
        <ele>14</ele>
        <time>2010-08-13T16:14:51Z</time>
      </trkpt>
      <trkpt lat="47.23525" lon="-1.38134">
        <ele>14</ele>
        <time>2010-08-13T16:14:56Z</time>
      </trkpt>
      <trkpt lat="47.23532" lon="-1.38054">
        <ele>13</ele>
        <time>2010-08-13T16:15:01Z</time>
      </trkpt>
      <trkpt lat="47.23537" lon="-1.37993">
        <ele>13</ele>
        <time>2010-08-13T16:15:06Z</time>
      </trkpt>
      <trkpt lat="47.23543" lon="-1.37945">
        <ele>13</ele>
        <time>2010-08-13T16:15:11Z</time>
      </trkpt>
      <trkpt lat="47.23547" lon="-1.37885">
        <ele>13</ele>
        <time>2010-08-13T16:15:16Z</time>
      </trkpt>
      <trkpt lat="47.23553" lon="-1.37814">
        <ele>12</ele>
        <time>2010-08-13T16:15:21Z</time>
      </trkpt>
      <trkpt lat="47.23558" lon="-1.37756">
        <ele>12</ele>
        <time>2010-08-13T16:15:26Z</time>
      </trkpt>
      <trkpt lat="47.23563" lon="-1.37699">
        <ele>12</ele>
        <time>2010-08-13T16:15:31Z</time>
      </trkpt>
      <trkpt lat="47.23568" lon="-1.37652">
        <ele>12</ele>
        <time>2010-08-13T16:15:36Z</time>
      </trkpt>
      <trkpt lat="47.23575" lon="-1.37592">
        <ele>12</ele>
        <time>2010-08-13T16:15:41Z</time>
      </trkpt>
      <trkpt lat="47.23578" lon="-1.37519">
        <ele>10</ele>
        <time>2010-08-13T16:15:46Z</time>
      </trkpt>
      <trkpt lat="47.23585" lon="-1.37456">
        <ele>11</ele>
        <time>2010-08-13T16:15:51Z</time>
      </trkpt>
      <trkpt lat="47.23591" lon="-1.37407">
        <ele>12</ele>
        <time>2010-08-13T16:15:56Z</time>
      </trkpt>
      <trkpt lat="47.23598" lon="-1.37347">
        <ele>12</ele>
        <time>2010-08-13T16:16:01Z</time>
      </trkpt>
      <trkpt lat="47.23605" lon="-1.37287">
        <ele>11</ele>
        <time>2010-08-13T16:16:06Z</time>
      </trkpt>
      <trkpt lat="47.23614" lon="-1.37216">
        <ele>11</ele>
        <time>2010-08-13T16:16:11Z</time>
      </trkpt>
      <trkpt lat="47.23622" lon="-1.37157">
        <ele>11</ele>
        <time>2010-08-13T16:16:16Z</time>
      </trkpt>
      <trkpt lat="47.23631" lon="-1.37111">
        <ele>11</ele>
        <time>2010-08-13T16:16:21Z</time>
      </trkpt>
      <trkpt lat="47.23646" lon="-1.37056">
        <ele>11</ele>
        <time>2010-08-13T16:16:26Z</time>
      </trkpt>
      <trkpt lat="47.23658" lon="-1.37002">
        <ele>11</ele>
        <time>2010-08-13T16:16:31Z</time>
      </trkpt>
      <trkpt lat="47.23683" lon="-1.36949">
        <ele>11</ele>
        <time>2010-08-13T16:16:36Z</time>
      </trkpt>
      <trkpt lat="47.2371" lon="-1.36908">
        <ele>11</ele>
        <time>2010-08-13T16:16:41Z</time>
      </trkpt>
      <trkpt lat="47.23729" lon="-1.36878">
        <ele>11</ele>
        <time>2010-08-13T16:16:46Z</time>
      </trkpt>
      <trkpt lat="47.23761" lon="-1.36839">
        <ele>11</ele>
        <time>2010-08-13T16:16:51Z</time>
      </trkpt>
      <trkpt lat="47.23788" lon="-1.3681">
        <ele>12</ele>
        <time>2010-08-13T16:16:56Z</time>
      </trkpt>
      <trkpt lat="47.23816" lon="-1.36785">
        <ele>12</ele>
        <time>2010-08-13T16:17:01Z</time>
      </trkpt>
      <trkpt lat="47.23838" lon="-1.36767">
        <ele>13</ele>
        <time>2010-08-13T16:17:06Z</time>
      </trkpt>
      <trkpt lat="47.23867" lon="-1.36744">
        <ele>13</ele>
        <time>2010-08-13T16:17:11Z</time>
      </trkpt>
      <trkpt lat="47.23896" lon="-1.36721">
        <ele>13</ele>
        <time>2010-08-13T16:17:16Z</time>
      </trkpt>
      <trkpt lat="47.23929" lon="-1.36694">
        <ele>14</ele>
        <time>2010-08-13T16:17:21Z</time>
      </trkpt>
      <trkpt lat="47.23957" lon="-1.36672">
        <ele>15</ele>
        <time>2010-08-13T16:17:26Z</time>
      </trkpt>
      <trkpt lat="47.23978" lon="-1.36655">
        <ele>16</ele>
        <time>2010-08-13T16:17:31Z</time>
      </trkpt>
      <trkpt lat="47.24003" lon="-1.36634">
        <ele>17</ele>
        <time>2010-08-13T16:17:36Z</time>
      </trkpt>
      <trkpt lat="47.24033" lon="-1.36609">
        <ele>17</ele>
        <time>2010-08-13T16:17:41Z</time>
      </trkpt>
      <trkpt lat="47.24058" lon="-1.36587">
        <ele>17</ele>
        <time>2010-08-13T16:17:46Z</time>
      </trkpt>
      <trkpt lat="47.24078" lon="-1.36568">
        <ele>17</ele>
        <time>2010-08-13T16:17:51Z</time>
      </trkpt>
      <trkpt lat="47.24106" lon="-1.36542">
        <ele>17</ele>
        <time>2010-08-13T16:17:56Z</time>
      </trkpt>
      <trkpt lat="47.24131" lon="-1.36516">
        <ele>17</ele>
        <time>2010-08-13T16:18:01Z</time>
      </trkpt>
      <trkpt lat="47.2416" lon="-1.36483">
        <ele>17</ele>
        <time>2010-08-13T16:18:06Z</time>
      </trkpt>
      <trkpt lat="47.24184" lon="-1.36456">
        <ele>17</ele>
        <time>2010-08-13T16:18:11Z</time>
      </trkpt>
      <trkpt lat="47.24203" lon="-1.36432">
        <ele>17</ele>
        <time>2010-08-13T16:18:16Z</time>
      </trkpt>
      <trkpt lat="47.24227" lon="-1.36402">
        <ele>19</ele>
        <time>2010-08-13T16:18:21Z</time>
      </trkpt>
      <trkpt lat="47.24254" lon="-1.36365">
        <ele>19</ele>
        <time>2010-08-13T16:18:26Z</time>
      </trkpt>
      <trkpt lat="47.24277" lon="-1.36332">
        <ele>20</ele>
        <time>2010-08-13T16:18:31Z</time>
      </trkpt>
      <trkpt lat="47.24294" lon="-1.36306">
        <ele>21</ele>
        <time>2010-08-13T16:18:36Z</time>
      </trkpt>
      <trkpt lat="47.24315" lon="-1.36272">
        <ele>21</ele>
        <time>2010-08-13T16:18:41Z</time>
      </trkpt>
      <trkpt lat="47.24335" lon="-1.36237">
        <ele>22</ele>
        <time>2010-08-13T16:18:46Z</time>
      </trkpt>
      <trkpt lat="47.24358" lon="-1.36195">
        <ele>23</ele>
        <time>2010-08-13T16:18:51Z</time>
      </trkpt>
      <trkpt lat="47.24377" lon="-1.36158">
        <ele>24</ele>
        <time>2010-08-13T16:18:56Z</time>
      </trkpt>
      <trkpt lat="47.24392" lon="-1.36129">
        <ele>24</ele>
        <time>2010-08-13T16:19:01Z</time>
      </trkpt>
      <trkpt lat="47.2441" lon="-1.36093">
        <ele>25</ele>
        <time>2010-08-13T16:19:06Z</time>
      </trkpt>
      <trkpt lat="47.24422" lon="-1.36053">
        <ele>26</ele>
        <time>2010-08-13T16:19:11Z</time>
      </trkpt>
      <trkpt lat="47.24437" lon="-1.36007">
        <ele>27</ele>
        <time>2010-08-13T16:19:16Z</time>
      </trkpt>
      <trkpt lat="47.24457" lon="-1.35971">
        <ele>28</ele>
        <time>2010-08-13T16:19:21Z</time>
      </trkpt>
      <trkpt lat="47.24469" lon="-1.35939">
        <ele>29</ele>
        <time>2010-08-13T16:19:26Z</time>
      </trkpt>
      <trkpt lat="47.24486" lon="-1.35891">
        <ele>30</ele>
        <time>2010-08-13T16:19:31Z</time>
      </trkpt>
      <trkpt lat="47.24499" lon="-1.35851">
        <ele>30</ele>
        <time>2010-08-13T16:19:36Z</time>
      </trkpt>
      <trkpt lat="47.24512" lon="-1.35809">
        <ele>31</ele>
        <time>2010-08-13T16:19:41Z</time>
      </trkpt>
      <trkpt lat="47.24523" lon="-1.35774">
        <ele>31</ele>
        <time>2010-08-13T16:19:46Z</time>
      </trkpt>
      <trkpt lat="47.24535" lon="-1.35734">
        <ele>34</ele>
        <time>2010-08-13T16:19:51Z</time>
      </trkpt>
      <trkpt lat="47.24547" lon="-1.35687">
        <ele>34</ele>
        <time>2010-08-13T16:19:56Z</time>
      </trkpt>
      <trkpt lat="47.24558" lon="-1.35647">
        <ele>37</ele>
        <time>2010-08-13T16:20:01Z</time>
      </trkpt>
      <trkpt lat="47.24566" lon="-1.35607">
        <ele>37</ele>
        <time>2010-08-13T16:20:06Z</time>
      </trkpt>
      <trkpt lat="47.24572" lon="-1.35576">
        <ele>39</ele>
        <time>2010-08-13T16:20:11Z</time>
      </trkpt>
      <trkpt lat="47.24578" lon="-1.35536">
        <ele>40</ele>
        <time>2010-08-13T16:20:16Z</time>
      </trkpt>
      <trkpt lat="47.24586" lon="-1.35489">
        <ele>42</ele>
        <time>2010-08-13T16:20:21Z</time>
      </trkpt>
      <trkpt lat="47.24592" lon="-1.35452">
        <ele>43</ele>
        <time>2010-08-13T16:20:26Z</time>
      </trkpt>
      <trkpt lat="47.24596" lon="-1.35422">
        <ele>43</ele>
        <time>2010-08-13T16:20:31Z</time>
      </trkpt>
      <trkpt lat="47.24601" lon="-1.35385">
        <ele>45</ele>
        <time>2010-08-13T16:20:36Z</time>
      </trkpt>
      <trkpt lat="47.24608" lon="-1.35343">
        <ele>45</ele>
        <time>2010-08-13T16:20:41Z</time>
      </trkpt>
      <trkpt lat="47.24617" lon="-1.35292">
        <ele>47</ele>
        <time>2010-08-13T16:20:46Z</time>
      </trkpt>
      <trkpt lat="47.24622" lon="-1.35251">
        <ele>48</ele>
        <time>2010-08-13T16:20:51Z</time>
      </trkpt>
      <trkpt lat="47.24627" lon="-1.35218">
        <ele>49</ele>
        <time>2010-08-13T16:20:56Z</time>
      </trkpt>
      <trkpt lat="47.24634" lon="-1.35175">
        <ele>49</ele>
        <time>2010-08-13T16:21:01Z</time>
      </trkpt>
      <trkpt lat="47.2464" lon="-1.35132">
        <ele>50</ele>
        <time>2010-08-13T16:21:06Z</time>
      </trkpt>
      <trkpt lat="47.24648" lon="-1.35081">
        <ele>50</ele>
        <time>2010-08-13T16:21:11Z</time>
      </trkpt>
      <trkpt lat="47.24654" lon="-1.35046">
        <ele>51</ele>
        <time>2010-08-13T16:21:16Z</time>
      </trkpt>
      <trkpt lat="47.2466" lon="-1.35002">
        <ele>50</ele>
        <time>2010-08-13T16:21:21Z</time>
      </trkpt>
      <trkpt lat="47.24666" lon="-1.34958">
        <ele>51</ele>
        <time>2010-08-13T16:21:26Z</time>
      </trkpt>
      <trkpt lat="47.24675" lon="-1.34905">
        <ele>51</ele>
        <time>2010-08-13T16:21:31Z</time>
      </trkpt>
      <trkpt lat="47.24681" lon="-1.34861">
        <ele>52</ele>
        <time>2010-08-13T16:21:36Z</time>
      </trkpt>
      <trkpt lat="47.24686" lon="-1.34825">
        <ele>53</ele>
        <time>2010-08-13T16:21:41Z</time>
      </trkpt>
      <trkpt lat="47.24691" lon="-1.3478">
        <ele>54</ele>
        <time>2010-08-13T16:21:46Z</time>
      </trkpt>
      <trkpt lat="47.24696" lon="-1.34725">
        <ele>56</ele>
        <time>2010-08-13T16:21:51Z</time>
      </trkpt>
      <trkpt lat="47.247" lon="-1.3468">
        <ele>57</ele>
        <time>2010-08-13T16:21:56Z</time>
      </trkpt>
      <trkpt lat="47.24702" lon="-1.34643">
        <ele>57</ele>
        <time>2010-08-13T16:22:01Z</time>
      </trkpt>
      <trkpt lat="47.24702" lon="-1.34597">
        <ele>58</ele>
        <time>2010-08-13T16:22:06Z</time>
      </trkpt>
      <trkpt lat="47.24693" lon="-1.34554">
        <ele>58</ele>
        <time>2010-08-13T16:22:11Z</time>
      </trkpt>
      <trkpt lat="47.24693" lon="-1.34496">
        <ele>58</ele>
        <time>2010-08-13T16:22:16Z</time>
      </trkpt>
      <trkpt lat="47.24686" lon="-1.34448">
        <ele>58</ele>
        <time>2010-08-13T16:22:21Z</time>
      </trkpt>
      <trkpt lat="47.24678" lon="-1.3441">
        <ele>59</ele>
        <time>2010-08-13T16:22:26Z</time>
      </trkpt>
      <trkpt lat="47.24667" lon="-1.34362">
        <ele>60</ele>
        <time>2010-08-13T16:22:31Z</time>
      </trkpt>
      <trkpt lat="47.24649" lon="-1.34308">
        <ele>61</ele>
        <time>2010-08-13T16:22:36Z</time>
      </trkpt>
      <trkpt lat="47.24629" lon="-1.34262">
        <ele>61</ele>
        <time>2010-08-13T16:22:41Z</time>
      </trkpt>
      <trkpt lat="47.24608" lon="-1.34216">
        <ele>61</ele>
        <time>2010-08-13T16:22:46Z</time>
      </trkpt>
      <trkpt lat="47.2459" lon="-1.34178">
        <ele>60</ele>
        <time>2010-08-13T16:22:51Z</time>
      </trkpt>
      <trkpt lat="47.24565" lon="-1.3413">
        <ele>60</ele>
        <time>2010-08-13T16:22:56Z</time>
      </trkpt>
      <trkpt lat="47.24531" lon="-1.34072">
        <ele>59</ele>
        <time>2010-08-13T16:23:01Z</time>
      </trkpt>
      <trkpt lat="47.24506" lon="-1.34021">
        <ele>58</ele>
        <time>2010-08-13T16:23:06Z</time>
      </trkpt>
      <trkpt lat="47.2448" lon="-1.33986">
        <ele>56</ele>
        <time>2010-08-13T16:23:11Z</time>
      </trkpt>
      <trkpt lat="47.24457" lon="-1.33926">
        <ele>55</ele>
        <time>2010-08-13T16:23:16Z</time>
      </trkpt>
      <trkpt lat="47.24415" lon="-1.33857">
        <ele>52</ele>
        <time>2010-08-13T16:23:21Z</time>
      </trkpt>
      <trkpt lat="47.24383" lon="-1.33792">
        <ele>51</ele>
        <time>2010-08-13T16:23:26Z</time>
      </trkpt>
      <trkpt lat="47.24349" lon="-1.33727">
        <ele>52</ele>
        <time>2010-08-13T16:23:31Z</time>
      </trkpt>
      <trkpt lat="47.24318" lon="-1.33676">
        <ele>51</ele>
        <time>2010-08-13T16:23:36Z</time>
      </trkpt>
      <trkpt lat="47.24287" lon="-1.33609">
        <ele>50</ele>
        <time>2010-08-13T16:23:41Z</time>
      </trkpt>
      <trkpt lat="47.24254" lon="-1.33525">
        <ele>49</ele>
        <time>2010-08-13T16:23:46Z</time>
      </trkpt>
      <trkpt lat="47.24236" lon="-1.33453">
        <ele>49</ele>
        <time>2010-08-13T16:23:51Z</time>
      </trkpt>
      <trkpt lat="47.24226" lon="-1.33397">
        <ele>48</ele>
        <time>2010-08-13T16:23:56Z</time>
      </trkpt>
      <trkpt lat="47.24212" lon="-1.33334">
        <ele>48</ele>
        <time>2010-08-13T16:24:01Z</time>
      </trkpt>
      <trkpt lat="47.2419" lon="-1.33288">
        <ele>49</ele>
        <time>2010-08-13T16:24:06Z</time>
      </trkpt>
      <trkpt lat="47.24197" lon="-1.33237">
        <ele>51</ele>
        <time>2010-08-13T16:24:11Z</time>
      </trkpt>
      <trkpt lat="47.24202" lon="-1.33187">
        <ele>51</ele>
        <time>2010-08-13T16:24:16Z</time>
      </trkpt>
      <trkpt lat="47.24204" lon="-1.33149">
        <ele>52</ele>
        <time>2010-08-13T16:24:21Z</time>
      </trkpt>
      <trkpt lat="47.24209" lon="-1.33101">
        <ele>53</ele>
        <time>2010-08-13T16:24:26Z</time>
      </trkpt>
      <trkpt lat="47.24218" lon="-1.33045">
        <ele>54</ele>
        <time>2010-08-13T16:24:31Z</time>
      </trkpt>
      <trkpt lat="47.24228" lon="-1.33">
        <ele>54</ele>
        <time>2010-08-13T16:24:36Z</time>
      </trkpt>
      <trkpt lat="47.24237" lon="-1.32965">
        <ele>55</ele>
        <time>2010-08-13T16:24:41Z</time>
      </trkpt>
      <trkpt lat="47.24248" lon="-1.32921">
        <ele>55</ele>
        <time>2010-08-13T16:24:46Z</time>
      </trkpt>
      <trkpt lat="47.24258" lon="-1.32878">
        <ele>55</ele>
        <time>2010-08-13T16:24:51Z</time>
      </trkpt>
      <trkpt lat="47.24269" lon="-1.32828">
        <ele>57</ele>
        <time>2010-08-13T16:24:56Z</time>
      </trkpt>
      <trkpt lat="47.24278" lon="-1.32787">
        <ele>57</ele>
        <time>2010-08-13T16:25:01Z</time>
      </trkpt>
      <trkpt lat="47.24285" lon="-1.32753">
        <ele>58</ele>
        <time>2010-08-13T16:25:06Z</time>
      </trkpt>
      <trkpt lat="47.24295" lon="-1.32711">
        <ele>59</ele>
        <time>2010-08-13T16:25:11Z</time>
      </trkpt>
      <trkpt lat="47.24307" lon="-1.32656">
        <ele>59</ele>
        <time>2010-08-13T16:25:16Z</time>
      </trkpt>
      <trkpt lat="47.24318" lon="-1.32603">
        <ele>59</ele>
        <time>2010-08-13T16:25:21Z</time>
      </trkpt>
      <trkpt lat="47.24328" lon="-1.3255">
        <ele>60</ele>
        <time>2010-08-13T16:25:26Z</time>
      </trkpt>
      <trkpt lat="47.24335" lon="-1.32511">
        <ele>60</ele>
        <time>2010-08-13T16:25:31Z</time>
      </trkpt>
      <trkpt lat="47.24346" lon="-1.32464">
        <ele>61</ele>
        <time>2010-08-13T16:25:36Z</time>
      </trkpt>
      <trkpt lat="47.24359" lon="-1.32411">
        <ele>62</ele>
        <time>2010-08-13T16:25:41Z</time>
      </trkpt>
      <trkpt lat="47.2437" lon="-1.3237">
        <ele>63</ele>
        <time>2010-08-13T16:25:46Z</time>
      </trkpt>
      <trkpt lat="47.24378" lon="-1.32336">
        <ele>63</ele>
        <time>2010-08-13T16:25:51Z</time>
      </trkpt>
      <trkpt lat="47.24388" lon="-1.32293">
        <ele>64</ele>
        <time>2010-08-13T16:25:56Z</time>
      </trkpt>
      <trkpt lat="47.24398" lon="-1.32244">
        <ele>67</ele>
        <time>2010-08-13T16:26:01Z</time>
      </trkpt>
      <trkpt lat="47.24407" lon="-1.32204">
        <ele>68</ele>
        <time>2010-08-13T16:26:06Z</time>
      </trkpt>
      <trkpt lat="47.24416" lon="-1.32163">
        <ele>69</ele>
        <time>2010-08-13T16:26:11Z</time>
      </trkpt>
      <trkpt lat="47.24424" lon="-1.32129">
        <ele>69</ele>
        <time>2010-08-13T16:26:16Z</time>
      </trkpt>
      <trkpt lat="47.24432" lon="-1.32087">
        <ele>69</ele>
        <time>2010-08-13T16:26:21Z</time>
      </trkpt>
      <trkpt lat="47.24445" lon="-1.32029">
        <ele>70</ele>
        <time>2010-08-13T16:26:26Z</time>
      </trkpt>
      <trkpt lat="47.24457" lon="-1.31974">
        <ele>70</ele>
        <time>2010-08-13T16:26:31Z</time>
      </trkpt>
      <trkpt lat="47.24466" lon="-1.31929">
        <ele>70</ele>
        <time>2010-08-13T16:26:36Z</time>
      </trkpt>
      <trkpt lat="47.24479" lon="-1.31869">
        <ele>70</ele>
        <time>2010-08-13T16:26:41Z</time>
      </trkpt>
      <trkpt lat="47.24494" lon="-1.31799">
        <ele>70</ele>
        <time>2010-08-13T16:26:46Z</time>
      </trkpt>
      <trkpt lat="47.24507" lon="-1.31742">
        <ele>71</ele>
        <time>2010-08-13T16:26:51Z</time>
      </trkpt>
      <trkpt lat="47.24518" lon="-1.31688">
        <ele>71</ele>
        <time>2010-08-13T16:26:56Z</time>
      </trkpt>
      <trkpt lat="47.24528" lon="-1.31646">
        <ele>72</ele>
        <time>2010-08-13T16:27:01Z</time>
      </trkpt>
      <trkpt lat="47.2454" lon="-1.31594">
        <ele>72</ele>
        <time>2010-08-13T16:27:06Z</time>
      </trkpt>
      <trkpt lat="47.24554" lon="-1.31529">
        <ele>72</ele>
        <time>2010-08-13T16:27:11Z</time>
      </trkpt>
      <trkpt lat="47.24567" lon="-1.31473">
        <ele>71</ele>
        <time>2010-08-13T16:27:16Z</time>
      </trkpt>
      <trkpt lat="47.24577" lon="-1.31427">
        <ele>71</ele>
        <time>2010-08-13T16:27:21Z</time>
      </trkpt>
      <trkpt lat="47.24589" lon="-1.3137">
        <ele>71</ele>
        <time>2010-08-13T16:27:26Z</time>
      </trkpt>
      <trkpt lat="47.24601" lon="-1.31314">
        <ele>71</ele>
        <time>2010-08-13T16:27:31Z</time>
      </trkpt>
      <trkpt lat="47.24615" lon="-1.31247">
        <ele>71</ele>
        <time>2010-08-13T16:27:36Z</time>
      </trkpt>
      <trkpt lat="47.24628" lon="-1.3119">
        <ele>71</ele>
        <time>2010-08-13T16:27:41Z</time>
      </trkpt>
      <trkpt lat="47.24638" lon="-1.31144">
        <ele>70</ele>
        <time>2010-08-13T16:27:46Z</time>
      </trkpt>
      <trkpt lat="47.24651" lon="-1.31085">
        <ele>70</ele>
        <time>2010-08-13T16:27:51Z</time>
      </trkpt>
      <trkpt lat="47.24667" lon="-1.31013">
        <ele>69</ele>
        <time>2010-08-13T16:27:56Z</time>
      </trkpt>
      <trkpt lat="47.2468" lon="-1.30953">
        <ele>70</ele>
        <time>2010-08-13T16:28:01Z</time>
      </trkpt>
      <trkpt lat="47.24688" lon="-1.30908">
        <ele>69</ele>
        <time>2010-08-13T16:28:06Z</time>
      </trkpt>
      <trkpt lat="47.247" lon="-1.30853">
        <ele>70</ele>
        <time>2010-08-13T16:28:11Z</time>
      </trkpt>
      <trkpt lat="47.24711" lon="-1.308">
        <ele>70</ele>
        <time>2010-08-13T16:28:16Z</time>
      </trkpt>
      <trkpt lat="47.24724" lon="-1.3074">
        <ele>71</ele>
        <time>2010-08-13T16:28:21Z</time>
      </trkpt>
      <trkpt lat="47.24735" lon="-1.30694">
        <ele>71</ele>
        <time>2010-08-13T16:28:26Z</time>
      </trkpt>
      <trkpt lat="47.24743" lon="-1.30657">
        <ele>71</ele>
        <time>2010-08-13T16:28:31Z</time>
      </trkpt>
      <trkpt lat="47.24754" lon="-1.30611">
        <ele>72</ele>
        <time>2010-08-13T16:28:36Z</time>
      </trkpt>
      <trkpt lat="47.24767" lon="-1.30553">
        <ele>72</ele>
        <time>2010-08-13T16:28:41Z</time>
      </trkpt>
      <trkpt lat="47.24778" lon="-1.30504">
        <ele>73</ele>
        <time>2010-08-13T16:28:46Z</time>
      </trkpt>
      <trkpt lat="47.24788" lon="-1.30456">
        <ele>74</ele>
        <time>2010-08-13T16:28:51Z</time>
      </trkpt>
      <trkpt lat="47.24796" lon="-1.30419">
        <ele>74</ele>
        <time>2010-08-13T16:28:56Z</time>
      </trkpt>
      <trkpt lat="47.24809" lon="-1.30363">
        <ele>75</ele>
        <time>2010-08-13T16:29:01Z</time>
      </trkpt>
      <trkpt lat="47.24817" lon="-1.30326">
        <ele>76</ele>
        <time>2010-08-13T16:29:06Z</time>
      </trkpt>
      <trkpt lat="47.24829" lon="-1.3027">
        <ele>76</ele>
        <time>2010-08-13T16:29:11Z</time>
      </trkpt>
      <trkpt lat="47.24837" lon="-1.30233">
        <ele>77</ele>
        <time>2010-08-13T16:29:16Z</time>
      </trkpt>
      <trkpt lat="47.24848" lon="-1.30183">
        <ele>78</ele>
        <time>2010-08-13T16:29:21Z</time>
      </trkpt>
      <trkpt lat="47.24861" lon="-1.30121">
        <ele>78</ele>
        <time>2010-08-13T16:29:26Z</time>
      </trkpt>
      <trkpt lat="47.24872" lon="-1.30071">
        <ele>79</ele>
        <time>2010-08-13T16:29:31Z</time>
      </trkpt>
      <trkpt lat="47.24883" lon="-1.30022">
        <ele>80</ele>
        <time>2010-08-13T16:29:36Z</time>
      </trkpt>
      <trkpt lat="47.24891" lon="-1.29981">
        <ele>81</ele>
        <time>2010-08-13T16:29:41Z</time>
      </trkpt>
      <trkpt lat="47.24902" lon="-1.29931">
        <ele>81</ele>
        <time>2010-08-13T16:29:46Z</time>
      </trkpt>
      <trkpt lat="47.24914" lon="-1.29879">
        <ele>81</ele>
        <time>2010-08-13T16:29:51Z</time>
      </trkpt>
      <trkpt lat="47.24928" lon="-1.29816">
        <ele>80</ele>
        <time>2010-08-13T16:29:56Z</time>
      </trkpt>
      <trkpt lat="47.24937" lon="-1.29774">
        <ele>80</ele>
        <time>2010-08-13T16:30:01Z</time>
      </trkpt>
      <trkpt lat="47.24948" lon="-1.29721">
        <ele>80</ele>
        <time>2010-08-13T16:30:06Z</time>
      </trkpt>
      <trkpt lat="47.24959" lon="-1.29668">
        <ele>80</ele>
        <time>2010-08-13T16:30:11Z</time>
      </trkpt>
      <trkpt lat="47.24973" lon="-1.29605">
        <ele>80</ele>
        <time>2010-08-13T16:30:16Z</time>
      </trkpt>
      <trkpt lat="47.24986" lon="-1.29549">
        <ele>80</ele>
        <time>2010-08-13T16:30:21Z</time>
      </trkpt>
      <trkpt lat="47.24996" lon="-1.29503">
        <ele>80</ele>
        <time>2010-08-13T16:30:26Z</time>
      </trkpt>
      <trkpt lat="47.25008" lon="-1.29447">
        <ele>79</ele>
        <time>2010-08-13T16:30:31Z</time>
      </trkpt>
      <trkpt lat="47.25022" lon="-1.29381">
        <ele>79</ele>
        <time>2010-08-13T16:30:36Z</time>
      </trkpt>
      <trkpt lat="47.25034" lon="-1.29328">
        <ele>80</ele>
        <time>2010-08-13T16:30:41Z</time>
      </trkpt>
      <trkpt lat="47.25043" lon="-1.29285">
        <ele>80</ele>
        <time>2010-08-13T16:30:46Z</time>
      </trkpt>
      <trkpt lat="47.25055" lon="-1.29231">
        <ele>81</ele>
        <time>2010-08-13T16:30:51Z</time>
      </trkpt>
      <trkpt lat="47.25067" lon="-1.29177">
        <ele>80</ele>
        <time>2010-08-13T16:30:56Z</time>
      </trkpt>
      <trkpt lat="47.25082" lon="-1.29112">
        <ele>81</ele>
        <time>2010-08-13T16:31:01Z</time>
      </trkpt>
      <trkpt lat="47.25094" lon="-1.29059">
        <ele>81</ele>
        <time>2010-08-13T16:31:06Z</time>
      </trkpt>
      <trkpt lat="47.25103" lon="-1.29015">
        <ele>82</ele>
        <time>2010-08-13T16:31:11Z</time>
      </trkpt>
      <trkpt lat="47.25115" lon="-1.2896">
        <ele>82</ele>
        <time>2010-08-13T16:31:16Z</time>
      </trkpt>
      <trkpt lat="47.25128" lon="-1.28896">
        <ele>83</ele>
        <time>2010-08-13T16:31:21Z</time>
      </trkpt>
      <trkpt lat="47.2514" lon="-1.28843">
        <ele>83</ele>
        <time>2010-08-13T16:31:26Z</time>
      </trkpt>
      <trkpt lat="47.2515" lon="-1.288">
        <ele>83</ele>
        <time>2010-08-13T16:31:31Z</time>
      </trkpt>
      <trkpt lat="47.25163" lon="-1.28744">
        <ele>83</ele>
        <time>2010-08-13T16:31:36Z</time>
      </trkpt>
      <trkpt lat="47.25174" lon="-1.28689">
        <ele>83</ele>
        <time>2010-08-13T16:31:41Z</time>
      </trkpt>
      <trkpt lat="47.25188" lon="-1.28624">
        <ele>83</ele>
        <time>2010-08-13T16:31:46Z</time>
      </trkpt>
      <trkpt lat="47.252" lon="-1.2857">
        <ele>84</ele>
        <time>2010-08-13T16:31:51Z</time>
      </trkpt>
      <trkpt lat="47.25209" lon="-1.28526">
        <ele>84</ele>
        <time>2010-08-13T16:31:56Z</time>
      </trkpt>
      <trkpt lat="47.25221" lon="-1.28472">
        <ele>84</ele>
        <time>2010-08-13T16:32:01Z</time>
      </trkpt>
      <trkpt lat="47.25235" lon="-1.28407">
        <ele>85</ele>
        <time>2010-08-13T16:32:06Z</time>
      </trkpt>
      <trkpt lat="47.25247" lon="-1.28352">
        <ele>85</ele>
        <time>2010-08-13T16:32:11Z</time>
      </trkpt>
      <trkpt lat="47.25259" lon="-1.28296">
        <ele>85</ele>
        <time>2010-08-13T16:32:16Z</time>
      </trkpt>
      <trkpt lat="47.25269" lon="-1.2825">
        <ele>85</ele>
        <time>2010-08-13T16:32:21Z</time>
      </trkpt>
      <trkpt lat="47.25281" lon="-1.28194">
        <ele>85</ele>
        <time>2010-08-13T16:32:26Z</time>
      </trkpt>
      <trkpt lat="47.25292" lon="-1.28141">
        <ele>86</ele>
        <time>2010-08-13T16:32:31Z</time>
      </trkpt>
      <trkpt lat="47.25307" lon="-1.28077">
        <ele>86</ele>
        <time>2010-08-13T16:32:36Z</time>
      </trkpt>
      <trkpt lat="47.25316" lon="-1.28034">
        <ele>86</ele>
        <time>2010-08-13T16:32:41Z</time>
      </trkpt>
      <trkpt lat="47.25327" lon="-1.2798">
        <ele>86</ele>
        <time>2010-08-13T16:32:46Z</time>
      </trkpt>
      <trkpt lat="47.25339" lon="-1.27927">
        <ele>85</ele>
        <time>2010-08-13T16:32:51Z</time>
      </trkpt>
      <trkpt lat="47.25354" lon="-1.27862">
        <ele>85</ele>
        <time>2010-08-13T16:32:56Z</time>
      </trkpt>
      <trkpt lat="47.25366" lon="-1.27806">
        <ele>85</ele>
        <time>2010-08-13T16:33:01Z</time>
      </trkpt>
      <trkpt lat="47.25376" lon="-1.2776">
        <ele>86</ele>
        <time>2010-08-13T16:33:06Z</time>
      </trkpt>
      <trkpt lat="47.25389" lon="-1.27701">
        <ele>85</ele>
        <time>2010-08-13T16:33:11Z</time>
      </trkpt>
      <trkpt lat="47.25404" lon="-1.27629">
        <ele>84</ele>
        <time>2010-08-13T16:33:16Z</time>
      </trkpt>
      <trkpt lat="47.25418" lon="-1.27566">
        <ele>83</ele>
        <time>2010-08-13T16:33:21Z</time>
      </trkpt>
      <trkpt lat="47.25429" lon="-1.27515">
        <ele>82</ele>
        <time>2010-08-13T16:33:26Z</time>
      </trkpt>
      <trkpt lat="47.25444" lon="-1.2745">
        <ele>81</ele>
        <time>2010-08-13T16:33:31Z</time>
      </trkpt>
      <trkpt lat="47.25458" lon="-1.27383">
        <ele>79</ele>
        <time>2010-08-13T16:33:36Z</time>
      </trkpt>
      <trkpt lat="47.25476" lon="-1.27301">
        <ele>78</ele>
        <time>2010-08-13T16:33:41Z</time>
      </trkpt>
      <trkpt lat="47.25492" lon="-1.2723">
        <ele>77</ele>
        <time>2010-08-13T16:33:46Z</time>
      </trkpt>
      <trkpt lat="47.25505" lon="-1.27171">
        <ele>76</ele>
        <time>2010-08-13T16:33:51Z</time>
      </trkpt>
      <trkpt lat="47.25522" lon="-1.27095">
        <ele>74</ele>
        <time>2010-08-13T16:33:56Z</time>
      </trkpt>
      <trkpt lat="47.25542" lon="-1.27002">
        <ele>72</ele>
        <time>2010-08-13T16:34:01Z</time>
      </trkpt>
      <trkpt lat="47.2556" lon="-1.26922">
        <ele>71</ele>
        <time>2010-08-13T16:34:06Z</time>
      </trkpt>
      <trkpt lat="47.25577" lon="-1.26859">
        <ele>69</ele>
        <time>2010-08-13T16:34:11Z</time>
      </trkpt>
      <trkpt lat="47.25598" lon="-1.26777">
        <ele>68</ele>
        <time>2010-08-13T16:34:16Z</time>
      </trkpt>
      <trkpt lat="47.25626" lon="-1.26672">
        <ele>66</ele>
        <time>2010-08-13T16:34:21Z</time>
      </trkpt>
      <trkpt lat="47.25652" lon="-1.26577">
        <ele>61</ele>
        <time>2010-08-13T16:34:26Z</time>
      </trkpt>
      <trkpt lat="47.25679" lon="-1.26479">
        <ele>59</ele>
        <time>2010-08-13T16:34:31Z</time>
      </trkpt>
      <trkpt lat="47.25703" lon="-1.26401">
        <ele>58</ele>
        <time>2010-08-13T16:34:36Z</time>
      </trkpt>
      <trkpt lat="47.25749" lon="-1.26311">
        <ele>57</ele>
        <time>2010-08-13T16:34:41Z</time>
      </trkpt>
      <trkpt lat="47.25805" lon="-1.2623">
        <ele>54</ele>
        <time>2010-08-13T16:34:46Z</time>
      </trkpt>
      <trkpt lat="47.25872" lon="-1.26138">
        <ele>50</ele>
        <time>2010-08-13T16:34:51Z</time>
      </trkpt>
      <trkpt lat="47.25913" lon="-1.26085">
        <ele>48</ele>
        <time>2010-08-13T16:34:56Z</time>
      </trkpt>
      <trkpt lat="47.25952" lon="-1.26045">
        <ele>55</ele>
        <time>2010-08-13T16:35:01Z</time>
      </trkpt>
      <trkpt lat="47.25989" lon="-1.26006">
        <ele>57</ele>
        <time>2010-08-13T16:35:06Z</time>
      </trkpt>
      <trkpt lat="47.26011" lon="-1.25984">
        <ele>60</ele>
        <time>2010-08-13T16:35:11Z</time>
      </trkpt>
      <trkpt lat="47.26033" lon="-1.25963">
        <ele>61</ele>
        <time>2010-08-13T16:35:16Z</time>
      </trkpt>
      <trkpt lat="47.2605" lon="-1.25946">
        <ele>62</ele>
        <time>2010-08-13T16:35:21Z</time>
      </trkpt>
      <trkpt lat="47.2607" lon="-1.25926">
        <ele>62</ele>
        <time>2010-08-13T16:35:26Z</time>
      </trkpt>
      <trkpt lat="47.26089" lon="-1.25907">
        <ele>64</ele>
        <time>2010-08-13T16:35:31Z</time>
      </trkpt>
      <trkpt lat="47.26111" lon="-1.25885">
        <ele>65</ele>
        <time>2010-08-13T16:35:36Z</time>
      </trkpt>
      <trkpt lat="47.2613" lon="-1.25864">
        <ele>66</ele>
        <time>2010-08-13T16:35:41Z</time>
      </trkpt>
      <trkpt lat="47.26145" lon="-1.25847">
        <ele>66</ele>
        <time>2010-08-13T16:35:46Z</time>
      </trkpt>
      <trkpt lat="47.26168" lon="-1.25822">
        <ele>67</ele>
        <time>2010-08-13T16:35:51Z</time>
      </trkpt>
      <trkpt lat="47.26187" lon="-1.25801">
        <ele>68</ele>
        <time>2010-08-13T16:35:56Z</time>
      </trkpt>
      <trkpt lat="47.26204" lon="-1.25781">
        <ele>68</ele>
        <time>2010-08-13T16:36:01Z</time>
      </trkpt>
      <trkpt lat="47.26218" lon="-1.25765">
        <ele>68</ele>
        <time>2010-08-13T16:36:06Z</time>
      </trkpt>
      <trkpt lat="47.26236" lon="-1.25745">
        <ele>68</ele>
        <time>2010-08-13T16:36:11Z</time>
      </trkpt>
      <trkpt lat="47.26253" lon="-1.25725">
        <ele>69</ele>
        <time>2010-08-13T16:36:16Z</time>
      </trkpt>
      <trkpt lat="47.26274" lon="-1.25701">
        <ele>70</ele>
        <time>2010-08-13T16:36:21Z</time>
      </trkpt>
      <trkpt lat="47.26293" lon="-1.25681">
        <ele>70</ele>
        <time>2010-08-13T16:36:26Z</time>
      </trkpt>
      <trkpt lat="47.26307" lon="-1.25664">
        <ele>71</ele>
        <time>2010-08-13T16:36:31Z</time>
      </trkpt>
      <trkpt lat="47.26325" lon="-1.25644">
        <ele>71</ele>
        <time>2010-08-13T16:36:36Z</time>
      </trkpt>
      <trkpt lat="47.26345" lon="-1.25621">
        <ele>73</ele>
        <time>2010-08-13T16:36:41Z</time>
      </trkpt>
      <trkpt lat="47.26362" lon="-1.25601">
        <ele>73</ele>
        <time>2010-08-13T16:36:46Z</time>
      </trkpt>
      <trkpt lat="47.26375" lon="-1.25582">
        <ele>74</ele>
        <time>2010-08-13T16:36:51Z</time>
      </trkpt>
      <trkpt lat="47.26387" lon="-1.25554">
        <ele>75</ele>
        <time>2010-08-13T16:36:56Z</time>
      </trkpt>
      <trkpt lat="47.26396" lon="-1.25522">
        <ele>75</ele>
        <time>2010-08-13T16:37:01Z</time>
      </trkpt>
      <trkpt lat="47.26402" lon="-1.25481">
        <ele>76</ele>
        <time>2010-08-13T16:37:06Z</time>
      </trkpt>
      <trkpt lat="47.26407" lon="-1.25446">
        <ele>76</ele>
        <time>2010-08-13T16:37:11Z</time>
      </trkpt>
      <trkpt lat="47.2641" lon="-1.25416">
        <ele>77</ele>
        <time>2010-08-13T16:37:16Z</time>
      </trkpt>
      <trkpt lat="47.26414" lon="-1.25378">
        <ele>77</ele>
        <time>2010-08-13T16:37:21Z</time>
      </trkpt>
      <trkpt lat="47.26422" lon="-1.25331">
        <ele>78</ele>
        <time>2010-08-13T16:37:26Z</time>
      </trkpt>
      <trkpt lat="47.26429" lon="-1.25291">
        <ele>78</ele>
        <time>2010-08-13T16:37:31Z</time>
      </trkpt>
      <trkpt lat="47.26434" lon="-1.25259">
        <ele>77</ele>
        <time>2010-08-13T16:37:36Z</time>
      </trkpt>
      <trkpt lat="47.26439" lon="-1.25218">
        <ele>78</ele>
        <time>2010-08-13T16:37:41Z</time>
      </trkpt>
      <trkpt lat="47.26446" lon="-1.25174">
        <ele>78</ele>
        <time>2010-08-13T16:37:46Z</time>
      </trkpt>
      <trkpt lat="47.26454" lon="-1.25116">
        <ele>79</ele>
        <time>2010-08-13T16:37:51Z</time>
      </trkpt>
      <trkpt lat="47.26461" lon="-1.25065">
        <ele>79</ele>
        <time>2010-08-13T16:37:56Z</time>
      </trkpt>
      <trkpt lat="47.26467" lon="-1.25022">
        <ele>78</ele>
        <time>2010-08-13T16:38:01Z</time>
      </trkpt>
      <trkpt lat="47.26474" lon="-1.2497">
        <ele>79</ele>
        <time>2010-08-13T16:38:06Z</time>
      </trkpt>
      <trkpt lat="47.26483" lon="-1.24913">
        <ele>81</ele>
        <time>2010-08-13T16:38:11Z</time>
      </trkpt>
      <trkpt lat="47.26488" lon="-1.24869">
        <ele>81</ele>
        <time>2010-08-13T16:38:16Z</time>
      </trkpt>
      <trkpt lat="47.26494" lon="-1.24827">
        <ele>83</ele>
        <time>2010-08-13T16:38:21Z</time>
      </trkpt>
      <trkpt lat="47.26498" lon="-1.24795">
        <ele>83</ele>
        <time>2010-08-13T16:38:26Z</time>
      </trkpt>
      <trkpt lat="47.26504" lon="-1.24756">
        <ele>84</ele>
        <time>2010-08-13T16:38:31Z</time>
      </trkpt>
      <trkpt lat="47.26512" lon="-1.24708">
        <ele>86</ele>
        <time>2010-08-13T16:38:36Z</time>
      </trkpt>
      <trkpt lat="47.26517" lon="-1.24668">
        <ele>86</ele>
        <time>2010-08-13T16:38:41Z</time>
      </trkpt>
      <trkpt lat="47.26522" lon="-1.24635">
        <ele>88</ele>
        <time>2010-08-13T16:38:46Z</time>
      </trkpt>
      <trkpt lat="47.26528" lon="-1.24593">
        <ele>88</ele>
        <time>2010-08-13T16:38:51Z</time>
      </trkpt>
      <trkpt lat="47.26534" lon="-1.24552">
        <ele>89</ele>
        <time>2010-08-13T16:38:56Z</time>
      </trkpt>
      <trkpt lat="47.2654" lon="-1.24502">
        <ele>90</ele>
        <time>2010-08-13T16:39:01Z</time>
      </trkpt>
      <trkpt lat="47.26546" lon="-1.24458">
        <ele>90</ele>
        <time>2010-08-13T16:39:06Z</time>
      </trkpt>
      <trkpt lat="47.26549" lon="-1.24421">
        <ele>90</ele>
        <time>2010-08-13T16:39:11Z</time>
      </trkpt>
      <trkpt lat="47.26547" lon="-1.24371">
        <ele>91</ele>
        <time>2010-08-13T16:39:16Z</time>
      </trkpt>
      <trkpt lat="47.26534" lon="-1.24315">
        <ele>91</ele>
        <time>2010-08-13T16:39:21Z</time>
      </trkpt>
      <trkpt lat="47.26524" lon="-1.24267">
        <ele>91</ele>
        <time>2010-08-13T16:39:26Z</time>
      </trkpt>
      <trkpt lat="47.26511" lon="-1.2423">
        <ele>91</ele>
        <time>2010-08-13T16:39:31Z</time>
      </trkpt>
      <trkpt lat="47.26526" lon="-1.24192">
        <ele>91</ele>
        <time>2010-08-13T16:39:36Z</time>
      </trkpt>
      <trkpt lat="47.26554" lon="-1.24136">
        <ele>91</ele>
        <time>2010-08-13T16:39:41Z</time>
      </trkpt>
      <trkpt lat="47.26573" lon="-1.24088">
        <ele>91</ele>
        <time>2010-08-13T16:39:46Z</time>
      </trkpt>
      <trkpt lat="47.26582" lon="-1.2405">
        <ele>91</ele>
        <time>2010-08-13T16:39:51Z</time>
      </trkpt>
      <trkpt lat="47.26582" lon="-1.24049">
        <ele>91</ele>
        <time>2010-08-13T16:39:56Z</time>
      </trkpt>
      <trkpt lat="47.26583" lon="-1.24052">
        <ele>91</ele>
        <time>2010-08-13T16:40:01Z</time>
      </trkpt>
      <trkpt lat="47.26582" lon="-1.24056">
        <ele>91</ele>
        <time>2010-08-13T16:40:06Z</time>
      </trkpt>
      <trkpt lat="47.2658" lon="-1.24072">
        <ele>91</ele>
        <time>2010-08-13T16:40:11Z</time>
      </trkpt>
      <trkpt lat="47.26571" lon="-1.24088">
        <ele>91</ele>
        <time>2010-08-13T16:40:16Z</time>
      </trkpt>
      <trkpt lat="47.26564" lon="-1.24101">
        <ele>91</ele>
        <time>2010-08-13T16:40:21Z</time>
      </trkpt>
      <trkpt lat="47.26565" lon="-1.24102">
        <ele>91</ele>
        <time>2010-08-13T16:40:26Z</time>
      </trkpt>
      <trkpt lat="47.26566" lon="-1.24099">
        <ele>91</ele>
        <time>2010-08-13T16:40:31Z</time>
      </trkpt>
      <trkpt lat="47.26568" lon="-1.24098">
        <ele>91</ele>
        <time>2010-08-13T16:40:36Z</time>
      </trkpt>
      <trkpt lat="47.26567" lon="-1.24097">
        <ele>91</ele>
        <time>2010-08-13T16:40:41Z</time>
      </trkpt>
      <trkpt lat="47.26569" lon="-1.24097">
        <ele>91</ele>
        <time>2010-08-13T16:40:46Z</time>
      </trkpt>
      <trkpt lat="47.26571" lon="-1.24097">
        <ele>91</ele>
        <time>2010-08-13T16:40:51Z</time>
      </trkpt>
      <trkpt lat="47.26572" lon="-1.241">
        <ele>91</ele>
        <time>2010-08-13T16:40:56Z</time>
      </trkpt>
      <trkpt lat="47.26573" lon="-1.241">
        <ele>91</ele>
        <time>2010-08-13T16:41:01Z</time>
      </trkpt>
      <trkpt lat="47.26572" lon="-1.24101">
        <ele>91</ele>
        <time>2010-08-13T16:41:06Z</time>
      </trkpt>
      <trkpt lat="47.26573" lon="-1.24102">
        <ele>91</ele>
        <time>2010-08-13T16:41:11Z</time>
      </trkpt>
      <trkpt lat="47.26567" lon="-1.24101">
        <ele>91</ele>
        <time>2010-08-13T16:41:16Z</time>
      </trkpt>
      <trkpt lat="47.26568" lon="-1.24099">
        <ele>91</ele>
        <time>2010-08-13T16:41:21Z</time>
      </trkpt>
      <trkpt lat="47.2657" lon="-1.241">
        <ele>91</ele>
        <time>2010-08-13T16:41:26Z</time>
      </trkpt>
      <trkpt lat="47.2657" lon="-1.24091">
        <ele>91</ele>
        <time>2010-08-13T16:41:31Z</time>
      </trkpt>
      <trkpt lat="47.2657" lon="-1.24097">
        <ele>91</ele>
        <time>2010-08-13T16:41:36Z</time>
      </trkpt>
      <trkpt lat="47.26563" lon="-1.24096">
        <ele>91</ele>
        <time>2010-08-13T16:41:41Z</time>
      </trkpt>
      <trkpt lat="47.26556" lon="-1.24099">
        <ele>91</ele>
        <time>2010-08-13T16:41:46Z</time>
      </trkpt>
      <trkpt lat="47.26556" lon="-1.24097">
        <ele>91</ele>
        <time>2010-08-13T16:41:51Z</time>
      </trkpt>
      <trkpt lat="47.26555" lon="-1.24099">
        <ele>91</ele>
        <time>2010-08-13T16:41:56Z</time>
      </trkpt>
      <trkpt lat="47.26573" lon="-1.24091">
        <ele>91</ele>
        <time>2010-08-13T16:42:01Z</time>
      </trkpt>
      <trkpt lat="47.26585" lon="-1.2409">
        <ele>91</ele>
        <time>2010-08-13T16:42:06Z</time>
      </trkpt>
      <trkpt lat="47.26575" lon="-1.24091">
        <ele>91</ele>
        <time>2010-08-13T16:42:11Z</time>
      </trkpt>
      <trkpt lat="47.26575" lon="-1.24089">
        <ele>91</ele>
        <time>2010-08-13T16:42:16Z</time>
      </trkpt>
      <trkpt lat="47.26573" lon="-1.24091">
        <ele>91</ele>
        <time>2010-08-13T16:42:21Z</time>
      </trkpt>
      <trkpt lat="47.26583" lon="-1.24087">
        <ele>91</ele>
        <time>2010-08-13T16:42:26Z</time>
      </trkpt>
      <trkpt lat="47.26578" lon="-1.24088">
        <ele>91</ele>
        <time>2010-08-13T16:42:31Z</time>
      </trkpt>
      <trkpt lat="47.26584" lon="-1.2409">
        <ele>91</ele>
        <time>2010-08-13T16:42:36Z</time>
      </trkpt>
      <trkpt lat="47.26582" lon="-1.24093">
        <ele>91</ele>
        <time>2010-08-13T16:42:41Z</time>
      </trkpt>
      <trkpt lat="47.2658" lon="-1.24094">
        <ele>91</ele>
        <time>2010-08-13T16:42:46Z</time>
      </trkpt>
      <trkpt lat="47.26582" lon="-1.24095">
        <ele>91</ele>
        <time>2010-08-13T16:42:51Z</time>
      </trkpt>
      <trkpt lat="47.26584" lon="-1.24097">
        <ele>91</ele>
        <time>2010-08-13T16:42:56Z</time>
      </trkpt>
      <trkpt lat="47.26577" lon="-1.24099">
        <ele>91</ele>
        <time>2010-08-13T16:43:01Z</time>
      </trkpt>
      <trkpt lat="47.26576" lon="-1.241">
        <ele>91</ele>
        <time>2010-08-13T16:43:06Z</time>
      </trkpt>
      <trkpt lat="47.26575" lon="-1.24102">
        <ele>91</ele>
        <time>2010-08-13T16:43:11Z</time>
      </trkpt>
      <trkpt lat="47.26577" lon="-1.24104">
        <ele>91</ele>
        <time>2010-08-13T16:43:16Z</time>
      </trkpt>
      <trkpt lat="47.26581" lon="-1.24106">
        <ele>91</ele>
        <time>2010-08-13T16:43:21Z</time>
      </trkpt>
      <trkpt lat="47.2658" lon="-1.2411">
        <ele>91</ele>
        <time>2010-08-13T16:43:26Z</time>
      </trkpt>
      <trkpt lat="47.26577" lon="-1.24111">
        <ele>91</ele>
        <time>2010-08-13T16:43:31Z</time>
      </trkpt>
      <trkpt lat="47.26577" lon="-1.24111">
        <ele>91</ele>
        <time>2010-08-13T16:43:36Z</time>
      </trkpt>
      <trkpt lat="47.26576" lon="-1.24109">
        <ele>91</ele>
        <time>2010-08-13T16:43:41Z</time>
      </trkpt>
      <trkpt lat="47.26573" lon="-1.24104">
        <ele>91</ele>
        <time>2010-08-13T16:43:46Z</time>
      </trkpt>
      <trkpt lat="47.26573" lon="-1.24102">
        <ele>91</ele>
        <time>2010-08-13T16:43:51Z</time>
      </trkpt>
      <trkpt lat="47.26578" lon="-1.24104">
        <ele>91</ele>
        <time>2010-08-13T16:43:56Z</time>
      </trkpt>
      <trkpt lat="47.26578" lon="-1.24104">
        <ele>91</ele>
        <time>2010-08-13T16:44:01Z</time>
      </trkpt>
      <trkpt lat="47.26579" lon="-1.24103">
        <ele>91</ele>
        <time>2010-08-13T16:44:06Z</time>
      </trkpt>
      <trkpt lat="47.26577" lon="-1.241">
        <ele>91</ele>
        <time>2010-08-13T16:44:11Z</time>
      </trkpt>
      <trkpt lat="47.26581" lon="-1.24101">
        <ele>91</ele>
        <time>2010-08-13T16:44:16Z</time>
      </trkpt>
      <trkpt lat="47.26581" lon="-1.24101">
        <ele>91</ele>
        <time>2010-08-13T16:44:21Z</time>
      </trkpt>
      <trkpt lat="47.26582" lon="-1.241">
        <ele>91</ele>
        <time>2010-08-13T16:44:26Z</time>
      </trkpt>
      <trkpt lat="47.26582" lon="-1.24101">
        <ele>91</ele>
        <time>2010-08-13T16:44:31Z</time>
      </trkpt>
      <trkpt lat="47.26579" lon="-1.24102">
        <ele>91</ele>
        <time>2010-08-13T16:44:36Z</time>
      </trkpt>
      <trkpt lat="47.26577" lon="-1.24101">
        <ele>91</ele>
        <time>2010-08-13T16:44:41Z</time>
      </trkpt>
      <trkpt lat="47.26581" lon="-1.24103">
        <ele>91</ele>
        <time>2010-08-13T16:44:46Z</time>
      </trkpt>
      <trkpt lat="47.26585" lon="-1.24104">
        <ele>91</ele>
        <time>2010-08-13T16:44:51Z</time>
      </trkpt>
      <trkpt lat="47.26589" lon="-1.24104">
        <ele>91</ele>
        <time>2010-08-13T16:44:56Z</time>
      </trkpt>
      <trkpt lat="47.26589" lon="-1.24103">
        <ele>91</ele>
        <time>2010-08-13T16:45:01Z</time>
      </trkpt>
      <trkpt lat="47.26588" lon="-1.24101">
        <ele>91</ele>
        <time>2010-08-13T16:45:06Z</time>
      </trkpt>
      <trkpt lat="47.26587" lon="-1.24099">
        <ele>91</ele>
        <time>2010-08-13T16:45:11Z</time>
      </trkpt>
      <trkpt lat="47.26585" lon="-1.24098">
        <ele>91</ele>
        <time>2010-08-13T16:45:16Z</time>
      </trkpt>
      <trkpt lat="47.26582" lon="-1.24101">
        <ele>91</ele>
        <time>2010-08-13T16:45:21Z</time>
      </trkpt>
      <trkpt lat="47.26582" lon="-1.24103">
        <ele>91</ele>
        <time>2010-08-13T16:45:26Z</time>
      </trkpt>
      <trkpt lat="47.26582" lon="-1.24103">
        <ele>91</ele>
        <time>2010-08-13T16:45:31Z</time>
      </trkpt>
      <trkpt lat="47.26583" lon="-1.24104">
        <ele>91</ele>
        <time>2010-08-13T16:45:36Z</time>
      </trkpt>
      <trkpt lat="47.26581" lon="-1.24106">
        <ele>91</ele>
        <time>2010-08-13T16:45:41Z</time>
      </trkpt>
      <trkpt lat="47.26577" lon="-1.24111">
        <ele>91</ele>
        <time>2010-08-13T16:45:46Z</time>
      </trkpt>
      <trkpt lat="47.26574" lon="-1.24113">
        <ele>91</ele>
        <time>2010-08-13T16:45:51Z</time>
      </trkpt>
      <trkpt lat="47.26575" lon="-1.24115">
        <ele>91</ele>
        <time>2010-08-13T16:45:56Z</time>
      </trkpt>
      <trkpt lat="47.26575" lon="-1.24115">
        <ele>91</ele>
        <time>2010-08-13T16:46:01Z</time>
      </trkpt>
      <trkpt lat="47.26576" lon="-1.24117">
        <ele>91</ele>
        <time>2010-08-13T16:46:06Z</time>
      </trkpt>
      <trkpt lat="47.26576" lon="-1.24115">
        <ele>91</ele>
        <time>2010-08-13T16:46:11Z</time>
      </trkpt>
      <trkpt lat="47.26575" lon="-1.24112">
        <ele>91</ele>
        <time>2010-08-13T16:46:16Z</time>
      </trkpt>
      <trkpt lat="47.26576" lon="-1.2411">
        <ele>91</ele>
        <time>2010-08-13T16:46:21Z</time>
      </trkpt>
      <trkpt lat="47.26574" lon="-1.24108">
        <ele>91</ele>
        <time>2010-08-13T16:46:26Z</time>
      </trkpt>
      <trkpt lat="47.26574" lon="-1.24108">
        <ele>91</ele>
        <time>2010-08-13T16:46:31Z</time>
      </trkpt>
      <trkpt lat="47.26573" lon="-1.24106">
        <ele>91</ele>
        <time>2010-08-13T16:46:36Z</time>
      </trkpt>
      <trkpt lat="47.26574" lon="-1.24106">
        <ele>91</ele>
        <time>2010-08-13T16:46:41Z</time>
      </trkpt>
      <trkpt lat="47.26572" lon="-1.24102">
        <ele>91</ele>
        <time>2010-08-13T16:46:46Z</time>
      </trkpt>
      <trkpt lat="47.26569" lon="-1.24101">
        <ele>91</ele>
        <time>2010-08-13T16:46:51Z</time>
      </trkpt>
      <trkpt lat="47.26568" lon="-1.241">
        <ele>91</ele>
        <time>2010-08-13T16:46:56Z</time>
      </trkpt>
      <trkpt lat="47.2657" lon="-1.24105">
        <ele>91</ele>
        <time>2010-08-13T16:47:01Z</time>
      </trkpt>
      <trkpt lat="47.26569" lon="-1.24106">
        <ele>91</ele>
        <time>2010-08-13T16:47:06Z</time>
      </trkpt>
      <trkpt lat="47.26569" lon="-1.24107">
        <ele>91</ele>
        <time>2010-08-13T16:47:11Z</time>
      </trkpt>
      <trkpt lat="47.26568" lon="-1.24106">
        <ele>91</ele>
        <time>2010-08-13T16:47:16Z</time>
      </trkpt>
      <trkpt lat="47.26569" lon="-1.24108">
        <ele>91</ele>
        <time>2010-08-13T16:47:21Z</time>
      </trkpt>
      <trkpt lat="47.2657" lon="-1.24107">
        <ele>91</ele>
        <time>2010-08-13T16:47:26Z</time>
      </trkpt>
      <trkpt lat="47.26571" lon="-1.24109">
        <ele>91</ele>
        <time>2010-08-13T16:47:31Z</time>
      </trkpt>
      <trkpt lat="47.26571" lon="-1.24111">
        <ele>91</ele>
        <time>2010-08-13T16:47:36Z</time>
      </trkpt>
      <trkpt lat="47.26571" lon="-1.24112">
        <ele>91</ele>
        <time>2010-08-13T16:47:41Z</time>
      </trkpt>
      <trkpt lat="47.26569" lon="-1.24109">
        <ele>91</ele>
        <time>2010-08-13T16:47:46Z</time>
      </trkpt>
      <trkpt lat="47.26567" lon="-1.24107">
        <ele>91</ele>
        <time>2010-08-13T16:47:51Z</time>
      </trkpt>
      <trkpt lat="47.26566" lon="-1.24105">
        <ele>91</ele>
        <time>2010-08-13T16:47:56Z</time>
      </trkpt>
      <trkpt lat="47.26565" lon="-1.24103">
        <ele>91</ele>
        <time>2010-08-13T16:48:01Z</time>
      </trkpt>
      <trkpt lat="47.26563" lon="-1.241">
        <ele>91</ele>
        <time>2010-08-13T16:48:06Z</time>
      </trkpt>
      <trkpt lat="47.26562" lon="-1.24099">
        <ele>91</ele>
        <time>2010-08-13T16:48:11Z</time>
      </trkpt>
      <trkpt lat="47.26561" lon="-1.24098">
        <ele>91</ele>
        <time>2010-08-13T16:48:16Z</time>
      </trkpt>
      <trkpt lat="47.26562" lon="-1.24096">
        <ele>91</ele>
        <time>2010-08-13T16:48:21Z</time>
      </trkpt>
      <trkpt lat="47.26564" lon="-1.24098">
        <ele>91</ele>
        <time>2010-08-13T16:48:26Z</time>
      </trkpt>
      <trkpt lat="47.26564" lon="-1.24099">
        <ele>91</ele>
        <time>2010-08-13T16:48:31Z</time>
      </trkpt>
      <trkpt lat="47.26565" lon="-1.24099">
        <ele>91</ele>
        <time>2010-08-13T16:48:36Z</time>
      </trkpt>
      <trkpt lat="47.26564" lon="-1.24102">
        <ele>91</ele>
        <time>2010-08-13T16:48:41Z</time>
      </trkpt>
      <trkpt lat="47.26561" lon="-1.24105">
        <ele>91</ele>
        <time>2010-08-13T16:48:46Z</time>
      </trkpt>
      <trkpt lat="47.26566" lon="-1.24108">
        <ele>91</ele>
        <time>2010-08-13T16:48:51Z</time>
      </trkpt>
      <trkpt lat="47.26567" lon="-1.24109">
        <ele>91</ele>
        <time>2010-08-13T16:48:56Z</time>
      </trkpt>
      <trkpt lat="47.26569" lon="-1.24108">
        <ele>91</ele>
        <time>2010-08-13T16:49:01Z</time>
      </trkpt>
      <trkpt lat="47.26571" lon="-1.24105">
        <ele>91</ele>
        <time>2010-08-13T16:49:06Z</time>
      </trkpt>
      <trkpt lat="47.26573" lon="-1.24103">
        <ele>91</ele>
        <time>2010-08-13T16:49:11Z</time>
      </trkpt>
      <trkpt lat="47.26575" lon="-1.24103">
        <ele>91</ele>
        <time>2010-08-13T16:49:16Z</time>
      </trkpt>
      <trkpt lat="47.26579" lon="-1.24104">
        <ele>91</ele>
        <time>2010-08-13T16:49:21Z</time>
      </trkpt>
      <trkpt lat="47.26578" lon="-1.24103">
        <ele>91</ele>
        <time>2010-08-13T16:49:26Z</time>
      </trkpt>
      <trkpt lat="47.26577" lon="-1.24102">
        <ele>91</ele>
        <time>2010-08-13T16:49:31Z</time>
      </trkpt>
      <trkpt lat="47.26578" lon="-1.241">
        <ele>91</ele>
        <time>2010-08-13T16:49:36Z</time>
      </trkpt>
      <trkpt lat="47.26583" lon="-1.24088">
        <ele>91</ele>
        <time>2010-08-13T16:49:41Z</time>
      </trkpt>
      <trkpt lat="47.26592" lon="-1.24063">
        <ele>91</ele>
        <time>2010-08-13T16:49:46Z</time>
      </trkpt>
      <trkpt lat="47.26605" lon="-1.24022">
        <ele>91</ele>
        <time>2010-08-13T16:49:51Z</time>
      </trkpt>
      <trkpt lat="47.26624" lon="-1.23967">
        <ele>92</ele>
        <time>2010-08-13T16:49:56Z</time>
      </trkpt>
      <trkpt lat="47.26641" lon="-1.23924">
        <ele>93</ele>
        <time>2010-08-13T16:50:01Z</time>
      </trkpt>
      <trkpt lat="47.26659" lon="-1.23878">
        <ele>94</ele>
        <time>2010-08-13T16:50:06Z</time>
      </trkpt>
      <trkpt lat="47.26675" lon="-1.23844">
        <ele>94</ele>
        <time>2010-08-13T16:50:11Z</time>
      </trkpt>
      <trkpt lat="47.26694" lon="-1.23801">
        <ele>93</ele>
        <time>2010-08-13T16:50:16Z</time>
      </trkpt>
      <trkpt lat="47.26714" lon="-1.23749">
        <ele>93</ele>
        <time>2010-08-13T16:50:21Z</time>
      </trkpt>
      <trkpt lat="47.26733" lon="-1.23704">
        <ele>93</ele>
        <time>2010-08-13T16:50:26Z</time>
      </trkpt>
      <trkpt lat="47.26749" lon="-1.23663">
        <ele>92</ele>
        <time>2010-08-13T16:50:31Z</time>
      </trkpt>
      <trkpt lat="47.2677" lon="-1.23615">
        <ele>91</ele>
        <time>2010-08-13T16:50:36Z</time>
      </trkpt>
      <trkpt lat="47.2679" lon="-1.23566">
        <ele>90</ele>
        <time>2010-08-13T16:50:41Z</time>
      </trkpt>
      <trkpt lat="47.26815" lon="-1.23506">
        <ele>91</ele>
        <time>2010-08-13T16:50:46Z</time>
      </trkpt>
      <trkpt lat="47.26835" lon="-1.23457">
        <ele>90</ele>
        <time>2010-08-13T16:50:51Z</time>
      </trkpt>
      <trkpt lat="47.26851" lon="-1.23417">
        <ele>90</ele>
        <time>2010-08-13T16:50:56Z</time>
      </trkpt>
      <trkpt lat="47.26871" lon="-1.23367">
        <ele>90</ele>
        <time>2010-08-13T16:51:01Z</time>
      </trkpt>
      <trkpt lat="47.26896" lon="-1.23306">
        <ele>91</ele>
        <time>2010-08-13T16:51:06Z</time>
      </trkpt>
      <trkpt lat="47.26917" lon="-1.23254">
        <ele>92</ele>
        <time>2010-08-13T16:51:11Z</time>
      </trkpt>
      <trkpt lat="47.2694" lon="-1.23202">
        <ele>91</ele>
        <time>2010-08-13T16:51:16Z</time>
      </trkpt>
      <trkpt lat="47.26957" lon="-1.23162">
        <ele>90</ele>
        <time>2010-08-13T16:51:21Z</time>
      </trkpt>
      <trkpt lat="47.2698" lon="-1.23107">
        <ele>90</ele>
        <time>2010-08-13T16:51:26Z</time>
      </trkpt>
      <trkpt lat="47.27007" lon="-1.23041">
        <ele>91</ele>
        <time>2010-08-13T16:51:31Z</time>
      </trkpt>
      <trkpt lat="47.2703" lon="-1.22988">
        <ele>92</ele>
        <time>2010-08-13T16:51:36Z</time>
      </trkpt>
      <trkpt lat="47.27048" lon="-1.22945">
        <ele>92</ele>
        <time>2010-08-13T16:51:41Z</time>
      </trkpt>
      <trkpt lat="47.27069" lon="-1.22892">
        <ele>92</ele>
        <time>2010-08-13T16:51:46Z</time>
      </trkpt>
      <trkpt lat="47.27091" lon="-1.2284">
        <ele>93</ele>
        <time>2010-08-13T16:51:51Z</time>
      </trkpt>
      <trkpt lat="47.27117" lon="-1.22778">
        <ele>93</ele>
        <time>2010-08-13T16:51:56Z</time>
      </trkpt>
      <trkpt lat="47.27138" lon="-1.22728">
        <ele>94</ele>
        <time>2010-08-13T16:52:01Z</time>
      </trkpt>
      <trkpt lat="47.27155" lon="-1.22689">
        <ele>94</ele>
        <time>2010-08-13T16:52:06Z</time>
      </trkpt>
      <trkpt lat="47.27175" lon="-1.22639">
        <ele>93</ele>
        <time>2010-08-13T16:52:11Z</time>
      </trkpt>
      <trkpt lat="47.272" lon="-1.2258">
        <ele>92</ele>
        <time>2010-08-13T16:52:16Z</time>
      </trkpt>
      <trkpt lat="47.27221" lon="-1.2253">
        <ele>92</ele>
        <time>2010-08-13T16:52:21Z</time>
      </trkpt>
      <trkpt lat="47.27238" lon="-1.22489">
        <ele>91</ele>
        <time>2010-08-13T16:52:26Z</time>
      </trkpt>
      <trkpt lat="47.2726" lon="-1.22436">
        <ele>90</ele>
        <time>2010-08-13T16:52:31Z</time>
      </trkpt>
      <trkpt lat="47.27283" lon="-1.22381">
        <ele>90</ele>
        <time>2010-08-13T16:52:36Z</time>
      </trkpt>
      <trkpt lat="47.27311" lon="-1.22315">
        <ele>89</ele>
        <time>2010-08-13T16:52:41Z</time>
      </trkpt>
      <trkpt lat="47.27333" lon="-1.22259">
        <ele>88</ele>
        <time>2010-08-13T16:52:46Z</time>
      </trkpt>
      <trkpt lat="47.2735" lon="-1.22216">
        <ele>88</ele>
        <time>2010-08-13T16:52:51Z</time>
      </trkpt>
      <trkpt lat="47.27372" lon="-1.22163">
        <ele>89</ele>
        <time>2010-08-13T16:52:56Z</time>
      </trkpt>
      <trkpt lat="47.27398" lon="-1.221">
        <ele>89</ele>
        <time>2010-08-13T16:53:01Z</time>
      </trkpt>
      <trkpt lat="47.27421" lon="-1.22049">
        <ele>90</ele>
        <time>2010-08-13T16:53:06Z</time>
      </trkpt>
      <trkpt lat="47.27439" lon="-1.22008">
        <ele>90</ele>
        <time>2010-08-13T16:53:11Z</time>
      </trkpt>
      <trkpt lat="47.2746" lon="-1.21957">
        <ele>88</ele>
        <time>2010-08-13T16:53:16Z</time>
      </trkpt>
      <trkpt lat="47.27481" lon="-1.21906">
        <ele>88</ele>
        <time>2010-08-13T16:53:21Z</time>
      </trkpt>
      <trkpt lat="47.27507" lon="-1.21846">
        <ele>88</ele>
        <time>2010-08-13T16:53:26Z</time>
      </trkpt>
      <trkpt lat="47.27527" lon="-1.21796">
        <ele>89</ele>
        <time>2010-08-13T16:53:31Z</time>
      </trkpt>
      <trkpt lat="47.27544" lon="-1.21756">
        <ele>89</ele>
        <time>2010-08-13T16:53:36Z</time>
      </trkpt>
      <trkpt lat="47.27564" lon="-1.21706">
        <ele>89</ele>
        <time>2010-08-13T16:53:41Z</time>
      </trkpt>
      <trkpt lat="47.27588" lon="-1.21646">
        <ele>90</ele>
        <time>2010-08-13T16:53:46Z</time>
      </trkpt>
      <trkpt lat="47.27609" lon="-1.21596">
        <ele>90</ele>
        <time>2010-08-13T16:53:51Z</time>
      </trkpt>
      <trkpt lat="47.27626" lon="-1.21556">
        <ele>90</ele>
        <time>2010-08-13T16:53:56Z</time>
      </trkpt>
      <trkpt lat="47.27646" lon="-1.21507">
        <ele>90</ele>
        <time>2010-08-13T16:54:01Z</time>
      </trkpt>
      <trkpt lat="47.27667" lon="-1.21457">
        <ele>90</ele>
        <time>2010-08-13T16:54:06Z</time>
      </trkpt>
      <trkpt lat="47.27691" lon="-1.21398">
        <ele>90</ele>
        <time>2010-08-13T16:54:11Z</time>
      </trkpt>
      <trkpt lat="47.27711" lon="-1.2135">
        <ele>90</ele>
        <time>2010-08-13T16:54:16Z</time>
      </trkpt>
      <trkpt lat="47.27727" lon="-1.21312">
        <ele>90</ele>
        <time>2010-08-13T16:54:21Z</time>
      </trkpt>
      <trkpt lat="47.27746" lon="-1.21264">
        <ele>91</ele>
        <time>2010-08-13T16:54:26Z</time>
      </trkpt>
      <trkpt lat="47.27765" lon="-1.21219">
        <ele>91</ele>
        <time>2010-08-13T16:54:31Z</time>
      </trkpt>
      <trkpt lat="47.27788" lon="-1.21166">
        <ele>92</ele>
        <time>2010-08-13T16:54:36Z</time>
      </trkpt>
      <trkpt lat="47.27807" lon="-1.21121">
        <ele>92</ele>
        <time>2010-08-13T16:54:41Z</time>
      </trkpt>
      <trkpt lat="47.27823" lon="-1.21085">
        <ele>93</ele>
        <time>2010-08-13T16:54:46Z</time>
      </trkpt>
      <trkpt lat="47.27842" lon="-1.21039">
        <ele>93</ele>
        <time>2010-08-13T16:54:51Z</time>
      </trkpt>
      <trkpt lat="47.27865" lon="-1.20984">
        <ele>93</ele>
        <time>2010-08-13T16:54:56Z</time>
      </trkpt>
      <trkpt lat="47.27884" lon="-1.20939">
        <ele>93</ele>
        <time>2010-08-13T16:55:01Z</time>
      </trkpt>
      <trkpt lat="47.279" lon="-1.20902">
        <ele>93</ele>
        <time>2010-08-13T16:55:06Z</time>
      </trkpt>
      <trkpt lat="47.27919" lon="-1.20856">
        <ele>93</ele>
        <time>2010-08-13T16:55:11Z</time>
      </trkpt>
      <trkpt lat="47.27938" lon="-1.20809">
        <ele>93</ele>
        <time>2010-08-13T16:55:16Z</time>
      </trkpt>
      <trkpt lat="47.27961" lon="-1.20753">
        <ele>93</ele>
        <time>2010-08-13T16:55:21Z</time>
      </trkpt>
      <trkpt lat="47.27981" lon="-1.20705">
        <ele>93</ele>
        <time>2010-08-13T16:55:26Z</time>
      </trkpt>
      <trkpt lat="47.27998" lon="-1.20666">
        <ele>92</ele>
        <time>2010-08-13T16:55:31Z</time>
      </trkpt>
      <trkpt lat="47.28018" lon="-1.20616">
        <ele>92</ele>
        <time>2010-08-13T16:55:36Z</time>
      </trkpt>
      <trkpt lat="47.28044" lon="-1.20553">
        <ele>91</ele>
        <time>2010-08-13T16:55:41Z</time>
      </trkpt>
      <trkpt lat="47.28067" lon="-1.20499">
        <ele>89</ele>
        <time>2010-08-13T16:55:46Z</time>
      </trkpt>
      <trkpt lat="47.28085" lon="-1.20453">
        <ele>88</ele>
        <time>2010-08-13T16:55:51Z</time>
      </trkpt>
      <trkpt lat="47.28109" lon="-1.20394">
        <ele>88</ele>
        <time>2010-08-13T16:55:56Z</time>
      </trkpt>
      <trkpt lat="47.28135" lon="-1.20332">
        <ele>86</ele>
        <time>2010-08-13T16:56:01Z</time>
      </trkpt>
      <trkpt lat="47.28167" lon="-1.20255">
        <ele>84</ele>
        <time>2010-08-13T16:56:06Z</time>
      </trkpt>
      <trkpt lat="47.28192" lon="-1.20192">
        <ele>84</ele>
        <time>2010-08-13T16:56:11Z</time>
      </trkpt>
      <trkpt lat="47.28212" lon="-1.20141">
        <ele>83</ele>
        <time>2010-08-13T16:56:16Z</time>
      </trkpt>
      <trkpt lat="47.28242" lon="-1.20076">
        <ele>83</ele>
        <time>2010-08-13T16:56:21Z</time>
      </trkpt>
      <trkpt lat="47.28272" lon="-1.20006">
        <ele>84</ele>
        <time>2010-08-13T16:56:26Z</time>
      </trkpt>
      <trkpt lat="47.28292" lon="-1.19959">
        <ele>85</ele>
        <time>2010-08-13T16:56:31Z</time>
      </trkpt>
      <trkpt lat="47.28308" lon="-1.19921">
        <ele>85</ele>
        <time>2010-08-13T16:56:36Z</time>
      </trkpt>
      <trkpt lat="47.28329" lon="-1.19871">
        <ele>86</ele>
        <time>2010-08-13T16:56:41Z</time>
      </trkpt>
      <trkpt lat="47.28353" lon="-1.19812">
        <ele>87</ele>
        <time>2010-08-13T16:56:46Z</time>
      </trkpt>
      <trkpt lat="47.28372" lon="-1.19766">
        <ele>88</ele>
        <time>2010-08-13T16:56:51Z</time>
      </trkpt>
      <trkpt lat="47.2839" lon="-1.19722">
        <ele>89</ele>
        <time>2010-08-13T16:56:56Z</time>
      </trkpt>
      <trkpt lat="47.28405" lon="-1.19686">
        <ele>89</ele>
        <time>2010-08-13T16:57:01Z</time>
      </trkpt>
      <trkpt lat="47.28423" lon="-1.19642">
        <ele>89</ele>
        <time>2010-08-13T16:57:06Z</time>
      </trkpt>
      <trkpt lat="47.28444" lon="-1.1959">
        <ele>90</ele>
        <time>2010-08-13T16:57:11Z</time>
      </trkpt>
      <trkpt lat="47.28462" lon="-1.19547">
        <ele>90</ele>
        <time>2010-08-13T16:57:16Z</time>
      </trkpt>
      <trkpt lat="47.28481" lon="-1.19503">
        <ele>90</ele>
        <time>2010-08-13T16:57:21Z</time>
      </trkpt>
      <trkpt lat="47.28496" lon="-1.19467">
        <ele>91</ele>
        <time>2010-08-13T16:57:26Z</time>
      </trkpt>
      <trkpt lat="47.28519" lon="-1.19414">
        <ele>92</ele>
        <time>2010-08-13T16:57:31Z</time>
      </trkpt>
      <trkpt lat="47.28537" lon="-1.1937">
        <ele>93</ele>
        <time>2010-08-13T16:57:36Z</time>
      </trkpt>
      <trkpt lat="47.28555" lon="-1.19326">
        <ele>94</ele>
        <time>2010-08-13T16:57:41Z</time>
      </trkpt>
      <trkpt lat="47.2857" lon="-1.1929">
        <ele>94</ele>
        <time>2010-08-13T16:57:46Z</time>
      </trkpt>
      <trkpt lat="47.28589" lon="-1.19244">
        <ele>93</ele>
        <time>2010-08-13T16:57:51Z</time>
      </trkpt>
      <trkpt lat="47.28611" lon="-1.1919">
        <ele>92</ele>
        <time>2010-08-13T16:57:56Z</time>
      </trkpt>
      <trkpt lat="47.28628" lon="-1.19147">
        <ele>92</ele>
        <time>2010-08-13T16:58:01Z</time>
      </trkpt>
      <trkpt lat="47.28643" lon="-1.19097">
        <ele>92</ele>
        <time>2010-08-13T16:58:06Z</time>
      </trkpt>
      <trkpt lat="47.28652" lon="-1.19053">
        <ele>92</ele>
        <time>2010-08-13T16:58:11Z</time>
      </trkpt>
      <trkpt lat="47.28664" lon="-1.19">
        <ele>92</ele>
        <time>2010-08-13T16:58:16Z</time>
      </trkpt>
      <trkpt lat="47.28687" lon="-1.18965">
        <ele>91</ele>
        <time>2010-08-13T16:58:21Z</time>
      </trkpt>
      <trkpt lat="47.28713" lon="-1.18921">
        <ele>91</ele>
        <time>2010-08-13T16:58:26Z</time>
      </trkpt>
      <trkpt lat="47.28735" lon="-1.18884">
        <ele>90</ele>
        <time>2010-08-13T16:58:31Z</time>
      </trkpt>
      <trkpt lat="47.28762" lon="-1.1883">
        <ele>88</ele>
        <time>2010-08-13T16:58:36Z</time>
      </trkpt>
      <trkpt lat="47.28788" lon="-1.18773">
        <ele>86</ele>
        <time>2010-08-13T16:58:41Z</time>
      </trkpt>
      <trkpt lat="47.28824" lon="-1.18705">
        <ele>84</ele>
        <time>2010-08-13T16:58:46Z</time>
      </trkpt>
      <trkpt lat="47.28857" lon="-1.18641">
        <ele>81</ele>
        <time>2010-08-13T16:58:51Z</time>
      </trkpt>
      <trkpt lat="47.28884" lon="-1.18589">
        <ele>81</ele>
        <time>2010-08-13T16:58:56Z</time>
      </trkpt>
      <trkpt lat="47.2891" lon="-1.18533">
        <ele>83</ele>
        <time>2010-08-13T16:59:01Z</time>
      </trkpt>
      <trkpt lat="47.28937" lon="-1.1848">
        <ele>84</ele>
        <time>2010-08-13T16:59:06Z</time>
      </trkpt>
      <trkpt lat="47.28958" lon="-1.18442">
        <ele>84</ele>
        <time>2010-08-13T16:59:11Z</time>
      </trkpt>
      <trkpt lat="47.28973" lon="-1.18412">
        <ele>86</ele>
        <time>2010-08-13T16:59:16Z</time>
      </trkpt>
      <trkpt lat="47.28992" lon="-1.18375">
        <ele>86</ele>
        <time>2010-08-13T16:59:21Z</time>
      </trkpt>
      <trkpt lat="47.29009" lon="-1.18338">
        <ele>87</ele>
        <time>2010-08-13T16:59:26Z</time>
      </trkpt>
      <trkpt lat="47.29031" lon="-1.18293">
        <ele>87</ele>
        <time>2010-08-13T16:59:31Z</time>
      </trkpt>
      <trkpt lat="47.29049" lon="-1.18256">
        <ele>87</ele>
        <time>2010-08-13T16:59:36Z</time>
      </trkpt>
      <trkpt lat="47.29064" lon="-1.18228">
        <ele>87</ele>
        <time>2010-08-13T16:59:41Z</time>
      </trkpt>
      <trkpt lat="47.29061" lon="-1.1819">
        <ele>87</ele>
        <time>2010-08-13T16:59:46Z</time>
      </trkpt>
      <trkpt lat="47.29034" lon="-1.18174">
        <ele>87</ele>
        <time>2010-08-13T16:59:51Z</time>
      </trkpt>
      <trkpt lat="47.29035" lon="-1.18173">
        <ele>87</ele>
        <time>2010-08-13T16:59:56Z</time>
      </trkpt>
      <trkpt lat="47.29032" lon="-1.18174">
        <ele>87</ele>
        <time>2010-08-13T17:00:01Z</time>
      </trkpt>
      <trkpt lat="47.2903" lon="-1.18175">
        <ele>87</ele>
        <time>2010-08-13T17:00:06Z</time>
      </trkpt>
      <trkpt lat="47.29029" lon="-1.18176">
        <ele>87</ele>
        <time>2010-08-13T17:00:11Z</time>
      </trkpt>
      <trkpt lat="47.2903" lon="-1.18177">
        <ele>87</ele>
        <time>2010-08-13T17:00:16Z</time>
      </trkpt>
      <trkpt lat="47.29031" lon="-1.18177">
        <ele>87</ele>
        <time>2010-08-13T17:00:21Z</time>
      </trkpt>
      <trkpt lat="47.2903" lon="-1.18178">
        <ele>87</ele>
        <time>2010-08-13T17:00:26Z</time>
      </trkpt>
      <trkpt lat="47.29029" lon="-1.18179">
        <ele>87</ele>
        <time>2010-08-13T17:00:31Z</time>
      </trkpt>
      <trkpt lat="47.29029" lon="-1.18179">
        <ele>87</ele>
        <time>2010-08-13T17:00:36Z</time>
      </trkpt>
      <trkpt lat="47.29029" lon="-1.18179">
        <ele>87</ele>
        <time>2010-08-13T17:00:41Z</time>
      </trkpt>
      <trkpt lat="47.2903" lon="-1.18179">
        <ele>87</ele>
        <time>2010-08-13T17:00:46Z</time>
      </trkpt>
      <trkpt lat="47.29031" lon="-1.18179">
        <ele>87</ele>
        <time>2010-08-13T17:00:51Z</time>
      </trkpt>
      <trkpt lat="47.29034" lon="-1.18181">
        <ele>87</ele>
        <time>2010-08-13T17:00:56Z</time>
      </trkpt>
      <trkpt lat="47.29051" lon="-1.18194">
        <ele>87</ele>
        <time>2010-08-13T17:01:01Z</time>
      </trkpt>
      <trkpt lat="47.29072" lon="-1.18208">
        <ele>87</ele>
        <time>2010-08-13T17:01:06Z</time>
      </trkpt>
      <trkpt lat="47.29088" lon="-1.18184">
        <ele>86</ele>
        <time>2010-08-13T17:01:11Z</time>
      </trkpt>
      <trkpt lat="47.29109" lon="-1.18139">
        <ele>85</ele>
        <time>2010-08-13T17:01:16Z</time>
      </trkpt>
      <trkpt lat="47.29143" lon="-1.18071">
        <ele>83</ele>
        <time>2010-08-13T17:01:21Z</time>
      </trkpt>
      <trkpt lat="47.29175" lon="-1.18009">
        <ele>80</ele>
        <time>2010-08-13T17:01:26Z</time>
      </trkpt>
      <trkpt lat="47.29208" lon="-1.17942">
        <ele>76</ele>
        <time>2010-08-13T17:01:31Z</time>
      </trkpt>
      <trkpt lat="47.29238" lon="-1.17884">
        <ele>75</ele>
        <time>2010-08-13T17:01:36Z</time>
      </trkpt>
      <trkpt lat="47.29272" lon="-1.17816">
        <ele>75</ele>
        <time>2010-08-13T17:01:41Z</time>
      </trkpt>
      <trkpt lat="47.29302" lon="-1.17757">
        <ele>76</ele>
        <time>2010-08-13T17:01:46Z</time>
      </trkpt>
      <trkpt lat="47.29323" lon="-1.17718">
        <ele>78</ele>
        <time>2010-08-13T17:01:51Z</time>
      </trkpt>
      <trkpt lat="47.29339" lon="-1.17689">
        <ele>78</ele>
        <time>2010-08-13T17:01:56Z</time>
      </trkpt>
      <trkpt lat="47.29359" lon="-1.17651">
        <ele>79</ele>
        <time>2010-08-13T17:02:01Z</time>
      </trkpt>
      <trkpt lat="47.29379" lon="-1.17613">
        <ele>79</ele>
        <time>2010-08-13T17:02:06Z</time>
      </trkpt>
      <trkpt lat="47.29403" lon="-1.17564">
        <ele>80</ele>
        <time>2010-08-13T17:02:11Z</time>
      </trkpt>
      <trkpt lat="47.29425" lon="-1.17521">
        <ele>78</ele>
        <time>2010-08-13T17:02:16Z</time>
      </trkpt>
      <trkpt lat="47.29443" lon="-1.17486">
        <ele>79</ele>
        <time>2010-08-13T17:02:21Z</time>
      </trkpt>
      <trkpt lat="47.29465" lon="-1.17444">
        <ele>79</ele>
        <time>2010-08-13T17:02:26Z</time>
      </trkpt>
      <trkpt lat="47.2949" lon="-1.17396">
        <ele>81</ele>
        <time>2010-08-13T17:02:31Z</time>
      </trkpt>
      <trkpt lat="47.29511" lon="-1.17355">
        <ele>80</ele>
        <time>2010-08-13T17:02:36Z</time>
      </trkpt>
      <trkpt lat="47.29528" lon="-1.17323">
        <ele>81</ele>
        <time>2010-08-13T17:02:41Z</time>
      </trkpt>
      <trkpt lat="47.29549" lon="-1.17282">
        <ele>81</ele>
        <time>2010-08-13T17:02:46Z</time>
      </trkpt>
      <trkpt lat="47.2957" lon="-1.17242">
        <ele>82</ele>
        <time>2010-08-13T17:02:51Z</time>
      </trkpt>
      <trkpt lat="47.29596" lon="-1.17193">
        <ele>83</ele>
        <time>2010-08-13T17:02:56Z</time>
      </trkpt>
      <trkpt lat="47.29617" lon="-1.17152">
        <ele>84</ele>
        <time>2010-08-13T17:03:01Z</time>
      </trkpt>
      <trkpt lat="47.29634" lon="-1.17119">
        <ele>84</ele>
        <time>2010-08-13T17:03:06Z</time>
      </trkpt>
      <trkpt lat="47.29655" lon="-1.17078">
        <ele>85</ele>
        <time>2010-08-13T17:03:11Z</time>
      </trkpt>
      <trkpt lat="47.2968" lon="-1.17027">
        <ele>83</ele>
        <time>2010-08-13T17:03:16Z</time>
      </trkpt>
      <trkpt lat="47.29704" lon="-1.16982">
        <ele>81</ele>
        <time>2010-08-13T17:03:21Z</time>
      </trkpt>
      <trkpt lat="47.29724" lon="-1.16943">
        <ele>81</ele>
        <time>2010-08-13T17:03:26Z</time>
      </trkpt>
      <trkpt lat="47.29755" lon="-1.16892">
        <ele>79</ele>
        <time>2010-08-13T17:03:31Z</time>
      </trkpt>
      <trkpt lat="47.29797" lon="-1.16842">
        <ele>77</ele>
        <time>2010-08-13T17:03:36Z</time>
      </trkpt>
      <trkpt lat="47.29851" lon="-1.16779">
        <ele>74</ele>
        <time>2010-08-13T17:03:41Z</time>
      </trkpt>
      <trkpt lat="47.299" lon="-1.16724">
        <ele>71</ele>
        <time>2010-08-13T17:03:46Z</time>
      </trkpt>
      <trkpt lat="47.2994" lon="-1.16679">
        <ele>69</ele>
        <time>2010-08-13T17:03:51Z</time>
      </trkpt>
      <trkpt lat="47.29992" lon="-1.1662">
        <ele>65</ele>
        <time>2010-08-13T17:03:56Z</time>
      </trkpt>
      <trkpt lat="47.30047" lon="-1.16561">
        <ele>60</ele>
        <time>2010-08-13T17:04:01Z</time>
      </trkpt>
      <trkpt lat="47.30123" lon="-1.16514">
        <ele>57</ele>
        <time>2010-08-13T17:04:06Z</time>
      </trkpt>
      <trkpt lat="47.30193" lon="-1.1651">
        <ele>54</ele>
        <time>2010-08-13T17:04:11Z</time>
      </trkpt>
      <trkpt lat="47.30249" lon="-1.16502">
        <ele>52</ele>
        <time>2010-08-13T17:04:16Z</time>
      </trkpt>
      <trkpt lat="47.30324" lon="-1.1647">
        <ele>56</ele>
        <time>2010-08-13T17:04:21Z</time>
      </trkpt>
      <trkpt lat="47.30362" lon="-1.16453">
        <ele>61</ele>
        <time>2010-08-13T17:04:26Z</time>
      </trkpt>
      <trkpt lat="47.30386" lon="-1.16437">
        <ele>61</ele>
        <time>2010-08-13T17:04:31Z</time>
      </trkpt>
      <trkpt lat="47.30402" lon="-1.16426">
        <ele>62</ele>
        <time>2010-08-13T17:04:36Z</time>
      </trkpt>
      <trkpt lat="47.30422" lon="-1.16412">
        <ele>63</ele>
        <time>2010-08-13T17:04:41Z</time>
      </trkpt>
      <trkpt lat="47.30446" lon="-1.16393">
        <ele>64</ele>
        <time>2010-08-13T17:04:46Z</time>
      </trkpt>
      <trkpt lat="47.30467" lon="-1.16377">
        <ele>65</ele>
        <time>2010-08-13T17:04:51Z</time>
      </trkpt>
      <trkpt lat="47.30488" lon="-1.16361">
        <ele>65</ele>
        <time>2010-08-13T17:04:56Z</time>
      </trkpt>
      <trkpt lat="47.30504" lon="-1.16348">
        <ele>68</ele>
        <time>2010-08-13T17:05:01Z</time>
      </trkpt>
      <trkpt lat="47.30524" lon="-1.16333">
        <ele>67</ele>
        <time>2010-08-13T17:05:06Z</time>
      </trkpt>
      <trkpt lat="47.30544" lon="-1.16318">
        <ele>69</ele>
        <time>2010-08-13T17:05:11Z</time>
      </trkpt>
      <trkpt lat="47.30566" lon="-1.16302">
        <ele>70</ele>
        <time>2010-08-13T17:05:16Z</time>
      </trkpt>
      <trkpt lat="47.30578" lon="-1.16291">
        <ele>70</ele>
        <time>2010-08-13T17:05:21Z</time>
      </trkpt>
      <trkpt lat="47.306" lon="-1.16277">
        <ele>74</ele>
        <time>2010-08-13T17:05:26Z</time>
      </trkpt>
      <trkpt lat="47.30621" lon="-1.16262">
        <ele>75</ele>
        <time>2010-08-13T17:05:31Z</time>
      </trkpt>
      <trkpt lat="47.30645" lon="-1.16242">
        <ele>74</ele>
        <time>2010-08-13T17:05:36Z</time>
      </trkpt>
      <trkpt lat="47.30668" lon="-1.16224">
        <ele>76</ele>
        <time>2010-08-13T17:05:41Z</time>
      </trkpt>
      <trkpt lat="47.30687" lon="-1.16211">
        <ele>76</ele>
        <time>2010-08-13T17:05:46Z</time>
      </trkpt>
      <trkpt lat="47.3071" lon="-1.16194">
        <ele>76</ele>
        <time>2010-08-13T17:05:51Z</time>
      </trkpt>
      <trkpt lat="47.30731" lon="-1.16179">
        <ele>76</ele>
        <time>2010-08-13T17:05:56Z</time>
      </trkpt>
      <trkpt lat="47.30757" lon="-1.16161">
        <ele>78</ele>
        <time>2010-08-13T17:06:01Z</time>
      </trkpt>
      <trkpt lat="47.30773" lon="-1.16149">
        <ele>79</ele>
        <time>2010-08-13T17:06:06Z</time>
      </trkpt>
      <trkpt lat="47.30794" lon="-1.16135">
        <ele>79</ele>
        <time>2010-08-13T17:06:11Z</time>
      </trkpt>
      <trkpt lat="47.3082" lon="-1.16123">
        <ele>80</ele>
        <time>2010-08-13T17:06:16Z</time>
      </trkpt>
      <trkpt lat="47.30842" lon="-1.16115">
        <ele>82</ele>
        <time>2010-08-13T17:06:21Z</time>
      </trkpt>
      <trkpt lat="47.30865" lon="-1.1611">
        <ele>83</ele>
        <time>2010-08-13T17:06:26Z</time>
      </trkpt>
      <trkpt lat="47.30883" lon="-1.16107">
        <ele>83</ele>
        <time>2010-08-13T17:06:31Z</time>
      </trkpt>
      <trkpt lat="47.30906" lon="-1.16106">
        <ele>84</ele>
        <time>2010-08-13T17:06:36Z</time>
      </trkpt>
      <trkpt lat="47.30933" lon="-1.16107">
        <ele>85</ele>
        <time>2010-08-13T17:06:41Z</time>
      </trkpt>
      <trkpt lat="47.30956" lon="-1.1611">
        <ele>85</ele>
        <time>2010-08-13T17:06:46Z</time>
      </trkpt>
      <trkpt lat="47.30975" lon="-1.16115">
        <ele>86</ele>
        <time>2010-08-13T17:06:51Z</time>
      </trkpt>
      <trkpt lat="47.30999" lon="-1.16122">
        <ele>86</ele>
        <time>2010-08-13T17:06:56Z</time>
      </trkpt>
      <trkpt lat="47.31029" lon="-1.16132">
        <ele>86</ele>
        <time>2010-08-13T17:07:01Z</time>
      </trkpt>
      <trkpt lat="47.31055" lon="-1.1614">
        <ele>86</ele>
        <time>2010-08-13T17:07:06Z</time>
      </trkpt>
      <trkpt lat="47.31081" lon="-1.16147">
        <ele>86</ele>
        <time>2010-08-13T17:07:11Z</time>
      </trkpt>
      <trkpt lat="47.31103" lon="-1.16154">
        <ele>87</ele>
        <time>2010-08-13T17:07:16Z</time>
      </trkpt>
      <trkpt lat="47.31131" lon="-1.16163">
        <ele>88</ele>
        <time>2010-08-13T17:07:21Z</time>
      </trkpt>
      <trkpt lat="47.31164" lon="-1.16173">
        <ele>88</ele>
        <time>2010-08-13T17:07:26Z</time>
      </trkpt>
      <trkpt lat="47.31193" lon="-1.16182">
        <ele>88</ele>
        <time>2010-08-13T17:07:31Z</time>
      </trkpt>
      <trkpt lat="47.31222" lon="-1.16192">
        <ele>88</ele>
        <time>2010-08-13T17:07:36Z</time>
      </trkpt>
      <trkpt lat="47.31247" lon="-1.162">
        <ele>87</ele>
        <time>2010-08-13T17:07:41Z</time>
      </trkpt>
      <trkpt lat="47.31281" lon="-1.16207">
        <ele>87</ele>
        <time>2010-08-13T17:07:46Z</time>
      </trkpt>
      <trkpt lat="47.31315" lon="-1.16217">
        <ele>87</ele>
        <time>2010-08-13T17:07:51Z</time>
      </trkpt>
      <trkpt lat="47.31353" lon="-1.16235">
        <ele>87</ele>
        <time>2010-08-13T17:07:56Z</time>
      </trkpt>
      <trkpt lat="47.31378" lon="-1.16244">
        <ele>88</ele>
        <time>2010-08-13T17:08:01Z</time>
      </trkpt>
      <trkpt lat="47.3141" lon="-1.16254">
        <ele>88</ele>
        <time>2010-08-13T17:08:06Z</time>
      </trkpt>
      <trkpt lat="47.31442" lon="-1.16265">
        <ele>88</ele>
        <time>2010-08-13T17:08:11Z</time>
      </trkpt>
      <trkpt lat="47.3148" lon="-1.16279">
        <ele>88</ele>
        <time>2010-08-13T17:08:16Z</time>
      </trkpt>
      <trkpt lat="47.31511" lon="-1.16288">
        <ele>88</ele>
        <time>2010-08-13T17:08:21Z</time>
      </trkpt>
      <trkpt lat="47.31537" lon="-1.16296">
        <ele>88</ele>
        <time>2010-08-13T17:08:26Z</time>
      </trkpt>
      <trkpt lat="47.3157" lon="-1.16306">
        <ele>88</ele>
        <time>2010-08-13T17:08:31Z</time>
      </trkpt>
      <trkpt lat="47.31612" lon="-1.1632">
        <ele>87</ele>
        <time>2010-08-13T17:08:36Z</time>
      </trkpt>
      <trkpt lat="47.3165" lon="-1.16331">
        <ele>86</ele>
        <time>2010-08-13T17:08:41Z</time>
      </trkpt>
      <trkpt lat="47.31682" lon="-1.16342">
        <ele>84</ele>
        <time>2010-08-13T17:08:46Z</time>
      </trkpt>
      <trkpt lat="47.31726" lon="-1.16356">
        <ele>83</ele>
        <time>2010-08-13T17:08:51Z</time>
      </trkpt>
      <trkpt lat="47.31774" lon="-1.16371">
        <ele>80</ele>
        <time>2010-08-13T17:08:56Z</time>
      </trkpt>
      <trkpt lat="47.31833" lon="-1.1639">
        <ele>79</ele>
        <time>2010-08-13T17:09:01Z</time>
      </trkpt>
      <trkpt lat="47.31884" lon="-1.16406">
        <ele>77</ele>
        <time>2010-08-13T17:09:06Z</time>
      </trkpt>
      <trkpt lat="47.31923" lon="-1.16417">
        <ele>76</ele>
        <time>2010-08-13T17:09:11Z</time>
      </trkpt>
      <trkpt lat="47.3197" lon="-1.16431">
        <ele>75</ele>
        <time>2010-08-13T17:09:16Z</time>
      </trkpt>
      <trkpt lat="47.32024" lon="-1.16447">
        <ele>73</ele>
        <time>2010-08-13T17:09:21Z</time>
      </trkpt>
      <trkpt lat="47.32066" lon="-1.16458">
        <ele>73</ele>
        <time>2010-08-13T17:09:26Z</time>
      </trkpt>
      <trkpt lat="47.32099" lon="-1.16471">
        <ele>72</ele>
        <time>2010-08-13T17:09:31Z</time>
      </trkpt>
      <trkpt lat="47.3214" lon="-1.16487">
        <ele>72</ele>
        <time>2010-08-13T17:09:36Z</time>
      </trkpt>
      <trkpt lat="47.32179" lon="-1.16499">
        <ele>71</ele>
        <time>2010-08-13T17:09:41Z</time>
      </trkpt>
      <trkpt lat="47.32226" lon="-1.16514">
        <ele>71</ele>
        <time>2010-08-13T17:09:46Z</time>
      </trkpt>
      <trkpt lat="47.32264" lon="-1.16526">
        <ele>72</ele>
        <time>2010-08-13T17:09:51Z</time>
      </trkpt>
      <trkpt lat="47.32294" lon="-1.16536">
        <ele>71</ele>
        <time>2010-08-13T17:09:56Z</time>
      </trkpt>
      <trkpt lat="47.3233" lon="-1.16547">
        <ele>72</ele>
        <time>2010-08-13T17:10:01Z</time>
      </trkpt>
      <trkpt lat="47.32372" lon="-1.16561">
        <ele>71</ele>
        <time>2010-08-13T17:10:06Z</time>
      </trkpt>
      <trkpt lat="47.32407" lon="-1.16572">
        <ele>70</ele>
        <time>2010-08-13T17:10:11Z</time>
      </trkpt>
      <trkpt lat="47.32442" lon="-1.16583">
        <ele>70</ele>
        <time>2010-08-13T17:10:16Z</time>
      </trkpt>
      <trkpt lat="47.32471" lon="-1.16592">
        <ele>70</ele>
        <time>2010-08-13T17:10:21Z</time>
      </trkpt>
      <trkpt lat="47.32507" lon="-1.16604">
        <ele>70</ele>
        <time>2010-08-13T17:10:26Z</time>
      </trkpt>
      <trkpt lat="47.3255" lon="-1.16618">
        <ele>70</ele>
        <time>2010-08-13T17:10:31Z</time>
      </trkpt>
      <trkpt lat="47.32586" lon="-1.16629">
        <ele>70</ele>
        <time>2010-08-13T17:10:36Z</time>
      </trkpt>
      <trkpt lat="47.32614" lon="-1.16639">
        <ele>70</ele>
        <time>2010-08-13T17:10:41Z</time>
      </trkpt>
      <trkpt lat="47.32651" lon="-1.16651">
        <ele>70</ele>
        <time>2010-08-13T17:10:46Z</time>
      </trkpt>
      <trkpt lat="47.32689" lon="-1.16666">
        <ele>69</ele>
        <time>2010-08-13T17:10:51Z</time>
      </trkpt>
      <trkpt lat="47.32734" lon="-1.16678">
        <ele>68</ele>
        <time>2010-08-13T17:10:56Z</time>
      </trkpt>
      <trkpt lat="47.32771" lon="-1.16689">
        <ele>67</ele>
        <time>2010-08-13T17:11:01Z</time>
      </trkpt>
      <trkpt lat="47.32802" lon="-1.16699">
        <ele>66</ele>
        <time>2010-08-13T17:11:06Z</time>
      </trkpt>
      <trkpt lat="47.32843" lon="-1.16714">
        <ele>63</ele>
        <time>2010-08-13T17:11:11Z</time>
      </trkpt>
      <trkpt lat="47.32898" lon="-1.16732">
        <ele>62</ele>
        <time>2010-08-13T17:11:16Z</time>
      </trkpt>
      <trkpt lat="47.32949" lon="-1.16746">
        <ele>60</ele>
        <time>2010-08-13T17:11:21Z</time>
      </trkpt>
      <trkpt lat="47.32991" lon="-1.16753">
        <ele>59</ele>
        <time>2010-08-13T17:11:26Z</time>
      </trkpt>
      <trkpt lat="47.33043" lon="-1.16739">
        <ele>57</ele>
        <time>2010-08-13T17:11:31Z</time>
      </trkpt>
      <trkpt lat="47.33085" lon="-1.16695">
        <ele>55</ele>
        <time>2010-08-13T17:11:36Z</time>
      </trkpt>
      <trkpt lat="47.3313" lon="-1.16626">
        <ele>53</ele>
        <time>2010-08-13T17:11:41Z</time>
      </trkpt>
      <trkpt lat="47.33174" lon="-1.16569">
        <ele>50</ele>
        <time>2010-08-13T17:11:46Z</time>
      </trkpt>
      <trkpt lat="47.33212" lon="-1.16522">
        <ele>46</ele>
        <time>2010-08-13T17:11:51Z</time>
      </trkpt>
      <trkpt lat="47.33264" lon="-1.1647">
        <ele>35</ele>
        <time>2010-08-13T17:11:56Z</time>
      </trkpt>
      <trkpt lat="47.33327" lon="-1.16412">
        <ele>31</ele>
        <time>2010-08-13T17:12:01Z</time>
      </trkpt>
      <trkpt lat="47.33378" lon="-1.16365">
        <ele>35</ele>
        <time>2010-08-13T17:12:06Z</time>
      </trkpt>
      <trkpt lat="47.33413" lon="-1.16332">
        <ele>40</ele>
        <time>2010-08-13T17:12:11Z</time>
      </trkpt>
      <trkpt lat="47.3345" lon="-1.16294">
        <ele>40</ele>
        <time>2010-08-13T17:12:16Z</time>
      </trkpt>
      <trkpt lat="47.33492" lon="-1.16255">
        <ele>41</ele>
        <time>2010-08-13T17:12:21Z</time>
      </trkpt>
      <trkpt lat="47.33529" lon="-1.16227">
        <ele>39</ele>
        <time>2010-08-13T17:12:26Z</time>
      </trkpt>
      <trkpt lat="47.33566" lon="-1.16204">
        <ele>38</ele>
        <time>2010-08-13T17:12:31Z</time>
      </trkpt>
      <trkpt lat="47.33596" lon="-1.16189">
        <ele>36</ele>
        <time>2010-08-13T17:12:36Z</time>
      </trkpt>
      <trkpt lat="47.33633" lon="-1.16173">
        <ele>36</ele>
        <time>2010-08-13T17:12:41Z</time>
      </trkpt>
      <trkpt lat="47.33668" lon="-1.16162">
        <ele>39</ele>
        <time>2010-08-13T17:12:46Z</time>
      </trkpt>
      <trkpt lat="47.33709" lon="-1.1615">
        <ele>42</ele>
        <time>2010-08-13T17:12:51Z</time>
      </trkpt>
      <trkpt lat="47.33736" lon="-1.16143">
        <ele>43</ele>
        <time>2010-08-13T17:12:56Z</time>
      </trkpt>
      <trkpt lat="47.33769" lon="-1.16133">
        <ele>43</ele>
        <time>2010-08-13T17:13:01Z</time>
      </trkpt>
      <trkpt lat="47.33802" lon="-1.16123">
        <ele>43</ele>
        <time>2010-08-13T17:13:06Z</time>
      </trkpt>
      <trkpt lat="47.33843" lon="-1.16109">
        <ele>42</ele>
        <time>2010-08-13T17:13:11Z</time>
      </trkpt>
      <trkpt lat="47.33876" lon="-1.16096">
        <ele>43</ele>
        <time>2010-08-13T17:13:16Z</time>
      </trkpt>
      <trkpt lat="47.33904" lon="-1.16082">
        <ele>47</ele>
        <time>2010-08-13T17:13:21Z</time>
      </trkpt>
      <trkpt lat="47.3394" lon="-1.16064">
        <ele>48</ele>
        <time>2010-08-13T17:13:26Z</time>
      </trkpt>
      <trkpt lat="47.33979" lon="-1.16046">
        <ele>48</ele>
        <time>2010-08-13T17:13:31Z</time>
      </trkpt>
      <trkpt lat="47.34031" lon="-1.16029">
        <ele>43</ele>
        <time>2010-08-13T17:13:36Z</time>
      </trkpt>
      <trkpt lat="47.3408" lon="-1.1602">
        <ele>41</ele>
        <time>2010-08-13T17:13:41Z</time>
      </trkpt>
      <trkpt lat="47.34123" lon="-1.16017">
        <ele>34</ele>
        <time>2010-08-13T17:13:46Z</time>
      </trkpt>
      <trkpt lat="47.34191" lon="-1.16023">
        <ele>32</ele>
        <time>2010-08-13T17:13:51Z</time>
      </trkpt>
      <trkpt lat="47.34249" lon="-1.16035">
        <ele>31</ele>
        <time>2010-08-13T17:13:56Z</time>
      </trkpt>
      <trkpt lat="47.34309" lon="-1.16051">
        <ele>25</ele>
        <time>2010-08-13T17:14:01Z</time>
      </trkpt>
      <trkpt lat="47.34358" lon="-1.16062">
        <ele>19</ele>
        <time>2010-08-13T17:14:06Z</time>
      </trkpt>
      <trkpt lat="47.34421" lon="-1.16068">
        <ele>13</ele>
        <time>2010-08-13T17:14:11Z</time>
      </trkpt>
      <trkpt lat="47.34481" lon="-1.16072">
        <ele>11</ele>
        <time>2010-08-13T17:14:16Z</time>
      </trkpt>
      <trkpt lat="47.34542" lon="-1.16089">
        <ele>10</ele>
        <time>2010-08-13T17:14:21Z</time>
      </trkpt>
      <trkpt lat="47.34583" lon="-1.16107">
        <ele>10</ele>
        <time>2010-08-13T17:14:26Z</time>
      </trkpt>
      <trkpt lat="47.34611" lon="-1.16124">
        <ele>10</ele>
        <time>2010-08-13T17:14:31Z</time>
      </trkpt>
      <trkpt lat="47.34644" lon="-1.16148">
        <ele>9</ele>
        <time>2010-08-13T17:14:36Z</time>
      </trkpt>
      <trkpt lat="47.34682" lon="-1.16183">
        <ele>9</ele>
        <time>2010-08-13T17:14:41Z</time>
      </trkpt>
      <trkpt lat="47.34709" lon="-1.16222">
        <ele>9</ele>
        <time>2010-08-13T17:14:46Z</time>
      </trkpt>
      <trkpt lat="47.34728" lon="-1.16258">
        <ele>10</ele>
        <time>2010-08-13T17:14:51Z</time>
      </trkpt>
      <trkpt lat="47.34744" lon="-1.16309">
        <ele>10</ele>
        <time>2010-08-13T17:14:56Z</time>
      </trkpt>
      <trkpt lat="47.34751" lon="-1.16362">
        <ele>10</ele>
        <time>2010-08-13T17:15:01Z</time>
      </trkpt>
      <trkpt lat="47.3476" lon="-1.164">
        <ele>10</ele>
        <time>2010-08-13T17:15:06Z</time>
      </trkpt>
      <trkpt lat="47.34784" lon="-1.16455">
        <ele>10</ele>
        <time>2010-08-13T17:15:11Z</time>
      </trkpt>
      <trkpt lat="47.3481" lon="-1.16482">
        <ele>10</ele>
        <time>2010-08-13T17:15:16Z</time>
      </trkpt>
      <trkpt lat="47.34842" lon="-1.16515">
        <ele>11</ele>
        <time>2010-08-13T17:15:21Z</time>
      </trkpt>
      <trkpt lat="47.34879" lon="-1.16552">
        <ele>10</ele>
        <time>2010-08-13T17:15:26Z</time>
      </trkpt>
      <trkpt lat="47.34909" lon="-1.16582">
        <ele>9</ele>
        <time>2010-08-13T17:15:31Z</time>
      </trkpt>
      <trkpt lat="47.34931" lon="-1.16606">
        <ele>8</ele>
        <time>2010-08-13T17:15:36Z</time>
      </trkpt>
      <trkpt lat="47.3496" lon="-1.16638">
        <ele>7</ele>
        <time>2010-08-13T17:15:41Z</time>
      </trkpt>
      <trkpt lat="47.34989" lon="-1.16671">
        <ele>8</ele>
        <time>2010-08-13T17:15:46Z</time>
      </trkpt>
      <trkpt lat="47.35025" lon="-1.16712">
        <ele>9</ele>
        <time>2010-08-13T17:15:51Z</time>
      </trkpt>
      <trkpt lat="47.35056" lon="-1.16749">
        <ele>9</ele>
        <time>2010-08-13T17:15:56Z</time>
      </trkpt>
      <trkpt lat="47.3508" lon="-1.16777">
        <ele>10</ele>
        <time>2010-08-13T17:16:01Z</time>
      </trkpt>
      <trkpt lat="47.35111" lon="-1.16813">
        <ele>9</ele>
        <time>2010-08-13T17:16:06Z</time>
      </trkpt>
      <trkpt lat="47.35151" lon="-1.1685">
        <ele>9</ele>
        <time>2010-08-13T17:16:11Z</time>
      </trkpt>
      <trkpt lat="47.35182" lon="-1.16881">
        <ele>9</ele>
        <time>2010-08-13T17:16:16Z</time>
      </trkpt>
      <trkpt lat="47.35205" lon="-1.16906">
        <ele>9</ele>
        <time>2010-08-13T17:16:21Z</time>
      </trkpt>
      <trkpt lat="47.35236" lon="-1.16935">
        <ele>8</ele>
        <time>2010-08-13T17:16:26Z</time>
      </trkpt>
      <trkpt lat="47.35272" lon="-1.1697">
        <ele>8</ele>
        <time>2010-08-13T17:16:31Z</time>
      </trkpt>
      <trkpt lat="47.35295" lon="-1.16995">
        <ele>8</ele>
        <time>2010-08-13T17:16:36Z</time>
      </trkpt>
      <trkpt lat="47.35332" lon="-1.1703">
        <ele>9</ele>
        <time>2010-08-13T17:16:41Z</time>
      </trkpt>
      <trkpt lat="47.35356" lon="-1.17055">
        <ele>10</ele>
        <time>2010-08-13T17:16:46Z</time>
      </trkpt>
      <trkpt lat="47.35386" lon="-1.17087">
        <ele>10</ele>
        <time>2010-08-13T17:16:51Z</time>
      </trkpt>
      <trkpt lat="47.35421" lon="-1.17123">
        <ele>10</ele>
        <time>2010-08-13T17:16:56Z</time>
      </trkpt>
      <trkpt lat="47.35451" lon="-1.17154">
        <ele>10</ele>
        <time>2010-08-13T17:17:01Z</time>
      </trkpt>
      <trkpt lat="47.35481" lon="-1.17186">
        <ele>10</ele>
        <time>2010-08-13T17:17:06Z</time>
      </trkpt>
      <trkpt lat="47.35505" lon="-1.17212">
        <ele>9</ele>
        <time>2010-08-13T17:17:11Z</time>
      </trkpt>
      <trkpt lat="47.35543" lon="-1.1725">
        <ele>9</ele>
        <time>2010-08-13T17:17:16Z</time>
      </trkpt>
      <trkpt lat="47.35576" lon="-1.17282">
        <ele>9</ele>
        <time>2010-08-13T17:17:21Z</time>
      </trkpt>
      <trkpt lat="47.35607" lon="-1.17314">
        <ele>11</ele>
        <time>2010-08-13T17:17:26Z</time>
      </trkpt>
      <trkpt lat="47.35631" lon="-1.17341">
        <ele>11</ele>
        <time>2010-08-13T17:17:31Z</time>
      </trkpt>
      <trkpt lat="47.35664" lon="-1.17369">
        <ele>11</ele>
        <time>2010-08-13T17:17:36Z</time>
      </trkpt>
      <trkpt lat="47.35706" lon="-1.17392">
        <ele>12</ele>
        <time>2010-08-13T17:17:41Z</time>
      </trkpt>
      <trkpt lat="47.3574" lon="-1.17413">
        <ele>12</ele>
        <time>2010-08-13T17:17:46Z</time>
      </trkpt>
      <trkpt lat="47.35775" lon="-1.17429">
        <ele>11</ele>
        <time>2010-08-13T17:17:51Z</time>
      </trkpt>
      <trkpt lat="47.35803" lon="-1.17442">
        <ele>11</ele>
        <time>2010-08-13T17:17:56Z</time>
      </trkpt>
      <trkpt lat="47.35839" lon="-1.1746">
        <ele>10</ele>
        <time>2010-08-13T17:18:01Z</time>
      </trkpt>
      <trkpt lat="47.35879" lon="-1.17479">
        <ele>10</ele>
        <time>2010-08-13T17:18:06Z</time>
      </trkpt>
      <trkpt lat="47.35912" lon="-1.17496">
        <ele>10</ele>
        <time>2010-08-13T17:18:11Z</time>
      </trkpt>
      <trkpt lat="47.35938" lon="-1.17509">
        <ele>10</ele>
        <time>2010-08-13T17:18:16Z</time>
      </trkpt>
      <trkpt lat="47.35969" lon="-1.17525">
        <ele>10</ele>
        <time>2010-08-13T17:18:21Z</time>
      </trkpt>
      <trkpt lat="47.35999" lon="-1.1754">
        <ele>10</ele>
        <time>2010-08-13T17:18:26Z</time>
      </trkpt>
      <trkpt lat="47.36033" lon="-1.17558">
        <ele>9</ele>
        <time>2010-08-13T17:18:31Z</time>
      </trkpt>
      <trkpt lat="47.36062" lon="-1.17573">
        <ele>8</ele>
        <time>2010-08-13T17:18:36Z</time>
      </trkpt>
      <trkpt lat="47.36084" lon="-1.17586">
        <ele>7</ele>
        <time>2010-08-13T17:18:41Z</time>
      </trkpt>
      <trkpt lat="47.36114" lon="-1.176">
        <ele>7</ele>
        <time>2010-08-13T17:18:46Z</time>
      </trkpt>
      <trkpt lat="47.3615" lon="-1.17618">
        <ele>7</ele>
        <time>2010-08-13T17:18:51Z</time>
      </trkpt>
      <trkpt lat="47.3618" lon="-1.17633">
        <ele>7</ele>
        <time>2010-08-13T17:18:56Z</time>
      </trkpt>
      <trkpt lat="47.36203" lon="-1.17646">
        <ele>7</ele>
        <time>2010-08-13T17:19:01Z</time>
      </trkpt>
      <trkpt lat="47.36233" lon="-1.17662">
        <ele>7</ele>
        <time>2010-08-13T17:19:06Z</time>
      </trkpt>
      <trkpt lat="47.36264" lon="-1.17678">
        <ele>7</ele>
        <time>2010-08-13T17:19:11Z</time>
      </trkpt>
      <trkpt lat="47.36301" lon="-1.177">
        <ele>7</ele>
        <time>2010-08-13T17:19:16Z</time>
      </trkpt>
      <trkpt lat="47.36335" lon="-1.17719">
        <ele>10</ele>
        <time>2010-08-13T17:19:21Z</time>
      </trkpt>
      <trkpt lat="47.36363" lon="-1.17727">
        <ele>11</ele>
        <time>2010-08-13T17:19:26Z</time>
      </trkpt>
      <trkpt lat="47.36387" lon="-1.17675">
        <ele>13</ele>
        <time>2010-08-13T17:19:31Z</time>
      </trkpt>
      <trkpt lat="47.36434" lon="-1.17622">
        <ele>13</ele>
        <time>2010-08-13T17:19:36Z</time>
      </trkpt>
      <trkpt lat="47.3647" lon="-1.17578">
        <ele>11</ele>
        <time>2010-08-13T17:19:41Z</time>
      </trkpt>
      <trkpt lat="47.36504" lon="-1.17537">
        <ele>15</ele>
        <time>2010-08-13T17:19:46Z</time>
      </trkpt>
      <trkpt lat="47.36531" lon="-1.17506">
        <ele>15</ele>
        <time>2010-08-13T17:19:51Z</time>
      </trkpt>
      <trkpt lat="47.36562" lon="-1.17468">
        <ele>12</ele>
        <time>2010-08-13T17:19:56Z</time>
      </trkpt>
      <trkpt lat="47.36604" lon="-1.17436">
        <ele>13</ele>
        <time>2010-08-13T17:20:01Z</time>
      </trkpt>
      <trkpt lat="47.36642" lon="-1.17419">
        <ele>12</ele>
        <time>2010-08-13T17:20:06Z</time>
      </trkpt>
      <trkpt lat="47.3667" lon="-1.17409">
        <ele>11</ele>
        <time>2010-08-13T17:20:11Z</time>
      </trkpt>
      <trkpt lat="47.36698" lon="-1.17377">
        <ele>11</ele>
        <time>2010-08-13T17:20:16Z</time>
      </trkpt>
      <trkpt lat="47.36724" lon="-1.17343">
        <ele>11</ele>
        <time>2010-08-13T17:20:21Z</time>
      </trkpt>
      <trkpt lat="47.36757" lon="-1.17303">
        <ele>12</ele>
        <time>2010-08-13T17:20:26Z</time>
      </trkpt>
      <trkpt lat="47.36785" lon="-1.17269">
        <ele>12</ele>
        <time>2010-08-13T17:20:31Z</time>
      </trkpt>
      <trkpt lat="47.36811" lon="-1.17243">
        <ele>11</ele>
        <time>2010-08-13T17:20:36Z</time>
      </trkpt>
      <trkpt lat="47.36839" lon="-1.17207">
        <ele>12</ele>
        <time>2010-08-13T17:20:41Z</time>
      </trkpt>
      <trkpt lat="47.36874" lon="-1.17167">
        <ele>12</ele>
        <time>2010-08-13T17:20:46Z</time>
      </trkpt>
      <trkpt lat="47.36908" lon="-1.17131">
        <ele>12</ele>
        <time>2010-08-13T17:20:51Z</time>
      </trkpt>
      <trkpt lat="47.36934" lon="-1.17102">
        <ele>12</ele>
        <time>2010-08-13T17:20:56Z</time>
      </trkpt>
      <trkpt lat="47.36966" lon="-1.17066">
        <ele>12</ele>
        <time>2010-08-13T17:21:01Z</time>
      </trkpt>
      <trkpt lat="47.36993" lon="-1.17032">
        <ele>12</ele>
        <time>2010-08-13T17:21:06Z</time>
      </trkpt>
      <trkpt lat="47.37024" lon="-1.16995">
        <ele>13</ele>
        <time>2010-08-13T17:21:11Z</time>
      </trkpt>
      <trkpt lat="47.37049" lon="-1.16965">
        <ele>13</ele>
        <time>2010-08-13T17:21:16Z</time>
      </trkpt>
      <trkpt lat="47.37067" lon="-1.16942">
        <ele>13</ele>
        <time>2010-08-13T17:21:21Z</time>
      </trkpt>
      <trkpt lat="47.37092" lon="-1.16912">
        <ele>13</ele>
        <time>2010-08-13T17:21:26Z</time>
      </trkpt>
      <trkpt lat="47.37119" lon="-1.16876">
        <ele>13</ele>
        <time>2010-08-13T17:21:31Z</time>
      </trkpt>
      <trkpt lat="47.37143" lon="-1.16846">
        <ele>13</ele>
        <time>2010-08-13T17:21:36Z</time>
      </trkpt>
      <trkpt lat="47.37165" lon="-1.1682">
        <ele>13</ele>
        <time>2010-08-13T17:21:41Z</time>
      </trkpt>
      <trkpt lat="47.37195" lon="-1.16787">
        <ele>13</ele>
        <time>2010-08-13T17:21:46Z</time>
      </trkpt>
      <trkpt lat="47.37228" lon="-1.16749">
        <ele>11</ele>
        <time>2010-08-13T17:21:51Z</time>
      </trkpt>
      <trkpt lat="47.37246" lon="-1.16716">
        <ele>11</ele>
        <time>2010-08-13T17:21:56Z</time>
      </trkpt>
      <trkpt lat="47.37228" lon="-1.16659">
        <ele>9</ele>
        <time>2010-08-13T17:22:01Z</time>
      </trkpt>
      <trkpt lat="47.3721" lon="-1.16621">
        <ele>9</ele>
        <time>2010-08-13T17:22:06Z</time>
      </trkpt>
      <trkpt lat="47.37187" lon="-1.16569">
        <ele>10</ele>
        <time>2010-08-13T17:22:11Z</time>
      </trkpt>
      <trkpt lat="47.37163" lon="-1.16503">
        <ele>10</ele>
        <time>2010-08-13T17:22:16Z</time>
      </trkpt>
      <trkpt lat="47.37159" lon="-1.16443">
        <ele>11</ele>
        <time>2010-08-13T17:22:21Z</time>
      </trkpt>
      <trkpt lat="47.37164" lon="-1.16399">
        <ele>12</ele>
        <time>2010-08-13T17:22:26Z</time>
      </trkpt>
      <trkpt lat="47.37172" lon="-1.16351">
        <ele>15</ele>
        <time>2010-08-13T17:22:31Z</time>
      </trkpt>
      <trkpt lat="47.3718" lon="-1.16302">
        <ele>17</ele>
        <time>2010-08-13T17:22:36Z</time>
      </trkpt>
      <trkpt lat="47.37186" lon="-1.16263">
        <ele>17</ele>
        <time>2010-08-13T17:22:41Z</time>
      </trkpt>
      <trkpt lat="47.37193" lon="-1.16225">
        <ele>17</ele>
        <time>2010-08-13T17:22:46Z</time>
      </trkpt>
      <trkpt lat="47.37197" lon="-1.16196">
        <ele>18</ele>
        <time>2010-08-13T17:22:51Z</time>
      </trkpt>
      <trkpt lat="47.37205" lon="-1.1616">
        <ele>18</ele>
        <time>2010-08-13T17:22:56Z</time>
      </trkpt>
      <trkpt lat="47.37215" lon="-1.16116">
        <ele>19</ele>
        <time>2010-08-13T17:23:01Z</time>
      </trkpt>
      <trkpt lat="47.37221" lon="-1.16079">
        <ele>20</ele>
        <time>2010-08-13T17:23:06Z</time>
      </trkpt>
      <trkpt lat="47.37228" lon="-1.16051">
        <ele>20</ele>
        <time>2010-08-13T17:23:11Z</time>
      </trkpt>
      <trkpt lat="47.37242" lon="-1.16019">
        <ele>22</ele>
        <time>2010-08-13T17:23:16Z</time>
      </trkpt>
      <trkpt lat="47.37258" lon="-1.15992">
        <ele>26</ele>
        <time>2010-08-13T17:23:21Z</time>
      </trkpt>
      <trkpt lat="47.37286" lon="-1.15967">
        <ele>28</ele>
        <time>2010-08-13T17:23:26Z</time>
      </trkpt>
      <trkpt lat="47.37304" lon="-1.15942">
        <ele>28</ele>
        <time>2010-08-13T17:23:31Z</time>
      </trkpt>
      <trkpt lat="47.37316" lon="-1.15918">
        <ele>29</ele>
        <time>2010-08-13T17:23:36Z</time>
      </trkpt>
      <trkpt lat="47.37329" lon="-1.15888">
        <ele>31</ele>
        <time>2010-08-13T17:23:41Z</time>
      </trkpt>
      <trkpt lat="47.37347" lon="-1.15852">
        <ele>31</ele>
        <time>2010-08-13T17:23:46Z</time>
      </trkpt>
      <trkpt lat="47.37361" lon="-1.1582">
        <ele>32</ele>
        <time>2010-08-13T17:23:51Z</time>
      </trkpt>
      <trkpt lat="47.37377" lon="-1.15788">
        <ele>32</ele>
        <time>2010-08-13T17:23:56Z</time>
      </trkpt>
      <trkpt lat="47.3739" lon="-1.1576">
        <ele>31</ele>
        <time>2010-08-13T17:24:01Z</time>
      </trkpt>
      <trkpt lat="47.37406" lon="-1.1572">
        <ele>31</ele>
        <time>2010-08-13T17:24:06Z</time>
      </trkpt>
      <trkpt lat="47.37428" lon="-1.15666">
        <ele>30</ele>
        <time>2010-08-13T17:24:11Z</time>
      </trkpt>
      <trkpt lat="47.37445" lon="-1.1562">
        <ele>30</ele>
        <time>2010-08-13T17:24:16Z</time>
      </trkpt>
      <trkpt lat="47.37459" lon="-1.15583">
        <ele>31</ele>
        <time>2010-08-13T17:24:21Z</time>
      </trkpt>
      <trkpt lat="47.37478" lon="-1.15535">
        <ele>31</ele>
        <time>2010-08-13T17:24:26Z</time>
      </trkpt>
      <trkpt lat="47.37497" lon="-1.15487">
        <ele>30</ele>
        <time>2010-08-13T17:24:31Z</time>
      </trkpt>
      <trkpt lat="47.3752" lon="-1.15424">
        <ele>28</ele>
        <time>2010-08-13T17:24:36Z</time>
      </trkpt>
      <trkpt lat="47.3754" lon="-1.15368">
        <ele>28</ele>
        <time>2010-08-13T17:24:41Z</time>
      </trkpt>
      <trkpt lat="47.37557" lon="-1.15324">
        <ele>28</ele>
        <time>2010-08-13T17:24:46Z</time>
      </trkpt>
      <trkpt lat="47.37579" lon="-1.15269">
        <ele>27</ele>
        <time>2010-08-13T17:24:51Z</time>
      </trkpt>
      <trkpt lat="47.37606" lon="-1.15205">
        <ele>27</ele>
        <time>2010-08-13T17:24:56Z</time>
      </trkpt>
      <trkpt lat="47.37627" lon="-1.15153">
        <ele>28</ele>
        <time>2010-08-13T17:25:01Z</time>
      </trkpt>
      <trkpt lat="47.37643" lon="-1.15113">
        <ele>28</ele>
        <time>2010-08-13T17:25:06Z</time>
      </trkpt>
      <trkpt lat="47.37661" lon="-1.15065">
        <ele>28</ele>
        <time>2010-08-13T17:25:11Z</time>
      </trkpt>
      <trkpt lat="47.3768" lon="-1.1502">
        <ele>29</ele>
        <time>2010-08-13T17:25:16Z</time>
      </trkpt>
      <trkpt lat="47.37701" lon="-1.14965">
        <ele>29</ele>
        <time>2010-08-13T17:25:21Z</time>
      </trkpt>
      <trkpt lat="47.37717" lon="-1.14918">
        <ele>29</ele>
        <time>2010-08-13T17:25:26Z</time>
      </trkpt>
      <trkpt lat="47.3773" lon="-1.14877">
        <ele>28</ele>
        <time>2010-08-13T17:25:31Z</time>
      </trkpt>
      <trkpt lat="47.37745" lon="-1.14821">
        <ele>28</ele>
        <time>2010-08-13T17:25:36Z</time>
      </trkpt>
      <trkpt lat="47.37757" lon="-1.14763">
        <ele>27</ele>
        <time>2010-08-13T17:25:41Z</time>
      </trkpt>
      <trkpt lat="47.37767" lon="-1.1469">
        <ele>26</ele>
        <time>2010-08-13T17:25:46Z</time>
      </trkpt>
      <trkpt lat="47.37772" lon="-1.14639">
        <ele>25</ele>
        <time>2010-08-13T17:25:51Z</time>
      </trkpt>
      <trkpt lat="47.37775" lon="-1.14574">
        <ele>24</ele>
        <time>2010-08-13T17:25:56Z</time>
      </trkpt>
      <trkpt lat="47.37777" lon="-1.14509">
        <ele>23</ele>
        <time>2010-08-13T17:26:01Z</time>
      </trkpt>
      <trkpt lat="47.37778" lon="-1.1443">
        <ele>23</ele>
        <time>2010-08-13T17:26:06Z</time>
      </trkpt>
      <trkpt lat="47.3778" lon="-1.14365">
        <ele>22</ele>
        <time>2010-08-13T17:26:11Z</time>
      </trkpt>
      <trkpt lat="47.37781" lon="-1.14314">
        <ele>21</ele>
        <time>2010-08-13T17:26:16Z</time>
      </trkpt>
      <trkpt lat="47.37782" lon="-1.1425">
        <ele>20</ele>
        <time>2010-08-13T17:26:21Z</time>
      </trkpt>
      <trkpt lat="47.37783" lon="-1.14185">
        <ele>20</ele>
        <time>2010-08-13T17:26:26Z</time>
      </trkpt>
      <trkpt lat="47.37785" lon="-1.14105">
        <ele>19</ele>
        <time>2010-08-13T17:26:31Z</time>
      </trkpt>
      <trkpt lat="47.37786" lon="-1.14035">
        <ele>18</ele>
        <time>2010-08-13T17:26:36Z</time>
      </trkpt>
      <trkpt lat="47.37787" lon="-1.13979">
        <ele>18</ele>
        <time>2010-08-13T17:26:41Z</time>
      </trkpt>
      <trkpt lat="47.37789" lon="-1.13908">
        <ele>16</ele>
        <time>2010-08-13T17:26:46Z</time>
      </trkpt>
      <trkpt lat="47.37791" lon="-1.13821">
        <ele>13</ele>
        <time>2010-08-13T17:26:51Z</time>
      </trkpt>
      <trkpt lat="47.37792" lon="-1.13746">
        <ele>12</ele>
        <time>2010-08-13T17:26:56Z</time>
      </trkpt>
      <trkpt lat="47.37794" lon="-1.13684">
        <ele>12</ele>
        <time>2010-08-13T17:27:01Z</time>
      </trkpt>
      <trkpt lat="47.37796" lon="-1.13607">
        <ele>12</ele>
        <time>2010-08-13T17:27:06Z</time>
      </trkpt>
      <trkpt lat="47.37798" lon="-1.13524">
        <ele>12</ele>
        <time>2010-08-13T17:27:11Z</time>
      </trkpt>
      <trkpt lat="47.37799" lon="-1.13462">
        <ele>12</ele>
        <time>2010-08-13T17:27:16Z</time>
      </trkpt>
      <trkpt lat="47.378" lon="-1.13402">
        <ele>12</ele>
        <time>2010-08-13T17:27:21Z</time>
      </trkpt>
      <trkpt lat="47.37802" lon="-1.13354">
        <ele>13</ele>
        <time>2010-08-13T17:27:26Z</time>
      </trkpt>
      <trkpt lat="47.37802" lon="-1.13295">
        <ele>13</ele>
        <time>2010-08-13T17:27:31Z</time>
      </trkpt>
      <trkpt lat="47.37804" lon="-1.13236">
        <ele>13</ele>
        <time>2010-08-13T17:27:36Z</time>
      </trkpt>
      <trkpt lat="47.37805" lon="-1.13163">
        <ele>12</ele>
        <time>2010-08-13T17:27:41Z</time>
      </trkpt>
      <trkpt lat="47.37806" lon="-1.13113">
        <ele>11</ele>
        <time>2010-08-13T17:27:46Z</time>
      </trkpt>
      <trkpt lat="47.37807" lon="-1.13049">
        <ele>11</ele>
        <time>2010-08-13T17:27:51Z</time>
      </trkpt>
      <trkpt lat="47.37809" lon="-1.12983">
        <ele>11</ele>
        <time>2010-08-13T17:27:56Z</time>
      </trkpt>
      <trkpt lat="47.3781" lon="-1.12902">
        <ele>10</ele>
        <time>2010-08-13T17:28:01Z</time>
      </trkpt>
      <trkpt lat="47.37812" lon="-1.12836">
        <ele>9</ele>
        <time>2010-08-13T17:28:06Z</time>
      </trkpt>
      <trkpt lat="47.37813" lon="-1.12784">
        <ele>8</ele>
        <time>2010-08-13T17:28:11Z</time>
      </trkpt>
      <trkpt lat="47.37814" lon="-1.1272">
        <ele>7</ele>
        <time>2010-08-13T17:28:16Z</time>
      </trkpt>
      <trkpt lat="47.37816" lon="-1.12644">
        <ele>6</ele>
        <time>2010-08-13T17:28:21Z</time>
      </trkpt>
      <trkpt lat="47.37818" lon="-1.12582">
        <ele>7</ele>
        <time>2010-08-13T17:28:26Z</time>
      </trkpt>
      <trkpt lat="47.37819" lon="-1.12532">
        <ele>8</ele>
        <time>2010-08-13T17:28:31Z</time>
      </trkpt>
      <trkpt lat="47.37822" lon="-1.12469">
        <ele>10</ele>
        <time>2010-08-13T17:28:36Z</time>
      </trkpt>
      <trkpt lat="47.37828" lon="-1.1241">
        <ele>11</ele>
        <time>2010-08-13T17:28:41Z</time>
      </trkpt>
      <trkpt lat="47.37835" lon="-1.12346">
        <ele>12</ele>
        <time>2010-08-13T17:28:46Z</time>
      </trkpt>
      <trkpt lat="47.37843" lon="-1.12297">
        <ele>13</ele>
        <time>2010-08-13T17:28:51Z</time>
      </trkpt>
      <trkpt lat="47.37849" lon="-1.12261">
        <ele>14</ele>
        <time>2010-08-13T17:28:56Z</time>
      </trkpt>
      <trkpt lat="47.37858" lon="-1.12215">
        <ele>15</ele>
        <time>2010-08-13T17:29:01Z</time>
      </trkpt>
      <trkpt lat="47.37871" lon="-1.12158">
        <ele>16</ele>
        <time>2010-08-13T17:29:06Z</time>
      </trkpt>
      <trkpt lat="47.37883" lon="-1.12112">
        <ele>16</ele>
        <time>2010-08-13T17:29:11Z</time>
      </trkpt>
      <trkpt lat="47.37893" lon="-1.12075">
        <ele>16</ele>
        <time>2010-08-13T17:29:16Z</time>
      </trkpt>
      <trkpt lat="47.37906" lon="-1.12029">
        <ele>17</ele>
        <time>2010-08-13T17:29:21Z</time>
      </trkpt>
      <trkpt lat="47.37921" lon="-1.11974">
        <ele>17</ele>
        <time>2010-08-13T17:29:26Z</time>
      </trkpt>
      <trkpt lat="47.37934" lon="-1.1193">
        <ele>18</ele>
        <time>2010-08-13T17:29:31Z</time>
      </trkpt>
      <trkpt lat="47.37947" lon="-1.11886">
        <ele>19</ele>
        <time>2010-08-13T17:29:36Z</time>
      </trkpt>
      <trkpt lat="47.37959" lon="-1.11851">
        <ele>19</ele>
        <time>2010-08-13T17:29:41Z</time>
      </trkpt>
      <trkpt lat="47.37975" lon="-1.1181">
        <ele>20</ele>
        <time>2010-08-13T17:29:46Z</time>
      </trkpt>
      <trkpt lat="47.37997" lon="-1.11761">
        <ele>20</ele>
        <time>2010-08-13T17:29:51Z</time>
      </trkpt>
      <trkpt lat="47.38016" lon="-1.11718">
        <ele>20</ele>
        <time>2010-08-13T17:29:56Z</time>
      </trkpt>
      <trkpt lat="47.38036" lon="-1.11676">
        <ele>20</ele>
        <time>2010-08-13T17:30:01Z</time>
      </trkpt>
      <trkpt lat="47.38052" lon="-1.11641">
        <ele>21</ele>
        <time>2010-08-13T17:30:06Z</time>
      </trkpt>
      <trkpt lat="47.3807" lon="-1.11596">
        <ele>21</ele>
        <time>2010-08-13T17:30:11Z</time>
      </trkpt>
      <trkpt lat="47.38092" lon="-1.11543">
        <ele>21</ele>
        <time>2010-08-13T17:30:16Z</time>
      </trkpt>
      <trkpt lat="47.3811" lon="-1.11497">
        <ele>21</ele>
        <time>2010-08-13T17:30:21Z</time>
      </trkpt>
      <trkpt lat="47.38125" lon="-1.11461">
        <ele>22</ele>
        <time>2010-08-13T17:30:26Z</time>
      </trkpt>
      <trkpt lat="47.38141" lon="-1.11416">
        <ele>22</ele>
        <time>2010-08-13T17:30:31Z</time>
      </trkpt>
      <trkpt lat="47.38158" lon="-1.11369">
        <ele>22</ele>
        <time>2010-08-13T17:30:36Z</time>
      </trkpt>
      <trkpt lat="47.38176" lon="-1.11312">
        <ele>23</ele>
        <time>2010-08-13T17:30:41Z</time>
      </trkpt>
      <trkpt lat="47.38191" lon="-1.11265">
        <ele>24</ele>
        <time>2010-08-13T17:30:46Z</time>
      </trkpt>
      <trkpt lat="47.38202" lon="-1.11228">
        <ele>25</ele>
        <time>2010-08-13T17:30:51Z</time>
      </trkpt>
      <trkpt lat="47.38218" lon="-1.11181">
        <ele>25</ele>
        <time>2010-08-13T17:30:56Z</time>
      </trkpt>
      <trkpt lat="47.38236" lon="-1.11126">
        <ele>25</ele>
        <time>2010-08-13T17:31:01Z</time>
      </trkpt>
      <trkpt lat="47.38251" lon="-1.11079">
        <ele>26</ele>
        <time>2010-08-13T17:31:06Z</time>
      </trkpt>
      <trkpt lat="47.38263" lon="-1.11041">
        <ele>27</ele>
        <time>2010-08-13T17:31:11Z</time>
      </trkpt>
      <trkpt lat="47.38278" lon="-1.10993">
        <ele>28</ele>
        <time>2010-08-13T17:31:16Z</time>
      </trkpt>
      <trkpt lat="47.38293" lon="-1.10947">
        <ele>28</ele>
        <time>2010-08-13T17:31:21Z</time>
      </trkpt>
      <trkpt lat="47.38312" lon="-1.10891">
        <ele>28</ele>
        <time>2010-08-13T17:31:26Z</time>
      </trkpt>
      <trkpt lat="47.38328" lon="-1.10843">
        <ele>29</ele>
        <time>2010-08-13T17:31:31Z</time>
      </trkpt>
      <trkpt lat="47.3834" lon="-1.10805">
        <ele>29</ele>
        <time>2010-08-13T17:31:36Z</time>
      </trkpt>
      <trkpt lat="47.38356" lon="-1.10756">
        <ele>28</ele>
        <time>2010-08-13T17:31:41Z</time>
      </trkpt>
      <trkpt lat="47.38375" lon="-1.10698">
        <ele>29</ele>
        <time>2010-08-13T17:31:46Z</time>
      </trkpt>
      <trkpt lat="47.3839" lon="-1.10649">
        <ele>30</ele>
        <time>2010-08-13T17:31:51Z</time>
      </trkpt>
      <trkpt lat="47.38402" lon="-1.10609">
        <ele>30</ele>
        <time>2010-08-13T17:31:56Z</time>
      </trkpt>
      <trkpt lat="47.38418" lon="-1.1056">
        <ele>31</ele>
        <time>2010-08-13T17:32:01Z</time>
      </trkpt>
      <trkpt lat="47.38436" lon="-1.10507">
        <ele>31</ele>
        <time>2010-08-13T17:32:06Z</time>
      </trkpt>
      <trkpt lat="47.38457" lon="-1.1044">
        <ele>30</ele>
        <time>2010-08-13T17:32:11Z</time>
      </trkpt>
      <trkpt lat="47.38473" lon="-1.10386">
        <ele>29</ele>
        <time>2010-08-13T17:32:16Z</time>
      </trkpt>
      <trkpt lat="47.38485" lon="-1.10343">
        <ele>30</ele>
        <time>2010-08-13T17:32:21Z</time>
      </trkpt>
      <trkpt lat="47.38501" lon="-1.10291">
        <ele>30</ele>
        <time>2010-08-13T17:32:26Z</time>
      </trkpt>
      <trkpt lat="47.3852" lon="-1.10225">
        <ele>30</ele>
        <time>2010-08-13T17:32:31Z</time>
      </trkpt>
      <trkpt lat="47.38536" lon="-1.10169">
        <ele>30</ele>
        <time>2010-08-13T17:32:36Z</time>
      </trkpt>
      <trkpt lat="47.38546" lon="-1.10123">
        <ele>29</ele>
        <time>2010-08-13T17:32:41Z</time>
      </trkpt>
      <trkpt lat="47.38558" lon="-1.10065">
        <ele>28</ele>
        <time>2010-08-13T17:32:46Z</time>
      </trkpt>
      <trkpt lat="47.38572" lon="-1.09996">
        <ele>29</ele>
        <time>2010-08-13T17:32:51Z</time>
      </trkpt>
      <trkpt lat="47.38583" lon="-1.09938">
        <ele>28</ele>
        <time>2010-08-13T17:32:56Z</time>
      </trkpt>
      <trkpt lat="47.38596" lon="-1.09879">
        <ele>28</ele>
        <time>2010-08-13T17:33:01Z</time>
      </trkpt>
      <trkpt lat="47.38605" lon="-1.09832">
        <ele>27</ele>
        <time>2010-08-13T17:33:06Z</time>
      </trkpt>
      <trkpt lat="47.38618" lon="-1.09773">
        <ele>27</ele>
        <time>2010-08-13T17:33:11Z</time>
      </trkpt>
      <trkpt lat="47.3863" lon="-1.09713">
        <ele>26</ele>
        <time>2010-08-13T17:33:16Z</time>
      </trkpt>
      <trkpt lat="47.38646" lon="-1.09641">
        <ele>26</ele>
        <time>2010-08-13T17:33:21Z</time>
      </trkpt>
      <trkpt lat="47.38659" lon="-1.09581">
        <ele>25</ele>
        <time>2010-08-13T17:33:26Z</time>
      </trkpt>
      <trkpt lat="47.38669" lon="-1.09531">
        <ele>24</ele>
        <time>2010-08-13T17:33:31Z</time>
      </trkpt>
      <trkpt lat="47.38683" lon="-1.09468">
        <ele>23</ele>
        <time>2010-08-13T17:33:36Z</time>
      </trkpt>
      <trkpt lat="47.38697" lon="-1.09404">
        <ele>22</ele>
        <time>2010-08-13T17:33:41Z</time>
      </trkpt>
      <trkpt lat="47.38719" lon="-1.09328">
        <ele>21</ele>
        <time>2010-08-13T17:33:46Z</time>
      </trkpt>
      <trkpt lat="47.38737" lon="-1.09279">
        <ele>21</ele>
        <time>2010-08-13T17:33:51Z</time>
      </trkpt>
      <trkpt lat="47.38761" lon="-1.09219">
        <ele>20</ele>
        <time>2010-08-13T17:33:56Z</time>
      </trkpt>
      <trkpt lat="47.38786" lon="-1.09159">
        <ele>20</ele>
        <time>2010-08-13T17:34:01Z</time>
      </trkpt>
      <trkpt lat="47.38816" lon="-1.0909">
        <ele>19</ele>
        <time>2010-08-13T17:34:06Z</time>
      </trkpt>
      <trkpt lat="47.3884" lon="-1.09035">
        <ele>18</ele>
        <time>2010-08-13T17:34:11Z</time>
      </trkpt>
      <trkpt lat="47.38859" lon="-1.08992">
        <ele>17</ele>
        <time>2010-08-13T17:34:16Z</time>
      </trkpt>
      <trkpt lat="47.38883" lon="-1.08936">
        <ele>17</ele>
        <time>2010-08-13T17:34:21Z</time>
      </trkpt>
      <trkpt lat="47.38913" lon="-1.08867">
        <ele>16</ele>
        <time>2010-08-13T17:34:26Z</time>
      </trkpt>
      <trkpt lat="47.38937" lon="-1.08809">
        <ele>14</ele>
        <time>2010-08-13T17:34:31Z</time>
      </trkpt>
      <trkpt lat="47.38954" lon="-1.0876">
        <ele>14</ele>
        <time>2010-08-13T17:34:36Z</time>
      </trkpt>
      <trkpt lat="47.38971" lon="-1.08695">
        <ele>14</ele>
        <time>2010-08-13T17:34:41Z</time>
      </trkpt>
      <trkpt lat="47.38988" lon="-1.08613">
        <ele>13</ele>
        <time>2010-08-13T17:34:46Z</time>
      </trkpt>
      <trkpt lat="47.39001" lon="-1.08541">
        <ele>12</ele>
        <time>2010-08-13T17:34:51Z</time>
      </trkpt>
      <trkpt lat="47.39014" lon="-1.08471">
        <ele>13</ele>
        <time>2010-08-13T17:34:56Z</time>
      </trkpt>
      <trkpt lat="47.39024" lon="-1.08418">
        <ele>13</ele>
        <time>2010-08-13T17:35:01Z</time>
      </trkpt>
      <trkpt lat="47.39035" lon="-1.08356">
        <ele>13</ele>
        <time>2010-08-13T17:35:06Z</time>
      </trkpt>
      <trkpt lat="47.39048" lon="-1.0829">
        <ele>15</ele>
        <time>2010-08-13T17:35:11Z</time>
      </trkpt>
      <trkpt lat="47.3906" lon="-1.08236">
        <ele>16</ele>
        <time>2010-08-13T17:35:16Z</time>
      </trkpt>
      <trkpt lat="47.39074" lon="-1.08195">
        <ele>15</ele>
        <time>2010-08-13T17:35:21Z</time>
      </trkpt>
      <trkpt lat="47.39092" lon="-1.08147">
        <ele>15</ele>
        <time>2010-08-13T17:35:26Z</time>
      </trkpt>
      <trkpt lat="47.39115" lon="-1.08095">
        <ele>15</ele>
        <time>2010-08-13T17:35:31Z</time>
      </trkpt>
      <trkpt lat="47.39136" lon="-1.08055">
        <ele>16</ele>
        <time>2010-08-13T17:35:36Z</time>
      </trkpt>
      <trkpt lat="47.3916" lon="-1.08016">
        <ele>16</ele>
        <time>2010-08-13T17:35:41Z</time>
      </trkpt>
      <trkpt lat="47.3918" lon="-1.07985">
        <ele>15</ele>
        <time>2010-08-13T17:35:46Z</time>
      </trkpt>
      <trkpt lat="47.39206" lon="-1.07946">
        <ele>15</ele>
        <time>2010-08-13T17:35:51Z</time>
      </trkpt>
      <trkpt lat="47.39231" lon="-1.07907">
        <ele>14</ele>
        <time>2010-08-13T17:35:56Z</time>
      </trkpt>
      <trkpt lat="47.39262" lon="-1.0786">
        <ele>15</ele>
        <time>2010-08-13T17:36:01Z</time>
      </trkpt>
      <trkpt lat="47.39283" lon="-1.07827">
        <ele>15</ele>
        <time>2010-08-13T17:36:06Z</time>
      </trkpt>
      <trkpt lat="47.39309" lon="-1.07786">
        <ele>15</ele>
        <time>2010-08-13T17:36:11Z</time>
      </trkpt>
      <trkpt lat="47.39335" lon="-1.07746">
        <ele>14</ele>
        <time>2010-08-13T17:36:16Z</time>
      </trkpt>
      <trkpt lat="47.39366" lon="-1.07699">
        <ele>15</ele>
        <time>2010-08-13T17:36:21Z</time>
      </trkpt>
      <trkpt lat="47.39391" lon="-1.0766">
        <ele>14</ele>
        <time>2010-08-13T17:36:26Z</time>
      </trkpt>
      <trkpt lat="47.3941" lon="-1.07629">
        <ele>14</ele>
        <time>2010-08-13T17:36:31Z</time>
      </trkpt>
      <trkpt lat="47.39431" lon="-1.07587">
        <ele>15</ele>
        <time>2010-08-13T17:36:36Z</time>
      </trkpt>
      <trkpt lat="47.3945" lon="-1.07543">
        <ele>15</ele>
        <time>2010-08-13T17:36:41Z</time>
      </trkpt>
      <trkpt lat="47.39471" lon="-1.07486">
        <ele>14</ele>
        <time>2010-08-13T17:36:46Z</time>
      </trkpt>
      <trkpt lat="47.39484" lon="-1.07433">
        <ele>14</ele>
        <time>2010-08-13T17:36:51Z</time>
      </trkpt>
      <trkpt lat="47.39495" lon="-1.07388">
        <ele>12</ele>
        <time>2010-08-13T17:36:56Z</time>
      </trkpt>
      <trkpt lat="47.39507" lon="-1.07331">
        <ele>12</ele>
        <time>2010-08-13T17:37:01Z</time>
      </trkpt>
      <trkpt lat="47.39522" lon="-1.0726">
        <ele>13</ele>
        <time>2010-08-13T17:37:06Z</time>
      </trkpt>
      <trkpt lat="47.39535" lon="-1.07201">
        <ele>13</ele>
        <time>2010-08-13T17:37:11Z</time>
      </trkpt>
      <trkpt lat="47.39545" lon="-1.07154">
        <ele>12</ele>
        <time>2010-08-13T17:37:16Z</time>
      </trkpt>
      <trkpt lat="47.39557" lon="-1.07098">
        <ele>12</ele>
        <time>2010-08-13T17:37:21Z</time>
      </trkpt>
      <trkpt lat="47.39569" lon="-1.07043">
        <ele>12</ele>
        <time>2010-08-13T17:37:26Z</time>
      </trkpt>
      <trkpt lat="47.39584" lon="-1.06976">
        <ele>13</ele>
        <time>2010-08-13T17:37:31Z</time>
      </trkpt>
      <trkpt lat="47.39595" lon="-1.06922">
        <ele>13</ele>
        <time>2010-08-13T17:37:36Z</time>
      </trkpt>
      <trkpt lat="47.39604" lon="-1.06877">
        <ele>12</ele>
        <time>2010-08-13T17:37:41Z</time>
      </trkpt>
      <trkpt lat="47.39617" lon="-1.06819">
        <ele>11</ele>
        <time>2010-08-13T17:37:46Z</time>
      </trkpt>
      <trkpt lat="47.39633" lon="-1.06748">
        <ele>11</ele>
        <time>2010-08-13T17:37:51Z</time>
      </trkpt>
      <trkpt lat="47.39644" lon="-1.06691">
        <ele>11</ele>
        <time>2010-08-13T17:37:56Z</time>
      </trkpt>
      <trkpt lat="47.39652" lon="-1.06645">
        <ele>11</ele>
        <time>2010-08-13T17:38:01Z</time>
      </trkpt>
      <trkpt lat="47.39657" lon="-1.06587">
        <ele>12</ele>
        <time>2010-08-13T17:38:06Z</time>
      </trkpt>
      <trkpt lat="47.39656" lon="-1.06517">
        <ele>13</ele>
        <time>2010-08-13T17:38:11Z</time>
      </trkpt>
      <trkpt lat="47.39653" lon="-1.06464">
        <ele>15</ele>
        <time>2010-08-13T17:38:16Z</time>
      </trkpt>
      <trkpt lat="47.39649" lon="-1.06418">
        <ele>16</ele>
        <time>2010-08-13T17:38:21Z</time>
      </trkpt>
      <trkpt lat="47.39646" lon="-1.06383">
        <ele>18</ele>
        <time>2010-08-13T17:38:26Z</time>
      </trkpt>
      <trkpt lat="47.39642" lon="-1.0634">
        <ele>19</ele>
        <time>2010-08-13T17:38:31Z</time>
      </trkpt>
      <trkpt lat="47.39638" lon="-1.0629">
        <ele>21</ele>
        <time>2010-08-13T17:38:36Z</time>
      </trkpt>
      <trkpt lat="47.39635" lon="-1.06256">
        <ele>21</ele>
        <time>2010-08-13T17:38:41Z</time>
      </trkpt>
      <trkpt lat="47.39632" lon="-1.06229">
        <ele>24</ele>
        <time>2010-08-13T17:38:46Z</time>
      </trkpt>
      <trkpt lat="47.39629" lon="-1.06197">
        <ele>24</ele>
        <time>2010-08-13T17:38:51Z</time>
      </trkpt>
      <trkpt lat="47.39625" lon="-1.06158">
        <ele>28</ele>
        <time>2010-08-13T17:38:56Z</time>
      </trkpt>
      <trkpt lat="47.39622" lon="-1.06124">
        <ele>28</ele>
        <time>2010-08-13T17:39:01Z</time>
      </trkpt>
      <trkpt lat="47.39619" lon="-1.0609">
        <ele>29</ele>
        <time>2010-08-13T17:39:06Z</time>
      </trkpt>
      <trkpt lat="47.39616" lon="-1.06064">
        <ele>31</ele>
        <time>2010-08-13T17:39:11Z</time>
      </trkpt>
      <trkpt lat="47.39613" lon="-1.06031">
        <ele>31</ele>
        <time>2010-08-13T17:39:16Z</time>
      </trkpt>
      <trkpt lat="47.3961" lon="-1.05998">
        <ele>33</ele>
        <time>2010-08-13T17:39:21Z</time>
      </trkpt>
      <trkpt lat="47.39606" lon="-1.05956">
        <ele>33</ele>
        <time>2010-08-13T17:39:26Z</time>
      </trkpt>
      <trkpt lat="47.39602" lon="-1.05922">
        <ele>33</ele>
        <time>2010-08-13T17:39:31Z</time>
      </trkpt>
      <trkpt lat="47.39597" lon="-1.05894">
        <ele>35</ele>
        <time>2010-08-13T17:39:36Z</time>
      </trkpt>
      <trkpt lat="47.39589" lon="-1.05859">
        <ele>35</ele>
        <time>2010-08-13T17:39:41Z</time>
      </trkpt>
      <trkpt lat="47.39575" lon="-1.05814">
        <ele>34</ele>
        <time>2010-08-13T17:39:46Z</time>
      </trkpt>
      <trkpt lat="47.39562" lon="-1.05775">
        <ele>34</ele>
        <time>2010-08-13T17:39:51Z</time>
      </trkpt>
      <trkpt lat="47.39548" lon="-1.05742">
        <ele>35</ele>
        <time>2010-08-13T17:39:56Z</time>
      </trkpt>
      <trkpt lat="47.39527" lon="-1.05701">
        <ele>34</ele>
        <time>2010-08-13T17:40:01Z</time>
      </trkpt>
      <trkpt lat="47.395" lon="-1.0566">
        <ele>33</ele>
        <time>2010-08-13T17:40:06Z</time>
      </trkpt>
      <trkpt lat="47.39461" lon="-1.0561">
        <ele>32</ele>
        <time>2010-08-13T17:40:11Z</time>
      </trkpt>
      <trkpt lat="47.39424" lon="-1.05566">
        <ele>32</ele>
        <time>2010-08-13T17:40:16Z</time>
      </trkpt>
      <trkpt lat="47.39394" lon="-1.05528">
        <ele>30</ele>
        <time>2010-08-13T17:40:21Z</time>
      </trkpt>
      <trkpt lat="47.39354" lon="-1.05473">
        <ele>29</ele>
        <time>2010-08-13T17:40:26Z</time>
      </trkpt>
      <trkpt lat="47.39316" lon="-1.05417">
        <ele>27</ele>
        <time>2010-08-13T17:40:31Z</time>
      </trkpt>
      <trkpt lat="47.39271" lon="-1.05346">
        <ele>25</ele>
        <time>2010-08-13T17:40:36Z</time>
      </trkpt>
      <trkpt lat="47.39242" lon="-1.05295">
        <ele>23</ele>
        <time>2010-08-13T17:40:41Z</time>
      </trkpt>
      <trkpt lat="47.3921" lon="-1.0523">
        <ele>23</ele>
        <time>2010-08-13T17:40:46Z</time>
      </trkpt>
      <trkpt lat="47.39177" lon="-1.05147">
        <ele>22</ele>
        <time>2010-08-13T17:40:51Z</time>
      </trkpt>
      <trkpt lat="47.39153" lon="-1.05076">
        <ele>21</ele>
        <time>2010-08-13T17:40:56Z</time>
      </trkpt>
      <trkpt lat="47.39129" lon="-1.05004">
        <ele>20</ele>
        <time>2010-08-13T17:41:01Z</time>
      </trkpt>
      <trkpt lat="47.39108" lon="-1.04946">
        <ele>18</ele>
        <time>2010-08-13T17:41:06Z</time>
      </trkpt>
      <trkpt lat="47.39077" lon="-1.04872">
        <ele>15</ele>
        <time>2010-08-13T17:41:11Z</time>
      </trkpt>
      <trkpt lat="47.39036" lon="-1.04791">
        <ele>19</ele>
        <time>2010-08-13T17:41:16Z</time>
      </trkpt>
      <trkpt lat="47.39018" lon="-1.0473">
        <ele>23</ele>
        <time>2010-08-13T17:41:21Z</time>
      </trkpt>
      <trkpt lat="47.3901" lon="-1.04687">
        <ele>24</ele>
        <time>2010-08-13T17:41:26Z</time>
      </trkpt>
      <trkpt lat="47.39001" lon="-1.0464">
        <ele>26</ele>
        <time>2010-08-13T17:41:31Z</time>
      </trkpt>
      <trkpt lat="47.38992" lon="-1.04596">
        <ele>25</ele>
        <time>2010-08-13T17:41:36Z</time>
      </trkpt>
      <trkpt lat="47.3898" lon="-1.04543">
        <ele>26</ele>
        <time>2010-08-13T17:41:41Z</time>
      </trkpt>
      <trkpt lat="47.38967" lon="-1.04501">
        <ele>26</ele>
        <time>2010-08-13T17:41:46Z</time>
      </trkpt>
      <trkpt lat="47.38956" lon="-1.04467">
        <ele>28</ele>
        <time>2010-08-13T17:41:51Z</time>
      </trkpt>
      <trkpt lat="47.38943" lon="-1.04425">
        <ele>27</ele>
        <time>2010-08-13T17:41:56Z</time>
      </trkpt>
      <trkpt lat="47.38929" lon="-1.04383">
        <ele>29</ele>
        <time>2010-08-13T17:42:01Z</time>
      </trkpt>
      <trkpt lat="47.38913" lon="-1.04332">
        <ele>28</ele>
        <time>2010-08-13T17:42:06Z</time>
      </trkpt>
      <trkpt lat="47.38903" lon="-1.04298">
        <ele>28</ele>
        <time>2010-08-13T17:42:11Z</time>
      </trkpt>
      <trkpt lat="47.3889" lon="-1.04256">
        <ele>28</ele>
        <time>2010-08-13T17:42:16Z</time>
      </trkpt>
      <trkpt lat="47.38876" lon="-1.04213">
        <ele>30</ele>
        <time>2010-08-13T17:42:21Z</time>
      </trkpt>
      <trkpt lat="47.3886" lon="-1.04161">
        <ele>32</ele>
        <time>2010-08-13T17:42:26Z</time>
      </trkpt>
      <trkpt lat="47.38848" lon="-1.04117">
        <ele>33</ele>
        <time>2010-08-13T17:42:31Z</time>
      </trkpt>
      <trkpt lat="47.38839" lon="-1.04082">
        <ele>34</ele>
        <time>2010-08-13T17:42:36Z</time>
      </trkpt>
      <trkpt lat="47.38827" lon="-1.04038">
        <ele>33</ele>
        <time>2010-08-13T17:42:41Z</time>
      </trkpt>
      <trkpt lat="47.38814" lon="-1.03994">
        <ele>35</ele>
        <time>2010-08-13T17:42:46Z</time>
      </trkpt>
      <trkpt lat="47.38799" lon="-1.03939">
        <ele>35</ele>
        <time>2010-08-13T17:42:51Z</time>
      </trkpt>
      <trkpt lat="47.38786" lon="-1.03893">
        <ele>36</ele>
        <time>2010-08-13T17:42:56Z</time>
      </trkpt>
      <trkpt lat="47.38775" lon="-1.03855">
        <ele>35</ele>
        <time>2010-08-13T17:43:01Z</time>
      </trkpt>
      <trkpt lat="47.38762" lon="-1.03805">
        <ele>35</ele>
        <time>2010-08-13T17:43:06Z</time>
      </trkpt>
      <trkpt lat="47.38746" lon="-1.03745">
        <ele>34</ele>
        <time>2010-08-13T17:43:11Z</time>
      </trkpt>
      <trkpt lat="47.38732" lon="-1.03695">
        <ele>34</ele>
        <time>2010-08-13T17:43:16Z</time>
      </trkpt>
      <trkpt lat="47.3872" lon="-1.03651">
        <ele>35</ele>
        <time>2010-08-13T17:43:21Z</time>
      </trkpt>
      <trkpt lat="47.38703" lon="-1.03592">
        <ele>35</ele>
        <time>2010-08-13T17:43:26Z</time>
      </trkpt>
      <trkpt lat="47.38687" lon="-1.0353">
        <ele>35</ele>
        <time>2010-08-13T17:43:31Z</time>
      </trkpt>
      <trkpt lat="47.38662" lon="-1.0345">
        <ele>30</ele>
        <time>2010-08-13T17:43:36Z</time>
      </trkpt>
      <trkpt lat="47.38641" lon="-1.03376">
        <ele>29</ele>
        <time>2010-08-13T17:43:41Z</time>
      </trkpt>
      <trkpt lat="47.38623" lon="-1.03319">
        <ele>31</ele>
        <time>2010-08-13T17:43:46Z</time>
      </trkpt>
      <trkpt lat="47.38599" lon="-1.03262">
        <ele>32</ele>
        <time>2010-08-13T17:43:51Z</time>
      </trkpt>
      <trkpt lat="47.38565" lon="-1.03207">
        <ele>33</ele>
        <time>2010-08-13T17:43:56Z</time>
      </trkpt>
      <trkpt lat="47.38538" lon="-1.03163">
        <ele>35</ele>
        <time>2010-08-13T17:44:01Z</time>
      </trkpt>
      <trkpt lat="47.38514" lon="-1.03127">
        <ele>35</ele>
        <time>2010-08-13T17:44:06Z</time>
      </trkpt>
      <trkpt lat="47.38491" lon="-1.03077">
        <ele>36</ele>
        <time>2010-08-13T17:44:11Z</time>
      </trkpt>
      <trkpt lat="47.38487" lon="-1.03037">
        <ele>35</ele>
        <time>2010-08-13T17:44:16Z</time>
      </trkpt>
      <trkpt lat="47.38486" lon="-1.02994">
        <ele>35</ele>
        <time>2010-08-13T17:44:21Z</time>
      </trkpt>
      <trkpt lat="47.38487" lon="-1.02951">
        <ele>34</ele>
        <time>2010-08-13T17:44:26Z</time>
      </trkpt>
      <trkpt lat="47.38477" lon="-1.0291">
        <ele>32</ele>
        <time>2010-08-13T17:44:31Z</time>
      </trkpt>
      <trkpt lat="47.38439" lon="-1.02868">
        <ele>31</ele>
        <time>2010-08-13T17:44:36Z</time>
      </trkpt>
      <trkpt lat="47.3839" lon="-1.02826">
        <ele>26</ele>
        <time>2010-08-13T17:44:41Z</time>
      </trkpt>
      <trkpt lat="47.38332" lon="-1.02756">
        <ele>21</ele>
        <time>2010-08-13T17:44:46Z</time>
      </trkpt>
      <trkpt lat="47.38295" lon="-1.02702">
        <ele>20</ele>
        <time>2010-08-13T17:44:51Z</time>
      </trkpt>
      <trkpt lat="47.38237" lon="-1.02646">
        <ele>17</ele>
        <time>2010-08-13T17:44:56Z</time>
      </trkpt>
      <trkpt lat="47.38172" lon="-1.02648">
        <ele>16</ele>
        <time>2010-08-13T17:45:01Z</time>
      </trkpt>
      <trkpt lat="47.38103" lon="-1.0265">
        <ele>13</ele>
        <time>2010-08-13T17:45:06Z</time>
      </trkpt>
      <trkpt lat="47.38049" lon="-1.02651">
        <ele>11</ele>
        <time>2010-08-13T17:45:11Z</time>
      </trkpt>
      <trkpt lat="47.3801" lon="-1.02653">
        <ele>10</ele>
        <time>2010-08-13T17:45:16Z</time>
      </trkpt>
      <trkpt lat="47.37964" lon="-1.02655">
        <ele>10</ele>
        <time>2010-08-13T17:45:21Z</time>
      </trkpt>
      <trkpt lat="47.37921" lon="-1.02655">
        <ele>11</ele>
        <time>2010-08-13T17:45:26Z</time>
      </trkpt>
      <trkpt lat="47.37871" lon="-1.0264">
        <ele>11</ele>
        <time>2010-08-13T17:45:31Z</time>
      </trkpt>
      <trkpt lat="47.3784" lon="-1.02618">
        <ele>10</ele>
        <time>2010-08-13T17:45:36Z</time>
      </trkpt>
      <trkpt lat="47.37806" lon="-1.02576">
        <ele>10</ele>
        <time>2010-08-13T17:45:41Z</time>
      </trkpt>
      <trkpt lat="47.37775" lon="-1.02512">
        <ele>10</ele>
        <time>2010-08-13T17:45:46Z</time>
      </trkpt>
      <trkpt lat="47.37758" lon="-1.02451">
        <ele>9</ele>
        <time>2010-08-13T17:45:51Z</time>
      </trkpt>
      <trkpt lat="47.37746" lon="-1.02387">
        <ele>9</ele>
        <time>2010-08-13T17:45:56Z</time>
      </trkpt>
      <trkpt lat="47.37737" lon="-1.02337">
        <ele>8</ele>
        <time>2010-08-13T17:46:01Z</time>
      </trkpt>
      <trkpt lat="47.37725" lon="-1.02274">
        <ele>9</ele>
        <time>2010-08-13T17:46:06Z</time>
      </trkpt>
      <trkpt lat="47.37713" lon="-1.02214">
        <ele>9</ele>
        <time>2010-08-13T17:46:11Z</time>
      </trkpt>
      <trkpt lat="47.37693" lon="-1.02145">
        <ele>9</ele>
        <time>2010-08-13T17:46:16Z</time>
      </trkpt>
      <trkpt lat="47.37673" lon="-1.02093">
        <ele>9</ele>
        <time>2010-08-13T17:46:21Z</time>
      </trkpt>
      <trkpt lat="47.37653" lon="-1.02054">
        <ele>9</ele>
        <time>2010-08-13T17:46:26Z</time>
      </trkpt>
      <trkpt lat="47.37626" lon="-1.0201">
        <ele>9</ele>
        <time>2010-08-13T17:46:31Z</time>
      </trkpt>
      <trkpt lat="47.37591" lon="-1.01967">
        <ele>11</ele>
        <time>2010-08-13T17:46:36Z</time>
      </trkpt>
      <trkpt lat="47.37562" lon="-1.01938">
        <ele>12</ele>
        <time>2010-08-13T17:46:41Z</time>
      </trkpt>
      <trkpt lat="47.37539" lon="-1.01918">
        <ele>12</ele>
        <time>2010-08-13T17:46:46Z</time>
      </trkpt>
      <trkpt lat="47.37508" lon="-1.01898">
        <ele>12</ele>
        <time>2010-08-13T17:46:51Z</time>
      </trkpt>
      <trkpt lat="47.37475" lon="-1.01878">
        <ele>12</ele>
        <time>2010-08-13T17:46:56Z</time>
      </trkpt>
      <trkpt lat="47.37434" lon="-1.01855">
        <ele>11</ele>
        <time>2010-08-13T17:47:01Z</time>
      </trkpt>
      <trkpt lat="47.37399" lon="-1.01833">
        <ele>11</ele>
        <time>2010-08-13T17:47:06Z</time>
      </trkpt>
      <trkpt lat="47.37367" lon="-1.01814">
        <ele>10</ele>
        <time>2010-08-13T17:47:11Z</time>
      </trkpt>
      <trkpt lat="47.37324" lon="-1.01789">
        <ele>11</ele>
        <time>2010-08-13T17:47:16Z</time>
      </trkpt>
      <trkpt lat="47.3728" lon="-1.01763">
        <ele>11</ele>
        <time>2010-08-13T17:47:21Z</time>
      </trkpt>
      <trkpt lat="47.37229" lon="-1.01732">
        <ele>12</ele>
        <time>2010-08-13T17:47:26Z</time>
      </trkpt>
      <trkpt lat="47.37196" lon="-1.01712">
        <ele>12</ele>
        <time>2010-08-13T17:47:31Z</time>
      </trkpt>
      <trkpt lat="47.37155" lon="-1.01686">
        <ele>12</ele>
        <time>2010-08-13T17:47:36Z</time>
      </trkpt>
      <trkpt lat="47.37109" lon="-1.01657">
        <ele>9</ele>
        <time>2010-08-13T17:47:41Z</time>
      </trkpt>
      <trkpt lat="47.37074" lon="-1.01636">
        <ele>8</ele>
        <time>2010-08-13T17:47:46Z</time>
      </trkpt>
      <trkpt lat="47.37038" lon="-1.01615">
        <ele>8</ele>
        <time>2010-08-13T17:47:51Z</time>
      </trkpt>
      <trkpt lat="47.37009" lon="-1.01596">
        <ele>8</ele>
        <time>2010-08-13T17:47:56Z</time>
      </trkpt>
      <trkpt lat="47.36971" lon="-1.01574">
        <ele>8</ele>
        <time>2010-08-13T17:48:01Z</time>
      </trkpt>
      <trkpt lat="47.36932" lon="-1.0155">
        <ele>8</ele>
        <time>2010-08-13T17:48:06Z</time>
      </trkpt>
      <trkpt lat="47.36884" lon="-1.0152">
        <ele>10</ele>
        <time>2010-08-13T17:48:11Z</time>
      </trkpt>
      <trkpt lat="47.36849" lon="-1.01499">
        <ele>13</ele>
        <time>2010-08-13T17:48:16Z</time>
      </trkpt>
      <trkpt lat="47.36803" lon="-1.01472">
        <ele>14</ele>
        <time>2010-08-13T17:48:21Z</time>
      </trkpt>
      <trkpt lat="47.36758" lon="-1.01451">
        <ele>13</ele>
        <time>2010-08-13T17:48:26Z</time>
      </trkpt>
      <trkpt lat="47.36705" lon="-1.01438">
        <ele>11</ele>
        <time>2010-08-13T17:48:31Z</time>
      </trkpt>
      <trkpt lat="47.36662" lon="-1.01437">
        <ele>9</ele>
        <time>2010-08-13T17:48:36Z</time>
      </trkpt>
      <trkpt lat="47.36628" lon="-1.01436">
        <ele>9</ele>
        <time>2010-08-13T17:48:41Z</time>
      </trkpt>
      <trkpt lat="47.3659" lon="-1.01438">
        <ele>8</ele>
        <time>2010-08-13T17:48:46Z</time>
      </trkpt>
      <trkpt lat="47.36549" lon="-1.01441">
        <ele>6</ele>
        <time>2010-08-13T17:48:51Z</time>
      </trkpt>
      <trkpt lat="47.36514" lon="-1.01443">
        <ele>6</ele>
        <time>2010-08-13T17:48:56Z</time>
      </trkpt>
      <trkpt lat="47.36477" lon="-1.01444">
        <ele>7</ele>
        <time>2010-08-13T17:49:01Z</time>
      </trkpt>
      <trkpt lat="47.36446" lon="-1.01447">
        <ele>8</ele>
        <time>2010-08-13T17:49:06Z</time>
      </trkpt>
      <trkpt lat="47.36402" lon="-1.01451">
        <ele>14</ele>
        <time>2010-08-13T17:49:11Z</time>
      </trkpt>
      <trkpt lat="47.36348" lon="-1.01476">
        <ele>16</ele>
        <time>2010-08-13T17:49:16Z</time>
      </trkpt>
      <trkpt lat="47.36312" lon="-1.01493">
        <ele>20</ele>
        <time>2010-08-13T17:49:21Z</time>
      </trkpt>
      <trkpt lat="47.36288" lon="-1.01506">
        <ele>21</ele>
        <time>2010-08-13T17:49:26Z</time>
      </trkpt>
      <trkpt lat="47.36261" lon="-1.01521">
        <ele>22</ele>
        <time>2010-08-13T17:49:31Z</time>
      </trkpt>
      <trkpt lat="47.36235" lon="-1.01534">
        <ele>23</ele>
        <time>2010-08-13T17:49:36Z</time>
      </trkpt>
      <trkpt lat="47.36205" lon="-1.01552">
        <ele>24</ele>
        <time>2010-08-13T17:49:41Z</time>
      </trkpt>
      <trkpt lat="47.36178" lon="-1.01563">
        <ele>24</ele>
        <time>2010-08-13T17:49:46Z</time>
      </trkpt>
      <trkpt lat="47.36157" lon="-1.01571">
        <ele>25</ele>
        <time>2010-08-13T17:49:51Z</time>
      </trkpt>
      <trkpt lat="47.3615" lon="-1.01554">
        <ele>24</ele>
        <time>2010-08-13T17:49:56Z</time>
      </trkpt>
      <trkpt lat="47.36147" lon="-1.01501">
        <ele>24</ele>
        <time>2010-08-13T17:50:01Z</time>
      </trkpt>
      <trkpt lat="47.36142" lon="-1.01455">
        <ele>24</ele>
        <time>2010-08-13T17:50:06Z</time>
      </trkpt>
      <trkpt lat="47.36138" lon="-1.01417">
        <ele>24</ele>
        <time>2010-08-13T17:50:11Z</time>
      </trkpt>
      <trkpt lat="47.36133" lon="-1.01361">
        <ele>23</ele>
        <time>2010-08-13T17:50:16Z</time>
      </trkpt>
      <trkpt lat="47.36125" lon="-1.01298">
        <ele>22</ele>
        <time>2010-08-13T17:50:21Z</time>
      </trkpt>
      <trkpt lat="47.36118" lon="-1.01246">
        <ele>22</ele>
        <time>2010-08-13T17:50:26Z</time>
      </trkpt>
      <trkpt lat="47.36107" lon="-1.01194">
        <ele>23</ele>
        <time>2010-08-13T17:50:31Z</time>
      </trkpt>
      <trkpt lat="47.36099" lon="-1.01152">
        <ele>24</ele>
        <time>2010-08-13T17:50:36Z</time>
      </trkpt>
      <trkpt lat="47.36089" lon="-1.01098">
        <ele>24</ele>
        <time>2010-08-13T17:50:41Z</time>
      </trkpt>
      <trkpt lat="47.36075" lon="-1.01032">
        <ele>23</ele>
        <time>2010-08-13T17:50:46Z</time>
      </trkpt>
      <trkpt lat="47.36063" lon="-1.00976">
        <ele>22</ele>
        <time>2010-08-13T17:50:51Z</time>
      </trkpt>
      <trkpt lat="47.36055" lon="-1.00929">
        <ele>21</ele>
        <time>2010-08-13T17:50:56Z</time>
      </trkpt>
      <trkpt lat="47.36052" lon="-1.00869">
        <ele>21</ele>
        <time>2010-08-13T17:51:01Z</time>
      </trkpt>
      <trkpt lat="47.36061" lon="-1.00794">
        <ele>21</ele>
        <time>2010-08-13T17:51:06Z</time>
      </trkpt>
      <trkpt lat="47.36064" lon="-1.00726">
        <ele>21</ele>
        <time>2010-08-13T17:51:11Z</time>
      </trkpt>
      <trkpt lat="47.36058" lon="-1.00654">
        <ele>20</ele>
        <time>2010-08-13T17:51:16Z</time>
      </trkpt>
      <trkpt lat="47.36045" lon="-1.00595">
        <ele>19</ele>
        <time>2010-08-13T17:51:21Z</time>
      </trkpt>
      <trkpt lat="47.36023" lon="-1.00524">
        <ele>16</ele>
        <time>2010-08-13T17:51:26Z</time>
      </trkpt>
      <trkpt lat="47.35997" lon="-1.00437">
        <ele>13</ele>
        <time>2010-08-13T17:51:31Z</time>
      </trkpt>
      <trkpt lat="47.35998" lon="-1.00364">
        <ele>13</ele>
        <time>2010-08-13T17:51:36Z</time>
      </trkpt>
      <trkpt lat="47.36005" lon="-1.0031">
        <ele>12</ele>
        <time>2010-08-13T17:51:41Z</time>
      </trkpt>
      <trkpt lat="47.36012" lon="-1.0025">
        <ele>14</ele>
        <time>2010-08-13T17:51:46Z</time>
      </trkpt>
      <trkpt lat="47.3602" lon="-1.00181">
        <ele>17</ele>
        <time>2010-08-13T17:51:51Z</time>
      </trkpt>
      <trkpt lat="47.36032" lon="-1.00125">
        <ele>18</ele>
        <time>2010-08-13T17:51:56Z</time>
      </trkpt>
      <trkpt lat="47.36048" lon="-1.00072">
        <ele>19</ele>
        <time>2010-08-13T17:52:01Z</time>
      </trkpt>
      <trkpt lat="47.36065" lon="-1.00036">
        <ele>18</ele>
        <time>2010-08-13T17:52:06Z</time>
      </trkpt>
      <trkpt lat="47.3609" lon="-0.99996">
        <ele>17</ele>
        <time>2010-08-13T17:52:11Z</time>
      </trkpt>
      <trkpt lat="47.36108" lon="-0.99948">
        <ele>17</ele>
        <time>2010-08-13T17:52:16Z</time>
      </trkpt>
      <trkpt lat="47.36122" lon="-0.99884">
        <ele>17</ele>
        <time>2010-08-13T17:52:21Z</time>
      </trkpt>
      <trkpt lat="47.36134" lon="-0.99829">
        <ele>16</ele>
        <time>2010-08-13T17:52:26Z</time>
      </trkpt>
      <trkpt lat="47.3614" lon="-0.99783">
        <ele>16</ele>
        <time>2010-08-13T17:52:31Z</time>
      </trkpt>
      <trkpt lat="47.36141" lon="-0.99725">
        <ele>15</ele>
        <time>2010-08-13T17:52:36Z</time>
      </trkpt>
      <trkpt lat="47.36136" lon="-0.99667">
        <ele>15</ele>
        <time>2010-08-13T17:52:41Z</time>
      </trkpt>
      <trkpt lat="47.36128" lon="-0.99596">
        <ele>13</ele>
        <time>2010-08-13T17:52:46Z</time>
      </trkpt>
      <trkpt lat="47.36123" lon="-0.99546">
        <ele>13</ele>
        <time>2010-08-13T17:52:51Z</time>
      </trkpt>
      <trkpt lat="47.36118" lon="-0.99483">
        <ele>13</ele>
        <time>2010-08-13T17:52:56Z</time>
      </trkpt>
      <trkpt lat="47.36116" lon="-0.99422">
        <ele>14</ele>
        <time>2010-08-13T17:53:01Z</time>
      </trkpt>
      <trkpt lat="47.36119" lon="-0.99347">
        <ele>13</ele>
        <time>2010-08-13T17:53:06Z</time>
      </trkpt>
      <trkpt lat="47.36127" lon="-0.99285">
        <ele>13</ele>
        <time>2010-08-13T17:53:11Z</time>
      </trkpt>
      <trkpt lat="47.36137" lon="-0.99235">
        <ele>13</ele>
        <time>2010-08-13T17:53:16Z</time>
      </trkpt>
      <trkpt lat="47.3615" lon="-0.99178">
        <ele>13</ele>
        <time>2010-08-13T17:53:21Z</time>
      </trkpt>
      <trkpt lat="47.3616" lon="-0.99121">
        <ele>14</ele>
        <time>2010-08-13T17:53:26Z</time>
      </trkpt>
      <trkpt lat="47.36166" lon="-0.99053">
        <ele>15</ele>
        <time>2010-08-13T17:53:31Z</time>
      </trkpt>
      <trkpt lat="47.36164" lon="-0.99007">
        <ele>15</ele>
        <time>2010-08-13T17:53:36Z</time>
      </trkpt>
      <trkpt lat="47.36162" lon="-0.98951">
        <ele>17</ele>
        <time>2010-08-13T17:53:41Z</time>
      </trkpt>
      <trkpt lat="47.36159" lon="-0.98885">
        <ele>17</ele>
        <time>2010-08-13T17:53:46Z</time>
      </trkpt>
      <trkpt lat="47.36161" lon="-0.98831">
        <ele>16</ele>
        <time>2010-08-13T17:53:51Z</time>
      </trkpt>
      <trkpt lat="47.36166" lon="-0.98776">
        <ele>18</ele>
        <time>2010-08-13T17:53:56Z</time>
      </trkpt>
      <trkpt lat="47.3617" lon="-0.9873">
        <ele>13</ele>
        <time>2010-08-13T17:54:01Z</time>
      </trkpt>
      <trkpt lat="47.36168" lon="-0.98673">
        <ele>13</ele>
        <time>2010-08-13T17:54:06Z</time>
      </trkpt>
      <trkpt lat="47.36154" lon="-0.98606">
        <ele>15</ele>
        <time>2010-08-13T17:54:11Z</time>
      </trkpt>
      <trkpt lat="47.36139" lon="-0.9855">
        <ele>15</ele>
        <time>2010-08-13T17:54:16Z</time>
      </trkpt>
      <trkpt lat="47.36128" lon="-0.98505">
        <ele>15</ele>
        <time>2010-08-13T17:54:21Z</time>
      </trkpt>
      <trkpt lat="47.36121" lon="-0.98445">
        <ele>14</ele>
        <time>2010-08-13T17:54:26Z</time>
      </trkpt>
      <trkpt lat="47.36138" lon="-0.98375">
        <ele>13</ele>
        <time>2010-08-13T17:54:31Z</time>
      </trkpt>
      <trkpt lat="47.36158" lon="-0.98322">
        <ele>14</ele>
        <time>2010-08-13T17:54:36Z</time>
      </trkpt>
      <trkpt lat="47.36174" lon="-0.98267">
        <ele>14</ele>
        <time>2010-08-13T17:54:41Z</time>
      </trkpt>
      <trkpt lat="47.36181" lon="-0.9822">
        <ele>15</ele>
        <time>2010-08-13T17:54:46Z</time>
      </trkpt>
      <trkpt lat="47.36183" lon="-0.9816">
        <ele>16</ele>
        <time>2010-08-13T17:54:51Z</time>
      </trkpt>
      <trkpt lat="47.36185" lon="-0.98091">
        <ele>16</ele>
        <time>2010-08-13T17:54:56Z</time>
      </trkpt>
      <trkpt lat="47.36187" lon="-0.98035">
        <ele>14</ele>
        <time>2010-08-13T17:55:01Z</time>
      </trkpt>
      <trkpt lat="47.36188" lon="-0.9799">
        <ele>14</ele>
        <time>2010-08-13T17:55:06Z</time>
      </trkpt>
      <trkpt lat="47.3619" lon="-0.97932">
        <ele>14</ele>
        <time>2010-08-13T17:55:11Z</time>
      </trkpt>
      <trkpt lat="47.36192" lon="-0.97874">
        <ele>14</ele>
        <time>2010-08-13T17:55:16Z</time>
      </trkpt>
      <trkpt lat="47.36194" lon="-0.97806">
        <ele>15</ele>
        <time>2010-08-13T17:55:21Z</time>
      </trkpt>
      <trkpt lat="47.36195" lon="-0.9775">
        <ele>15</ele>
        <time>2010-08-13T17:55:26Z</time>
      </trkpt>
      <trkpt lat="47.36197" lon="-0.97707">
        <ele>16</ele>
        <time>2010-08-13T17:55:31Z</time>
      </trkpt>
      <trkpt lat="47.36202" lon="-0.97655">
        <ele>17</ele>
        <time>2010-08-13T17:55:36Z</time>
      </trkpt>
      <trkpt lat="47.36213" lon="-0.97603">
        <ele>16</ele>
        <time>2010-08-13T17:55:41Z</time>
      </trkpt>
      <trkpt lat="47.36231" lon="-0.97538">
        <ele>16</ele>
        <time>2010-08-13T17:55:46Z</time>
      </trkpt>
      <trkpt lat="47.36246" lon="-0.97482">
        <ele>15</ele>
        <time>2010-08-13T17:55:51Z</time>
      </trkpt>
      <trkpt lat="47.36257" lon="-0.97439">
        <ele>12</ele>
        <time>2010-08-13T17:55:56Z</time>
      </trkpt>
      <trkpt lat="47.36272" lon="-0.97386">
        <ele>13</ele>
        <time>2010-08-13T17:56:01Z</time>
      </trkpt>
      <trkpt lat="47.36289" lon="-0.97322">
        <ele>14</ele>
        <time>2010-08-13T17:56:06Z</time>
      </trkpt>
      <trkpt lat="47.36303" lon="-0.97269">
        <ele>14</ele>
        <time>2010-08-13T17:56:11Z</time>
      </trkpt>
      <trkpt lat="47.36314" lon="-0.97225">
        <ele>14</ele>
        <time>2010-08-13T17:56:16Z</time>
      </trkpt>
      <trkpt lat="47.36329" lon="-0.97169">
        <ele>13</ele>
        <time>2010-08-13T17:56:21Z</time>
      </trkpt>
      <trkpt lat="47.36344" lon="-0.97113">
        <ele>13</ele>
        <time>2010-08-13T17:56:26Z</time>
      </trkpt>
      <trkpt lat="47.36362" lon="-0.97045">
        <ele>14</ele>
        <time>2010-08-13T17:56:31Z</time>
      </trkpt>
      <trkpt lat="47.36377" lon="-0.9699">
        <ele>15</ele>
        <time>2010-08-13T17:56:36Z</time>
      </trkpt>
      <trkpt lat="47.36389" lon="-0.96945">
        <ele>15</ele>
        <time>2010-08-13T17:56:41Z</time>
      </trkpt>
      <trkpt lat="47.36403" lon="-0.96891">
        <ele>15</ele>
        <time>2010-08-13T17:56:46Z</time>
      </trkpt>
      <trkpt lat="47.36421" lon="-0.96825">
        <ele>14</ele>
        <time>2010-08-13T17:56:51Z</time>
      </trkpt>
      <trkpt lat="47.36435" lon="-0.96771">
        <ele>14</ele>
        <time>2010-08-13T17:56:56Z</time>
      </trkpt>
      <trkpt lat="47.36447" lon="-0.96728">
        <ele>14</ele>
        <time>2010-08-13T17:57:01Z</time>
      </trkpt>
      <trkpt lat="47.36461" lon="-0.96674">
        <ele>13</ele>
        <time>2010-08-13T17:57:06Z</time>
      </trkpt>
      <trkpt lat="47.36475" lon="-0.96621">
        <ele>14</ele>
        <time>2010-08-13T17:57:11Z</time>
      </trkpt>
      <trkpt lat="47.36493" lon="-0.96557">
        <ele>14</ele>
        <time>2010-08-13T17:57:16Z</time>
      </trkpt>
      <trkpt lat="47.36507" lon="-0.96504">
        <ele>13</ele>
        <time>2010-08-13T17:57:21Z</time>
      </trkpt>
      <trkpt lat="47.36518" lon="-0.96461">
        <ele>14</ele>
        <time>2010-08-13T17:57:26Z</time>
      </trkpt>
      <trkpt lat="47.36532" lon="-0.96407">
        <ele>15</ele>
        <time>2010-08-13T17:57:31Z</time>
      </trkpt>
      <trkpt lat="47.36547" lon="-0.96354">
        <ele>15</ele>
        <time>2010-08-13T17:57:36Z</time>
      </trkpt>
      <trkpt lat="47.36561" lon="-0.96291">
        <ele>16</ele>
        <time>2010-08-13T17:57:41Z</time>
      </trkpt>
      <trkpt lat="47.3657" lon="-0.96249">
        <ele>15</ele>
        <time>2010-08-13T17:57:46Z</time>
      </trkpt>
      <trkpt lat="47.36581" lon="-0.96194">
        <ele>14</ele>
        <time>2010-08-13T17:57:51Z</time>
      </trkpt>
      <trkpt lat="47.36593" lon="-0.96138">
        <ele>12</ele>
        <time>2010-08-13T17:57:56Z</time>
      </trkpt>
      <trkpt lat="47.36607" lon="-0.9607">
        <ele>11</ele>
        <time>2010-08-13T17:58:01Z</time>
      </trkpt>
      <trkpt lat="47.36619" lon="-0.96014">
        <ele>11</ele>
        <time>2010-08-13T17:58:06Z</time>
      </trkpt>
      <trkpt lat="47.36628" lon="-0.9597">
        <ele>13</ele>
        <time>2010-08-13T17:58:11Z</time>
      </trkpt>
      <trkpt lat="47.36638" lon="-0.95915">
        <ele>14</ele>
        <time>2010-08-13T17:58:16Z</time>
      </trkpt>
      <trkpt lat="47.36645" lon="-0.95862">
        <ele>15</ele>
        <time>2010-08-13T17:58:21Z</time>
      </trkpt>
      <trkpt lat="47.36647" lon="-0.95803">
        <ele>16</ele>
        <time>2010-08-13T17:58:26Z</time>
      </trkpt>
      <trkpt lat="47.36647" lon="-0.95753">
        <ele>16</ele>
        <time>2010-08-13T17:58:31Z</time>
      </trkpt>
      <trkpt lat="47.36647" lon="-0.95713">
        <ele>16</ele>
        <time>2010-08-13T17:58:36Z</time>
      </trkpt>
      <trkpt lat="47.36647" lon="-0.95665">
        <ele>17</ele>
        <time>2010-08-13T17:58:41Z</time>
      </trkpt>
      <trkpt lat="47.36648" lon="-0.95605">
        <ele>17</ele>
        <time>2010-08-13T17:58:46Z</time>
      </trkpt>
      <trkpt lat="47.36651" lon="-0.95555">
        <ele>18</ele>
        <time>2010-08-13T17:58:51Z</time>
      </trkpt>
      <trkpt lat="47.36657" lon="-0.95515">
        <ele>18</ele>
        <time>2010-08-13T17:58:56Z</time>
      </trkpt>
      <trkpt lat="47.36668" lon="-0.95466">
        <ele>16</ele>
        <time>2010-08-13T17:59:01Z</time>
      </trkpt>
      <trkpt lat="47.3668" lon="-0.95416">
        <ele>17</ele>
        <time>2010-08-13T17:59:06Z</time>
      </trkpt>
      <trkpt lat="47.36688" lon="-0.95354">
        <ele>17</ele>
        <time>2010-08-13T17:59:11Z</time>
      </trkpt>
      <trkpt lat="47.36688" lon="-0.95302">
        <ele>18</ele>
        <time>2010-08-13T17:59:16Z</time>
      </trkpt>
      <trkpt lat="47.36686" lon="-0.95259">
        <ele>18</ele>
        <time>2010-08-13T17:59:21Z</time>
      </trkpt>
      <trkpt lat="47.36683" lon="-0.95202">
        <ele>17</ele>
        <time>2010-08-13T17:59:26Z</time>
      </trkpt>
      <trkpt lat="47.3668" lon="-0.95133">
        <ele>17</ele>
        <time>2010-08-13T17:59:31Z</time>
      </trkpt>
      <trkpt lat="47.36677" lon="-0.95071">
        <ele>17</ele>
        <time>2010-08-13T17:59:36Z</time>
      </trkpt>
      <trkpt lat="47.36675" lon="-0.95017">
        <ele>16</ele>
        <time>2010-08-13T17:59:41Z</time>
      </trkpt>
      <trkpt lat="47.36672" lon="-0.94948">
        <ele>16</ele>
        <time>2010-08-13T17:59:46Z</time>
      </trkpt>
      <trkpt lat="47.36669" lon="-0.94879">
        <ele>16</ele>
        <time>2010-08-13T17:59:51Z</time>
      </trkpt>
      <trkpt lat="47.36667" lon="-0.948">
        <ele>15</ele>
        <time>2010-08-13T17:59:56Z</time>
      </trkpt>
      <trkpt lat="47.36665" lon="-0.94743">
        <ele>15</ele>
        <time>2010-08-13T18:00:01Z</time>
      </trkpt>
      <trkpt lat="47.36662" lon="-0.947">
        <ele>17</ele>
        <time>2010-08-13T18:00:06Z</time>
      </trkpt>
      <trkpt lat="47.36659" lon="-0.9465">
        <ele>18</ele>
        <time>2010-08-13T18:00:11Z</time>
      </trkpt>
      <trkpt lat="47.36657" lon="-0.94593">
        <ele>19</ele>
        <time>2010-08-13T18:00:16Z</time>
      </trkpt>
      <trkpt lat="47.36655" lon="-0.94549">
        <ele>22</ele>
        <time>2010-08-13T18:00:21Z</time>
      </trkpt>
      <trkpt lat="47.36653" lon="-0.94515">
        <ele>22</ele>
        <time>2010-08-13T18:00:26Z</time>
      </trkpt>
      <trkpt lat="47.36651" lon="-0.94475">
        <ele>24</ele>
        <time>2010-08-13T18:00:31Z</time>
      </trkpt>
      <trkpt lat="47.3665" lon="-0.94434">
        <ele>24</ele>
        <time>2010-08-13T18:00:36Z</time>
      </trkpt>
      <trkpt lat="47.36654" lon="-0.94384">
        <ele>25</ele>
        <time>2010-08-13T18:00:41Z</time>
      </trkpt>
      <trkpt lat="47.36647" lon="-0.94343">
        <ele>25</ele>
        <time>2010-08-13T18:00:46Z</time>
      </trkpt>
      <trkpt lat="47.36644" lon="-0.94311">
        <ele>26</ele>
        <time>2010-08-13T18:00:51Z</time>
      </trkpt>
      <trkpt lat="47.36642" lon="-0.94271">
        <ele>27</ele>
        <time>2010-08-13T18:00:56Z</time>
      </trkpt>
      <trkpt lat="47.36641" lon="-0.94223">
        <ele>28</ele>
        <time>2010-08-13T18:01:01Z</time>
      </trkpt>
      <trkpt lat="47.3664" lon="-0.94184">
        <ele>29</ele>
        <time>2010-08-13T18:01:06Z</time>
      </trkpt>
      <trkpt lat="47.3664" lon="-0.94152">
        <ele>30</ele>
        <time>2010-08-13T18:01:11Z</time>
      </trkpt>
      <trkpt lat="47.36642" lon="-0.94109">
        <ele>31</ele>
        <time>2010-08-13T18:01:16Z</time>
      </trkpt>
      <trkpt lat="47.36643" lon="-0.94066">
        <ele>31</ele>
        <time>2010-08-13T18:01:21Z</time>
      </trkpt>
      <trkpt lat="47.36643" lon="-0.94012">
        <ele>31</ele>
        <time>2010-08-13T18:01:26Z</time>
      </trkpt>
      <trkpt lat="47.36643" lon="-0.93965">
        <ele>31</ele>
        <time>2010-08-13T18:01:31Z</time>
      </trkpt>
      <trkpt lat="47.36643" lon="-0.93926">
        <ele>31</ele>
        <time>2010-08-13T18:01:36Z</time>
      </trkpt>
      <trkpt lat="47.36644" lon="-0.93878">
        <ele>32</ele>
        <time>2010-08-13T18:01:41Z</time>
      </trkpt>
      <trkpt lat="47.36644" lon="-0.93822">
        <ele>33</ele>
        <time>2010-08-13T18:01:46Z</time>
      </trkpt>
      <trkpt lat="47.36644" lon="-0.93777">
        <ele>34</ele>
        <time>2010-08-13T18:01:51Z</time>
      </trkpt>
      <trkpt lat="47.36643" lon="-0.93732">
        <ele>35</ele>
        <time>2010-08-13T18:01:56Z</time>
      </trkpt>
      <trkpt lat="47.36644" lon="-0.93696">
        <ele>35</ele>
        <time>2010-08-13T18:02:01Z</time>
      </trkpt>
      <trkpt lat="47.36645" lon="-0.93649">
        <ele>35</ele>
        <time>2010-08-13T18:02:06Z</time>
      </trkpt>
      <trkpt lat="47.36645" lon="-0.93589">
        <ele>35</ele>
        <time>2010-08-13T18:02:11Z</time>
      </trkpt>
      <trkpt lat="47.36647" lon="-0.93539">
        <ele>36</ele>
        <time>2010-08-13T18:02:16Z</time>
      </trkpt>
      <trkpt lat="47.36646" lon="-0.935">
        <ele>36</ele>
        <time>2010-08-13T18:02:21Z</time>
      </trkpt>
      <trkpt lat="47.36645" lon="-0.93453">
        <ele>38</ele>
        <time>2010-08-13T18:02:26Z</time>
      </trkpt>
      <trkpt lat="47.36654" lon="-0.93407">
        <ele>37</ele>
        <time>2010-08-13T18:02:31Z</time>
      </trkpt>
      <trkpt lat="47.3667" lon="-0.93351">
        <ele>35</ele>
        <time>2010-08-13T18:02:36Z</time>
      </trkpt>
      <trkpt lat="47.36695" lon="-0.93306">
        <ele>35</ele>
        <time>2010-08-13T18:02:41Z</time>
      </trkpt>
      <trkpt lat="47.36718" lon="-0.93269">
        <ele>35</ele>
        <time>2010-08-13T18:02:46Z</time>
      </trkpt>
      <trkpt lat="47.36749" lon="-0.93221">
        <ele>36</ele>
        <time>2010-08-13T18:02:51Z</time>
      </trkpt>
      <trkpt lat="47.36786" lon="-0.9316">
        <ele>34</ele>
        <time>2010-08-13T18:02:56Z</time>
      </trkpt>
      <trkpt lat="47.36819" lon="-0.9311">
        <ele>33</ele>
        <time>2010-08-13T18:03:01Z</time>
      </trkpt>
      <trkpt lat="47.36844" lon="-0.9307">
        <ele>30</ele>
        <time>2010-08-13T18:03:06Z</time>
      </trkpt>
      <trkpt lat="47.36876" lon="-0.93019">
        <ele>29</ele>
        <time>2010-08-13T18:03:11Z</time>
      </trkpt>
      <trkpt lat="47.36907" lon="-0.92967">
        <ele>29</ele>
        <time>2010-08-13T18:03:16Z</time>
      </trkpt>
      <trkpt lat="47.36947" lon="-0.92903">
        <ele>25</ele>
        <time>2010-08-13T18:03:21Z</time>
      </trkpt>
      <trkpt lat="47.36984" lon="-0.92845">
        <ele>23</ele>
        <time>2010-08-13T18:03:26Z</time>
      </trkpt>
      <trkpt lat="47.37013" lon="-0.92797">
        <ele>20</ele>
        <time>2010-08-13T18:03:31Z</time>
      </trkpt>
      <trkpt lat="47.3705" lon="-0.92736">
        <ele>18</ele>
        <time>2010-08-13T18:03:36Z</time>
      </trkpt>
      <trkpt lat="47.37089" lon="-0.92664">
        <ele>17</ele>
        <time>2010-08-13T18:03:41Z</time>
      </trkpt>
      <trkpt lat="47.37115" lon="-0.92605">
        <ele>17</ele>
        <time>2010-08-13T18:03:46Z</time>
      </trkpt>
      <trkpt lat="47.37134" lon="-0.92561">
        <ele>17</ele>
        <time>2010-08-13T18:03:51Z</time>
      </trkpt>
      <trkpt lat="47.37155" lon="-0.9251">
        <ele>17</ele>
        <time>2010-08-13T18:03:56Z</time>
      </trkpt>
      <trkpt lat="47.37177" lon="-0.92459">
        <ele>16</ele>
        <time>2010-08-13T18:04:01Z</time>
      </trkpt>
      <trkpt lat="47.37203" lon="-0.92396">
        <ele>15</ele>
        <time>2010-08-13T18:04:06Z</time>
      </trkpt>
      <trkpt lat="47.37224" lon="-0.92343">
        <ele>15</ele>
        <time>2010-08-13T18:04:11Z</time>
      </trkpt>
      <trkpt lat="47.37242" lon="-0.923">
        <ele>15</ele>
        <time>2010-08-13T18:04:16Z</time>
      </trkpt>
      <trkpt lat="47.37262" lon="-0.92244">
        <ele>14</ele>
        <time>2010-08-13T18:04:21Z</time>
      </trkpt>
      <trkpt lat="47.37281" lon="-0.92173">
        <ele>13</ele>
        <time>2010-08-13T18:04:26Z</time>
      </trkpt>
      <trkpt lat="47.3729" lon="-0.92111">
        <ele>13</ele>
        <time>2010-08-13T18:04:31Z</time>
      </trkpt>
      <trkpt lat="47.37293" lon="-0.92062">
        <ele>14</ele>
        <time>2010-08-13T18:04:36Z</time>
      </trkpt>
      <trkpt lat="47.37296" lon="-0.91999">
        <ele>14</ele>
        <time>2010-08-13T18:04:41Z</time>
      </trkpt>
      <trkpt lat="47.373" lon="-0.91927">
        <ele>14</ele>
        <time>2010-08-13T18:04:46Z</time>
      </trkpt>
      <trkpt lat="47.37305" lon="-0.91867">
        <ele>13</ele>
        <time>2010-08-13T18:04:51Z</time>
      </trkpt>
      <trkpt lat="47.37311" lon="-0.91808">
        <ele>14</ele>
        <time>2010-08-13T18:04:56Z</time>
      </trkpt>
      <trkpt lat="47.37316" lon="-0.91762">
        <ele>13</ele>
        <time>2010-08-13T18:05:01Z</time>
      </trkpt>
      <trkpt lat="47.3732" lon="-0.91704">
        <ele>14</ele>
        <time>2010-08-13T18:05:06Z</time>
      </trkpt>
      <trkpt lat="47.37327" lon="-0.91637">
        <ele>15</ele>
        <time>2010-08-13T18:05:11Z</time>
      </trkpt>
      <trkpt lat="47.37338" lon="-0.91584">
        <ele>15</ele>
        <time>2010-08-13T18:05:16Z</time>
      </trkpt>
      <trkpt lat="47.37355" lon="-0.91535">
        <ele>14</ele>
        <time>2010-08-13T18:05:21Z</time>
      </trkpt>
      <trkpt lat="47.37371" lon="-0.91496">
        <ele>13</ele>
        <time>2010-08-13T18:05:26Z</time>
      </trkpt>
      <trkpt lat="47.37394" lon="-0.9145">
        <ele>13</ele>
        <time>2010-08-13T18:05:31Z</time>
      </trkpt>
      <trkpt lat="47.37419" lon="-0.91406">
        <ele>11</ele>
        <time>2010-08-13T18:05:36Z</time>
      </trkpt>
      <trkpt lat="47.3745" lon="-0.91355">
        <ele>12</ele>
        <time>2010-08-13T18:05:41Z</time>
      </trkpt>
      <trkpt lat="47.3747" lon="-0.9132">
        <ele>12</ele>
        <time>2010-08-13T18:05:46Z</time>
      </trkpt>
      <trkpt lat="47.37496" lon="-0.91278">
        <ele>12</ele>
        <time>2010-08-13T18:05:51Z</time>
      </trkpt>
      <trkpt lat="47.37522" lon="-0.91237">
        <ele>13</ele>
        <time>2010-08-13T18:05:56Z</time>
      </trkpt>
      <trkpt lat="47.37555" lon="-0.9119">
        <ele>13</ele>
        <time>2010-08-13T18:06:01Z</time>
      </trkpt>
      <trkpt lat="47.37582" lon="-0.91151">
        <ele>12</ele>
        <time>2010-08-13T18:06:06Z</time>
      </trkpt>
      <trkpt lat="47.37601" lon="-0.91118">
        <ele>12</ele>
        <time>2010-08-13T18:06:11Z</time>
      </trkpt>
      <trkpt lat="47.37619" lon="-0.91068">
        <ele>12</ele>
        <time>2010-08-13T18:06:16Z</time>
      </trkpt>
      <trkpt lat="47.37633" lon="-0.91013">
        <ele>12</ele>
        <time>2010-08-13T18:06:21Z</time>
      </trkpt>
      <trkpt lat="47.37646" lon="-0.90948">
        <ele>13</ele>
        <time>2010-08-13T18:06:26Z</time>
      </trkpt>
      <trkpt lat="47.3765" lon="-0.90905">
        <ele>13</ele>
        <time>2010-08-13T18:06:31Z</time>
      </trkpt>
      <trkpt lat="47.37654" lon="-0.9085">
        <ele>13</ele>
        <time>2010-08-13T18:06:36Z</time>
      </trkpt>
      <trkpt lat="47.37658" lon="-0.90795">
        <ele>13</ele>
        <time>2010-08-13T18:06:41Z</time>
      </trkpt>
      <trkpt lat="47.37665" lon="-0.90729">
        <ele>13</ele>
        <time>2010-08-13T18:06:46Z</time>
      </trkpt>
      <trkpt lat="47.37672" lon="-0.90674">
        <ele>13</ele>
        <time>2010-08-13T18:06:51Z</time>
      </trkpt>
      <trkpt lat="47.37678" lon="-0.90631">
        <ele>13</ele>
        <time>2010-08-13T18:06:56Z</time>
      </trkpt>
      <trkpt lat="47.37687" lon="-0.90578">
        <ele>13</ele>
        <time>2010-08-13T18:07:01Z</time>
      </trkpt>
      <trkpt lat="47.37704" lon="-0.90529">
        <ele>12</ele>
        <time>2010-08-13T18:07:06Z</time>
      </trkpt>
      <trkpt lat="47.37727" lon="-0.90471">
        <ele>12</ele>
        <time>2010-08-13T18:07:11Z</time>
      </trkpt>
      <trkpt lat="47.37743" lon="-0.90433">
        <ele>11</ele>
        <time>2010-08-13T18:07:16Z</time>
      </trkpt>
      <trkpt lat="47.37764" lon="-0.90387">
        <ele>11</ele>
        <time>2010-08-13T18:07:21Z</time>
      </trkpt>
      <trkpt lat="47.37786" lon="-0.90342">
        <ele>11</ele>
        <time>2010-08-13T18:07:26Z</time>
      </trkpt>
      <trkpt lat="47.37813" lon="-0.9029">
        <ele>12</ele>
        <time>2010-08-13T18:07:31Z</time>
      </trkpt>
      <trkpt lat="47.37836" lon="-0.90246">
        <ele>12</ele>
        <time>2010-08-13T18:07:36Z</time>
      </trkpt>
      <trkpt lat="47.37853" lon="-0.90211">
        <ele>11</ele>
        <time>2010-08-13T18:07:41Z</time>
      </trkpt>
      <trkpt lat="47.37867" lon="-0.9016">
        <ele>11</ele>
        <time>2010-08-13T18:07:46Z</time>
      </trkpt>
      <trkpt lat="47.37878" lon="-0.90096">
        <ele>10</ele>
        <time>2010-08-13T18:07:51Z</time>
      </trkpt>
      <trkpt lat="47.37888" lon="-0.90043">
        <ele>10</ele>
        <time>2010-08-13T18:07:56Z</time>
      </trkpt>
      <trkpt lat="47.379" lon="-0.89991">
        <ele>10</ele>
        <time>2010-08-13T18:08:01Z</time>
      </trkpt>
      <trkpt lat="47.37911" lon="-0.89951">
        <ele>10</ele>
        <time>2010-08-13T18:08:06Z</time>
      </trkpt>
      <trkpt lat="47.37925" lon="-0.899">
        <ele>9</ele>
        <time>2010-08-13T18:08:11Z</time>
      </trkpt>
      <trkpt lat="47.37941" lon="-0.89838">
        <ele>10</ele>
        <time>2010-08-13T18:08:16Z</time>
      </trkpt>
      <trkpt lat="47.37954" lon="-0.89786">
        <ele>11</ele>
        <time>2010-08-13T18:08:21Z</time>
      </trkpt>
      <trkpt lat="47.37961" lon="-0.89743">
        <ele>11</ele>
        <time>2010-08-13T18:08:26Z</time>
      </trkpt>
      <trkpt lat="47.3796" lon="-0.89684">
        <ele>11</ele>
        <time>2010-08-13T18:08:31Z</time>
      </trkpt>
      <trkpt lat="47.37957" lon="-0.89626">
        <ele>11</ele>
        <time>2010-08-13T18:08:36Z</time>
      </trkpt>
      <trkpt lat="47.37954" lon="-0.89559">
        <ele>11</ele>
        <time>2010-08-13T18:08:41Z</time>
      </trkpt>
      <trkpt lat="47.37949" lon="-0.89501">
        <ele>11</ele>
        <time>2010-08-13T18:08:46Z</time>
      </trkpt>
      <trkpt lat="47.37944" lon="-0.89454">
        <ele>12</ele>
        <time>2010-08-13T18:08:51Z</time>
      </trkpt>
      <trkpt lat="47.37938" lon="-0.89399">
        <ele>12</ele>
        <time>2010-08-13T18:08:56Z</time>
      </trkpt>
      <trkpt lat="47.37931" lon="-0.89334">
        <ele>12</ele>
        <time>2010-08-13T18:09:01Z</time>
      </trkpt>
      <trkpt lat="47.37929" lon="-0.89279">
        <ele>12</ele>
        <time>2010-08-13T18:09:06Z</time>
      </trkpt>
      <trkpt lat="47.37931" lon="-0.89233">
        <ele>12</ele>
        <time>2010-08-13T18:09:11Z</time>
      </trkpt>
      <trkpt lat="47.37934" lon="-0.89176">
        <ele>12</ele>
        <time>2010-08-13T18:09:16Z</time>
      </trkpt>
      <trkpt lat="47.37935" lon="-0.89118">
        <ele>11</ele>
        <time>2010-08-13T18:09:21Z</time>
      </trkpt>
      <trkpt lat="47.37921" lon="-0.89052">
        <ele>10</ele>
        <time>2010-08-13T18:09:26Z</time>
      </trkpt>
      <trkpt lat="47.37906" lon="-0.89">
        <ele>12</ele>
        <time>2010-08-13T18:09:31Z</time>
      </trkpt>
      <trkpt lat="47.37894" lon="-0.88959">
        <ele>13</ele>
        <time>2010-08-13T18:09:36Z</time>
      </trkpt>
      <trkpt lat="47.37889" lon="-0.88905">
        <ele>13</ele>
        <time>2010-08-13T18:09:41Z</time>
      </trkpt>
      <trkpt lat="47.37905" lon="-0.88842">
        <ele>12</ele>
        <time>2010-08-13T18:09:46Z</time>
      </trkpt>
      <trkpt lat="47.37921" lon="-0.88791">
        <ele>11</ele>
        <time>2010-08-13T18:09:51Z</time>
      </trkpt>
      <trkpt lat="47.37931" lon="-0.88749">
        <ele>12</ele>
        <time>2010-08-13T18:09:56Z</time>
      </trkpt>
      <trkpt lat="47.37939" lon="-0.88694">
        <ele>12</ele>
        <time>2010-08-13T18:10:01Z</time>
      </trkpt>
      <trkpt lat="47.37946" lon="-0.88638">
        <ele>12</ele>
        <time>2010-08-13T18:10:06Z</time>
      </trkpt>
      <trkpt lat="47.37952" lon="-0.8857">
        <ele>12</ele>
        <time>2010-08-13T18:10:11Z</time>
      </trkpt>
      <trkpt lat="47.37963" lon="-0.88515">
        <ele>12</ele>
        <time>2010-08-13T18:10:16Z</time>
      </trkpt>
      <trkpt lat="47.37975" lon="-0.88472">
        <ele>11</ele>
        <time>2010-08-13T18:10:21Z</time>
      </trkpt>
      <trkpt lat="47.3799" lon="-0.88419">
        <ele>10</ele>
        <time>2010-08-13T18:10:26Z</time>
      </trkpt>
      <trkpt lat="47.38006" lon="-0.88355">
        <ele>9</ele>
        <time>2010-08-13T18:10:31Z</time>
      </trkpt>
      <trkpt lat="47.38014" lon="-0.883">
        <ele>10</ele>
        <time>2010-08-13T18:10:36Z</time>
      </trkpt>
      <trkpt lat="47.3802" lon="-0.88255">
        <ele>11</ele>
        <time>2010-08-13T18:10:41Z</time>
      </trkpt>
      <trkpt lat="47.38032" lon="-0.88202">
        <ele>11</ele>
        <time>2010-08-13T18:10:46Z</time>
      </trkpt>
      <trkpt lat="47.38046" lon="-0.88149">
        <ele>12</ele>
        <time>2010-08-13T18:10:51Z</time>
      </trkpt>
      <trkpt lat="47.38063" lon="-0.88088">
        <ele>11</ele>
        <time>2010-08-13T18:10:56Z</time>
      </trkpt>
      <trkpt lat="47.38077" lon="-0.88035">
        <ele>12</ele>
        <time>2010-08-13T18:11:01Z</time>
      </trkpt>
      <trkpt lat="47.38089" lon="-0.87991">
        <ele>12</ele>
        <time>2010-08-13T18:11:06Z</time>
      </trkpt>
      <trkpt lat="47.38103" lon="-0.87938">
        <ele>12</ele>
        <time>2010-08-13T18:11:11Z</time>
      </trkpt>
      <trkpt lat="47.38117" lon="-0.87887">
        <ele>12</ele>
        <time>2010-08-13T18:11:16Z</time>
      </trkpt>
      <trkpt lat="47.38126" lon="-0.87822">
        <ele>13</ele>
        <time>2010-08-13T18:11:21Z</time>
      </trkpt>
      <trkpt lat="47.38129" lon="-0.8777">
        <ele>13</ele>
        <time>2010-08-13T18:11:26Z</time>
      </trkpt>
      <trkpt lat="47.3813" lon="-0.87729">
        <ele>14</ele>
        <time>2010-08-13T18:11:31Z</time>
      </trkpt>
      <trkpt lat="47.38133" lon="-0.8768">
        <ele>14</ele>
        <time>2010-08-13T18:11:36Z</time>
      </trkpt>
      <trkpt lat="47.38135" lon="-0.87621">
        <ele>15</ele>
        <time>2010-08-13T18:11:41Z</time>
      </trkpt>
      <trkpt lat="47.38137" lon="-0.87571">
        <ele>16</ele>
        <time>2010-08-13T18:11:46Z</time>
      </trkpt>
      <trkpt lat="47.3814" lon="-0.87532">
        <ele>16</ele>
        <time>2010-08-13T18:11:51Z</time>
      </trkpt>
      <trkpt lat="47.38147" lon="-0.87484">
        <ele>16</ele>
        <time>2010-08-13T18:11:56Z</time>
      </trkpt>
      <trkpt lat="47.38158" lon="-0.87437">
        <ele>16</ele>
        <time>2010-08-13T18:12:01Z</time>
      </trkpt>
      <trkpt lat="47.38171" lon="-0.8738">
        <ele>18</ele>
        <time>2010-08-13T18:12:06Z</time>
      </trkpt>
      <trkpt lat="47.38182" lon="-0.87332">
        <ele>18</ele>
        <time>2010-08-13T18:12:11Z</time>
      </trkpt>
      <trkpt lat="47.38191" lon="-0.87293">
        <ele>18</ele>
        <time>2010-08-13T18:12:16Z</time>
      </trkpt>
      <trkpt lat="47.38203" lon="-0.87245">
        <ele>17</ele>
        <time>2010-08-13T18:12:21Z</time>
      </trkpt>
      <trkpt lat="47.3822" lon="-0.87188">
        <ele>17</ele>
        <time>2010-08-13T18:12:26Z</time>
      </trkpt>
      <trkpt lat="47.38238" lon="-0.87138">
        <ele>16</ele>
        <time>2010-08-13T18:12:31Z</time>
      </trkpt>
      <trkpt lat="47.38253" lon="-0.87095">
        <ele>15</ele>
        <time>2010-08-13T18:12:36Z</time>
      </trkpt>
      <trkpt lat="47.38272" lon="-0.87041">
        <ele>14</ele>
        <time>2010-08-13T18:12:41Z</time>
      </trkpt>
      <trkpt lat="47.38292" lon="-0.86985">
        <ele>14</ele>
        <time>2010-08-13T18:12:46Z</time>
      </trkpt>
      <trkpt lat="47.38316" lon="-0.8692">
        <ele>14</ele>
        <time>2010-08-13T18:12:51Z</time>
      </trkpt>
      <trkpt lat="47.38339" lon="-0.86873">
        <ele>14</ele>
        <time>2010-08-13T18:12:56Z</time>
      </trkpt>
      <trkpt lat="47.38362" lon="-0.86842">
        <ele>14</ele>
        <time>2010-08-13T18:13:01Z</time>
      </trkpt>
      <trkpt lat="47.38395" lon="-0.86803">
        <ele>13</ele>
        <time>2010-08-13T18:13:06Z</time>
      </trkpt>
      <trkpt lat="47.38433" lon="-0.86758">
        <ele>14</ele>
        <time>2010-08-13T18:13:11Z</time>
      </trkpt>
      <trkpt lat="47.38463" lon="-0.86722">
        <ele>14</ele>
        <time>2010-08-13T18:13:16Z</time>
      </trkpt>
      <trkpt lat="47.38487" lon="-0.86694">
        <ele>15</ele>
        <time>2010-08-13T18:13:21Z</time>
      </trkpt>
      <trkpt lat="47.38517" lon="-0.8666">
        <ele>17</ele>
        <time>2010-08-13T18:13:26Z</time>
      </trkpt>
      <trkpt lat="47.38544" lon="-0.86628">
        <ele>17</ele>
        <time>2010-08-13T18:13:31Z</time>
      </trkpt>
      <trkpt lat="47.38569" lon="-0.86597">
        <ele>17</ele>
        <time>2010-08-13T18:13:36Z</time>
      </trkpt>
      <trkpt lat="47.38593" lon="-0.86556">
        <ele>19</ele>
        <time>2010-08-13T18:13:41Z</time>
      </trkpt>
      <trkpt lat="47.38605" lon="-0.86523">
        <ele>19</ele>
        <time>2010-08-13T18:13:46Z</time>
      </trkpt>
      <trkpt lat="47.38617" lon="-0.86479">
        <ele>18</ele>
        <time>2010-08-13T18:13:51Z</time>
      </trkpt>
      <trkpt lat="47.38632" lon="-0.86423">
        <ele>19</ele>
        <time>2010-08-13T18:13:56Z</time>
      </trkpt>
      <trkpt lat="47.38644" lon="-0.86375">
        <ele>19</ele>
        <time>2010-08-13T18:14:01Z</time>
      </trkpt>
      <trkpt lat="47.38653" lon="-0.86338">
        <ele>19</ele>
        <time>2010-08-13T18:14:06Z</time>
      </trkpt>
      <trkpt lat="47.38664" lon="-0.86291">
        <ele>20</ele>
        <time>2010-08-13T18:14:11Z</time>
      </trkpt>
      <trkpt lat="47.38661" lon="-0.86244">
        <ele>21</ele>
        <time>2010-08-13T18:14:16Z</time>
      </trkpt>
      <trkpt lat="47.38635" lon="-0.86201">
        <ele>21</ele>
        <time>2010-08-13T18:14:21Z</time>
      </trkpt>
      <trkpt lat="47.38605" lon="-0.86168">
        <ele>21</ele>
        <time>2010-08-13T18:14:26Z</time>
      </trkpt>
      <trkpt lat="47.3858" lon="-0.86141">
        <ele>20</ele>
        <time>2010-08-13T18:14:31Z</time>
      </trkpt>
      <trkpt lat="47.38548" lon="-0.86106">
        <ele>19</ele>
        <time>2010-08-13T18:14:36Z</time>
      </trkpt>
      <trkpt lat="47.38517" lon="-0.86071">
        <ele>20</ele>
        <time>2010-08-13T18:14:41Z</time>
      </trkpt>
      <trkpt lat="47.3848" lon="-0.86028">
        <ele>20</ele>
        <time>2010-08-13T18:14:46Z</time>
      </trkpt>
      <trkpt lat="47.38451" lon="-0.85989">
        <ele>21</ele>
        <time>2010-08-13T18:14:51Z</time>
      </trkpt>
      <trkpt lat="47.38427" lon="-0.85964">
        <ele>21</ele>
        <time>2010-08-13T18:14:56Z</time>
      </trkpt>
      <trkpt lat="47.38395" lon="-0.85929">
        <ele>20</ele>
        <time>2010-08-13T18:15:01Z</time>
      </trkpt>
      <trkpt lat="47.3836" lon="-0.85884">
        <ele>20</ele>
        <time>2010-08-13T18:15:06Z</time>
      </trkpt>
      <trkpt lat="47.38345" lon="-0.85833">
        <ele>21</ele>
        <time>2010-08-13T18:15:11Z</time>
      </trkpt>
      <trkpt lat="47.38347" lon="-0.8579">
        <ele>22</ele>
        <time>2010-08-13T18:15:16Z</time>
      </trkpt>
      <trkpt lat="47.38348" lon="-0.85739">
        <ele>24</ele>
        <time>2010-08-13T18:15:21Z</time>
      </trkpt>
      <trkpt lat="47.38348" lon="-0.85692">
        <ele>24</ele>
        <time>2010-08-13T18:15:26Z</time>
      </trkpt>
      <trkpt lat="47.38349" lon="-0.85637">
        <ele>25</ele>
        <time>2010-08-13T18:15:31Z</time>
      </trkpt>
      <trkpt lat="47.38349" lon="-0.8559">
        <ele>25</ele>
        <time>2010-08-13T18:15:36Z</time>
      </trkpt>
      <trkpt lat="47.38349" lon="-0.85552">
        <ele>27</ele>
        <time>2010-08-13T18:15:41Z</time>
      </trkpt>
      <trkpt lat="47.38345" lon="-0.85506">
        <ele>27</ele>
        <time>2010-08-13T18:15:46Z</time>
      </trkpt>
      <trkpt lat="47.38328" lon="-0.85455">
        <ele>26</ele>
        <time>2010-08-13T18:15:51Z</time>
      </trkpt>
      <trkpt lat="47.38305" lon="-0.85416">
        <ele>27</ele>
        <time>2010-08-13T18:15:56Z</time>
      </trkpt>
      <trkpt lat="47.38285" lon="-0.85384">
        <ele>27</ele>
        <time>2010-08-13T18:16:01Z</time>
      </trkpt>
      <trkpt lat="47.3826" lon="-0.85343">
        <ele>26</ele>
        <time>2010-08-13T18:16:06Z</time>
      </trkpt>
      <trkpt lat="47.38235" lon="-0.85301">
        <ele>27</ele>
        <time>2010-08-13T18:16:11Z</time>
      </trkpt>
      <trkpt lat="47.38208" lon="-0.85261">
        <ele>27</ele>
        <time>2010-08-13T18:16:16Z</time>
      </trkpt>
      <trkpt lat="47.38178" lon="-0.85204">
        <ele>27</ele>
        <time>2010-08-13T18:16:21Z</time>
      </trkpt>
      <trkpt lat="47.38156" lon="-0.85165">
        <ele>26</ele>
        <time>2010-08-13T18:16:26Z</time>
      </trkpt>
      <trkpt lat="47.38129" lon="-0.85118">
        <ele>26</ele>
        <time>2010-08-13T18:16:31Z</time>
      </trkpt>
      <trkpt lat="47.38096" lon="-0.85062">
        <ele>25</ele>
        <time>2010-08-13T18:16:36Z</time>
      </trkpt>
      <trkpt lat="47.38069" lon="-0.85017">
        <ele>25</ele>
        <time>2010-08-13T18:16:41Z</time>
      </trkpt>
      <trkpt lat="47.38049" lon="-0.84983">
        <ele>25</ele>
        <time>2010-08-13T18:16:46Z</time>
      </trkpt>
      <trkpt lat="47.38017" lon="-0.84954">
        <ele>25</ele>
        <time>2010-08-13T18:16:51Z</time>
      </trkpt>
      <trkpt lat="47.38001" lon="-0.84904">
        <ele>25</ele>
        <time>2010-08-13T18:16:56Z</time>
      </trkpt>
      <trkpt lat="47.37975" lon="-0.84857">
        <ele>28</ele>
        <time>2010-08-13T18:17:01Z</time>
      </trkpt>
      <trkpt lat="47.37952" lon="-0.84819">
        <ele>28</ele>
        <time>2010-08-13T18:17:06Z</time>
      </trkpt>
      <trkpt lat="47.37934" lon="-0.84789">
        <ele>28</ele>
        <time>2010-08-13T18:17:11Z</time>
      </trkpt>
      <trkpt lat="47.37913" lon="-0.84752">
        <ele>30</ele>
        <time>2010-08-13T18:17:16Z</time>
      </trkpt>
      <trkpt lat="47.37888" lon="-0.84709">
        <ele>32</ele>
        <time>2010-08-13T18:17:21Z</time>
      </trkpt>
      <trkpt lat="47.37867" lon="-0.84673">
        <ele>32</ele>
        <time>2010-08-13T18:17:26Z</time>
      </trkpt>
      <trkpt lat="47.37851" lon="-0.84645">
        <ele>33</ele>
        <time>2010-08-13T18:17:31Z</time>
      </trkpt>
      <trkpt lat="47.37831" lon="-0.84613">
        <ele>37</ele>
        <time>2010-08-13T18:17:36Z</time>
      </trkpt>
      <trkpt lat="47.37814" lon="-0.84583">
        <ele>37</ele>
        <time>2010-08-13T18:17:41Z</time>
      </trkpt>
      <trkpt lat="47.37794" lon="-0.84548">
        <ele>38</ele>
        <time>2010-08-13T18:17:46Z</time>
      </trkpt>
      <trkpt lat="47.37777" lon="-0.84519">
        <ele>39</ele>
        <time>2010-08-13T18:17:51Z</time>
      </trkpt>
      <trkpt lat="47.37764" lon="-0.84497">
        <ele>41</ele>
        <time>2010-08-13T18:17:56Z</time>
      </trkpt>
      <trkpt lat="47.37748" lon="-0.84471">
        <ele>43</ele>
        <time>2010-08-13T18:18:01Z</time>
      </trkpt>
      <trkpt lat="47.37732" lon="-0.84442">
        <ele>43</ele>
        <time>2010-08-13T18:18:06Z</time>
      </trkpt>
      <trkpt lat="47.37712" lon="-0.84408">
        <ele>43</ele>
        <time>2010-08-13T18:18:11Z</time>
      </trkpt>
      <trkpt lat="47.37695" lon="-0.84378">
        <ele>43</ele>
        <time>2010-08-13T18:18:16Z</time>
      </trkpt>
      <trkpt lat="47.3768" lon="-0.84353">
        <ele>42</ele>
        <time>2010-08-13T18:18:21Z</time>
      </trkpt>
      <trkpt lat="47.37659" lon="-0.84316">
        <ele>42</ele>
        <time>2010-08-13T18:18:26Z</time>
      </trkpt>
      <trkpt lat="47.3763" lon="-0.84268">
        <ele>42</ele>
        <time>2010-08-13T18:18:31Z</time>
      </trkpt>
      <trkpt lat="47.37605" lon="-0.84225">
        <ele>41</ele>
        <time>2010-08-13T18:18:36Z</time>
      </trkpt>
      <trkpt lat="47.37584" lon="-0.84189">
        <ele>41</ele>
        <time>2010-08-13T18:18:41Z</time>
      </trkpt>
      <trkpt lat="47.37558" lon="-0.84144">
        <ele>41</ele>
        <time>2010-08-13T18:18:46Z</time>
      </trkpt>
      <trkpt lat="47.37532" lon="-0.841">
        <ele>41</ele>
        <time>2010-08-13T18:18:51Z</time>
      </trkpt>
      <trkpt lat="47.37501" lon="-0.84047">
        <ele>41</ele>
        <time>2010-08-13T18:18:56Z</time>
      </trkpt>
      <trkpt lat="47.37476" lon="-0.84003">
        <ele>41</ele>
        <time>2010-08-13T18:19:01Z</time>
      </trkpt>
      <trkpt lat="47.37455" lon="-0.83968">
        <ele>42</ele>
        <time>2010-08-13T18:19:06Z</time>
      </trkpt>
      <trkpt lat="47.37429" lon="-0.83924">
        <ele>43</ele>
        <time>2010-08-13T18:19:11Z</time>
      </trkpt>
      <trkpt lat="47.37398" lon="-0.83871">
        <ele>44</ele>
        <time>2010-08-13T18:19:16Z</time>
      </trkpt>
      <trkpt lat="47.37373" lon="-0.83827">
        <ele>45</ele>
        <time>2010-08-13T18:19:21Z</time>
      </trkpt>
      <trkpt lat="47.37352" lon="-0.83792">
        <ele>45</ele>
        <time>2010-08-13T18:19:26Z</time>
      </trkpt>
      <trkpt lat="47.37327" lon="-0.83749">
        <ele>45</ele>
        <time>2010-08-13T18:19:31Z</time>
      </trkpt>
      <trkpt lat="47.37302" lon="-0.83706">
        <ele>45</ele>
        <time>2010-08-13T18:19:36Z</time>
      </trkpt>
      <trkpt lat="47.37271" lon="-0.83654">
        <ele>46</ele>
        <time>2010-08-13T18:19:41Z</time>
      </trkpt>
      <trkpt lat="47.37245" lon="-0.8361">
        <ele>46</ele>
        <time>2010-08-13T18:19:46Z</time>
      </trkpt>
      <trkpt lat="47.37224" lon="-0.83574">
        <ele>46</ele>
        <time>2010-08-13T18:19:51Z</time>
      </trkpt>
      <trkpt lat="47.37198" lon="-0.83528">
        <ele>46</ele>
        <time>2010-08-13T18:19:56Z</time>
      </trkpt>
      <trkpt lat="47.3716" lon="-0.83461">
        <ele>42</ele>
        <time>2010-08-13T18:20:01Z</time>
      </trkpt>
      <trkpt lat="47.37123" lon="-0.83393">
        <ele>39</ele>
        <time>2010-08-13T18:20:06Z</time>
      </trkpt>
      <trkpt lat="47.3709" lon="-0.83332">
        <ele>35</ele>
        <time>2010-08-13T18:20:11Z</time>
      </trkpt>
      <trkpt lat="47.37044" lon="-0.83251">
        <ele>33</ele>
        <time>2010-08-13T18:20:16Z</time>
      </trkpt>
      <trkpt lat="47.36995" lon="-0.83166">
        <ele>30</ele>
        <time>2010-08-13T18:20:21Z</time>
      </trkpt>
      <trkpt lat="47.36941" lon="-0.83066">
        <ele>29</ele>
        <time>2010-08-13T18:20:26Z</time>
      </trkpt>
      <trkpt lat="47.36898" lon="-0.8299">
        <ele>28</ele>
        <time>2010-08-13T18:20:31Z</time>
      </trkpt>
      <trkpt lat="47.36866" lon="-0.82933">
        <ele>28</ele>
        <time>2010-08-13T18:20:36Z</time>
      </trkpt>
      <trkpt lat="47.36825" lon="-0.82869">
        <ele>28</ele>
        <time>2010-08-13T18:20:41Z</time>
      </trkpt>
      <trkpt lat="47.36777" lon="-0.82797">
        <ele>26</ele>
        <time>2010-08-13T18:20:46Z</time>
      </trkpt>
      <trkpt lat="47.36741" lon="-0.82743">
        <ele>26</ele>
        <time>2010-08-13T18:20:51Z</time>
      </trkpt>
      <trkpt lat="47.36715" lon="-0.82704">
        <ele>27</ele>
        <time>2010-08-13T18:20:56Z</time>
      </trkpt>
      <trkpt lat="47.3669" lon="-0.82654">
        <ele>26</ele>
        <time>2010-08-13T18:21:01Z</time>
      </trkpt>
      <trkpt lat="47.36668" lon="-0.82602">
        <ele>26</ele>
        <time>2010-08-13T18:21:06Z</time>
      </trkpt>
      <trkpt lat="47.36642" lon="-0.8254">
        <ele>31</ele>
        <time>2010-08-13T18:21:11Z</time>
      </trkpt>
      <trkpt lat="47.36621" lon="-0.82491">
        <ele>30</ele>
        <time>2010-08-13T18:21:16Z</time>
      </trkpt>
      <trkpt lat="47.36604" lon="-0.82451">
        <ele>31</ele>
        <time>2010-08-13T18:21:21Z</time>
      </trkpt>
      <trkpt lat="47.36583" lon="-0.82402">
        <ele>33</ele>
        <time>2010-08-13T18:21:26Z</time>
      </trkpt>
      <trkpt lat="47.36563" lon="-0.82348">
        <ele>32</ele>
        <time>2010-08-13T18:21:31Z</time>
      </trkpt>
      <trkpt lat="47.36546" lon="-0.82266">
        <ele>29</ele>
        <time>2010-08-13T18:21:36Z</time>
      </trkpt>
      <trkpt lat="47.36531" lon="-0.82194">
        <ele>28</ele>
        <time>2010-08-13T18:21:41Z</time>
      </trkpt>
      <trkpt lat="47.36514" lon="-0.82143">
        <ele>27</ele>
        <time>2010-08-13T18:21:46Z</time>
      </trkpt>
      <trkpt lat="47.36488" lon="-0.82088">
        <ele>28</ele>
        <time>2010-08-13T18:21:51Z</time>
      </trkpt>
      <trkpt lat="47.36452" lon="-0.82034">
        <ele>28</ele>
        <time>2010-08-13T18:21:56Z</time>
      </trkpt>
      <trkpt lat="47.36419" lon="-0.81989">
        <ele>28</ele>
        <time>2010-08-13T18:22:01Z</time>
      </trkpt>
      <trkpt lat="47.36391" lon="-0.8195">
        <ele>28</ele>
        <time>2010-08-13T18:22:06Z</time>
      </trkpt>
      <trkpt lat="47.36352" lon="-0.81898">
        <ele>25</ele>
        <time>2010-08-13T18:22:11Z</time>
      </trkpt>
      <trkpt lat="47.36301" lon="-0.81828">
        <ele>22</ele>
        <time>2010-08-13T18:22:16Z</time>
      </trkpt>
      <trkpt lat="47.36253" lon="-0.81763">
        <ele>19</ele>
        <time>2010-08-13T18:22:21Z</time>
      </trkpt>
      <trkpt lat="47.36207" lon="-0.81698">
        <ele>16</ele>
        <time>2010-08-13T18:22:26Z</time>
      </trkpt>
      <trkpt lat="47.36172" lon="-0.81651">
        <ele>15</ele>
        <time>2010-08-13T18:22:31Z</time>
      </trkpt>
      <trkpt lat="47.36133" lon="-0.81597">
        <ele>18</ele>
        <time>2010-08-13T18:22:36Z</time>
      </trkpt>
      <trkpt lat="47.3609" lon="-0.81539">
        <ele>15</ele>
        <time>2010-08-13T18:22:41Z</time>
      </trkpt>
      <trkpt lat="47.36059" lon="-0.81493">
        <ele>14</ele>
        <time>2010-08-13T18:22:46Z</time>
      </trkpt>
      <trkpt lat="47.36036" lon="-0.81454">
        <ele>14</ele>
        <time>2010-08-13T18:22:51Z</time>
      </trkpt>
      <trkpt lat="47.36012" lon="-0.81401">
        <ele>14</ele>
        <time>2010-08-13T18:22:56Z</time>
      </trkpt>
      <trkpt lat="47.3599" lon="-0.81346">
        <ele>17</ele>
        <time>2010-08-13T18:23:01Z</time>
      </trkpt>
      <trkpt lat="47.35966" lon="-0.81282">
        <ele>18</ele>
        <time>2010-08-13T18:23:06Z</time>
      </trkpt>
      <trkpt lat="47.35948" lon="-0.81235">
        <ele>18</ele>
        <time>2010-08-13T18:23:11Z</time>
      </trkpt>
      <trkpt lat="47.35935" lon="-0.812">
        <ele>18</ele>
        <time>2010-08-13T18:23:16Z</time>
      </trkpt>
      <trkpt lat="47.35919" lon="-0.81157">
        <ele>18</ele>
        <time>2010-08-13T18:23:21Z</time>
      </trkpt>
      <trkpt lat="47.35901" lon="-0.8111">
        <ele>22</ele>
        <time>2010-08-13T18:23:26Z</time>
      </trkpt>
      <trkpt lat="47.35888" lon="-0.8107">
        <ele>21</ele>
        <time>2010-08-13T18:23:31Z</time>
      </trkpt>
      <trkpt lat="47.35882" lon="-0.81037">
        <ele>22</ele>
        <time>2010-08-13T18:23:36Z</time>
      </trkpt>
      <trkpt lat="47.35877" lon="-0.80993">
        <ele>22</ele>
        <time>2010-08-13T18:23:41Z</time>
      </trkpt>
      <trkpt lat="47.35877" lon="-0.80947">
        <ele>23</ele>
        <time>2010-08-13T18:23:46Z</time>
      </trkpt>
      <trkpt lat="47.35878" lon="-0.80888">
        <ele>24</ele>
        <time>2010-08-13T18:23:51Z</time>
      </trkpt>
      <trkpt lat="47.35879" lon="-0.80838">
        <ele>24</ele>
        <time>2010-08-13T18:23:56Z</time>
      </trkpt>
      <trkpt lat="47.35879" lon="-0.80797">
        <ele>24</ele>
        <time>2010-08-13T18:24:01Z</time>
      </trkpt>
      <trkpt lat="47.3588" lon="-0.80747">
        <ele>24</ele>
        <time>2010-08-13T18:24:06Z</time>
      </trkpt>
      <trkpt lat="47.3588" lon="-0.80698">
        <ele>24</ele>
        <time>2010-08-13T18:24:11Z</time>
      </trkpt>
      <trkpt lat="47.35881" lon="-0.80639">
        <ele>25</ele>
        <time>2010-08-13T18:24:16Z</time>
      </trkpt>
      <trkpt lat="47.35882" lon="-0.8059">
        <ele>25</ele>
        <time>2010-08-13T18:24:21Z</time>
      </trkpt>
      <trkpt lat="47.35883" lon="-0.8055">
        <ele>25</ele>
        <time>2010-08-13T18:24:26Z</time>
      </trkpt>
      <trkpt lat="47.35884" lon="-0.805">
        <ele>26</ele>
        <time>2010-08-13T18:24:31Z</time>
      </trkpt>
      <trkpt lat="47.35885" lon="-0.80439">
        <ele>26</ele>
        <time>2010-08-13T18:24:36Z</time>
      </trkpt>
      <trkpt lat="47.35885" lon="-0.80387">
        <ele>26</ele>
        <time>2010-08-13T18:24:41Z</time>
      </trkpt>
      <trkpt lat="47.35886" lon="-0.80345">
        <ele>25</ele>
        <time>2010-08-13T18:24:46Z</time>
      </trkpt>
      <trkpt lat="47.35887" lon="-0.8029">
        <ele>26</ele>
        <time>2010-08-13T18:24:51Z</time>
      </trkpt>
      <trkpt lat="47.35887" lon="-0.80235">
        <ele>26</ele>
        <time>2010-08-13T18:24:56Z</time>
      </trkpt>
      <trkpt lat="47.35888" lon="-0.80168">
        <ele>26</ele>
        <time>2010-08-13T18:25:01Z</time>
      </trkpt>
      <trkpt lat="47.35889" lon="-0.80114">
        <ele>26</ele>
        <time>2010-08-13T18:25:06Z</time>
      </trkpt>
      <trkpt lat="47.35889" lon="-0.8007">
        <ele>26</ele>
        <time>2010-08-13T18:25:11Z</time>
      </trkpt>
      <trkpt lat="47.35889" lon="-0.80015">
        <ele>26</ele>
        <time>2010-08-13T18:25:16Z</time>
      </trkpt>
      <trkpt lat="47.3589" lon="-0.7995">
        <ele>27</ele>
        <time>2010-08-13T18:25:21Z</time>
      </trkpt>
      <trkpt lat="47.35889" lon="-0.79899">
        <ele>28</ele>
        <time>2010-08-13T18:25:26Z</time>
      </trkpt>
      <trkpt lat="47.35888" lon="-0.79861">
        <ele>29</ele>
        <time>2010-08-13T18:25:31Z</time>
      </trkpt>
      <trkpt lat="47.35883" lon="-0.79815">
        <ele>30</ele>
        <time>2010-08-13T18:25:36Z</time>
      </trkpt>
      <trkpt lat="47.35874" lon="-0.79761">
        <ele>31</ele>
        <time>2010-08-13T18:25:41Z</time>
      </trkpt>
      <trkpt lat="47.35865" lon="-0.79718">
        <ele>32</ele>
        <time>2010-08-13T18:25:46Z</time>
      </trkpt>
      <trkpt lat="47.35857" lon="-0.79674">
        <ele>33</ele>
        <time>2010-08-13T18:25:51Z</time>
      </trkpt>
      <trkpt lat="47.3585" lon="-0.79639">
        <ele>33</ele>
        <time>2010-08-13T18:25:56Z</time>
      </trkpt>
      <trkpt lat="47.35841" lon="-0.79594">
        <ele>33</ele>
        <time>2010-08-13T18:26:01Z</time>
      </trkpt>
      <trkpt lat="47.35831" lon="-0.79539">
        <ele>33</ele>
        <time>2010-08-13T18:26:06Z</time>
      </trkpt>
      <trkpt lat="47.35823" lon="-0.79495">
        <ele>34</ele>
        <time>2010-08-13T18:26:11Z</time>
      </trkpt>
      <trkpt lat="47.35817" lon="-0.7946">
        <ele>35</ele>
        <time>2010-08-13T18:26:16Z</time>
      </trkpt>
      <trkpt lat="47.35809" lon="-0.79416">
        <ele>36</ele>
        <time>2010-08-13T18:26:21Z</time>
      </trkpt>
      <trkpt lat="47.358" lon="-0.79374">
        <ele>37</ele>
        <time>2010-08-13T18:26:26Z</time>
      </trkpt>
      <trkpt lat="47.35793" lon="-0.79332">
        <ele>38</ele>
        <time>2010-08-13T18:26:31Z</time>
      </trkpt>
      <trkpt lat="47.35784" lon="-0.79282">
        <ele>39</ele>
        <time>2010-08-13T18:26:36Z</time>
      </trkpt>
      <trkpt lat="47.35777" lon="-0.7925">
        <ele>40</ele>
        <time>2010-08-13T18:26:41Z</time>
      </trkpt>
      <trkpt lat="47.35769" lon="-0.79206">
        <ele>41</ele>
        <time>2010-08-13T18:26:46Z</time>
      </trkpt>
      <trkpt lat="47.3576" lon="-0.79156">
        <ele>42</ele>
        <time>2010-08-13T18:26:51Z</time>
      </trkpt>
      <trkpt lat="47.35753" lon="-0.79118">
        <ele>42</ele>
        <time>2010-08-13T18:26:56Z</time>
      </trkpt>
      <trkpt lat="47.35747" lon="-0.79087">
        <ele>45</ele>
        <time>2010-08-13T18:27:01Z</time>
      </trkpt>
      <trkpt lat="47.35739" lon="-0.79047">
        <ele>46</ele>
        <time>2010-08-13T18:27:06Z</time>
      </trkpt>
      <trkpt lat="47.35732" lon="-0.79007">
        <ele>45</ele>
        <time>2010-08-13T18:27:11Z</time>
      </trkpt>
      <trkpt lat="47.35722" lon="-0.78954">
        <ele>46</ele>
        <time>2010-08-13T18:27:16Z</time>
      </trkpt>
      <trkpt lat="47.35713" lon="-0.78908">
        <ele>46</ele>
        <time>2010-08-13T18:27:21Z</time>
      </trkpt>
      <trkpt lat="47.35706" lon="-0.78869">
        <ele>46</ele>
        <time>2010-08-13T18:27:26Z</time>
      </trkpt>
      <trkpt lat="47.35697" lon="-0.78819">
        <ele>45</ele>
        <time>2010-08-13T18:27:31Z</time>
      </trkpt>
      <trkpt lat="47.35688" lon="-0.7877">
        <ele>45</ele>
        <time>2010-08-13T18:27:36Z</time>
      </trkpt>
      <trkpt lat="47.35677" lon="-0.78712">
        <ele>45</ele>
        <time>2010-08-13T18:27:41Z</time>
      </trkpt>
      <trkpt lat="47.35668" lon="-0.78664">
        <ele>46</ele>
        <time>2010-08-13T18:27:46Z</time>
      </trkpt>
      <trkpt lat="47.35661" lon="-0.78624">
        <ele>48</ele>
        <time>2010-08-13T18:27:51Z</time>
      </trkpt>
      <trkpt lat="47.35651" lon="-0.78574">
        <ele>48</ele>
        <time>2010-08-13T18:27:56Z</time>
      </trkpt>
      <trkpt lat="47.3564" lon="-0.78513">
        <ele>48</ele>
        <time>2010-08-13T18:28:01Z</time>
      </trkpt>
      <trkpt lat="47.3563" lon="-0.78458">
        <ele>46</ele>
        <time>2010-08-13T18:28:06Z</time>
      </trkpt>
      <trkpt lat="47.3562" lon="-0.78411">
        <ele>45</ele>
        <time>2010-08-13T18:28:11Z</time>
      </trkpt>
      <trkpt lat="47.35608" lon="-0.78346">
        <ele>44</ele>
        <time>2010-08-13T18:28:16Z</time>
      </trkpt>
      <trkpt lat="47.35594" lon="-0.78273">
        <ele>42</ele>
        <time>2010-08-13T18:28:21Z</time>
      </trkpt>
      <trkpt lat="47.35576" lon="-0.78176">
        <ele>40</ele>
        <time>2010-08-13T18:28:26Z</time>
      </trkpt>
      <trkpt lat="47.35561" lon="-0.78089">
        <ele>39</ele>
        <time>2010-08-13T18:28:31Z</time>
      </trkpt>
      <trkpt lat="47.35547" lon="-0.78019">
        <ele>39</ele>
        <time>2010-08-13T18:28:36Z</time>
      </trkpt>
      <trkpt lat="47.35532" lon="-0.7793">
        <ele>39</ele>
        <time>2010-08-13T18:28:41Z</time>
      </trkpt>
      <trkpt lat="47.35514" lon="-0.77841">
        <ele>37</ele>
        <time>2010-08-13T18:28:46Z</time>
      </trkpt>
      <trkpt lat="47.35476" lon="-0.77748">
        <ele>30</ele>
        <time>2010-08-13T18:28:51Z</time>
      </trkpt>
      <trkpt lat="47.35452" lon="-0.777">
        <ele>32</ele>
        <time>2010-08-13T18:28:56Z</time>
      </trkpt>
      <trkpt lat="47.35422" lon="-0.77669">
        <ele>33</ele>
        <time>2010-08-13T18:29:01Z</time>
      </trkpt>
      <trkpt lat="47.354" lon="-0.77655">
        <ele>38</ele>
        <time>2010-08-13T18:29:06Z</time>
      </trkpt>
      <trkpt lat="47.35375" lon="-0.7764">
        <ele>40</ele>
        <time>2010-08-13T18:29:11Z</time>
      </trkpt>
      <trkpt lat="47.35353" lon="-0.77628">
        <ele>41</ele>
        <time>2010-08-13T18:29:16Z</time>
      </trkpt>
      <trkpt lat="47.35335" lon="-0.77617">
        <ele>42</ele>
        <time>2010-08-13T18:29:21Z</time>
      </trkpt>
      <trkpt lat="47.35313" lon="-0.77605">
        <ele>44</ele>
        <time>2010-08-13T18:29:26Z</time>
      </trkpt>
      <trkpt lat="47.35291" lon="-0.77591">
        <ele>45</ele>
        <time>2010-08-13T18:29:31Z</time>
      </trkpt>
      <trkpt lat="47.35267" lon="-0.77574">
        <ele>46</ele>
        <time>2010-08-13T18:29:36Z</time>
      </trkpt>
      <trkpt lat="47.3525" lon="-0.7756">
        <ele>46</ele>
        <time>2010-08-13T18:29:41Z</time>
      </trkpt>
      <trkpt lat="47.35231" lon="-0.77542">
        <ele>48</ele>
        <time>2010-08-13T18:29:46Z</time>
      </trkpt>
      <trkpt lat="47.35212" lon="-0.77522">
        <ele>48</ele>
        <time>2010-08-13T18:29:51Z</time>
      </trkpt>
      <trkpt lat="47.3519" lon="-0.77495">
        <ele>47</ele>
        <time>2010-08-13T18:29:56Z</time>
      </trkpt>
      <trkpt lat="47.35172" lon="-0.77469">
        <ele>47</ele>
        <time>2010-08-13T18:30:01Z</time>
      </trkpt>
      <trkpt lat="47.35158" lon="-0.77444">
        <ele>47</ele>
        <time>2010-08-13T18:30:06Z</time>
      </trkpt>
      <trkpt lat="47.35137" lon="-0.77405">
        <ele>46</ele>
        <time>2010-08-13T18:30:11Z</time>
      </trkpt>
      <trkpt lat="47.35106" lon="-0.77354">
        <ele>45</ele>
        <time>2010-08-13T18:30:16Z</time>
      </trkpt>
      <trkpt lat="47.35079" lon="-0.77322">
        <ele>47</ele>
        <time>2010-08-13T18:30:21Z</time>
      </trkpt>
      <trkpt lat="47.35059" lon="-0.77306">
        <ele>49</ele>
        <time>2010-08-13T18:30:26Z</time>
      </trkpt>
      <trkpt lat="47.35033" lon="-0.77292">
        <ele>50</ele>
        <time>2010-08-13T18:30:31Z</time>
      </trkpt>
      <trkpt lat="47.35006" lon="-0.77289">
        <ele>51</ele>
        <time>2010-08-13T18:30:36Z</time>
      </trkpt>
      <trkpt lat="47.35011" lon="-0.77239">
        <ele>52</ele>
        <time>2010-08-13T18:30:41Z</time>
      </trkpt>
      <trkpt lat="47.35036" lon="-0.77193">
        <ele>50</ele>
        <time>2010-08-13T18:30:46Z</time>
      </trkpt>
      <trkpt lat="47.3506" lon="-0.77154">
        <ele>50</ele>
        <time>2010-08-13T18:30:51Z</time>
      </trkpt>
      <trkpt lat="47.35097" lon="-0.77104">
        <ele>45</ele>
        <time>2010-08-13T18:30:56Z</time>
      </trkpt>
      <trkpt lat="47.35137" lon="-0.77051">
        <ele>44</ele>
        <time>2010-08-13T18:31:01Z</time>
      </trkpt>
      <trkpt lat="47.35168" lon="-0.76964">
        <ele>43</ele>
        <time>2010-08-13T18:31:06Z</time>
      </trkpt>
      <trkpt lat="47.35169" lon="-0.76878">
        <ele>41</ele>
        <time>2010-08-13T18:31:11Z</time>
      </trkpt>
      <trkpt lat="47.35166" lon="-0.76807">
        <ele>41</ele>
        <time>2010-08-13T18:31:16Z</time>
      </trkpt>
      <trkpt lat="47.35162" lon="-0.76715">
        <ele>38</ele>
        <time>2010-08-13T18:31:21Z</time>
      </trkpt>
      <trkpt lat="47.3516" lon="-0.76602">
        <ele>34</ele>
        <time>2010-08-13T18:31:26Z</time>
      </trkpt>
      <trkpt lat="47.35155" lon="-0.76505">
        <ele>31</ele>
        <time>2010-08-13T18:31:31Z</time>
      </trkpt>
      <trkpt lat="47.35154" lon="-0.7643">
        <ele>29</ele>
        <time>2010-08-13T18:31:36Z</time>
      </trkpt>
      <trkpt lat="47.3515" lon="-0.76347">
        <ele>26</ele>
        <time>2010-08-13T18:31:41Z</time>
      </trkpt>
      <trkpt lat="47.35121" lon="-0.76297">
        <ele>25</ele>
        <time>2010-08-13T18:31:46Z</time>
      </trkpt>
      <trkpt lat="47.35082" lon="-0.76268">
        <ele>26</ele>
        <time>2010-08-13T18:31:51Z</time>
      </trkpt>
      <trkpt lat="47.35047" lon="-0.76257">
        <ele>26</ele>
        <time>2010-08-13T18:31:56Z</time>
      </trkpt>
      <trkpt lat="47.35013" lon="-0.7625">
        <ele>25</ele>
        <time>2010-08-13T18:32:01Z</time>
      </trkpt>
      <trkpt lat="47.34968" lon="-0.76242">
        <ele>25</ele>
        <time>2010-08-13T18:32:06Z</time>
      </trkpt>
      <trkpt lat="47.34919" lon="-0.76226">
        <ele>24</ele>
        <time>2010-08-13T18:32:11Z</time>
      </trkpt>
      <trkpt lat="47.34861" lon="-0.76207">
        <ele>23</ele>
        <time>2010-08-13T18:32:16Z</time>
      </trkpt>
      <trkpt lat="47.34821" lon="-0.76196">
        <ele>21</ele>
        <time>2010-08-13T18:32:21Z</time>
      </trkpt>
      <trkpt lat="47.34766" lon="-0.76171">
        <ele>19</ele>
        <time>2010-08-13T18:32:26Z</time>
      </trkpt>
      <trkpt lat="47.34703" lon="-0.76162">
        <ele>18</ele>
        <time>2010-08-13T18:32:31Z</time>
      </trkpt>
      <trkpt lat="47.34658" lon="-0.76156">
        <ele>17</ele>
        <time>2010-08-13T18:32:36Z</time>
      </trkpt>
      <trkpt lat="47.34616" lon="-0.76141">
        <ele>17</ele>
        <time>2010-08-13T18:32:41Z</time>
      </trkpt>
      <trkpt lat="47.34586" lon="-0.76133">
        <ele>16</ele>
        <time>2010-08-13T18:32:46Z</time>
      </trkpt>
      <trkpt lat="47.3455" lon="-0.76125">
        <ele>17</ele>
        <time>2010-08-13T18:32:51Z</time>
      </trkpt>
      <trkpt lat="47.34521" lon="-0.76094">
        <ele>18</ele>
        <time>2010-08-13T18:32:56Z</time>
      </trkpt>
      <trkpt lat="47.34551" lon="-0.76074">
        <ele>21</ele>
        <time>2010-08-13T18:33:01Z</time>
      </trkpt>
      <trkpt lat="47.34581" lon="-0.76057">
        <ele>21</ele>
        <time>2010-08-13T18:33:06Z</time>
      </trkpt>
      <trkpt lat="47.34614" lon="-0.76025">
        <ele>20</ele>
        <time>2010-08-13T18:33:11Z</time>
      </trkpt>
      <trkpt lat="47.3465" lon="-0.75999">
        <ele>20</ele>
        <time>2010-08-13T18:33:16Z</time>
      </trkpt>
      <trkpt lat="47.34689" lon="-0.75959">
        <ele>18</ele>
        <time>2010-08-13T18:33:21Z</time>
      </trkpt>
      <trkpt lat="47.34722" lon="-0.75926">
        <ele>17</ele>
        <time>2010-08-13T18:33:26Z</time>
      </trkpt>
      <trkpt lat="47.34748" lon="-0.759">
        <ele>17</ele>
        <time>2010-08-13T18:33:31Z</time>
      </trkpt>
      <trkpt lat="47.3478" lon="-0.75871">
        <ele>17</ele>
        <time>2010-08-13T18:33:36Z</time>
      </trkpt>
      <trkpt lat="47.34824" lon="-0.75856">
        <ele>17</ele>
        <time>2010-08-13T18:33:41Z</time>
      </trkpt>
      <trkpt lat="47.3486" lon="-0.7584">
        <ele>18</ele>
        <time>2010-08-13T18:33:46Z</time>
      </trkpt>
      <trkpt lat="47.34886" lon="-0.75817">
        <ele>18</ele>
        <time>2010-08-13T18:33:51Z</time>
      </trkpt>
      <trkpt lat="47.34917" lon="-0.75787">
        <ele>19</ele>
        <time>2010-08-13T18:33:56Z</time>
      </trkpt>
      <trkpt lat="47.34946" lon="-0.75752">
        <ele>19</ele>
        <time>2010-08-13T18:34:01Z</time>
      </trkpt>
      <trkpt lat="47.34973" lon="-0.75716">
        <ele>19</ele>
        <time>2010-08-13T18:34:06Z</time>
      </trkpt>
      <trkpt lat="47.35007" lon="-0.75672">
        <ele>19</ele>
        <time>2010-08-13T18:34:11Z</time>
      </trkpt>
      <trkpt lat="47.35029" lon="-0.75643">
        <ele>19</ele>
        <time>2010-08-13T18:34:16Z</time>
      </trkpt>
      <trkpt lat="47.35054" lon="-0.75608">
        <ele>19</ele>
        <time>2010-08-13T18:34:21Z</time>
      </trkpt>
      <trkpt lat="47.35049" lon="-0.75553">
        <ele>18</ele>
        <time>2010-08-13T18:34:26Z</time>
      </trkpt>
      <trkpt lat="47.35041" lon="-0.7549">
        <ele>18</ele>
        <time>2010-08-13T18:34:31Z</time>
      </trkpt>
      <trkpt lat="47.35034" lon="-0.75438">
        <ele>17</ele>
        <time>2010-08-13T18:34:36Z</time>
      </trkpt>
      <trkpt lat="47.35029" lon="-0.75392">
        <ele>15</ele>
        <time>2010-08-13T18:34:41Z</time>
      </trkpt>
      <trkpt lat="47.35022" lon="-0.75332">
        <ele>15</ele>
        <time>2010-08-13T18:34:46Z</time>
      </trkpt>
      <trkpt lat="47.35013" lon="-0.75261">
        <ele>15</ele>
        <time>2010-08-13T18:34:51Z</time>
      </trkpt>
      <trkpt lat="47.35006" lon="-0.75204">
        <ele>14</ele>
        <time>2010-08-13T18:34:56Z</time>
      </trkpt>
      <trkpt lat="47.35" lon="-0.75159">
        <ele>13</ele>
        <time>2010-08-13T18:35:01Z</time>
      </trkpt>
      <trkpt lat="47.34995" lon="-0.75102">
        <ele>11</ele>
        <time>2010-08-13T18:35:06Z</time>
      </trkpt>
      <trkpt lat="47.34996" lon="-0.75033">
        <ele>12</ele>
        <time>2010-08-13T18:35:11Z</time>
      </trkpt>
      <trkpt lat="47.35004" lon="-0.74978">
        <ele>15</ele>
        <time>2010-08-13T18:35:16Z</time>
      </trkpt>
      <trkpt lat="47.35019" lon="-0.74926">
        <ele>15</ele>
        <time>2010-08-13T18:35:21Z</time>
      </trkpt>
      <trkpt lat="47.35032" lon="-0.74886">
        <ele>16</ele>
        <time>2010-08-13T18:35:26Z</time>
      </trkpt>
      <trkpt lat="47.35044" lon="-0.74834">
        <ele>17</ele>
        <time>2010-08-13T18:35:31Z</time>
      </trkpt>
      <trkpt lat="47.35049" lon="-0.74768">
        <ele>20</ele>
        <time>2010-08-13T18:35:36Z</time>
      </trkpt>
      <trkpt lat="47.35054" lon="-0.74713">
        <ele>22</ele>
        <time>2010-08-13T18:35:41Z</time>
      </trkpt>
      <trkpt lat="47.35057" lon="-0.74669">
        <ele>22</ele>
        <time>2010-08-13T18:35:46Z</time>
      </trkpt>
      <trkpt lat="47.35061" lon="-0.7461">
        <ele>25</ele>
        <time>2010-08-13T18:35:51Z</time>
      </trkpt>
      <trkpt lat="47.35068" lon="-0.74555">
        <ele>27</ele>
        <time>2010-08-13T18:35:56Z</time>
      </trkpt>
      <trkpt lat="47.35076" lon="-0.74492">
        <ele>26</ele>
        <time>2010-08-13T18:36:01Z</time>
      </trkpt>
      <trkpt lat="47.35078" lon="-0.74433">
        <ele>28</ele>
        <time>2010-08-13T18:36:06Z</time>
      </trkpt>
      <trkpt lat="47.35076" lon="-0.74386">
        <ele>29</ele>
        <time>2010-08-13T18:36:11Z</time>
      </trkpt>
      <trkpt lat="47.35073" lon="-0.74329">
        <ele>25</ele>
        <time>2010-08-13T18:36:16Z</time>
      </trkpt>
      <trkpt lat="47.35061" lon="-0.74267">
        <ele>28</ele>
        <time>2010-08-13T18:36:21Z</time>
      </trkpt>
      <trkpt lat="47.35053" lon="-0.74214">
        <ele>30</ele>
        <time>2010-08-13T18:36:26Z</time>
      </trkpt>
      <trkpt lat="47.35052" lon="-0.74169">
        <ele>29</ele>
        <time>2010-08-13T18:36:31Z</time>
      </trkpt>
      <trkpt lat="47.35045" lon="-0.74114">
        <ele>29</ele>
        <time>2010-08-13T18:36:36Z</time>
      </trkpt>
      <trkpt lat="47.35039" lon="-0.7406">
        <ele>26</ele>
        <time>2010-08-13T18:36:41Z</time>
      </trkpt>
      <trkpt lat="47.35024" lon="-0.73997">
        <ele>23</ele>
        <time>2010-08-13T18:36:46Z</time>
      </trkpt>
      <trkpt lat="47.35007" lon="-0.73946">
        <ele>21</ele>
        <time>2010-08-13T18:36:51Z</time>
      </trkpt>
      <trkpt lat="47.34994" lon="-0.73906">
        <ele>24</ele>
        <time>2010-08-13T18:36:56Z</time>
      </trkpt>
      <trkpt lat="47.34978" lon="-0.73855">
        <ele>27</ele>
        <time>2010-08-13T18:37:01Z</time>
      </trkpt>
      <trkpt lat="47.34961" lon="-0.73804">
        <ele>25</ele>
        <time>2010-08-13T18:37:06Z</time>
      </trkpt>
      <trkpt lat="47.34936" lon="-0.73746">
        <ele>24</ele>
        <time>2010-08-13T18:37:11Z</time>
      </trkpt>
      <trkpt lat="47.34933" lon="-0.73692">
        <ele>22</ele>
        <time>2010-08-13T18:37:16Z</time>
      </trkpt>
      <trkpt lat="47.3494" lon="-0.73651">
        <ele>20</ele>
        <time>2010-08-13T18:37:21Z</time>
      </trkpt>
      <trkpt lat="47.34943" lon="-0.73597">
        <ele>19</ele>
        <time>2010-08-13T18:37:26Z</time>
      </trkpt>
      <trkpt lat="47.34909" lon="-0.73555">
        <ele>25</ele>
        <time>2010-08-13T18:37:31Z</time>
      </trkpt>
      <trkpt lat="47.34895" lon="-0.73501">
        <ele>24</ele>
        <time>2010-08-13T18:37:36Z</time>
      </trkpt>
      <trkpt lat="47.34898" lon="-0.73439">
        <ele>24</ele>
        <time>2010-08-13T18:37:41Z</time>
      </trkpt>
      <trkpt lat="47.34896" lon="-0.7339">
        <ele>26</ele>
        <time>2010-08-13T18:37:46Z</time>
      </trkpt>
      <trkpt lat="47.34895" lon="-0.73327">
        <ele>27</ele>
        <time>2010-08-13T18:37:51Z</time>
      </trkpt>
      <trkpt lat="47.34881" lon="-0.73258">
        <ele>29</ele>
        <time>2010-08-13T18:37:56Z</time>
      </trkpt>
      <trkpt lat="47.34873" lon="-0.73202">
        <ele>27</ele>
        <time>2010-08-13T18:38:01Z</time>
      </trkpt>
      <trkpt lat="47.34871" lon="-0.7316">
        <ele>24</ele>
        <time>2010-08-13T18:38:06Z</time>
      </trkpt>
      <trkpt lat="47.34861" lon="-0.73114">
        <ele>25</ele>
        <time>2010-08-13T18:38:11Z</time>
      </trkpt>
      <trkpt lat="47.34856" lon="-0.73054">
        <ele>26</ele>
        <time>2010-08-13T18:38:16Z</time>
      </trkpt>
      <trkpt lat="47.34863" lon="-0.73">
        <ele>27</ele>
        <time>2010-08-13T18:38:21Z</time>
      </trkpt>
      <trkpt lat="47.34863" lon="-0.72942">
        <ele>25</ele>
        <time>2010-08-13T18:38:26Z</time>
      </trkpt>
      <trkpt lat="47.34849" lon="-0.72899">
        <ele>24</ele>
        <time>2010-08-13T18:38:31Z</time>
      </trkpt>
      <trkpt lat="47.34823" lon="-0.72851">
        <ele>29</ele>
        <time>2010-08-13T18:38:36Z</time>
      </trkpt>
      <trkpt lat="47.34803" lon="-0.7279">
        <ele>29</ele>
        <time>2010-08-13T18:38:41Z</time>
      </trkpt>
      <trkpt lat="47.34791" lon="-0.72737">
        <ele>29</ele>
        <time>2010-08-13T18:38:46Z</time>
      </trkpt>
      <trkpt lat="47.34785" lon="-0.72693">
        <ele>29</ele>
        <time>2010-08-13T18:38:51Z</time>
      </trkpt>
      <trkpt lat="47.34779" lon="-0.72638">
        <ele>27</ele>
        <time>2010-08-13T18:38:56Z</time>
      </trkpt>
      <trkpt lat="47.34762" lon="-0.72577">
        <ele>28</ele>
        <time>2010-08-13T18:39:01Z</time>
      </trkpt>
      <trkpt lat="47.34752" lon="-0.72525">
        <ele>25</ele>
        <time>2010-08-13T18:39:06Z</time>
      </trkpt>
      <trkpt lat="47.34748" lon="-0.72482">
        <ele>33</ele>
        <time>2010-08-13T18:39:11Z</time>
      </trkpt>
      <trkpt lat="47.34746" lon="-0.72423">
        <ele>28</ele>
        <time>2010-08-13T18:39:16Z</time>
      </trkpt>
      <trkpt lat="47.34746" lon="-0.72362">
        <ele>31</ele>
        <time>2010-08-13T18:39:21Z</time>
      </trkpt>
      <trkpt lat="47.34744" lon="-0.72301">
        <ele>29</ele>
        <time>2010-08-13T18:39:26Z</time>
      </trkpt>
      <trkpt lat="47.34724" lon="-0.72234">
        <ele>29</ele>
        <time>2010-08-13T18:39:31Z</time>
      </trkpt>
      <trkpt lat="47.34709" lon="-0.72192">
        <ele>32</ele>
        <time>2010-08-13T18:39:36Z</time>
      </trkpt>
      <trkpt lat="47.34695" lon="-0.72136">
        <ele>32</ele>
        <time>2010-08-13T18:39:41Z</time>
      </trkpt>
      <trkpt lat="47.34683" lon="-0.7208">
        <ele>34</ele>
        <time>2010-08-13T18:39:46Z</time>
      </trkpt>
      <trkpt lat="47.34677" lon="-0.72012">
        <ele>30</ele>
        <time>2010-08-13T18:39:51Z</time>
      </trkpt>
      <trkpt lat="47.34674" lon="-0.71965">
        <ele>24</ele>
        <time>2010-08-13T18:39:56Z</time>
      </trkpt>
      <trkpt lat="47.3467" lon="-0.71906">
        <ele>22</ele>
        <time>2010-08-13T18:40:01Z</time>
      </trkpt>
      <trkpt lat="47.34655" lon="-0.71851">
        <ele>29</ele>
        <time>2010-08-13T18:40:06Z</time>
      </trkpt>
      <trkpt lat="47.34631" lon="-0.71789">
        <ele>29</ele>
        <time>2010-08-13T18:40:11Z</time>
      </trkpt>
      <trkpt lat="47.34611" lon="-0.71741">
        <ele>26</ele>
        <time>2010-08-13T18:40:16Z</time>
      </trkpt>
      <trkpt lat="47.34588" lon="-0.71716">
        <ele>26</ele>
        <time>2010-08-13T18:40:21Z</time>
      </trkpt>
      <trkpt lat="47.34562" lon="-0.71691">
        <ele>38</ele>
        <time>2010-08-13T18:40:26Z</time>
      </trkpt>
      <trkpt lat="47.34542" lon="-0.71666">
        <ele>36</ele>
        <time>2010-08-13T18:40:31Z</time>
      </trkpt>
      <trkpt lat="47.34531" lon="-0.71631">
        <ele>36</ele>
        <time>2010-08-13T18:40:36Z</time>
      </trkpt>
      <trkpt lat="47.3453" lon="-0.71596">
        <ele>35</ele>
        <time>2010-08-13T18:40:41Z</time>
      </trkpt>
      <trkpt lat="47.34527" lon="-0.71568">
        <ele>31</ele>
        <time>2010-08-13T18:40:46Z</time>
      </trkpt>
      <trkpt lat="47.34517" lon="-0.71537">
        <ele>30</ele>
        <time>2010-08-13T18:40:51Z</time>
      </trkpt>
      <trkpt lat="47.34507" lon="-0.71499">
        <ele>31</ele>
        <time>2010-08-13T18:40:56Z</time>
      </trkpt>
      <trkpt lat="47.34496" lon="-0.71469">
        <ele>39</ele>
        <time>2010-08-13T18:41:01Z</time>
      </trkpt>
      <trkpt lat="47.34485" lon="-0.71444">
        <ele>38</ele>
        <time>2010-08-13T18:41:06Z</time>
      </trkpt>
      <trkpt lat="47.34472" lon="-0.71414">
        <ele>33</ele>
        <time>2010-08-13T18:41:11Z</time>
      </trkpt>
      <trkpt lat="47.34458" lon="-0.71378">
        <ele>35</ele>
        <time>2010-08-13T18:41:16Z</time>
      </trkpt>
      <trkpt lat="47.34447" lon="-0.71347">
        <ele>36</ele>
        <time>2010-08-13T18:41:21Z</time>
      </trkpt>
      <trkpt lat="47.34436" lon="-0.71316">
        <ele>34</ele>
        <time>2010-08-13T18:41:26Z</time>
      </trkpt>
      <trkpt lat="47.34428" lon="-0.71292">
        <ele>33</ele>
        <time>2010-08-13T18:41:31Z</time>
      </trkpt>
      <trkpt lat="47.34418" lon="-0.71262">
        <ele>35</ele>
        <time>2010-08-13T18:41:36Z</time>
      </trkpt>
      <trkpt lat="47.34405" lon="-0.71225">
        <ele>44</ele>
        <time>2010-08-13T18:41:41Z</time>
      </trkpt>
      <trkpt lat="47.34395" lon="-0.71193">
        <ele>44</ele>
        <time>2010-08-13T18:41:46Z</time>
      </trkpt>
      <trkpt lat="47.34388" lon="-0.71167">
        <ele>43</ele>
        <time>2010-08-13T18:41:51Z</time>
      </trkpt>
      <trkpt lat="47.34382" lon="-0.71135">
        <ele>41</ele>
        <time>2010-08-13T18:41:56Z</time>
      </trkpt>
      <trkpt lat="47.34379" lon="-0.71102">
        <ele>40</ele>
        <time>2010-08-13T18:42:01Z</time>
      </trkpt>
      <trkpt lat="47.34374" lon="-0.71063">
        <ele>35</ele>
        <time>2010-08-13T18:42:06Z</time>
      </trkpt>
      <trkpt lat="47.3436" lon="-0.71037">
        <ele>35</ele>
        <time>2010-08-13T18:42:11Z</time>
      </trkpt>
      <trkpt lat="47.34344" lon="-0.71026">
        <ele>36</ele>
        <time>2010-08-13T18:42:16Z</time>
      </trkpt>
      <trkpt lat="47.34319" lon="-0.71026">
        <ele>42</ele>
        <time>2010-08-13T18:42:21Z</time>
      </trkpt>
      <trkpt lat="47.34295" lon="-0.71035">
        <ele>43</ele>
        <time>2010-08-13T18:42:26Z</time>
      </trkpt>
      <trkpt lat="47.3427" lon="-0.71056">
        <ele>44</ele>
        <time>2010-08-13T18:42:31Z</time>
      </trkpt>
      <trkpt lat="47.34251" lon="-0.71077">
        <ele>47</ele>
        <time>2010-08-13T18:42:36Z</time>
      </trkpt>
      <trkpt lat="47.3424" lon="-0.71101">
        <ele>49</ele>
        <time>2010-08-13T18:42:41Z</time>
      </trkpt>
      <trkpt lat="47.34233" lon="-0.71132">
        <ele>50</ele>
        <time>2010-08-13T18:42:46Z</time>
      </trkpt>
      <trkpt lat="47.34224" lon="-0.7117">
        <ele>54</ele>
        <time>2010-08-13T18:42:51Z</time>
      </trkpt>
      <trkpt lat="47.34207" lon="-0.71194">
        <ele>54</ele>
        <time>2010-08-13T18:42:56Z</time>
      </trkpt>
      <trkpt lat="47.3419" lon="-0.712">
        <ele>54</ele>
        <time>2010-08-13T18:43:01Z</time>
      </trkpt>
      <trkpt lat="47.34167" lon="-0.71194">
        <ele>52</ele>
        <time>2010-08-13T18:43:06Z</time>
      </trkpt>
      <trkpt lat="47.3414" lon="-0.71181">
        <ele>51</ele>
        <time>2010-08-13T18:43:11Z</time>
      </trkpt>
      <trkpt lat="47.34117" lon="-0.71183">
        <ele>52</ele>
        <time>2010-08-13T18:43:16Z</time>
      </trkpt>
      <trkpt lat="47.34098" lon="-0.71197">
        <ele>53</ele>
        <time>2010-08-13T18:43:21Z</time>
      </trkpt>
      <trkpt lat="47.34074" lon="-0.71211">
        <ele>57</ele>
        <time>2010-08-13T18:43:26Z</time>
      </trkpt>
      <trkpt lat="47.34051" lon="-0.71208">
        <ele>58</ele>
        <time>2010-08-13T18:43:31Z</time>
      </trkpt>
      <trkpt lat="47.34032" lon="-0.71173">
        <ele>58</ele>
        <time>2010-08-13T18:43:36Z</time>
      </trkpt>
      <trkpt lat="47.34021" lon="-0.71139">
        <ele>56</ele>
        <time>2010-08-13T18:43:41Z</time>
      </trkpt>
      <trkpt lat="47.34013" lon="-0.71111">
        <ele>57</ele>
        <time>2010-08-13T18:43:46Z</time>
      </trkpt>
      <trkpt lat="47.34002" lon="-0.71077">
        <ele>58</ele>
        <time>2010-08-13T18:43:51Z</time>
      </trkpt>
      <trkpt lat="47.33992" lon="-0.71035">
        <ele>61</ele>
        <time>2010-08-13T18:43:56Z</time>
      </trkpt>
      <trkpt lat="47.33997" lon="-0.70998">
        <ele>60</ele>
        <time>2010-08-13T18:44:01Z</time>
      </trkpt>
      <trkpt lat="47.34008" lon="-0.70957">
        <ele>61</ele>
        <time>2010-08-13T18:44:06Z</time>
      </trkpt>
      <trkpt lat="47.3402" lon="-0.7092">
        <ele>61</ele>
        <time>2010-08-13T18:44:11Z</time>
      </trkpt>
      <trkpt lat="47.3403" lon="-0.70872">
        <ele>61</ele>
        <time>2010-08-13T18:44:16Z</time>
      </trkpt>
      <trkpt lat="47.34037" lon="-0.70812">
        <ele>60</ele>
        <time>2010-08-13T18:44:21Z</time>
      </trkpt>
      <trkpt lat="47.34041" lon="-0.70765">
        <ele>59</ele>
        <time>2010-08-13T18:44:26Z</time>
      </trkpt>
      <trkpt lat="47.34047" lon="-0.70721">
        <ele>60</ele>
        <time>2010-08-13T18:44:31Z</time>
      </trkpt>
      <trkpt lat="47.34052" lon="-0.70684">
        <ele>61</ele>
        <time>2010-08-13T18:44:36Z</time>
      </trkpt>
      <trkpt lat="47.34059" lon="-0.70637">
        <ele>63</ele>
        <time>2010-08-13T18:44:41Z</time>
      </trkpt>
      <trkpt lat="47.34068" lon="-0.70579">
        <ele>65</ele>
        <time>2010-08-13T18:44:46Z</time>
      </trkpt>
      <trkpt lat="47.34075" lon="-0.70531">
        <ele>65</ele>
        <time>2010-08-13T18:44:51Z</time>
      </trkpt>
      <trkpt lat="47.34082" lon="-0.70491">
        <ele>65</ele>
        <time>2010-08-13T18:44:56Z</time>
      </trkpt>
      <trkpt lat="47.34089" lon="-0.70443">
        <ele>64</ele>
        <time>2010-08-13T18:45:01Z</time>
      </trkpt>
      <trkpt lat="47.34098" lon="-0.70393">
        <ele>64</ele>
        <time>2010-08-13T18:45:06Z</time>
      </trkpt>
      <trkpt lat="47.34108" lon="-0.70327">
        <ele>63</ele>
        <time>2010-08-13T18:45:11Z</time>
      </trkpt>
      <trkpt lat="47.34113" lon="-0.70292">
        <ele>63</ele>
        <time>2010-08-13T18:45:16Z</time>
      </trkpt>
      <trkpt lat="47.34123" lon="-0.70218">
        <ele>62</ele>
        <time>2010-08-13T18:45:21Z</time>
      </trkpt>
      <trkpt lat="47.34117" lon="-0.70141">
        <ele>60</ele>
        <time>2010-08-13T18:45:26Z</time>
      </trkpt>
      <trkpt lat="47.34107" lon="-0.70079">
        <ele>59</ele>
        <time>2010-08-13T18:45:31Z</time>
      </trkpt>
      <trkpt lat="47.34104" lon="-0.70018">
        <ele>59</ele>
        <time>2010-08-13T18:45:36Z</time>
      </trkpt>
      <trkpt lat="47.34106" lon="-0.69972">
        <ele>60</ele>
        <time>2010-08-13T18:45:41Z</time>
      </trkpt>
      <trkpt lat="47.34109" lon="-0.69919">
        <ele>60</ele>
        <time>2010-08-13T18:45:46Z</time>
      </trkpt>
      <trkpt lat="47.34111" lon="-0.69854">
        <ele>61</ele>
        <time>2010-08-13T18:45:51Z</time>
      </trkpt>
      <trkpt lat="47.34113" lon="-0.69799">
        <ele>62</ele>
        <time>2010-08-13T18:45:56Z</time>
      </trkpt>
      <trkpt lat="47.34115" lon="-0.69757">
        <ele>63</ele>
        <time>2010-08-13T18:46:01Z</time>
      </trkpt>
      <trkpt lat="47.34118" lon="-0.69706">
        <ele>65</ele>
        <time>2010-08-13T18:46:06Z</time>
      </trkpt>
      <trkpt lat="47.3412" lon="-0.69656">
        <ele>66</ele>
        <time>2010-08-13T18:46:11Z</time>
      </trkpt>
      <trkpt lat="47.34124" lon="-0.69592">
        <ele>66</ele>
        <time>2010-08-13T18:46:16Z</time>
      </trkpt>
      <trkpt lat="47.34128" lon="-0.69537">
        <ele>65</ele>
        <time>2010-08-13T18:46:21Z</time>
      </trkpt>
      <trkpt lat="47.34132" lon="-0.69489">
        <ele>63</ele>
        <time>2010-08-13T18:46:26Z</time>
      </trkpt>
      <trkpt lat="47.34134" lon="-0.69427">
        <ele>63</ele>
        <time>2010-08-13T18:46:31Z</time>
      </trkpt>
      <trkpt lat="47.34142" lon="-0.69361">
        <ele>63</ele>
        <time>2010-08-13T18:46:36Z</time>
      </trkpt>
      <trkpt lat="47.34181" lon="-0.693">
        <ele>60</ele>
        <time>2010-08-13T18:46:41Z</time>
      </trkpt>
      <trkpt lat="47.34222" lon="-0.69258">
        <ele>58</ele>
        <time>2010-08-13T18:46:46Z</time>
      </trkpt>
      <trkpt lat="47.34256" lon="-0.69225">
        <ele>56</ele>
        <time>2010-08-13T18:46:51Z</time>
      </trkpt>
      <trkpt lat="47.34293" lon="-0.69186">
        <ele>56</ele>
        <time>2010-08-13T18:46:56Z</time>
      </trkpt>
      <trkpt lat="47.34334" lon="-0.6915">
        <ele>56</ele>
        <time>2010-08-13T18:47:01Z</time>
      </trkpt>
      <trkpt lat="47.34375" lon="-0.69154">
        <ele>55</ele>
        <time>2010-08-13T18:47:06Z</time>
      </trkpt>
      <trkpt lat="47.34406" lon="-0.69136">
        <ele>54</ele>
        <time>2010-08-13T18:47:11Z</time>
      </trkpt>
      <trkpt lat="47.34428" lon="-0.69083">
        <ele>54</ele>
        <time>2010-08-13T18:47:16Z</time>
      </trkpt>
      <trkpt lat="47.34446" lon="-0.69025">
        <ele>53</ele>
        <time>2010-08-13T18:47:21Z</time>
      </trkpt>
      <trkpt lat="47.34468" lon="-0.68955">
        <ele>52</ele>
        <time>2010-08-13T18:47:26Z</time>
      </trkpt>
      <trkpt lat="47.3447" lon="-0.68889">
        <ele>51</ele>
        <time>2010-08-13T18:47:31Z</time>
      </trkpt>
      <trkpt lat="47.34458" lon="-0.68838">
        <ele>51</ele>
        <time>2010-08-13T18:47:36Z</time>
      </trkpt>
      <trkpt lat="47.34449" lon="-0.68771">
        <ele>51</ele>
        <time>2010-08-13T18:47:41Z</time>
      </trkpt>
      <trkpt lat="47.34451" lon="-0.68698">
        <ele>52</ele>
        <time>2010-08-13T18:47:46Z</time>
      </trkpt>
      <trkpt lat="47.34469" lon="-0.68611">
        <ele>51</ele>
        <time>2010-08-13T18:47:51Z</time>
      </trkpt>
      <trkpt lat="47.34481" lon="-0.68549">
        <ele>50</ele>
        <time>2010-08-13T18:47:56Z</time>
      </trkpt>
      <trkpt lat="47.34473" lon="-0.68472">
        <ele>48</ele>
        <time>2010-08-13T18:48:01Z</time>
      </trkpt>
      <trkpt lat="47.34457" lon="-0.68398">
        <ele>51</ele>
        <time>2010-08-13T18:48:06Z</time>
      </trkpt>
      <trkpt lat="47.34513" lon="-0.68386">
        <ele>41</ele>
        <time>2010-08-13T18:48:11Z</time>
      </trkpt>
      <trkpt lat="47.34561" lon="-0.6835">
        <ele>37</ele>
        <time>2010-08-13T18:48:16Z</time>
      </trkpt>
      <trkpt lat="47.34569" lon="-0.68287">
        <ele>46</ele>
        <time>2010-08-13T18:48:21Z</time>
      </trkpt>
      <trkpt lat="47.3459" lon="-0.68216">
        <ele>38</ele>
        <time>2010-08-13T18:48:26Z</time>
      </trkpt>
      <trkpt lat="47.34617" lon="-0.6815">
        <ele>41</ele>
        <time>2010-08-13T18:48:31Z</time>
      </trkpt>
      <trkpt lat="47.34638" lon="-0.68059">
        <ele>41</ele>
        <time>2010-08-13T18:48:36Z</time>
      </trkpt>
      <trkpt lat="47.34653" lon="-0.68">
        <ele>37</ele>
        <time>2010-08-13T18:48:41Z</time>
      </trkpt>
      <trkpt lat="47.34663" lon="-0.67925">
        <ele>39</ele>
        <time>2010-08-13T18:48:46Z</time>
      </trkpt>
      <trkpt lat="47.34664" lon="-0.67849">
        <ele>42</ele>
        <time>2010-08-13T18:48:51Z</time>
      </trkpt>
      <trkpt lat="47.34691" lon="-0.67763">
        <ele>31</ele>
        <time>2010-08-13T18:48:56Z</time>
      </trkpt>
      <trkpt lat="47.34729" lon="-0.67704">
        <ele>30</ele>
        <time>2010-08-13T18:49:01Z</time>
      </trkpt>
      <trkpt lat="47.34752" lon="-0.67647">
        <ele>25</ele>
        <time>2010-08-13T18:49:06Z</time>
      </trkpt>
      <trkpt lat="47.34772" lon="-0.67573">
        <ele>25</ele>
        <time>2010-08-13T18:49:11Z</time>
      </trkpt>
      <trkpt lat="47.34774" lon="-0.67481">
        <ele>23</ele>
        <time>2010-08-13T18:49:16Z</time>
      </trkpt>
      <trkpt lat="47.34771" lon="-0.67405">
        <ele>22</ele>
        <time>2010-08-13T18:49:21Z</time>
      </trkpt>
      <trkpt lat="47.34781" lon="-0.67347">
        <ele>23</ele>
        <time>2010-08-13T18:49:26Z</time>
      </trkpt>
      <trkpt lat="47.34811" lon="-0.67289">
        <ele>23</ele>
        <time>2010-08-13T18:49:31Z</time>
      </trkpt>
      <trkpt lat="47.34838" lon="-0.67246">
        <ele>19</ele>
        <time>2010-08-13T18:49:36Z</time>
      </trkpt>
      <trkpt lat="47.34869" lon="-0.67197">
        <ele>20</ele>
        <time>2010-08-13T18:49:41Z</time>
      </trkpt>
      <trkpt lat="47.34895" lon="-0.67155">
        <ele>21</ele>
        <time>2010-08-13T18:49:46Z</time>
      </trkpt>
      <trkpt lat="47.34915" lon="-0.6712">
        <ele>21</ele>
        <time>2010-08-13T18:49:51Z</time>
      </trkpt>
      <trkpt lat="47.3494" lon="-0.67077">
        <ele>20</ele>
        <time>2010-08-13T18:49:56Z</time>
      </trkpt>
      <trkpt lat="47.3497" lon="-0.67026">
        <ele>20</ele>
        <time>2010-08-13T18:50:01Z</time>
      </trkpt>
      <trkpt lat="47.34995" lon="-0.66985">
        <ele>21</ele>
        <time>2010-08-13T18:50:06Z</time>
      </trkpt>
      <trkpt lat="47.3502" lon="-0.66943">
        <ele>20</ele>
        <time>2010-08-13T18:50:11Z</time>
      </trkpt>
      <trkpt lat="47.35039" lon="-0.6691">
        <ele>20</ele>
        <time>2010-08-13T18:50:16Z</time>
      </trkpt>
      <trkpt lat="47.35063" lon="-0.66868">
        <ele>20</ele>
        <time>2010-08-13T18:50:21Z</time>
      </trkpt>
      <trkpt lat="47.35093" lon="-0.66818">
        <ele>19</ele>
        <time>2010-08-13T18:50:26Z</time>
      </trkpt>
      <trkpt lat="47.35118" lon="-0.66775">
        <ele>19</ele>
        <time>2010-08-13T18:50:31Z</time>
      </trkpt>
      <trkpt lat="47.35143" lon="-0.66733">
        <ele>19</ele>
        <time>2010-08-13T18:50:36Z</time>
      </trkpt>
      <trkpt lat="47.35163" lon="-0.66699">
        <ele>20</ele>
        <time>2010-08-13T18:50:41Z</time>
      </trkpt>
      <trkpt lat="47.35188" lon="-0.66656">
        <ele>19</ele>
        <time>2010-08-13T18:50:46Z</time>
      </trkpt>
      <trkpt lat="47.35217" lon="-0.66606">
        <ele>19</ele>
        <time>2010-08-13T18:50:51Z</time>
      </trkpt>
      <trkpt lat="47.35242" lon="-0.66564">
        <ele>19</ele>
        <time>2010-08-13T18:50:56Z</time>
      </trkpt>
      <trkpt lat="47.35261" lon="-0.66531">
        <ele>20</ele>
        <time>2010-08-13T18:51:01Z</time>
      </trkpt>
      <trkpt lat="47.35285" lon="-0.6649">
        <ele>22</ele>
        <time>2010-08-13T18:51:06Z</time>
      </trkpt>
      <trkpt lat="47.35318" lon="-0.66446">
        <ele>23</ele>
        <time>2010-08-13T18:51:11Z</time>
      </trkpt>
      <trkpt lat="47.35351" lon="-0.66418">
        <ele>22</ele>
        <time>2010-08-13T18:51:16Z</time>
      </trkpt>
      <trkpt lat="47.35385" lon="-0.66397">
        <ele>23</ele>
        <time>2010-08-13T18:51:21Z</time>
      </trkpt>
      <trkpt lat="47.35413" lon="-0.6638">
        <ele>23</ele>
        <time>2010-08-13T18:51:26Z</time>
      </trkpt>
      <trkpt lat="47.35454" lon="-0.66354">
        <ele>21</ele>
        <time>2010-08-13T18:51:31Z</time>
      </trkpt>
      <trkpt lat="47.35487" lon="-0.66325">
        <ele>22</ele>
        <time>2010-08-13T18:51:36Z</time>
      </trkpt>
      <trkpt lat="47.35517" lon="-0.66286">
        <ele>20</ele>
        <time>2010-08-13T18:51:41Z</time>
      </trkpt>
      <trkpt lat="47.3554" lon="-0.66251">
        <ele>20</ele>
        <time>2010-08-13T18:51:46Z</time>
      </trkpt>
      <trkpt lat="47.35567" lon="-0.66206">
        <ele>20</ele>
        <time>2010-08-13T18:51:51Z</time>
      </trkpt>
      <trkpt lat="47.35592" lon="-0.66146">
        <ele>20</ele>
        <time>2010-08-13T18:51:56Z</time>
      </trkpt>
      <trkpt lat="47.35605" lon="-0.6609">
        <ele>20</ele>
        <time>2010-08-13T18:52:01Z</time>
      </trkpt>
      <trkpt lat="47.35619" lon="-0.66034">
        <ele>21</ele>
        <time>2010-08-13T18:52:06Z</time>
      </trkpt>
      <trkpt lat="47.3563" lon="-0.6599">
        <ele>22</ele>
        <time>2010-08-13T18:52:11Z</time>
      </trkpt>
      <trkpt lat="47.35647" lon="-0.65926">
        <ele>22</ele>
        <time>2010-08-13T18:52:16Z</time>
      </trkpt>
      <trkpt lat="47.35661" lon="-0.65872">
        <ele>24</ele>
        <time>2010-08-13T18:52:21Z</time>
      </trkpt>
      <trkpt lat="47.35674" lon="-0.65818">
        <ele>24</ele>
        <time>2010-08-13T18:52:26Z</time>
      </trkpt>
      <trkpt lat="47.35684" lon="-0.65772">
        <ele>24</ele>
        <time>2010-08-13T18:52:31Z</time>
      </trkpt>
      <trkpt lat="47.35698" lon="-0.65718">
        <ele>25</ele>
        <time>2010-08-13T18:52:36Z</time>
      </trkpt>
      <trkpt lat="47.35711" lon="-0.65664">
        <ele>26</ele>
        <time>2010-08-13T18:52:41Z</time>
      </trkpt>
      <trkpt lat="47.35726" lon="-0.656">
        <ele>26</ele>
        <time>2010-08-13T18:52:46Z</time>
      </trkpt>
      <trkpt lat="47.35728" lon="-0.6559">
        <ele>26</ele>
        <time>2010-08-13T18:52:51Z</time>
      </trkpt>
      <trkpt lat="47.35728" lon="-0.65591">
        <ele>26</ele>
        <time>2010-08-13T18:52:56Z</time>
      </trkpt>
      <trkpt lat="47.3573" lon="-0.65593">
        <ele>26</ele>
        <time>2010-08-13T18:53:01Z</time>
      </trkpt>
      <trkpt lat="47.3573" lon="-0.65594">
        <ele>26</ele>
        <time>2010-08-13T18:53:06Z</time>
      </trkpt>
      <trkpt lat="47.35732" lon="-0.65594">
        <ele>26</ele>
        <time>2010-08-13T18:53:11Z</time>
      </trkpt>
      <trkpt lat="47.35731" lon="-0.65594">
        <ele>26</ele>
        <time>2010-08-13T18:53:16Z</time>
      </trkpt>
      <trkpt lat="47.35731" lon="-0.65594">
        <ele>26</ele>
        <time>2010-08-13T18:53:21Z</time>
      </trkpt>
      <trkpt lat="47.35732" lon="-0.65594">
        <ele>26</ele>
        <time>2010-08-13T18:53:26Z</time>
      </trkpt>
      <trkpt lat="47.35736" lon="-0.65574">
        <ele>26</ele>
        <time>2010-08-13T18:53:31Z</time>
      </trkpt>
      <trkpt lat="47.35747" lon="-0.65527">
        <ele>27</ele>
        <time>2010-08-13T18:53:36Z</time>
      </trkpt>
      <trkpt lat="47.35757" lon="-0.65485">
        <ele>25</ele>
        <time>2010-08-13T18:53:41Z</time>
      </trkpt>
      <trkpt lat="47.35768" lon="-0.65433">
        <ele>25</ele>
        <time>2010-08-13T18:53:46Z</time>
      </trkpt>
      <trkpt lat="47.35783" lon="-0.65373">
        <ele>25</ele>
        <time>2010-08-13T18:53:51Z</time>
      </trkpt>
      <trkpt lat="47.35795" lon="-0.65323">
        <ele>26</ele>
        <time>2010-08-13T18:53:56Z</time>
      </trkpt>
      <trkpt lat="47.35807" lon="-0.65271">
        <ele>26</ele>
        <time>2010-08-13T18:54:01Z</time>
      </trkpt>
      <trkpt lat="47.35817" lon="-0.6523">
        <ele>26</ele>
        <time>2010-08-13T18:54:06Z</time>
      </trkpt>
      <trkpt lat="47.3583" lon="-0.65178">
        <ele>25</ele>
        <time>2010-08-13T18:54:11Z</time>
      </trkpt>
      <trkpt lat="47.35845" lon="-0.65113">
        <ele>25</ele>
        <time>2010-08-13T18:54:16Z</time>
      </trkpt>
      <trkpt lat="47.35857" lon="-0.65059">
        <ele>26</ele>
        <time>2010-08-13T18:54:21Z</time>
      </trkpt>
      <trkpt lat="47.35866" lon="-0.65018">
        <ele>26</ele>
        <time>2010-08-13T18:54:26Z</time>
      </trkpt>
      <trkpt lat="47.35878" lon="-0.64967">
        <ele>27</ele>
        <time>2010-08-13T18:54:31Z</time>
      </trkpt>
      <trkpt lat="47.35896" lon="-0.64909">
        <ele>28</ele>
        <time>2010-08-13T18:54:36Z</time>
      </trkpt>
      <trkpt lat="47.35917" lon="-0.64863">
        <ele>29</ele>
        <time>2010-08-13T18:54:41Z</time>
      </trkpt>
      <trkpt lat="47.35936" lon="-0.64818">
        <ele>28</ele>
        <time>2010-08-13T18:54:46Z</time>
      </trkpt>
      <trkpt lat="47.3595" lon="-0.64781">
        <ele>28</ele>
        <time>2010-08-13T18:54:51Z</time>
      </trkpt>
      <trkpt lat="47.35966" lon="-0.64729">
        <ele>29</ele>
        <time>2010-08-13T18:54:56Z</time>
      </trkpt>
      <trkpt lat="47.35981" lon="-0.64662">
        <ele>29</ele>
        <time>2010-08-13T18:55:01Z</time>
      </trkpt>
      <trkpt lat="47.35995" lon="-0.64607">
        <ele>28</ele>
        <time>2010-08-13T18:55:06Z</time>
      </trkpt>
      <trkpt lat="47.36004" lon="-0.64565">
        <ele>27</ele>
        <time>2010-08-13T18:55:11Z</time>
      </trkpt>
      <trkpt lat="47.36018" lon="-0.64512">
        <ele>28</ele>
        <time>2010-08-13T18:55:16Z</time>
      </trkpt>
      <trkpt lat="47.36032" lon="-0.64461">
        <ele>28</ele>
        <time>2010-08-13T18:55:21Z</time>
      </trkpt>
      <trkpt lat="47.36052" lon="-0.64397">
        <ele>27</ele>
        <time>2010-08-13T18:55:26Z</time>
      </trkpt>
      <trkpt lat="47.3607" lon="-0.64342">
        <ele>26</ele>
        <time>2010-08-13T18:55:31Z</time>
      </trkpt>
      <trkpt lat="47.36087" lon="-0.64295">
        <ele>23</ele>
        <time>2010-08-13T18:55:36Z</time>
      </trkpt>
      <trkpt lat="47.3611" lon="-0.64234">
        <ele>21</ele>
        <time>2010-08-13T18:55:41Z</time>
      </trkpt>
      <trkpt lat="47.36138" lon="-0.64158">
        <ele>18</ele>
        <time>2010-08-13T18:55:46Z</time>
      </trkpt>
      <trkpt lat="47.36163" lon="-0.64092">
        <ele>17</ele>
        <time>2010-08-13T18:55:51Z</time>
      </trkpt>
      <trkpt lat="47.36181" lon="-0.64045">
        <ele>20</ele>
        <time>2010-08-13T18:55:56Z</time>
      </trkpt>
      <trkpt lat="47.36199" lon="-0.63997">
        <ele>24</ele>
        <time>2010-08-13T18:56:01Z</time>
      </trkpt>
      <trkpt lat="47.36213" lon="-0.63955">
        <ele>25</ele>
        <time>2010-08-13T18:56:06Z</time>
      </trkpt>
      <trkpt lat="47.3623" lon="-0.63909">
        <ele>29</ele>
        <time>2010-08-13T18:56:11Z</time>
      </trkpt>
      <trkpt lat="47.36244" lon="-0.63871">
        <ele>29</ele>
        <time>2010-08-13T18:56:16Z</time>
      </trkpt>
      <trkpt lat="47.36255" lon="-0.6384">
        <ele>29</ele>
        <time>2010-08-13T18:56:21Z</time>
      </trkpt>
      <trkpt lat="47.36269" lon="-0.63802">
        <ele>30</ele>
        <time>2010-08-13T18:56:26Z</time>
      </trkpt>
      <trkpt lat="47.36286" lon="-0.63757">
        <ele>31</ele>
        <time>2010-08-13T18:56:31Z</time>
      </trkpt>
      <trkpt lat="47.363" lon="-0.63718">
        <ele>32</ele>
        <time>2010-08-13T18:56:36Z</time>
      </trkpt>
      <trkpt lat="47.36311" lon="-0.63687">
        <ele>32</ele>
        <time>2010-08-13T18:56:41Z</time>
      </trkpt>
      <trkpt lat="47.36326" lon="-0.63649">
        <ele>32</ele>
        <time>2010-08-13T18:56:46Z</time>
      </trkpt>
      <trkpt lat="47.36343" lon="-0.63603">
        <ele>32</ele>
        <time>2010-08-13T18:56:51Z</time>
      </trkpt>
      <trkpt lat="47.36358" lon="-0.63562">
        <ele>32</ele>
        <time>2010-08-13T18:56:56Z</time>
      </trkpt>
      <trkpt lat="47.36373" lon="-0.63521">
        <ele>32</ele>
        <time>2010-08-13T18:57:01Z</time>
      </trkpt>
      <trkpt lat="47.36385" lon="-0.63488">
        <ele>33</ele>
        <time>2010-08-13T18:57:06Z</time>
      </trkpt>
      <trkpt lat="47.36398" lon="-0.63444">
        <ele>32</ele>
        <time>2010-08-13T18:57:11Z</time>
      </trkpt>
      <trkpt lat="47.36411" lon="-0.6339">
        <ele>33</ele>
        <time>2010-08-13T18:57:16Z</time>
      </trkpt>
      <trkpt lat="47.36421" lon="-0.63344">
        <ele>32</ele>
        <time>2010-08-13T18:57:21Z</time>
      </trkpt>
      <trkpt lat="47.36432" lon="-0.63296">
        <ele>33</ele>
        <time>2010-08-13T18:57:26Z</time>
      </trkpt>
      <trkpt lat="47.3644" lon="-0.63258">
        <ele>33</ele>
        <time>2010-08-13T18:57:31Z</time>
      </trkpt>
      <trkpt lat="47.36453" lon="-0.63201">
        <ele>33</ele>
        <time>2010-08-13T18:57:36Z</time>
      </trkpt>
      <trkpt lat="47.36464" lon="-0.63153">
        <ele>34</ele>
        <time>2010-08-13T18:57:41Z</time>
      </trkpt>
      <trkpt lat="47.36477" lon="-0.63108">
        <ele>34</ele>
        <time>2010-08-13T18:57:46Z</time>
      </trkpt>
      <trkpt lat="47.3649" lon="-0.63074">
        <ele>35</ele>
        <time>2010-08-13T18:57:51Z</time>
      </trkpt>
      <trkpt lat="47.3651" lon="-0.63034">
        <ele>35</ele>
        <time>2010-08-13T18:57:56Z</time>
      </trkpt>
      <trkpt lat="47.36535" lon="-0.62993">
        <ele>36</ele>
        <time>2010-08-13T18:58:01Z</time>
      </trkpt>
      <trkpt lat="47.36565" lon="-0.62942">
        <ele>36</ele>
        <time>2010-08-13T18:58:06Z</time>
      </trkpt>
      <trkpt lat="47.3659" lon="-0.62901">
        <ele>35</ele>
        <time>2010-08-13T18:58:11Z</time>
      </trkpt>
      <trkpt lat="47.36609" lon="-0.62868">
        <ele>35</ele>
        <time>2010-08-13T18:58:16Z</time>
      </trkpt>
      <trkpt lat="47.36633" lon="-0.62827">
        <ele>35</ele>
        <time>2010-08-13T18:58:21Z</time>
      </trkpt>
      <trkpt lat="47.36662" lon="-0.62779">
        <ele>36</ele>
        <time>2010-08-13T18:58:26Z</time>
      </trkpt>
      <trkpt lat="47.36686" lon="-0.6274">
        <ele>36</ele>
        <time>2010-08-13T18:58:31Z</time>
      </trkpt>
      <trkpt lat="47.36705" lon="-0.62708">
        <ele>36</ele>
        <time>2010-08-13T18:58:36Z</time>
      </trkpt>
      <trkpt lat="47.36729" lon="-0.62666">
        <ele>37</ele>
        <time>2010-08-13T18:58:41Z</time>
      </trkpt>
      <trkpt lat="47.36758" lon="-0.62617">
        <ele>36</ele>
        <time>2010-08-13T18:58:46Z</time>
      </trkpt>
      <trkpt lat="47.3678" lon="-0.62574">
        <ele>38</ele>
        <time>2010-08-13T18:58:51Z</time>
      </trkpt>
      <trkpt lat="47.36797" lon="-0.62527">
        <ele>38</ele>
        <time>2010-08-13T18:58:56Z</time>
      </trkpt>
      <trkpt lat="47.36809" lon="-0.62488">
        <ele>38</ele>
        <time>2010-08-13T18:59:01Z</time>
      </trkpt>
      <trkpt lat="47.36825" lon="-0.6244">
        <ele>38</ele>
        <time>2010-08-13T18:59:06Z</time>
      </trkpt>
      <trkpt lat="47.36847" lon="-0.62384">
        <ele>38</ele>
        <time>2010-08-13T18:59:11Z</time>
      </trkpt>
      <trkpt lat="47.3687" lon="-0.62344">
        <ele>39</ele>
        <time>2010-08-13T18:59:16Z</time>
      </trkpt>
      <trkpt lat="47.36889" lon="-0.62313">
        <ele>39</ele>
        <time>2010-08-13T18:59:21Z</time>
      </trkpt>
      <trkpt lat="47.36914" lon="-0.62272">
        <ele>38</ele>
        <time>2010-08-13T18:59:26Z</time>
      </trkpt>
      <trkpt lat="47.36939" lon="-0.62231">
        <ele>37</ele>
        <time>2010-08-13T18:59:31Z</time>
      </trkpt>
      <trkpt lat="47.36968" lon="-0.62181">
        <ele>36</ele>
        <time>2010-08-13T18:59:36Z</time>
      </trkpt>
      <trkpt lat="47.36991" lon="-0.62137">
        <ele>37</ele>
        <time>2010-08-13T18:59:41Z</time>
      </trkpt>
      <trkpt lat="47.37009" lon="-0.621">
        <ele>36</ele>
        <time>2010-08-13T18:59:46Z</time>
      </trkpt>
      <trkpt lat="47.37032" lon="-0.62054">
        <ele>36</ele>
        <time>2010-08-13T18:59:51Z</time>
      </trkpt>
      <trkpt lat="47.37059" lon="-0.62">
        <ele>36</ele>
        <time>2010-08-13T18:59:56Z</time>
      </trkpt>
      <trkpt lat="47.37084" lon="-0.61957">
        <ele>34</ele>
        <time>2010-08-13T19:00:01Z</time>
      </trkpt>
      <trkpt lat="47.37113" lon="-0.61919">
        <ele>34</ele>
        <time>2010-08-13T19:00:06Z</time>
      </trkpt>
      <trkpt lat="47.37138" lon="-0.6189">
        <ele>35</ele>
        <time>2010-08-13T19:00:11Z</time>
      </trkpt>
      <trkpt lat="47.37169" lon="-0.61854">
        <ele>34</ele>
        <time>2010-08-13T19:00:16Z</time>
      </trkpt>
      <trkpt lat="47.37207" lon="-0.61808">
        <ele>35</ele>
        <time>2010-08-13T19:00:21Z</time>
      </trkpt>
      <trkpt lat="47.37239" lon="-0.6177">
        <ele>35</ele>
        <time>2010-08-13T19:00:26Z</time>
      </trkpt>
      <trkpt lat="47.37265" lon="-0.6174">
        <ele>34</ele>
        <time>2010-08-13T19:00:31Z</time>
      </trkpt>
      <trkpt lat="47.37296" lon="-0.61701">
        <ele>33</ele>
        <time>2010-08-13T19:00:36Z</time>
      </trkpt>
      <trkpt lat="47.37328" lon="-0.61663">
        <ele>32</ele>
        <time>2010-08-13T19:00:41Z</time>
      </trkpt>
      <trkpt lat="47.37361" lon="-0.61623">
        <ele>31</ele>
        <time>2010-08-13T19:00:46Z</time>
      </trkpt>
      <trkpt lat="47.37401" lon="-0.61575">
        <ele>32</ele>
        <time>2010-08-13T19:00:51Z</time>
      </trkpt>
      <trkpt lat="47.37429" lon="-0.61543">
        <ele>30</ele>
        <time>2010-08-13T19:00:56Z</time>
      </trkpt>
      <trkpt lat="47.37464" lon="-0.61501">
        <ele>30</ele>
        <time>2010-08-13T19:01:01Z</time>
      </trkpt>
      <trkpt lat="47.37506" lon="-0.6145">
        <ele>29</ele>
        <time>2010-08-13T19:01:06Z</time>
      </trkpt>
      <trkpt lat="47.37539" lon="-0.61406">
        <ele>29</ele>
        <time>2010-08-13T19:01:11Z</time>
      </trkpt>
      <trkpt lat="47.37562" lon="-0.61365">
        <ele>29</ele>
        <time>2010-08-13T19:01:16Z</time>
      </trkpt>
      <trkpt lat="47.37586" lon="-0.61306">
        <ele>29</ele>
        <time>2010-08-13T19:01:21Z</time>
      </trkpt>
      <trkpt lat="47.37613" lon="-0.61234">
        <ele>29</ele>
        <time>2010-08-13T19:01:26Z</time>
      </trkpt>
      <trkpt lat="47.37637" lon="-0.61177">
        <ele>28</ele>
        <time>2010-08-13T19:01:31Z</time>
      </trkpt>
      <trkpt lat="47.37656" lon="-0.61121">
        <ele>28</ele>
        <time>2010-08-13T19:01:36Z</time>
      </trkpt>
      <trkpt lat="47.37671" lon="-0.61077">
        <ele>27</ele>
        <time>2010-08-13T19:01:41Z</time>
      </trkpt>
      <trkpt lat="47.37695" lon="-0.61026">
        <ele>26</ele>
        <time>2010-08-13T19:01:46Z</time>
      </trkpt>
      <trkpt lat="47.37728" lon="-0.60976">
        <ele>26</ele>
        <time>2010-08-13T19:01:51Z</time>
      </trkpt>
      <trkpt lat="47.37751" lon="-0.60941">
        <ele>28</ele>
        <time>2010-08-13T19:01:56Z</time>
      </trkpt>
      <trkpt lat="47.37767" lon="-0.60914">
        <ele>31</ele>
        <time>2010-08-13T19:02:01Z</time>
      </trkpt>
      <trkpt lat="47.37784" lon="-0.60885">
        <ele>32</ele>
        <time>2010-08-13T19:02:06Z</time>
      </trkpt>
      <trkpt lat="47.37806" lon="-0.60848">
        <ele>34</ele>
        <time>2010-08-13T19:02:11Z</time>
      </trkpt>
      <trkpt lat="47.37824" lon="-0.60819">
        <ele>36</ele>
        <time>2010-08-13T19:02:16Z</time>
      </trkpt>
      <trkpt lat="47.37846" lon="-0.60791">
        <ele>37</ele>
        <time>2010-08-13T19:02:21Z</time>
      </trkpt>
      <trkpt lat="47.37859" lon="-0.60768">
        <ele>37</ele>
        <time>2010-08-13T19:02:26Z</time>
      </trkpt>
      <trkpt lat="47.37865" lon="-0.60757">
        <ele>37</ele>
        <time>2010-08-13T19:02:31Z</time>
      </trkpt>
      <trkpt lat="47.37863" lon="-0.60757">
        <ele>37</ele>
        <time>2010-08-13T19:02:36Z</time>
      </trkpt>
      <trkpt lat="47.37862" lon="-0.60758">
        <ele>37</ele>
        <time>2010-08-13T19:02:41Z</time>
      </trkpt>
      <trkpt lat="47.3786" lon="-0.60761">
        <ele>37</ele>
        <time>2010-08-13T19:02:46Z</time>
      </trkpt>
      <trkpt lat="47.37858" lon="-0.60763">
        <ele>37</ele>
        <time>2010-08-13T19:02:51Z</time>
      </trkpt>
      <trkpt lat="47.37859" lon="-0.60762">
        <ele>37</ele>
        <time>2010-08-13T19:02:56Z</time>
      </trkpt>
      <trkpt lat="47.37859" lon="-0.60758">
        <ele>37</ele>
        <time>2010-08-13T19:03:01Z</time>
      </trkpt>
      <trkpt lat="47.37857" lon="-0.60761">
        <ele>37</ele>
        <time>2010-08-13T19:03:06Z</time>
      </trkpt>
      <trkpt lat="47.37855" lon="-0.6076">
        <ele>37</ele>
        <time>2010-08-13T19:03:11Z</time>
      </trkpt>
      <trkpt lat="47.37854" lon="-0.60764">
        <ele>37</ele>
        <time>2010-08-13T19:03:16Z</time>
      </trkpt>
      <trkpt lat="47.37854" lon="-0.60762">
        <ele>37</ele>
        <time>2010-08-13T19:03:21Z</time>
      </trkpt>
      <trkpt lat="47.37857" lon="-0.60762">
        <ele>37</ele>
        <time>2010-08-13T19:03:26Z</time>
      </trkpt>
      <trkpt lat="47.37859" lon="-0.60762">
        <ele>37</ele>
        <time>2010-08-13T19:03:31Z</time>
      </trkpt>
      <trkpt lat="47.3786" lon="-0.60763">
        <ele>37</ele>
        <time>2010-08-13T19:03:36Z</time>
      </trkpt>
      <trkpt lat="47.37864" lon="-0.60763">
        <ele>37</ele>
        <time>2010-08-13T19:03:41Z</time>
      </trkpt>
      <trkpt lat="47.37864" lon="-0.6076">
        <ele>37</ele>
        <time>2010-08-13T19:03:46Z</time>
      </trkpt>
      <trkpt lat="47.37862" lon="-0.60756">
        <ele>37</ele>
        <time>2010-08-13T19:03:51Z</time>
      </trkpt>
      <trkpt lat="47.37857" lon="-0.60757">
        <ele>37</ele>
        <time>2010-08-13T19:03:56Z</time>
      </trkpt>
      <trkpt lat="47.37858" lon="-0.60757">
        <ele>37</ele>
        <time>2010-08-13T19:04:01Z</time>
      </trkpt>
      <trkpt lat="47.37859" lon="-0.60758">
        <ele>37</ele>
        <time>2010-08-13T19:04:06Z</time>
      </trkpt>
      <trkpt lat="47.37862" lon="-0.60758">
        <ele>37</ele>
        <time>2010-08-13T19:04:11Z</time>
      </trkpt>
      <trkpt lat="47.37858" lon="-0.60758">
        <ele>37</ele>
        <time>2010-08-13T19:04:16Z</time>
      </trkpt>
      <trkpt lat="47.37856" lon="-0.6076">
        <ele>37</ele>
        <time>2010-08-13T19:04:21Z</time>
      </trkpt>
      <trkpt lat="47.37858" lon="-0.6076">
        <ele>37</ele>
        <time>2010-08-13T19:04:26Z</time>
      </trkpt>
      <trkpt lat="47.37859" lon="-0.60762">
        <ele>37</ele>
        <time>2010-08-13T19:04:31Z</time>
      </trkpt>
      <trkpt lat="47.37871" lon="-0.60769">
        <ele>37</ele>
        <time>2010-08-13T19:04:36Z</time>
      </trkpt>
      <trkpt lat="47.37866" lon="-0.60771">
        <ele>37</ele>
        <time>2010-08-13T19:04:41Z</time>
      </trkpt>
      <trkpt lat="47.37859" lon="-0.60768">
        <ele>37</ele>
        <time>2010-08-13T19:04:46Z</time>
      </trkpt>
      <trkpt lat="47.37856" lon="-0.60765">
        <ele>37</ele>
        <time>2010-08-13T19:04:51Z</time>
      </trkpt>
      <trkpt lat="47.37856" lon="-0.60765">
        <ele>37</ele>
        <time>2010-08-13T19:04:56Z</time>
      </trkpt>
      <trkpt lat="47.37854" lon="-0.60763">
        <ele>37</ele>
        <time>2010-08-13T19:05:01Z</time>
      </trkpt>
      <trkpt lat="47.37854" lon="-0.60762">
        <ele>37</ele>
        <time>2010-08-13T19:05:06Z</time>
      </trkpt>
      <trkpt lat="47.37857" lon="-0.60764">
        <ele>37</ele>
        <time>2010-08-13T19:05:11Z</time>
      </trkpt>
      <trkpt lat="47.37856" lon="-0.60763">
        <ele>37</ele>
        <time>2010-08-13T19:05:16Z</time>
      </trkpt>
      <trkpt lat="47.37858" lon="-0.60762">
        <ele>37</ele>
        <time>2010-08-13T19:05:21Z</time>
      </trkpt>
      <trkpt lat="47.37859" lon="-0.60761">
        <ele>37</ele>
        <time>2010-08-13T19:05:26Z</time>
      </trkpt>
      <trkpt lat="47.37859" lon="-0.60761">
        <ele>37</ele>
        <time>2010-08-13T19:05:31Z</time>
      </trkpt>
      <trkpt lat="47.37866" lon="-0.60758">
        <ele>37</ele>
        <time>2010-08-13T19:05:36Z</time>
      </trkpt>
      <trkpt lat="47.37895" lon="-0.60766">
        <ele>37</ele>
        <time>2010-08-13T19:05:41Z</time>
      </trkpt>
      <trkpt lat="47.37932" lon="-0.60741">
        <ele>34</ele>
        <time>2010-08-13T19:05:46Z</time>
      </trkpt>
      <trkpt lat="47.3796" lon="-0.6071">
        <ele>31</ele>
        <time>2010-08-13T19:05:51Z</time>
      </trkpt>
      <trkpt lat="47.37994" lon="-0.60664">
        <ele>29</ele>
        <time>2010-08-13T19:05:56Z</time>
      </trkpt>
      <trkpt lat="47.3803" lon="-0.60602">
        <ele>27</ele>
        <time>2010-08-13T19:06:01Z</time>
      </trkpt>
      <trkpt lat="47.3806" lon="-0.60611">
        <ele>26</ele>
        <time>2010-08-13T19:06:06Z</time>
      </trkpt>
      <trkpt lat="47.38087" lon="-0.60638">
        <ele>24</ele>
        <time>2010-08-13T19:06:11Z</time>
      </trkpt>
      <trkpt lat="47.38114" lon="-0.60693">
        <ele>22</ele>
        <time>2010-08-13T19:06:16Z</time>
      </trkpt>
      <trkpt lat="47.38135" lon="-0.60762">
        <ele>19</ele>
        <time>2010-08-13T19:06:21Z</time>
      </trkpt>
      <trkpt lat="47.3817" lon="-0.6084">
        <ele>15</ele>
        <time>2010-08-13T19:06:26Z</time>
      </trkpt>
      <trkpt lat="47.38209" lon="-0.60882">
        <ele>14</ele>
        <time>2010-08-13T19:06:31Z</time>
      </trkpt>
      <trkpt lat="47.38239" lon="-0.60909">
        <ele>14</ele>
        <time>2010-08-13T19:06:36Z</time>
      </trkpt>
      <trkpt lat="47.38272" lon="-0.60943">
        <ele>15</ele>
        <time>2010-08-13T19:06:41Z</time>
      </trkpt>
      <trkpt lat="47.38308" lon="-0.6098">
        <ele>16</ele>
        <time>2010-08-13T19:06:46Z</time>
      </trkpt>
      <trkpt lat="47.3834" lon="-0.61014">
        <ele>17</ele>
        <time>2010-08-13T19:06:51Z</time>
      </trkpt>
      <trkpt lat="47.38368" lon="-0.61051">
        <ele>18</ele>
        <time>2010-08-13T19:06:56Z</time>
      </trkpt>
      <trkpt lat="47.38393" lon="-0.61076">
        <ele>18</ele>
        <time>2010-08-13T19:07:01Z</time>
      </trkpt>
      <trkpt lat="47.3843" lon="-0.61114">
        <ele>18</ele>
        <time>2010-08-13T19:07:06Z</time>
      </trkpt>
      <trkpt lat="47.3846" lon="-0.61145">
        <ele>18</ele>
        <time>2010-08-13T19:07:11Z</time>
      </trkpt>
      <trkpt lat="47.3849" lon="-0.61179">
        <ele>17</ele>
        <time>2010-08-13T19:07:16Z</time>
      </trkpt>
      <trkpt lat="47.38515" lon="-0.61201">
        <ele>16</ele>
        <time>2010-08-13T19:07:21Z</time>
      </trkpt>
      <trkpt lat="47.38549" lon="-0.61226">
        <ele>16</ele>
        <time>2010-08-13T19:07:26Z</time>
      </trkpt>
      <trkpt lat="47.38589" lon="-0.61257">
        <ele>17</ele>
        <time>2010-08-13T19:07:31Z</time>
      </trkpt>
      <trkpt lat="47.38623" lon="-0.61282">
        <ele>16</ele>
        <time>2010-08-13T19:07:36Z</time>
      </trkpt>
      <trkpt lat="47.38656" lon="-0.61307">
        <ele>16</ele>
        <time>2010-08-13T19:07:41Z</time>
      </trkpt>
      <trkpt lat="47.38685" lon="-0.61322">
        <ele>16</ele>
        <time>2010-08-13T19:07:46Z</time>
      </trkpt>
      <trkpt lat="47.38729" lon="-0.61333">
        <ele>17</ele>
        <time>2010-08-13T19:07:51Z</time>
      </trkpt>
      <trkpt lat="47.38766" lon="-0.61341">
        <ele>17</ele>
        <time>2010-08-13T19:07:56Z</time>
      </trkpt>
      <trkpt lat="47.38802" lon="-0.6135">
        <ele>17</ele>
        <time>2010-08-13T19:08:01Z</time>
      </trkpt>
      <trkpt lat="47.38832" lon="-0.61353">
        <ele>17</ele>
        <time>2010-08-13T19:08:06Z</time>
      </trkpt>
      <trkpt lat="47.38869" lon="-0.61346">
        <ele>16</ele>
        <time>2010-08-13T19:08:11Z</time>
      </trkpt>
      <trkpt lat="47.38913" lon="-0.61334">
        <ele>15</ele>
        <time>2010-08-13T19:08:16Z</time>
      </trkpt>
      <trkpt lat="47.38948" lon="-0.61338">
        <ele>16</ele>
        <time>2010-08-13T19:08:21Z</time>
      </trkpt>
      <trkpt lat="47.38984" lon="-0.61354">
        <ele>17</ele>
        <time>2010-08-13T19:08:26Z</time>
      </trkpt>
      <trkpt lat="47.39013" lon="-0.61365">
        <ele>17</ele>
        <time>2010-08-13T19:08:31Z</time>
      </trkpt>
      <trkpt lat="47.39047" lon="-0.61379">
        <ele>16</ele>
        <time>2010-08-13T19:08:36Z</time>
      </trkpt>
      <trkpt lat="47.39084" lon="-0.61387">
        <ele>17</ele>
        <time>2010-08-13T19:08:41Z</time>
      </trkpt>
      <trkpt lat="47.39129" lon="-0.61372">
        <ele>17</ele>
        <time>2010-08-13T19:08:46Z</time>
      </trkpt>
      <trkpt lat="47.39155" lon="-0.6135">
        <ele>17</ele>
        <time>2010-08-13T19:08:51Z</time>
      </trkpt>
      <trkpt lat="47.39185" lon="-0.61312">
        <ele>18</ele>
        <time>2010-08-13T19:08:56Z</time>
      </trkpt>
      <trkpt lat="47.39214" lon="-0.61273">
        <ele>18</ele>
        <time>2010-08-13T19:09:01Z</time>
      </trkpt>
      <trkpt lat="47.39248" lon="-0.61227">
        <ele>16</ele>
        <time>2010-08-13T19:09:06Z</time>
      </trkpt>
      <trkpt lat="47.39281" lon="-0.61202">
        <ele>16</ele>
        <time>2010-08-13T19:09:11Z</time>
      </trkpt>
      <trkpt lat="47.39311" lon="-0.61198">
        <ele>16</ele>
        <time>2010-08-13T19:09:16Z</time>
      </trkpt>
      <trkpt lat="47.39347" lon="-0.61208">
        <ele>17</ele>
        <time>2010-08-13T19:09:21Z</time>
      </trkpt>
      <trkpt lat="47.3939" lon="-0.6123">
        <ele>17</ele>
        <time>2010-08-13T19:09:26Z</time>
      </trkpt>
      <trkpt lat="47.39427" lon="-0.61249">
        <ele>17</ele>
        <time>2010-08-13T19:09:31Z</time>
      </trkpt>
      <trkpt lat="47.39458" lon="-0.61263">
        <ele>17</ele>
        <time>2010-08-13T19:09:36Z</time>
      </trkpt>
      <trkpt lat="47.39495" lon="-0.61286">
        <ele>17</ele>
        <time>2010-08-13T19:09:41Z</time>
      </trkpt>
      <trkpt lat="47.39541" lon="-0.6132">
        <ele>16</ele>
        <time>2010-08-13T19:09:46Z</time>
      </trkpt>
      <trkpt lat="47.39578" lon="-0.61346">
        <ele>15</ele>
        <time>2010-08-13T19:09:51Z</time>
      </trkpt>
      <trkpt lat="47.39612" lon="-0.61374">
        <ele>15</ele>
        <time>2010-08-13T19:09:56Z</time>
      </trkpt>
      <trkpt lat="47.39637" lon="-0.61393">
        <ele>16</ele>
        <time>2010-08-13T19:10:01Z</time>
      </trkpt>
      <trkpt lat="47.3967" lon="-0.61418">
        <ele>17</ele>
        <time>2010-08-13T19:10:06Z</time>
      </trkpt>
      <trkpt lat="47.39701" lon="-0.61448">
        <ele>17</ele>
        <time>2010-08-13T19:10:11Z</time>
      </trkpt>
      <trkpt lat="47.39732" lon="-0.61496">
        <ele>16</ele>
        <time>2010-08-13T19:10:16Z</time>
      </trkpt>
      <trkpt lat="47.39757" lon="-0.61536">
        <ele>17</ele>
        <time>2010-08-13T19:10:21Z</time>
      </trkpt>
      <trkpt lat="47.39787" lon="-0.61528">
        <ele>17</ele>
        <time>2010-08-13T19:10:26Z</time>
      </trkpt>
      <trkpt lat="47.3983" lon="-0.61496">
        <ele>16</ele>
        <time>2010-08-13T19:10:31Z</time>
      </trkpt>
      <trkpt lat="47.39867" lon="-0.6148">
        <ele>16</ele>
        <time>2010-08-13T19:10:36Z</time>
      </trkpt>
      <trkpt lat="47.39904" lon="-0.61463">
        <ele>16</ele>
        <time>2010-08-13T19:10:41Z</time>
      </trkpt>
      <trkpt lat="47.39932" lon="-0.61447">
        <ele>17</ele>
        <time>2010-08-13T19:10:46Z</time>
      </trkpt>
      <trkpt lat="47.39965" lon="-0.6142">
        <ele>17</ele>
        <time>2010-08-13T19:10:51Z</time>
      </trkpt>
      <trkpt lat="47.39994" lon="-0.61382">
        <ele>17</ele>
        <time>2010-08-13T19:10:56Z</time>
      </trkpt>
      <trkpt lat="47.40023" lon="-0.61329">
        <ele>17</ele>
        <time>2010-08-13T19:11:01Z</time>
      </trkpt>
      <trkpt lat="47.40045" lon="-0.61281">
        <ele>17</ele>
        <time>2010-08-13T19:11:06Z</time>
      </trkpt>
      <trkpt lat="47.40066" lon="-0.61245">
        <ele>17</ele>
        <time>2010-08-13T19:11:11Z</time>
      </trkpt>
      <trkpt lat="47.40097" lon="-0.61213">
        <ele>16</ele>
        <time>2010-08-13T19:11:16Z</time>
      </trkpt>
      <trkpt lat="47.40141" lon="-0.6119">
        <ele>16</ele>
        <time>2010-08-13T19:11:21Z</time>
      </trkpt>
      <trkpt lat="47.40177" lon="-0.61172">
        <ele>15</ele>
        <time>2010-08-13T19:11:26Z</time>
      </trkpt>
      <trkpt lat="47.40206" lon="-0.61156">
        <ele>16</ele>
        <time>2010-08-13T19:11:31Z</time>
      </trkpt>
      <trkpt lat="47.40241" lon="-0.61134">
        <ele>17</ele>
        <time>2010-08-13T19:11:36Z</time>
      </trkpt>
      <trkpt lat="47.40275" lon="-0.6111">
        <ele>17</ele>
        <time>2010-08-13T19:11:41Z</time>
      </trkpt>
      <trkpt lat="47.40316" lon="-0.61083">
        <ele>18</ele>
        <time>2010-08-13T19:11:46Z</time>
      </trkpt>
      <trkpt lat="47.4035" lon="-0.6106">
        <ele>17</ele>
        <time>2010-08-13T19:11:51Z</time>
      </trkpt>
      <trkpt lat="47.40377" lon="-0.61042">
        <ele>17</ele>
        <time>2010-08-13T19:11:56Z</time>
      </trkpt>
      <trkpt lat="47.40411" lon="-0.61019">
        <ele>17</ele>
        <time>2010-08-13T19:12:01Z</time>
      </trkpt>
      <trkpt lat="47.40452" lon="-0.60992">
        <ele>17</ele>
        <time>2010-08-13T19:12:06Z</time>
      </trkpt>
      <trkpt lat="47.40485" lon="-0.60968">
        <ele>17</ele>
        <time>2010-08-13T19:12:11Z</time>
      </trkpt>
      <trkpt lat="47.40511" lon="-0.60948">
        <ele>17</ele>
        <time>2010-08-13T19:12:16Z</time>
      </trkpt>
      <trkpt lat="47.4054" lon="-0.60917">
        <ele>17</ele>
        <time>2010-08-13T19:12:21Z</time>
      </trkpt>
      <trkpt lat="47.40568" lon="-0.60882">
        <ele>17</ele>
        <time>2010-08-13T19:12:26Z</time>
      </trkpt>
      <trkpt lat="47.40604" lon="-0.60844">
        <ele>17</ele>
        <time>2010-08-13T19:12:31Z</time>
      </trkpt>
      <trkpt lat="47.40639" lon="-0.60825">
        <ele>17</ele>
        <time>2010-08-13T19:12:36Z</time>
      </trkpt>
      <trkpt lat="47.40669" lon="-0.60818">
        <ele>17</ele>
        <time>2010-08-13T19:12:41Z</time>
      </trkpt>
      <trkpt lat="47.40706" lon="-0.60815">
        <ele>17</ele>
        <time>2010-08-13T19:12:46Z</time>
      </trkpt>
      <trkpt lat="47.4075" lon="-0.60809">
        <ele>17</ele>
        <time>2010-08-13T19:12:51Z</time>
      </trkpt>
      <trkpt lat="47.40787" lon="-0.60801">
        <ele>17</ele>
        <time>2010-08-13T19:12:56Z</time>
      </trkpt>
      <trkpt lat="47.40815" lon="-0.60788">
        <ele>18</ele>
        <time>2010-08-13T19:13:01Z</time>
      </trkpt>
      <trkpt lat="47.40827" lon="-0.60734">
        <ele>18</ele>
        <time>2010-08-13T19:13:06Z</time>
      </trkpt>
      <trkpt lat="47.40829" lon="-0.60663">
        <ele>17</ele>
        <time>2010-08-13T19:13:11Z</time>
      </trkpt>
      <trkpt lat="47.4083" lon="-0.60606">
        <ele>16</ele>
        <time>2010-08-13T19:13:16Z</time>
      </trkpt>
      <trkpt lat="47.40831" lon="-0.60548">
        <ele>16</ele>
        <time>2010-08-13T19:13:21Z</time>
      </trkpt>
      <trkpt lat="47.40831" lon="-0.60502">
        <ele>17</ele>
        <time>2010-08-13T19:13:26Z</time>
      </trkpt>
      <trkpt lat="47.40832" lon="-0.60445">
        <ele>17</ele>
        <time>2010-08-13T19:13:31Z</time>
      </trkpt>
      <trkpt lat="47.40833" lon="-0.60376">
        <ele>16</ele>
        <time>2010-08-13T19:13:36Z</time>
      </trkpt>
      <trkpt lat="47.40833" lon="-0.60319">
        <ele>16</ele>
        <time>2010-08-13T19:13:41Z</time>
      </trkpt>
      <trkpt lat="47.40839" lon="-0.60263">
        <ele>17</ele>
        <time>2010-08-13T19:13:46Z</time>
      </trkpt>
      <trkpt lat="47.40847" lon="-0.6022">
        <ele>18</ele>
        <time>2010-08-13T19:13:51Z</time>
      </trkpt>
      <trkpt lat="47.4086" lon="-0.60168">
        <ele>17</ele>
        <time>2010-08-13T19:13:56Z</time>
      </trkpt>
      <trkpt lat="47.4089" lon="-0.60117">
        <ele>18</ele>
        <time>2010-08-13T19:14:01Z</time>
      </trkpt>
      <trkpt lat="47.40918" lon="-0.60087">
        <ele>18</ele>
        <time>2010-08-13T19:14:06Z</time>
      </trkpt>
      <trkpt lat="47.40942" lon="-0.60061">
        <ele>19</ele>
        <time>2010-08-13T19:14:11Z</time>
      </trkpt>
      <trkpt lat="47.40978" lon="-0.60027">
        <ele>20</ele>
        <time>2010-08-13T19:14:16Z</time>
      </trkpt>
      <trkpt lat="47.41005" lon="-0.5997">
        <ele>21</ele>
        <time>2010-08-13T19:14:21Z</time>
      </trkpt>
      <trkpt lat="47.41012" lon="-0.59911">
        <ele>20</ele>
        <time>2010-08-13T19:14:26Z</time>
      </trkpt>
      <trkpt lat="47.41015" lon="-0.59855">
        <ele>20</ele>
        <time>2010-08-13T19:14:31Z</time>
      </trkpt>
      <trkpt lat="47.41019" lon="-0.59813">
        <ele>19</ele>
        <time>2010-08-13T19:14:36Z</time>
      </trkpt>
      <trkpt lat="47.41024" lon="-0.59761">
        <ele>19</ele>
        <time>2010-08-13T19:14:41Z</time>
      </trkpt>
      <trkpt lat="47.41032" lon="-0.59699">
        <ele>18</ele>
        <time>2010-08-13T19:14:46Z</time>
      </trkpt>
      <trkpt lat="47.41037" lon="-0.59645">
        <ele>19</ele>
        <time>2010-08-13T19:14:51Z</time>
      </trkpt>
      <trkpt lat="47.41036" lon="-0.59603">
        <ele>20</ele>
        <time>2010-08-13T19:14:56Z</time>
      </trkpt>
      <trkpt lat="47.41031" lon="-0.59549">
        <ele>20</ele>
        <time>2010-08-13T19:15:01Z</time>
      </trkpt>
      <trkpt lat="47.41026" lon="-0.59493">
        <ele>20</ele>
        <time>2010-08-13T19:15:06Z</time>
      </trkpt>
      <trkpt lat="47.41027" lon="-0.59426">
        <ele>19</ele>
        <time>2010-08-13T19:15:11Z</time>
      </trkpt>
      <trkpt lat="47.41035" lon="-0.59371">
        <ele>19</ele>
        <time>2010-08-13T19:15:16Z</time>
      </trkpt>
      <trkpt lat="47.41042" lon="-0.59327">
        <ele>20</ele>
        <time>2010-08-13T19:15:21Z</time>
      </trkpt>
      <trkpt lat="47.41051" lon="-0.59271">
        <ele>20</ele>
        <time>2010-08-13T19:15:26Z</time>
      </trkpt>
      <trkpt lat="47.4106" lon="-0.59204">
        <ele>18</ele>
        <time>2010-08-13T19:15:31Z</time>
      </trkpt>
      <trkpt lat="47.41077" lon="-0.59149">
        <ele>17</ele>
        <time>2010-08-13T19:15:36Z</time>
      </trkpt>
      <trkpt lat="47.41086" lon="-0.59104">
        <ele>18</ele>
        <time>2010-08-13T19:15:41Z</time>
      </trkpt>
      <trkpt lat="47.41089" lon="-0.59047">
        <ele>18</ele>
        <time>2010-08-13T19:15:46Z</time>
      </trkpt>
      <trkpt lat="47.4109" lon="-0.58989">
        <ele>18</ele>
        <time>2010-08-13T19:15:51Z</time>
      </trkpt>
      <trkpt lat="47.41084" lon="-0.58918">
        <ele>19</ele>
        <time>2010-08-13T19:15:56Z</time>
      </trkpt>
      <trkpt lat="47.41076" lon="-0.58858">
        <ele>18</ele>
        <time>2010-08-13T19:16:01Z</time>
      </trkpt>
      <trkpt lat="47.41073" lon="-0.58812">
        <ele>18</ele>
        <time>2010-08-13T19:16:06Z</time>
      </trkpt>
      <trkpt lat="47.4107" lon="-0.58755">
        <ele>18</ele>
        <time>2010-08-13T19:16:11Z</time>
      </trkpt>
      <trkpt lat="47.41071" lon="-0.58696">
        <ele>18</ele>
        <time>2010-08-13T19:16:16Z</time>
      </trkpt>
      <trkpt lat="47.41073" lon="-0.58627">
        <ele>19</ele>
        <time>2010-08-13T19:16:21Z</time>
      </trkpt>
      <trkpt lat="47.41074" lon="-0.58581">
        <ele>20</ele>
        <time>2010-08-13T19:16:26Z</time>
      </trkpt>
      <trkpt lat="47.41075" lon="-0.58522">
        <ele>18</ele>
        <time>2010-08-13T19:16:31Z</time>
      </trkpt>
      <trkpt lat="47.41074" lon="-0.58463">
        <ele>16</ele>
        <time>2010-08-13T19:16:36Z</time>
      </trkpt>
      <trkpt lat="47.41074" lon="-0.58391">
        <ele>16</ele>
        <time>2010-08-13T19:16:41Z</time>
      </trkpt>
      <trkpt lat="47.41071" lon="-0.58331">
        <ele>18</ele>
        <time>2010-08-13T19:16:46Z</time>
      </trkpt>
      <trkpt lat="47.41068" lon="-0.58284">
        <ele>18</ele>
        <time>2010-08-13T19:16:51Z</time>
      </trkpt>
      <trkpt lat="47.41063" lon="-0.58227">
        <ele>18</ele>
        <time>2010-08-13T19:16:56Z</time>
      </trkpt>
      <trkpt lat="47.41065" lon="-0.58168">
        <ele>17</ele>
        <time>2010-08-13T19:17:01Z</time>
      </trkpt>
      <trkpt lat="47.41069" lon="-0.58095">
        <ele>16</ele>
        <time>2010-08-13T19:17:06Z</time>
      </trkpt>
      <trkpt lat="47.41069" lon="-0.58037">
        <ele>16</ele>
        <time>2010-08-13T19:17:11Z</time>
      </trkpt>
      <trkpt lat="47.41071" lon="-0.57992">
        <ele>17</ele>
        <time>2010-08-13T19:17:16Z</time>
      </trkpt>
      <trkpt lat="47.41085" lon="-0.57924">
        <ele>18</ele>
        <time>2010-08-13T19:17:21Z</time>
      </trkpt>
      <trkpt lat="47.41092" lon="-0.57867">
        <ele>18</ele>
        <time>2010-08-13T19:17:26Z</time>
      </trkpt>
      <trkpt lat="47.41099" lon="-0.57811">
        <ele>18</ele>
        <time>2010-08-13T19:17:31Z</time>
      </trkpt>
      <trkpt lat="47.41101" lon="-0.57765">
        <ele>18</ele>
        <time>2010-08-13T19:17:36Z</time>
      </trkpt>
      <trkpt lat="47.41102" lon="-0.57708">
        <ele>17</ele>
        <time>2010-08-13T19:17:41Z</time>
      </trkpt>
      <trkpt lat="47.41106" lon="-0.57641">
        <ele>16</ele>
        <time>2010-08-13T19:17:46Z</time>
      </trkpt>
      <trkpt lat="47.41112" lon="-0.57586">
        <ele>16</ele>
        <time>2010-08-13T19:17:51Z</time>
      </trkpt>
      <trkpt lat="47.41121" lon="-0.5753">
        <ele>17</ele>
        <time>2010-08-13T19:17:56Z</time>
      </trkpt>
      <trkpt lat="47.4113" lon="-0.57485">
        <ele>17</ele>
        <time>2010-08-13T19:18:01Z</time>
      </trkpt>
      <trkpt lat="47.41138" lon="-0.57428">
        <ele>17</ele>
        <time>2010-08-13T19:18:06Z</time>
      </trkpt>
      <trkpt lat="47.41144" lon="-0.5736">
        <ele>17</ele>
        <time>2010-08-13T19:18:11Z</time>
      </trkpt>
      <trkpt lat="47.41147" lon="-0.57302">
        <ele>17</ele>
        <time>2010-08-13T19:18:16Z</time>
      </trkpt>
      <trkpt lat="47.41148" lon="-0.57256">
        <ele>18</ele>
        <time>2010-08-13T19:18:21Z</time>
      </trkpt>
      <trkpt lat="47.41154" lon="-0.572">
        <ele>20</ele>
        <time>2010-08-13T19:18:26Z</time>
      </trkpt>
      <trkpt lat="47.4116" lon="-0.57146">
        <ele>21</ele>
        <time>2010-08-13T19:18:31Z</time>
      </trkpt>
      <trkpt lat="47.41168" lon="-0.57079">
        <ele>23</ele>
        <time>2010-08-13T19:18:36Z</time>
      </trkpt>
      <trkpt lat="47.41173" lon="-0.57024">
        <ele>22</ele>
        <time>2010-08-13T19:18:41Z</time>
      </trkpt>
      <trkpt lat="47.41177" lon="-0.56979">
        <ele>21</ele>
        <time>2010-08-13T19:18:46Z</time>
      </trkpt>
      <trkpt lat="47.41188" lon="-0.56914">
        <ele>19</ele>
        <time>2010-08-13T19:18:51Z</time>
      </trkpt>
      <trkpt lat="47.41199" lon="-0.56839">
        <ele>17</ele>
        <time>2010-08-13T19:18:56Z</time>
      </trkpt>
      <trkpt lat="47.41208" lon="-0.56781">
        <ele>18</ele>
        <time>2010-08-13T19:19:01Z</time>
      </trkpt>
      <trkpt lat="47.41217" lon="-0.56735">
        <ele>19</ele>
        <time>2010-08-13T19:19:06Z</time>
      </trkpt>
      <trkpt lat="47.41226" lon="-0.56681">
        <ele>19</ele>
        <time>2010-08-13T19:19:11Z</time>
      </trkpt>
      <trkpt lat="47.41241" lon="-0.56628">
        <ele>19</ele>
        <time>2010-08-13T19:19:16Z</time>
      </trkpt>
      <trkpt lat="47.41266" lon="-0.56572">
        <ele>18</ele>
        <time>2010-08-13T19:19:21Z</time>
      </trkpt>
      <trkpt lat="47.41281" lon="-0.56518">
        <ele>17</ele>
        <time>2010-08-13T19:19:26Z</time>
      </trkpt>
      <trkpt lat="47.41289" lon="-0.56472">
        <ele>16</ele>
        <time>2010-08-13T19:19:31Z</time>
      </trkpt>
      <trkpt lat="47.41298" lon="-0.56415">
        <ele>16</ele>
        <time>2010-08-13T19:19:36Z</time>
      </trkpt>
      <trkpt lat="47.41314" lon="-0.56347">
        <ele>15</ele>
        <time>2010-08-13T19:19:41Z</time>
      </trkpt>
      <trkpt lat="47.41321" lon="-0.56288">
        <ele>18</ele>
        <time>2010-08-13T19:19:46Z</time>
      </trkpt>
      <trkpt lat="47.41325" lon="-0.56243">
        <ele>19</ele>
        <time>2010-08-13T19:19:51Z</time>
      </trkpt>
      <trkpt lat="47.41328" lon="-0.56187">
        <ele>16</ele>
        <time>2010-08-13T19:19:56Z</time>
      </trkpt>
      <trkpt lat="47.41331" lon="-0.56117">
        <ele>17</ele>
        <time>2010-08-13T19:20:01Z</time>
      </trkpt>
      <trkpt lat="47.41332" lon="-0.5606">
        <ele>18</ele>
        <time>2010-08-13T19:20:06Z</time>
      </trkpt>
      <trkpt lat="47.4134" lon="-0.56005">
        <ele>18</ele>
        <time>2010-08-13T19:20:11Z</time>
      </trkpt>
      <trkpt lat="47.41345" lon="-0.55961">
        <ele>18</ele>
        <time>2010-08-13T19:20:16Z</time>
      </trkpt>
      <trkpt lat="47.41353" lon="-0.55905">
        <ele>18</ele>
        <time>2010-08-13T19:20:21Z</time>
      </trkpt>
      <trkpt lat="47.4136" lon="-0.55836">
        <ele>18</ele>
        <time>2010-08-13T19:20:26Z</time>
      </trkpt>
      <trkpt lat="47.4136" lon="-0.55779">
        <ele>17</ele>
        <time>2010-08-13T19:20:31Z</time>
      </trkpt>
      <trkpt lat="47.41367" lon="-0.55723">
        <ele>18</ele>
        <time>2010-08-13T19:20:36Z</time>
      </trkpt>
      <trkpt lat="47.41375" lon="-0.55679">
        <ele>19</ele>
        <time>2010-08-13T19:20:41Z</time>
      </trkpt>
      <trkpt lat="47.41386" lon="-0.55612">
        <ele>20</ele>
        <time>2010-08-13T19:20:46Z</time>
      </trkpt>
      <trkpt lat="47.41396" lon="-0.55557">
        <ele>20</ele>
        <time>2010-08-13T19:20:51Z</time>
      </trkpt>
      <trkpt lat="47.41407" lon="-0.55502">
        <ele>19</ele>
        <time>2010-08-13T19:20:56Z</time>
      </trkpt>
      <trkpt lat="47.41415" lon="-0.55458">
        <ele>17</ele>
        <time>2010-08-13T19:21:01Z</time>
      </trkpt>
      <trkpt lat="47.41427" lon="-0.55403">
        <ele>17</ele>
        <time>2010-08-13T19:21:06Z</time>
      </trkpt>
      <trkpt lat="47.41437" lon="-0.55336">
        <ele>17</ele>
        <time>2010-08-13T19:21:11Z</time>
      </trkpt>
      <trkpt lat="47.41458" lon="-0.55282">
        <ele>18</ele>
        <time>2010-08-13T19:21:16Z</time>
      </trkpt>
      <trkpt lat="47.41475" lon="-0.55228">
        <ele>18</ele>
        <time>2010-08-13T19:21:21Z</time>
      </trkpt>
      <trkpt lat="47.41483" lon="-0.55184">
        <ele>18</ele>
        <time>2010-08-13T19:21:26Z</time>
      </trkpt>
      <trkpt lat="47.41494" lon="-0.55129">
        <ele>18</ele>
        <time>2010-08-13T19:21:31Z</time>
      </trkpt>
      <trkpt lat="47.41505" lon="-0.55074">
        <ele>18</ele>
        <time>2010-08-13T19:21:36Z</time>
      </trkpt>
      <trkpt lat="47.41526" lon="-0.55011">
        <ele>18</ele>
        <time>2010-08-13T19:21:41Z</time>
      </trkpt>
      <trkpt lat="47.41543" lon="-0.54971">
        <ele>18</ele>
        <time>2010-08-13T19:21:46Z</time>
      </trkpt>
      <trkpt lat="47.41564" lon="-0.54921">
        <ele>19</ele>
        <time>2010-08-13T19:21:51Z</time>
      </trkpt>
      <trkpt lat="47.41581" lon="-0.5487">
        <ele>18</ele>
        <time>2010-08-13T19:21:56Z</time>
      </trkpt>
      <trkpt lat="47.41599" lon="-0.54806">
        <ele>19</ele>
        <time>2010-08-13T19:22:01Z</time>
      </trkpt>
      <trkpt lat="47.41613" lon="-0.54747">
        <ele>20</ele>
        <time>2010-08-13T19:22:06Z</time>
      </trkpt>
      <trkpt lat="47.4162" lon="-0.54699">
        <ele>20</ele>
        <time>2010-08-13T19:22:11Z</time>
      </trkpt>
      <trkpt lat="47.41632" lon="-0.54639">
        <ele>19</ele>
        <time>2010-08-13T19:22:16Z</time>
      </trkpt>
      <trkpt lat="47.41633" lon="-0.54567">
        <ele>18</ele>
        <time>2010-08-13T19:22:21Z</time>
      </trkpt>
      <trkpt lat="47.41642" lon="-0.5451">
        <ele>19</ele>
        <time>2010-08-13T19:22:26Z</time>
      </trkpt>
      <trkpt lat="47.41653" lon="-0.54467">
        <ele>19</ele>
        <time>2010-08-13T19:22:31Z</time>
      </trkpt>
      <trkpt lat="47.41673" lon="-0.54416">
        <ele>20</ele>
        <time>2010-08-13T19:22:36Z</time>
      </trkpt>
      <trkpt lat="47.41699" lon="-0.54371">
        <ele>21</ele>
        <time>2010-08-13T19:22:41Z</time>
      </trkpt>
      <trkpt lat="47.41734" lon="-0.54323">
        <ele>21</ele>
        <time>2010-08-13T19:22:46Z</time>
      </trkpt>
      <trkpt lat="47.41761" lon="-0.54281">
        <ele>19</ele>
        <time>2010-08-13T19:22:51Z</time>
      </trkpt>
      <trkpt lat="47.41774" lon="-0.54236">
        <ele>19</ele>
        <time>2010-08-13T19:22:56Z</time>
      </trkpt>
      <trkpt lat="47.41782" lon="-0.54177">
        <ele>18</ele>
        <time>2010-08-13T19:23:01Z</time>
      </trkpt>
      <trkpt lat="47.41801" lon="-0.5411">
        <ele>17</ele>
        <time>2010-08-13T19:23:06Z</time>
      </trkpt>
      <trkpt lat="47.41814" lon="-0.54053">
        <ele>16</ele>
        <time>2010-08-13T19:23:11Z</time>
      </trkpt>
      <trkpt lat="47.41827" lon="-0.54">
        <ele>17</ele>
        <time>2010-08-13T19:23:16Z</time>
      </trkpt>
      <trkpt lat="47.4184" lon="-0.53957">
        <ele>16</ele>
        <time>2010-08-13T19:23:21Z</time>
      </trkpt>
      <trkpt lat="47.41851" lon="-0.53902">
        <ele>17</ele>
        <time>2010-08-13T19:23:26Z</time>
      </trkpt>
      <trkpt lat="47.41858" lon="-0.53834">
        <ele>18</ele>
        <time>2010-08-13T19:23:31Z</time>
      </trkpt>
      <trkpt lat="47.41863" lon="-0.53777">
        <ele>17</ele>
        <time>2010-08-13T19:23:36Z</time>
      </trkpt>
      <trkpt lat="47.41864" lon="-0.53731">
        <ele>17</ele>
        <time>2010-08-13T19:23:41Z</time>
      </trkpt>
      <trkpt lat="47.41859" lon="-0.53675">
        <ele>18</ele>
        <time>2010-08-13T19:23:46Z</time>
      </trkpt>
      <trkpt lat="47.41849" lon="-0.53621">
        <ele>16</ele>
        <time>2010-08-13T19:23:51Z</time>
      </trkpt>
      <trkpt lat="47.41841" lon="-0.53551">
        <ele>15</ele>
        <time>2010-08-13T19:23:56Z</time>
      </trkpt>
      <trkpt lat="47.41846" lon="-0.53492">
        <ele>17</ele>
        <time>2010-08-13T19:24:01Z</time>
      </trkpt>
      <trkpt lat="47.41845" lon="-0.53446">
        <ele>18</ele>
        <time>2010-08-13T19:24:06Z</time>
      </trkpt>
      <trkpt lat="47.41844" lon="-0.53387">
        <ele>19</ele>
        <time>2010-08-13T19:24:11Z</time>
      </trkpt>
      <trkpt lat="47.41841" lon="-0.53313">
        <ele>18</ele>
        <time>2010-08-13T19:24:16Z</time>
      </trkpt>
      <trkpt lat="47.41838" lon="-0.53253">
        <ele>17</ele>
        <time>2010-08-13T19:24:21Z</time>
      </trkpt>
      <trkpt lat="47.41836" lon="-0.53206">
        <ele>17</ele>
        <time>2010-08-13T19:24:26Z</time>
      </trkpt>
      <trkpt lat="47.41835" lon="-0.53149">
        <ele>18</ele>
        <time>2010-08-13T19:24:31Z</time>
      </trkpt>
      <trkpt lat="47.41833" lon="-0.53091">
        <ele>18</ele>
        <time>2010-08-13T19:24:36Z</time>
      </trkpt>
      <trkpt lat="47.4183" lon="-0.53023">
        <ele>19</ele>
        <time>2010-08-13T19:24:41Z</time>
      </trkpt>
      <trkpt lat="47.41828" lon="-0.52967">
        <ele>20</ele>
        <time>2010-08-13T19:24:46Z</time>
      </trkpt>
      <trkpt lat="47.41819" lon="-0.52923">
        <ele>20</ele>
        <time>2010-08-13T19:24:51Z</time>
      </trkpt>
      <trkpt lat="47.41802" lon="-0.52874">
        <ele>21</ele>
        <time>2010-08-13T19:24:56Z</time>
      </trkpt>
      <trkpt lat="47.41776" lon="-0.52821">
        <ele>22</ele>
        <time>2010-08-13T19:25:01Z</time>
      </trkpt>
      <trkpt lat="47.41744" lon="-0.5279">
        <ele>22</ele>
        <time>2010-08-13T19:25:06Z</time>
      </trkpt>
      <trkpt lat="47.41716" lon="-0.52765">
        <ele>22</ele>
        <time>2010-08-13T19:25:11Z</time>
      </trkpt>
      <trkpt lat="47.41686" lon="-0.52724">
        <ele>22</ele>
        <time>2010-08-13T19:25:16Z</time>
      </trkpt>
      <trkpt lat="47.41646" lon="-0.5268">
        <ele>22</ele>
        <time>2010-08-13T19:25:21Z</time>
      </trkpt>
      <trkpt lat="47.41609" lon="-0.52647">
        <ele>22</ele>
        <time>2010-08-13T19:25:26Z</time>
      </trkpt>
      <trkpt lat="47.41568" lon="-0.52618">
        <ele>21</ele>
        <time>2010-08-13T19:25:31Z</time>
      </trkpt>
      <trkpt lat="47.41536" lon="-0.52599">
        <ele>21</ele>
        <time>2010-08-13T19:25:36Z</time>
      </trkpt>
      <trkpt lat="47.41499" lon="-0.52579">
        <ele>21</ele>
        <time>2010-08-13T19:25:41Z</time>
      </trkpt>
      <trkpt lat="47.41468" lon="-0.52521">
        <ele>20</ele>
        <time>2010-08-13T19:25:46Z</time>
      </trkpt>
      <trkpt lat="47.41453" lon="-0.52462">
        <ele>20</ele>
        <time>2010-08-13T19:25:51Z</time>
      </trkpt>
      <trkpt lat="47.41455" lon="-0.52415">
        <ele>22</ele>
        <time>2010-08-13T19:25:56Z</time>
      </trkpt>
      <trkpt lat="47.41471" lon="-0.52364">
        <ele>22</ele>
        <time>2010-08-13T19:26:01Z</time>
      </trkpt>
      <trkpt lat="47.41485" lon="-0.52319">
        <ele>24</ele>
        <time>2010-08-13T19:26:06Z</time>
      </trkpt>
      <trkpt lat="47.4149" lon="-0.52309">
        <ele>24</ele>
        <time>2010-08-13T19:26:11Z</time>
      </trkpt>
      <trkpt lat="47.41522" lon="-0.52319">
        <ele>24</ele>
        <time>2010-08-13T19:26:16Z</time>
      </trkpt>
      <trkpt lat="47.4155" lon="-0.52321">
        <ele>24</ele>
        <time>2010-08-13T19:26:21Z</time>
      </trkpt>
      <trkpt lat="47.41585" lon="-0.52327">
        <ele>24</ele>
        <time>2010-08-13T19:26:26Z</time>
      </trkpt>
      <trkpt lat="47.41629" lon="-0.52329">
        <ele>24</ele>
        <time>2010-08-13T19:26:31Z</time>
      </trkpt>
      <trkpt lat="47.41665" lon="-0.52332">
        <ele>24</ele>
        <time>2010-08-13T19:26:36Z</time>
      </trkpt>
      <trkpt lat="47.41702" lon="-0.52333">
        <ele>23</ele>
        <time>2010-08-13T19:26:41Z</time>
      </trkpt>
      <trkpt lat="47.41732" lon="-0.52334">
        <ele>22</ele>
        <time>2010-08-13T19:26:46Z</time>
      </trkpt>
      <trkpt lat="47.41768" lon="-0.52338">
        <ele>22</ele>
        <time>2010-08-13T19:26:51Z</time>
      </trkpt>
      <trkpt lat="47.41813" lon="-0.52339">
        <ele>22</ele>
        <time>2010-08-13T19:26:56Z</time>
      </trkpt>
      <trkpt lat="47.41847" lon="-0.52322">
        <ele>21</ele>
        <time>2010-08-13T19:27:01Z</time>
      </trkpt>
      <trkpt lat="47.4187" lon="-0.52339">
        <ele>22</ele>
        <time>2010-08-13T19:27:06Z</time>
      </trkpt>
      <trkpt lat="47.41905" lon="-0.52344">
        <ele>22</ele>
        <time>2010-08-13T19:27:11Z</time>
      </trkpt>
      <trkpt lat="47.41945" lon="-0.52349">
        <ele>19</ele>
        <time>2010-08-13T19:27:16Z</time>
      </trkpt>
      <trkpt lat="47.41979" lon="-0.52352">
        <ele>17</ele>
        <time>2010-08-13T19:27:21Z</time>
      </trkpt>
      <trkpt lat="47.42015" lon="-0.52354">
        <ele>14</ele>
        <time>2010-08-13T19:27:26Z</time>
      </trkpt>
      <trkpt lat="47.42044" lon="-0.52357">
        <ele>14</ele>
        <time>2010-08-13T19:27:31Z</time>
      </trkpt>
      <trkpt lat="47.42079" lon="-0.52359">
        <ele>14</ele>
        <time>2010-08-13T19:27:36Z</time>
      </trkpt>
      <trkpt lat="47.42121" lon="-0.52362">
        <ele>14</ele>
        <time>2010-08-13T19:27:41Z</time>
      </trkpt>
      <trkpt lat="47.42156" lon="-0.52364">
        <ele>14</ele>
        <time>2010-08-13T19:27:46Z</time>
      </trkpt>
      <trkpt lat="47.42184" lon="-0.52366">
        <ele>17</ele>
        <time>2010-08-13T19:27:51Z</time>
      </trkpt>
      <trkpt lat="47.42221" lon="-0.52368">
        <ele>19</ele>
        <time>2010-08-13T19:27:56Z</time>
      </trkpt>
      <trkpt lat="47.42262" lon="-0.5237">
        <ele>23</ele>
        <time>2010-08-13T19:28:01Z</time>
      </trkpt>
      <trkpt lat="47.42311" lon="-0.5239">
        <ele>24</ele>
        <time>2010-08-13T19:28:06Z</time>
      </trkpt>
      <trkpt lat="47.42347" lon="-0.5242">
        <ele>25</ele>
        <time>2010-08-13T19:28:11Z</time>
      </trkpt>
      <trkpt lat="47.42378" lon="-0.52446">
        <ele>24</ele>
        <time>2010-08-13T19:28:16Z</time>
      </trkpt>
      <trkpt lat="47.42416" lon="-0.52475">
        <ele>24</ele>
        <time>2010-08-13T19:28:21Z</time>
      </trkpt>
      <trkpt lat="47.42458" lon="-0.52508">
        <ele>23</ele>
        <time>2010-08-13T19:28:26Z</time>
      </trkpt>
      <trkpt lat="47.425" lon="-0.52529">
        <ele>23</ele>
        <time>2010-08-13T19:28:31Z</time>
      </trkpt>
      <trkpt lat="47.42533" lon="-0.5255">
        <ele>23</ele>
        <time>2010-08-13T19:28:36Z</time>
      </trkpt>
      <trkpt lat="47.42572" lon="-0.52574">
        <ele>22</ele>
        <time>2010-08-13T19:28:41Z</time>
      </trkpt>
      <trkpt lat="47.42605" lon="-0.52598">
        <ele>21</ele>
        <time>2010-08-13T19:28:46Z</time>
      </trkpt>
      <trkpt lat="47.42635" lon="-0.52623">
        <ele>21</ele>
        <time>2010-08-13T19:28:51Z</time>
      </trkpt>
      <trkpt lat="47.42665" lon="-0.52647">
        <ele>20</ele>
        <time>2010-08-13T19:28:56Z</time>
      </trkpt>
      <trkpt lat="47.42691" lon="-0.52664">
        <ele>19</ele>
        <time>2010-08-13T19:29:01Z</time>
      </trkpt>
      <trkpt lat="47.42723" lon="-0.52687">
        <ele>21</ele>
        <time>2010-08-13T19:29:06Z</time>
      </trkpt>
      <trkpt lat="47.42765" lon="-0.52716">
        <ele>22</ele>
        <time>2010-08-13T19:29:11Z</time>
      </trkpt>
      <trkpt lat="47.42802" lon="-0.52742">
        <ele>22</ele>
        <time>2010-08-13T19:29:16Z</time>
      </trkpt>
      <trkpt lat="47.42832" lon="-0.5276">
        <ele>22</ele>
        <time>2010-08-13T19:29:21Z</time>
      </trkpt>
      <trkpt lat="47.42872" lon="-0.52779">
        <ele>21</ele>
        <time>2010-08-13T19:29:26Z</time>
      </trkpt>
      <trkpt lat="47.42914" lon="-0.52793">
        <ele>21</ele>
        <time>2010-08-13T19:29:31Z</time>
      </trkpt>
      <trkpt lat="47.42962" lon="-0.52797">
        <ele>20</ele>
        <time>2010-08-13T19:29:36Z</time>
      </trkpt>
      <trkpt lat="47.42999" lon="-0.52806">
        <ele>20</ele>
        <time>2010-08-13T19:29:41Z</time>
      </trkpt>
      <trkpt lat="47.43022" lon="-0.5282">
        <ele>20</ele>
        <time>2010-08-13T19:29:46Z</time>
      </trkpt>
      <trkpt lat="47.43058" lon="-0.52828">
        <ele>19</ele>
        <time>2010-08-13T19:29:51Z</time>
      </trkpt>
      <trkpt lat="47.43105" lon="-0.52843">
        <ele>20</ele>
        <time>2010-08-13T19:29:56Z</time>
      </trkpt>
      <trkpt lat="47.4314" lon="-0.52857">
        <ele>20</ele>
        <time>2010-08-13T19:30:01Z</time>
      </trkpt>
      <trkpt lat="47.43177" lon="-0.52873">
        <ele>21</ele>
        <time>2010-08-13T19:30:06Z</time>
      </trkpt>
      <trkpt lat="47.43206" lon="-0.52886">
        <ele>22</ele>
        <time>2010-08-13T19:30:11Z</time>
      </trkpt>
      <trkpt lat="47.43241" lon="-0.52906">
        <ele>22</ele>
        <time>2010-08-13T19:30:16Z</time>
      </trkpt>
      <trkpt lat="47.43283" lon="-0.52928">
        <ele>22</ele>
        <time>2010-08-13T19:30:21Z</time>
      </trkpt>
      <trkpt lat="47.43319" lon="-0.52935">
        <ele>21</ele>
        <time>2010-08-13T19:30:26Z</time>
      </trkpt>
      <trkpt lat="47.43335" lon="-0.52923">
        <ele>21</ele>
        <time>2010-08-13T19:30:31Z</time>
      </trkpt>
      <trkpt lat="47.43335" lon="-0.52922">
        <ele>21</ele>
        <time>2010-08-13T19:30:36Z</time>
      </trkpt>
      <trkpt lat="47.43335" lon="-0.52922">
        <ele>21</ele>
        <time>2010-08-13T19:30:41Z</time>
      </trkpt>
      <trkpt lat="47.43337" lon="-0.5292">
        <ele>21</ele>
        <time>2010-08-13T19:30:46Z</time>
      </trkpt>
      <trkpt lat="47.43342" lon="-0.52918">
        <ele>21</ele>
        <time>2010-08-13T19:30:51Z</time>
      </trkpt>
      <trkpt lat="47.43358" lon="-0.52908">
        <ele>21</ele>
        <time>2010-08-13T19:30:56Z</time>
      </trkpt>
      <trkpt lat="47.43379" lon="-0.52858">
        <ele>21</ele>
        <time>2010-08-13T19:31:01Z</time>
      </trkpt>
      <trkpt lat="47.43394" lon="-0.52787">
        <ele>22</ele>
        <time>2010-08-13T19:31:06Z</time>
      </trkpt>
      <trkpt lat="47.43411" lon="-0.52724">
        <ele>21</ele>
        <time>2010-08-13T19:31:11Z</time>
      </trkpt>
      <trkpt lat="47.43426" lon="-0.52677">
        <ele>20</ele>
        <time>2010-08-13T19:31:16Z</time>
      </trkpt>
      <trkpt lat="47.4344" lon="-0.52619">
        <ele>19</ele>
        <time>2010-08-13T19:31:21Z</time>
      </trkpt>
      <trkpt lat="47.4345" lon="-0.52559">
        <ele>19</ele>
        <time>2010-08-13T19:31:26Z</time>
      </trkpt>
      <trkpt lat="47.43465" lon="-0.52489">
        <ele>19</ele>
        <time>2010-08-13T19:31:31Z</time>
      </trkpt>
      <trkpt lat="47.43481" lon="-0.52431">
        <ele>19</ele>
        <time>2010-08-13T19:31:36Z</time>
      </trkpt>
      <trkpt lat="47.43492" lon="-0.5238">
        <ele>19</ele>
        <time>2010-08-13T19:31:41Z</time>
      </trkpt>
      <trkpt lat="47.43506" lon="-0.52318">
        <ele>19</ele>
        <time>2010-08-13T19:31:46Z</time>
      </trkpt>
      <trkpt lat="47.43525" lon="-0.52248">
        <ele>20</ele>
        <time>2010-08-13T19:31:51Z</time>
      </trkpt>
      <trkpt lat="47.43534" lon="-0.52191">
        <ele>20</ele>
        <time>2010-08-13T19:31:56Z</time>
      </trkpt>
      <trkpt lat="47.43542" lon="-0.52147">
        <ele>19</ele>
        <time>2010-08-13T19:32:01Z</time>
      </trkpt>
      <trkpt lat="47.43558" lon="-0.52091">
        <ele>19</ele>
        <time>2010-08-13T19:32:06Z</time>
      </trkpt>
      <trkpt lat="47.43571" lon="-0.52036">
        <ele>18</ele>
        <time>2010-08-13T19:32:11Z</time>
      </trkpt>
      <trkpt lat="47.43589" lon="-0.5198">
        <ele>19</ele>
        <time>2010-08-13T19:32:16Z</time>
      </trkpt>
      <trkpt lat="47.43609" lon="-0.51915">
        <ele>20</ele>
        <time>2010-08-13T19:32:21Z</time>
      </trkpt>
      <trkpt lat="47.43619" lon="-0.51871">
        <ele>20</ele>
        <time>2010-08-13T19:32:26Z</time>
      </trkpt>
      <trkpt lat="47.43631" lon="-0.51817">
        <ele>22</ele>
        <time>2010-08-13T19:32:31Z</time>
      </trkpt>
      <trkpt lat="47.43645" lon="-0.51752">
        <ele>23</ele>
        <time>2010-08-13T19:32:36Z</time>
      </trkpt>
      <trkpt lat="47.43653" lon="-0.51699">
        <ele>23</ele>
        <time>2010-08-13T19:32:41Z</time>
      </trkpt>
      <trkpt lat="47.43661" lon="-0.51654">
        <ele>23</ele>
        <time>2010-08-13T19:32:46Z</time>
      </trkpt>
      <trkpt lat="47.43675" lon="-0.51598">
        <ele>22</ele>
        <time>2010-08-13T19:32:51Z</time>
      </trkpt>
      <trkpt lat="47.43689" lon="-0.51541">
        <ele>21</ele>
        <time>2010-08-13T19:32:56Z</time>
      </trkpt>
      <trkpt lat="47.43711" lon="-0.51474">
        <ele>21</ele>
        <time>2010-08-13T19:33:01Z</time>
      </trkpt>
      <trkpt lat="47.43718" lon="-0.5142">
        <ele>21</ele>
        <time>2010-08-13T19:33:06Z</time>
      </trkpt>
      <trkpt lat="47.43735" lon="-0.51378">
        <ele>22</ele>
        <time>2010-08-13T19:33:11Z</time>
      </trkpt>
      <trkpt lat="47.43737" lon="-0.51327">
        <ele>23</ele>
        <time>2010-08-13T19:33:16Z</time>
      </trkpt>
      <trkpt lat="47.43753" lon="-0.51268">
        <ele>24</ele>
        <time>2010-08-13T19:33:21Z</time>
      </trkpt>
      <trkpt lat="47.43764" lon="-0.51217">
        <ele>24</ele>
        <time>2010-08-13T19:33:26Z</time>
      </trkpt>
      <trkpt lat="47.43766" lon="-0.51165">
        <ele>23</ele>
        <time>2010-08-13T19:33:31Z</time>
      </trkpt>
      <trkpt lat="47.43769" lon="-0.51125">
        <ele>23</ele>
        <time>2010-08-13T19:33:36Z</time>
      </trkpt>
      <trkpt lat="47.43773" lon="-0.51076">
        <ele>24</ele>
        <time>2010-08-13T19:33:41Z</time>
      </trkpt>
      <trkpt lat="47.43788" lon="-0.51016">
        <ele>24</ele>
        <time>2010-08-13T19:33:46Z</time>
      </trkpt>
      <trkpt lat="47.43802" lon="-0.50962">
        <ele>24</ele>
        <time>2010-08-13T19:33:51Z</time>
      </trkpt>
      <trkpt lat="47.43796" lon="-0.50911">
        <ele>23</ele>
        <time>2010-08-13T19:33:56Z</time>
      </trkpt>
      <trkpt lat="47.43789" lon="-0.50849">
        <ele>23</ele>
        <time>2010-08-13T19:34:01Z</time>
      </trkpt>
      <trkpt lat="47.43792" lon="-0.50783">
        <ele>23</ele>
        <time>2010-08-13T19:34:06Z</time>
      </trkpt>
      <trkpt lat="47.43781" lon="-0.50714">
        <ele>24</ele>
        <time>2010-08-13T19:34:11Z</time>
      </trkpt>
      <trkpt lat="47.43773" lon="-0.50658">
        <ele>24</ele>
        <time>2010-08-13T19:34:16Z</time>
      </trkpt>
      <trkpt lat="47.43764" lon="-0.50612">
        <ele>24</ele>
        <time>2010-08-13T19:34:21Z</time>
      </trkpt>
      <trkpt lat="47.43746" lon="-0.50555">
        <ele>23</ele>
        <time>2010-08-13T19:34:26Z</time>
      </trkpt>
      <trkpt lat="47.43713" lon="-0.50484">
        <ele>23</ele>
        <time>2010-08-13T19:34:31Z</time>
      </trkpt>
      <trkpt lat="47.43685" lon="-0.50428">
        <ele>23</ele>
        <time>2010-08-13T19:34:36Z</time>
      </trkpt>
      <trkpt lat="47.43663" lon="-0.50385">
        <ele>23</ele>
        <time>2010-08-13T19:34:41Z</time>
      </trkpt>
      <trkpt lat="47.43635" lon="-0.50329">
        <ele>22</ele>
        <time>2010-08-13T19:34:46Z</time>
      </trkpt>
      <trkpt lat="47.43609" lon="-0.50272">
        <ele>22</ele>
        <time>2010-08-13T19:34:51Z</time>
      </trkpt>
      <trkpt lat="47.43576" lon="-0.50207">
        <ele>20</ele>
        <time>2010-08-13T19:34:56Z</time>
      </trkpt>
      <trkpt lat="47.43548" lon="-0.50152">
        <ele>20</ele>
        <time>2010-08-13T19:35:01Z</time>
      </trkpt>
      <trkpt lat="47.43527" lon="-0.50109">
        <ele>20</ele>
        <time>2010-08-13T19:35:06Z</time>
      </trkpt>
      <trkpt lat="47.435" lon="-0.50058">
        <ele>20</ele>
        <time>2010-08-13T19:35:11Z</time>
      </trkpt>
      <trkpt lat="47.43466" lon="-0.50005">
        <ele>19</ele>
        <time>2010-08-13T19:35:16Z</time>
      </trkpt>
      <trkpt lat="47.43448" lon="-0.49958">
        <ele>20</ele>
        <time>2010-08-13T19:35:21Z</time>
      </trkpt>
      <trkpt lat="47.43463" lon="-0.49923">
        <ele>20</ele>
        <time>2010-08-13T19:35:26Z</time>
      </trkpt>
      <trkpt lat="47.43503" lon="-0.49886">
        <ele>21</ele>
        <time>2010-08-13T19:35:31Z</time>
      </trkpt>
      <trkpt lat="47.4352" lon="-0.49828">
        <ele>21</ele>
        <time>2010-08-13T19:35:36Z</time>
      </trkpt>
      <trkpt lat="47.43536" lon="-0.49758">
        <ele>20</ele>
        <time>2010-08-13T19:35:41Z</time>
      </trkpt>
      <trkpt lat="47.43546" lon="-0.49699">
        <ele>19</ele>
        <time>2010-08-13T19:35:46Z</time>
      </trkpt>
      <trkpt lat="47.43556" lon="-0.49654">
        <ele>19</ele>
        <time>2010-08-13T19:35:51Z</time>
      </trkpt>
      <trkpt lat="47.43571" lon="-0.49598">
        <ele>19</ele>
        <time>2010-08-13T19:35:56Z</time>
      </trkpt>
      <trkpt lat="47.4359" lon="-0.49532">
        <ele>20</ele>
        <time>2010-08-13T19:36:01Z</time>
      </trkpt>
      <trkpt lat="47.43605" lon="-0.49474">
        <ele>20</ele>
        <time>2010-08-13T19:36:06Z</time>
      </trkpt>
      <trkpt lat="47.43621" lon="-0.49414">
        <ele>21</ele>
        <time>2010-08-13T19:36:11Z</time>
      </trkpt>
      <trkpt lat="47.43634" lon="-0.49367">
        <ele>20</ele>
        <time>2010-08-13T19:36:16Z</time>
      </trkpt>
      <trkpt lat="47.43651" lon="-0.49309">
        <ele>19</ele>
        <time>2010-08-13T19:36:21Z</time>
      </trkpt>
      <trkpt lat="47.43669" lon="-0.49241">
        <ele>19</ele>
        <time>2010-08-13T19:36:26Z</time>
      </trkpt>
      <trkpt lat="47.43682" lon="-0.49184">
        <ele>20</ele>
        <time>2010-08-13T19:36:31Z</time>
      </trkpt>
      <trkpt lat="47.43692" lon="-0.49138">
        <ele>20</ele>
        <time>2010-08-13T19:36:36Z</time>
      </trkpt>
      <trkpt lat="47.43705" lon="-0.49082">
        <ele>20</ele>
        <time>2010-08-13T19:36:41Z</time>
      </trkpt>
      <trkpt lat="47.43721" lon="-0.49015">
        <ele>19</ele>
        <time>2010-08-13T19:36:46Z</time>
      </trkpt>
      <trkpt lat="47.43736" lon="-0.48959">
        <ele>19</ele>
        <time>2010-08-13T19:36:51Z</time>
      </trkpt>
      <trkpt lat="47.43751" lon="-0.48904">
        <ele>19</ele>
        <time>2010-08-13T19:36:56Z</time>
      </trkpt>
      <trkpt lat="47.43764" lon="-0.48858">
        <ele>19</ele>
        <time>2010-08-13T19:37:01Z</time>
      </trkpt>
      <trkpt lat="47.43781" lon="-0.48803">
        <ele>20</ele>
        <time>2010-08-13T19:37:06Z</time>
      </trkpt>
      <trkpt lat="47.43817" lon="-0.48744">
        <ele>21</ele>
        <time>2010-08-13T19:37:11Z</time>
      </trkpt>
      <trkpt lat="47.4385" lon="-0.487">
        <ele>22</ele>
        <time>2010-08-13T19:37:16Z</time>
      </trkpt>
      <trkpt lat="47.43874" lon="-0.48665">
        <ele>22</ele>
        <time>2010-08-13T19:37:21Z</time>
      </trkpt>
      <trkpt lat="47.43891" lon="-0.48613">
        <ele>23</ele>
        <time>2010-08-13T19:37:26Z</time>
      </trkpt>
      <trkpt lat="47.43917" lon="-0.48572">
        <ele>23</ele>
        <time>2010-08-13T19:37:31Z</time>
      </trkpt>
      <trkpt lat="47.43958" lon="-0.48552">
        <ele>23</ele>
        <time>2010-08-13T19:37:36Z</time>
      </trkpt>
      <trkpt lat="47.43995" lon="-0.48502">
        <ele>23</ele>
        <time>2010-08-13T19:37:41Z</time>
      </trkpt>
      <trkpt lat="47.4402" lon="-0.48469">
        <ele>21</ele>
        <time>2010-08-13T19:37:46Z</time>
      </trkpt>
      <trkpt lat="47.4405" lon="-0.4843">
        <ele>20</ele>
        <time>2010-08-13T19:37:51Z</time>
      </trkpt>
      <trkpt lat="47.44085" lon="-0.48383">
        <ele>19</ele>
        <time>2010-08-13T19:37:56Z</time>
      </trkpt>
      <trkpt lat="47.44115" lon="-0.48344">
        <ele>19</ele>
        <time>2010-08-13T19:38:01Z</time>
      </trkpt>
      <trkpt lat="47.44141" lon="-0.48318">
        <ele>20</ele>
        <time>2010-08-13T19:38:06Z</time>
      </trkpt>
      <trkpt lat="47.44178" lon="-0.48304">
        <ele>19</ele>
        <time>2010-08-13T19:38:11Z</time>
      </trkpt>
      <trkpt lat="47.44216" lon="-0.48287">
        <ele>19</ele>
        <time>2010-08-13T19:38:16Z</time>
      </trkpt>
      <trkpt lat="47.44255" lon="-0.4833">
        <ele>19</ele>
        <time>2010-08-13T19:38:21Z</time>
      </trkpt>
      <trkpt lat="47.44293" lon="-0.48345">
        <ele>19</ele>
        <time>2010-08-13T19:38:26Z</time>
      </trkpt>
      <trkpt lat="47.44324" lon="-0.48348">
        <ele>19</ele>
        <time>2010-08-13T19:38:31Z</time>
      </trkpt>
      <trkpt lat="47.44362" lon="-0.48348">
        <ele>20</ele>
        <time>2010-08-13T19:38:36Z</time>
      </trkpt>
      <trkpt lat="47.44407" lon="-0.48351">
        <ele>20</ele>
        <time>2010-08-13T19:38:41Z</time>
      </trkpt>
      <trkpt lat="47.44445" lon="-0.48355">
        <ele>20</ele>
        <time>2010-08-13T19:38:46Z</time>
      </trkpt>
      <trkpt lat="47.44475" lon="-0.4836">
        <ele>20</ele>
        <time>2010-08-13T19:38:51Z</time>
      </trkpt>
      <trkpt lat="47.44511" lon="-0.4837">
        <ele>21</ele>
        <time>2010-08-13T19:38:56Z</time>
      </trkpt>
      <trkpt lat="47.44547" lon="-0.48383">
        <ele>21</ele>
        <time>2010-08-13T19:39:01Z</time>
      </trkpt>
      <trkpt lat="47.4459" lon="-0.48401">
        <ele>21</ele>
        <time>2010-08-13T19:39:06Z</time>
      </trkpt>
      <trkpt lat="47.44623" lon="-0.4842">
        <ele>20</ele>
        <time>2010-08-13T19:39:11Z</time>
      </trkpt>
      <trkpt lat="47.44649" lon="-0.48435">
        <ele>21</ele>
        <time>2010-08-13T19:39:16Z</time>
      </trkpt>
      <trkpt lat="47.44682" lon="-0.48458">
        <ele>23</ele>
        <time>2010-08-13T19:39:21Z</time>
      </trkpt>
      <trkpt lat="47.4472" lon="-0.48486">
        <ele>24</ele>
        <time>2010-08-13T19:39:26Z</time>
      </trkpt>
      <trkpt lat="47.44754" lon="-0.48491">
        <ele>26</ele>
        <time>2010-08-13T19:39:31Z</time>
      </trkpt>
      <trkpt lat="47.44783" lon="-0.48517">
        <ele>26</ele>
        <time>2010-08-13T19:39:36Z</time>
      </trkpt>
      <trkpt lat="47.44797" lon="-0.48555">
        <ele>26</ele>
        <time>2010-08-13T19:39:41Z</time>
      </trkpt>
      <trkpt lat="47.44823" lon="-0.48585">
        <ele>26</ele>
        <time>2010-08-13T19:39:46Z</time>
      </trkpt>
      <trkpt lat="47.44862" lon="-0.48595">
        <ele>26</ele>
        <time>2010-08-13T19:39:51Z</time>
      </trkpt>
      <trkpt lat="47.44895" lon="-0.48585">
        <ele>25</ele>
        <time>2010-08-13T19:39:56Z</time>
      </trkpt>
      <trkpt lat="47.4492" lon="-0.48569">
        <ele>26</ele>
        <time>2010-08-13T19:40:01Z</time>
      </trkpt>
      <trkpt lat="47.44952" lon="-0.48555">
        <ele>28</ele>
        <time>2010-08-13T19:40:06Z</time>
      </trkpt>
      <trkpt lat="47.44969" lon="-0.48584">
        <ele>26</ele>
        <time>2010-08-13T19:40:11Z</time>
      </trkpt>
      <trkpt lat="47.44939" lon="-0.48579">
        <ele>27</ele>
        <time>2010-08-13T19:40:16Z</time>
      </trkpt>
      <trkpt lat="47.44897" lon="-0.48589">
        <ele>25</ele>
        <time>2010-08-13T19:40:21Z</time>
      </trkpt>
      <trkpt lat="47.44867" lon="-0.48599">
        <ele>26</ele>
        <time>2010-08-13T19:40:26Z</time>
      </trkpt>
      <trkpt lat="47.44829" lon="-0.48594">
        <ele>26</ele>
        <time>2010-08-13T19:40:31Z</time>
      </trkpt>
      <trkpt lat="47.44785" lon="-0.48568">
        <ele>25</ele>
        <time>2010-08-13T19:40:36Z</time>
      </trkpt>
      <trkpt lat="47.44747" lon="-0.48543">
        <ele>22</ele>
        <time>2010-08-13T19:40:41Z</time>
      </trkpt>
      <trkpt lat="47.44726" lon="-0.48503">
        <ele>23</ele>
        <time>2010-08-13T19:40:46Z</time>
      </trkpt>
      <trkpt lat="47.44688" lon="-0.48474">
        <ele>23</ele>
        <time>2010-08-13T19:40:51Z</time>
      </trkpt>
      <trkpt lat="47.44648" lon="-0.48446">
        <ele>21</ele>
        <time>2010-08-13T19:40:56Z</time>
      </trkpt>
      <trkpt lat="47.44596" lon="-0.48416">
        <ele>21</ele>
        <time>2010-08-13T19:41:01Z</time>
      </trkpt>
      <trkpt lat="47.44551" lon="-0.48395">
        <ele>20</ele>
        <time>2010-08-13T19:41:06Z</time>
      </trkpt>
      <trkpt lat="47.44516" lon="-0.48382">
        <ele>20</ele>
        <time>2010-08-13T19:41:11Z</time>
      </trkpt>
      <trkpt lat="47.44473" lon="-0.48368">
        <ele>20</ele>
        <time>2010-08-13T19:41:16Z</time>
      </trkpt>
      <trkpt lat="47.44422" lon="-0.48359">
        <ele>20</ele>
        <time>2010-08-13T19:41:21Z</time>
      </trkpt>
      <trkpt lat="47.44379" lon="-0.48352">
        <ele>20</ele>
        <time>2010-08-13T19:41:26Z</time>
      </trkpt>
      <trkpt lat="47.44346" lon="-0.4835">
        <ele>19</ele>
        <time>2010-08-13T19:41:31Z</time>
      </trkpt>
      <trkpt lat="47.44306" lon="-0.48348">
        <ele>19</ele>
        <time>2010-08-13T19:41:36Z</time>
      </trkpt>
      <trkpt lat="47.44264" lon="-0.48343">
        <ele>19</ele>
        <time>2010-08-13T19:41:41Z</time>
      </trkpt>
      <trkpt lat="47.44215" lon="-0.48343">
        <ele>19</ele>
        <time>2010-08-13T19:41:46Z</time>
      </trkpt>
      <trkpt lat="47.44177" lon="-0.48318">
        <ele>20</ele>
        <time>2010-08-13T19:41:51Z</time>
      </trkpt>
      <trkpt lat="47.44144" lon="-0.48331">
        <ele>20</ele>
        <time>2010-08-13T19:41:56Z</time>
      </trkpt>
      <trkpt lat="47.4411" lon="-0.48367">
        <ele>19</ele>
        <time>2010-08-13T19:42:01Z</time>
      </trkpt>
      <trkpt lat="47.44073" lon="-0.48416">
        <ele>19</ele>
        <time>2010-08-13T19:42:06Z</time>
      </trkpt>
      <trkpt lat="47.44044" lon="-0.48456">
        <ele>20</ele>
        <time>2010-08-13T19:42:11Z</time>
      </trkpt>
      <trkpt lat="47.44021" lon="-0.48486">
        <ele>21</ele>
        <time>2010-08-13T19:42:16Z</time>
      </trkpt>
      <trkpt lat="47.43993" lon="-0.48524">
        <ele>23</ele>
        <time>2010-08-13T19:42:21Z</time>
      </trkpt>
      <trkpt lat="47.43965" lon="-0.48561">
        <ele>23</ele>
        <time>2010-08-13T19:42:26Z</time>
      </trkpt>
      <trkpt lat="47.43941" lon="-0.48613">
        <ele>23</ele>
        <time>2010-08-13T19:42:31Z</time>
      </trkpt>
      <trkpt lat="47.4392" lon="-0.48656">
        <ele>22</ele>
        <time>2010-08-13T19:42:36Z</time>
      </trkpt>
      <trkpt lat="47.43892" lon="-0.48675">
        <ele>22</ele>
        <time>2010-08-13T19:42:41Z</time>
      </trkpt>
      <trkpt lat="47.43861" lon="-0.48713">
        <ele>22</ele>
        <time>2010-08-13T19:42:46Z</time>
      </trkpt>
      <trkpt lat="47.43832" lon="-0.48754">
        <ele>21</ele>
        <time>2010-08-13T19:42:51Z</time>
      </trkpt>
      <trkpt lat="47.43803" lon="-0.48808">
        <ele>20</ele>
        <time>2010-08-13T19:42:56Z</time>
      </trkpt>
      <trkpt lat="47.43785" lon="-0.4886">
        <ele>19</ele>
        <time>2010-08-13T19:43:01Z</time>
      </trkpt>
      <trkpt lat="47.43772" lon="-0.48904">
        <ele>19</ele>
        <time>2010-08-13T19:43:06Z</time>
      </trkpt>
      <trkpt lat="47.43758" lon="-0.4896">
        <ele>19</ele>
        <time>2010-08-13T19:43:11Z</time>
      </trkpt>
      <trkpt lat="47.43739" lon="-0.49024">
        <ele>19</ele>
        <time>2010-08-13T19:43:16Z</time>
      </trkpt>
      <trkpt lat="47.43724" lon="-0.49078">
        <ele>20</ele>
        <time>2010-08-13T19:43:21Z</time>
      </trkpt>
      <trkpt lat="47.43713" lon="-0.49122">
        <ele>20</ele>
        <time>2010-08-13T19:43:26Z</time>
      </trkpt>
      <trkpt lat="47.43697" lon="-0.49176">
        <ele>20</ele>
        <time>2010-08-13T19:43:31Z</time>
      </trkpt>
      <trkpt lat="47.43682" lon="-0.4923">
        <ele>20</ele>
        <time>2010-08-13T19:43:36Z</time>
      </trkpt>
      <trkpt lat="47.43664" lon="-0.49296">
        <ele>19</ele>
        <time>2010-08-13T19:43:41Z</time>
      </trkpt>
      <trkpt lat="47.43649" lon="-0.49351">
        <ele>20</ele>
        <time>2010-08-13T19:43:46Z</time>
      </trkpt>
      <trkpt lat="47.43637" lon="-0.49394">
        <ele>20</ele>
        <time>2010-08-13T19:43:51Z</time>
      </trkpt>
      <trkpt lat="47.43622" lon="-0.49448">
        <ele>20</ele>
        <time>2010-08-13T19:43:56Z</time>
      </trkpt>
      <trkpt lat="47.43604" lon="-0.49512">
        <ele>20</ele>
        <time>2010-08-13T19:44:01Z</time>
      </trkpt>
      <trkpt lat="47.43589" lon="-0.49565">
        <ele>20</ele>
        <time>2010-08-13T19:44:06Z</time>
      </trkpt>
      <trkpt lat="47.43577" lon="-0.49608">
        <ele>19</ele>
        <time>2010-08-13T19:44:11Z</time>
      </trkpt>
      <trkpt lat="47.43562" lon="-0.49662">
        <ele>19</ele>
        <time>2010-08-13T19:44:16Z</time>
      </trkpt>
      <trkpt lat="47.43546" lon="-0.4973">
        <ele>19</ele>
        <time>2010-08-13T19:44:21Z</time>
      </trkpt>
      <trkpt lat="47.43536" lon="-0.49786">
        <ele>20</ele>
        <time>2010-08-13T19:44:26Z</time>
      </trkpt>
      <trkpt lat="47.43523" lon="-0.49843">
        <ele>21</ele>
        <time>2010-08-13T19:44:31Z</time>
      </trkpt>
      <trkpt lat="47.43512" lon="-0.49887">
        <ele>21</ele>
        <time>2010-08-13T19:44:36Z</time>
      </trkpt>
      <trkpt lat="47.43501" lon="-0.49938">
        <ele>21</ele>
        <time>2010-08-13T19:44:41Z</time>
      </trkpt>
      <trkpt lat="47.43498" lon="-0.50008">
        <ele>19</ele>
        <time>2010-08-13T19:44:46Z</time>
      </trkpt>
      <trkpt lat="47.43509" lon="-0.50062">
        <ele>20</ele>
        <time>2010-08-13T19:44:51Z</time>
      </trkpt>
      <trkpt lat="47.43529" lon="-0.501">
        <ele>20</ele>
        <time>2010-08-13T19:44:56Z</time>
      </trkpt>
      <trkpt lat="47.43552" lon="-0.50145">
        <ele>20</ele>
        <time>2010-08-13T19:45:01Z</time>
      </trkpt>
      <trkpt lat="47.43574" lon="-0.50188">
        <ele>20</ele>
        <time>2010-08-13T19:45:06Z</time>
      </trkpt>
      <trkpt lat="47.43601" lon="-0.5024">
        <ele>21</ele>
        <time>2010-08-13T19:45:11Z</time>
      </trkpt>
      <trkpt lat="47.43624" lon="-0.50284">
        <ele>22</ele>
        <time>2010-08-13T19:45:16Z</time>
      </trkpt>
      <trkpt lat="47.43642" lon="-0.5032">
        <ele>22</ele>
        <time>2010-08-13T19:45:21Z</time>
      </trkpt>
      <trkpt lat="47.43663" lon="-0.50366">
        <ele>23</ele>
        <time>2010-08-13T19:45:26Z</time>
      </trkpt>
      <trkpt lat="47.43685" lon="-0.5041">
        <ele>23</ele>
        <time>2010-08-13T19:45:31Z</time>
      </trkpt>
      <trkpt lat="47.4371" lon="-0.50462">
        <ele>23</ele>
        <time>2010-08-13T19:45:36Z</time>
      </trkpt>
      <trkpt lat="47.43727" lon="-0.50496">
        <ele>23</ele>
        <time>2010-08-13T19:45:41Z</time>
      </trkpt>
      <trkpt lat="47.43746" lon="-0.50538">
        <ele>23</ele>
        <time>2010-08-13T19:45:46Z</time>
      </trkpt>
      <trkpt lat="47.43766" lon="-0.50594">
        <ele>24</ele>
        <time>2010-08-13T19:45:51Z</time>
      </trkpt>
      <trkpt lat="47.43777" lon="-0.50644">
        <ele>24</ele>
        <time>2010-08-13T19:45:56Z</time>
      </trkpt>
      <trkpt lat="47.43784" lon="-0.50693">
        <ele>24</ele>
        <time>2010-08-13T19:46:01Z</time>
      </trkpt>
      <trkpt lat="47.43789" lon="-0.50732">
        <ele>24</ele>
        <time>2010-08-13T19:46:06Z</time>
      </trkpt>
      <trkpt lat="47.43795" lon="-0.50781">
        <ele>23</ele>
        <time>2010-08-13T19:46:11Z</time>
      </trkpt>
      <trkpt lat="47.43801" lon="-0.50832">
        <ele>23</ele>
        <time>2010-08-13T19:46:16Z</time>
      </trkpt>
      <trkpt lat="47.43838" lon="-0.50859">
        <ele>24</ele>
        <time>2010-08-13T19:46:21Z</time>
      </trkpt>
      <trkpt lat="47.43876" lon="-0.50855">
        <ele>24</ele>
        <time>2010-08-13T19:46:26Z</time>
      </trkpt>
      <trkpt lat="47.43904" lon="-0.50867">
        <ele>24</ele>
        <time>2010-08-13T19:46:31Z</time>
      </trkpt>
      <trkpt lat="47.43927" lon="-0.50909">
        <ele>23</ele>
        <time>2010-08-13T19:46:36Z</time>
      </trkpt>
      <trkpt lat="47.43948" lon="-0.50975">
        <ele>22</ele>
        <time>2010-08-13T19:46:41Z</time>
      </trkpt>
      <trkpt lat="47.43967" lon="-0.5103">
        <ele>23</ele>
        <time>2010-08-13T19:46:46Z</time>
      </trkpt>
      <trkpt lat="47.43995" lon="-0.51051">
        <ele>23</ele>
        <time>2010-08-13T19:46:51Z</time>
      </trkpt>
      <trkpt lat="47.44036" lon="-0.51035">
        <ele>22</ele>
        <time>2010-08-13T19:46:56Z</time>
      </trkpt>
      <trkpt lat="47.44079" lon="-0.51018">
        <ele>22</ele>
        <time>2010-08-13T19:47:01Z</time>
      </trkpt>
      <trkpt lat="47.4413" lon="-0.50994">
        <ele>22</ele>
        <time>2010-08-13T19:47:06Z</time>
      </trkpt>
      <trkpt lat="47.4417" lon="-0.50976">
        <ele>22</ele>
        <time>2010-08-13T19:47:11Z</time>
      </trkpt>
      <trkpt lat="47.44201" lon="-0.50962">
        <ele>23</ele>
        <time>2010-08-13T19:47:16Z</time>
      </trkpt>
      <trkpt lat="47.4424" lon="-0.50947">
        <ele>23</ele>
        <time>2010-08-13T19:47:21Z</time>
      </trkpt>
      <trkpt lat="47.44282" lon="-0.50932">
        <ele>23</ele>
        <time>2010-08-13T19:47:26Z</time>
      </trkpt>
    </trkseg>
  </trk>
</gpx>